<?xml version="1.0" encoding="UTF-8" standalone="no" ?>
<gpx xmlns="http://www.topografix.com/GPX/1/1" xmlns:xsi="http://www.w3.org/2001/XMLSchema-instance" xsi:schemaLocation="http://www.topografix.com/GPX/1/1 http://www.topografix.com/GPX/1/1/gpx.xsd" version="1.1" creator="VisuGPX - https://www.visugpx.com">
  <metadata>
    <name>Grenoble Trail - Rachais/Quichat</name>
  </metadata>
  <trk>
    <name><![CDATA[Grenoble Trail]]></name>
    <trkseg>
      <trkpt lat="45.19669" lon="5.73959">
        <ele>213.80000305176</ele>
        <time>2021-09-12T03:16:35.000Z</time>
      </trkpt>
      <trkpt lat="45.19669" lon="5.73959">
        <ele>213.80000305176</ele>
        <time>2021-09-12T03:16:36.000Z</time>
      </trkpt>
      <trkpt lat="45.19665" lon="5.73962">
        <ele>213.80000305176</ele>
        <time>2021-09-12T03:16:41.000Z</time>
      </trkpt>
      <trkpt lat="45.19663" lon="5.73962">
        <ele>213.80000305176</ele>
        <time>2021-09-12T03:16:42.000Z</time>
      </trkpt>
      <trkpt lat="45.19652" lon="5.73971">
        <ele>213.80000305176</ele>
        <time>2021-09-12T03:16:48.000Z</time>
      </trkpt>
      <trkpt lat="45.19649" lon="5.73972">
        <ele>213.80000305176</ele>
        <time>2021-09-12T03:16:50.000Z</time>
      </trkpt>
      <trkpt lat="45.19649" lon="5.73971">
        <ele>213.80000305176</ele>
        <time>2021-09-12T03:16:53.000Z</time>
      </trkpt>
      <trkpt lat="45.1965" lon="5.73971">
        <ele>213.80000305176</ele>
        <time>2021-09-12T03:17:00.000Z</time>
      </trkpt>
      <trkpt lat="45.19647" lon="5.7397">
        <ele>212.39999389648</ele>
        <time>2021-09-12T03:17:05.000Z</time>
      </trkpt>
      <trkpt lat="45.19647" lon="5.73971">
        <ele>212.19999694824</ele>
        <time>2021-09-12T03:17:06.000Z</time>
      </trkpt>
      <trkpt lat="45.19649" lon="5.73979">
        <ele>211.39999389648</ele>
        <time>2021-09-12T03:17:09.000Z</time>
      </trkpt>
      <trkpt lat="45.19649" lon="5.73976">
        <ele>211.19999694824</ele>
        <time>2021-09-12T03:17:10.000Z</time>
      </trkpt>
      <trkpt lat="45.19648" lon="5.73977">
        <ele>210.80000305176</ele>
        <time>2021-09-12T03:17:13.000Z</time>
      </trkpt>
      <trkpt lat="45.19646" lon="5.73976">
        <ele>210</ele>
        <time>2021-09-12T03:17:16.000Z</time>
      </trkpt>
      <trkpt lat="45.19643" lon="5.73973">
        <ele>208.80000305176</ele>
        <time>2021-09-12T03:17:19.000Z</time>
      </trkpt>
      <trkpt lat="45.19642" lon="5.73974">
        <ele>208.60000610352</ele>
        <time>2021-09-12T03:17:20.000Z</time>
      </trkpt>
      <trkpt lat="45.19641" lon="5.73975">
        <ele>208.39999389648</ele>
        <time>2021-09-12T03:17:23.000Z</time>
      </trkpt>
      <trkpt lat="45.19639" lon="5.73973">
        <ele>207.80000305176</ele>
        <time>2021-09-12T03:17:25.000Z</time>
      </trkpt>
      <trkpt lat="45.19637" lon="5.73972">
        <ele>207.39999389648</ele>
        <time>2021-09-12T03:17:26.000Z</time>
      </trkpt>
      <trkpt lat="45.19636" lon="5.73971">
        <ele>207</ele>
        <time>2021-09-12T03:17:27.000Z</time>
      </trkpt>
      <trkpt lat="45.19637" lon="5.73969">
        <ele>206.39999389648</ele>
        <time>2021-09-12T03:17:29.000Z</time>
      </trkpt>
      <trkpt lat="45.19638" lon="5.73969">
        <ele>206.19999694824</ele>
        <time>2021-09-12T03:17:30.000Z</time>
      </trkpt>
      <trkpt lat="45.19634" lon="5.73964">
        <ele>205.80000305176</ele>
        <time>2021-09-12T03:17:34.000Z</time>
      </trkpt>
      <trkpt lat="45.19633" lon="5.73963">
        <ele>206</ele>
        <time>2021-09-12T03:17:37.000Z</time>
      </trkpt>
      <trkpt lat="45.19634" lon="5.73963">
        <ele>205.80000305176</ele>
        <time>2021-09-12T03:17:38.000Z</time>
      </trkpt>
      <trkpt lat="45.19639" lon="5.73968">
        <ele>205.80000305176</ele>
        <time>2021-09-12T03:17:43.000Z</time>
      </trkpt>
      <trkpt lat="45.19644" lon="5.7397">
        <ele>205.80000305176</ele>
        <time>2021-09-12T03:17:45.000Z</time>
      </trkpt>
      <trkpt lat="45.19647" lon="5.73971">
        <ele>205.80000305176</ele>
        <time>2021-09-12T03:17:46.000Z</time>
      </trkpt>
      <trkpt lat="45.19653" lon="5.73972">
        <ele>205.80000305176</ele>
        <time>2021-09-12T03:17:48.000Z</time>
      </trkpt>
      <trkpt lat="45.19654" lon="5.73971">
        <ele>206</ele>
        <time>2021-09-12T03:17:49.000Z</time>
      </trkpt>
      <trkpt lat="45.19658" lon="5.73968">
        <ele>206</ele>
        <time>2021-09-12T03:17:51.000Z</time>
      </trkpt>
      <trkpt lat="45.1966" lon="5.73966">
        <ele>206</ele>
        <time>2021-09-12T03:17:52.000Z</time>
      </trkpt>
      <trkpt lat="45.19667" lon="5.73952">
        <ele>206</ele>
        <time>2021-09-12T03:17:56.000Z</time>
      </trkpt>
      <trkpt lat="45.19668" lon="5.73951">
        <ele>206</ele>
        <time>2021-09-12T03:17:57.000Z</time>
      </trkpt>
      <trkpt lat="45.19673" lon="5.73954">
        <ele>206</ele>
        <time>2021-09-12T03:18:03.000Z</time>
      </trkpt>
      <trkpt lat="45.19677" lon="5.73961">
        <ele>206.19999694824</ele>
        <time>2021-09-12T03:18:07.000Z</time>
      </trkpt>
      <trkpt lat="45.19679" lon="5.73964">
        <ele>206</ele>
        <time>2021-09-12T03:18:09.000Z</time>
      </trkpt>
      <trkpt lat="45.19681" lon="5.73969">
        <ele>206.19999694824</ele>
        <time>2021-09-12T03:18:12.000Z</time>
      </trkpt>
      <trkpt lat="45.19682" lon="5.7397">
        <ele>206.19999694824</ele>
        <time>2021-09-12T03:18:13.000Z</time>
      </trkpt>
      <trkpt lat="45.19683" lon="5.73972">
        <ele>206.19999694824</ele>
        <time>2021-09-12T03:18:15.000Z</time>
      </trkpt>
      <trkpt lat="45.19685" lon="5.73977">
        <ele>206.39999389648</ele>
        <time>2021-09-12T03:18:17.000Z</time>
      </trkpt>
      <trkpt lat="45.19688" lon="5.73982">
        <ele>206.39999389648</ele>
        <time>2021-09-12T03:18:19.000Z</time>
      </trkpt>
      <trkpt lat="45.19689" lon="5.73984">
        <ele>206.39999389648</ele>
        <time>2021-09-12T03:18:20.000Z</time>
      </trkpt>
      <trkpt lat="45.19691" lon="5.73997">
        <ele>206.19999694824</ele>
        <time>2021-09-12T03:18:25.000Z</time>
      </trkpt>
      <trkpt lat="45.19692" lon="5.74001">
        <ele>206.39999389648</ele>
        <time>2021-09-12T03:18:27.000Z</time>
      </trkpt>
      <trkpt lat="45.19694" lon="5.74006">
        <ele>206.60000610352</ele>
        <time>2021-09-12T03:18:29.000Z</time>
      </trkpt>
      <trkpt lat="45.19697" lon="5.74016">
        <ele>206.60000610352</ele>
        <time>2021-09-12T03:18:33.000Z</time>
      </trkpt>
      <trkpt lat="45.19702" lon="5.7403">
        <ele>206.39999389648</ele>
        <time>2021-09-12T03:18:38.000Z</time>
      </trkpt>
      <trkpt lat="45.19703" lon="5.74044">
        <ele>206.80000305176</ele>
        <time>2021-09-12T03:18:42.000Z</time>
      </trkpt>
      <trkpt lat="45.19705" lon="5.74048">
        <ele>206.80000305176</ele>
        <time>2021-09-12T03:18:43.000Z</time>
      </trkpt>
      <trkpt lat="45.19706" lon="5.74073">
        <ele>206.80000305176</ele>
        <time>2021-09-12T03:18:50.000Z</time>
      </trkpt>
      <trkpt lat="45.19706" lon="5.74076">
        <ele>206.80000305176</ele>
        <time>2021-09-12T03:18:51.000Z</time>
      </trkpt>
      <trkpt lat="45.1971" lon="5.74093">
        <ele>206.60000610352</ele>
        <time>2021-09-12T03:18:57.000Z</time>
      </trkpt>
      <trkpt lat="45.19716" lon="5.74112">
        <ele>206.80000305176</ele>
        <time>2021-09-12T03:19:03.000Z</time>
      </trkpt>
      <trkpt lat="45.19718" lon="5.74118">
        <ele>206.80000305176</ele>
        <time>2021-09-12T03:19:05.000Z</time>
      </trkpt>
      <trkpt lat="45.19722" lon="5.74127">
        <ele>206.80000305176</ele>
        <time>2021-09-12T03:19:08.000Z</time>
      </trkpt>
      <trkpt lat="45.19725" lon="5.74134">
        <ele>206.80000305176</ele>
        <time>2021-09-12T03:19:10.000Z</time>
      </trkpt>
      <trkpt lat="45.19727" lon="5.74142">
        <ele>206.80000305176</ele>
        <time>2021-09-12T03:19:12.000Z</time>
      </trkpt>
      <trkpt lat="45.19728" lon="5.74146">
        <ele>206.60000610352</ele>
        <time>2021-09-12T03:19:13.000Z</time>
      </trkpt>
      <trkpt lat="45.19731" lon="5.74158">
        <ele>206.60000610352</ele>
        <time>2021-09-12T03:19:17.000Z</time>
      </trkpt>
      <trkpt lat="45.19737" lon="5.74178">
        <ele>206.80000305176</ele>
        <time>2021-09-12T03:19:23.000Z</time>
      </trkpt>
      <trkpt lat="45.19737" lon="5.74185">
        <ele>206.80000305176</ele>
        <time>2021-09-12T03:19:26.000Z</time>
      </trkpt>
      <trkpt lat="45.19736" lon="5.74192">
        <ele>206.80000305176</ele>
        <time>2021-09-12T03:19:28.000Z</time>
      </trkpt>
      <trkpt lat="45.1974" lon="5.74212">
        <ele>206.80000305176</ele>
        <time>2021-09-12T03:19:33.000Z</time>
      </trkpt>
      <trkpt lat="45.19741" lon="5.74223">
        <ele>207</ele>
        <time>2021-09-12T03:19:36.000Z</time>
      </trkpt>
      <trkpt lat="45.1974" lon="5.74224">
        <ele>207</ele>
        <time>2021-09-12T03:19:37.000Z</time>
      </trkpt>
      <trkpt lat="45.19719" lon="5.74228">
        <ele>207.19999694824</ele>
        <time>2021-09-12T03:19:44.000Z</time>
      </trkpt>
      <trkpt lat="45.19716" lon="5.74228">
        <ele>207.19999694824</ele>
        <time>2021-09-12T03:19:45.000Z</time>
      </trkpt>
      <trkpt lat="45.19701" lon="5.74231">
        <ele>207.19999694824</ele>
        <time>2021-09-12T03:19:51.000Z</time>
      </trkpt>
      <trkpt lat="45.19682" lon="5.74236">
        <ele>207.19999694824</ele>
        <time>2021-09-12T03:19:57.000Z</time>
      </trkpt>
      <trkpt lat="45.19677" lon="5.74236">
        <ele>207.19999694824</ele>
        <time>2021-09-12T03:19:59.000Z</time>
      </trkpt>
      <trkpt lat="45.19658" lon="5.74235">
        <ele>207.39999389648</ele>
        <time>2021-09-12T03:20:06.000Z</time>
      </trkpt>
      <trkpt lat="45.19651" lon="5.74234">
        <ele>207.39999389648</ele>
        <time>2021-09-12T03:20:08.000Z</time>
      </trkpt>
      <trkpt lat="45.19631" lon="5.74232">
        <ele>207.39999389648</ele>
        <time>2021-09-12T03:20:15.000Z</time>
      </trkpt>
      <trkpt lat="45.19628" lon="5.74231">
        <ele>207.39999389648</ele>
        <time>2021-09-12T03:20:16.000Z</time>
      </trkpt>
      <trkpt lat="45.19617" lon="5.7423">
        <ele>207.60000610352</ele>
        <time>2021-09-12T03:20:21.000Z</time>
      </trkpt>
      <trkpt lat="45.19612" lon="5.7423">
        <ele>207.60000610352</ele>
        <time>2021-09-12T03:20:23.000Z</time>
      </trkpt>
      <trkpt lat="45.19601" lon="5.74228">
        <ele>207.80000305176</ele>
        <time>2021-09-12T03:20:27.000Z</time>
      </trkpt>
      <trkpt lat="45.19594" lon="5.74225">
        <ele>207.80000305176</ele>
        <time>2021-09-12T03:20:30.000Z</time>
      </trkpt>
      <trkpt lat="45.1958" lon="5.74222">
        <ele>208</ele>
        <time>2021-09-12T03:20:35.000Z</time>
      </trkpt>
      <trkpt lat="45.19571" lon="5.7422">
        <ele>208</ele>
        <time>2021-09-12T03:20:39.000Z</time>
      </trkpt>
      <trkpt lat="45.19555" lon="5.74217">
        <ele>207.80000305176</ele>
        <time>2021-09-12T03:20:45.000Z</time>
      </trkpt>
      <trkpt lat="45.1955" lon="5.74216">
        <ele>207.80000305176</ele>
        <time>2021-09-12T03:20:47.000Z</time>
      </trkpt>
      <trkpt lat="45.19538" lon="5.74212">
        <ele>208</ele>
        <time>2021-09-12T03:20:52.000Z</time>
      </trkpt>
      <trkpt lat="45.19536" lon="5.74211">
        <ele>208</ele>
        <time>2021-09-12T03:20:53.000Z</time>
      </trkpt>
      <trkpt lat="45.19531" lon="5.7421">
        <ele>208.19999694824</ele>
        <time>2021-09-12T03:20:55.000Z</time>
      </trkpt>
      <trkpt lat="45.19522" lon="5.74209">
        <ele>208.39999389648</ele>
        <time>2021-09-12T03:20:58.000Z</time>
      </trkpt>
      <trkpt lat="45.19517" lon="5.74208">
        <ele>208.60000610352</ele>
        <time>2021-09-12T03:21:00.000Z</time>
      </trkpt>
      <trkpt lat="45.19512" lon="5.74207">
        <ele>208.60000610352</ele>
        <time>2021-09-12T03:21:02.000Z</time>
      </trkpt>
      <trkpt lat="45.19507" lon="5.74208">
        <ele>208.80000305176</ele>
        <time>2021-09-12T03:21:04.000Z</time>
      </trkpt>
      <trkpt lat="45.19505" lon="5.74209">
        <ele>208.80000305176</ele>
        <time>2021-09-12T03:21:05.000Z</time>
      </trkpt>
      <trkpt lat="45.19505" lon="5.74211">
        <ele>209.19999694824</ele>
        <time>2021-09-12T03:21:07.000Z</time>
      </trkpt>
      <trkpt lat="45.19515" lon="5.74213">
        <ele>209.39999389648</ele>
        <time>2021-09-12T03:21:11.000Z</time>
      </trkpt>
      <trkpt lat="45.19533" lon="5.74217">
        <ele>209.19999694824</ele>
        <time>2021-09-12T03:21:18.000Z</time>
      </trkpt>
      <trkpt lat="45.19539" lon="5.74216">
        <ele>209.19999694824</ele>
        <time>2021-09-12T03:21:20.000Z</time>
      </trkpt>
      <trkpt lat="45.19558" lon="5.74217">
        <ele>209</ele>
        <time>2021-09-12T03:21:28.000Z</time>
      </trkpt>
      <trkpt lat="45.19565" lon="5.74218">
        <ele>209</ele>
        <time>2021-09-12T03:21:31.000Z</time>
      </trkpt>
      <trkpt lat="45.19572" lon="5.74219">
        <ele>209</ele>
        <time>2021-09-12T03:21:34.000Z</time>
      </trkpt>
      <trkpt lat="45.19592" lon="5.74217">
        <ele>209</ele>
        <time>2021-09-12T03:21:41.000Z</time>
      </trkpt>
      <trkpt lat="45.19594" lon="5.74217">
        <ele>209</ele>
        <time>2021-09-12T03:21:42.000Z</time>
      </trkpt>
      <trkpt lat="45.19612" lon="5.74221">
        <ele>209.19999694824</ele>
        <time>2021-09-12T03:21:49.000Z</time>
      </trkpt>
      <trkpt lat="45.19615" lon="5.74222">
        <ele>209</ele>
        <time>2021-09-12T03:21:50.000Z</time>
      </trkpt>
      <trkpt lat="45.19631" lon="5.74219">
        <ele>209</ele>
        <time>2021-09-12T03:21:57.000Z</time>
      </trkpt>
      <trkpt lat="45.19651" lon="5.74218">
        <ele>209.19999694824</ele>
        <time>2021-09-12T03:22:04.000Z</time>
      </trkpt>
      <trkpt lat="45.19652" lon="5.74218">
        <ele>209.19999694824</ele>
        <time>2021-09-12T03:22:05.000Z</time>
      </trkpt>
      <trkpt lat="45.19668" lon="5.7422">
        <ele>209.19999694824</ele>
        <time>2021-09-12T03:22:12.000Z</time>
      </trkpt>
      <trkpt lat="45.19686" lon="5.74223">
        <ele>209.39999389648</ele>
        <time>2021-09-12T03:22:19.000Z</time>
      </trkpt>
      <trkpt lat="45.19689" lon="5.74223">
        <ele>209.19999694824</ele>
        <time>2021-09-12T03:22:20.000Z</time>
      </trkpt>
      <trkpt lat="45.19691" lon="5.74223">
        <ele>209.19999694824</ele>
        <time>2021-09-12T03:22:21.000Z</time>
      </trkpt>
      <trkpt lat="45.19707" lon="5.74228">
        <ele>209.39999389648</ele>
        <time>2021-09-12T03:22:28.000Z</time>
      </trkpt>
      <trkpt lat="45.19724" lon="5.74224">
        <ele>209.39999389648</ele>
        <time>2021-09-12T03:22:35.000Z</time>
      </trkpt>
      <trkpt lat="45.19735" lon="5.74227">
        <ele>209.19999694824</ele>
        <time>2021-09-12T03:22:40.000Z</time>
      </trkpt>
      <trkpt lat="45.19755" lon="5.74222">
        <ele>209.39999389648</ele>
        <time>2021-09-12T03:22:48.000Z</time>
      </trkpt>
      <trkpt lat="45.19775" lon="5.74218">
        <ele>209.19999694824</ele>
        <time>2021-09-12T03:22:56.000Z</time>
      </trkpt>
      <trkpt lat="45.1978" lon="5.74219">
        <ele>209.19999694824</ele>
        <time>2021-09-12T03:22:58.000Z</time>
      </trkpt>
      <trkpt lat="45.19782" lon="5.7422">
        <ele>209.19999694824</ele>
        <time>2021-09-12T03:22:59.000Z</time>
      </trkpt>
      <trkpt lat="45.19783" lon="5.74221">
        <ele>209.39999389648</ele>
        <time>2021-09-12T03:23:00.000Z</time>
      </trkpt>
      <trkpt lat="45.19785" lon="5.74225">
        <ele>209.39999389648</ele>
        <time>2021-09-12T03:23:02.000Z</time>
      </trkpt>
      <trkpt lat="45.19786" lon="5.74226">
        <ele>209.39999389648</ele>
        <time>2021-09-12T03:23:03.000Z</time>
      </trkpt>
      <trkpt lat="45.19789" lon="5.74227">
        <ele>209.39999389648</ele>
        <time>2021-09-12T03:23:06.000Z</time>
      </trkpt>
      <trkpt lat="45.1979" lon="5.74228">
        <ele>209.39999389648</ele>
        <time>2021-09-12T03:23:07.000Z</time>
      </trkpt>
      <trkpt lat="45.19795" lon="5.74226">
        <ele>209.60000610352</ele>
        <time>2021-09-12T03:23:09.000Z</time>
      </trkpt>
      <trkpt lat="45.19804" lon="5.74221">
        <ele>209.60000610352</ele>
        <time>2021-09-12T03:23:12.000Z</time>
      </trkpt>
      <trkpt lat="45.19811" lon="5.74216">
        <ele>209.60000610352</ele>
        <time>2021-09-12T03:23:16.000Z</time>
      </trkpt>
      <trkpt lat="45.19814" lon="5.74214">
        <ele>209.60000610352</ele>
        <time>2021-09-12T03:23:18.000Z</time>
      </trkpt>
      <trkpt lat="45.19816" lon="5.74213">
        <ele>209.60000610352</ele>
        <time>2021-09-12T03:23:19.000Z</time>
      </trkpt>
      <trkpt lat="45.19822" lon="5.74212">
        <ele>209.39999389648</ele>
        <time>2021-09-12T03:23:22.000Z</time>
      </trkpt>
      <trkpt lat="45.19825" lon="5.74212">
        <ele>209.39999389648</ele>
        <time>2021-09-12T03:23:23.000Z</time>
      </trkpt>
      <trkpt lat="45.19844" lon="5.74204">
        <ele>209.19999694824</ele>
        <time>2021-09-12T03:23:29.000Z</time>
      </trkpt>
      <trkpt lat="45.19846" lon="5.74203">
        <ele>209.39999389648</ele>
        <time>2021-09-12T03:23:30.000Z</time>
      </trkpt>
      <trkpt lat="45.19863" lon="5.74198">
        <ele>209.60000610352</ele>
        <time>2021-09-12T03:23:35.000Z</time>
      </trkpt>
      <trkpt lat="45.1988" lon="5.74193">
        <ele>209.60000610352</ele>
        <time>2021-09-12T03:23:39.000Z</time>
      </trkpt>
      <trkpt lat="45.19897" lon="5.74186">
        <ele>209.60000610352</ele>
        <time>2021-09-12T03:23:45.000Z</time>
      </trkpt>
      <trkpt lat="45.19902" lon="5.74183">
        <ele>209.60000610352</ele>
        <time>2021-09-12T03:23:47.000Z</time>
      </trkpt>
      <trkpt lat="45.19907" lon="5.7418">
        <ele>209.39999389648</ele>
        <time>2021-09-12T03:23:49.000Z</time>
      </trkpt>
      <trkpt lat="45.19918" lon="5.74171">
        <ele>209.39999389648</ele>
        <time>2021-09-12T03:23:54.000Z</time>
      </trkpt>
      <trkpt lat="45.1992" lon="5.74169">
        <ele>209.39999389648</ele>
        <time>2021-09-12T03:23:55.000Z</time>
      </trkpt>
      <trkpt lat="45.19932" lon="5.74161">
        <ele>209.60000610352</ele>
        <time>2021-09-12T03:24:01.000Z</time>
      </trkpt>
      <trkpt lat="45.19949" lon="5.74147">
        <ele>209.60000610352</ele>
        <time>2021-09-12T03:24:08.000Z</time>
      </trkpt>
      <trkpt lat="45.19951" lon="5.74145">
        <ele>209.60000610352</ele>
        <time>2021-09-12T03:24:09.000Z</time>
      </trkpt>
      <trkpt lat="45.19963" lon="5.74132">
        <ele>209.39999389648</ele>
        <time>2021-09-12T03:24:15.000Z</time>
      </trkpt>
      <trkpt lat="45.19976" lon="5.74117">
        <ele>209.39999389648</ele>
        <time>2021-09-12T03:24:22.000Z</time>
      </trkpt>
      <trkpt lat="45.1999" lon="5.74105">
        <ele>208.39999389648</ele>
        <time>2021-09-12T03:24:28.000Z</time>
      </trkpt>
      <trkpt lat="45.20002" lon="5.7409">
        <ele>207.39999389648</ele>
        <time>2021-09-12T03:24:34.000Z</time>
      </trkpt>
      <trkpt lat="45.20006" lon="5.74086">
        <ele>207</ele>
        <time>2021-09-12T03:24:36.000Z</time>
      </trkpt>
      <trkpt lat="45.20007" lon="5.74085">
        <ele>207</ele>
        <time>2021-09-12T03:24:37.000Z</time>
      </trkpt>
      <trkpt lat="45.20008" lon="5.74083">
        <ele>206.80000305176</ele>
        <time>2021-09-12T03:24:40.000Z</time>
      </trkpt>
      <trkpt lat="45.20007" lon="5.74082">
        <ele>206.80000305176</ele>
        <time>2021-09-12T03:24:42.000Z</time>
      </trkpt>
      <trkpt lat="45.20011" lon="5.7407">
        <ele>206.80000305176</ele>
        <time>2021-09-12T03:24:47.000Z</time>
      </trkpt>
      <trkpt lat="45.20012" lon="5.74068">
        <ele>206.80000305176</ele>
        <time>2021-09-12T03:24:48.000Z</time>
      </trkpt>
      <trkpt lat="45.20014" lon="5.74064">
        <ele>207.19999694824</ele>
        <time>2021-09-12T03:24:51.000Z</time>
      </trkpt>
      <trkpt lat="45.20015" lon="5.74062">
        <ele>207.39999389648</ele>
        <time>2021-09-12T03:24:52.000Z</time>
      </trkpt>
      <trkpt lat="45.20019" lon="5.74053">
        <ele>208</ele>
        <time>2021-09-12T03:24:55.000Z</time>
      </trkpt>
      <trkpt lat="45.20024" lon="5.74048">
        <ele>208.19999694824</ele>
        <time>2021-09-12T03:24:57.000Z</time>
      </trkpt>
      <trkpt lat="45.20026" lon="5.74046">
        <ele>208.39999389648</ele>
        <time>2021-09-12T03:24:58.000Z</time>
      </trkpt>
      <trkpt lat="45.20033" lon="5.74035">
        <ele>209.19999694824</ele>
        <time>2021-09-12T03:25:01.000Z</time>
      </trkpt>
      <trkpt lat="45.2004" lon="5.74026">
        <ele>209.60000610352</ele>
        <time>2021-09-12T03:25:04.000Z</time>
      </trkpt>
      <trkpt lat="45.20044" lon="5.74023">
        <ele>209.80000305176</ele>
        <time>2021-09-12T03:25:06.000Z</time>
      </trkpt>
      <trkpt lat="45.20045" lon="5.74023">
        <ele>209.80000305176</ele>
        <time>2021-09-12T03:25:07.000Z</time>
      </trkpt>
      <trkpt lat="45.20045" lon="5.74022">
        <ele>210</ele>
        <time>2021-09-12T03:25:08.000Z</time>
      </trkpt>
      <trkpt lat="45.20045" lon="5.74021">
        <ele>210.19999694824</ele>
        <time>2021-09-12T03:25:10.000Z</time>
      </trkpt>
      <trkpt lat="45.20044" lon="5.74022">
        <ele>210.39999389648</ele>
        <time>2021-09-12T03:25:12.000Z</time>
      </trkpt>
      <trkpt lat="45.20043" lon="5.74023">
        <ele>210.60000610352</ele>
        <time>2021-09-12T03:25:13.000Z</time>
      </trkpt>
      <trkpt lat="45.20035" lon="5.74037">
        <ele>211.80000305176</ele>
        <time>2021-09-12T03:25:20.000Z</time>
      </trkpt>
      <trkpt lat="45.20032" lon="5.74042">
        <ele>212.39999389648</ele>
        <time>2021-09-12T03:25:23.000Z</time>
      </trkpt>
      <trkpt lat="45.20032" lon="5.74046">
        <ele>212.60000610352</ele>
        <time>2021-09-12T03:25:25.000Z</time>
      </trkpt>
      <trkpt lat="45.20032" lon="5.74048">
        <ele>212.80000305176</ele>
        <time>2021-09-12T03:25:26.000Z</time>
      </trkpt>
      <trkpt lat="45.20032" lon="5.74049">
        <ele>213</ele>
        <time>2021-09-12T03:25:27.000Z</time>
      </trkpt>
      <trkpt lat="45.20032" lon="5.7405">
        <ele>213</ele>
        <time>2021-09-12T03:25:28.000Z</time>
      </trkpt>
      <trkpt lat="45.20038" lon="5.74061">
        <ele>213.60000610352</ele>
        <time>2021-09-12T03:25:35.000Z</time>
      </trkpt>
      <trkpt lat="45.20048" lon="5.74074">
        <ele>213.39999389648</ele>
        <time>2021-09-12T03:25:40.000Z</time>
      </trkpt>
      <trkpt lat="45.20064" lon="5.74092">
        <ele>213.60000610352</ele>
        <time>2021-09-12T03:25:47.000Z</time>
      </trkpt>
      <trkpt lat="45.2008" lon="5.74108">
        <ele>213.60000610352</ele>
        <time>2021-09-12T03:25:55.000Z</time>
      </trkpt>
      <trkpt lat="45.20095" lon="5.74124">
        <ele>213.60000610352</ele>
        <time>2021-09-12T03:26:01.000Z</time>
      </trkpt>
      <trkpt lat="45.20099" lon="5.74129">
        <ele>213.60000610352</ele>
        <time>2021-09-12T03:26:03.000Z</time>
      </trkpt>
      <trkpt lat="45.20115" lon="5.74147">
        <ele>213.39999389648</ele>
        <time>2021-09-12T03:26:11.000Z</time>
      </trkpt>
      <trkpt lat="45.20117" lon="5.74149">
        <ele>213.39999389648</ele>
        <time>2021-09-12T03:26:12.000Z</time>
      </trkpt>
      <trkpt lat="45.20121" lon="5.74149">
        <ele>213.39999389648</ele>
        <time>2021-09-12T03:26:14.000Z</time>
      </trkpt>
      <trkpt lat="45.20123" lon="5.74146">
        <ele>213.19999694824</ele>
        <time>2021-09-12T03:26:16.000Z</time>
      </trkpt>
      <trkpt lat="45.20127" lon="5.74138">
        <ele>212.80000305176</ele>
        <time>2021-09-12T03:26:19.000Z</time>
      </trkpt>
      <trkpt lat="45.20132" lon="5.74123">
        <ele>211.80000305176</ele>
        <time>2021-09-12T03:26:24.000Z</time>
      </trkpt>
      <trkpt lat="45.20138" lon="5.74113">
        <ele>211.19999694824</ele>
        <time>2021-09-12T03:26:28.000Z</time>
      </trkpt>
      <trkpt lat="45.2014" lon="5.7411">
        <ele>210.60000610352</ele>
        <time>2021-09-12T03:26:29.000Z</time>
      </trkpt>
      <trkpt lat="45.20143" lon="5.74104">
        <ele>210.39999389648</ele>
        <time>2021-09-12T03:26:31.000Z</time>
      </trkpt>
      <trkpt lat="45.20147" lon="5.7409">
        <ele>209.60000610352</ele>
        <time>2021-09-12T03:26:36.000Z</time>
      </trkpt>
      <trkpt lat="45.20149" lon="5.74083">
        <ele>209.39999389648</ele>
        <time>2021-09-12T03:26:38.000Z</time>
      </trkpt>
      <trkpt lat="45.20154" lon="5.74072">
        <ele>209.19999694824</ele>
        <time>2021-09-12T03:26:41.000Z</time>
      </trkpt>
      <trkpt lat="45.20158" lon="5.74061">
        <ele>209</ele>
        <time>2021-09-12T03:26:44.000Z</time>
      </trkpt>
      <trkpt lat="45.20166" lon="5.74045">
        <ele>208.60000610352</ele>
        <time>2021-09-12T03:26:49.000Z</time>
      </trkpt>
      <trkpt lat="45.20171" lon="5.74038">
        <ele>208.60000610352</ele>
        <time>2021-09-12T03:26:51.000Z</time>
      </trkpt>
      <trkpt lat="45.20173" lon="5.74035">
        <ele>208.60000610352</ele>
        <time>2021-09-12T03:26:52.000Z</time>
      </trkpt>
      <trkpt lat="45.20186" lon="5.74011">
        <ele>208.39999389648</ele>
        <time>2021-09-12T03:26:59.000Z</time>
      </trkpt>
      <trkpt lat="45.20189" lon="5.74008">
        <ele>208.39999389648</ele>
        <time>2021-09-12T03:27:00.000Z</time>
      </trkpt>
      <trkpt lat="45.20201" lon="5.73989">
        <ele>208.19999694824</ele>
        <time>2021-09-12T03:27:06.000Z</time>
      </trkpt>
      <trkpt lat="45.20206" lon="5.7398">
        <ele>208.19999694824</ele>
        <time>2021-09-12T03:27:09.000Z</time>
      </trkpt>
      <trkpt lat="45.20211" lon="5.73968">
        <ele>208.19999694824</ele>
        <time>2021-09-12T03:27:13.000Z</time>
      </trkpt>
      <trkpt lat="45.20219" lon="5.73942">
        <ele>208.60000610352</ele>
        <time>2021-09-12T03:27:21.000Z</time>
      </trkpt>
      <trkpt lat="45.20223" lon="5.7392">
        <ele>208.39999389648</ele>
        <time>2021-09-12T03:27:27.000Z</time>
      </trkpt>
      <trkpt lat="45.20229" lon="5.73901">
        <ele>208.39999389648</ele>
        <time>2021-09-12T03:27:33.000Z</time>
      </trkpt>
      <trkpt lat="45.20234" lon="5.73876">
        <ele>208.60000610352</ele>
        <time>2021-09-12T03:27:40.000Z</time>
      </trkpt>
      <trkpt lat="45.20236" lon="5.73867">
        <ele>208.60000610352</ele>
        <time>2021-09-12T03:27:42.000Z</time>
      </trkpt>
      <trkpt lat="45.20242" lon="5.73846">
        <ele>208.19999694824</ele>
        <time>2021-09-12T03:27:47.000Z</time>
      </trkpt>
      <trkpt lat="45.20247" lon="5.73823">
        <ele>208.19999694824</ele>
        <time>2021-09-12T03:27:53.000Z</time>
      </trkpt>
      <trkpt lat="45.20249" lon="5.73798">
        <ele>208.39999389648</ele>
        <time>2021-09-12T03:27:59.000Z</time>
      </trkpt>
      <trkpt lat="45.20254" lon="5.73774">
        <ele>208.39999389648</ele>
        <time>2021-09-12T03:28:06.000Z</time>
      </trkpt>
      <trkpt lat="45.20256" lon="5.73755">
        <ele>208.19999694824</ele>
        <time>2021-09-12T03:28:12.000Z</time>
      </trkpt>
      <trkpt lat="45.20255" lon="5.73745">
        <ele>208.19999694824</ele>
        <time>2021-09-12T03:28:15.000Z</time>
      </trkpt>
      <trkpt lat="45.20256" lon="5.73737">
        <ele>208</ele>
        <time>2021-09-12T03:28:17.000Z</time>
      </trkpt>
      <trkpt lat="45.20256" lon="5.73731">
        <ele>208</ele>
        <time>2021-09-12T03:28:19.000Z</time>
      </trkpt>
      <trkpt lat="45.20254" lon="5.73725">
        <ele>208</ele>
        <time>2021-09-12T03:28:21.000Z</time>
      </trkpt>
      <trkpt lat="45.20252" lon="5.7372">
        <ele>208</ele>
        <time>2021-09-12T03:28:23.000Z</time>
      </trkpt>
      <trkpt lat="45.20251" lon="5.73708">
        <ele>207.60000610352</ele>
        <time>2021-09-12T03:28:26.000Z</time>
      </trkpt>
      <trkpt lat="45.20248" lon="5.73694">
        <ele>208</ele>
        <time>2021-09-12T03:28:30.000Z</time>
      </trkpt>
      <trkpt lat="45.20248" lon="5.73681">
        <ele>208</ele>
        <time>2021-09-12T03:28:34.000Z</time>
      </trkpt>
      <trkpt lat="45.20247" lon="5.73678">
        <ele>208</ele>
        <time>2021-09-12T03:28:35.000Z</time>
      </trkpt>
      <trkpt lat="45.20241" lon="5.73664">
        <ele>208.19999694824</ele>
        <time>2021-09-12T03:28:39.000Z</time>
      </trkpt>
      <trkpt lat="45.2024" lon="5.73661">
        <ele>208.19999694824</ele>
        <time>2021-09-12T03:28:40.000Z</time>
      </trkpt>
      <trkpt lat="45.20233" lon="5.73639">
        <ele>208</ele>
        <time>2021-09-12T03:28:46.000Z</time>
      </trkpt>
      <trkpt lat="45.20228" lon="5.73621">
        <ele>207.80000305176</ele>
        <time>2021-09-12T03:28:51.000Z</time>
      </trkpt>
      <trkpt lat="45.20222" lon="5.7361">
        <ele>207.39999389648</ele>
        <time>2021-09-12T03:28:55.000Z</time>
      </trkpt>
      <trkpt lat="45.20221" lon="5.73604">
        <ele>207.39999389648</ele>
        <time>2021-09-12T03:28:58.000Z</time>
      </trkpt>
      <trkpt lat="45.20222" lon="5.73602">
        <ele>207.39999389648</ele>
        <time>2021-09-12T03:28:59.000Z</time>
      </trkpt>
      <trkpt lat="45.20224" lon="5.73595">
        <ele>207.39999389648</ele>
        <time>2021-09-12T03:29:01.000Z</time>
      </trkpt>
      <trkpt lat="45.2023" lon="5.73586">
        <ele>207.80000305176</ele>
        <time>2021-09-12T03:29:04.000Z</time>
      </trkpt>
      <trkpt lat="45.2024" lon="5.73581">
        <ele>208.19999694824</ele>
        <time>2021-09-12T03:29:07.000Z</time>
      </trkpt>
      <trkpt lat="45.20246" lon="5.73578">
        <ele>208.39999389648</ele>
        <time>2021-09-12T03:29:09.000Z</time>
      </trkpt>
      <trkpt lat="45.20248" lon="5.73577">
        <ele>208.60000610352</ele>
        <time>2021-09-12T03:29:10.000Z</time>
      </trkpt>
      <trkpt lat="45.20252" lon="5.73575">
        <ele>209</ele>
        <time>2021-09-12T03:29:12.000Z</time>
      </trkpt>
      <trkpt lat="45.20253" lon="5.73573">
        <ele>209.19999694824</ele>
        <time>2021-09-12T03:29:13.000Z</time>
      </trkpt>
      <trkpt lat="45.20256" lon="5.7357">
        <ele>209.60000610352</ele>
        <time>2021-09-12T03:29:15.000Z</time>
      </trkpt>
      <trkpt lat="45.20259" lon="5.73568">
        <ele>210.19999694824</ele>
        <time>2021-09-12T03:29:17.000Z</time>
      </trkpt>
      <trkpt lat="45.20261" lon="5.73568">
        <ele>210.80000305176</ele>
        <time>2021-09-12T03:29:19.000Z</time>
      </trkpt>
      <trkpt lat="45.20268" lon="5.73565">
        <ele>211.80000305176</ele>
        <time>2021-09-12T03:29:23.000Z</time>
      </trkpt>
      <trkpt lat="45.20272" lon="5.73563">
        <ele>212.39999389648</ele>
        <time>2021-09-12T03:29:25.000Z</time>
      </trkpt>
      <trkpt lat="45.20272" lon="5.73561">
        <ele>212.39999389648</ele>
        <time>2021-09-12T03:29:26.000Z</time>
      </trkpt>
      <trkpt lat="45.20269" lon="5.73557">
        <ele>212.39999389648</ele>
        <time>2021-09-12T03:29:28.000Z</time>
      </trkpt>
      <trkpt lat="45.20261" lon="5.73545">
        <ele>212.19999694824</ele>
        <time>2021-09-12T03:29:32.000Z</time>
      </trkpt>
      <trkpt lat="45.20252" lon="5.73528">
        <ele>211.39999389648</ele>
        <time>2021-09-12T03:29:37.000Z</time>
      </trkpt>
      <trkpt lat="45.2025" lon="5.73527">
        <ele>211.39999389648</ele>
        <time>2021-09-12T03:29:38.000Z</time>
      </trkpt>
      <trkpt lat="45.20243" lon="5.7352">
        <ele>211.19999694824</ele>
        <time>2021-09-12T03:29:41.000Z</time>
      </trkpt>
      <trkpt lat="45.20239" lon="5.73515">
        <ele>211.19999694824</ele>
        <time>2021-09-12T03:29:43.000Z</time>
      </trkpt>
      <trkpt lat="45.20234" lon="5.7351">
        <ele>211</ele>
        <time>2021-09-12T03:29:45.000Z</time>
      </trkpt>
      <trkpt lat="45.2023" lon="5.73503">
        <ele>211</ele>
        <time>2021-09-12T03:29:47.000Z</time>
      </trkpt>
      <trkpt lat="45.20228" lon="5.735">
        <ele>210.80000305176</ele>
        <time>2021-09-12T03:29:48.000Z</time>
      </trkpt>
      <trkpt lat="45.20222" lon="5.73485">
        <ele>210.60000610352</ele>
        <time>2021-09-12T03:29:52.000Z</time>
      </trkpt>
      <trkpt lat="45.20213" lon="5.73468">
        <ele>210.19999694824</ele>
        <time>2021-09-12T03:29:57.000Z</time>
      </trkpt>
      <trkpt lat="45.20209" lon="5.73463">
        <ele>210.19999694824</ele>
        <time>2021-09-12T03:29:59.000Z</time>
      </trkpt>
      <trkpt lat="45.20208" lon="5.7346">
        <ele>210.19999694824</ele>
        <time>2021-09-12T03:30:00.000Z</time>
      </trkpt>
      <trkpt lat="45.20207" lon="5.73457">
        <ele>210.19999694824</ele>
        <time>2021-09-12T03:30:01.000Z</time>
      </trkpt>
      <trkpt lat="45.20205" lon="5.73456">
        <ele>210.19999694824</ele>
        <time>2021-09-12T03:30:02.000Z</time>
      </trkpt>
      <trkpt lat="45.202" lon="5.73452">
        <ele>210.19999694824</ele>
        <time>2021-09-12T03:30:04.000Z</time>
      </trkpt>
      <trkpt lat="45.20198" lon="5.73444">
        <ele>210.19999694824</ele>
        <time>2021-09-12T03:30:06.000Z</time>
      </trkpt>
      <trkpt lat="45.20191" lon="5.73423">
        <ele>210</ele>
        <time>2021-09-12T03:30:11.000Z</time>
      </trkpt>
      <trkpt lat="45.20186" lon="5.73412">
        <ele>210</ele>
        <time>2021-09-12T03:30:15.000Z</time>
      </trkpt>
      <trkpt lat="45.20184" lon="5.73412">
        <ele>210</ele>
        <time>2021-09-12T03:30:16.000Z</time>
      </trkpt>
      <trkpt lat="45.20179" lon="5.7341">
        <ele>210</ele>
        <time>2021-09-12T03:30:19.000Z</time>
      </trkpt>
      <trkpt lat="45.20178" lon="5.73409">
        <ele>210</ele>
        <time>2021-09-12T03:30:20.000Z</time>
      </trkpt>
      <trkpt lat="45.20176" lon="5.73408">
        <ele>209.80000305176</ele>
        <time>2021-09-12T03:30:21.000Z</time>
      </trkpt>
      <trkpt lat="45.20172" lon="5.73404">
        <ele>209.60000610352</ele>
        <time>2021-09-12T03:30:23.000Z</time>
      </trkpt>
      <trkpt lat="45.20172" lon="5.73402">
        <ele>209.39999389648</ele>
        <time>2021-09-12T03:30:24.000Z</time>
      </trkpt>
      <trkpt lat="45.20167" lon="5.734">
        <ele>209.19999694824</ele>
        <time>2021-09-12T03:30:26.000Z</time>
      </trkpt>
      <trkpt lat="45.20152" lon="5.73395">
        <ele>209</ele>
        <time>2021-09-12T03:30:31.000Z</time>
      </trkpt>
      <trkpt lat="45.20132" lon="5.73392">
        <ele>208.80000305176</ele>
        <time>2021-09-12T03:30:37.000Z</time>
      </trkpt>
      <trkpt lat="45.2013" lon="5.73392">
        <ele>208.80000305176</ele>
        <time>2021-09-12T03:30:38.000Z</time>
      </trkpt>
      <trkpt lat="45.20127" lon="5.73391">
        <ele>208.80000305176</ele>
        <time>2021-09-12T03:30:39.000Z</time>
      </trkpt>
      <trkpt lat="45.20116" lon="5.73392">
        <ele>208.60000610352</ele>
        <time>2021-09-12T03:30:43.000Z</time>
      </trkpt>
      <trkpt lat="45.20105" lon="5.73395">
        <ele>208.60000610352</ele>
        <time>2021-09-12T03:30:47.000Z</time>
      </trkpt>
      <trkpt lat="45.20102" lon="5.73395">
        <ele>208.60000610352</ele>
        <time>2021-09-12T03:30:48.000Z</time>
      </trkpt>
      <trkpt lat="45.20098" lon="5.73393">
        <ele>208.80000305176</ele>
        <time>2021-09-12T03:30:49.000Z</time>
      </trkpt>
      <trkpt lat="45.20088" lon="5.73391">
        <ele>209</ele>
        <time>2021-09-12T03:30:53.000Z</time>
      </trkpt>
      <trkpt lat="45.20083" lon="5.7339">
        <ele>209</ele>
        <time>2021-09-12T03:30:55.000Z</time>
      </trkpt>
      <trkpt lat="45.20072" lon="5.73387">
        <ele>208.80000305176</ele>
        <time>2021-09-12T03:31:00.000Z</time>
      </trkpt>
      <trkpt lat="45.2007" lon="5.73386">
        <ele>208.60000610352</ele>
        <time>2021-09-12T03:31:01.000Z</time>
      </trkpt>
      <trkpt lat="45.20052" lon="5.7338">
        <ele>209</ele>
        <time>2021-09-12T03:31:07.000Z</time>
      </trkpt>
      <trkpt lat="45.20049" lon="5.73379">
        <ele>209.19999694824</ele>
        <time>2021-09-12T03:31:09.000Z</time>
      </trkpt>
      <trkpt lat="45.20045" lon="5.73377">
        <ele>209.19999694824</ele>
        <time>2021-09-12T03:31:11.000Z</time>
      </trkpt>
      <trkpt lat="45.20038" lon="5.73375">
        <ele>209.19999694824</ele>
        <time>2021-09-12T03:31:14.000Z</time>
      </trkpt>
      <trkpt lat="45.2003" lon="5.73372">
        <ele>209.60000610352</ele>
        <time>2021-09-12T03:31:17.000Z</time>
      </trkpt>
      <trkpt lat="45.20022" lon="5.73368">
        <ele>209.60000610352</ele>
        <time>2021-09-12T03:31:20.000Z</time>
      </trkpt>
      <trkpt lat="45.20005" lon="5.73361">
        <ele>209.39999389648</ele>
        <time>2021-09-12T03:31:27.000Z</time>
      </trkpt>
      <trkpt lat="45.19996" lon="5.73356">
        <ele>209.39999389648</ele>
        <time>2021-09-12T03:31:31.000Z</time>
      </trkpt>
      <trkpt lat="45.19989" lon="5.73352">
        <ele>209.39999389648</ele>
        <time>2021-09-12T03:31:34.000Z</time>
      </trkpt>
      <trkpt lat="45.19981" lon="5.73349">
        <ele>210</ele>
        <time>2021-09-12T03:31:37.000Z</time>
      </trkpt>
      <trkpt lat="45.19969" lon="5.73346">
        <ele>210</ele>
        <time>2021-09-12T03:31:41.000Z</time>
      </trkpt>
      <trkpt lat="45.19967" lon="5.73345">
        <ele>210</ele>
        <time>2021-09-12T03:31:42.000Z</time>
      </trkpt>
      <trkpt lat="45.19954" lon="5.73335">
        <ele>210</ele>
        <time>2021-09-12T03:31:47.000Z</time>
      </trkpt>
      <trkpt lat="45.19949" lon="5.73331">
        <ele>210</ele>
        <time>2021-09-12T03:31:49.000Z</time>
      </trkpt>
      <trkpt lat="45.19937" lon="5.73322">
        <ele>210.60000610352</ele>
        <time>2021-09-12T03:31:55.000Z</time>
      </trkpt>
      <trkpt lat="45.19935" lon="5.73322">
        <ele>210.60000610352</ele>
        <time>2021-09-12T03:31:56.000Z</time>
      </trkpt>
      <trkpt lat="45.19928" lon="5.73321">
        <ele>210.39999389648</ele>
        <time>2021-09-12T03:31:59.000Z</time>
      </trkpt>
      <trkpt lat="45.19926" lon="5.7332">
        <ele>210.39999389648</ele>
        <time>2021-09-12T03:32:00.000Z</time>
      </trkpt>
      <trkpt lat="45.19907" lon="5.73314">
        <ele>210.19999694824</ele>
        <time>2021-09-12T03:32:06.000Z</time>
      </trkpt>
      <trkpt lat="45.19903" lon="5.73312">
        <ele>210.19999694824</ele>
        <time>2021-09-12T03:32:08.000Z</time>
      </trkpt>
      <trkpt lat="45.19896" lon="5.73309">
        <ele>210.39999389648</ele>
        <time>2021-09-12T03:32:11.000Z</time>
      </trkpt>
      <trkpt lat="45.19879" lon="5.73302">
        <ele>210.19999694824</ele>
        <time>2021-09-12T03:32:17.000Z</time>
      </trkpt>
      <trkpt lat="45.19875" lon="5.73301">
        <ele>210.19999694824</ele>
        <time>2021-09-12T03:32:18.000Z</time>
      </trkpt>
      <trkpt lat="45.19861" lon="5.73299">
        <ele>210.19999694824</ele>
        <time>2021-09-12T03:32:23.000Z</time>
      </trkpt>
      <trkpt lat="45.1985" lon="5.73295">
        <ele>210</ele>
        <time>2021-09-12T03:32:27.000Z</time>
      </trkpt>
      <trkpt lat="45.19843" lon="5.73291">
        <ele>210.19999694824</ele>
        <time>2021-09-12T03:32:30.000Z</time>
      </trkpt>
      <trkpt lat="45.1984" lon="5.73291">
        <ele>210.19999694824</ele>
        <time>2021-09-12T03:32:31.000Z</time>
      </trkpt>
      <trkpt lat="45.19829" lon="5.73289">
        <ele>210.19999694824</ele>
        <time>2021-09-12T03:32:34.000Z</time>
      </trkpt>
      <trkpt lat="45.19826" lon="5.73289">
        <ele>210.19999694824</ele>
        <time>2021-09-12T03:32:35.000Z</time>
      </trkpt>
      <trkpt lat="45.19813" lon="5.73285">
        <ele>210.19999694824</ele>
        <time>2021-09-12T03:32:39.000Z</time>
      </trkpt>
      <trkpt lat="45.19795" lon="5.73281">
        <ele>210</ele>
        <time>2021-09-12T03:32:44.000Z</time>
      </trkpt>
      <trkpt lat="45.19785" lon="5.73279">
        <ele>210</ele>
        <time>2021-09-12T03:32:47.000Z</time>
      </trkpt>
      <trkpt lat="45.19768" lon="5.73271">
        <ele>210</ele>
        <time>2021-09-12T03:32:53.000Z</time>
      </trkpt>
      <trkpt lat="45.19765" lon="5.73269">
        <ele>210.39999389648</ele>
        <time>2021-09-12T03:32:54.000Z</time>
      </trkpt>
      <trkpt lat="45.19746" lon="5.73265">
        <ele>210.80000305176</ele>
        <time>2021-09-12T03:33:00.000Z</time>
      </trkpt>
      <trkpt lat="45.19738" lon="5.7326">
        <ele>210.80000305176</ele>
        <time>2021-09-12T03:33:03.000Z</time>
      </trkpt>
      <trkpt lat="45.1973" lon="5.73253">
        <ele>210.39999389648</ele>
        <time>2021-09-12T03:33:06.000Z</time>
      </trkpt>
      <trkpt lat="45.19712" lon="5.73242">
        <ele>209.80000305176</ele>
        <time>2021-09-12T03:33:13.000Z</time>
      </trkpt>
      <trkpt lat="45.19709" lon="5.7324">
        <ele>209.80000305176</ele>
        <time>2021-09-12T03:33:14.000Z</time>
      </trkpt>
      <trkpt lat="45.197" lon="5.73232">
        <ele>209.80000305176</ele>
        <time>2021-09-12T03:33:18.000Z</time>
      </trkpt>
      <trkpt lat="45.19698" lon="5.73228">
        <ele>209.80000305176</ele>
        <time>2021-09-12T03:33:19.000Z</time>
      </trkpt>
      <trkpt lat="45.19686" lon="5.73217">
        <ele>210</ele>
        <time>2021-09-12T03:33:25.000Z</time>
      </trkpt>
      <trkpt lat="45.19678" lon="5.73209">
        <ele>210</ele>
        <time>2021-09-12T03:33:29.000Z</time>
      </trkpt>
      <trkpt lat="45.19667" lon="5.73201">
        <ele>209.80000305176</ele>
        <time>2021-09-12T03:33:33.000Z</time>
      </trkpt>
      <trkpt lat="45.19661" lon="5.73194">
        <ele>209.80000305176</ele>
        <time>2021-09-12T03:33:36.000Z</time>
      </trkpt>
      <trkpt lat="45.19657" lon="5.7319">
        <ele>209.80000305176</ele>
        <time>2021-09-12T03:33:37.000Z</time>
      </trkpt>
      <trkpt lat="45.19655" lon="5.73187">
        <ele>210</ele>
        <time>2021-09-12T03:33:38.000Z</time>
      </trkpt>
      <trkpt lat="45.19648" lon="5.7318">
        <ele>210</ele>
        <time>2021-09-12T03:33:41.000Z</time>
      </trkpt>
      <trkpt lat="45.19635" lon="5.73165">
        <ele>210.19999694824</ele>
        <time>2021-09-12T03:33:47.000Z</time>
      </trkpt>
      <trkpt lat="45.19621" lon="5.73147">
        <ele>210.19999694824</ele>
        <time>2021-09-12T03:33:54.000Z</time>
      </trkpt>
      <trkpt lat="45.19606" lon="5.7313">
        <ele>210.60000610352</ele>
        <time>2021-09-12T03:34:01.000Z</time>
      </trkpt>
      <trkpt lat="45.19602" lon="5.73125">
        <ele>210.60000610352</ele>
        <time>2021-09-12T03:34:03.000Z</time>
      </trkpt>
      <trkpt lat="45.19593" lon="5.73112">
        <ele>211</ele>
        <time>2021-09-12T03:34:07.000Z</time>
      </trkpt>
      <trkpt lat="45.19592" lon="5.73109">
        <ele>211</ele>
        <time>2021-09-12T03:34:08.000Z</time>
      </trkpt>
      <trkpt lat="45.19588" lon="5.73104">
        <ele>211</ele>
        <time>2021-09-12T03:34:10.000Z</time>
      </trkpt>
      <trkpt lat="45.19581" lon="5.73092">
        <ele>211</ele>
        <time>2021-09-12T03:34:14.000Z</time>
      </trkpt>
      <trkpt lat="45.19577" lon="5.73086">
        <ele>211</ele>
        <time>2021-09-12T03:34:16.000Z</time>
      </trkpt>
      <trkpt lat="45.19574" lon="5.73082">
        <ele>211.19999694824</ele>
        <time>2021-09-12T03:34:18.000Z</time>
      </trkpt>
      <trkpt lat="45.1957" lon="5.73075">
        <ele>211.19999694824</ele>
        <time>2021-09-12T03:34:20.000Z</time>
      </trkpt>
      <trkpt lat="45.1956" lon="5.73058">
        <ele>211.19999694824</ele>
        <time>2021-09-12T03:34:26.000Z</time>
      </trkpt>
      <trkpt lat="45.19553" lon="5.73048">
        <ele>211.39999389648</ele>
        <time>2021-09-12T03:34:30.000Z</time>
      </trkpt>
      <trkpt lat="45.19552" lon="5.73046">
        <ele>211.39999389648</ele>
        <time>2021-09-12T03:34:31.000Z</time>
      </trkpt>
      <trkpt lat="45.1954" lon="5.73027">
        <ele>211.60000610352</ele>
        <time>2021-09-12T03:34:38.000Z</time>
      </trkpt>
      <trkpt lat="45.19535" lon="5.73017">
        <ele>211.60000610352</ele>
        <time>2021-09-12T03:34:41.000Z</time>
      </trkpt>
      <trkpt lat="45.19529" lon="5.73008">
        <ele>211.60000610352</ele>
        <time>2021-09-12T03:34:44.000Z</time>
      </trkpt>
      <trkpt lat="45.19525" lon="5.73003">
        <ele>211.60000610352</ele>
        <time>2021-09-12T03:34:46.000Z</time>
      </trkpt>
      <trkpt lat="45.19519" lon="5.73">
        <ele>211.60000610352</ele>
        <time>2021-09-12T03:34:48.000Z</time>
      </trkpt>
      <trkpt lat="45.19498" lon="5.72991">
        <ele>211.19999694824</ele>
        <time>2021-09-12T03:34:55.000Z</time>
      </trkpt>
      <trkpt lat="45.19484" lon="5.72979">
        <ele>210.80000305176</ele>
        <time>2021-09-12T03:35:01.000Z</time>
      </trkpt>
      <trkpt lat="45.19479" lon="5.72975">
        <ele>210.80000305176</ele>
        <time>2021-09-12T03:35:03.000Z</time>
      </trkpt>
      <trkpt lat="45.1947" lon="5.7297">
        <ele>210.60000610352</ele>
        <time>2021-09-12T03:35:06.000Z</time>
      </trkpt>
      <trkpt lat="45.19467" lon="5.7297">
        <ele>210.60000610352</ele>
        <time>2021-09-12T03:35:07.000Z</time>
      </trkpt>
      <trkpt lat="45.19448" lon="5.72969">
        <ele>210.39999389648</ele>
        <time>2021-09-12T03:35:11.000Z</time>
      </trkpt>
      <trkpt lat="45.19426" lon="5.72965">
        <ele>210.39999389648</ele>
        <time>2021-09-12T03:35:17.000Z</time>
      </trkpt>
      <trkpt lat="45.19416" lon="5.72953">
        <ele>210.19999694824</ele>
        <time>2021-09-12T03:35:21.000Z</time>
      </trkpt>
      <trkpt lat="45.19406" lon="5.72934">
        <ele>210</ele>
        <time>2021-09-12T03:35:26.000Z</time>
      </trkpt>
      <trkpt lat="45.19405" lon="5.72931">
        <ele>210</ele>
        <time>2021-09-12T03:35:27.000Z</time>
      </trkpt>
      <trkpt lat="45.19398" lon="5.72921">
        <ele>210</ele>
        <time>2021-09-12T03:35:30.000Z</time>
      </trkpt>
      <trkpt lat="45.19397" lon="5.72918">
        <ele>210</ele>
        <time>2021-09-12T03:35:31.000Z</time>
      </trkpt>
      <trkpt lat="45.19395" lon="5.72915">
        <ele>210</ele>
        <time>2021-09-12T03:35:32.000Z</time>
      </trkpt>
      <trkpt lat="45.19393" lon="5.72912">
        <ele>209.80000305176</ele>
        <time>2021-09-12T03:35:33.000Z</time>
      </trkpt>
      <trkpt lat="45.19388" lon="5.72903">
        <ele>209.60000610352</ele>
        <time>2021-09-12T03:35:36.000Z</time>
      </trkpt>
      <trkpt lat="45.19376" lon="5.7289">
        <ele>209.39999389648</ele>
        <time>2021-09-12T03:35:41.000Z</time>
      </trkpt>
      <trkpt lat="45.19375" lon="5.72887">
        <ele>209.39999389648</ele>
        <time>2021-09-12T03:35:42.000Z</time>
      </trkpt>
      <trkpt lat="45.19372" lon="5.72883">
        <ele>209.39999389648</ele>
        <time>2021-09-12T03:35:43.000Z</time>
      </trkpt>
      <trkpt lat="45.19367" lon="5.72872">
        <ele>209.39999389648</ele>
        <time>2021-09-12T03:35:46.000Z</time>
      </trkpt>
      <trkpt lat="45.19366" lon="5.72867">
        <ele>209.39999389648</ele>
        <time>2021-09-12T03:35:47.000Z</time>
      </trkpt>
      <trkpt lat="45.19363" lon="5.72855">
        <ele>209</ele>
        <time>2021-09-12T03:35:50.000Z</time>
      </trkpt>
      <trkpt lat="45.19358" lon="5.72839">
        <ele>208.80000305176</ele>
        <time>2021-09-12T03:35:54.000Z</time>
      </trkpt>
      <trkpt lat="45.19353" lon="5.72828">
        <ele>208.80000305176</ele>
        <time>2021-09-12T03:35:57.000Z</time>
      </trkpt>
      <trkpt lat="45.19352" lon="5.72825">
        <ele>208.80000305176</ele>
        <time>2021-09-12T03:35:58.000Z</time>
      </trkpt>
      <trkpt lat="45.19349" lon="5.72812">
        <ele>208.19999694824</ele>
        <time>2021-09-12T03:36:01.000Z</time>
      </trkpt>
      <trkpt lat="45.19346" lon="5.72792">
        <ele>207.80000305176</ele>
        <time>2021-09-12T03:36:06.000Z</time>
      </trkpt>
      <trkpt lat="45.19345" lon="5.72784">
        <ele>207.39999389648</ele>
        <time>2021-09-12T03:36:08.000Z</time>
      </trkpt>
      <trkpt lat="45.19343" lon="5.72759">
        <ele>207</ele>
        <time>2021-09-12T03:36:13.000Z</time>
      </trkpt>
      <trkpt lat="45.1934" lon="5.72737">
        <ele>206.80000305176</ele>
        <time>2021-09-12T03:36:18.000Z</time>
      </trkpt>
      <trkpt lat="45.19334" lon="5.72717">
        <ele>206.80000305176</ele>
        <time>2021-09-12T03:36:23.000Z</time>
      </trkpt>
      <trkpt lat="45.19333" lon="5.72712">
        <ele>206.80000305176</ele>
        <time>2021-09-12T03:36:24.000Z</time>
      </trkpt>
      <trkpt lat="45.19331" lon="5.72701">
        <ele>206.80000305176</ele>
        <time>2021-09-12T03:36:27.000Z</time>
      </trkpt>
      <trkpt lat="45.1933" lon="5.72679">
        <ele>207</ele>
        <time>2021-09-12T03:36:32.000Z</time>
      </trkpt>
      <trkpt lat="45.19324" lon="5.72656">
        <ele>207.19999694824</ele>
        <time>2021-09-12T03:36:38.000Z</time>
      </trkpt>
      <trkpt lat="45.19322" lon="5.72634">
        <ele>207.39999389648</ele>
        <time>2021-09-12T03:36:43.000Z</time>
      </trkpt>
      <trkpt lat="45.1932" lon="5.72623">
        <ele>207.80000305176</ele>
        <time>2021-09-12T03:36:46.000Z</time>
      </trkpt>
      <trkpt lat="45.1932" lon="5.72621">
        <ele>208</ele>
        <time>2021-09-12T03:36:47.000Z</time>
      </trkpt>
      <trkpt lat="45.19319" lon="5.72618">
        <ele>208.19999694824</ele>
        <time>2021-09-12T03:36:48.000Z</time>
      </trkpt>
      <trkpt lat="45.19314" lon="5.72604">
        <ele>209</ele>
        <time>2021-09-12T03:36:52.000Z</time>
      </trkpt>
      <trkpt lat="45.19313" lon="5.72602">
        <ele>209</ele>
        <time>2021-09-12T03:36:53.000Z</time>
      </trkpt>
      <trkpt lat="45.19308" lon="5.72586">
        <ele>209.60000610352</ele>
        <time>2021-09-12T03:36:58.000Z</time>
      </trkpt>
      <trkpt lat="45.19305" lon="5.72573">
        <ele>210</ele>
        <time>2021-09-12T03:37:02.000Z</time>
      </trkpt>
      <trkpt lat="45.19302" lon="5.72556">
        <ele>210.39999389648</ele>
        <time>2021-09-12T03:37:06.000Z</time>
      </trkpt>
      <trkpt lat="45.19299" lon="5.72536">
        <ele>210.80000305176</ele>
        <time>2021-09-12T03:37:11.000Z</time>
      </trkpt>
      <trkpt lat="45.19295" lon="5.7252">
        <ele>211.19999694824</ele>
        <time>2021-09-12T03:37:15.000Z</time>
      </trkpt>
      <trkpt lat="45.19293" lon="5.72511">
        <ele>211.19999694824</ele>
        <time>2021-09-12T03:37:17.000Z</time>
      </trkpt>
      <trkpt lat="45.19294" lon="5.72487">
        <ele>211.60000610352</ele>
        <time>2021-09-12T03:37:23.000Z</time>
      </trkpt>
      <trkpt lat="45.19297" lon="5.72471">
        <ele>211.80000305176</ele>
        <time>2021-09-12T03:37:27.000Z</time>
      </trkpt>
      <trkpt lat="45.19301" lon="5.72459">
        <ele>212</ele>
        <time>2021-09-12T03:37:30.000Z</time>
      </trkpt>
      <trkpt lat="45.19304" lon="5.7244">
        <ele>212.19999694824</ele>
        <time>2021-09-12T03:37:34.000Z</time>
      </trkpt>
      <trkpt lat="45.19305" lon="5.72436">
        <ele>212.19999694824</ele>
        <time>2021-09-12T03:37:35.000Z</time>
      </trkpt>
      <trkpt lat="45.19311" lon="5.72409">
        <ele>212.60000610352</ele>
        <time>2021-09-12T03:37:40.000Z</time>
      </trkpt>
      <trkpt lat="45.19315" lon="5.72397">
        <ele>212.80000305176</ele>
        <time>2021-09-12T03:37:42.000Z</time>
      </trkpt>
      <trkpt lat="45.19315" lon="5.7239">
        <ele>212.80000305176</ele>
        <time>2021-09-12T03:37:44.000Z</time>
      </trkpt>
      <trkpt lat="45.19313" lon="5.72377">
        <ele>212.80000305176</ele>
        <time>2021-09-12T03:37:47.000Z</time>
      </trkpt>
      <trkpt lat="45.19313" lon="5.72364">
        <ele>213</ele>
        <time>2021-09-12T03:37:50.000Z</time>
      </trkpt>
      <trkpt lat="45.19313" lon="5.72356">
        <ele>213</ele>
        <time>2021-09-12T03:37:52.000Z</time>
      </trkpt>
      <trkpt lat="45.19315" lon="5.72339">
        <ele>213.19999694824</ele>
        <time>2021-09-12T03:37:55.000Z</time>
      </trkpt>
      <trkpt lat="45.19318" lon="5.72331">
        <ele>213.39999389648</ele>
        <time>2021-09-12T03:37:56.000Z</time>
      </trkpt>
      <trkpt lat="45.19323" lon="5.72303">
        <ele>213.60000610352</ele>
        <time>2021-09-12T03:38:00.000Z</time>
      </trkpt>
      <trkpt lat="45.19323" lon="5.72296">
        <ele>213.60000610352</ele>
        <time>2021-09-12T03:38:01.000Z</time>
      </trkpt>
      <trkpt lat="45.19323" lon="5.7227">
        <ele>213.39999389648</ele>
        <time>2021-09-12T03:38:06.000Z</time>
      </trkpt>
      <trkpt lat="45.19324" lon="5.72262">
        <ele>213.60000610352</ele>
        <time>2021-09-12T03:38:08.000Z</time>
      </trkpt>
      <trkpt lat="45.19321" lon="5.72237">
        <ele>213.39999389648</ele>
        <time>2021-09-12T03:38:13.000Z</time>
      </trkpt>
      <trkpt lat="45.19319" lon="5.72212">
        <ele>213.19999694824</ele>
        <time>2021-09-12T03:38:18.000Z</time>
      </trkpt>
      <trkpt lat="45.19317" lon="5.72207">
        <ele>213.19999694824</ele>
        <time>2021-09-12T03:38:19.000Z</time>
      </trkpt>
      <trkpt lat="45.19321" lon="5.72177">
        <ele>212.80000305176</ele>
        <time>2021-09-12T03:38:24.000Z</time>
      </trkpt>
      <trkpt lat="45.19323" lon="5.72166">
        <ele>212.80000305176</ele>
        <time>2021-09-12T03:38:26.000Z</time>
      </trkpt>
      <trkpt lat="45.19319" lon="5.72146">
        <ele>212.80000305176</ele>
        <time>2021-09-12T03:38:30.000Z</time>
      </trkpt>
      <trkpt lat="45.19317" lon="5.72138">
        <ele>212.80000305176</ele>
        <time>2021-09-12T03:38:32.000Z</time>
      </trkpt>
      <trkpt lat="45.1932" lon="5.72107">
        <ele>212.39999389648</ele>
        <time>2021-09-12T03:38:39.000Z</time>
      </trkpt>
      <trkpt lat="45.19332" lon="5.7208">
        <ele>212.19999694824</ele>
        <time>2021-09-12T03:38:44.000Z</time>
      </trkpt>
      <trkpt lat="45.19332" lon="5.72078">
        <ele>212</ele>
        <time>2021-09-12T03:38:45.000Z</time>
      </trkpt>
      <trkpt lat="45.19331" lon="5.72066">
        <ele>211.80000305176</ele>
        <time>2021-09-12T03:38:49.000Z</time>
      </trkpt>
      <trkpt lat="45.19331" lon="5.72048">
        <ele>211.80000305176</ele>
        <time>2021-09-12T03:38:53.000Z</time>
      </trkpt>
      <trkpt lat="45.19331" lon="5.72025">
        <ele>211.60000610352</ele>
        <time>2021-09-12T03:38:59.000Z</time>
      </trkpt>
      <trkpt lat="45.19331" lon="5.72021">
        <ele>211.60000610352</ele>
        <time>2021-09-12T03:39:00.000Z</time>
      </trkpt>
      <trkpt lat="45.19338" lon="5.71994">
        <ele>211.39999389648</ele>
        <time>2021-09-12T03:39:06.000Z</time>
      </trkpt>
      <trkpt lat="45.1934" lon="5.71989">
        <ele>211.39999389648</ele>
        <time>2021-09-12T03:39:07.000Z</time>
      </trkpt>
      <trkpt lat="45.19349" lon="5.71964">
        <ele>211.19999694824</ele>
        <time>2021-09-12T03:39:13.000Z</time>
      </trkpt>
      <trkpt lat="45.19353" lon="5.71956">
        <ele>211</ele>
        <time>2021-09-12T03:39:15.000Z</time>
      </trkpt>
      <trkpt lat="45.19367" lon="5.71932">
        <ele>210.80000305176</ele>
        <time>2021-09-12T03:39:20.000Z</time>
      </trkpt>
      <trkpt lat="45.1937" lon="5.71928">
        <ele>210.80000305176</ele>
        <time>2021-09-12T03:39:21.000Z</time>
      </trkpt>
      <trkpt lat="45.19372" lon="5.71924">
        <ele>210.80000305176</ele>
        <time>2021-09-12T03:39:22.000Z</time>
      </trkpt>
      <trkpt lat="45.19378" lon="5.71911">
        <ele>210.60000610352</ele>
        <time>2021-09-12T03:39:25.000Z</time>
      </trkpt>
      <trkpt lat="45.19384" lon="5.71902">
        <ele>210.60000610352</ele>
        <time>2021-09-12T03:39:27.000Z</time>
      </trkpt>
      <trkpt lat="45.19399" lon="5.71887">
        <ele>210.39999389648</ele>
        <time>2021-09-12T03:39:32.000Z</time>
      </trkpt>
      <trkpt lat="45.19411" lon="5.71879">
        <ele>210</ele>
        <time>2021-09-12T03:39:36.000Z</time>
      </trkpt>
      <trkpt lat="45.1942" lon="5.71876">
        <ele>210</ele>
        <time>2021-09-12T03:39:39.000Z</time>
      </trkpt>
      <trkpt lat="45.19423" lon="5.71876">
        <ele>210</ele>
        <time>2021-09-12T03:39:40.000Z</time>
      </trkpt>
      <trkpt lat="45.1943" lon="5.71881">
        <ele>210</ele>
        <time>2021-09-12T03:39:42.000Z</time>
      </trkpt>
      <trkpt lat="45.19444" lon="5.71884">
        <ele>210</ele>
        <time>2021-09-12T03:39:46.000Z</time>
      </trkpt>
      <trkpt lat="45.19447" lon="5.71882">
        <ele>210</ele>
        <time>2021-09-12T03:39:47.000Z</time>
      </trkpt>
      <trkpt lat="45.19467" lon="5.71875">
        <ele>210</ele>
        <time>2021-09-12T03:39:54.000Z</time>
      </trkpt>
      <trkpt lat="45.19489" lon="5.71885">
        <ele>210.19999694824</ele>
        <time>2021-09-12T03:40:01.000Z</time>
      </trkpt>
      <trkpt lat="45.19491" lon="5.71885">
        <ele>210.19999694824</ele>
        <time>2021-09-12T03:40:02.000Z</time>
      </trkpt>
      <trkpt lat="45.1951" lon="5.71892">
        <ele>210</ele>
        <time>2021-09-12T03:40:09.000Z</time>
      </trkpt>
      <trkpt lat="45.19524" lon="5.71892">
        <ele>210.39999389648</ele>
        <time>2021-09-12T03:40:14.000Z</time>
      </trkpt>
      <trkpt lat="45.19541" lon="5.71896">
        <ele>210.39999389648</ele>
        <time>2021-09-12T03:40:20.000Z</time>
      </trkpt>
      <trkpt lat="45.19552" lon="5.71892">
        <ele>210.39999389648</ele>
        <time>2021-09-12T03:40:26.000Z</time>
      </trkpt>
      <trkpt lat="45.19555" lon="5.71899">
        <ele>211.19999694824</ele>
        <time>2021-09-12T03:40:30.000Z</time>
      </trkpt>
      <trkpt lat="45.19557" lon="5.71905">
        <ele>212</ele>
        <time>2021-09-12T03:40:33.000Z</time>
      </trkpt>
      <trkpt lat="45.19558" lon="5.71906">
        <ele>212.39999389648</ele>
        <time>2021-09-12T03:40:34.000Z</time>
      </trkpt>
      <trkpt lat="45.19559" lon="5.71906">
        <ele>212.60000610352</ele>
        <time>2021-09-12T03:40:35.000Z</time>
      </trkpt>
      <trkpt lat="45.19563" lon="5.71906">
        <ele>213.39999389648</ele>
        <time>2021-09-12T03:40:37.000Z</time>
      </trkpt>
      <trkpt lat="45.19569" lon="5.71905">
        <ele>214.19999694824</ele>
        <time>2021-09-12T03:40:40.000Z</time>
      </trkpt>
      <trkpt lat="45.19573" lon="5.71911">
        <ele>215</ele>
        <time>2021-09-12T03:40:43.000Z</time>
      </trkpt>
      <trkpt lat="45.19574" lon="5.71921">
        <ele>215.60000610352</ele>
        <time>2021-09-12T03:40:45.000Z</time>
      </trkpt>
      <trkpt lat="45.19573" lon="5.71934">
        <ele>216</ele>
        <time>2021-09-12T03:40:47.000Z</time>
      </trkpt>
      <trkpt lat="45.19573" lon="5.71938">
        <ele>216.60000610352</ele>
        <time>2021-09-12T03:40:48.000Z</time>
      </trkpt>
      <trkpt lat="45.19572" lon="5.71942">
        <ele>216.80000305176</ele>
        <time>2021-09-12T03:40:49.000Z</time>
      </trkpt>
      <trkpt lat="45.19569" lon="5.71951">
        <ele>217.39999389648</ele>
        <time>2021-09-12T03:40:51.000Z</time>
      </trkpt>
      <trkpt lat="45.19573" lon="5.71954">
        <ele>218</ele>
        <time>2021-09-12T03:40:53.000Z</time>
      </trkpt>
      <trkpt lat="45.19578" lon="5.71959">
        <ele>219.19999694824</ele>
        <time>2021-09-12T03:40:57.000Z</time>
      </trkpt>
      <trkpt lat="45.19579" lon="5.7196">
        <ele>219.39999389648</ele>
        <time>2021-09-12T03:40:58.000Z</time>
      </trkpt>
      <trkpt lat="45.19583" lon="5.71961">
        <ele>220</ele>
        <time>2021-09-12T03:41:00.000Z</time>
      </trkpt>
      <trkpt lat="45.19585" lon="5.71961">
        <ele>220.60000610352</ele>
        <time>2021-09-12T03:41:01.000Z</time>
      </trkpt>
      <trkpt lat="45.19586" lon="5.71962">
        <ele>220.80000305176</ele>
        <time>2021-09-12T03:41:02.000Z</time>
      </trkpt>
      <trkpt lat="45.19589" lon="5.71964">
        <ele>221.60000610352</ele>
        <time>2021-09-12T03:41:04.000Z</time>
      </trkpt>
      <trkpt lat="45.19591" lon="5.71966">
        <ele>222</ele>
        <time>2021-09-12T03:41:06.000Z</time>
      </trkpt>
      <trkpt lat="45.19595" lon="5.71969">
        <ele>223</ele>
        <time>2021-09-12T03:41:09.000Z</time>
      </trkpt>
      <trkpt lat="45.19599" lon="5.71974">
        <ele>223.80000305176</ele>
        <time>2021-09-12T03:41:12.000Z</time>
      </trkpt>
      <trkpt lat="45.196" lon="5.71974">
        <ele>224.19999694824</ele>
        <time>2021-09-12T03:41:13.000Z</time>
      </trkpt>
      <trkpt lat="45.19601" lon="5.71975">
        <ele>224.60000610352</ele>
        <time>2021-09-12T03:41:14.000Z</time>
      </trkpt>
      <trkpt lat="45.19604" lon="5.71979">
        <ele>225.39999389648</ele>
        <time>2021-09-12T03:41:17.000Z</time>
      </trkpt>
      <trkpt lat="45.19608" lon="5.71983">
        <ele>226.60000610352</ele>
        <time>2021-09-12T03:41:21.000Z</time>
      </trkpt>
      <trkpt lat="45.19611" lon="5.71985">
        <ele>227.19999694824</ele>
        <time>2021-09-12T03:41:23.000Z</time>
      </trkpt>
      <trkpt lat="45.19611" lon="5.71985">
        <ele>227.39999389648</ele>
        <time>2021-09-12T03:41:24.000Z</time>
      </trkpt>
      <trkpt lat="45.19611" lon="5.71985">
        <ele>227.60000610352</ele>
        <time>2021-09-12T03:41:25.000Z</time>
      </trkpt>
      <trkpt lat="45.19612" lon="5.71986">
        <ele>228</ele>
        <time>2021-09-12T03:41:26.000Z</time>
      </trkpt>
      <trkpt lat="45.19615" lon="5.71987">
        <ele>228.80000305176</ele>
        <time>2021-09-12T03:41:28.000Z</time>
      </trkpt>
      <trkpt lat="45.19616" lon="5.71988">
        <ele>229</ele>
        <time>2021-09-12T03:41:29.000Z</time>
      </trkpt>
      <trkpt lat="45.1962" lon="5.71995">
        <ele>229.80000305176</ele>
        <time>2021-09-12T03:41:32.000Z</time>
      </trkpt>
      <trkpt lat="45.19624" lon="5.71995">
        <ele>231</ele>
        <time>2021-09-12T03:41:35.000Z</time>
      </trkpt>
      <trkpt lat="45.19624" lon="5.71996">
        <ele>231.39999389648</ele>
        <time>2021-09-12T03:41:36.000Z</time>
      </trkpt>
      <trkpt lat="45.19628" lon="5.71997">
        <ele>232.19999694824</ele>
        <time>2021-09-12T03:41:38.000Z</time>
      </trkpt>
      <trkpt lat="45.19629" lon="5.71998">
        <ele>232.60000610352</ele>
        <time>2021-09-12T03:41:39.000Z</time>
      </trkpt>
      <trkpt lat="45.1963" lon="5.71998">
        <ele>233.19999694824</ele>
        <time>2021-09-12T03:41:41.000Z</time>
      </trkpt>
      <trkpt lat="45.19632" lon="5.72002">
        <ele>234.39999389648</ele>
        <time>2021-09-12T03:41:45.000Z</time>
      </trkpt>
      <trkpt lat="45.19632" lon="5.72003">
        <ele>234.80000305176</ele>
        <time>2021-09-12T03:41:46.000Z</time>
      </trkpt>
      <trkpt lat="45.19632" lon="5.72005">
        <ele>235.39999389648</ele>
        <time>2021-09-12T03:41:47.000Z</time>
      </trkpt>
      <trkpt lat="45.19632" lon="5.72006">
        <ele>235.60000610352</ele>
        <time>2021-09-12T03:41:48.000Z</time>
      </trkpt>
      <trkpt lat="45.19633" lon="5.72006">
        <ele>236</ele>
        <time>2021-09-12T03:41:49.000Z</time>
      </trkpt>
      <trkpt lat="45.19634" lon="5.72008">
        <ele>236.80000305176</ele>
        <time>2021-09-12T03:41:51.000Z</time>
      </trkpt>
      <trkpt lat="45.19636" lon="5.72011">
        <ele>238</ele>
        <time>2021-09-12T03:41:54.000Z</time>
      </trkpt>
      <trkpt lat="45.19636" lon="5.72012">
        <ele>238.60000610352</ele>
        <time>2021-09-12T03:41:56.000Z</time>
      </trkpt>
      <trkpt lat="45.19637" lon="5.72013">
        <ele>239.19999694824</ele>
        <time>2021-09-12T03:41:57.000Z</time>
      </trkpt>
      <trkpt lat="45.19639" lon="5.72014">
        <ele>240</ele>
        <time>2021-09-12T03:41:59.000Z</time>
      </trkpt>
      <trkpt lat="45.1964" lon="5.72016">
        <ele>240.39999389648</ele>
        <time>2021-09-12T03:42:00.000Z</time>
      </trkpt>
      <trkpt lat="45.19642" lon="5.72018">
        <ele>241</ele>
        <time>2021-09-12T03:42:02.000Z</time>
      </trkpt>
      <trkpt lat="45.19642" lon="5.72021">
        <ele>241.19999694824</ele>
        <time>2021-09-12T03:42:03.000Z</time>
      </trkpt>
      <trkpt lat="45.19642" lon="5.72023">
        <ele>241.60000610352</ele>
        <time>2021-09-12T03:42:04.000Z</time>
      </trkpt>
      <trkpt lat="45.19642" lon="5.72036">
        <ele>242.39999389648</ele>
        <time>2021-09-12T03:42:08.000Z</time>
      </trkpt>
      <trkpt lat="45.19643" lon="5.72037">
        <ele>242.80000305176</ele>
        <time>2021-09-12T03:42:09.000Z</time>
      </trkpt>
      <trkpt lat="45.19644" lon="5.72041">
        <ele>243.19999694824</ele>
        <time>2021-09-12T03:42:12.000Z</time>
      </trkpt>
      <trkpt lat="45.19644" lon="5.72043">
        <ele>243.39999389648</ele>
        <time>2021-09-12T03:42:13.000Z</time>
      </trkpt>
      <trkpt lat="45.19644" lon="5.72044">
        <ele>243.60000610352</ele>
        <time>2021-09-12T03:42:14.000Z</time>
      </trkpt>
      <trkpt lat="45.19645" lon="5.72045">
        <ele>244</ele>
        <time>2021-09-12T03:42:15.000Z</time>
      </trkpt>
      <trkpt lat="45.19646" lon="5.72046">
        <ele>244.19999694824</ele>
        <time>2021-09-12T03:42:16.000Z</time>
      </trkpt>
      <trkpt lat="45.19647" lon="5.72047">
        <ele>244.39999389648</ele>
        <time>2021-09-12T03:42:17.000Z</time>
      </trkpt>
      <trkpt lat="45.19646" lon="5.7205">
        <ele>244.60000610352</ele>
        <time>2021-09-12T03:42:18.000Z</time>
      </trkpt>
      <trkpt lat="45.19644" lon="5.72057">
        <ele>245</ele>
        <time>2021-09-12T03:42:20.000Z</time>
      </trkpt>
      <trkpt lat="45.19641" lon="5.72067">
        <ele>246.19999694824</ele>
        <time>2021-09-12T03:42:26.000Z</time>
      </trkpt>
      <trkpt lat="45.19637" lon="5.72073">
        <ele>247.39999389648</ele>
        <time>2021-09-12T03:42:31.000Z</time>
      </trkpt>
      <trkpt lat="45.19636" lon="5.72076">
        <ele>248.19999694824</ele>
        <time>2021-09-12T03:42:34.000Z</time>
      </trkpt>
      <trkpt lat="45.19637" lon="5.72076">
        <ele>248.39999389648</ele>
        <time>2021-09-12T03:42:35.000Z</time>
      </trkpt>
      <trkpt lat="45.19637" lon="5.72076">
        <ele>248.60000610352</ele>
        <time>2021-09-12T03:42:36.000Z</time>
      </trkpt>
      <trkpt lat="45.19638" lon="5.72076">
        <ele>249</ele>
        <time>2021-09-12T03:42:38.000Z</time>
      </trkpt>
      <trkpt lat="45.19639" lon="5.72073">
        <ele>249.60000610352</ele>
        <time>2021-09-12T03:42:40.000Z</time>
      </trkpt>
      <trkpt lat="45.19643" lon="5.72067">
        <ele>250.80000305176</ele>
        <time>2021-09-12T03:42:44.000Z</time>
      </trkpt>
      <trkpt lat="45.19645" lon="5.72072">
        <ele>251.39999389648</ele>
        <time>2021-09-12T03:42:47.000Z</time>
      </trkpt>
      <trkpt lat="45.19646" lon="5.72074">
        <ele>251.80000305176</ele>
        <time>2021-09-12T03:42:49.000Z</time>
      </trkpt>
      <trkpt lat="45.19647" lon="5.72074">
        <ele>252.19999694824</ele>
        <time>2021-09-12T03:42:50.000Z</time>
      </trkpt>
      <trkpt lat="45.19654" lon="5.72072">
        <ele>253.39999389648</ele>
        <time>2021-09-12T03:42:55.000Z</time>
      </trkpt>
      <trkpt lat="45.19654" lon="5.72071">
        <ele>253.80000305176</ele>
        <time>2021-09-12T03:42:56.000Z</time>
      </trkpt>
      <trkpt lat="45.19654" lon="5.72074">
        <ele>254</ele>
        <time>2021-09-12T03:42:57.000Z</time>
      </trkpt>
      <trkpt lat="45.19651" lon="5.72081">
        <ele>255</ele>
        <time>2021-09-12T03:43:00.000Z</time>
      </trkpt>
      <trkpt lat="45.1965" lon="5.72081">
        <ele>255.19999694824</ele>
        <time>2021-09-12T03:43:01.000Z</time>
      </trkpt>
      <trkpt lat="45.1965" lon="5.72081">
        <ele>255.39999389648</ele>
        <time>2021-09-12T03:43:02.000Z</time>
      </trkpt>
      <trkpt lat="45.1965" lon="5.72081">
        <ele>255.60000610352</ele>
        <time>2021-09-12T03:43:03.000Z</time>
      </trkpt>
      <trkpt lat="45.19652" lon="5.7208">
        <ele>256</ele>
        <time>2021-09-12T03:43:05.000Z</time>
      </trkpt>
      <trkpt lat="45.19654" lon="5.7208">
        <ele>256.39999389648</ele>
        <time>2021-09-12T03:43:06.000Z</time>
      </trkpt>
      <trkpt lat="45.19657" lon="5.72081">
        <ele>257</ele>
        <time>2021-09-12T03:43:09.000Z</time>
      </trkpt>
      <trkpt lat="45.19661" lon="5.72082">
        <ele>258.20001220703</ele>
        <time>2021-09-12T03:43:13.000Z</time>
      </trkpt>
      <trkpt lat="45.19666" lon="5.72086">
        <ele>259.60000610352</ele>
        <time>2021-09-12T03:43:17.000Z</time>
      </trkpt>
      <trkpt lat="45.19666" lon="5.7209">
        <ele>260.20001220703</ele>
        <time>2021-09-12T03:43:19.000Z</time>
      </trkpt>
      <trkpt lat="45.19666" lon="5.72092">
        <ele>260.39999389648</ele>
        <time>2021-09-12T03:43:20.000Z</time>
      </trkpt>
      <trkpt lat="45.19666" lon="5.72095">
        <ele>260.79998779297</ele>
        <time>2021-09-12T03:43:22.000Z</time>
      </trkpt>
      <trkpt lat="45.19665" lon="5.72098">
        <ele>261.79998779297</ele>
        <time>2021-09-12T03:43:24.000Z</time>
      </trkpt>
      <trkpt lat="45.19665" lon="5.72102">
        <ele>262.60000610352</ele>
        <time>2021-09-12T03:43:27.000Z</time>
      </trkpt>
      <trkpt lat="45.19665" lon="5.72103">
        <ele>262.79998779297</ele>
        <time>2021-09-12T03:43:28.000Z</time>
      </trkpt>
      <trkpt lat="45.19663" lon="5.72103">
        <ele>263.60000610352</ele>
        <time>2021-09-12T03:43:31.000Z</time>
      </trkpt>
      <trkpt lat="45.19662" lon="5.72104">
        <ele>263.79998779297</ele>
        <time>2021-09-12T03:43:32.000Z</time>
      </trkpt>
      <trkpt lat="45.19661" lon="5.72106">
        <ele>264.20001220703</ele>
        <time>2021-09-12T03:43:33.000Z</time>
      </trkpt>
      <trkpt lat="45.19662" lon="5.72108">
        <ele>264.79998779297</ele>
        <time>2021-09-12T03:43:35.000Z</time>
      </trkpt>
      <trkpt lat="45.19663" lon="5.72109">
        <ele>265</ele>
        <time>2021-09-12T03:43:36.000Z</time>
      </trkpt>
      <trkpt lat="45.19662" lon="5.7211">
        <ele>265.60000610352</ele>
        <time>2021-09-12T03:43:38.000Z</time>
      </trkpt>
      <trkpt lat="45.19661" lon="5.7211">
        <ele>265.79998779297</ele>
        <time>2021-09-12T03:43:39.000Z</time>
      </trkpt>
      <trkpt lat="45.1966" lon="5.72112">
        <ele>266.60000610352</ele>
        <time>2021-09-12T03:43:42.000Z</time>
      </trkpt>
      <trkpt lat="45.1966" lon="5.72113">
        <ele>267.20001220703</ele>
        <time>2021-09-12T03:43:43.000Z</time>
      </trkpt>
      <trkpt lat="45.1966" lon="5.72117">
        <ele>267.79998779297</ele>
        <time>2021-09-12T03:43:46.000Z</time>
      </trkpt>
      <trkpt lat="45.19661" lon="5.72118">
        <ele>268.20001220703</ele>
        <time>2021-09-12T03:43:47.000Z</time>
      </trkpt>
      <trkpt lat="45.19661" lon="5.72119">
        <ele>268.39999389648</ele>
        <time>2021-09-12T03:43:48.000Z</time>
      </trkpt>
      <trkpt lat="45.19662" lon="5.72121">
        <ele>269</ele>
        <time>2021-09-12T03:43:50.000Z</time>
      </trkpt>
      <trkpt lat="45.19663" lon="5.72121">
        <ele>269.20001220703</ele>
        <time>2021-09-12T03:43:51.000Z</time>
      </trkpt>
      <trkpt lat="45.19664" lon="5.72122">
        <ele>269.39999389648</ele>
        <time>2021-09-12T03:43:52.000Z</time>
      </trkpt>
      <trkpt lat="45.19664" lon="5.72123">
        <ele>269.60000610352</ele>
        <time>2021-09-12T03:43:53.000Z</time>
      </trkpt>
      <trkpt lat="45.19658" lon="5.72132">
        <ele>269.79998779297</ele>
        <time>2021-09-12T03:43:58.000Z</time>
      </trkpt>
      <trkpt lat="45.19655" lon="5.72135">
        <ele>269.79998779297</ele>
        <time>2021-09-12T03:44:00.000Z</time>
      </trkpt>
      <trkpt lat="45.19646" lon="5.7214">
        <ele>269.20001220703</ele>
        <time>2021-09-12T03:44:04.000Z</time>
      </trkpt>
      <trkpt lat="45.19627" lon="5.72146">
        <ele>268.79998779297</ele>
        <time>2021-09-12T03:44:12.000Z</time>
      </trkpt>
      <trkpt lat="45.19625" lon="5.72147">
        <ele>268.79998779297</ele>
        <time>2021-09-12T03:44:13.000Z</time>
      </trkpt>
      <trkpt lat="45.19617" lon="5.7215">
        <ele>268</ele>
        <time>2021-09-12T03:44:16.000Z</time>
      </trkpt>
      <trkpt lat="45.19606" lon="5.72151">
        <ele>267.39999389648</ele>
        <time>2021-09-12T03:44:21.000Z</time>
      </trkpt>
      <trkpt lat="45.19603" lon="5.72152">
        <ele>267</ele>
        <time>2021-09-12T03:44:23.000Z</time>
      </trkpt>
      <trkpt lat="45.19596" lon="5.72156">
        <ele>266.79998779297</ele>
        <time>2021-09-12T03:44:27.000Z</time>
      </trkpt>
      <trkpt lat="45.19586" lon="5.72163">
        <ele>266.79998779297</ele>
        <time>2021-09-12T03:44:31.000Z</time>
      </trkpt>
      <trkpt lat="45.1957" lon="5.72178">
        <ele>267.39999389648</ele>
        <time>2021-09-12T03:44:38.000Z</time>
      </trkpt>
      <trkpt lat="45.19569" lon="5.72181">
        <ele>267.60000610352</ele>
        <time>2021-09-12T03:44:39.000Z</time>
      </trkpt>
      <trkpt lat="45.19566" lon="5.72186">
        <ele>268.20001220703</ele>
        <time>2021-09-12T03:44:42.000Z</time>
      </trkpt>
      <trkpt lat="45.19562" lon="5.72187">
        <ele>269.20001220703</ele>
        <time>2021-09-12T03:44:44.000Z</time>
      </trkpt>
      <trkpt lat="45.19559" lon="5.72186">
        <ele>269.60000610352</ele>
        <time>2021-09-12T03:44:46.000Z</time>
      </trkpt>
      <trkpt lat="45.19556" lon="5.72184">
        <ele>270.20001220703</ele>
        <time>2021-09-12T03:44:48.000Z</time>
      </trkpt>
      <trkpt lat="45.19555" lon="5.72184">
        <ele>270.39999389648</ele>
        <time>2021-09-12T03:44:49.000Z</time>
      </trkpt>
      <trkpt lat="45.19552" lon="5.72184">
        <ele>271</ele>
        <time>2021-09-12T03:44:51.000Z</time>
      </trkpt>
      <trkpt lat="45.1955" lon="5.72183">
        <ele>271.39999389648</ele>
        <time>2021-09-12T03:44:52.000Z</time>
      </trkpt>
      <trkpt lat="45.19549" lon="5.72182">
        <ele>271.60000610352</ele>
        <time>2021-09-12T03:44:53.000Z</time>
      </trkpt>
      <trkpt lat="45.19546" lon="5.72182">
        <ele>271.79998779297</ele>
        <time>2021-09-12T03:44:55.000Z</time>
      </trkpt>
      <trkpt lat="45.19543" lon="5.72181">
        <ele>271.79998779297</ele>
        <time>2021-09-12T03:44:56.000Z</time>
      </trkpt>
      <trkpt lat="45.19526" lon="5.72178">
        <ele>271.60000610352</ele>
        <time>2021-09-12T03:45:04.000Z</time>
      </trkpt>
      <trkpt lat="45.19521" lon="5.72176">
        <ele>272</ele>
        <time>2021-09-12T03:45:08.000Z</time>
      </trkpt>
      <trkpt lat="45.19515" lon="5.72176">
        <ele>272.20001220703</ele>
        <time>2021-09-12T03:45:10.000Z</time>
      </trkpt>
      <trkpt lat="45.19509" lon="5.72175">
        <ele>272.39999389648</ele>
        <time>2021-09-12T03:45:12.000Z</time>
      </trkpt>
      <trkpt lat="45.19502" lon="5.72172">
        <ele>272.79998779297</ele>
        <time>2021-09-12T03:45:16.000Z</time>
      </trkpt>
      <trkpt lat="45.19496" lon="5.72172">
        <ele>273.39999389648</ele>
        <time>2021-09-12T03:45:19.000Z</time>
      </trkpt>
      <trkpt lat="45.19494" lon="5.72172">
        <ele>273.39999389648</ele>
        <time>2021-09-12T03:45:20.000Z</time>
      </trkpt>
      <trkpt lat="45.19493" lon="5.72171">
        <ele>273.79998779297</ele>
        <time>2021-09-12T03:45:21.000Z</time>
      </trkpt>
      <trkpt lat="45.19491" lon="5.7217">
        <ele>274.20001220703</ele>
        <time>2021-09-12T03:45:23.000Z</time>
      </trkpt>
      <trkpt lat="45.19489" lon="5.7217">
        <ele>274.79998779297</ele>
        <time>2021-09-12T03:45:25.000Z</time>
      </trkpt>
      <trkpt lat="45.19485" lon="5.72172">
        <ele>275.20001220703</ele>
        <time>2021-09-12T03:45:27.000Z</time>
      </trkpt>
      <trkpt lat="45.19484" lon="5.72172">
        <ele>275.39999389648</ele>
        <time>2021-09-12T03:45:28.000Z</time>
      </trkpt>
      <trkpt lat="45.19482" lon="5.72171">
        <ele>275.79998779297</ele>
        <time>2021-09-12T03:45:29.000Z</time>
      </trkpt>
      <trkpt lat="45.19474" lon="5.72178">
        <ele>277</ele>
        <time>2021-09-12T03:45:33.000Z</time>
      </trkpt>
      <trkpt lat="45.1947" lon="5.72181">
        <ele>278</ele>
        <time>2021-09-12T03:45:36.000Z</time>
      </trkpt>
      <trkpt lat="45.19472" lon="5.72183">
        <ele>278.39999389648</ele>
        <time>2021-09-12T03:45:39.000Z</time>
      </trkpt>
      <trkpt lat="45.19474" lon="5.72185">
        <ele>279.20001220703</ele>
        <time>2021-09-12T03:45:41.000Z</time>
      </trkpt>
      <trkpt lat="45.19476" lon="5.72189">
        <ele>280</ele>
        <time>2021-09-12T03:45:44.000Z</time>
      </trkpt>
      <trkpt lat="45.19476" lon="5.72189">
        <ele>280.20001220703</ele>
        <time>2021-09-12T03:45:45.000Z</time>
      </trkpt>
      <trkpt lat="45.19476" lon="5.7219">
        <ele>280.39999389648</ele>
        <time>2021-09-12T03:45:46.000Z</time>
      </trkpt>
      <trkpt lat="45.19476" lon="5.72192">
        <ele>281</ele>
        <time>2021-09-12T03:45:48.000Z</time>
      </trkpt>
      <trkpt lat="45.19477" lon="5.72192">
        <ele>281.39999389648</ele>
        <time>2021-09-12T03:45:49.000Z</time>
      </trkpt>
      <trkpt lat="45.19478" lon="5.72192">
        <ele>281.60000610352</ele>
        <time>2021-09-12T03:45:50.000Z</time>
      </trkpt>
      <trkpt lat="45.19481" lon="5.72192">
        <ele>282.60000610352</ele>
        <time>2021-09-12T03:45:53.000Z</time>
      </trkpt>
      <trkpt lat="45.19482" lon="5.72192">
        <ele>283</ele>
        <time>2021-09-12T03:45:54.000Z</time>
      </trkpt>
      <trkpt lat="45.19484" lon="5.72194">
        <ele>283.79998779297</ele>
        <time>2021-09-12T03:45:56.000Z</time>
      </trkpt>
      <trkpt lat="45.19485" lon="5.72194">
        <ele>284.20001220703</ele>
        <time>2021-09-12T03:45:57.000Z</time>
      </trkpt>
      <trkpt lat="45.19488" lon="5.72195">
        <ele>285</ele>
        <time>2021-09-12T03:45:59.000Z</time>
      </trkpt>
      <trkpt lat="45.19491" lon="5.72197">
        <ele>286</ele>
        <time>2021-09-12T03:46:02.000Z</time>
      </trkpt>
      <trkpt lat="45.19493" lon="5.72198">
        <ele>286.39999389648</ele>
        <time>2021-09-12T03:46:03.000Z</time>
      </trkpt>
      <trkpt lat="45.19495" lon="5.72198">
        <ele>286.60000610352</ele>
        <time>2021-09-12T03:46:04.000Z</time>
      </trkpt>
      <trkpt lat="45.19498" lon="5.72199">
        <ele>287.20001220703</ele>
        <time>2021-09-12T03:46:07.000Z</time>
      </trkpt>
      <trkpt lat="45.19505" lon="5.72202">
        <ele>288.20001220703</ele>
        <time>2021-09-12T03:46:11.000Z</time>
      </trkpt>
      <trkpt lat="45.19506" lon="5.72203">
        <ele>288.39999389648</ele>
        <time>2021-09-12T03:46:12.000Z</time>
      </trkpt>
      <trkpt lat="45.19512" lon="5.72209">
        <ele>289.20001220703</ele>
        <time>2021-09-12T03:46:16.000Z</time>
      </trkpt>
      <trkpt lat="45.19517" lon="5.72211">
        <ele>289.79998779297</ele>
        <time>2021-09-12T03:46:19.000Z</time>
      </trkpt>
      <trkpt lat="45.19519" lon="5.72212">
        <ele>290</ele>
        <time>2021-09-12T03:46:20.000Z</time>
      </trkpt>
      <trkpt lat="45.1952" lon="5.72213">
        <ele>290.39999389648</ele>
        <time>2021-09-12T03:46:21.000Z</time>
      </trkpt>
      <trkpt lat="45.19521" lon="5.72215">
        <ele>290.39999389648</ele>
        <time>2021-09-12T03:46:22.000Z</time>
      </trkpt>
      <trkpt lat="45.19526" lon="5.7222">
        <ele>291.39999389648</ele>
        <time>2021-09-12T03:46:26.000Z</time>
      </trkpt>
      <trkpt lat="45.19528" lon="5.72226">
        <ele>292.39999389648</ele>
        <time>2021-09-12T03:46:29.000Z</time>
      </trkpt>
      <trkpt lat="45.19529" lon="5.72227">
        <ele>292.60000610352</ele>
        <time>2021-09-12T03:46:30.000Z</time>
      </trkpt>
      <trkpt lat="45.1953" lon="5.7223">
        <ele>293.20001220703</ele>
        <time>2021-09-12T03:46:31.000Z</time>
      </trkpt>
      <trkpt lat="45.1953" lon="5.72233">
        <ele>293.39999389648</ele>
        <time>2021-09-12T03:46:32.000Z</time>
      </trkpt>
      <trkpt lat="45.19529" lon="5.72235">
        <ele>293.60000610352</ele>
        <time>2021-09-12T03:46:33.000Z</time>
      </trkpt>
      <trkpt lat="45.19532" lon="5.72235">
        <ele>295</ele>
        <time>2021-09-12T03:46:36.000Z</time>
      </trkpt>
      <trkpt lat="45.19532" lon="5.72235">
        <ele>295.60000610352</ele>
        <time>2021-09-12T03:46:37.000Z</time>
      </trkpt>
      <trkpt lat="45.19532" lon="5.72235">
        <ele>296</ele>
        <time>2021-09-12T03:46:38.000Z</time>
      </trkpt>
      <trkpt lat="45.19535" lon="5.72234">
        <ele>296.79998779297</ele>
        <time>2021-09-12T03:46:40.000Z</time>
      </trkpt>
      <trkpt lat="45.19537" lon="5.72234">
        <ele>297</ele>
        <time>2021-09-12T03:46:41.000Z</time>
      </trkpt>
      <trkpt lat="45.19539" lon="5.72234">
        <ele>297.20001220703</ele>
        <time>2021-09-12T03:46:42.000Z</time>
      </trkpt>
      <trkpt lat="45.19549" lon="5.72231">
        <ele>298.20001220703</ele>
        <time>2021-09-12T03:46:47.000Z</time>
      </trkpt>
      <trkpt lat="45.19553" lon="5.72233">
        <ele>298.60000610352</ele>
        <time>2021-09-12T03:46:49.000Z</time>
      </trkpt>
      <trkpt lat="45.19558" lon="5.72237">
        <ele>299.20001220703</ele>
        <time>2021-09-12T03:46:53.000Z</time>
      </trkpt>
      <trkpt lat="45.19558" lon="5.72237">
        <ele>299.39999389648</ele>
        <time>2021-09-12T03:46:54.000Z</time>
      </trkpt>
      <trkpt lat="45.19563" lon="5.72241">
        <ele>300.39999389648</ele>
        <time>2021-09-12T03:46:58.000Z</time>
      </trkpt>
      <trkpt lat="45.19568" lon="5.72247">
        <ele>301.39999389648</ele>
        <time>2021-09-12T03:47:02.000Z</time>
      </trkpt>
      <trkpt lat="45.19569" lon="5.72248">
        <ele>301.60000610352</ele>
        <time>2021-09-12T03:47:03.000Z</time>
      </trkpt>
      <trkpt lat="45.19572" lon="5.7225">
        <ele>302.20001220703</ele>
        <time>2021-09-12T03:47:06.000Z</time>
      </trkpt>
      <trkpt lat="45.19575" lon="5.72251">
        <ele>302.60000610352</ele>
        <time>2021-09-12T03:47:08.000Z</time>
      </trkpt>
      <trkpt lat="45.19577" lon="5.72252">
        <ele>303.20001220703</ele>
        <time>2021-09-12T03:47:10.000Z</time>
      </trkpt>
      <trkpt lat="45.19579" lon="5.72253">
        <ele>303.79998779297</ele>
        <time>2021-09-12T03:47:12.000Z</time>
      </trkpt>
      <trkpt lat="45.19586" lon="5.72252">
        <ele>304.79998779297</ele>
        <time>2021-09-12T03:47:17.000Z</time>
      </trkpt>
      <trkpt lat="45.19587" lon="5.72252">
        <ele>305</ele>
        <time>2021-09-12T03:47:18.000Z</time>
      </trkpt>
      <trkpt lat="45.19598" lon="5.72255">
        <ele>306</ele>
        <time>2021-09-12T03:47:24.000Z</time>
      </trkpt>
      <trkpt lat="45.1961" lon="5.72259">
        <ele>307</ele>
        <time>2021-09-12T03:47:31.000Z</time>
      </trkpt>
      <trkpt lat="45.19612" lon="5.72259">
        <ele>307.20001220703</ele>
        <time>2021-09-12T03:47:32.000Z</time>
      </trkpt>
      <trkpt lat="45.19618" lon="5.72259">
        <ele>307.60000610352</ele>
        <time>2021-09-12T03:47:36.000Z</time>
      </trkpt>
      <trkpt lat="45.19622" lon="5.72259">
        <ele>308</ele>
        <time>2021-09-12T03:47:38.000Z</time>
      </trkpt>
      <trkpt lat="45.19623" lon="5.72259">
        <ele>308.20001220703</ele>
        <time>2021-09-12T03:47:39.000Z</time>
      </trkpt>
      <trkpt lat="45.19631" lon="5.72259">
        <ele>309.39999389648</ele>
        <time>2021-09-12T03:47:45.000Z</time>
      </trkpt>
      <trkpt lat="45.19637" lon="5.72259">
        <ele>309.79998779297</ele>
        <time>2021-09-12T03:47:48.000Z</time>
      </trkpt>
      <trkpt lat="45.19644" lon="5.72261">
        <ele>310.39999389648</ele>
        <time>2021-09-12T03:47:52.000Z</time>
      </trkpt>
      <trkpt lat="45.19647" lon="5.7226">
        <ele>310.79998779297</ele>
        <time>2021-09-12T03:47:54.000Z</time>
      </trkpt>
      <trkpt lat="45.19649" lon="5.72259">
        <ele>311</ele>
        <time>2021-09-12T03:47:55.000Z</time>
      </trkpt>
      <trkpt lat="45.19655" lon="5.7226">
        <ele>311.60000610352</ele>
        <time>2021-09-12T03:47:58.000Z</time>
      </trkpt>
      <trkpt lat="45.1966" lon="5.72258">
        <ele>312.20001220703</ele>
        <time>2021-09-12T03:48:01.000Z</time>
      </trkpt>
      <trkpt lat="45.19665" lon="5.72253">
        <ele>312.60000610352</ele>
        <time>2021-09-12T03:48:04.000Z</time>
      </trkpt>
      <trkpt lat="45.19668" lon="5.72249">
        <ele>313.20001220703</ele>
        <time>2021-09-12T03:48:06.000Z</time>
      </trkpt>
      <trkpt lat="45.1967" lon="5.72245">
        <ele>313.60000610352</ele>
        <time>2021-09-12T03:48:08.000Z</time>
      </trkpt>
      <trkpt lat="45.19671" lon="5.72243">
        <ele>313.79998779297</ele>
        <time>2021-09-12T03:48:09.000Z</time>
      </trkpt>
      <trkpt lat="45.19673" lon="5.72238">
        <ele>314.20001220703</ele>
        <time>2021-09-12T03:48:11.000Z</time>
      </trkpt>
      <trkpt lat="45.19675" lon="5.72234">
        <ele>314.60000610352</ele>
        <time>2021-09-12T03:48:13.000Z</time>
      </trkpt>
      <trkpt lat="45.19676" lon="5.72232">
        <ele>315</ele>
        <time>2021-09-12T03:48:14.000Z</time>
      </trkpt>
      <trkpt lat="45.19682" lon="5.72207">
        <ele>316</ele>
        <time>2021-09-12T03:48:20.000Z</time>
      </trkpt>
      <trkpt lat="45.19687" lon="5.72196">
        <ele>316.79998779297</ele>
        <time>2021-09-12T03:48:24.000Z</time>
      </trkpt>
      <trkpt lat="45.19688" lon="5.72195">
        <ele>317.20001220703</ele>
        <time>2021-09-12T03:48:26.000Z</time>
      </trkpt>
      <trkpt lat="45.19693" lon="5.72193">
        <ele>318</ele>
        <time>2021-09-12T03:48:30.000Z</time>
      </trkpt>
      <trkpt lat="45.19695" lon="5.72193">
        <ele>318.20001220703</ele>
        <time>2021-09-12T03:48:31.000Z</time>
      </trkpt>
      <trkpt lat="45.19698" lon="5.72192">
        <ele>318.60000610352</ele>
        <time>2021-09-12T03:48:33.000Z</time>
      </trkpt>
      <trkpt lat="45.19702" lon="5.72189">
        <ele>318.79998779297</ele>
        <time>2021-09-12T03:48:35.000Z</time>
      </trkpt>
      <trkpt lat="45.19706" lon="5.72186">
        <ele>319.20001220703</ele>
        <time>2021-09-12T03:48:37.000Z</time>
      </trkpt>
      <trkpt lat="45.19707" lon="5.72185">
        <ele>319.39999389648</ele>
        <time>2021-09-12T03:48:38.000Z</time>
      </trkpt>
      <trkpt lat="45.19711" lon="5.72185">
        <ele>319.60000610352</ele>
        <time>2021-09-12T03:48:40.000Z</time>
      </trkpt>
      <trkpt lat="45.19716" lon="5.72186">
        <ele>320</ele>
        <time>2021-09-12T03:48:43.000Z</time>
      </trkpt>
      <trkpt lat="45.19718" lon="5.72186">
        <ele>320.39999389648</ele>
        <time>2021-09-12T03:48:44.000Z</time>
      </trkpt>
      <trkpt lat="45.19722" lon="5.72186">
        <ele>320.79998779297</ele>
        <time>2021-09-12T03:48:47.000Z</time>
      </trkpt>
      <trkpt lat="45.19722" lon="5.72195">
        <ele>321.60000610352</ele>
        <time>2021-09-12T03:48:50.000Z</time>
      </trkpt>
      <trkpt lat="45.1972" lon="5.72201">
        <ele>322.60000610352</ele>
        <time>2021-09-12T03:48:54.000Z</time>
      </trkpt>
      <trkpt lat="45.19719" lon="5.72202">
        <ele>322.60000610352</ele>
        <time>2021-09-12T03:48:55.000Z</time>
      </trkpt>
      <trkpt lat="45.19718" lon="5.72204">
        <ele>323.20001220703</ele>
        <time>2021-09-12T03:48:56.000Z</time>
      </trkpt>
      <trkpt lat="45.19715" lon="5.72208">
        <ele>323.79998779297</ele>
        <time>2021-09-12T03:48:59.000Z</time>
      </trkpt>
      <trkpt lat="45.19713" lon="5.72212">
        <ele>324.60000610352</ele>
        <time>2021-09-12T03:49:02.000Z</time>
      </trkpt>
      <trkpt lat="45.19712" lon="5.72213">
        <ele>325</ele>
        <time>2021-09-12T03:49:03.000Z</time>
      </trkpt>
      <trkpt lat="45.19711" lon="5.72215">
        <ele>325.20001220703</ele>
        <time>2021-09-12T03:49:04.000Z</time>
      </trkpt>
      <trkpt lat="45.19707" lon="5.7222">
        <ele>326</ele>
        <time>2021-09-12T03:49:07.000Z</time>
      </trkpt>
      <trkpt lat="45.19706" lon="5.72223">
        <ele>326.60000610352</ele>
        <time>2021-09-12T03:49:09.000Z</time>
      </trkpt>
      <trkpt lat="45.19704" lon="5.72226">
        <ele>327</ele>
        <time>2021-09-12T03:49:11.000Z</time>
      </trkpt>
      <trkpt lat="45.19697" lon="5.72235">
        <ele>327.79998779297</ele>
        <time>2021-09-12T03:49:16.000Z</time>
      </trkpt>
      <trkpt lat="45.19696" lon="5.72237">
        <ele>328</ele>
        <time>2021-09-12T03:49:17.000Z</time>
      </trkpt>
      <trkpt lat="45.19696" lon="5.72238">
        <ele>328.20001220703</ele>
        <time>2021-09-12T03:49:18.000Z</time>
      </trkpt>
      <trkpt lat="45.19699" lon="5.72238">
        <ele>328.79998779297</ele>
        <time>2021-09-12T03:49:21.000Z</time>
      </trkpt>
      <trkpt lat="45.19701" lon="5.72236">
        <ele>329.39999389648</ele>
        <time>2021-09-12T03:49:23.000Z</time>
      </trkpt>
      <trkpt lat="45.1971" lon="5.72236">
        <ele>330.39999389648</ele>
        <time>2021-09-12T03:49:29.000Z</time>
      </trkpt>
      <trkpt lat="45.19717" lon="5.72237">
        <ele>331.60000610352</ele>
        <time>2021-09-12T03:49:34.000Z</time>
      </trkpt>
      <trkpt lat="45.19718" lon="5.72238">
        <ele>331.79998779297</ele>
        <time>2021-09-12T03:49:36.000Z</time>
      </trkpt>
      <trkpt lat="45.19721" lon="5.72238">
        <ele>332.79998779297</ele>
        <time>2021-09-12T03:49:38.000Z</time>
      </trkpt>
      <trkpt lat="45.19724" lon="5.72236">
        <ele>333.39999389648</ele>
        <time>2021-09-12T03:49:41.000Z</time>
      </trkpt>
      <trkpt lat="45.19725" lon="5.72234">
        <ele>334</ele>
        <time>2021-09-12T03:49:43.000Z</time>
      </trkpt>
      <trkpt lat="45.19732" lon="5.72232">
        <ele>335</ele>
        <time>2021-09-12T03:49:48.000Z</time>
      </trkpt>
      <trkpt lat="45.19736" lon="5.72233">
        <ele>335.39999389648</ele>
        <time>2021-09-12T03:49:50.000Z</time>
      </trkpt>
      <trkpt lat="45.19739" lon="5.72232">
        <ele>335.79998779297</ele>
        <time>2021-09-12T03:49:52.000Z</time>
      </trkpt>
      <trkpt lat="45.19742" lon="5.7223">
        <ele>336</ele>
        <time>2021-09-12T03:49:54.000Z</time>
      </trkpt>
      <trkpt lat="45.19745" lon="5.72229">
        <ele>336.20001220703</ele>
        <time>2021-09-12T03:49:56.000Z</time>
      </trkpt>
      <trkpt lat="45.19746" lon="5.72228">
        <ele>336.60000610352</ele>
        <time>2021-09-12T03:49:57.000Z</time>
      </trkpt>
      <trkpt lat="45.19748" lon="5.72227">
        <ele>337</ele>
        <time>2021-09-12T03:49:59.000Z</time>
      </trkpt>
      <trkpt lat="45.1975" lon="5.72227">
        <ele>337.20001220703</ele>
        <time>2021-09-12T03:50:00.000Z</time>
      </trkpt>
      <trkpt lat="45.19752" lon="5.72228">
        <ele>337.20001220703</ele>
        <time>2021-09-12T03:50:01.000Z</time>
      </trkpt>
      <trkpt lat="45.19757" lon="5.72229">
        <ele>337.79998779297</ele>
        <time>2021-09-12T03:50:04.000Z</time>
      </trkpt>
      <trkpt lat="45.19759" lon="5.7223">
        <ele>338.20001220703</ele>
        <time>2021-09-12T03:50:05.000Z</time>
      </trkpt>
      <trkpt lat="45.19765" lon="5.72226">
        <ele>339</ele>
        <time>2021-09-12T03:50:09.000Z</time>
      </trkpt>
      <trkpt lat="45.19765" lon="5.72227">
        <ele>339.20001220703</ele>
        <time>2021-09-12T03:50:10.000Z</time>
      </trkpt>
      <trkpt lat="45.19767" lon="5.7223">
        <ele>339.79998779297</ele>
        <time>2021-09-12T03:50:12.000Z</time>
      </trkpt>
      <trkpt lat="45.19766" lon="5.72233">
        <ele>340.39999389648</ele>
        <time>2021-09-12T03:50:14.000Z</time>
      </trkpt>
      <trkpt lat="45.19766" lon="5.72235">
        <ele>340.60000610352</ele>
        <time>2021-09-12T03:50:15.000Z</time>
      </trkpt>
      <trkpt lat="45.19765" lon="5.72237">
        <ele>341.20001220703</ele>
        <time>2021-09-12T03:50:17.000Z</time>
      </trkpt>
      <trkpt lat="45.19765" lon="5.72239">
        <ele>341.39999389648</ele>
        <time>2021-09-12T03:50:18.000Z</time>
      </trkpt>
      <trkpt lat="45.19764" lon="5.72239">
        <ele>341.39999389648</ele>
        <time>2021-09-12T03:50:19.000Z</time>
      </trkpt>
      <trkpt lat="45.19764" lon="5.7224">
        <ele>341.79998779297</ele>
        <time>2021-09-12T03:50:20.000Z</time>
      </trkpt>
      <trkpt lat="45.19766" lon="5.72236">
        <ele>342.39999389648</ele>
        <time>2021-09-12T03:50:23.000Z</time>
      </trkpt>
      <trkpt lat="45.19766" lon="5.72236">
        <ele>342.39999389648</ele>
        <time>2021-09-12T03:50:24.000Z</time>
      </trkpt>
      <trkpt lat="45.1977" lon="5.72233">
        <ele>343.20001220703</ele>
        <time>2021-09-12T03:50:28.000Z</time>
      </trkpt>
      <trkpt lat="45.1977" lon="5.72233">
        <ele>343.39999389648</ele>
        <time>2021-09-12T03:50:29.000Z</time>
      </trkpt>
      <trkpt lat="45.19772" lon="5.7223">
        <ele>343.79998779297</ele>
        <time>2021-09-12T03:50:32.000Z</time>
      </trkpt>
      <trkpt lat="45.19772" lon="5.72229">
        <ele>344.20001220703</ele>
        <time>2021-09-12T03:50:33.000Z</time>
      </trkpt>
      <trkpt lat="45.19775" lon="5.72226">
        <ele>344.39999389648</ele>
        <time>2021-09-12T03:50:35.000Z</time>
      </trkpt>
      <trkpt lat="45.19778" lon="5.72224">
        <ele>344.60000610352</ele>
        <time>2021-09-12T03:50:37.000Z</time>
      </trkpt>
      <trkpt lat="45.1978" lon="5.72225">
        <ele>345.20001220703</ele>
        <time>2021-09-12T03:50:40.000Z</time>
      </trkpt>
      <trkpt lat="45.1978" lon="5.72229">
        <ele>345.39999389648</ele>
        <time>2021-09-12T03:50:42.000Z</time>
      </trkpt>
      <trkpt lat="45.19781" lon="5.72228">
        <ele>345.60000610352</ele>
        <time>2021-09-12T03:50:43.000Z</time>
      </trkpt>
      <trkpt lat="45.19781" lon="5.72227">
        <ele>345.79998779297</ele>
        <time>2021-09-12T03:50:44.000Z</time>
      </trkpt>
      <trkpt lat="45.19782" lon="5.72221">
        <ele>346.20001220703</ele>
        <time>2021-09-12T03:50:46.000Z</time>
      </trkpt>
      <trkpt lat="45.19784" lon="5.72219">
        <ele>346.60000610352</ele>
        <time>2021-09-12T03:50:48.000Z</time>
      </trkpt>
      <trkpt lat="45.19784" lon="5.7222">
        <ele>346.79998779297</ele>
        <time>2021-09-12T03:50:49.000Z</time>
      </trkpt>
      <trkpt lat="45.19785" lon="5.72222">
        <ele>347.20001220703</ele>
        <time>2021-09-12T03:50:50.000Z</time>
      </trkpt>
      <trkpt lat="45.19785" lon="5.7223">
        <ele>348</ele>
        <time>2021-09-12T03:50:53.000Z</time>
      </trkpt>
      <trkpt lat="45.19785" lon="5.72232">
        <ele>348.20001220703</ele>
        <time>2021-09-12T03:50:54.000Z</time>
      </trkpt>
      <trkpt lat="45.19782" lon="5.72233">
        <ele>349</ele>
        <time>2021-09-12T03:50:58.000Z</time>
      </trkpt>
      <trkpt lat="45.19783" lon="5.72231">
        <ele>349.20001220703</ele>
        <time>2021-09-12T03:50:59.000Z</time>
      </trkpt>
      <trkpt lat="45.19784" lon="5.72219">
        <ele>350.20001220703</ele>
        <time>2021-09-12T03:51:03.000Z</time>
      </trkpt>
      <trkpt lat="45.19783" lon="5.72219">
        <ele>350.39999389648</ele>
        <time>2021-09-12T03:51:05.000Z</time>
      </trkpt>
      <trkpt lat="45.19782" lon="5.72219">
        <ele>350.79998779297</ele>
        <time>2021-09-12T03:51:07.000Z</time>
      </trkpt>
      <trkpt lat="45.19783" lon="5.72223">
        <ele>351.20001220703</ele>
        <time>2021-09-12T03:51:08.000Z</time>
      </trkpt>
      <trkpt lat="45.19783" lon="5.72224">
        <ele>351.39999389648</ele>
        <time>2021-09-12T03:51:09.000Z</time>
      </trkpt>
      <trkpt lat="45.19783" lon="5.72225">
        <ele>351.60000610352</ele>
        <time>2021-09-12T03:51:10.000Z</time>
      </trkpt>
      <trkpt lat="45.19784" lon="5.72228">
        <ele>352.60000610352</ele>
        <time>2021-09-12T03:51:14.000Z</time>
      </trkpt>
      <trkpt lat="45.19785" lon="5.72229">
        <ele>352.79998779297</ele>
        <time>2021-09-12T03:51:15.000Z</time>
      </trkpt>
      <trkpt lat="45.19786" lon="5.72229">
        <ele>353</ele>
        <time>2021-09-12T03:51:16.000Z</time>
      </trkpt>
      <trkpt lat="45.19788" lon="5.7223">
        <ele>353.20001220703</ele>
        <time>2021-09-12T03:51:18.000Z</time>
      </trkpt>
      <trkpt lat="45.19788" lon="5.72233">
        <ele>353.60000610352</ele>
        <time>2021-09-12T03:51:20.000Z</time>
      </trkpt>
      <trkpt lat="45.19786" lon="5.72237">
        <ele>354.39999389648</ele>
        <time>2021-09-12T03:51:23.000Z</time>
      </trkpt>
      <trkpt lat="45.19786" lon="5.72239">
        <ele>354.60000610352</ele>
        <time>2021-09-12T03:51:24.000Z</time>
      </trkpt>
      <trkpt lat="45.19786" lon="5.7224">
        <ele>354.79998779297</ele>
        <time>2021-09-12T03:51:25.000Z</time>
      </trkpt>
      <trkpt lat="45.19787" lon="5.72241">
        <ele>354.79998779297</ele>
        <time>2021-09-12T03:51:26.000Z</time>
      </trkpt>
      <trkpt lat="45.19789" lon="5.72243">
        <ele>355.39999389648</ele>
        <time>2021-09-12T03:51:28.000Z</time>
      </trkpt>
      <trkpt lat="45.19789" lon="5.72244">
        <ele>355.60000610352</ele>
        <time>2021-09-12T03:51:29.000Z</time>
      </trkpt>
      <trkpt lat="45.19789" lon="5.72244">
        <ele>355.79998779297</ele>
        <time>2021-09-12T03:51:30.000Z</time>
      </trkpt>
      <trkpt lat="45.1979" lon="5.72251">
        <ele>356.79998779297</ele>
        <time>2021-09-12T03:51:35.000Z</time>
      </trkpt>
      <trkpt lat="45.1979" lon="5.72253">
        <ele>357</ele>
        <time>2021-09-12T03:51:36.000Z</time>
      </trkpt>
      <trkpt lat="45.19791" lon="5.72258">
        <ele>357.60000610352</ele>
        <time>2021-09-12T03:51:39.000Z</time>
      </trkpt>
      <trkpt lat="45.1979" lon="5.72256">
        <ele>357.79998779297</ele>
        <time>2021-09-12T03:51:40.000Z</time>
      </trkpt>
      <trkpt lat="45.19791" lon="5.72255">
        <ele>358</ele>
        <time>2021-09-12T03:51:41.000Z</time>
      </trkpt>
      <trkpt lat="45.19793" lon="5.72253">
        <ele>358.60000610352</ele>
        <time>2021-09-12T03:51:44.000Z</time>
      </trkpt>
      <trkpt lat="45.19793" lon="5.72253">
        <ele>359</ele>
        <time>2021-09-12T03:51:45.000Z</time>
      </trkpt>
      <trkpt lat="45.19794" lon="5.72253">
        <ele>359</ele>
        <time>2021-09-12T03:51:46.000Z</time>
      </trkpt>
      <trkpt lat="45.19794" lon="5.72254">
        <ele>359.39999389648</ele>
        <time>2021-09-12T03:51:48.000Z</time>
      </trkpt>
      <trkpt lat="45.19793" lon="5.72256">
        <ele>359.60000610352</ele>
        <time>2021-09-12T03:51:49.000Z</time>
      </trkpt>
      <trkpt lat="45.19791" lon="5.72259">
        <ele>360.39999389648</ele>
        <time>2021-09-12T03:51:51.000Z</time>
      </trkpt>
      <trkpt lat="45.19789" lon="5.72266">
        <ele>361</ele>
        <time>2021-09-12T03:51:55.000Z</time>
      </trkpt>
      <trkpt lat="45.19788" lon="5.72267">
        <ele>361.39999389648</ele>
        <time>2021-09-12T03:51:56.000Z</time>
      </trkpt>
      <trkpt lat="45.19788" lon="5.72265">
        <ele>361.79998779297</ele>
        <time>2021-09-12T03:51:57.000Z</time>
      </trkpt>
      <trkpt lat="45.1979" lon="5.72265">
        <ele>362.20001220703</ele>
        <time>2021-09-12T03:51:59.000Z</time>
      </trkpt>
      <trkpt lat="45.1979" lon="5.72266">
        <ele>362.60000610352</ele>
        <time>2021-09-12T03:52:00.000Z</time>
      </trkpt>
      <trkpt lat="45.19791" lon="5.7227">
        <ele>363.60000610352</ele>
        <time>2021-09-12T03:52:03.000Z</time>
      </trkpt>
      <trkpt lat="45.19793" lon="5.72272">
        <ele>364.60000610352</ele>
        <time>2021-09-12T03:52:08.000Z</time>
      </trkpt>
      <trkpt lat="45.19792" lon="5.72272">
        <ele>365</ele>
        <time>2021-09-12T03:52:09.000Z</time>
      </trkpt>
      <trkpt lat="45.19792" lon="5.72271">
        <ele>365.79998779297</ele>
        <time>2021-09-12T03:52:11.000Z</time>
      </trkpt>
      <trkpt lat="45.19793" lon="5.7227">
        <ele>366</ele>
        <time>2021-09-12T03:52:12.000Z</time>
      </trkpt>
      <trkpt lat="45.19792" lon="5.72266">
        <ele>367</ele>
        <time>2021-09-12T03:52:15.000Z</time>
      </trkpt>
      <trkpt lat="45.19792" lon="5.72265">
        <ele>367.20001220703</ele>
        <time>2021-09-12T03:52:16.000Z</time>
      </trkpt>
      <trkpt lat="45.19793" lon="5.72264">
        <ele>367.39999389648</ele>
        <time>2021-09-12T03:52:18.000Z</time>
      </trkpt>
      <trkpt lat="45.19794" lon="5.72261">
        <ele>368.20001220703</ele>
        <time>2021-09-12T03:52:20.000Z</time>
      </trkpt>
      <trkpt lat="45.19794" lon="5.72258">
        <ele>368.79998779297</ele>
        <time>2021-09-12T03:52:21.000Z</time>
      </trkpt>
      <trkpt lat="45.19794" lon="5.72257">
        <ele>369.60000610352</ele>
        <time>2021-09-12T03:52:23.000Z</time>
      </trkpt>
      <trkpt lat="45.19795" lon="5.72258">
        <ele>369.79998779297</ele>
        <time>2021-09-12T03:52:24.000Z</time>
      </trkpt>
      <trkpt lat="45.19795" lon="5.72257">
        <ele>370.60000610352</ele>
        <time>2021-09-12T03:52:25.000Z</time>
      </trkpt>
      <trkpt lat="45.19796" lon="5.72256">
        <ele>371.20001220703</ele>
        <time>2021-09-12T03:52:26.000Z</time>
      </trkpt>
      <trkpt lat="45.19796" lon="5.7225">
        <ele>372</ele>
        <time>2021-09-12T03:52:29.000Z</time>
      </trkpt>
      <trkpt lat="45.19795" lon="5.72245">
        <ele>372.39999389648</ele>
        <time>2021-09-12T03:52:31.000Z</time>
      </trkpt>
      <trkpt lat="45.19795" lon="5.72239">
        <ele>372.79998779297</ele>
        <time>2021-09-12T03:52:34.000Z</time>
      </trkpt>
      <trkpt lat="45.19799" lon="5.7223">
        <ele>373.60000610352</ele>
        <time>2021-09-12T03:52:38.000Z</time>
      </trkpt>
      <trkpt lat="45.198" lon="5.72229">
        <ele>373.79998779297</ele>
        <time>2021-09-12T03:52:39.000Z</time>
      </trkpt>
      <trkpt lat="45.19801" lon="5.72229">
        <ele>374</ele>
        <time>2021-09-12T03:52:40.000Z</time>
      </trkpt>
      <trkpt lat="45.1981" lon="5.72228">
        <ele>374.60000610352</ele>
        <time>2021-09-12T03:52:45.000Z</time>
      </trkpt>
      <trkpt lat="45.19814" lon="5.72226">
        <ele>375.79998779297</ele>
        <time>2021-09-12T03:52:49.000Z</time>
      </trkpt>
      <trkpt lat="45.19813" lon="5.72227">
        <ele>376.39999389648</ele>
        <time>2021-09-12T03:52:50.000Z</time>
      </trkpt>
      <trkpt lat="45.19813" lon="5.72228">
        <ele>376.60000610352</ele>
        <time>2021-09-12T03:52:51.000Z</time>
      </trkpt>
      <trkpt lat="45.19813" lon="5.7223">
        <ele>377.20001220703</ele>
        <time>2021-09-12T03:52:53.000Z</time>
      </trkpt>
      <trkpt lat="45.19813" lon="5.7223">
        <ele>377.79998779297</ele>
        <time>2021-09-12T03:52:54.000Z</time>
      </trkpt>
      <trkpt lat="45.19813" lon="5.72231">
        <ele>378.39999389648</ele>
        <time>2021-09-12T03:52:55.000Z</time>
      </trkpt>
      <trkpt lat="45.19813" lon="5.72233">
        <ele>378.79998779297</ele>
        <time>2021-09-12T03:52:56.000Z</time>
      </trkpt>
      <trkpt lat="45.19813" lon="5.72237">
        <ele>379.39999389648</ele>
        <time>2021-09-12T03:53:00.000Z</time>
      </trkpt>
      <trkpt lat="45.19813" lon="5.72237">
        <ele>379.60000610352</ele>
        <time>2021-09-12T03:53:01.000Z</time>
      </trkpt>
      <trkpt lat="45.19813" lon="5.72237">
        <ele>379.60000610352</ele>
        <time>2021-09-12T03:53:02.000Z</time>
      </trkpt>
      <trkpt lat="45.19812" lon="5.72241">
        <ele>380.60000610352</ele>
        <time>2021-09-12T03:53:06.000Z</time>
      </trkpt>
      <trkpt lat="45.19811" lon="5.72242">
        <ele>381.39999389648</ele>
        <time>2021-09-12T03:53:08.000Z</time>
      </trkpt>
      <trkpt lat="45.19811" lon="5.72243">
        <ele>381.60000610352</ele>
        <time>2021-09-12T03:53:09.000Z</time>
      </trkpt>
      <trkpt lat="45.19811" lon="5.72247">
        <ele>381.79998779297</ele>
        <time>2021-09-12T03:53:11.000Z</time>
      </trkpt>
      <trkpt lat="45.19812" lon="5.7225">
        <ele>382</ele>
        <time>2021-09-12T03:53:13.000Z</time>
      </trkpt>
      <trkpt lat="45.19813" lon="5.7225">
        <ele>382.20001220703</ele>
        <time>2021-09-12T03:53:14.000Z</time>
      </trkpt>
      <trkpt lat="45.19813" lon="5.72251">
        <ele>382.60000610352</ele>
        <time>2021-09-12T03:53:15.000Z</time>
      </trkpt>
      <trkpt lat="45.19813" lon="5.72252">
        <ele>383</ele>
        <time>2021-09-12T03:53:16.000Z</time>
      </trkpt>
      <trkpt lat="45.19828" lon="5.72255">
        <ele>394.39999389648</ele>
        <time>2021-09-12T03:53:49.000Z</time>
      </trkpt>
      <trkpt lat="45.19826" lon="5.72248">
        <ele>394.60000610352</ele>
        <time>2021-09-12T03:53:50.000Z</time>
      </trkpt>
      <trkpt lat="45.19829" lon="5.72254">
        <ele>395.60000610352</ele>
        <time>2021-09-12T03:53:52.000Z</time>
      </trkpt>
      <trkpt lat="45.19831" lon="5.72255">
        <ele>396</ele>
        <time>2021-09-12T03:53:53.000Z</time>
      </trkpt>
      <trkpt lat="45.19835" lon="5.72254">
        <ele>396.39999389648</ele>
        <time>2021-09-12T03:53:55.000Z</time>
      </trkpt>
      <trkpt lat="45.19834" lon="5.72254">
        <ele>396.79998779297</ele>
        <time>2021-09-12T03:53:56.000Z</time>
      </trkpt>
      <trkpt lat="45.19833" lon="5.72256">
        <ele>397</ele>
        <time>2021-09-12T03:53:58.000Z</time>
      </trkpt>
      <trkpt lat="45.19831" lon="5.72259">
        <ele>397.39999389648</ele>
        <time>2021-09-12T03:54:00.000Z</time>
      </trkpt>
      <trkpt lat="45.19831" lon="5.7227">
        <ele>397.79998779297</ele>
        <time>2021-09-12T03:54:04.000Z</time>
      </trkpt>
      <trkpt lat="45.19829" lon="5.72276">
        <ele>398</ele>
        <time>2021-09-12T03:54:06.000Z</time>
      </trkpt>
      <trkpt lat="45.1982" lon="5.72292">
        <ele>399</ele>
        <time>2021-09-12T03:54:14.000Z</time>
      </trkpt>
      <trkpt lat="45.1981" lon="5.72303">
        <ele>399.79998779297</ele>
        <time>2021-09-12T03:54:21.000Z</time>
      </trkpt>
      <trkpt lat="45.19809" lon="5.72306">
        <ele>400.20001220703</ele>
        <time>2021-09-12T03:54:22.000Z</time>
      </trkpt>
      <trkpt lat="45.19808" lon="5.72319">
        <ele>400.39999389648</ele>
        <time>2021-09-12T03:54:26.000Z</time>
      </trkpt>
      <trkpt lat="45.1981" lon="5.72326">
        <ele>400.79998779297</ele>
        <time>2021-09-12T03:54:29.000Z</time>
      </trkpt>
      <trkpt lat="45.19818" lon="5.72327">
        <ele>410.79998779297</ele>
        <time>2021-09-12T03:55:10.000Z</time>
      </trkpt>
      <trkpt lat="45.19822" lon="5.72301">
        <ele>410.79998779297</ele>
        <time>2021-09-12T03:55:16.000Z</time>
      </trkpt>
      <trkpt lat="45.19823" lon="5.72297">
        <ele>410.60000610352</ele>
        <time>2021-09-12T03:55:18.000Z</time>
      </trkpt>
      <trkpt lat="45.19822" lon="5.72298">
        <ele>410.60000610352</ele>
        <time>2021-09-12T03:55:19.000Z</time>
      </trkpt>
      <trkpt lat="45.19818" lon="5.72314">
        <ele>410.79998779297</ele>
        <time>2021-09-12T03:55:25.000Z</time>
      </trkpt>
      <trkpt lat="45.19817" lon="5.72317">
        <ele>410.79998779297</ele>
        <time>2021-09-12T03:55:26.000Z</time>
      </trkpt>
      <trkpt lat="45.19818" lon="5.72318">
        <ele>411</ele>
        <time>2021-09-12T03:55:28.000Z</time>
      </trkpt>
      <trkpt lat="45.19819" lon="5.72318">
        <ele>411.20001220703</ele>
        <time>2021-09-12T03:55:30.000Z</time>
      </trkpt>
      <trkpt lat="45.1982" lon="5.72322">
        <ele>411.79998779297</ele>
        <time>2021-09-12T03:55:32.000Z</time>
      </trkpt>
      <trkpt lat="45.19821" lon="5.72324">
        <ele>412.39999389648</ele>
        <time>2021-09-12T03:55:33.000Z</time>
      </trkpt>
      <trkpt lat="45.19821" lon="5.72327">
        <ele>412.79998779297</ele>
        <time>2021-09-12T03:55:35.000Z</time>
      </trkpt>
      <trkpt lat="45.19821" lon="5.72329">
        <ele>413.39999389648</ele>
        <time>2021-09-12T03:55:36.000Z</time>
      </trkpt>
      <trkpt lat="45.19821" lon="5.7233">
        <ele>414</ele>
        <time>2021-09-12T03:55:37.000Z</time>
      </trkpt>
      <trkpt lat="45.19821" lon="5.72332">
        <ele>414.60000610352</ele>
        <time>2021-09-12T03:55:38.000Z</time>
      </trkpt>
      <trkpt lat="45.19821" lon="5.72333">
        <ele>415.39999389648</ele>
        <time>2021-09-12T03:55:40.000Z</time>
      </trkpt>
      <trkpt lat="45.1982" lon="5.72334">
        <ele>415.60000610352</ele>
        <time>2021-09-12T03:55:41.000Z</time>
      </trkpt>
      <trkpt lat="45.19821" lon="5.72335">
        <ele>416.20001220703</ele>
        <time>2021-09-12T03:55:42.000Z</time>
      </trkpt>
      <trkpt lat="45.1982" lon="5.7234">
        <ele>417.20001220703</ele>
        <time>2021-09-12T03:55:45.000Z</time>
      </trkpt>
      <trkpt lat="45.1982" lon="5.72341">
        <ele>417.39999389648</ele>
        <time>2021-09-12T03:55:46.000Z</time>
      </trkpt>
      <trkpt lat="45.19821" lon="5.72344">
        <ele>418.79998779297</ele>
        <time>2021-09-12T03:55:49.000Z</time>
      </trkpt>
      <trkpt lat="45.19822" lon="5.72349">
        <ele>420</ele>
        <time>2021-09-12T03:55:52.000Z</time>
      </trkpt>
      <trkpt lat="45.19823" lon="5.72354">
        <ele>421</ele>
        <time>2021-09-12T03:55:56.000Z</time>
      </trkpt>
      <trkpt lat="45.19823" lon="5.72357">
        <ele>421.20001220703</ele>
        <time>2021-09-12T03:55:57.000Z</time>
      </trkpt>
      <trkpt lat="45.19823" lon="5.72366">
        <ele>421.39999389648</ele>
        <time>2021-09-12T03:56:00.000Z</time>
      </trkpt>
      <trkpt lat="45.19822" lon="5.72371">
        <ele>421.60000610352</ele>
        <time>2021-09-12T03:56:02.000Z</time>
      </trkpt>
      <trkpt lat="45.19822" lon="5.72373">
        <ele>421.79998779297</ele>
        <time>2021-09-12T03:56:03.000Z</time>
      </trkpt>
      <trkpt lat="45.19822" lon="5.72376">
        <ele>422</ele>
        <time>2021-09-12T03:56:06.000Z</time>
      </trkpt>
      <trkpt lat="45.19822" lon="5.72374">
        <ele>422.20001220703</ele>
        <time>2021-09-12T03:56:07.000Z</time>
      </trkpt>
      <trkpt lat="45.19821" lon="5.72372">
        <ele>422.39999389648</ele>
        <time>2021-09-12T03:56:08.000Z</time>
      </trkpt>
      <trkpt lat="45.19822" lon="5.72371">
        <ele>423.39999389648</ele>
        <time>2021-09-12T03:56:10.000Z</time>
      </trkpt>
      <trkpt lat="45.19822" lon="5.72372">
        <ele>423.79998779297</ele>
        <time>2021-09-12T03:56:11.000Z</time>
      </trkpt>
      <trkpt lat="45.19823" lon="5.72372">
        <ele>424</ele>
        <time>2021-09-12T03:56:12.000Z</time>
      </trkpt>
      <trkpt lat="45.19823" lon="5.72371">
        <ele>425</ele>
        <time>2021-09-12T03:56:14.000Z</time>
      </trkpt>
      <trkpt lat="45.19824" lon="5.72371">
        <ele>425.60000610352</ele>
        <time>2021-09-12T03:56:15.000Z</time>
      </trkpt>
      <trkpt lat="45.19824" lon="5.72369">
        <ele>426</ele>
        <time>2021-09-12T03:56:16.000Z</time>
      </trkpt>
      <trkpt lat="45.19823" lon="5.72368">
        <ele>426.20001220703</ele>
        <time>2021-09-12T03:56:17.000Z</time>
      </trkpt>
      <trkpt lat="45.19823" lon="5.7237">
        <ele>427.20001220703</ele>
        <time>2021-09-12T03:56:20.000Z</time>
      </trkpt>
      <trkpt lat="45.19824" lon="5.72373">
        <ele>427.39999389648</ele>
        <time>2021-09-12T03:56:21.000Z</time>
      </trkpt>
      <trkpt lat="45.19825" lon="5.72379">
        <ele>428.20001220703</ele>
        <time>2021-09-12T03:56:24.000Z</time>
      </trkpt>
      <trkpt lat="45.19826" lon="5.72381">
        <ele>428.39999389648</ele>
        <time>2021-09-12T03:56:25.000Z</time>
      </trkpt>
      <trkpt lat="45.19828" lon="5.72384">
        <ele>428.60000610352</ele>
        <time>2021-09-12T03:56:27.000Z</time>
      </trkpt>
      <trkpt lat="45.1983" lon="5.72387">
        <ele>429.39999389648</ele>
        <time>2021-09-12T03:56:30.000Z</time>
      </trkpt>
      <trkpt lat="45.19831" lon="5.72389">
        <ele>429.79998779297</ele>
        <time>2021-09-12T03:56:32.000Z</time>
      </trkpt>
      <trkpt lat="45.19833" lon="5.72387">
        <ele>430.20001220703</ele>
        <time>2021-09-12T03:56:34.000Z</time>
      </trkpt>
      <trkpt lat="45.19834" lon="5.72389">
        <ele>430.39999389648</ele>
        <time>2021-09-12T03:56:37.000Z</time>
      </trkpt>
      <trkpt lat="45.19835" lon="5.72391">
        <ele>430.79998779297</ele>
        <time>2021-09-12T03:56:38.000Z</time>
      </trkpt>
      <trkpt lat="45.19835" lon="5.72392">
        <ele>431.39999389648</ele>
        <time>2021-09-12T03:56:39.000Z</time>
      </trkpt>
      <trkpt lat="45.19836" lon="5.72393">
        <ele>432</ele>
        <time>2021-09-12T03:56:40.000Z</time>
      </trkpt>
      <trkpt lat="45.19837" lon="5.72395">
        <ele>432.39999389648</ele>
        <time>2021-09-12T03:56:41.000Z</time>
      </trkpt>
      <trkpt lat="45.19839" lon="5.72393">
        <ele>432.79998779297</ele>
        <time>2021-09-12T03:56:43.000Z</time>
      </trkpt>
      <trkpt lat="45.1984" lon="5.72392">
        <ele>433</ele>
        <time>2021-09-12T03:56:44.000Z</time>
      </trkpt>
      <trkpt lat="45.19841" lon="5.72392">
        <ele>433.20001220703</ele>
        <time>2021-09-12T03:56:45.000Z</time>
      </trkpt>
      <trkpt lat="45.19844" lon="5.72394">
        <ele>433.39999389648</ele>
        <time>2021-09-12T03:56:47.000Z</time>
      </trkpt>
      <trkpt lat="45.19844" lon="5.72403">
        <ele>433.60000610352</ele>
        <time>2021-09-12T03:56:49.000Z</time>
      </trkpt>
      <trkpt lat="45.19843" lon="5.72408">
        <ele>434.39999389648</ele>
        <time>2021-09-12T03:56:51.000Z</time>
      </trkpt>
      <trkpt lat="45.19844" lon="5.72414">
        <ele>435.79998779297</ele>
        <time>2021-09-12T03:56:54.000Z</time>
      </trkpt>
      <trkpt lat="45.19845" lon="5.7242">
        <ele>437</ele>
        <time>2021-09-12T03:56:59.000Z</time>
      </trkpt>
      <trkpt lat="45.19845" lon="5.72419">
        <ele>437.79998779297</ele>
        <time>2021-09-12T03:57:01.000Z</time>
      </trkpt>
      <trkpt lat="45.19845" lon="5.72419">
        <ele>438.20001220703</ele>
        <time>2021-09-12T03:57:02.000Z</time>
      </trkpt>
      <trkpt lat="45.19844" lon="5.72424">
        <ele>439</ele>
        <time>2021-09-12T03:57:04.000Z</time>
      </trkpt>
      <trkpt lat="45.19844" lon="5.72427">
        <ele>439.39999389648</ele>
        <time>2021-09-12T03:57:05.000Z</time>
      </trkpt>
      <trkpt lat="45.19843" lon="5.72431">
        <ele>440.20001220703</ele>
        <time>2021-09-12T03:57:08.000Z</time>
      </trkpt>
      <trkpt lat="45.19843" lon="5.72431">
        <ele>440.79998779297</ele>
        <time>2021-09-12T03:57:09.000Z</time>
      </trkpt>
      <trkpt lat="45.19843" lon="5.72435">
        <ele>442</ele>
        <time>2021-09-12T03:57:11.000Z</time>
      </trkpt>
      <trkpt lat="45.19845" lon="5.72434">
        <ele>443.39999389648</ele>
        <time>2021-09-12T03:57:14.000Z</time>
      </trkpt>
      <trkpt lat="45.19846" lon="5.72428">
        <ele>444.60000610352</ele>
        <time>2021-09-12T03:57:18.000Z</time>
      </trkpt>
      <trkpt lat="45.19846" lon="5.72424">
        <ele>445.60000610352</ele>
        <time>2021-09-12T03:57:20.000Z</time>
      </trkpt>
      <trkpt lat="45.19846" lon="5.72422">
        <ele>446</ele>
        <time>2021-09-12T03:57:21.000Z</time>
      </trkpt>
      <trkpt lat="45.19848" lon="5.72423">
        <ele>447.39999389648</ele>
        <time>2021-09-12T03:57:25.000Z</time>
      </trkpt>
      <trkpt lat="45.19848" lon="5.72421">
        <ele>448.39999389648</ele>
        <time>2021-09-12T03:57:29.000Z</time>
      </trkpt>
      <trkpt lat="45.19848" lon="5.72423">
        <ele>448.60000610352</ele>
        <time>2021-09-12T03:57:30.000Z</time>
      </trkpt>
      <trkpt lat="45.19847" lon="5.72425">
        <ele>449.20001220703</ele>
        <time>2021-09-12T03:57:32.000Z</time>
      </trkpt>
      <trkpt lat="45.19847" lon="5.72426">
        <ele>449.60000610352</ele>
        <time>2021-09-12T03:57:33.000Z</time>
      </trkpt>
      <trkpt lat="45.19846" lon="5.72426">
        <ele>450.20001220703</ele>
        <time>2021-09-12T03:57:34.000Z</time>
      </trkpt>
      <trkpt lat="45.19846" lon="5.72427">
        <ele>450.60000610352</ele>
        <time>2021-09-12T03:57:35.000Z</time>
      </trkpt>
      <trkpt lat="45.19846" lon="5.72428">
        <ele>450.79998779297</ele>
        <time>2021-09-12T03:57:36.000Z</time>
      </trkpt>
      <trkpt lat="45.19846" lon="5.7243">
        <ele>451.39999389648</ele>
        <time>2021-09-12T03:57:38.000Z</time>
      </trkpt>
      <trkpt lat="45.19847" lon="5.72429">
        <ele>452.20001220703</ele>
        <time>2021-09-12T03:57:40.000Z</time>
      </trkpt>
      <trkpt lat="45.19848" lon="5.7243">
        <ele>453</ele>
        <time>2021-09-12T03:57:42.000Z</time>
      </trkpt>
      <trkpt lat="45.19848" lon="5.72433">
        <ele>453.20001220703</ele>
        <time>2021-09-12T03:57:43.000Z</time>
      </trkpt>
      <trkpt lat="45.19849" lon="5.72437">
        <ele>454.20001220703</ele>
        <time>2021-09-12T03:57:45.000Z</time>
      </trkpt>
      <trkpt lat="45.19849" lon="5.72437">
        <ele>454.39999389648</ele>
        <time>2021-09-12T03:57:46.000Z</time>
      </trkpt>
      <trkpt lat="45.19849" lon="5.72436">
        <ele>454.79998779297</ele>
        <time>2021-09-12T03:57:47.000Z</time>
      </trkpt>
      <trkpt lat="45.1985" lon="5.72436">
        <ele>455.60000610352</ele>
        <time>2021-09-12T03:57:50.000Z</time>
      </trkpt>
      <trkpt lat="45.1985" lon="5.72437">
        <ele>456</ele>
        <time>2021-09-12T03:57:51.000Z</time>
      </trkpt>
      <trkpt lat="45.1985" lon="5.72439">
        <ele>456.79998779297</ele>
        <time>2021-09-12T03:57:53.000Z</time>
      </trkpt>
      <trkpt lat="45.1985" lon="5.72446">
        <ele>457.20001220703</ele>
        <time>2021-09-12T03:57:57.000Z</time>
      </trkpt>
      <trkpt lat="45.19852" lon="5.72454">
        <ele>457.79998779297</ele>
        <time>2021-09-12T03:58:02.000Z</time>
      </trkpt>
      <trkpt lat="45.19853" lon="5.72457">
        <ele>458</ele>
        <time>2021-09-12T03:58:03.000Z</time>
      </trkpt>
      <trkpt lat="45.19854" lon="5.72469">
        <ele>459</ele>
        <time>2021-09-12T03:58:08.000Z</time>
      </trkpt>
      <trkpt lat="45.19854" lon="5.72471">
        <ele>459.20001220703</ele>
        <time>2021-09-12T03:58:09.000Z</time>
      </trkpt>
      <trkpt lat="45.19852" lon="5.72485">
        <ele>460.20001220703</ele>
        <time>2021-09-12T03:58:14.000Z</time>
      </trkpt>
      <trkpt lat="45.1985" lon="5.72491">
        <ele>460.60000610352</ele>
        <time>2021-09-12T03:58:16.000Z</time>
      </trkpt>
      <trkpt lat="45.19849" lon="5.72499">
        <ele>461.20001220703</ele>
        <time>2021-09-12T03:58:19.000Z</time>
      </trkpt>
      <trkpt lat="45.19849" lon="5.72509">
        <ele>461.79998779297</ele>
        <time>2021-09-12T03:58:22.000Z</time>
      </trkpt>
      <trkpt lat="45.19849" lon="5.72512">
        <ele>461.79998779297</ele>
        <time>2021-09-12T03:58:23.000Z</time>
      </trkpt>
      <trkpt lat="45.1985" lon="5.72519">
        <ele>462.20001220703</ele>
        <time>2021-09-12T03:58:26.000Z</time>
      </trkpt>
      <trkpt lat="45.19851" lon="5.7253">
        <ele>463.39999389648</ele>
        <time>2021-09-12T03:58:31.000Z</time>
      </trkpt>
      <trkpt lat="45.19854" lon="5.72553">
        <ele>464.60000610352</ele>
        <time>2021-09-12T03:58:39.000Z</time>
      </trkpt>
      <trkpt lat="45.19856" lon="5.72563">
        <ele>465.39999389648</ele>
        <time>2021-09-12T03:58:44.000Z</time>
      </trkpt>
      <trkpt lat="45.19857" lon="5.72562">
        <ele>465.60000610352</ele>
        <time>2021-09-12T03:58:45.000Z</time>
      </trkpt>
      <trkpt lat="45.19858" lon="5.7256">
        <ele>465.60000610352</ele>
        <time>2021-09-12T03:58:46.000Z</time>
      </trkpt>
      <trkpt lat="45.19858" lon="5.72559">
        <ele>465.79998779297</ele>
        <time>2021-09-12T03:58:47.000Z</time>
      </trkpt>
      <trkpt lat="45.19856" lon="5.72554">
        <ele>465.79998779297</ele>
        <time>2021-09-12T03:58:49.000Z</time>
      </trkpt>
      <trkpt lat="45.19854" lon="5.72545">
        <ele>466.60000610352</ele>
        <time>2021-09-12T03:58:53.000Z</time>
      </trkpt>
      <trkpt lat="45.19851" lon="5.72536">
        <ele>467.39999389648</ele>
        <time>2021-09-12T03:58:57.000Z</time>
      </trkpt>
      <trkpt lat="45.1985" lon="5.72534">
        <ele>467.60000610352</ele>
        <time>2021-09-12T03:58:58.000Z</time>
      </trkpt>
      <trkpt lat="45.1985" lon="5.72514">
        <ele>468.60000610352</ele>
        <time>2021-09-12T03:59:04.000Z</time>
      </trkpt>
      <trkpt lat="45.19851" lon="5.72508">
        <ele>468.79998779297</ele>
        <time>2021-09-12T03:59:05.000Z</time>
      </trkpt>
      <trkpt lat="45.19854" lon="5.72497">
        <ele>469</ele>
        <time>2021-09-12T03:59:08.000Z</time>
      </trkpt>
      <trkpt lat="45.19856" lon="5.72495">
        <ele>469.20001220703</ele>
        <time>2021-09-12T03:59:09.000Z</time>
      </trkpt>
      <trkpt lat="45.19858" lon="5.72491">
        <ele>469.79998779297</ele>
        <time>2021-09-12T03:59:12.000Z</time>
      </trkpt>
      <trkpt lat="45.19859" lon="5.7249">
        <ele>470</ele>
        <time>2021-09-12T03:59:13.000Z</time>
      </trkpt>
      <trkpt lat="45.1986" lon="5.72489">
        <ele>470.39999389648</ele>
        <time>2021-09-12T03:59:14.000Z</time>
      </trkpt>
      <trkpt lat="45.19862" lon="5.72485">
        <ele>471</ele>
        <time>2021-09-12T03:59:16.000Z</time>
      </trkpt>
      <trkpt lat="45.19863" lon="5.72481">
        <ele>471.79998779297</ele>
        <time>2021-09-12T03:59:18.000Z</time>
      </trkpt>
      <trkpt lat="45.19863" lon="5.7248">
        <ele>472.39999389648</ele>
        <time>2021-09-12T03:59:19.000Z</time>
      </trkpt>
      <trkpt lat="45.19864" lon="5.72479">
        <ele>473.39999389648</ele>
        <time>2021-09-12T03:59:21.000Z</time>
      </trkpt>
      <trkpt lat="45.19866" lon="5.72477">
        <ele>474.39999389648</ele>
        <time>2021-09-12T03:59:23.000Z</time>
      </trkpt>
      <trkpt lat="45.19868" lon="5.72476">
        <ele>474.79998779297</ele>
        <time>2021-09-12T03:59:24.000Z</time>
      </trkpt>
      <trkpt lat="45.19871" lon="5.72474">
        <ele>475.20001220703</ele>
        <time>2021-09-12T03:59:26.000Z</time>
      </trkpt>
      <trkpt lat="45.19873" lon="5.72474">
        <ele>475.79998779297</ele>
        <time>2021-09-12T03:59:29.000Z</time>
      </trkpt>
      <trkpt lat="45.19874" lon="5.72474">
        <ele>476.39999389648</ele>
        <time>2021-09-12T03:59:30.000Z</time>
      </trkpt>
      <trkpt lat="45.19875" lon="5.72474">
        <ele>477</ele>
        <time>2021-09-12T03:59:31.000Z</time>
      </trkpt>
      <trkpt lat="45.19876" lon="5.72475">
        <ele>477.39999389648</ele>
        <time>2021-09-12T03:59:32.000Z</time>
      </trkpt>
      <trkpt lat="45.19877" lon="5.72476">
        <ele>477.60000610352</ele>
        <time>2021-09-12T03:59:33.000Z</time>
      </trkpt>
      <trkpt lat="45.19878" lon="5.72477">
        <ele>478</ele>
        <time>2021-09-12T03:59:34.000Z</time>
      </trkpt>
      <trkpt lat="45.19879" lon="5.72483">
        <ele>479</ele>
        <time>2021-09-12T03:59:37.000Z</time>
      </trkpt>
      <trkpt lat="45.19879" lon="5.72487">
        <ele>479.20001220703</ele>
        <time>2021-09-12T03:59:38.000Z</time>
      </trkpt>
      <trkpt lat="45.19885" lon="5.72515">
        <ele>479.39999389648</ele>
        <time>2021-09-12T03:59:45.000Z</time>
      </trkpt>
      <trkpt lat="45.19892" lon="5.72534">
        <ele>479.20001220703</ele>
        <time>2021-09-12T03:59:52.000Z</time>
      </trkpt>
      <trkpt lat="45.19893" lon="5.72539">
        <ele>480.39999389648</ele>
        <time>2021-09-12T03:59:56.000Z</time>
      </trkpt>
      <trkpt lat="45.19894" lon="5.7254">
        <ele>480.79998779297</ele>
        <time>2021-09-12T03:59:57.000Z</time>
      </trkpt>
      <trkpt lat="45.19895" lon="5.72541">
        <ele>481</ele>
        <time>2021-09-12T03:59:58.000Z</time>
      </trkpt>
      <trkpt lat="45.19894" lon="5.72542">
        <ele>481.60000610352</ele>
        <time>2021-09-12T03:59:59.000Z</time>
      </trkpt>
      <trkpt lat="45.19892" lon="5.72545">
        <ele>482.39999389648</ele>
        <time>2021-09-12T04:00:02.000Z</time>
      </trkpt>
      <trkpt lat="45.19891" lon="5.72546">
        <ele>482.79998779297</ele>
        <time>2021-09-12T04:00:03.000Z</time>
      </trkpt>
      <trkpt lat="45.19891" lon="5.72546">
        <ele>483.20001220703</ele>
        <time>2021-09-12T04:00:04.000Z</time>
      </trkpt>
      <trkpt lat="45.19889" lon="5.72548">
        <ele>484</ele>
        <time>2021-09-12T04:00:06.000Z</time>
      </trkpt>
      <trkpt lat="45.19888" lon="5.72549">
        <ele>484.20001220703</ele>
        <time>2021-09-12T04:00:07.000Z</time>
      </trkpt>
      <trkpt lat="45.19887" lon="5.72553">
        <ele>484.60000610352</ele>
        <time>2021-09-12T04:00:09.000Z</time>
      </trkpt>
      <trkpt lat="45.19887" lon="5.72559">
        <ele>484.60000610352</ele>
        <time>2021-09-12T04:00:11.000Z</time>
      </trkpt>
      <trkpt lat="45.19885" lon="5.72561">
        <ele>484.60000610352</ele>
        <time>2021-09-12T04:00:12.000Z</time>
      </trkpt>
      <trkpt lat="45.19881" lon="5.72563">
        <ele>484.60000610352</ele>
        <time>2021-09-12T04:00:14.000Z</time>
      </trkpt>
      <trkpt lat="45.19879" lon="5.72561">
        <ele>484.39999389648</ele>
        <time>2021-09-12T04:00:16.000Z</time>
      </trkpt>
      <trkpt lat="45.19874" lon="5.7254">
        <ele>484.60000610352</ele>
        <time>2021-09-12T04:00:24.000Z</time>
      </trkpt>
      <trkpt lat="45.19869" lon="5.72519">
        <ele>484.60000610352</ele>
        <time>2021-09-12T04:00:31.000Z</time>
      </trkpt>
      <trkpt lat="45.19869" lon="5.72507">
        <ele>484.39999389648</ele>
        <time>2021-09-12T04:00:35.000Z</time>
      </trkpt>
      <trkpt lat="45.19873" lon="5.72504">
        <ele>484.79998779297</ele>
        <time>2021-09-12T04:00:37.000Z</time>
      </trkpt>
      <trkpt lat="45.19874" lon="5.72505">
        <ele>484.79998779297</ele>
        <time>2021-09-12T04:00:38.000Z</time>
      </trkpt>
      <trkpt lat="45.19876" lon="5.7251">
        <ele>484.79998779297</ele>
        <time>2021-09-12T04:00:40.000Z</time>
      </trkpt>
      <trkpt lat="45.19878" lon="5.72528">
        <ele>484.60000610352</ele>
        <time>2021-09-12T04:00:45.000Z</time>
      </trkpt>
      <trkpt lat="45.19878" lon="5.72542">
        <ele>484.39999389648</ele>
        <time>2021-09-12T04:00:49.000Z</time>
      </trkpt>
      <trkpt lat="45.19879" lon="5.72545">
        <ele>484.39999389648</ele>
        <time>2021-09-12T04:00:50.000Z</time>
      </trkpt>
      <trkpt lat="45.19879" lon="5.72546">
        <ele>484.39999389648</ele>
        <time>2021-09-12T04:00:51.000Z</time>
      </trkpt>
      <trkpt lat="45.19879" lon="5.72547">
        <ele>484.39999389648</ele>
        <time>2021-09-12T04:00:52.000Z</time>
      </trkpt>
      <trkpt lat="45.1988" lon="5.72547">
        <ele>484.39999389648</ele>
        <time>2021-09-12T04:00:53.000Z</time>
      </trkpt>
      <trkpt lat="45.1988" lon="5.72546">
        <ele>484.20001220703</ele>
        <time>2021-09-12T04:00:54.000Z</time>
      </trkpt>
      <trkpt lat="45.1988" lon="5.72544">
        <ele>484</ele>
        <time>2021-09-12T04:00:56.000Z</time>
      </trkpt>
      <trkpt lat="45.19882" lon="5.7254">
        <ele>482.79998779297</ele>
        <time>2021-09-12T04:00:59.000Z</time>
      </trkpt>
      <trkpt lat="45.19884" lon="5.72537">
        <ele>482.20001220703</ele>
        <time>2021-09-12T04:01:01.000Z</time>
      </trkpt>
      <trkpt lat="45.19884" lon="5.72536">
        <ele>481.60000610352</ele>
        <time>2021-09-12T04:01:02.000Z</time>
      </trkpt>
      <trkpt lat="45.19883" lon="5.72534">
        <ele>480.79998779297</ele>
        <time>2021-09-12T04:01:04.000Z</time>
      </trkpt>
      <trkpt lat="45.19883" lon="5.72532">
        <ele>479.20001220703</ele>
        <time>2021-09-12T04:01:05.000Z</time>
      </trkpt>
      <trkpt lat="45.19885" lon="5.72523">
        <ele>479.39999389648</ele>
        <time>2021-09-12T04:01:09.000Z</time>
      </trkpt>
      <trkpt lat="45.19885" lon="5.72521">
        <ele>479.39999389648</ele>
        <time>2021-09-12T04:01:10.000Z</time>
      </trkpt>
      <trkpt lat="45.19886" lon="5.72513">
        <ele>479.39999389648</ele>
        <time>2021-09-12T04:01:13.000Z</time>
      </trkpt>
      <trkpt lat="45.19885" lon="5.72507">
        <ele>479.39999389648</ele>
        <time>2021-09-12T04:01:15.000Z</time>
      </trkpt>
      <trkpt lat="45.1988" lon="5.72493">
        <ele>479.20001220703</ele>
        <time>2021-09-12T04:01:21.000Z</time>
      </trkpt>
      <trkpt lat="45.19879" lon="5.72492">
        <ele>479</ele>
        <time>2021-09-12T04:01:23.000Z</time>
      </trkpt>
      <trkpt lat="45.19877" lon="5.72492">
        <ele>478</ele>
        <time>2021-09-12T04:01:26.000Z</time>
      </trkpt>
      <trkpt lat="45.19876" lon="5.72492">
        <ele>477.60000610352</ele>
        <time>2021-09-12T04:01:27.000Z</time>
      </trkpt>
      <trkpt lat="45.19875" lon="5.72491">
        <ele>477</ele>
        <time>2021-09-12T04:01:28.000Z</time>
      </trkpt>
      <trkpt lat="45.19873" lon="5.72491">
        <ele>476.39999389648</ele>
        <time>2021-09-12T04:01:30.000Z</time>
      </trkpt>
      <trkpt lat="45.19871" lon="5.7249">
        <ele>475.79998779297</ele>
        <time>2021-09-12T04:01:32.000Z</time>
      </trkpt>
      <trkpt lat="45.19869" lon="5.72489">
        <ele>475.60000610352</ele>
        <time>2021-09-12T04:01:33.000Z</time>
      </trkpt>
      <trkpt lat="45.19867" lon="5.72488">
        <ele>474.79998779297</ele>
        <time>2021-09-12T04:01:35.000Z</time>
      </trkpt>
      <trkpt lat="45.19865" lon="5.72486">
        <ele>473.79998779297</ele>
        <time>2021-09-12T04:01:38.000Z</time>
      </trkpt>
      <trkpt lat="45.19864" lon="5.72485">
        <ele>473.20001220703</ele>
        <time>2021-09-12T04:01:39.000Z</time>
      </trkpt>
      <trkpt lat="45.19863" lon="5.72484">
        <ele>472.20001220703</ele>
        <time>2021-09-12T04:01:40.000Z</time>
      </trkpt>
      <trkpt lat="45.19862" lon="5.72483">
        <ele>471.39999389648</ele>
        <time>2021-09-12T04:01:41.000Z</time>
      </trkpt>
      <trkpt lat="45.1986" lon="5.72483">
        <ele>471</ele>
        <time>2021-09-12T04:01:42.000Z</time>
      </trkpt>
      <trkpt lat="45.19861" lon="5.7248">
        <ele>470.20001220703</ele>
        <time>2021-09-12T04:01:44.000Z</time>
      </trkpt>
      <trkpt lat="45.19863" lon="5.72478">
        <ele>470</ele>
        <time>2021-09-12T04:01:45.000Z</time>
      </trkpt>
      <trkpt lat="45.1987" lon="5.72475">
        <ele>470</ele>
        <time>2021-09-12T04:01:49.000Z</time>
      </trkpt>
      <trkpt lat="45.19873" lon="5.72474">
        <ele>470</ele>
        <time>2021-09-12T04:01:50.000Z</time>
      </trkpt>
      <trkpt lat="45.19882" lon="5.72473">
        <ele>470.39999389648</ele>
        <time>2021-09-12T04:01:54.000Z</time>
      </trkpt>
      <trkpt lat="45.19883" lon="5.72471">
        <ele>470.60000610352</ele>
        <time>2021-09-12T04:01:55.000Z</time>
      </trkpt>
      <trkpt lat="45.19885" lon="5.7247">
        <ele>470.60000610352</ele>
        <time>2021-09-12T04:01:56.000Z</time>
      </trkpt>
      <trkpt lat="45.19888" lon="5.72414">
        <ele>470.20001220703</ele>
        <time>2021-09-12T04:02:10.000Z</time>
      </trkpt>
      <trkpt lat="45.19889" lon="5.72412">
        <ele>470</ele>
        <time>2021-09-12T04:02:11.000Z</time>
      </trkpt>
      <trkpt lat="45.19898" lon="5.72414">
        <ele>469.20001220703</ele>
        <time>2021-09-12T04:02:14.000Z</time>
      </trkpt>
      <trkpt lat="45.199" lon="5.72411">
        <ele>469</ele>
        <time>2021-09-12T04:02:15.000Z</time>
      </trkpt>
      <trkpt lat="45.19903" lon="5.72411">
        <ele>468.79998779297</ele>
        <time>2021-09-12T04:02:16.000Z</time>
      </trkpt>
      <trkpt lat="45.19911" lon="5.72394">
        <ele>468</ele>
        <time>2021-09-12T04:02:20.000Z</time>
      </trkpt>
      <trkpt lat="45.19913" lon="5.72396">
        <ele>467.79998779297</ele>
        <time>2021-09-12T04:02:21.000Z</time>
      </trkpt>
      <trkpt lat="45.1992" lon="5.72398">
        <ele>467.39999389648</ele>
        <time>2021-09-12T04:02:23.000Z</time>
      </trkpt>
      <trkpt lat="45.19922" lon="5.72395">
        <ele>467</ele>
        <time>2021-09-12T04:02:24.000Z</time>
      </trkpt>
      <trkpt lat="45.19925" lon="5.72397">
        <ele>466.79998779297</ele>
        <time>2021-09-12T04:02:25.000Z</time>
      </trkpt>
      <trkpt lat="45.19928" lon="5.72396">
        <ele>466.60000610352</ele>
        <time>2021-09-12T04:02:26.000Z</time>
      </trkpt>
      <trkpt lat="45.19936" lon="5.72405">
        <ele>466.39999389648</ele>
        <time>2021-09-12T04:02:29.000Z</time>
      </trkpt>
      <trkpt lat="45.19956" lon="5.72412">
        <ele>466.60000610352</ele>
        <time>2021-09-12T04:02:36.000Z</time>
      </trkpt>
      <trkpt lat="45.19961" lon="5.72414">
        <ele>466.79998779297</ele>
        <time>2021-09-12T04:02:38.000Z</time>
      </trkpt>
      <trkpt lat="45.19976" lon="5.72414">
        <ele>468</ele>
        <time>2021-09-12T04:02:45.000Z</time>
      </trkpt>
      <trkpt lat="45.19978" lon="5.72415">
        <ele>468</ele>
        <time>2021-09-12T04:02:46.000Z</time>
      </trkpt>
      <trkpt lat="45.19984" lon="5.72416">
        <ele>469</ele>
        <time>2021-09-12T04:02:49.000Z</time>
      </trkpt>
      <trkpt lat="45.19994" lon="5.72417">
        <ele>470</ele>
        <time>2021-09-12T04:02:54.000Z</time>
      </trkpt>
      <trkpt lat="45.19996" lon="5.72417">
        <ele>470.20001220703</ele>
        <time>2021-09-12T04:02:55.000Z</time>
      </trkpt>
      <trkpt lat="45.19998" lon="5.72418">
        <ele>470.39999389648</ele>
        <time>2021-09-12T04:02:56.000Z</time>
      </trkpt>
      <trkpt lat="45.20003" lon="5.72419">
        <ele>471.20001220703</ele>
        <time>2021-09-12T04:02:59.000Z</time>
      </trkpt>
      <trkpt lat="45.20008" lon="5.7242">
        <ele>472.20001220703</ele>
        <time>2021-09-12T04:03:02.000Z</time>
      </trkpt>
      <trkpt lat="45.20012" lon="5.72421">
        <ele>472.39999389648</ele>
        <time>2021-09-12T04:03:04.000Z</time>
      </trkpt>
      <trkpt lat="45.20022" lon="5.72423">
        <ele>473.20001220703</ele>
        <time>2021-09-12T04:03:09.000Z</time>
      </trkpt>
      <trkpt lat="45.20024" lon="5.72423">
        <ele>473.60000610352</ele>
        <time>2021-09-12T04:03:10.000Z</time>
      </trkpt>
      <trkpt lat="45.20032" lon="5.72425">
        <ele>474.60000610352</ele>
        <time>2021-09-12T04:03:14.000Z</time>
      </trkpt>
      <trkpt lat="45.20037" lon="5.72425">
        <ele>474.79998779297</ele>
        <time>2021-09-12T04:03:16.000Z</time>
      </trkpt>
      <trkpt lat="45.20048" lon="5.72425">
        <ele>475.60000610352</ele>
        <time>2021-09-12T04:03:22.000Z</time>
      </trkpt>
      <trkpt lat="45.2005" lon="5.72425">
        <ele>475.79998779297</ele>
        <time>2021-09-12T04:03:23.000Z</time>
      </trkpt>
      <trkpt lat="45.20053" lon="5.72425">
        <ele>476.39999389648</ele>
        <time>2021-09-12T04:03:25.000Z</time>
      </trkpt>
      <trkpt lat="45.20058" lon="5.72425">
        <ele>477</ele>
        <time>2021-09-12T04:03:28.000Z</time>
      </trkpt>
      <trkpt lat="45.20066" lon="5.72428">
        <ele>478.20001220703</ele>
        <time>2021-09-12T04:03:33.000Z</time>
      </trkpt>
      <trkpt lat="45.20068" lon="5.72429">
        <ele>478.39999389648</ele>
        <time>2021-09-12T04:03:34.000Z</time>
      </trkpt>
      <trkpt lat="45.20069" lon="5.7243">
        <ele>478.60000610352</ele>
        <time>2021-09-12T04:03:35.000Z</time>
      </trkpt>
      <trkpt lat="45.20072" lon="5.72436">
        <ele>479.60000610352</ele>
        <time>2021-09-12T04:03:38.000Z</time>
      </trkpt>
      <trkpt lat="45.20074" lon="5.72445">
        <ele>480</ele>
        <time>2021-09-12T04:03:41.000Z</time>
      </trkpt>
      <trkpt lat="45.20074" lon="5.72451">
        <ele>480.60000610352</ele>
        <time>2021-09-12T04:03:43.000Z</time>
      </trkpt>
      <trkpt lat="45.20075" lon="5.72454">
        <ele>480.60000610352</ele>
        <time>2021-09-12T04:03:44.000Z</time>
      </trkpt>
      <trkpt lat="45.20078" lon="5.7246">
        <ele>481</ele>
        <time>2021-09-12T04:03:46.000Z</time>
      </trkpt>
      <trkpt lat="45.20079" lon="5.72462">
        <ele>481.20001220703</ele>
        <time>2021-09-12T04:03:47.000Z</time>
      </trkpt>
      <trkpt lat="45.20079" lon="5.72465">
        <ele>481.20001220703</ele>
        <time>2021-09-12T04:03:48.000Z</time>
      </trkpt>
      <trkpt lat="45.2008" lon="5.72471">
        <ele>481.60000610352</ele>
        <time>2021-09-12T04:03:50.000Z</time>
      </trkpt>
      <trkpt lat="45.2008" lon="5.72474">
        <ele>481.60000610352</ele>
        <time>2021-09-12T04:03:51.000Z</time>
      </trkpt>
      <trkpt lat="45.2008" lon="5.72492">
        <ele>482.60000610352</ele>
        <time>2021-09-12T04:03:56.000Z</time>
      </trkpt>
      <trkpt lat="45.20079" lon="5.72499">
        <ele>483</ele>
        <time>2021-09-12T04:03:58.000Z</time>
      </trkpt>
      <trkpt lat="45.20075" lon="5.72516">
        <ele>483.79998779297</ele>
        <time>2021-09-12T04:04:03.000Z</time>
      </trkpt>
      <trkpt lat="45.20075" lon="5.72525">
        <ele>484</ele>
        <time>2021-09-12T04:04:06.000Z</time>
      </trkpt>
      <trkpt lat="45.20076" lon="5.72528">
        <ele>484</ele>
        <time>2021-09-12T04:04:07.000Z</time>
      </trkpt>
      <trkpt lat="45.20084" lon="5.72541">
        <ele>484.39999389648</ele>
        <time>2021-09-12T04:04:13.000Z</time>
      </trkpt>
      <trkpt lat="45.20087" lon="5.72541">
        <ele>484.79998779297</ele>
        <time>2021-09-12T04:04:15.000Z</time>
      </trkpt>
      <trkpt lat="45.20094" lon="5.72541">
        <ele>485.20001220703</ele>
        <time>2021-09-12T04:04:19.000Z</time>
      </trkpt>
      <trkpt lat="45.20096" lon="5.72541">
        <ele>485.39999389648</ele>
        <time>2021-09-12T04:04:20.000Z</time>
      </trkpt>
      <trkpt lat="45.20098" lon="5.72541">
        <ele>485.79998779297</ele>
        <time>2021-09-12T04:04:21.000Z</time>
      </trkpt>
      <trkpt lat="45.20099" lon="5.72541">
        <ele>486</ele>
        <time>2021-09-12T04:04:22.000Z</time>
      </trkpt>
      <trkpt lat="45.20102" lon="5.72541">
        <ele>486.79998779297</ele>
        <time>2021-09-12T04:04:24.000Z</time>
      </trkpt>
      <trkpt lat="45.20104" lon="5.72541">
        <ele>487.39999389648</ele>
        <time>2021-09-12T04:04:25.000Z</time>
      </trkpt>
      <trkpt lat="45.20105" lon="5.7254">
        <ele>487.60000610352</ele>
        <time>2021-09-12T04:04:26.000Z</time>
      </trkpt>
      <trkpt lat="45.20107" lon="5.72541">
        <ele>487.79998779297</ele>
        <time>2021-09-12T04:04:27.000Z</time>
      </trkpt>
      <trkpt lat="45.20108" lon="5.72542">
        <ele>488.39999389648</ele>
        <time>2021-09-12T04:04:28.000Z</time>
      </trkpt>
      <trkpt lat="45.20111" lon="5.72542">
        <ele>489.20001220703</ele>
        <time>2021-09-12T04:04:30.000Z</time>
      </trkpt>
      <trkpt lat="45.20113" lon="5.72542">
        <ele>489.60000610352</ele>
        <time>2021-09-12T04:04:31.000Z</time>
      </trkpt>
      <trkpt lat="45.20115" lon="5.72541">
        <ele>490</ele>
        <time>2021-09-12T04:04:33.000Z</time>
      </trkpt>
      <trkpt lat="45.20116" lon="5.7254">
        <ele>490.20001220703</ele>
        <time>2021-09-12T04:04:34.000Z</time>
      </trkpt>
      <trkpt lat="45.20117" lon="5.72539">
        <ele>490.60000610352</ele>
        <time>2021-09-12T04:04:35.000Z</time>
      </trkpt>
      <trkpt lat="45.2012" lon="5.72537">
        <ele>491</ele>
        <time>2021-09-12T04:04:38.000Z</time>
      </trkpt>
      <trkpt lat="45.20118" lon="5.72536">
        <ele>491.79998779297</ele>
        <time>2021-09-12T04:04:40.000Z</time>
      </trkpt>
      <trkpt lat="45.20116" lon="5.72536">
        <ele>492</ele>
        <time>2021-09-12T04:04:41.000Z</time>
      </trkpt>
      <trkpt lat="45.20111" lon="5.72532">
        <ele>493</ele>
        <time>2021-09-12T04:04:45.000Z</time>
      </trkpt>
      <trkpt lat="45.20109" lon="5.72529">
        <ele>493.39999389648</ele>
        <time>2021-09-12T04:04:47.000Z</time>
      </trkpt>
      <trkpt lat="45.20108" lon="5.72526">
        <ele>494.20001220703</ele>
        <time>2021-09-12T04:04:50.000Z</time>
      </trkpt>
      <trkpt lat="45.20107" lon="5.72523">
        <ele>494.60000610352</ele>
        <time>2021-09-12T04:04:52.000Z</time>
      </trkpt>
      <trkpt lat="45.20108" lon="5.72521">
        <ele>494.79998779297</ele>
        <time>2021-09-12T04:04:53.000Z</time>
      </trkpt>
      <trkpt lat="45.20109" lon="5.72514">
        <ele>495.39999389648</ele>
        <time>2021-09-12T04:04:56.000Z</time>
      </trkpt>
      <trkpt lat="45.20112" lon="5.72509">
        <ele>496.20001220703</ele>
        <time>2021-09-12T04:04:59.000Z</time>
      </trkpt>
      <trkpt lat="45.20113" lon="5.72508">
        <ele>496.60000610352</ele>
        <time>2021-09-12T04:05:00.000Z</time>
      </trkpt>
      <trkpt lat="45.20118" lon="5.72502">
        <ele>497.79998779297</ele>
        <time>2021-09-12T04:05:04.000Z</time>
      </trkpt>
      <trkpt lat="45.20121" lon="5.72496">
        <ele>498.79998779297</ele>
        <time>2021-09-12T04:05:08.000Z</time>
      </trkpt>
      <trkpt lat="45.20125" lon="5.72492">
        <ele>499.79998779297</ele>
        <time>2021-09-12T04:05:12.000Z</time>
      </trkpt>
      <trkpt lat="45.20128" lon="5.72486">
        <ele>500.60000610352</ele>
        <time>2021-09-12T04:05:16.000Z</time>
      </trkpt>
      <trkpt lat="45.20128" lon="5.72484">
        <ele>501</ele>
        <time>2021-09-12T04:05:17.000Z</time>
      </trkpt>
      <trkpt lat="45.20129" lon="5.72479">
        <ele>502.39999389648</ele>
        <time>2021-09-12T04:05:22.000Z</time>
      </trkpt>
      <trkpt lat="45.20129" lon="5.72478">
        <ele>503</ele>
        <time>2021-09-12T04:05:23.000Z</time>
      </trkpt>
      <trkpt lat="45.20129" lon="5.72477">
        <ele>503.60000610352</ele>
        <time>2021-09-12T04:05:24.000Z</time>
      </trkpt>
      <trkpt lat="45.20131" lon="5.72468">
        <ele>504.79998779297</ele>
        <time>2021-09-12T04:05:30.000Z</time>
      </trkpt>
      <trkpt lat="45.20133" lon="5.72466">
        <ele>505.60000610352</ele>
        <time>2021-09-12T04:05:32.000Z</time>
      </trkpt>
      <trkpt lat="45.20134" lon="5.72466">
        <ele>506</ele>
        <time>2021-09-12T04:05:33.000Z</time>
      </trkpt>
      <trkpt lat="45.20133" lon="5.72464">
        <ele>506.20001220703</ele>
        <time>2021-09-12T04:05:34.000Z</time>
      </trkpt>
      <trkpt lat="45.20133" lon="5.72463">
        <ele>506.39999389648</ele>
        <time>2021-09-12T04:05:35.000Z</time>
      </trkpt>
      <trkpt lat="45.20133" lon="5.72462">
        <ele>506.60000610352</ele>
        <time>2021-09-12T04:05:36.000Z</time>
      </trkpt>
      <trkpt lat="45.20134" lon="5.7246">
        <ele>507</ele>
        <time>2021-09-12T04:05:38.000Z</time>
      </trkpt>
      <trkpt lat="45.20135" lon="5.72459">
        <ele>507.39999389648</ele>
        <time>2021-09-12T04:05:39.000Z</time>
      </trkpt>
      <trkpt lat="45.20135" lon="5.72459">
        <ele>507.60000610352</ele>
        <time>2021-09-12T04:05:40.000Z</time>
      </trkpt>
      <trkpt lat="45.20136" lon="5.72458">
        <ele>508.20001220703</ele>
        <time>2021-09-12T04:05:41.000Z</time>
      </trkpt>
      <trkpt lat="45.20137" lon="5.72456">
        <ele>508.79998779297</ele>
        <time>2021-09-12T04:05:43.000Z</time>
      </trkpt>
      <trkpt lat="45.20139" lon="5.72453">
        <ele>509.20001220703</ele>
        <time>2021-09-12T04:05:45.000Z</time>
      </trkpt>
      <trkpt lat="45.20141" lon="5.72451">
        <ele>509.79998779297</ele>
        <time>2021-09-12T04:05:47.000Z</time>
      </trkpt>
      <trkpt lat="45.20142" lon="5.72452">
        <ele>510.20001220703</ele>
        <time>2021-09-12T04:05:48.000Z</time>
      </trkpt>
      <trkpt lat="45.20143" lon="5.72453">
        <ele>510.60000610352</ele>
        <time>2021-09-12T04:05:49.000Z</time>
      </trkpt>
      <trkpt lat="45.20144" lon="5.72454">
        <ele>510.79998779297</ele>
        <time>2021-09-12T04:05:50.000Z</time>
      </trkpt>
      <trkpt lat="45.20147" lon="5.72455">
        <ele>511.60000610352</ele>
        <time>2021-09-12T04:05:53.000Z</time>
      </trkpt>
      <trkpt lat="45.2015" lon="5.72456">
        <ele>513</ele>
        <time>2021-09-12T04:05:57.000Z</time>
      </trkpt>
      <trkpt lat="45.20151" lon="5.72458">
        <ele>513.79998779297</ele>
        <time>2021-09-12T04:06:00.000Z</time>
      </trkpt>
      <trkpt lat="45.20152" lon="5.72458">
        <ele>514</ele>
        <time>2021-09-12T04:06:01.000Z</time>
      </trkpt>
      <trkpt lat="45.20152" lon="5.7246">
        <ele>514.79998779297</ele>
        <time>2021-09-12T04:06:03.000Z</time>
      </trkpt>
      <trkpt lat="45.20153" lon="5.7246">
        <ele>515.20001220703</ele>
        <time>2021-09-12T04:06:04.000Z</time>
      </trkpt>
      <trkpt lat="45.20154" lon="5.72462">
        <ele>516.40002441406</ele>
        <time>2021-09-12T04:06:08.000Z</time>
      </trkpt>
      <trkpt lat="45.20155" lon="5.72463">
        <ele>516.59997558594</ele>
        <time>2021-09-12T04:06:09.000Z</time>
      </trkpt>
      <trkpt lat="45.20156" lon="5.72464">
        <ele>517.59997558594</ele>
        <time>2021-09-12T04:06:11.000Z</time>
      </trkpt>
      <trkpt lat="45.20159" lon="5.72464">
        <ele>518.59997558594</ele>
        <time>2021-09-12T04:06:15.000Z</time>
      </trkpt>
      <trkpt lat="45.20162" lon="5.72467">
        <ele>519.59997558594</ele>
        <time>2021-09-12T04:06:18.000Z</time>
      </trkpt>
      <trkpt lat="45.20163" lon="5.72467">
        <ele>519.79998779297</ele>
        <time>2021-09-12T04:06:19.000Z</time>
      </trkpt>
      <trkpt lat="45.20164" lon="5.72468">
        <ele>520.40002441406</ele>
        <time>2021-09-12T04:06:21.000Z</time>
      </trkpt>
      <trkpt lat="45.20165" lon="5.72469">
        <ele>521.20001220703</ele>
        <time>2021-09-12T04:06:23.000Z</time>
      </trkpt>
      <trkpt lat="45.20165" lon="5.72471">
        <ele>521.59997558594</ele>
        <time>2021-09-12T04:06:24.000Z</time>
      </trkpt>
      <trkpt lat="45.20167" lon="5.72476">
        <ele>522.40002441406</ele>
        <time>2021-09-12T04:06:27.000Z</time>
      </trkpt>
      <trkpt lat="45.2017" lon="5.72478">
        <ele>523.59997558594</ele>
        <time>2021-09-12T04:06:31.000Z</time>
      </trkpt>
      <trkpt lat="45.20172" lon="5.7248">
        <ele>524</ele>
        <time>2021-09-12T04:06:32.000Z</time>
      </trkpt>
      <trkpt lat="45.20173" lon="5.72483">
        <ele>524.20001220703</ele>
        <time>2021-09-12T04:06:33.000Z</time>
      </trkpt>
      <trkpt lat="45.20175" lon="5.72486">
        <ele>524.59997558594</ele>
        <time>2021-09-12T04:06:35.000Z</time>
      </trkpt>
      <trkpt lat="45.20178" lon="5.72487">
        <ele>525.40002441406</ele>
        <time>2021-09-12T04:06:38.000Z</time>
      </trkpt>
      <trkpt lat="45.2018" lon="5.72487">
        <ele>525.79998779297</ele>
        <time>2021-09-12T04:06:40.000Z</time>
      </trkpt>
      <trkpt lat="45.20183" lon="5.72491">
        <ele>526.40002441406</ele>
        <time>2021-09-12T04:06:43.000Z</time>
      </trkpt>
      <trkpt lat="45.20185" lon="5.72492">
        <ele>526.79998779297</ele>
        <time>2021-09-12T04:06:45.000Z</time>
      </trkpt>
      <trkpt lat="45.20187" lon="5.72497">
        <ele>527.59997558594</ele>
        <time>2021-09-12T04:06:49.000Z</time>
      </trkpt>
      <trkpt lat="45.2019" lon="5.72499">
        <ele>528</ele>
        <time>2021-09-12T04:06:52.000Z</time>
      </trkpt>
      <trkpt lat="45.20192" lon="5.72503">
        <ele>528.79998779297</ele>
        <time>2021-09-12T04:06:57.000Z</time>
      </trkpt>
      <trkpt lat="45.20193" lon="5.72503">
        <ele>529</ele>
        <time>2021-09-12T04:06:58.000Z</time>
      </trkpt>
      <trkpt lat="45.20193" lon="5.72504">
        <ele>529.20001220703</ele>
        <time>2021-09-12T04:06:59.000Z</time>
      </trkpt>
      <trkpt lat="45.20194" lon="5.72505">
        <ele>529.40002441406</ele>
        <time>2021-09-12T04:07:01.000Z</time>
      </trkpt>
      <trkpt lat="45.20196" lon="5.72505">
        <ele>529.59997558594</ele>
        <time>2021-09-12T04:07:02.000Z</time>
      </trkpt>
      <trkpt lat="45.20198" lon="5.72508">
        <ele>530.20001220703</ele>
        <time>2021-09-12T04:07:04.000Z</time>
      </trkpt>
      <trkpt lat="45.20203" lon="5.72512">
        <ele>531.40002441406</ele>
        <time>2021-09-12T04:07:09.000Z</time>
      </trkpt>
      <trkpt lat="45.20205" lon="5.72515">
        <ele>531.79998779297</ele>
        <time>2021-09-12T04:07:12.000Z</time>
      </trkpt>
      <trkpt lat="45.20207" lon="5.72516">
        <ele>532.40002441406</ele>
        <time>2021-09-12T04:07:14.000Z</time>
      </trkpt>
      <trkpt lat="45.20211" lon="5.7252">
        <ele>533.40002441406</ele>
        <time>2021-09-12T04:07:19.000Z</time>
      </trkpt>
      <trkpt lat="45.20211" lon="5.7252">
        <ele>533.79998779297</ele>
        <time>2021-09-12T04:07:20.000Z</time>
      </trkpt>
      <trkpt lat="45.20216" lon="5.72523">
        <ele>535</ele>
        <time>2021-09-12T04:07:24.000Z</time>
      </trkpt>
      <trkpt lat="45.20218" lon="5.72523">
        <ele>536</ele>
        <time>2021-09-12T04:07:27.000Z</time>
      </trkpt>
      <trkpt lat="45.20219" lon="5.72523">
        <ele>536.20001220703</ele>
        <time>2021-09-12T04:07:28.000Z</time>
      </trkpt>
      <trkpt lat="45.20224" lon="5.72522">
        <ele>537.20001220703</ele>
        <time>2021-09-12T04:07:32.000Z</time>
      </trkpt>
      <trkpt lat="45.20225" lon="5.72523">
        <ele>537.40002441406</ele>
        <time>2021-09-12T04:07:33.000Z</time>
      </trkpt>
      <trkpt lat="45.20226" lon="5.72523">
        <ele>537.59997558594</ele>
        <time>2021-09-12T04:07:35.000Z</time>
      </trkpt>
      <trkpt lat="45.20228" lon="5.72523">
        <ele>538.40002441406</ele>
        <time>2021-09-12T04:07:37.000Z</time>
      </trkpt>
      <trkpt lat="45.20229" lon="5.72523">
        <ele>538.59997558594</ele>
        <time>2021-09-12T04:07:38.000Z</time>
      </trkpt>
      <trkpt lat="45.2023" lon="5.72523">
        <ele>538.79998779297</ele>
        <time>2021-09-12T04:07:39.000Z</time>
      </trkpt>
      <trkpt lat="45.20231" lon="5.72521">
        <ele>539.59997558594</ele>
        <time>2021-09-12T04:07:42.000Z</time>
      </trkpt>
      <trkpt lat="45.20233" lon="5.72519">
        <ele>540.20001220703</ele>
        <time>2021-09-12T04:07:44.000Z</time>
      </trkpt>
      <trkpt lat="45.20234" lon="5.7252">
        <ele>540.40002441406</ele>
        <time>2021-09-12T04:07:45.000Z</time>
      </trkpt>
      <trkpt lat="45.20235" lon="5.7252">
        <ele>540.59997558594</ele>
        <time>2021-09-12T04:07:46.000Z</time>
      </trkpt>
      <trkpt lat="45.20239" lon="5.72522">
        <ele>541.79998779297</ele>
        <time>2021-09-12T04:07:49.000Z</time>
      </trkpt>
      <trkpt lat="45.20241" lon="5.7252">
        <ele>542</ele>
        <time>2021-09-12T04:07:51.000Z</time>
      </trkpt>
      <trkpt lat="45.20241" lon="5.72519">
        <ele>542.40002441406</ele>
        <time>2021-09-12T04:07:52.000Z</time>
      </trkpt>
      <trkpt lat="45.20242" lon="5.72518">
        <ele>542.79998779297</ele>
        <time>2021-09-12T04:07:53.000Z</time>
      </trkpt>
      <trkpt lat="45.20245" lon="5.72518">
        <ele>543.79998779297</ele>
        <time>2021-09-12T04:07:56.000Z</time>
      </trkpt>
      <trkpt lat="45.20245" lon="5.72517">
        <ele>544</ele>
        <time>2021-09-12T04:07:57.000Z</time>
      </trkpt>
      <trkpt lat="45.20246" lon="5.72518">
        <ele>544.20001220703</ele>
        <time>2021-09-12T04:07:58.000Z</time>
      </trkpt>
      <trkpt lat="45.20248" lon="5.72516">
        <ele>545.20001220703</ele>
        <time>2021-09-12T04:08:01.000Z</time>
      </trkpt>
      <trkpt lat="45.20251" lon="5.72515">
        <ele>546</ele>
        <time>2021-09-12T04:08:03.000Z</time>
      </trkpt>
      <trkpt lat="45.20252" lon="5.72514">
        <ele>546</ele>
        <time>2021-09-12T04:08:04.000Z</time>
      </trkpt>
      <trkpt lat="45.20253" lon="5.72514">
        <ele>546.79998779297</ele>
        <time>2021-09-12T04:08:05.000Z</time>
      </trkpt>
      <trkpt lat="45.20255" lon="5.72515">
        <ele>547.40002441406</ele>
        <time>2021-09-12T04:08:08.000Z</time>
      </trkpt>
      <trkpt lat="45.20258" lon="5.72516">
        <ele>547.79998779297</ele>
        <time>2021-09-12T04:08:10.000Z</time>
      </trkpt>
      <trkpt lat="45.20262" lon="5.72517">
        <ele>548.79998779297</ele>
        <time>2021-09-12T04:08:15.000Z</time>
      </trkpt>
      <trkpt lat="45.20262" lon="5.72517">
        <ele>549</ele>
        <time>2021-09-12T04:08:16.000Z</time>
      </trkpt>
      <trkpt lat="45.20265" lon="5.72516">
        <ele>550</ele>
        <time>2021-09-12T04:08:19.000Z</time>
      </trkpt>
      <trkpt lat="45.20266" lon="5.72516">
        <ele>550.20001220703</ele>
        <time>2021-09-12T04:08:20.000Z</time>
      </trkpt>
      <trkpt lat="45.2027" lon="5.72515">
        <ele>550.79998779297</ele>
        <time>2021-09-12T04:08:22.000Z</time>
      </trkpt>
      <trkpt lat="45.20271" lon="5.72515">
        <ele>551.20001220703</ele>
        <time>2021-09-12T04:08:23.000Z</time>
      </trkpt>
      <trkpt lat="45.20278" lon="5.72514">
        <ele>552.40002441406</ele>
        <time>2021-09-12T04:08:29.000Z</time>
      </trkpt>
      <trkpt lat="45.20281" lon="5.72514">
        <ele>552.79998779297</ele>
        <time>2021-09-12T04:08:30.000Z</time>
      </trkpt>
      <trkpt lat="45.20289" lon="5.72512">
        <ele>553.79998779297</ele>
        <time>2021-09-12T04:08:35.000Z</time>
      </trkpt>
      <trkpt lat="45.20294" lon="5.72512">
        <ele>554.40002441406</ele>
        <time>2021-09-12T04:08:38.000Z</time>
      </trkpt>
      <trkpt lat="45.20297" lon="5.7251">
        <ele>555</ele>
        <time>2021-09-12T04:08:41.000Z</time>
      </trkpt>
      <trkpt lat="45.20303" lon="5.72511">
        <ele>556.20001220703</ele>
        <time>2021-09-12T04:08:45.000Z</time>
      </trkpt>
      <trkpt lat="45.20305" lon="5.72511">
        <ele>556.59997558594</ele>
        <time>2021-09-12T04:08:48.000Z</time>
      </trkpt>
      <trkpt lat="45.20306" lon="5.72511">
        <ele>557.20001220703</ele>
        <time>2021-09-12T04:08:49.000Z</time>
      </trkpt>
      <trkpt lat="45.20308" lon="5.72511">
        <ele>557.59997558594</ele>
        <time>2021-09-12T04:08:50.000Z</time>
      </trkpt>
      <trkpt lat="45.20309" lon="5.72512">
        <ele>558</ele>
        <time>2021-09-12T04:08:52.000Z</time>
      </trkpt>
      <trkpt lat="45.20311" lon="5.72512">
        <ele>558.20001220703</ele>
        <time>2021-09-12T04:08:54.000Z</time>
      </trkpt>
      <trkpt lat="45.20312" lon="5.72512">
        <ele>558.79998779297</ele>
        <time>2021-09-12T04:08:55.000Z</time>
      </trkpt>
      <trkpt lat="45.20312" lon="5.72513">
        <ele>559.20001220703</ele>
        <time>2021-09-12T04:08:56.000Z</time>
      </trkpt>
      <trkpt lat="45.20313" lon="5.72514">
        <ele>559.40002441406</ele>
        <time>2021-09-12T04:08:57.000Z</time>
      </trkpt>
      <trkpt lat="45.20313" lon="5.72517">
        <ele>559.79998779297</ele>
        <time>2021-09-12T04:08:59.000Z</time>
      </trkpt>
      <trkpt lat="45.20314" lon="5.72518">
        <ele>560.59997558594</ele>
        <time>2021-09-12T04:09:01.000Z</time>
      </trkpt>
      <trkpt lat="45.20316" lon="5.72517">
        <ele>561.59997558594</ele>
        <time>2021-09-12T04:09:04.000Z</time>
      </trkpt>
      <trkpt lat="45.20317" lon="5.72517">
        <ele>561.79998779297</ele>
        <time>2021-09-12T04:09:05.000Z</time>
      </trkpt>
      <trkpt lat="45.20319" lon="5.72517">
        <ele>563</ele>
        <time>2021-09-12T04:09:09.000Z</time>
      </trkpt>
      <trkpt lat="45.2032" lon="5.72519">
        <ele>563.79998779297</ele>
        <time>2021-09-12T04:09:12.000Z</time>
      </trkpt>
      <trkpt lat="45.20321" lon="5.72518">
        <ele>564.20001220703</ele>
        <time>2021-09-12T04:09:13.000Z</time>
      </trkpt>
      <trkpt lat="45.20323" lon="5.7252">
        <ele>565.40002441406</ele>
        <time>2021-09-12T04:09:16.000Z</time>
      </trkpt>
      <trkpt lat="45.20325" lon="5.72521">
        <ele>565.79998779297</ele>
        <time>2021-09-12T04:09:18.000Z</time>
      </trkpt>
      <trkpt lat="45.20327" lon="5.72521">
        <ele>566.40002441406</ele>
        <time>2021-09-12T04:09:21.000Z</time>
      </trkpt>
      <trkpt lat="45.20329" lon="5.72523">
        <ele>567.20001220703</ele>
        <time>2021-09-12T04:09:24.000Z</time>
      </trkpt>
      <trkpt lat="45.20329" lon="5.72523">
        <ele>567.59997558594</ele>
        <time>2021-09-12T04:09:25.000Z</time>
      </trkpt>
      <trkpt lat="45.2033" lon="5.72523">
        <ele>568.20001220703</ele>
        <time>2021-09-12T04:09:27.000Z</time>
      </trkpt>
      <trkpt lat="45.2033" lon="5.72522">
        <ele>568.59997558594</ele>
        <time>2021-09-12T04:09:28.000Z</time>
      </trkpt>
      <trkpt lat="45.2033" lon="5.72522">
        <ele>569.20001220703</ele>
        <time>2021-09-12T04:09:30.000Z</time>
      </trkpt>
      <trkpt lat="45.20331" lon="5.72523">
        <ele>570.20001220703</ele>
        <time>2021-09-12T04:09:32.000Z</time>
      </trkpt>
      <trkpt lat="45.20332" lon="5.72525">
        <ele>570.59997558594</ele>
        <time>2021-09-12T04:09:34.000Z</time>
      </trkpt>
      <trkpt lat="45.20333" lon="5.72527">
        <ele>571</ele>
        <time>2021-09-12T04:09:36.000Z</time>
      </trkpt>
      <trkpt lat="45.20334" lon="5.72528">
        <ele>571.20001220703</ele>
        <time>2021-09-12T04:09:38.000Z</time>
      </trkpt>
      <trkpt lat="45.20335" lon="5.72529">
        <ele>571.40002441406</ele>
        <time>2021-09-12T04:09:39.000Z</time>
      </trkpt>
      <trkpt lat="45.20337" lon="5.7253">
        <ele>571.79998779297</ele>
        <time>2021-09-12T04:09:41.000Z</time>
      </trkpt>
      <trkpt lat="45.20338" lon="5.7253">
        <ele>572</ele>
        <time>2021-09-12T04:09:42.000Z</time>
      </trkpt>
      <trkpt lat="45.20339" lon="5.72529">
        <ele>572.20001220703</ele>
        <time>2021-09-12T04:09:43.000Z</time>
      </trkpt>
      <trkpt lat="45.20343" lon="5.72525">
        <ele>573.40002441406</ele>
        <time>2021-09-12T04:09:47.000Z</time>
      </trkpt>
      <trkpt lat="45.20343" lon="5.72525">
        <ele>574</ele>
        <time>2021-09-12T04:09:48.000Z</time>
      </trkpt>
      <trkpt lat="45.20343" lon="5.72524">
        <ele>574.40002441406</ele>
        <time>2021-09-12T04:09:49.000Z</time>
      </trkpt>
      <trkpt lat="45.20343" lon="5.72524">
        <ele>574.59997558594</ele>
        <time>2021-09-12T04:09:50.000Z</time>
      </trkpt>
      <trkpt lat="45.20344" lon="5.72521">
        <ele>575.40002441406</ele>
        <time>2021-09-12T04:09:54.000Z</time>
      </trkpt>
      <trkpt lat="45.20345" lon="5.72521">
        <ele>575.59997558594</ele>
        <time>2021-09-12T04:09:55.000Z</time>
      </trkpt>
      <trkpt lat="45.20348" lon="5.72521">
        <ele>576.59997558594</ele>
        <time>2021-09-12T04:09:58.000Z</time>
      </trkpt>
      <trkpt lat="45.20348" lon="5.72521">
        <ele>576.79998779297</ele>
        <time>2021-09-12T04:09:59.000Z</time>
      </trkpt>
      <trkpt lat="45.20353" lon="5.72524">
        <ele>577.79998779297</ele>
        <time>2021-09-12T04:10:03.000Z</time>
      </trkpt>
      <trkpt lat="45.20354" lon="5.72524">
        <ele>578</ele>
        <time>2021-09-12T04:10:04.000Z</time>
      </trkpt>
      <trkpt lat="45.20358" lon="5.72524">
        <ele>578.40002441406</ele>
        <time>2021-09-12T04:10:07.000Z</time>
      </trkpt>
      <trkpt lat="45.20359" lon="5.72523">
        <ele>578.79998779297</ele>
        <time>2021-09-12T04:10:08.000Z</time>
      </trkpt>
      <trkpt lat="45.2036" lon="5.72523">
        <ele>579</ele>
        <time>2021-09-12T04:10:09.000Z</time>
      </trkpt>
      <trkpt lat="45.20362" lon="5.72523">
        <ele>579.40002441406</ele>
        <time>2021-09-12T04:10:11.000Z</time>
      </trkpt>
      <trkpt lat="45.20364" lon="5.72527">
        <ele>580</ele>
        <time>2021-09-12T04:10:14.000Z</time>
      </trkpt>
      <trkpt lat="45.20366" lon="5.72529">
        <ele>580.59997558594</ele>
        <time>2021-09-12T04:10:16.000Z</time>
      </trkpt>
      <trkpt lat="45.20367" lon="5.7253">
        <ele>581.20001220703</ele>
        <time>2021-09-12T04:10:19.000Z</time>
      </trkpt>
      <trkpt lat="45.2037" lon="5.72529">
        <ele>582.20001220703</ele>
        <time>2021-09-12T04:10:22.000Z</time>
      </trkpt>
      <trkpt lat="45.20371" lon="5.72528">
        <ele>582.59997558594</ele>
        <time>2021-09-12T04:10:24.000Z</time>
      </trkpt>
      <trkpt lat="45.20373" lon="5.72529">
        <ele>583.40002441406</ele>
        <time>2021-09-12T04:10:26.000Z</time>
      </trkpt>
      <trkpt lat="45.20375" lon="5.72528">
        <ele>583.79998779297</ele>
        <time>2021-09-12T04:10:28.000Z</time>
      </trkpt>
      <trkpt lat="45.20378" lon="5.72528">
        <ele>584.59997558594</ele>
        <time>2021-09-12T04:10:31.000Z</time>
      </trkpt>
      <trkpt lat="45.20381" lon="5.72529">
        <ele>585.59997558594</ele>
        <time>2021-09-12T04:10:34.000Z</time>
      </trkpt>
      <trkpt lat="45.20381" lon="5.72531">
        <ele>585.79998779297</ele>
        <time>2021-09-12T04:10:35.000Z</time>
      </trkpt>
      <trkpt lat="45.20381" lon="5.72532">
        <ele>586</ele>
        <time>2021-09-12T04:10:36.000Z</time>
      </trkpt>
      <trkpt lat="45.20383" lon="5.72534">
        <ele>586.40002441406</ele>
        <time>2021-09-12T04:10:39.000Z</time>
      </trkpt>
      <trkpt lat="45.20384" lon="5.72534">
        <ele>586.79998779297</ele>
        <time>2021-09-12T04:10:40.000Z</time>
      </trkpt>
      <trkpt lat="45.20385" lon="5.72534">
        <ele>587.20001220703</ele>
        <time>2021-09-12T04:10:41.000Z</time>
      </trkpt>
      <trkpt lat="45.20388" lon="5.72533">
        <ele>587.59997558594</ele>
        <time>2021-09-12T04:10:44.000Z</time>
      </trkpt>
      <trkpt lat="45.20389" lon="5.72532">
        <ele>588</ele>
        <time>2021-09-12T04:10:45.000Z</time>
      </trkpt>
      <trkpt lat="45.20392" lon="5.7253">
        <ele>589.20001220703</ele>
        <time>2021-09-12T04:10:48.000Z</time>
      </trkpt>
      <trkpt lat="45.20393" lon="5.7253">
        <ele>590.20001220703</ele>
        <time>2021-09-12T04:10:51.000Z</time>
      </trkpt>
      <trkpt lat="45.20394" lon="5.72531">
        <ele>590.59997558594</ele>
        <time>2021-09-12T04:10:52.000Z</time>
      </trkpt>
      <trkpt lat="45.20396" lon="5.72534">
        <ele>591.20001220703</ele>
        <time>2021-09-12T04:10:55.000Z</time>
      </trkpt>
      <trkpt lat="45.20397" lon="5.72535">
        <ele>591.40002441406</ele>
        <time>2021-09-12T04:10:56.000Z</time>
      </trkpt>
      <trkpt lat="45.20401" lon="5.72536">
        <ele>592.40002441406</ele>
        <time>2021-09-12T04:11:00.000Z</time>
      </trkpt>
      <trkpt lat="45.20402" lon="5.72535">
        <ele>592.59997558594</ele>
        <time>2021-09-12T04:11:01.000Z</time>
      </trkpt>
      <trkpt lat="45.20404" lon="5.72534">
        <ele>593</ele>
        <time>2021-09-12T04:11:03.000Z</time>
      </trkpt>
      <trkpt lat="45.20404" lon="5.72533">
        <ele>593.59997558594</ele>
        <time>2021-09-12T04:11:05.000Z</time>
      </trkpt>
      <trkpt lat="45.20407" lon="5.72532">
        <ele>594.20001220703</ele>
        <time>2021-09-12T04:11:08.000Z</time>
      </trkpt>
      <trkpt lat="45.20409" lon="5.72531">
        <ele>594.59997558594</ele>
        <time>2021-09-12T04:11:10.000Z</time>
      </trkpt>
      <trkpt lat="45.2041" lon="5.72528">
        <ele>595.20001220703</ele>
        <time>2021-09-12T04:11:12.000Z</time>
      </trkpt>
      <trkpt lat="45.20411" lon="5.72527">
        <ele>595.79998779297</ele>
        <time>2021-09-12T04:11:14.000Z</time>
      </trkpt>
      <trkpt lat="45.20412" lon="5.72527">
        <ele>596.20001220703</ele>
        <time>2021-09-12T04:11:16.000Z</time>
      </trkpt>
      <trkpt lat="45.20413" lon="5.72527">
        <ele>596.40002441406</ele>
        <time>2021-09-12T04:11:17.000Z</time>
      </trkpt>
      <trkpt lat="45.20415" lon="5.72526">
        <ele>597.20001220703</ele>
        <time>2021-09-12T04:11:20.000Z</time>
      </trkpt>
      <trkpt lat="45.20416" lon="5.72525">
        <ele>597.40002441406</ele>
        <time>2021-09-12T04:11:21.000Z</time>
      </trkpt>
      <trkpt lat="45.20416" lon="5.72524">
        <ele>598.20001220703</ele>
        <time>2021-09-12T04:11:24.000Z</time>
      </trkpt>
      <trkpt lat="45.20416" lon="5.72523">
        <ele>599</ele>
        <time>2021-09-12T04:11:26.000Z</time>
      </trkpt>
      <trkpt lat="45.20417" lon="5.72522">
        <ele>599.20001220703</ele>
        <time>2021-09-12T04:11:27.000Z</time>
      </trkpt>
      <trkpt lat="45.20417" lon="5.72521">
        <ele>599.40002441406</ele>
        <time>2021-09-12T04:11:28.000Z</time>
      </trkpt>
      <trkpt lat="45.20418" lon="5.7252">
        <ele>599.59997558594</ele>
        <time>2021-09-12T04:11:30.000Z</time>
      </trkpt>
      <trkpt lat="45.2042" lon="5.72519">
        <ele>600.40002441406</ele>
        <time>2021-09-12T04:11:33.000Z</time>
      </trkpt>
      <trkpt lat="45.20421" lon="5.72517">
        <ele>601.20001220703</ele>
        <time>2021-09-12T04:11:36.000Z</time>
      </trkpt>
      <trkpt lat="45.20423" lon="5.72515">
        <ele>601.59997558594</ele>
        <time>2021-09-12T04:11:38.000Z</time>
      </trkpt>
      <trkpt lat="45.20425" lon="5.72515">
        <ele>602.79998779297</ele>
        <time>2021-09-12T04:11:41.000Z</time>
      </trkpt>
      <trkpt lat="45.20426" lon="5.72515">
        <ele>603.20001220703</ele>
        <time>2021-09-12T04:11:43.000Z</time>
      </trkpt>
      <trkpt lat="45.20427" lon="5.72515">
        <ele>603.79998779297</ele>
        <time>2021-09-12T04:11:44.000Z</time>
      </trkpt>
      <trkpt lat="45.20431" lon="5.72514">
        <ele>605</ele>
        <time>2021-09-12T04:11:48.000Z</time>
      </trkpt>
      <trkpt lat="45.20433" lon="5.72511">
        <ele>606.20001220703</ele>
        <time>2021-09-12T04:11:52.000Z</time>
      </trkpt>
      <trkpt lat="45.20434" lon="5.7251">
        <ele>607</ele>
        <time>2021-09-12T04:11:54.000Z</time>
      </trkpt>
      <trkpt lat="45.20435" lon="5.72511">
        <ele>607.20001220703</ele>
        <time>2021-09-12T04:11:55.000Z</time>
      </trkpt>
      <trkpt lat="45.2044" lon="5.72507">
        <ele>608.20001220703</ele>
        <time>2021-09-12T04:11:59.000Z</time>
      </trkpt>
      <trkpt lat="45.20442" lon="5.72506">
        <ele>608.59997558594</ele>
        <time>2021-09-12T04:12:00.000Z</time>
      </trkpt>
      <trkpt lat="45.2045" lon="5.72511">
        <ele>609.20001220703</ele>
        <time>2021-09-12T04:12:05.000Z</time>
      </trkpt>
      <trkpt lat="45.20451" lon="5.72511">
        <ele>609.59997558594</ele>
        <time>2021-09-12T04:12:06.000Z</time>
      </trkpt>
      <trkpt lat="45.20452" lon="5.72512">
        <ele>609.79998779297</ele>
        <time>2021-09-12T04:12:07.000Z</time>
      </trkpt>
      <trkpt lat="45.20452" lon="5.72513">
        <ele>610</ele>
        <time>2021-09-12T04:12:08.000Z</time>
      </trkpt>
      <trkpt lat="45.20455" lon="5.72518">
        <ele>610.59997558594</ele>
        <time>2021-09-12T04:12:12.000Z</time>
      </trkpt>
      <trkpt lat="45.2046" lon="5.72523">
        <ele>611.20001220703</ele>
        <time>2021-09-12T04:12:16.000Z</time>
      </trkpt>
      <trkpt lat="45.20464" lon="5.72526">
        <ele>611.59997558594</ele>
        <time>2021-09-12T04:12:18.000Z</time>
      </trkpt>
      <trkpt lat="45.20467" lon="5.72531">
        <ele>612.40002441406</ele>
        <time>2021-09-12T04:12:21.000Z</time>
      </trkpt>
      <trkpt lat="45.20468" lon="5.72532">
        <ele>612.59997558594</ele>
        <time>2021-09-12T04:12:22.000Z</time>
      </trkpt>
      <trkpt lat="45.20472" lon="5.72536">
        <ele>613.20001220703</ele>
        <time>2021-09-12T04:12:25.000Z</time>
      </trkpt>
      <trkpt lat="45.20473" lon="5.72536">
        <ele>613.40002441406</ele>
        <time>2021-09-12T04:12:26.000Z</time>
      </trkpt>
      <trkpt lat="45.20474" lon="5.72538">
        <ele>613.59997558594</ele>
        <time>2021-09-12T04:12:27.000Z</time>
      </trkpt>
      <trkpt lat="45.2048" lon="5.72543">
        <ele>614.40002441406</ele>
        <time>2021-09-12T04:12:31.000Z</time>
      </trkpt>
      <trkpt lat="45.20485" lon="5.72544">
        <ele>615</ele>
        <time>2021-09-12T04:12:34.000Z</time>
      </trkpt>
      <trkpt lat="45.20489" lon="5.72542">
        <ele>615.20001220703</ele>
        <time>2021-09-12T04:12:37.000Z</time>
      </trkpt>
      <trkpt lat="45.2049" lon="5.72542">
        <ele>615.59997558594</ele>
        <time>2021-09-12T04:12:38.000Z</time>
      </trkpt>
      <trkpt lat="45.2049" lon="5.72542">
        <ele>616</ele>
        <time>2021-09-12T04:12:39.000Z</time>
      </trkpt>
      <trkpt lat="45.20487" lon="5.72541">
        <ele>617.20001220703</ele>
        <time>2021-09-12T04:12:43.000Z</time>
      </trkpt>
      <trkpt lat="45.20484" lon="5.72539">
        <ele>618</ele>
        <time>2021-09-12T04:12:46.000Z</time>
      </trkpt>
      <trkpt lat="45.20483" lon="5.72535">
        <ele>618.59997558594</ele>
        <time>2021-09-12T04:12:48.000Z</time>
      </trkpt>
      <trkpt lat="45.20482" lon="5.72533">
        <ele>619</ele>
        <time>2021-09-12T04:12:49.000Z</time>
      </trkpt>
      <trkpt lat="45.20481" lon="5.72528">
        <ele>619.79998779297</ele>
        <time>2021-09-12T04:12:52.000Z</time>
      </trkpt>
      <trkpt lat="45.20482" lon="5.72521">
        <ele>620.40002441406</ele>
        <time>2021-09-12T04:12:55.000Z</time>
      </trkpt>
      <trkpt lat="45.20483" lon="5.72514">
        <ele>620.79998779297</ele>
        <time>2021-09-12T04:12:58.000Z</time>
      </trkpt>
      <trkpt lat="45.20483" lon="5.72507">
        <ele>620.79998779297</ele>
        <time>2021-09-12T04:13:01.000Z</time>
      </trkpt>
      <trkpt lat="45.20479" lon="5.72496">
        <ele>620.59997558594</ele>
        <time>2021-09-12T04:13:05.000Z</time>
      </trkpt>
      <trkpt lat="45.20473" lon="5.7249">
        <ele>620.40002441406</ele>
        <time>2021-09-12T04:13:09.000Z</time>
      </trkpt>
      <trkpt lat="45.20463" lon="5.72486">
        <ele>620.20001220703</ele>
        <time>2021-09-12T04:13:14.000Z</time>
      </trkpt>
      <trkpt lat="45.20459" lon="5.72482">
        <ele>620.40002441406</ele>
        <time>2021-09-12T04:13:17.000Z</time>
      </trkpt>
      <trkpt lat="45.20455" lon="5.72481">
        <ele>620.59997558594</ele>
        <time>2021-09-12T04:13:19.000Z</time>
      </trkpt>
      <trkpt lat="45.20444" lon="5.72476">
        <ele>620.59997558594</ele>
        <time>2021-09-12T04:13:24.000Z</time>
      </trkpt>
      <trkpt lat="45.2044" lon="5.72474">
        <ele>620.59997558594</ele>
        <time>2021-09-12T04:13:26.000Z</time>
      </trkpt>
      <trkpt lat="45.20435" lon="5.72473">
        <ele>620.59997558594</ele>
        <time>2021-09-12T04:13:29.000Z</time>
      </trkpt>
      <trkpt lat="45.2042" lon="5.72468">
        <ele>620.20001220703</ele>
        <time>2021-09-12T04:13:35.000Z</time>
      </trkpt>
      <trkpt lat="45.20409" lon="5.72454">
        <ele>620.20001220703</ele>
        <time>2021-09-12T04:13:41.000Z</time>
      </trkpt>
      <trkpt lat="45.20405" lon="5.72449">
        <ele>620.79998779297</ele>
        <time>2021-09-12T04:13:44.000Z</time>
      </trkpt>
      <trkpt lat="45.20402" lon="5.72447">
        <ele>621.20001220703</ele>
        <time>2021-09-12T04:13:46.000Z</time>
      </trkpt>
      <trkpt lat="45.204" lon="5.72445">
        <ele>621.79998779297</ele>
        <time>2021-09-12T04:13:48.000Z</time>
      </trkpt>
      <trkpt lat="45.204" lon="5.72444">
        <ele>622</ele>
        <time>2021-09-12T04:13:49.000Z</time>
      </trkpt>
      <trkpt lat="45.204" lon="5.72442">
        <ele>623</ele>
        <time>2021-09-12T04:13:51.000Z</time>
      </trkpt>
      <trkpt lat="45.20399" lon="5.72442">
        <ele>623.20001220703</ele>
        <time>2021-09-12T04:13:52.000Z</time>
      </trkpt>
      <trkpt lat="45.20398" lon="5.72442">
        <ele>623.40002441406</ele>
        <time>2021-09-12T04:13:53.000Z</time>
      </trkpt>
      <trkpt lat="45.20394" lon="5.72444">
        <ele>624</ele>
        <time>2021-09-12T04:13:57.000Z</time>
      </trkpt>
      <trkpt lat="45.20393" lon="5.72444">
        <ele>624.20001220703</ele>
        <time>2021-09-12T04:13:58.000Z</time>
      </trkpt>
      <trkpt lat="45.20392" lon="5.72444">
        <ele>624.40002441406</ele>
        <time>2021-09-12T04:13:59.000Z</time>
      </trkpt>
      <trkpt lat="45.20388" lon="5.7244">
        <ele>624.79998779297</ele>
        <time>2021-09-12T04:14:03.000Z</time>
      </trkpt>
      <trkpt lat="45.20387" lon="5.72438">
        <ele>625</ele>
        <time>2021-09-12T04:14:04.000Z</time>
      </trkpt>
      <trkpt lat="45.20388" lon="5.72432">
        <ele>625.20001220703</ele>
        <time>2021-09-12T04:14:06.000Z</time>
      </trkpt>
      <trkpt lat="45.20389" lon="5.7243">
        <ele>625.40002441406</ele>
        <time>2021-09-12T04:14:07.000Z</time>
      </trkpt>
      <trkpt lat="45.20391" lon="5.72428">
        <ele>625.59997558594</ele>
        <time>2021-09-12T04:14:08.000Z</time>
      </trkpt>
      <trkpt lat="45.20392" lon="5.72427">
        <ele>625.59997558594</ele>
        <time>2021-09-12T04:14:09.000Z</time>
      </trkpt>
      <trkpt lat="45.20404" lon="5.72425">
        <ele>626.59997558594</ele>
        <time>2021-09-12T04:14:15.000Z</time>
      </trkpt>
      <trkpt lat="45.20423" lon="5.7242">
        <ele>626.40002441406</ele>
        <time>2021-09-12T04:14:25.000Z</time>
      </trkpt>
      <trkpt lat="45.20428" lon="5.72416">
        <ele>625.79998779297</ele>
        <time>2021-09-12T04:14:29.000Z</time>
      </trkpt>
      <trkpt lat="45.20429" lon="5.72417">
        <ele>625.79998779297</ele>
        <time>2021-09-12T04:14:30.000Z</time>
      </trkpt>
      <trkpt lat="45.20435" lon="5.72418">
        <ele>625.40002441406</ele>
        <time>2021-09-12T04:14:33.000Z</time>
      </trkpt>
      <trkpt lat="45.20441" lon="5.72417">
        <ele>625.40002441406</ele>
        <time>2021-09-12T04:14:36.000Z</time>
      </trkpt>
      <trkpt lat="45.20452" lon="5.7242">
        <ele>625.59997558594</ele>
        <time>2021-09-12T04:14:42.000Z</time>
      </trkpt>
      <trkpt lat="45.20464" lon="5.72423">
        <ele>626</ele>
        <time>2021-09-12T04:14:48.000Z</time>
      </trkpt>
      <trkpt lat="45.20465" lon="5.72422">
        <ele>626</ele>
        <time>2021-09-12T04:14:49.000Z</time>
      </trkpt>
      <trkpt lat="45.20465" lon="5.72419">
        <ele>625.79998779297</ele>
        <time>2021-09-12T04:14:51.000Z</time>
      </trkpt>
      <trkpt lat="45.20456" lon="5.7241">
        <ele>624.79998779297</ele>
        <time>2021-09-12T04:14:56.000Z</time>
      </trkpt>
      <trkpt lat="45.20449" lon="5.72407">
        <ele>624.40002441406</ele>
        <time>2021-09-12T04:14:59.000Z</time>
      </trkpt>
      <trkpt lat="45.2044" lon="5.724">
        <ele>623.20001220703</ele>
        <time>2021-09-12T04:15:04.000Z</time>
      </trkpt>
      <trkpt lat="45.20431" lon="5.72394">
        <ele>622.40002441406</ele>
        <time>2021-09-12T04:15:09.000Z</time>
      </trkpt>
      <trkpt lat="45.20433" lon="5.72391">
        <ele>622</ele>
        <time>2021-09-12T04:15:10.000Z</time>
      </trkpt>
      <trkpt lat="45.20446" lon="5.72388">
        <ele>621.40002441406</ele>
        <time>2021-09-12T04:15:14.000Z</time>
      </trkpt>
      <trkpt lat="45.20458" lon="5.72388">
        <ele>621.40002441406</ele>
        <time>2021-09-12T04:15:19.000Z</time>
      </trkpt>
      <trkpt lat="45.20466" lon="5.72389">
        <ele>621.40002441406</ele>
        <time>2021-09-12T04:15:22.000Z</time>
      </trkpt>
      <trkpt lat="45.20478" lon="5.72391">
        <ele>621.59997558594</ele>
        <time>2021-09-12T04:15:27.000Z</time>
      </trkpt>
      <trkpt lat="45.20494" lon="5.72393">
        <ele>621.79998779297</ele>
        <time>2021-09-12T04:15:33.000Z</time>
      </trkpt>
      <trkpt lat="45.20508" lon="5.72395">
        <ele>622</ele>
        <time>2021-09-12T04:15:38.000Z</time>
      </trkpt>
      <trkpt lat="45.20515" lon="5.72395">
        <ele>622</ele>
        <time>2021-09-12T04:15:41.000Z</time>
      </trkpt>
      <trkpt lat="45.20522" lon="5.72397">
        <ele>622</ele>
        <time>2021-09-12T04:15:44.000Z</time>
      </trkpt>
      <trkpt lat="45.20533" lon="5.72399">
        <ele>622</ele>
        <time>2021-09-12T04:15:48.000Z</time>
      </trkpt>
      <trkpt lat="45.20547" lon="5.72401">
        <ele>621.79998779297</ele>
        <time>2021-09-12T04:15:54.000Z</time>
      </trkpt>
      <trkpt lat="45.20563" lon="5.72401">
        <ele>621.79998779297</ele>
        <time>2021-09-12T04:16:00.000Z</time>
      </trkpt>
      <trkpt lat="45.20574" lon="5.72406">
        <ele>622</ele>
        <time>2021-09-12T04:16:06.000Z</time>
      </trkpt>
      <trkpt lat="45.20592" lon="5.72409">
        <ele>622.20001220703</ele>
        <time>2021-09-12T04:16:13.000Z</time>
      </trkpt>
      <trkpt lat="45.20596" lon="5.72409">
        <ele>622.40002441406</ele>
        <time>2021-09-12T04:16:14.000Z</time>
      </trkpt>
      <trkpt lat="45.20616" lon="5.72403">
        <ele>622.59997558594</ele>
        <time>2021-09-12T04:16:21.000Z</time>
      </trkpt>
      <trkpt lat="45.20633" lon="5.72395">
        <ele>622.79998779297</ele>
        <time>2021-09-12T04:16:27.000Z</time>
      </trkpt>
      <trkpt lat="45.20639" lon="5.72394">
        <ele>623</ele>
        <time>2021-09-12T04:16:29.000Z</time>
      </trkpt>
      <trkpt lat="45.20645" lon="5.72393">
        <ele>623</ele>
        <time>2021-09-12T04:16:31.000Z</time>
      </trkpt>
      <trkpt lat="45.20666" lon="5.72393">
        <ele>623.40002441406</ele>
        <time>2021-09-12T04:16:37.000Z</time>
      </trkpt>
      <trkpt lat="45.20685" lon="5.72396">
        <ele>623.40002441406</ele>
        <time>2021-09-12T04:16:44.000Z</time>
      </trkpt>
      <trkpt lat="45.20689" lon="5.72397">
        <ele>623.59997558594</ele>
        <time>2021-09-12T04:16:46.000Z</time>
      </trkpt>
      <trkpt lat="45.20691" lon="5.72396">
        <ele>623.59997558594</ele>
        <time>2021-09-12T04:16:47.000Z</time>
      </trkpt>
      <trkpt lat="45.20693" lon="5.72395">
        <ele>623.59997558594</ele>
        <time>2021-09-12T04:16:48.000Z</time>
      </trkpt>
      <trkpt lat="45.20707" lon="5.72394">
        <ele>623.79998779297</ele>
        <time>2021-09-12T04:16:53.000Z</time>
      </trkpt>
      <trkpt lat="45.20712" lon="5.72395">
        <ele>623.79998779297</ele>
        <time>2021-09-12T04:16:55.000Z</time>
      </trkpt>
      <trkpt lat="45.20718" lon="5.72397">
        <ele>623.59997558594</ele>
        <time>2021-09-12T04:16:57.000Z</time>
      </trkpt>
      <trkpt lat="45.20733" lon="5.72401">
        <ele>623.79998779297</ele>
        <time>2021-09-12T04:17:03.000Z</time>
      </trkpt>
      <trkpt lat="45.20749" lon="5.72407">
        <ele>623.79998779297</ele>
        <time>2021-09-12T04:17:09.000Z</time>
      </trkpt>
      <trkpt lat="45.20752" lon="5.72408">
        <ele>623.79998779297</ele>
        <time>2021-09-12T04:17:10.000Z</time>
      </trkpt>
      <trkpt lat="45.20767" lon="5.72412">
        <ele>623.59997558594</ele>
        <time>2021-09-12T04:17:16.000Z</time>
      </trkpt>
      <trkpt lat="45.20788" lon="5.7242">
        <ele>623.59997558594</ele>
        <time>2021-09-12T04:17:23.000Z</time>
      </trkpt>
      <trkpt lat="45.20805" lon="5.72432">
        <ele>623.59997558594</ele>
        <time>2021-09-12T04:17:28.000Z</time>
      </trkpt>
      <trkpt lat="45.20807" lon="5.72431">
        <ele>623.59997558594</ele>
        <time>2021-09-12T04:17:29.000Z</time>
      </trkpt>
      <trkpt lat="45.20826" lon="5.72434">
        <ele>623.79998779297</ele>
        <time>2021-09-12T04:17:37.000Z</time>
      </trkpt>
      <trkpt lat="45.20832" lon="5.7244">
        <ele>624.20001220703</ele>
        <time>2021-09-12T04:17:39.000Z</time>
      </trkpt>
      <trkpt lat="45.20849" lon="5.72446">
        <ele>624</ele>
        <time>2021-09-12T04:17:45.000Z</time>
      </trkpt>
      <trkpt lat="45.20867" lon="5.72452">
        <ele>624.20001220703</ele>
        <time>2021-09-12T04:17:52.000Z</time>
      </trkpt>
      <trkpt lat="45.20886" lon="5.72458">
        <ele>624</ele>
        <time>2021-09-12T04:17:59.000Z</time>
      </trkpt>
      <trkpt lat="45.20893" lon="5.7246">
        <ele>624.20001220703</ele>
        <time>2021-09-12T04:18:02.000Z</time>
      </trkpt>
      <trkpt lat="45.20911" lon="5.72465">
        <ele>624.40002441406</ele>
        <time>2021-09-12T04:18:09.000Z</time>
      </trkpt>
      <trkpt lat="45.20919" lon="5.72467">
        <ele>624.40002441406</ele>
        <time>2021-09-12T04:18:12.000Z</time>
      </trkpt>
      <trkpt lat="45.20939" lon="5.72476">
        <ele>624.20001220703</ele>
        <time>2021-09-12T04:18:20.000Z</time>
      </trkpt>
      <trkpt lat="45.20946" lon="5.7248">
        <ele>624</ele>
        <time>2021-09-12T04:18:23.000Z</time>
      </trkpt>
      <trkpt lat="45.20962" lon="5.72491">
        <ele>624</ele>
        <time>2021-09-12T04:18:30.000Z</time>
      </trkpt>
      <trkpt lat="45.20977" lon="5.72501">
        <ele>624.59997558594</ele>
        <time>2021-09-12T04:18:36.000Z</time>
      </trkpt>
      <trkpt lat="45.20997" lon="5.72505">
        <ele>625</ele>
        <time>2021-09-12T04:18:43.000Z</time>
      </trkpt>
      <trkpt lat="45.21016" lon="5.72507">
        <ele>625</ele>
        <time>2021-09-12T04:18:50.000Z</time>
      </trkpt>
      <trkpt lat="45.21034" lon="5.72508">
        <ele>623.79998779297</ele>
        <time>2021-09-12T04:18:57.000Z</time>
      </trkpt>
      <trkpt lat="45.21039" lon="5.72505">
        <ele>622.59997558594</ele>
        <time>2021-09-12T04:19:00.000Z</time>
      </trkpt>
      <trkpt lat="45.21044" lon="5.72501">
        <ele>621.59997558594</ele>
        <time>2021-09-12T04:19:03.000Z</time>
      </trkpt>
      <trkpt lat="45.21047" lon="5.72497">
        <ele>620</ele>
        <time>2021-09-12T04:19:06.000Z</time>
      </trkpt>
      <trkpt lat="45.21049" lon="5.72495">
        <ele>619.40002441406</ele>
        <time>2021-09-12T04:19:07.000Z</time>
      </trkpt>
      <trkpt lat="45.21055" lon="5.72493">
        <ele>618.59997558594</ele>
        <time>2021-09-12T04:19:10.000Z</time>
      </trkpt>
      <trkpt lat="45.21058" lon="5.72489">
        <ele>617.59997558594</ele>
        <time>2021-09-12T04:19:12.000Z</time>
      </trkpt>
      <trkpt lat="45.2106" lon="5.72487">
        <ele>617.20001220703</ele>
        <time>2021-09-12T04:19:13.000Z</time>
      </trkpt>
      <trkpt lat="45.21065" lon="5.72484">
        <ele>616.20001220703</ele>
        <time>2021-09-12T04:19:16.000Z</time>
      </trkpt>
      <trkpt lat="45.21071" lon="5.72482">
        <ele>615.20001220703</ele>
        <time>2021-09-12T04:19:19.000Z</time>
      </trkpt>
      <trkpt lat="45.21073" lon="5.72481">
        <ele>614.79998779297</ele>
        <time>2021-09-12T04:19:20.000Z</time>
      </trkpt>
      <trkpt lat="45.21079" lon="5.72476">
        <ele>613.59997558594</ele>
        <time>2021-09-12T04:19:24.000Z</time>
      </trkpt>
      <trkpt lat="45.21084" lon="5.72472">
        <ele>612.40002441406</ele>
        <time>2021-09-12T04:19:27.000Z</time>
      </trkpt>
      <trkpt lat="45.21088" lon="5.72469">
        <ele>611</ele>
        <time>2021-09-12T04:19:30.000Z</time>
      </trkpt>
      <trkpt lat="45.2109" lon="5.72468">
        <ele>610.59997558594</ele>
        <time>2021-09-12T04:19:31.000Z</time>
      </trkpt>
      <trkpt lat="45.21091" lon="5.72467">
        <ele>610.40002441406</ele>
        <time>2021-09-12T04:19:32.000Z</time>
      </trkpt>
      <trkpt lat="45.21094" lon="5.72466">
        <ele>610</ele>
        <time>2021-09-12T04:19:34.000Z</time>
      </trkpt>
      <trkpt lat="45.21095" lon="5.72465">
        <ele>609.40002441406</ele>
        <time>2021-09-12T04:19:35.000Z</time>
      </trkpt>
      <trkpt lat="45.21098" lon="5.72462">
        <ele>608.59997558594</ele>
        <time>2021-09-12T04:19:37.000Z</time>
      </trkpt>
      <trkpt lat="45.21099" lon="5.72462">
        <ele>608.20001220703</ele>
        <time>2021-09-12T04:19:38.000Z</time>
      </trkpt>
      <trkpt lat="45.21102" lon="5.72462">
        <ele>607.20001220703</ele>
        <time>2021-09-12T04:19:40.000Z</time>
      </trkpt>
      <trkpt lat="45.21107" lon="5.72462">
        <ele>606.20001220703</ele>
        <time>2021-09-12T04:19:43.000Z</time>
      </trkpt>
      <trkpt lat="45.2111" lon="5.72462">
        <ele>606.20001220703</ele>
        <time>2021-09-12T04:19:44.000Z</time>
      </trkpt>
      <trkpt lat="45.21114" lon="5.72455">
        <ele>604.79998779297</ele>
        <time>2021-09-12T04:19:46.000Z</time>
      </trkpt>
      <trkpt lat="45.21116" lon="5.72454">
        <ele>604.40002441406</ele>
        <time>2021-09-12T04:19:47.000Z</time>
      </trkpt>
      <trkpt lat="45.21119" lon="5.72451">
        <ele>603.59997558594</ele>
        <time>2021-09-12T04:19:49.000Z</time>
      </trkpt>
      <trkpt lat="45.21125" lon="5.72447">
        <ele>602.59997558594</ele>
        <time>2021-09-12T04:19:52.000Z</time>
      </trkpt>
      <trkpt lat="45.21127" lon="5.72446">
        <ele>602.20001220703</ele>
        <time>2021-09-12T04:19:53.000Z</time>
      </trkpt>
      <trkpt lat="45.21129" lon="5.72446">
        <ele>601.79998779297</ele>
        <time>2021-09-12T04:19:54.000Z</time>
      </trkpt>
      <trkpt lat="45.21131" lon="5.72445">
        <ele>601.40002441406</ele>
        <time>2021-09-12T04:19:55.000Z</time>
      </trkpt>
      <trkpt lat="45.21138" lon="5.72445">
        <ele>600.40002441406</ele>
        <time>2021-09-12T04:19:58.000Z</time>
      </trkpt>
      <trkpt lat="45.21145" lon="5.7244">
        <ele>599.20001220703</ele>
        <time>2021-09-12T04:20:01.000Z</time>
      </trkpt>
      <trkpt lat="45.21154" lon="5.72441">
        <ele>598.20001220703</ele>
        <time>2021-09-12T04:20:05.000Z</time>
      </trkpt>
      <trkpt lat="45.21165" lon="5.72444">
        <ele>597</ele>
        <time>2021-09-12T04:20:10.000Z</time>
      </trkpt>
      <trkpt lat="45.21172" lon="5.72441">
        <ele>596.20001220703</ele>
        <time>2021-09-12T04:20:13.000Z</time>
      </trkpt>
      <trkpt lat="45.21174" lon="5.72439">
        <ele>596</ele>
        <time>2021-09-12T04:20:14.000Z</time>
      </trkpt>
      <trkpt lat="45.21185" lon="5.7243">
        <ele>595</ele>
        <time>2021-09-12T04:20:19.000Z</time>
      </trkpt>
      <trkpt lat="45.21187" lon="5.72427">
        <ele>594.79998779297</ele>
        <time>2021-09-12T04:20:20.000Z</time>
      </trkpt>
      <trkpt lat="45.21197" lon="5.72397">
        <ele>594.40002441406</ele>
        <time>2021-09-12T04:20:27.000Z</time>
      </trkpt>
      <trkpt lat="45.21197" lon="5.72364">
        <ele>594</ele>
        <time>2021-09-12T04:20:33.000Z</time>
      </trkpt>
      <trkpt lat="45.212" lon="5.72349">
        <ele>593.79998779297</ele>
        <time>2021-09-12T04:20:37.000Z</time>
      </trkpt>
      <trkpt lat="45.21202" lon="5.72346">
        <ele>593.40002441406</ele>
        <time>2021-09-12T04:20:39.000Z</time>
      </trkpt>
      <trkpt lat="45.21202" lon="5.7232">
        <ele>593</ele>
        <time>2021-09-12T04:20:46.000Z</time>
      </trkpt>
      <trkpt lat="45.21206" lon="5.72312">
        <ele>593</ele>
        <time>2021-09-12T04:20:50.000Z</time>
      </trkpt>
      <trkpt lat="45.21207" lon="5.72312">
        <ele>592.59997558594</ele>
        <time>2021-09-12T04:20:51.000Z</time>
      </trkpt>
      <trkpt lat="45.21218" lon="5.72314">
        <ele>591.79998779297</ele>
        <time>2021-09-12T04:20:56.000Z</time>
      </trkpt>
      <trkpt lat="45.2122" lon="5.72315">
        <ele>591.59997558594</ele>
        <time>2021-09-12T04:20:57.000Z</time>
      </trkpt>
      <trkpt lat="45.21233" lon="5.72317">
        <ele>590.20001220703</ele>
        <time>2021-09-12T04:21:02.000Z</time>
      </trkpt>
      <trkpt lat="45.21239" lon="5.72321">
        <ele>589.79998779297</ele>
        <time>2021-09-12T04:21:05.000Z</time>
      </trkpt>
      <trkpt lat="45.21243" lon="5.72321">
        <ele>589.20001220703</ele>
        <time>2021-09-12T04:21:07.000Z</time>
      </trkpt>
      <trkpt lat="45.21247" lon="5.72319">
        <ele>589</ele>
        <time>2021-09-12T04:21:09.000Z</time>
      </trkpt>
      <trkpt lat="45.21249" lon="5.72317">
        <ele>588.79998779297</ele>
        <time>2021-09-12T04:21:10.000Z</time>
      </trkpt>
      <trkpt lat="45.21261" lon="5.72316">
        <ele>588.20001220703</ele>
        <time>2021-09-12T04:21:15.000Z</time>
      </trkpt>
      <trkpt lat="45.21271" lon="5.72317">
        <ele>587</ele>
        <time>2021-09-12T04:21:19.000Z</time>
      </trkpt>
      <trkpt lat="45.21281" lon="5.72318">
        <ele>586</ele>
        <time>2021-09-12T04:21:23.000Z</time>
      </trkpt>
      <trkpt lat="45.21284" lon="5.72317">
        <ele>585.20001220703</ele>
        <time>2021-09-12T04:21:25.000Z</time>
      </trkpt>
      <trkpt lat="45.21287" lon="5.72315">
        <ele>584.79998779297</ele>
        <time>2021-09-12T04:21:26.000Z</time>
      </trkpt>
      <trkpt lat="45.21293" lon="5.7232">
        <ele>583.59997558594</ele>
        <time>2021-09-12T04:21:29.000Z</time>
      </trkpt>
      <trkpt lat="45.21302" lon="5.72324">
        <ele>582.40002441406</ele>
        <time>2021-09-12T04:21:33.000Z</time>
      </trkpt>
      <trkpt lat="45.21308" lon="5.72325">
        <ele>581</ele>
        <time>2021-09-12T04:21:36.000Z</time>
      </trkpt>
      <trkpt lat="45.21312" lon="5.72324">
        <ele>580.20001220703</ele>
        <time>2021-09-12T04:21:38.000Z</time>
      </trkpt>
      <trkpt lat="45.21313" lon="5.72325">
        <ele>579.79998779297</ele>
        <time>2021-09-12T04:21:39.000Z</time>
      </trkpt>
      <trkpt lat="45.21321" lon="5.72325">
        <ele>578.59997558594</ele>
        <time>2021-09-12T04:21:43.000Z</time>
      </trkpt>
      <trkpt lat="45.21326" lon="5.72325">
        <ele>577.59997558594</ele>
        <time>2021-09-12T04:21:46.000Z</time>
      </trkpt>
      <trkpt lat="45.21332" lon="5.72327">
        <ele>576.40002441406</ele>
        <time>2021-09-12T04:21:49.000Z</time>
      </trkpt>
      <trkpt lat="45.21336" lon="5.72325">
        <ele>575.40002441406</ele>
        <time>2021-09-12T04:21:52.000Z</time>
      </trkpt>
      <trkpt lat="45.21339" lon="5.72327">
        <ele>574.40002441406</ele>
        <time>2021-09-12T04:21:54.000Z</time>
      </trkpt>
      <trkpt lat="45.2134" lon="5.72327">
        <ele>574.20001220703</ele>
        <time>2021-09-12T04:21:55.000Z</time>
      </trkpt>
      <trkpt lat="45.21343" lon="5.72328">
        <ele>573</ele>
        <time>2021-09-12T04:21:58.000Z</time>
      </trkpt>
      <trkpt lat="45.21345" lon="5.72324">
        <ele>571.40002441406</ele>
        <time>2021-09-12T04:22:01.000Z</time>
      </trkpt>
      <trkpt lat="45.21352" lon="5.72326">
        <ele>569.79998779297</ele>
        <time>2021-09-12T04:22:05.000Z</time>
      </trkpt>
      <trkpt lat="45.21356" lon="5.7232">
        <ele>568.40002441406</ele>
        <time>2021-09-12T04:22:09.000Z</time>
      </trkpt>
      <trkpt lat="45.21358" lon="5.72317">
        <ele>567.40002441406</ele>
        <time>2021-09-12T04:22:11.000Z</time>
      </trkpt>
      <trkpt lat="45.21359" lon="5.72316">
        <ele>567</ele>
        <time>2021-09-12T04:22:12.000Z</time>
      </trkpt>
      <trkpt lat="45.21361" lon="5.72315">
        <ele>566.20001220703</ele>
        <time>2021-09-12T04:22:14.000Z</time>
      </trkpt>
      <trkpt lat="45.21365" lon="5.72311">
        <ele>564.79998779297</ele>
        <time>2021-09-12T04:22:17.000Z</time>
      </trkpt>
      <trkpt lat="45.21366" lon="5.72309">
        <ele>564.40002441406</ele>
        <time>2021-09-12T04:22:18.000Z</time>
      </trkpt>
      <trkpt lat="45.21369" lon="5.72308">
        <ele>563.59997558594</ele>
        <time>2021-09-12T04:22:20.000Z</time>
      </trkpt>
      <trkpt lat="45.21372" lon="5.72308">
        <ele>562.79998779297</ele>
        <time>2021-09-12T04:22:22.000Z</time>
      </trkpt>
      <trkpt lat="45.21374" lon="5.72307">
        <ele>562.40002441406</ele>
        <time>2021-09-12T04:22:23.000Z</time>
      </trkpt>
      <trkpt lat="45.2138" lon="5.72303">
        <ele>561</ele>
        <time>2021-09-12T04:22:26.000Z</time>
      </trkpt>
      <trkpt lat="45.21384" lon="5.72302">
        <ele>559.79998779297</ele>
        <time>2021-09-12T04:22:29.000Z</time>
      </trkpt>
      <trkpt lat="45.21386" lon="5.72302">
        <ele>559.40002441406</ele>
        <time>2021-09-12T04:22:30.000Z</time>
      </trkpt>
      <trkpt lat="45.21388" lon="5.72301">
        <ele>558.79998779297</ele>
        <time>2021-09-12T04:22:32.000Z</time>
      </trkpt>
      <trkpt lat="45.21391" lon="5.72299">
        <ele>557.40002441406</ele>
        <time>2021-09-12T04:22:35.000Z</time>
      </trkpt>
      <trkpt lat="45.21395" lon="5.72297">
        <ele>556</ele>
        <time>2021-09-12T04:22:38.000Z</time>
      </trkpt>
      <trkpt lat="45.21397" lon="5.72296">
        <ele>555.59997558594</ele>
        <time>2021-09-12T04:22:39.000Z</time>
      </trkpt>
      <trkpt lat="45.214" lon="5.72295">
        <ele>554.79998779297</ele>
        <time>2021-09-12T04:22:41.000Z</time>
      </trkpt>
      <trkpt lat="45.21403" lon="5.72292">
        <ele>553.59997558594</ele>
        <time>2021-09-12T04:22:44.000Z</time>
      </trkpt>
      <trkpt lat="45.21407" lon="5.72291">
        <ele>552.40002441406</ele>
        <time>2021-09-12T04:22:47.000Z</time>
      </trkpt>
      <trkpt lat="45.21411" lon="5.7229">
        <ele>551.20001220703</ele>
        <time>2021-09-12T04:22:50.000Z</time>
      </trkpt>
      <trkpt lat="45.21415" lon="5.72287">
        <ele>550</ele>
        <time>2021-09-12T04:22:53.000Z</time>
      </trkpt>
      <trkpt lat="45.21418" lon="5.72287">
        <ele>548.79998779297</ele>
        <time>2021-09-12T04:22:55.000Z</time>
      </trkpt>
      <trkpt lat="45.21421" lon="5.72284">
        <ele>547.40002441406</ele>
        <time>2021-09-12T04:22:58.000Z</time>
      </trkpt>
      <trkpt lat="45.21423" lon="5.72284">
        <ele>547</ele>
        <time>2021-09-12T04:22:59.000Z</time>
      </trkpt>
      <trkpt lat="45.21426" lon="5.72281">
        <ele>546.40002441406</ele>
        <time>2021-09-12T04:23:01.000Z</time>
      </trkpt>
      <trkpt lat="45.2143" lon="5.72278">
        <ele>545.20001220703</ele>
        <time>2021-09-12T04:23:04.000Z</time>
      </trkpt>
      <trkpt lat="45.21435" lon="5.72277">
        <ele>544</ele>
        <time>2021-09-12T04:23:07.000Z</time>
      </trkpt>
      <trkpt lat="45.21439" lon="5.72276">
        <ele>543</ele>
        <time>2021-09-12T04:23:10.000Z</time>
      </trkpt>
      <trkpt lat="45.21442" lon="5.72271">
        <ele>541.79998779297</ele>
        <time>2021-09-12T04:23:13.000Z</time>
      </trkpt>
      <trkpt lat="45.21445" lon="5.72269">
        <ele>540.79998779297</ele>
        <time>2021-09-12T04:23:15.000Z</time>
      </trkpt>
      <trkpt lat="45.21446" lon="5.7227">
        <ele>540.20001220703</ele>
        <time>2021-09-12T04:23:16.000Z</time>
      </trkpt>
      <trkpt lat="45.21449" lon="5.72267">
        <ele>539.59997558594</ele>
        <time>2021-09-12T04:23:19.000Z</time>
      </trkpt>
      <trkpt lat="45.21453" lon="5.72265">
        <ele>538.40002441406</ele>
        <time>2021-09-12T04:23:22.000Z</time>
      </trkpt>
      <trkpt lat="45.21456" lon="5.72266">
        <ele>537.20001220703</ele>
        <time>2021-09-12T04:23:25.000Z</time>
      </trkpt>
      <trkpt lat="45.21461" lon="5.72267">
        <ele>536</ele>
        <time>2021-09-12T04:23:28.000Z</time>
      </trkpt>
      <trkpt lat="45.21464" lon="5.72267">
        <ele>535</ele>
        <time>2021-09-12T04:23:30.000Z</time>
      </trkpt>
      <trkpt lat="45.21466" lon="5.72268">
        <ele>534.79998779297</ele>
        <time>2021-09-12T04:23:31.000Z</time>
      </trkpt>
      <trkpt lat="45.2147" lon="5.72267">
        <ele>534</ele>
        <time>2021-09-12T04:23:34.000Z</time>
      </trkpt>
      <trkpt lat="45.21471" lon="5.72267">
        <ele>533.59997558594</ele>
        <time>2021-09-12T04:23:35.000Z</time>
      </trkpt>
      <trkpt lat="45.21477" lon="5.72272">
        <ele>532.20001220703</ele>
        <time>2021-09-12T04:23:38.000Z</time>
      </trkpt>
      <trkpt lat="45.2148" lon="5.72274">
        <ele>531.20001220703</ele>
        <time>2021-09-12T04:23:41.000Z</time>
      </trkpt>
      <trkpt lat="45.21482" lon="5.72274">
        <ele>530.79998779297</ele>
        <time>2021-09-12T04:23:42.000Z</time>
      </trkpt>
      <trkpt lat="45.21485" lon="5.72273">
        <ele>530</ele>
        <time>2021-09-12T04:23:45.000Z</time>
      </trkpt>
      <trkpt lat="45.21491" lon="5.72273">
        <ele>529.40002441406</ele>
        <time>2021-09-12T04:23:49.000Z</time>
      </trkpt>
      <trkpt lat="45.21496" lon="5.72259">
        <ele>530.40002441406</ele>
        <time>2021-09-12T04:23:57.000Z</time>
      </trkpt>
      <trkpt lat="45.21494" lon="5.72257">
        <ele>530.59997558594</ele>
        <time>2021-09-12T04:23:59.000Z</time>
      </trkpt>
      <trkpt lat="45.21493" lon="5.72256">
        <ele>530.59997558594</ele>
        <time>2021-09-12T04:24:00.000Z</time>
      </trkpt>
      <trkpt lat="45.21493" lon="5.72256">
        <ele>530.59997558594</ele>
        <time>2021-09-12T04:24:01.000Z</time>
      </trkpt>
      <trkpt lat="45.21493" lon="5.72255">
        <ele>530.59997558594</ele>
        <time>2021-09-12T04:24:02.000Z</time>
      </trkpt>
      <trkpt lat="45.21489" lon="5.72248">
        <ele>530.59997558594</ele>
        <time>2021-09-12T04:24:05.000Z</time>
      </trkpt>
      <trkpt lat="45.21481" lon="5.72236">
        <ele>530.59997558594</ele>
        <time>2021-09-12T04:24:12.000Z</time>
      </trkpt>
      <trkpt lat="45.2148" lon="5.72235">
        <ele>530.59997558594</ele>
        <time>2021-09-12T04:24:13.000Z</time>
      </trkpt>
      <trkpt lat="45.21479" lon="5.72234">
        <ele>530.59997558594</ele>
        <time>2021-09-12T04:24:14.000Z</time>
      </trkpt>
      <trkpt lat="45.21479" lon="5.72236">
        <ele>530.59997558594</ele>
        <time>2021-09-12T04:24:16.000Z</time>
      </trkpt>
      <trkpt lat="45.21479" lon="5.72238">
        <ele>530.59997558594</ele>
        <time>2021-09-12T04:24:18.000Z</time>
      </trkpt>
      <trkpt lat="45.21479" lon="5.72243">
        <ele>530.59997558594</ele>
        <time>2021-09-12T04:24:22.000Z</time>
      </trkpt>
      <trkpt lat="45.21479" lon="5.72244">
        <ele>530</ele>
        <time>2021-09-12T04:24:26.000Z</time>
      </trkpt>
      <trkpt lat="45.21476" lon="5.72246">
        <ele>529.40002441406</ele>
        <time>2021-09-12T04:24:31.000Z</time>
      </trkpt>
      <trkpt lat="45.21474" lon="5.7225">
        <ele>529.40002441406</ele>
        <time>2021-09-12T04:24:33.000Z</time>
      </trkpt>
      <trkpt lat="45.21474" lon="5.72255">
        <ele>530</ele>
        <time>2021-09-12T04:24:35.000Z</time>
      </trkpt>
      <trkpt lat="45.21473" lon="5.72259">
        <ele>530.59997558594</ele>
        <time>2021-09-12T04:24:37.000Z</time>
      </trkpt>
      <trkpt lat="45.21472" lon="5.72261">
        <ele>530.79998779297</ele>
        <time>2021-09-12T04:24:38.000Z</time>
      </trkpt>
      <trkpt lat="45.21471" lon="5.72262">
        <ele>531.20001220703</ele>
        <time>2021-09-12T04:24:39.000Z</time>
      </trkpt>
      <trkpt lat="45.21467" lon="5.72264">
        <ele>532.40002441406</ele>
        <time>2021-09-12T04:24:42.000Z</time>
      </trkpt>
      <trkpt lat="45.21467" lon="5.72266">
        <ele>532.59997558594</ele>
        <time>2021-09-12T04:24:43.000Z</time>
      </trkpt>
      <trkpt lat="45.21466" lon="5.72267">
        <ele>533.40002441406</ele>
        <time>2021-09-12T04:24:45.000Z</time>
      </trkpt>
      <trkpt lat="45.21464" lon="5.72267">
        <ele>534.40002441406</ele>
        <time>2021-09-12T04:24:48.000Z</time>
      </trkpt>
      <trkpt lat="45.21463" lon="5.72268">
        <ele>534.59997558594</ele>
        <time>2021-09-12T04:24:49.000Z</time>
      </trkpt>
      <trkpt lat="45.21463" lon="5.72269">
        <ele>534.79998779297</ele>
        <time>2021-09-12T04:24:50.000Z</time>
      </trkpt>
      <trkpt lat="45.2146" lon="5.72271">
        <ele>535.40002441406</ele>
        <time>2021-09-12T04:24:53.000Z</time>
      </trkpt>
      <trkpt lat="45.21459" lon="5.72271">
        <ele>536</ele>
        <time>2021-09-12T04:24:54.000Z</time>
      </trkpt>
      <trkpt lat="45.21458" lon="5.72271">
        <ele>536.59997558594</ele>
        <time>2021-09-12T04:24:57.000Z</time>
      </trkpt>
      <trkpt lat="45.21456" lon="5.72271">
        <ele>537</ele>
        <time>2021-09-12T04:24:59.000Z</time>
      </trkpt>
      <trkpt lat="45.21453" lon="5.72272">
        <ele>537.59997558594</ele>
        <time>2021-09-12T04:25:01.000Z</time>
      </trkpt>
      <trkpt lat="45.21451" lon="5.72274">
        <ele>538</ele>
        <time>2021-09-12T04:25:03.000Z</time>
      </trkpt>
      <trkpt lat="45.21451" lon="5.72273">
        <ele>538.20001220703</ele>
        <time>2021-09-12T04:25:04.000Z</time>
      </trkpt>
      <trkpt lat="45.21451" lon="5.72276">
        <ele>539</ele>
        <time>2021-09-12T04:25:06.000Z</time>
      </trkpt>
      <trkpt lat="45.2145" lon="5.72277">
        <ele>539.20001220703</ele>
        <time>2021-09-12T04:25:07.000Z</time>
      </trkpt>
      <trkpt lat="45.21448" lon="5.72277">
        <ele>540.20001220703</ele>
        <time>2021-09-12T04:25:10.000Z</time>
      </trkpt>
      <trkpt lat="45.21447" lon="5.72279">
        <ele>540.59997558594</ele>
        <time>2021-09-12T04:25:12.000Z</time>
      </trkpt>
      <trkpt lat="45.21446" lon="5.72281">
        <ele>541</ele>
        <time>2021-09-12T04:25:14.000Z</time>
      </trkpt>
      <trkpt lat="45.21446" lon="5.72281">
        <ele>541.20001220703</ele>
        <time>2021-09-12T04:25:15.000Z</time>
      </trkpt>
      <trkpt lat="45.21444" lon="5.7228">
        <ele>541.79998779297</ele>
        <time>2021-09-12T04:25:17.000Z</time>
      </trkpt>
      <trkpt lat="45.21443" lon="5.7228">
        <ele>542.20001220703</ele>
        <time>2021-09-12T04:25:18.000Z</time>
      </trkpt>
      <trkpt lat="45.21442" lon="5.72281">
        <ele>542.79998779297</ele>
        <time>2021-09-12T04:25:21.000Z</time>
      </trkpt>
      <trkpt lat="45.21441" lon="5.72281">
        <ele>543.40002441406</ele>
        <time>2021-09-12T04:25:23.000Z</time>
      </trkpt>
      <trkpt lat="45.21439" lon="5.72285">
        <ele>544.40002441406</ele>
        <time>2021-09-12T04:25:27.000Z</time>
      </trkpt>
      <trkpt lat="45.21437" lon="5.72286">
        <ele>544.40002441406</ele>
        <time>2021-09-12T04:25:28.000Z</time>
      </trkpt>
      <trkpt lat="45.21434" lon="5.72289">
        <ele>545.40002441406</ele>
        <time>2021-09-12T04:25:31.000Z</time>
      </trkpt>
      <trkpt lat="45.21431" lon="5.72288">
        <ele>546.59997558594</ele>
        <time>2021-09-12T04:25:34.000Z</time>
      </trkpt>
      <trkpt lat="45.2143" lon="5.72288">
        <ele>546.59997558594</ele>
        <time>2021-09-12T04:25:35.000Z</time>
      </trkpt>
      <trkpt lat="45.21426" lon="5.72292">
        <ele>547.40002441406</ele>
        <time>2021-09-12T04:25:38.000Z</time>
      </trkpt>
      <trkpt lat="45.21425" lon="5.72292">
        <ele>547.59997558594</ele>
        <time>2021-09-12T04:25:39.000Z</time>
      </trkpt>
      <trkpt lat="45.21425" lon="5.72292">
        <ele>548</ele>
        <time>2021-09-12T04:25:40.000Z</time>
      </trkpt>
      <trkpt lat="45.21423" lon="5.72294">
        <ele>548.59997558594</ele>
        <time>2021-09-12T04:25:43.000Z</time>
      </trkpt>
      <trkpt lat="45.21423" lon="5.72294">
        <ele>549</ele>
        <time>2021-09-12T04:25:44.000Z</time>
      </trkpt>
      <trkpt lat="45.21421" lon="5.72295">
        <ele>550</ele>
        <time>2021-09-12T04:25:47.000Z</time>
      </trkpt>
      <trkpt lat="45.21421" lon="5.72295">
        <ele>550.20001220703</ele>
        <time>2021-09-12T04:25:48.000Z</time>
      </trkpt>
      <trkpt lat="45.2142" lon="5.72298">
        <ele>551</ele>
        <time>2021-09-12T04:25:52.000Z</time>
      </trkpt>
      <trkpt lat="45.21416" lon="5.723">
        <ele>552.20001220703</ele>
        <time>2021-09-12T04:25:56.000Z</time>
      </trkpt>
      <trkpt lat="45.21415" lon="5.723">
        <ele>552.40002441406</ele>
        <time>2021-09-12T04:25:57.000Z</time>
      </trkpt>
      <trkpt lat="45.21413" lon="5.723">
        <ele>553.20001220703</ele>
        <time>2021-09-12T04:26:01.000Z</time>
      </trkpt>
      <trkpt lat="45.21412" lon="5.72301">
        <ele>553.59997558594</ele>
        <time>2021-09-12T04:26:02.000Z</time>
      </trkpt>
      <trkpt lat="45.21411" lon="5.72301">
        <ele>554.40002441406</ele>
        <time>2021-09-12T04:26:05.000Z</time>
      </trkpt>
      <trkpt lat="45.21409" lon="5.72303">
        <ele>554.59997558594</ele>
        <time>2021-09-12T04:26:07.000Z</time>
      </trkpt>
      <trkpt lat="45.21405" lon="5.72306">
        <ele>555.59997558594</ele>
        <time>2021-09-12T04:26:10.000Z</time>
      </trkpt>
      <trkpt lat="45.21402" lon="5.72307">
        <ele>556.59997558594</ele>
        <time>2021-09-12T04:26:13.000Z</time>
      </trkpt>
      <trkpt lat="45.21401" lon="5.72307">
        <ele>556.79998779297</ele>
        <time>2021-09-12T04:26:14.000Z</time>
      </trkpt>
      <trkpt lat="45.21396" lon="5.72317">
        <ele>557.79998779297</ele>
        <time>2021-09-12T04:26:19.000Z</time>
      </trkpt>
      <trkpt lat="45.21393" lon="5.72318">
        <ele>559</ele>
        <time>2021-09-12T04:26:23.000Z</time>
      </trkpt>
      <trkpt lat="45.21392" lon="5.72317">
        <ele>559.20001220703</ele>
        <time>2021-09-12T04:26:24.000Z</time>
      </trkpt>
      <trkpt lat="45.21389" lon="5.7232">
        <ele>560.40002441406</ele>
        <time>2021-09-12T04:26:28.000Z</time>
      </trkpt>
      <trkpt lat="45.21387" lon="5.7232">
        <ele>561</ele>
        <time>2021-09-12T04:26:30.000Z</time>
      </trkpt>
      <trkpt lat="45.21385" lon="5.72322">
        <ele>561.40002441406</ele>
        <time>2021-09-12T04:26:32.000Z</time>
      </trkpt>
      <trkpt lat="45.21381" lon="5.72325">
        <ele>561.79998779297</ele>
        <time>2021-09-12T04:26:35.000Z</time>
      </trkpt>
      <trkpt lat="45.21379" lon="5.72325">
        <ele>562.59997558594</ele>
        <time>2021-09-12T04:26:37.000Z</time>
      </trkpt>
      <trkpt lat="45.21378" lon="5.72326">
        <ele>563.40002441406</ele>
        <time>2021-09-12T04:26:39.000Z</time>
      </trkpt>
      <trkpt lat="45.21377" lon="5.72328">
        <ele>563.59997558594</ele>
        <time>2021-09-12T04:26:40.000Z</time>
      </trkpt>
      <trkpt lat="45.21375" lon="5.72331">
        <ele>564.20001220703</ele>
        <time>2021-09-12T04:26:42.000Z</time>
      </trkpt>
      <trkpt lat="45.21374" lon="5.72332">
        <ele>564.40002441406</ele>
        <time>2021-09-12T04:26:43.000Z</time>
      </trkpt>
      <trkpt lat="45.21372" lon="5.72333">
        <ele>565</ele>
        <time>2021-09-12T04:26:45.000Z</time>
      </trkpt>
      <trkpt lat="45.21367" lon="5.72334">
        <ele>566.20001220703</ele>
        <time>2021-09-12T04:26:49.000Z</time>
      </trkpt>
      <trkpt lat="45.21365" lon="5.72333">
        <ele>566.20001220703</ele>
        <time>2021-09-12T04:26:50.000Z</time>
      </trkpt>
      <trkpt lat="45.21364" lon="5.72332">
        <ele>567.20001220703</ele>
        <time>2021-09-12T04:26:52.000Z</time>
      </trkpt>
      <trkpt lat="45.21363" lon="5.72333">
        <ele>568</ele>
        <time>2021-09-12T04:26:54.000Z</time>
      </trkpt>
      <trkpt lat="45.21363" lon="5.72334">
        <ele>568.20001220703</ele>
        <time>2021-09-12T04:26:55.000Z</time>
      </trkpt>
      <trkpt lat="45.21362" lon="5.72335">
        <ele>568.59997558594</ele>
        <time>2021-09-12T04:26:57.000Z</time>
      </trkpt>
      <trkpt lat="45.21359" lon="5.72336">
        <ele>569.59997558594</ele>
        <time>2021-09-12T04:27:00.000Z</time>
      </trkpt>
      <trkpt lat="45.21356" lon="5.72335">
        <ele>570.40002441406</ele>
        <time>2021-09-12T04:27:03.000Z</time>
      </trkpt>
      <trkpt lat="45.21355" lon="5.72336">
        <ele>570.59997558594</ele>
        <time>2021-09-12T04:27:04.000Z</time>
      </trkpt>
      <trkpt lat="45.21354" lon="5.72336">
        <ele>570.79998779297</ele>
        <time>2021-09-12T04:27:05.000Z</time>
      </trkpt>
      <trkpt lat="45.21352" lon="5.72337">
        <ele>571.40002441406</ele>
        <time>2021-09-12T04:27:07.000Z</time>
      </trkpt>
      <trkpt lat="45.21349" lon="5.72337">
        <ele>571.79998779297</ele>
        <time>2021-09-12T04:27:09.000Z</time>
      </trkpt>
      <trkpt lat="45.21348" lon="5.72338">
        <ele>572.20001220703</ele>
        <time>2021-09-12T04:27:10.000Z</time>
      </trkpt>
      <trkpt lat="45.21346" lon="5.72341">
        <ele>572.79998779297</ele>
        <time>2021-09-12T04:27:12.000Z</time>
      </trkpt>
      <trkpt lat="45.21346" lon="5.72342">
        <ele>573.20001220703</ele>
        <time>2021-09-12T04:27:13.000Z</time>
      </trkpt>
      <trkpt lat="45.21347" lon="5.72342">
        <ele>573.20001220703</ele>
        <time>2021-09-12T04:27:14.000Z</time>
      </trkpt>
      <trkpt lat="45.21347" lon="5.72344">
        <ele>573.59997558594</ele>
        <time>2021-09-12T04:27:16.000Z</time>
      </trkpt>
      <trkpt lat="45.21348" lon="5.72346">
        <ele>574.20001220703</ele>
        <time>2021-09-12T04:27:18.000Z</time>
      </trkpt>
      <trkpt lat="45.21348" lon="5.72346">
        <ele>574.79998779297</ele>
        <time>2021-09-12T04:27:20.000Z</time>
      </trkpt>
      <trkpt lat="45.21349" lon="5.72347">
        <ele>575.20001220703</ele>
        <time>2021-09-12T04:27:21.000Z</time>
      </trkpt>
      <trkpt lat="45.21349" lon="5.72349">
        <ele>575.40002441406</ele>
        <time>2021-09-12T04:27:22.000Z</time>
      </trkpt>
      <trkpt lat="45.2135" lon="5.72351">
        <ele>575.79998779297</ele>
        <time>2021-09-12T04:27:23.000Z</time>
      </trkpt>
      <trkpt lat="45.21351" lon="5.72354">
        <ele>576.40002441406</ele>
        <time>2021-09-12T04:27:26.000Z</time>
      </trkpt>
      <trkpt lat="45.21351" lon="5.72354">
        <ele>576.79998779297</ele>
        <time>2021-09-12T04:27:27.000Z</time>
      </trkpt>
      <trkpt lat="45.21352" lon="5.72355">
        <ele>577.20001220703</ele>
        <time>2021-09-12T04:27:28.000Z</time>
      </trkpt>
      <trkpt lat="45.21353" lon="5.72357">
        <ele>577.79998779297</ele>
        <time>2021-09-12T04:27:30.000Z</time>
      </trkpt>
      <trkpt lat="45.21353" lon="5.72357">
        <ele>578</ele>
        <time>2021-09-12T04:27:31.000Z</time>
      </trkpt>
      <trkpt lat="45.21354" lon="5.72359">
        <ele>578.79998779297</ele>
        <time>2021-09-12T04:27:33.000Z</time>
      </trkpt>
      <trkpt lat="45.21355" lon="5.7236">
        <ele>578.79998779297</ele>
        <time>2021-09-12T04:27:34.000Z</time>
      </trkpt>
      <trkpt lat="45.21356" lon="5.72359">
        <ele>579.40002441406</ele>
        <time>2021-09-12T04:27:37.000Z</time>
      </trkpt>
      <trkpt lat="45.21357" lon="5.7236">
        <ele>579.79998779297</ele>
        <time>2021-09-12T04:27:38.000Z</time>
      </trkpt>
      <trkpt lat="45.21357" lon="5.72362">
        <ele>580.20001220703</ele>
        <time>2021-09-12T04:27:39.000Z</time>
      </trkpt>
      <trkpt lat="45.21358" lon="5.72363">
        <ele>580.59997558594</ele>
        <time>2021-09-12T04:27:40.000Z</time>
      </trkpt>
      <trkpt lat="45.2136" lon="5.72367">
        <ele>581.20001220703</ele>
        <time>2021-09-12T04:27:42.000Z</time>
      </trkpt>
      <trkpt lat="45.2136" lon="5.72369">
        <ele>581.59997558594</ele>
        <time>2021-09-12T04:27:43.000Z</time>
      </trkpt>
      <trkpt lat="45.21364" lon="5.72371">
        <ele>582.59997558594</ele>
        <time>2021-09-12T04:27:47.000Z</time>
      </trkpt>
      <trkpt lat="45.21365" lon="5.72371">
        <ele>583.20001220703</ele>
        <time>2021-09-12T04:27:49.000Z</time>
      </trkpt>
      <trkpt lat="45.21366" lon="5.72372">
        <ele>583.59997558594</ele>
        <time>2021-09-12T04:27:50.000Z</time>
      </trkpt>
      <trkpt lat="45.21369" lon="5.72374">
        <ele>584.79998779297</ele>
        <time>2021-09-12T04:27:54.000Z</time>
      </trkpt>
      <trkpt lat="45.21369" lon="5.72374">
        <ele>585</ele>
        <time>2021-09-12T04:27:55.000Z</time>
      </trkpt>
      <trkpt lat="45.21371" lon="5.72375">
        <ele>585.79998779297</ele>
        <time>2021-09-12T04:27:59.000Z</time>
      </trkpt>
      <trkpt lat="45.21372" lon="5.72376">
        <ele>586</ele>
        <time>2021-09-12T04:28:00.000Z</time>
      </trkpt>
      <trkpt lat="45.21377" lon="5.72381">
        <ele>587</ele>
        <time>2021-09-12T04:28:04.000Z</time>
      </trkpt>
      <trkpt lat="45.21379" lon="5.72384">
        <ele>587.20001220703</ele>
        <time>2021-09-12T04:28:06.000Z</time>
      </trkpt>
      <trkpt lat="45.21381" lon="5.72386">
        <ele>588.20001220703</ele>
        <time>2021-09-12T04:28:10.000Z</time>
      </trkpt>
      <trkpt lat="45.21383" lon="5.72388">
        <ele>589.20001220703</ele>
        <time>2021-09-12T04:28:13.000Z</time>
      </trkpt>
      <trkpt lat="45.21385" lon="5.72389">
        <ele>589.59997558594</ele>
        <time>2021-09-12T04:28:14.000Z</time>
      </trkpt>
      <trkpt lat="45.21386" lon="5.72389">
        <ele>589.79998779297</ele>
        <time>2021-09-12T04:28:15.000Z</time>
      </trkpt>
      <trkpt lat="45.21386" lon="5.72389">
        <ele>590.40002441406</ele>
        <time>2021-09-12T04:28:18.000Z</time>
      </trkpt>
      <trkpt lat="45.21389" lon="5.72388">
        <ele>591.79998779297</ele>
        <time>2021-09-12T04:28:21.000Z</time>
      </trkpt>
      <trkpt lat="45.2139" lon="5.72388">
        <ele>592.59997558594</ele>
        <time>2021-09-12T04:28:23.000Z</time>
      </trkpt>
      <trkpt lat="45.21391" lon="5.72388">
        <ele>592.79998779297</ele>
        <time>2021-09-12T04:28:24.000Z</time>
      </trkpt>
      <trkpt lat="45.21394" lon="5.7239">
        <ele>594.20001220703</ele>
        <time>2021-09-12T04:28:28.000Z</time>
      </trkpt>
      <trkpt lat="45.21395" lon="5.72393">
        <ele>595.20001220703</ele>
        <time>2021-09-12T04:28:30.000Z</time>
      </trkpt>
      <trkpt lat="45.21396" lon="5.72394">
        <ele>595.40002441406</ele>
        <time>2021-09-12T04:28:31.000Z</time>
      </trkpt>
      <trkpt lat="45.21398" lon="5.72397">
        <ele>596.79998779297</ele>
        <time>2021-09-12T04:28:35.000Z</time>
      </trkpt>
      <trkpt lat="45.21399" lon="5.72399">
        <ele>597.40002441406</ele>
        <time>2021-09-12T04:28:37.000Z</time>
      </trkpt>
      <trkpt lat="45.21399" lon="5.72399">
        <ele>597.79998779297</ele>
        <time>2021-09-12T04:28:38.000Z</time>
      </trkpt>
      <trkpt lat="45.21402" lon="5.72401">
        <ele>598.79998779297</ele>
        <time>2021-09-12T04:28:41.000Z</time>
      </trkpt>
      <trkpt lat="45.21402" lon="5.72402">
        <ele>599</ele>
        <time>2021-09-12T04:28:42.000Z</time>
      </trkpt>
      <trkpt lat="45.21405" lon="5.72405">
        <ele>600.20001220703</ele>
        <time>2021-09-12T04:28:45.000Z</time>
      </trkpt>
      <trkpt lat="45.21407" lon="5.72408">
        <ele>601</ele>
        <time>2021-09-12T04:28:47.000Z</time>
      </trkpt>
      <trkpt lat="45.21408" lon="5.72409">
        <ele>601.40002441406</ele>
        <time>2021-09-12T04:28:48.000Z</time>
      </trkpt>
      <trkpt lat="45.2141" lon="5.72408">
        <ele>602</ele>
        <time>2021-09-12T04:28:50.000Z</time>
      </trkpt>
      <trkpt lat="45.21411" lon="5.72407">
        <ele>602.40002441406</ele>
        <time>2021-09-12T04:28:52.000Z</time>
      </trkpt>
      <trkpt lat="45.21412" lon="5.72407">
        <ele>603.20001220703</ele>
        <time>2021-09-12T04:28:54.000Z</time>
      </trkpt>
      <trkpt lat="45.21413" lon="5.72409">
        <ele>603.59997558594</ele>
        <time>2021-09-12T04:28:55.000Z</time>
      </trkpt>
      <trkpt lat="45.21415" lon="5.72411">
        <ele>604.40002441406</ele>
        <time>2021-09-12T04:28:57.000Z</time>
      </trkpt>
      <trkpt lat="45.21415" lon="5.7241">
        <ele>604.79998779297</ele>
        <time>2021-09-12T04:28:59.000Z</time>
      </trkpt>
      <trkpt lat="45.21416" lon="5.7241">
        <ele>604.79998779297</ele>
        <time>2021-09-12T04:29:00.000Z</time>
      </trkpt>
      <trkpt lat="45.21419" lon="5.72409">
        <ele>605.79998779297</ele>
        <time>2021-09-12T04:29:03.000Z</time>
      </trkpt>
      <trkpt lat="45.21421" lon="5.72409">
        <ele>606.20001220703</ele>
        <time>2021-09-12T04:29:04.000Z</time>
      </trkpt>
      <trkpt lat="45.21425" lon="5.72413">
        <ele>607</ele>
        <time>2021-09-12T04:29:07.000Z</time>
      </trkpt>
      <trkpt lat="45.2143" lon="5.72415">
        <ele>608.20001220703</ele>
        <time>2021-09-12T04:29:11.000Z</time>
      </trkpt>
      <trkpt lat="45.21432" lon="5.72415">
        <ele>608.79998779297</ele>
        <time>2021-09-12T04:29:13.000Z</time>
      </trkpt>
      <trkpt lat="45.21436" lon="5.72416">
        <ele>609.20001220703</ele>
        <time>2021-09-12T04:29:15.000Z</time>
      </trkpt>
      <trkpt lat="45.21437" lon="5.72416">
        <ele>609.20001220703</ele>
        <time>2021-09-12T04:29:16.000Z</time>
      </trkpt>
      <trkpt lat="45.21438" lon="5.72415">
        <ele>609.79998779297</ele>
        <time>2021-09-12T04:29:19.000Z</time>
      </trkpt>
      <trkpt lat="45.21443" lon="5.72417">
        <ele>610.40002441406</ele>
        <time>2021-09-12T04:29:22.000Z</time>
      </trkpt>
      <trkpt lat="45.21449" lon="5.72423">
        <ele>611.40002441406</ele>
        <time>2021-09-12T04:29:26.000Z</time>
      </trkpt>
      <trkpt lat="45.21452" lon="5.72425">
        <ele>611.59997558594</ele>
        <time>2021-09-12T04:29:27.000Z</time>
      </trkpt>
      <trkpt lat="45.21458" lon="5.72427">
        <ele>612.59997558594</ele>
        <time>2021-09-12T04:29:31.000Z</time>
      </trkpt>
      <trkpt lat="45.21459" lon="5.72428">
        <ele>613</ele>
        <time>2021-09-12T04:29:32.000Z</time>
      </trkpt>
      <trkpt lat="45.21465" lon="5.72428">
        <ele>613.79998779297</ele>
        <time>2021-09-12T04:29:35.000Z</time>
      </trkpt>
      <trkpt lat="45.21468" lon="5.7243">
        <ele>614.20001220703</ele>
        <time>2021-09-12T04:29:37.000Z</time>
      </trkpt>
      <trkpt lat="45.2147" lon="5.72431">
        <ele>614.40002441406</ele>
        <time>2021-09-12T04:29:38.000Z</time>
      </trkpt>
      <trkpt lat="45.21474" lon="5.72433">
        <ele>615</ele>
        <time>2021-09-12T04:29:40.000Z</time>
      </trkpt>
      <trkpt lat="45.21477" lon="5.72431">
        <ele>615.40002441406</ele>
        <time>2021-09-12T04:29:43.000Z</time>
      </trkpt>
      <trkpt lat="45.21483" lon="5.72434">
        <ele>616</ele>
        <time>2021-09-12T04:29:47.000Z</time>
      </trkpt>
      <trkpt lat="45.21485" lon="5.72435">
        <ele>616.40002441406</ele>
        <time>2021-09-12T04:29:49.000Z</time>
      </trkpt>
      <trkpt lat="45.21493" lon="5.72438">
        <ele>617</ele>
        <time>2021-09-12T04:29:54.000Z</time>
      </trkpt>
      <trkpt lat="45.21495" lon="5.72438">
        <ele>616.79998779297</ele>
        <time>2021-09-12T04:29:55.000Z</time>
      </trkpt>
      <trkpt lat="45.21507" lon="5.72442">
        <ele>616.20001220703</ele>
        <time>2021-09-12T04:30:02.000Z</time>
      </trkpt>
      <trkpt lat="45.21514" lon="5.72442">
        <ele>615.59997558594</ele>
        <time>2021-09-12T04:30:06.000Z</time>
      </trkpt>
      <trkpt lat="45.21516" lon="5.72443">
        <ele>615.59997558594</ele>
        <time>2021-09-12T04:30:07.000Z</time>
      </trkpt>
      <trkpt lat="45.2152" lon="5.72445">
        <ele>615</ele>
        <time>2021-09-12T04:30:09.000Z</time>
      </trkpt>
      <trkpt lat="45.21526" lon="5.72452">
        <ele>614.40002441406</ele>
        <time>2021-09-12T04:30:13.000Z</time>
      </trkpt>
      <trkpt lat="45.21534" lon="5.72459">
        <ele>614.59997558594</ele>
        <time>2021-09-12T04:30:17.000Z</time>
      </trkpt>
      <trkpt lat="45.21536" lon="5.72457">
        <ele>614.59997558594</ele>
        <time>2021-09-12T04:30:19.000Z</time>
      </trkpt>
      <trkpt lat="45.21538" lon="5.72457">
        <ele>614.59997558594</ele>
        <time>2021-09-12T04:30:20.000Z</time>
      </trkpt>
      <trkpt lat="45.21545" lon="5.7246">
        <ele>614.59997558594</ele>
        <time>2021-09-12T04:30:23.000Z</time>
      </trkpt>
      <trkpt lat="45.21547" lon="5.72462">
        <ele>614.59997558594</ele>
        <time>2021-09-12T04:30:24.000Z</time>
      </trkpt>
      <trkpt lat="45.21562" lon="5.7247">
        <ele>614.79998779297</ele>
        <time>2021-09-12T04:30:30.000Z</time>
      </trkpt>
      <trkpt lat="45.21566" lon="5.72474">
        <ele>614.79998779297</ele>
        <time>2021-09-12T04:30:33.000Z</time>
      </trkpt>
      <trkpt lat="45.21571" lon="5.72478">
        <ele>614.79998779297</ele>
        <time>2021-09-12T04:30:35.000Z</time>
      </trkpt>
      <trkpt lat="45.2158" lon="5.72484">
        <ele>615</ele>
        <time>2021-09-12T04:30:39.000Z</time>
      </trkpt>
      <trkpt lat="45.21582" lon="5.72486">
        <ele>615</ele>
        <time>2021-09-12T04:30:40.000Z</time>
      </trkpt>
      <trkpt lat="45.21583" lon="5.72486">
        <ele>615</ele>
        <time>2021-09-12T04:30:41.000Z</time>
      </trkpt>
      <trkpt lat="45.21592" lon="5.7249">
        <ele>615.40002441406</ele>
        <time>2021-09-12T04:30:45.000Z</time>
      </trkpt>
      <trkpt lat="45.21598" lon="5.72492">
        <ele>615.79998779297</ele>
        <time>2021-09-12T04:30:48.000Z</time>
      </trkpt>
      <trkpt lat="45.216" lon="5.72493">
        <ele>616</ele>
        <time>2021-09-12T04:30:50.000Z</time>
      </trkpt>
      <trkpt lat="45.21612" lon="5.72497">
        <ele>616.40002441406</ele>
        <time>2021-09-12T04:30:55.000Z</time>
      </trkpt>
      <trkpt lat="45.21614" lon="5.72497">
        <ele>616.59997558594</ele>
        <time>2021-09-12T04:30:57.000Z</time>
      </trkpt>
      <trkpt lat="45.21615" lon="5.72496">
        <ele>616.79998779297</ele>
        <time>2021-09-12T04:30:58.000Z</time>
      </trkpt>
      <trkpt lat="45.21618" lon="5.72497">
        <ele>617.20001220703</ele>
        <time>2021-09-12T04:31:00.000Z</time>
      </trkpt>
      <trkpt lat="45.21619" lon="5.72497">
        <ele>617.20001220703</ele>
        <time>2021-09-12T04:31:01.000Z</time>
      </trkpt>
      <trkpt lat="45.21621" lon="5.72498">
        <ele>617.40002441406</ele>
        <time>2021-09-12T04:31:02.000Z</time>
      </trkpt>
      <trkpt lat="45.21623" lon="5.725">
        <ele>617.59997558594</ele>
        <time>2021-09-12T04:31:03.000Z</time>
      </trkpt>
      <trkpt lat="45.21625" lon="5.72502">
        <ele>618.20001220703</ele>
        <time>2021-09-12T04:31:05.000Z</time>
      </trkpt>
      <trkpt lat="45.21634" lon="5.72504">
        <ele>619.20001220703</ele>
        <time>2021-09-12T04:31:10.000Z</time>
      </trkpt>
      <trkpt lat="45.21637" lon="5.72507">
        <ele>619.59997558594</ele>
        <time>2021-09-12T04:31:12.000Z</time>
      </trkpt>
      <trkpt lat="45.21646" lon="5.72512">
        <ele>620.40002441406</ele>
        <time>2021-09-12T04:31:15.000Z</time>
      </trkpt>
      <trkpt lat="45.21651" lon="5.72514">
        <ele>620.59997558594</ele>
        <time>2021-09-12T04:31:17.000Z</time>
      </trkpt>
      <trkpt lat="45.21665" lon="5.72521">
        <ele>621</ele>
        <time>2021-09-12T04:31:22.000Z</time>
      </trkpt>
      <trkpt lat="45.21672" lon="5.72524">
        <ele>621.20001220703</ele>
        <time>2021-09-12T04:31:25.000Z</time>
      </trkpt>
      <trkpt lat="45.21674" lon="5.72523">
        <ele>621.40002441406</ele>
        <time>2021-09-12T04:31:26.000Z</time>
      </trkpt>
      <trkpt lat="45.21679" lon="5.72524">
        <ele>621.79998779297</ele>
        <time>2021-09-12T04:31:28.000Z</time>
      </trkpt>
      <trkpt lat="45.21683" lon="5.72525">
        <ele>622.59997558594</ele>
        <time>2021-09-12T04:31:31.000Z</time>
      </trkpt>
      <trkpt lat="45.21685" lon="5.72525">
        <ele>622.79998779297</ele>
        <time>2021-09-12T04:31:32.000Z</time>
      </trkpt>
      <trkpt lat="45.21689" lon="5.72529">
        <ele>623.20001220703</ele>
        <time>2021-09-12T04:31:34.000Z</time>
      </trkpt>
      <trkpt lat="45.21693" lon="5.72533">
        <ele>623.20001220703</ele>
        <time>2021-09-12T04:31:37.000Z</time>
      </trkpt>
      <trkpt lat="45.21703" lon="5.72538">
        <ele>623.20001220703</ele>
        <time>2021-09-12T04:31:41.000Z</time>
      </trkpt>
      <trkpt lat="45.21712" lon="5.7254">
        <ele>623.40002441406</ele>
        <time>2021-09-12T04:31:45.000Z</time>
      </trkpt>
      <trkpt lat="45.21714" lon="5.72541">
        <ele>623.40002441406</ele>
        <time>2021-09-12T04:31:46.000Z</time>
      </trkpt>
      <trkpt lat="45.2173" lon="5.72552">
        <ele>623.59997558594</ele>
        <time>2021-09-12T04:31:54.000Z</time>
      </trkpt>
      <trkpt lat="45.2174" lon="5.7256">
        <ele>623.59997558594</ele>
        <time>2021-09-12T04:31:58.000Z</time>
      </trkpt>
      <trkpt lat="45.21741" lon="5.7256">
        <ele>624</ele>
        <time>2021-09-12T04:31:59.000Z</time>
      </trkpt>
      <trkpt lat="45.21748" lon="5.72566">
        <ele>624.59997558594</ele>
        <time>2021-09-12T04:32:04.000Z</time>
      </trkpt>
      <trkpt lat="45.2175" lon="5.72567">
        <ele>624.59997558594</ele>
        <time>2021-09-12T04:32:05.000Z</time>
      </trkpt>
      <trkpt lat="45.2176" lon="5.72568">
        <ele>625.40002441406</ele>
        <time>2021-09-12T04:32:10.000Z</time>
      </trkpt>
      <trkpt lat="45.21764" lon="5.72569">
        <ele>625.79998779297</ele>
        <time>2021-09-12T04:32:12.000Z</time>
      </trkpt>
      <trkpt lat="45.21771" lon="5.72572">
        <ele>626.20001220703</ele>
        <time>2021-09-12T04:32:15.000Z</time>
      </trkpt>
      <trkpt lat="45.21778" lon="5.72573">
        <ele>627</ele>
        <time>2021-09-12T04:32:19.000Z</time>
      </trkpt>
      <trkpt lat="45.21783" lon="5.72576">
        <ele>628</ele>
        <time>2021-09-12T04:32:22.000Z</time>
      </trkpt>
      <trkpt lat="45.21784" lon="5.72577">
        <ele>628.20001220703</ele>
        <time>2021-09-12T04:32:23.000Z</time>
      </trkpt>
      <trkpt lat="45.21785" lon="5.72579">
        <ele>628.79998779297</ele>
        <time>2021-09-12T04:32:26.000Z</time>
      </trkpt>
      <trkpt lat="45.21789" lon="5.72576">
        <ele>629</ele>
        <time>2021-09-12T04:32:32.000Z</time>
      </trkpt>
      <trkpt lat="45.21794" lon="5.72575">
        <ele>628.20001220703</ele>
        <time>2021-09-12T04:32:36.000Z</time>
      </trkpt>
      <trkpt lat="45.21795" lon="5.72574">
        <ele>627.79998779297</ele>
        <time>2021-09-12T04:32:37.000Z</time>
      </trkpt>
      <trkpt lat="45.218" lon="5.72573">
        <ele>627.20001220703</ele>
        <time>2021-09-12T04:32:40.000Z</time>
      </trkpt>
      <trkpt lat="45.21802" lon="5.72574">
        <ele>626.59997558594</ele>
        <time>2021-09-12T04:32:41.000Z</time>
      </trkpt>
      <trkpt lat="45.21803" lon="5.72573">
        <ele>626</ele>
        <time>2021-09-12T04:32:42.000Z</time>
      </trkpt>
      <trkpt lat="45.21809" lon="5.72573">
        <ele>625.40002441406</ele>
        <time>2021-09-12T04:32:44.000Z</time>
      </trkpt>
      <trkpt lat="45.2181" lon="5.72572">
        <ele>625</ele>
        <time>2021-09-12T04:32:45.000Z</time>
      </trkpt>
      <trkpt lat="45.21812" lon="5.72572">
        <ele>624.40002441406</ele>
        <time>2021-09-12T04:32:46.000Z</time>
      </trkpt>
      <trkpt lat="45.21815" lon="5.72572">
        <ele>623.79998779297</ele>
        <time>2021-09-12T04:32:48.000Z</time>
      </trkpt>
      <trkpt lat="45.21821" lon="5.72575">
        <ele>622.59997558594</ele>
        <time>2021-09-12T04:32:51.000Z</time>
      </trkpt>
      <trkpt lat="45.21823" lon="5.72576">
        <ele>622.20001220703</ele>
        <time>2021-09-12T04:32:52.000Z</time>
      </trkpt>
      <trkpt lat="45.21827" lon="5.72577">
        <ele>621.40002441406</ele>
        <time>2021-09-12T04:32:54.000Z</time>
      </trkpt>
      <trkpt lat="45.21832" lon="5.72578">
        <ele>620.40002441406</ele>
        <time>2021-09-12T04:32:57.000Z</time>
      </trkpt>
      <trkpt lat="45.21836" lon="5.72578">
        <ele>619.40002441406</ele>
        <time>2021-09-12T04:32:59.000Z</time>
      </trkpt>
      <trkpt lat="45.21839" lon="5.72579">
        <ele>619</ele>
        <time>2021-09-12T04:33:00.000Z</time>
      </trkpt>
      <trkpt lat="45.21843" lon="5.72582">
        <ele>618.20001220703</ele>
        <time>2021-09-12T04:33:02.000Z</time>
      </trkpt>
      <trkpt lat="45.21849" lon="5.72583">
        <ele>617.20001220703</ele>
        <time>2021-09-12T04:33:06.000Z</time>
      </trkpt>
      <trkpt lat="45.21854" lon="5.72583">
        <ele>616.20001220703</ele>
        <time>2021-09-12T04:33:09.000Z</time>
      </trkpt>
      <trkpt lat="45.21853" lon="5.72572">
        <ele>615.20001220703</ele>
        <time>2021-09-12T04:33:13.000Z</time>
      </trkpt>
      <trkpt lat="45.21854" lon="5.72568">
        <ele>615</ele>
        <time>2021-09-12T04:33:14.000Z</time>
      </trkpt>
      <trkpt lat="45.21855" lon="5.72565">
        <ele>614.59997558594</ele>
        <time>2021-09-12T04:33:15.000Z</time>
      </trkpt>
      <trkpt lat="45.21855" lon="5.72558">
        <ele>613.79998779297</ele>
        <time>2021-09-12T04:33:17.000Z</time>
      </trkpt>
      <trkpt lat="45.21856" lon="5.72547">
        <ele>613.20001220703</ele>
        <time>2021-09-12T04:33:20.000Z</time>
      </trkpt>
      <trkpt lat="45.21857" lon="5.72545">
        <ele>612.79998779297</ele>
        <time>2021-09-12T04:33:21.000Z</time>
      </trkpt>
      <trkpt lat="45.21861" lon="5.72541">
        <ele>612.20001220703</ele>
        <time>2021-09-12T04:33:23.000Z</time>
      </trkpt>
      <trkpt lat="45.21863" lon="5.7254">
        <ele>612</ele>
        <time>2021-09-12T04:33:24.000Z</time>
      </trkpt>
      <trkpt lat="45.21865" lon="5.72539">
        <ele>611.79998779297</ele>
        <time>2021-09-12T04:33:25.000Z</time>
      </trkpt>
      <trkpt lat="45.21871" lon="5.72537">
        <ele>610.59997558594</ele>
        <time>2021-09-12T04:33:28.000Z</time>
      </trkpt>
      <trkpt lat="45.21877" lon="5.72536">
        <ele>609.59997558594</ele>
        <time>2021-09-12T04:33:31.000Z</time>
      </trkpt>
      <trkpt lat="45.21887" lon="5.72533">
        <ele>608.40002441406</ele>
        <time>2021-09-12T04:33:35.000Z</time>
      </trkpt>
      <trkpt lat="45.2189" lon="5.72532">
        <ele>607.79998779297</ele>
        <time>2021-09-12T04:33:37.000Z</time>
      </trkpt>
      <trkpt lat="45.21891" lon="5.72529">
        <ele>607</ele>
        <time>2021-09-12T04:33:39.000Z</time>
      </trkpt>
      <trkpt lat="45.21894" lon="5.7253">
        <ele>606</ele>
        <time>2021-09-12T04:33:41.000Z</time>
      </trkpt>
      <trkpt lat="45.21899" lon="5.72528">
        <ele>604.59997558594</ele>
        <time>2021-09-12T04:33:44.000Z</time>
      </trkpt>
      <trkpt lat="45.21903" lon="5.72527">
        <ele>603.59997558594</ele>
        <time>2021-09-12T04:33:46.000Z</time>
      </trkpt>
      <trkpt lat="45.21904" lon="5.72527">
        <ele>603.20001220703</ele>
        <time>2021-09-12T04:33:47.000Z</time>
      </trkpt>
      <trkpt lat="45.21905" lon="5.72526">
        <ele>602.79998779297</ele>
        <time>2021-09-12T04:33:48.000Z</time>
      </trkpt>
      <trkpt lat="45.21906" lon="5.72524">
        <ele>602.59997558594</ele>
        <time>2021-09-12T04:33:49.000Z</time>
      </trkpt>
      <trkpt lat="45.21908" lon="5.72524">
        <ele>602.20001220703</ele>
        <time>2021-09-12T04:33:50.000Z</time>
      </trkpt>
      <trkpt lat="45.21909" lon="5.72523">
        <ele>602</ele>
        <time>2021-09-12T04:33:51.000Z</time>
      </trkpt>
      <trkpt lat="45.21912" lon="5.72521">
        <ele>601</ele>
        <time>2021-09-12T04:33:53.000Z</time>
      </trkpt>
      <trkpt lat="45.21916" lon="5.72519">
        <ele>599.59997558594</ele>
        <time>2021-09-12T04:33:55.000Z</time>
      </trkpt>
      <trkpt lat="45.2192" lon="5.72516">
        <ele>598.79998779297</ele>
        <time>2021-09-12T04:33:57.000Z</time>
      </trkpt>
      <trkpt lat="45.21923" lon="5.72512">
        <ele>598.20001220703</ele>
        <time>2021-09-12T04:33:58.000Z</time>
      </trkpt>
      <trkpt lat="45.21929" lon="5.72513">
        <ele>597</ele>
        <time>2021-09-12T04:34:00.000Z</time>
      </trkpt>
      <trkpt lat="45.21933" lon="5.72512">
        <ele>596</ele>
        <time>2021-09-12T04:34:02.000Z</time>
      </trkpt>
      <trkpt lat="45.21938" lon="5.72507">
        <ele>594.79998779297</ele>
        <time>2021-09-12T04:34:05.000Z</time>
      </trkpt>
      <trkpt lat="45.21945" lon="5.72507">
        <ele>593.40002441406</ele>
        <time>2021-09-12T04:34:08.000Z</time>
      </trkpt>
      <trkpt lat="45.21947" lon="5.72506">
        <ele>593</ele>
        <time>2021-09-12T04:34:09.000Z</time>
      </trkpt>
      <trkpt lat="45.21951" lon="5.72503">
        <ele>592.40002441406</ele>
        <time>2021-09-12T04:34:11.000Z</time>
      </trkpt>
      <trkpt lat="45.21954" lon="5.72502">
        <ele>592</ele>
        <time>2021-09-12T04:34:12.000Z</time>
      </trkpt>
      <trkpt lat="45.21958" lon="5.72499">
        <ele>591.20001220703</ele>
        <time>2021-09-12T04:34:14.000Z</time>
      </trkpt>
      <trkpt lat="45.21961" lon="5.72498">
        <ele>590.79998779297</ele>
        <time>2021-09-12T04:34:15.000Z</time>
      </trkpt>
      <trkpt lat="45.21965" lon="5.72497">
        <ele>590</ele>
        <time>2021-09-12T04:34:17.000Z</time>
      </trkpt>
      <trkpt lat="45.21972" lon="5.72497">
        <ele>589.20001220703</ele>
        <time>2021-09-12T04:34:19.000Z</time>
      </trkpt>
      <trkpt lat="45.21975" lon="5.72497">
        <ele>589</ele>
        <time>2021-09-12T04:34:20.000Z</time>
      </trkpt>
      <trkpt lat="45.21977" lon="5.72497">
        <ele>588.59997558594</ele>
        <time>2021-09-12T04:34:21.000Z</time>
      </trkpt>
      <trkpt lat="45.2198" lon="5.72496">
        <ele>587.79998779297</ele>
        <time>2021-09-12T04:34:23.000Z</time>
      </trkpt>
      <trkpt lat="45.21982" lon="5.72495">
        <ele>587.59997558594</ele>
        <time>2021-09-12T04:34:24.000Z</time>
      </trkpt>
      <trkpt lat="45.21991" lon="5.72498">
        <ele>586.79998779297</ele>
        <time>2021-09-12T04:34:27.000Z</time>
      </trkpt>
      <trkpt lat="45.21997" lon="5.72502">
        <ele>586</ele>
        <time>2021-09-12T04:34:30.000Z</time>
      </trkpt>
      <trkpt lat="45.21999" lon="5.72503">
        <ele>585.79998779297</ele>
        <time>2021-09-12T04:34:31.000Z</time>
      </trkpt>
      <trkpt lat="45.22" lon="5.72502">
        <ele>585.59997558594</ele>
        <time>2021-09-12T04:34:32.000Z</time>
      </trkpt>
      <trkpt lat="45.22007" lon="5.72504">
        <ele>584.79998779297</ele>
        <time>2021-09-12T04:34:34.000Z</time>
      </trkpt>
      <trkpt lat="45.2201" lon="5.72505">
        <ele>584.40002441406</ele>
        <time>2021-09-12T04:34:35.000Z</time>
      </trkpt>
      <trkpt lat="45.22014" lon="5.72505">
        <ele>583.20001220703</ele>
        <time>2021-09-12T04:34:38.000Z</time>
      </trkpt>
      <trkpt lat="45.22013" lon="5.72505">
        <ele>582.79998779297</ele>
        <time>2021-09-12T04:34:39.000Z</time>
      </trkpt>
      <trkpt lat="45.22012" lon="5.72506">
        <ele>582.59997558594</ele>
        <time>2021-09-12T04:34:41.000Z</time>
      </trkpt>
      <trkpt lat="45.22012" lon="5.72509">
        <ele>582.79998779297</ele>
        <time>2021-09-12T04:34:43.000Z</time>
      </trkpt>
      <trkpt lat="45.2201" lon="5.72511">
        <ele>583.20001220703</ele>
        <time>2021-09-12T04:34:45.000Z</time>
      </trkpt>
      <trkpt lat="45.22006" lon="5.7251">
        <ele>583.79998779297</ele>
        <time>2021-09-12T04:34:48.000Z</time>
      </trkpt>
      <trkpt lat="45.22004" lon="5.7251">
        <ele>584.20001220703</ele>
        <time>2021-09-12T04:34:50.000Z</time>
      </trkpt>
      <trkpt lat="45.22002" lon="5.7251">
        <ele>584.79998779297</ele>
        <time>2021-09-12T04:34:54.000Z</time>
      </trkpt>
      <trkpt lat="45.22001" lon="5.72509">
        <ele>585.20001220703</ele>
        <time>2021-09-12T04:34:55.000Z</time>
      </trkpt>
      <trkpt lat="45.21997" lon="5.7251">
        <ele>586.20001220703</ele>
        <time>2021-09-12T04:34:59.000Z</time>
      </trkpt>
      <trkpt lat="45.21996" lon="5.72511">
        <ele>586.79998779297</ele>
        <time>2021-09-12T04:35:01.000Z</time>
      </trkpt>
      <trkpt lat="45.21992" lon="5.72511">
        <ele>587.20001220703</ele>
        <time>2021-09-12T04:35:03.000Z</time>
      </trkpt>
      <trkpt lat="45.2199" lon="5.72511">
        <ele>587.40002441406</ele>
        <time>2021-09-12T04:35:04.000Z</time>
      </trkpt>
      <trkpt lat="45.21989" lon="5.72511">
        <ele>587.59997558594</ele>
        <time>2021-09-12T04:35:05.000Z</time>
      </trkpt>
      <trkpt lat="45.21985" lon="5.72511">
        <ele>588.40002441406</ele>
        <time>2021-09-12T04:35:08.000Z</time>
      </trkpt>
      <trkpt lat="45.21983" lon="5.7251">
        <ele>588.59997558594</ele>
        <time>2021-09-12T04:35:09.000Z</time>
      </trkpt>
      <trkpt lat="45.21982" lon="5.72511">
        <ele>588.79998779297</ele>
        <time>2021-09-12T04:35:10.000Z</time>
      </trkpt>
      <trkpt lat="45.2198" lon="5.72512">
        <ele>589.40002441406</ele>
        <time>2021-09-12T04:35:12.000Z</time>
      </trkpt>
      <trkpt lat="45.21979" lon="5.72514">
        <ele>589.59997558594</ele>
        <time>2021-09-12T04:35:14.000Z</time>
      </trkpt>
      <trkpt lat="45.21978" lon="5.72514">
        <ele>589.79998779297</ele>
        <time>2021-09-12T04:35:15.000Z</time>
      </trkpt>
      <trkpt lat="45.21975" lon="5.72515">
        <ele>590.79998779297</ele>
        <time>2021-09-12T04:35:19.000Z</time>
      </trkpt>
      <trkpt lat="45.21973" lon="5.72515">
        <ele>591</ele>
        <time>2021-09-12T04:35:20.000Z</time>
      </trkpt>
      <trkpt lat="45.21969" lon="5.72514">
        <ele>592</ele>
        <time>2021-09-12T04:35:23.000Z</time>
      </trkpt>
      <trkpt lat="45.21967" lon="5.72513">
        <ele>592.40002441406</ele>
        <time>2021-09-12T04:35:25.000Z</time>
      </trkpt>
      <trkpt lat="45.21964" lon="5.72516">
        <ele>592.79998779297</ele>
        <time>2021-09-12T04:35:27.000Z</time>
      </trkpt>
      <trkpt lat="45.21962" lon="5.72517">
        <ele>593.20001220703</ele>
        <time>2021-09-12T04:35:28.000Z</time>
      </trkpt>
      <trkpt lat="45.21958" lon="5.72518">
        <ele>594.20001220703</ele>
        <time>2021-09-12T04:35:31.000Z</time>
      </trkpt>
      <trkpt lat="45.21957" lon="5.72518">
        <ele>594.40002441406</ele>
        <time>2021-09-12T04:35:32.000Z</time>
      </trkpt>
      <trkpt lat="45.21953" lon="5.72521">
        <ele>595.40002441406</ele>
        <time>2021-09-12T04:35:35.000Z</time>
      </trkpt>
      <trkpt lat="45.21951" lon="5.72521">
        <ele>595.79998779297</ele>
        <time>2021-09-12T04:35:36.000Z</time>
      </trkpt>
      <trkpt lat="45.21948" lon="5.72521">
        <ele>596.40002441406</ele>
        <time>2021-09-12T04:35:38.000Z</time>
      </trkpt>
      <trkpt lat="45.21946" lon="5.72522">
        <ele>596.79998779297</ele>
        <time>2021-09-12T04:35:39.000Z</time>
      </trkpt>
      <trkpt lat="45.21943" lon="5.72524">
        <ele>597.40002441406</ele>
        <time>2021-09-12T04:35:41.000Z</time>
      </trkpt>
      <trkpt lat="45.21941" lon="5.72525">
        <ele>597.59997558594</ele>
        <time>2021-09-12T04:35:42.000Z</time>
      </trkpt>
      <trkpt lat="45.2194" lon="5.72526">
        <ele>598</ele>
        <time>2021-09-12T04:35:43.000Z</time>
      </trkpt>
      <trkpt lat="45.21939" lon="5.72527">
        <ele>598.59997558594</ele>
        <time>2021-09-12T04:35:45.000Z</time>
      </trkpt>
      <trkpt lat="45.21935" lon="5.7253">
        <ele>599.40002441406</ele>
        <time>2021-09-12T04:35:47.000Z</time>
      </trkpt>
      <trkpt lat="45.21932" lon="5.72534">
        <ele>600</ele>
        <time>2021-09-12T04:35:49.000Z</time>
      </trkpt>
      <trkpt lat="45.21931" lon="5.72535">
        <ele>600.20001220703</ele>
        <time>2021-09-12T04:35:50.000Z</time>
      </trkpt>
      <trkpt lat="45.2193" lon="5.72537">
        <ele>600.59997558594</ele>
        <time>2021-09-12T04:35:51.000Z</time>
      </trkpt>
      <trkpt lat="45.21927" lon="5.72542">
        <ele>601.40002441406</ele>
        <time>2021-09-12T04:35:54.000Z</time>
      </trkpt>
      <trkpt lat="45.21925" lon="5.72543">
        <ele>601.79998779297</ele>
        <time>2021-09-12T04:35:55.000Z</time>
      </trkpt>
      <trkpt lat="45.21923" lon="5.72545">
        <ele>602.59997558594</ele>
        <time>2021-09-12T04:35:57.000Z</time>
      </trkpt>
      <trkpt lat="45.21922" lon="5.72545">
        <ele>602.79998779297</ele>
        <time>2021-09-12T04:35:58.000Z</time>
      </trkpt>
      <trkpt lat="45.2192" lon="5.72546">
        <ele>603.40002441406</ele>
        <time>2021-09-12T04:36:00.000Z</time>
      </trkpt>
      <trkpt lat="45.21917" lon="5.72548">
        <ele>604</ele>
        <time>2021-09-12T04:36:02.000Z</time>
      </trkpt>
      <trkpt lat="45.21913" lon="5.72555">
        <ele>605</ele>
        <time>2021-09-12T04:36:05.000Z</time>
      </trkpt>
      <trkpt lat="45.21911" lon="5.72557">
        <ele>605.40002441406</ele>
        <time>2021-09-12T04:36:06.000Z</time>
      </trkpt>
      <trkpt lat="45.2191" lon="5.72557">
        <ele>605.79998779297</ele>
        <time>2021-09-12T04:36:07.000Z</time>
      </trkpt>
      <trkpt lat="45.21908" lon="5.7256">
        <ele>606.59997558594</ele>
        <time>2021-09-12T04:36:10.000Z</time>
      </trkpt>
      <trkpt lat="45.21908" lon="5.7256">
        <ele>607</ele>
        <time>2021-09-12T04:36:11.000Z</time>
      </trkpt>
      <trkpt lat="45.21905" lon="5.72562">
        <ele>607.79998779297</ele>
        <time>2021-09-12T04:36:14.000Z</time>
      </trkpt>
      <trkpt lat="45.21901" lon="5.72562">
        <ele>608.59997558594</ele>
        <time>2021-09-12T04:36:17.000Z</time>
      </trkpt>
      <trkpt lat="45.21899" lon="5.72562">
        <ele>608.79998779297</ele>
        <time>2021-09-12T04:36:18.000Z</time>
      </trkpt>
      <trkpt lat="45.21894" lon="5.72562">
        <ele>609.79998779297</ele>
        <time>2021-09-12T04:36:22.000Z</time>
      </trkpt>
      <trkpt lat="45.21893" lon="5.72561">
        <ele>609.79998779297</ele>
        <time>2021-09-12T04:36:23.000Z</time>
      </trkpt>
      <trkpt lat="45.21885" lon="5.72562">
        <ele>610.79998779297</ele>
        <time>2021-09-12T04:36:27.000Z</time>
      </trkpt>
      <trkpt lat="45.21883" lon="5.72562">
        <ele>611</ele>
        <time>2021-09-12T04:36:28.000Z</time>
      </trkpt>
      <trkpt lat="45.21882" lon="5.72562">
        <ele>611.20001220703</ele>
        <time>2021-09-12T04:36:29.000Z</time>
      </trkpt>
      <trkpt lat="45.21879" lon="5.72565">
        <ele>611.79998779297</ele>
        <time>2021-09-12T04:36:31.000Z</time>
      </trkpt>
      <trkpt lat="45.21879" lon="5.72567">
        <ele>612</ele>
        <time>2021-09-12T04:36:32.000Z</time>
      </trkpt>
      <trkpt lat="45.21877" lon="5.72574">
        <ele>612.79998779297</ele>
        <time>2021-09-12T04:36:35.000Z</time>
      </trkpt>
      <trkpt lat="45.21876" lon="5.72575">
        <ele>613</ele>
        <time>2021-09-12T04:36:36.000Z</time>
      </trkpt>
      <trkpt lat="45.21874" lon="5.72576">
        <ele>613</ele>
        <time>2021-09-12T04:36:37.000Z</time>
      </trkpt>
      <trkpt lat="45.21873" lon="5.72578">
        <ele>613.20001220703</ele>
        <time>2021-09-12T04:36:38.000Z</time>
      </trkpt>
      <trkpt lat="45.21871" lon="5.72584">
        <ele>614</ele>
        <time>2021-09-12T04:36:41.000Z</time>
      </trkpt>
      <trkpt lat="45.2187" lon="5.72586">
        <ele>614.20001220703</ele>
        <time>2021-09-12T04:36:42.000Z</time>
      </trkpt>
      <trkpt lat="45.21869" lon="5.72591">
        <ele>614.59997558594</ele>
        <time>2021-09-12T04:36:44.000Z</time>
      </trkpt>
      <trkpt lat="45.21867" lon="5.72596">
        <ele>615.20001220703</ele>
        <time>2021-09-12T04:36:46.000Z</time>
      </trkpt>
      <trkpt lat="45.21867" lon="5.72599">
        <ele>614.20001220703</ele>
        <time>2021-09-12T04:36:47.000Z</time>
      </trkpt>
      <trkpt lat="45.21866" lon="5.72609">
        <ele>615.40002441406</ele>
        <time>2021-09-12T04:36:53.000Z</time>
      </trkpt>
      <trkpt lat="45.21866" lon="5.72612">
        <ele>616</ele>
        <time>2021-09-12T04:36:55.000Z</time>
      </trkpt>
      <trkpt lat="45.21865" lon="5.72614">
        <ele>616.20001220703</ele>
        <time>2021-09-12T04:36:56.000Z</time>
      </trkpt>
      <trkpt lat="45.21865" lon="5.72616">
        <ele>616.79998779297</ele>
        <time>2021-09-12T04:36:58.000Z</time>
      </trkpt>
      <trkpt lat="45.21865" lon="5.72616">
        <ele>617.20001220703</ele>
        <time>2021-09-12T04:36:59.000Z</time>
      </trkpt>
      <trkpt lat="45.21864" lon="5.72617">
        <ele>617.59997558594</ele>
        <time>2021-09-12T04:37:00.000Z</time>
      </trkpt>
      <trkpt lat="45.21863" lon="5.72618">
        <ele>617.79998779297</ele>
        <time>2021-09-12T04:37:01.000Z</time>
      </trkpt>
      <trkpt lat="45.21862" lon="5.72619">
        <ele>618.40002441406</ele>
        <time>2021-09-12T04:37:03.000Z</time>
      </trkpt>
      <trkpt lat="45.21862" lon="5.72622">
        <ele>619.20001220703</ele>
        <time>2021-09-12T04:37:05.000Z</time>
      </trkpt>
      <trkpt lat="45.21861" lon="5.72624">
        <ele>619.40002441406</ele>
        <time>2021-09-12T04:37:06.000Z</time>
      </trkpt>
      <trkpt lat="45.2186" lon="5.72626">
        <ele>620.40002441406</ele>
        <time>2021-09-12T04:37:10.000Z</time>
      </trkpt>
      <trkpt lat="45.21861" lon="5.72627">
        <ele>620.79998779297</ele>
        <time>2021-09-12T04:37:11.000Z</time>
      </trkpt>
      <trkpt lat="45.2186" lon="5.72631">
        <ele>621.59997558594</ele>
        <time>2021-09-12T04:37:13.000Z</time>
      </trkpt>
      <trkpt lat="45.21859" lon="5.72632">
        <ele>622</ele>
        <time>2021-09-12T04:37:14.000Z</time>
      </trkpt>
      <trkpt lat="45.21858" lon="5.72633">
        <ele>622.40002441406</ele>
        <time>2021-09-12T04:37:16.000Z</time>
      </trkpt>
      <trkpt lat="45.21858" lon="5.72635">
        <ele>623</ele>
        <time>2021-09-12T04:37:18.000Z</time>
      </trkpt>
      <trkpt lat="45.21858" lon="5.72639">
        <ele>624.59997558594</ele>
        <time>2021-09-12T04:37:22.000Z</time>
      </trkpt>
      <trkpt lat="45.21857" lon="5.72639">
        <ele>625</ele>
        <time>2021-09-12T04:37:23.000Z</time>
      </trkpt>
      <trkpt lat="45.21858" lon="5.72643">
        <ele>625.40002441406</ele>
        <time>2021-09-12T04:37:25.000Z</time>
      </trkpt>
      <trkpt lat="45.21858" lon="5.72644">
        <ele>625.79998779297</ele>
        <time>2021-09-12T04:37:26.000Z</time>
      </trkpt>
      <trkpt lat="45.21857" lon="5.72645">
        <ele>626.20001220703</ele>
        <time>2021-09-12T04:37:27.000Z</time>
      </trkpt>
      <trkpt lat="45.21857" lon="5.72649">
        <ele>627</ele>
        <time>2021-09-12T04:37:29.000Z</time>
      </trkpt>
      <trkpt lat="45.21857" lon="5.72652">
        <ele>627.79998779297</ele>
        <time>2021-09-12T04:37:32.000Z</time>
      </trkpt>
      <trkpt lat="45.21857" lon="5.72654">
        <ele>628.20001220703</ele>
        <time>2021-09-12T04:37:33.000Z</time>
      </trkpt>
      <trkpt lat="45.21857" lon="5.72656">
        <ele>628.59997558594</ele>
        <time>2021-09-12T04:37:34.000Z</time>
      </trkpt>
      <trkpt lat="45.21858" lon="5.7266">
        <ele>629</ele>
        <time>2021-09-12T04:37:36.000Z</time>
      </trkpt>
      <trkpt lat="45.21859" lon="5.72662">
        <ele>629.40002441406</ele>
        <time>2021-09-12T04:37:37.000Z</time>
      </trkpt>
      <trkpt lat="45.21862" lon="5.72665">
        <ele>630.40002441406</ele>
        <time>2021-09-12T04:37:40.000Z</time>
      </trkpt>
      <trkpt lat="45.21862" lon="5.72664">
        <ele>630.59997558594</ele>
        <time>2021-09-12T04:37:41.000Z</time>
      </trkpt>
      <trkpt lat="45.21864" lon="5.72664">
        <ele>631.20001220703</ele>
        <time>2021-09-12T04:37:43.000Z</time>
      </trkpt>
      <trkpt lat="45.21865" lon="5.72664">
        <ele>631.40002441406</ele>
        <time>2021-09-12T04:37:44.000Z</time>
      </trkpt>
      <trkpt lat="45.21867" lon="5.72663">
        <ele>632.40002441406</ele>
        <time>2021-09-12T04:37:47.000Z</time>
      </trkpt>
      <trkpt lat="45.21868" lon="5.72663">
        <ele>632.59997558594</ele>
        <time>2021-09-12T04:37:48.000Z</time>
      </trkpt>
      <trkpt lat="45.21871" lon="5.72661">
        <ele>633.59997558594</ele>
        <time>2021-09-12T04:37:51.000Z</time>
      </trkpt>
      <trkpt lat="45.21872" lon="5.7266">
        <ele>634.40002441406</ele>
        <time>2021-09-12T04:37:54.000Z</time>
      </trkpt>
      <trkpt lat="45.21872" lon="5.72659">
        <ele>634.59997558594</ele>
        <time>2021-09-12T04:37:55.000Z</time>
      </trkpt>
      <trkpt lat="45.21873" lon="5.72658">
        <ele>635.20001220703</ele>
        <time>2021-09-12T04:37:56.000Z</time>
      </trkpt>
      <trkpt lat="45.21875" lon="5.72658">
        <ele>635.79998779297</ele>
        <time>2021-09-12T04:37:58.000Z</time>
      </trkpt>
      <trkpt lat="45.21875" lon="5.72657">
        <ele>636.20001220703</ele>
        <time>2021-09-12T04:38:00.000Z</time>
      </trkpt>
      <trkpt lat="45.21877" lon="5.72655">
        <ele>637.20001220703</ele>
        <time>2021-09-12T04:38:02.000Z</time>
      </trkpt>
      <trkpt lat="45.2188" lon="5.72653">
        <ele>638.20001220703</ele>
        <time>2021-09-12T04:38:07.000Z</time>
      </trkpt>
      <trkpt lat="45.2188" lon="5.72651">
        <ele>639.59997558594</ele>
        <time>2021-09-12T04:38:10.000Z</time>
      </trkpt>
      <trkpt lat="45.21881" lon="5.72648">
        <ele>640.20001220703</ele>
        <time>2021-09-12T04:38:12.000Z</time>
      </trkpt>
      <trkpt lat="45.21881" lon="5.72647">
        <ele>640.79998779297</ele>
        <time>2021-09-12T04:38:14.000Z</time>
      </trkpt>
      <trkpt lat="45.21881" lon="5.72645">
        <ele>640.79998779297</ele>
        <time>2021-09-12T04:38:15.000Z</time>
      </trkpt>
      <trkpt lat="45.21882" lon="5.72644">
        <ele>641.79998779297</ele>
        <time>2021-09-12T04:38:17.000Z</time>
      </trkpt>
      <trkpt lat="45.21883" lon="5.72641">
        <ele>642.40002441406</ele>
        <time>2021-09-12T04:38:20.000Z</time>
      </trkpt>
      <trkpt lat="45.21883" lon="5.7264">
        <ele>642.79998779297</ele>
        <time>2021-09-12T04:38:21.000Z</time>
      </trkpt>
      <trkpt lat="45.21885" lon="5.72639">
        <ele>644</ele>
        <time>2021-09-12T04:38:23.000Z</time>
      </trkpt>
      <trkpt lat="45.21888" lon="5.72637">
        <ele>645.20001220703</ele>
        <time>2021-09-12T04:38:28.000Z</time>
      </trkpt>
      <trkpt lat="45.21889" lon="5.72636">
        <ele>645.79998779297</ele>
        <time>2021-09-12T04:38:29.000Z</time>
      </trkpt>
      <trkpt lat="45.21889" lon="5.72636">
        <ele>646.20001220703</ele>
        <time>2021-09-12T04:38:30.000Z</time>
      </trkpt>
      <trkpt lat="45.21893" lon="5.72636">
        <ele>646.79998779297</ele>
        <time>2021-09-12T04:38:32.000Z</time>
      </trkpt>
      <trkpt lat="45.21895" lon="5.72636">
        <ele>647.40002441406</ele>
        <time>2021-09-12T04:38:34.000Z</time>
      </trkpt>
      <trkpt lat="45.21895" lon="5.72635">
        <ele>647.59997558594</ele>
        <time>2021-09-12T04:38:35.000Z</time>
      </trkpt>
      <trkpt lat="45.21897" lon="5.72636">
        <ele>648.59997558594</ele>
        <time>2021-09-12T04:38:38.000Z</time>
      </trkpt>
      <trkpt lat="45.21897" lon="5.72637">
        <ele>648.79998779297</ele>
        <time>2021-09-12T04:38:39.000Z</time>
      </trkpt>
      <trkpt lat="45.21898" lon="5.72637">
        <ele>649</ele>
        <time>2021-09-12T04:38:40.000Z</time>
      </trkpt>
      <trkpt lat="45.21898" lon="5.72637">
        <ele>649.20001220703</ele>
        <time>2021-09-12T04:38:41.000Z</time>
      </trkpt>
      <trkpt lat="45.219" lon="5.72639">
        <ele>649.59997558594</ele>
        <time>2021-09-12T04:38:43.000Z</time>
      </trkpt>
      <trkpt lat="45.219" lon="5.7264">
        <ele>650.40002441406</ele>
        <time>2021-09-12T04:38:45.000Z</time>
      </trkpt>
      <trkpt lat="45.219" lon="5.72641">
        <ele>650.79998779297</ele>
        <time>2021-09-12T04:38:46.000Z</time>
      </trkpt>
      <trkpt lat="45.21901" lon="5.72642">
        <ele>651</ele>
        <time>2021-09-12T04:38:47.000Z</time>
      </trkpt>
      <trkpt lat="45.21903" lon="5.72644">
        <ele>651.79998779297</ele>
        <time>2021-09-12T04:38:49.000Z</time>
      </trkpt>
      <trkpt lat="45.21905" lon="5.7265">
        <ele>653</ele>
        <time>2021-09-12T04:38:54.000Z</time>
      </trkpt>
      <trkpt lat="45.2191" lon="5.72656">
        <ele>654.20001220703</ele>
        <time>2021-09-12T04:38:59.000Z</time>
      </trkpt>
      <trkpt lat="45.21915" lon="5.72661">
        <ele>655.20001220703</ele>
        <time>2021-09-12T04:39:02.000Z</time>
      </trkpt>
      <trkpt lat="45.21916" lon="5.72663">
        <ele>655.59997558594</ele>
        <time>2021-09-12T04:39:03.000Z</time>
      </trkpt>
      <trkpt lat="45.21917" lon="5.72665">
        <ele>655.59997558594</ele>
        <time>2021-09-12T04:39:04.000Z</time>
      </trkpt>
      <trkpt lat="45.2192" lon="5.7267">
        <ele>656.59997558594</ele>
        <time>2021-09-12T04:39:06.000Z</time>
      </trkpt>
      <trkpt lat="45.21921" lon="5.72671">
        <ele>656.79998779297</ele>
        <time>2021-09-12T04:39:07.000Z</time>
      </trkpt>
      <trkpt lat="45.21923" lon="5.72674">
        <ele>657.59997558594</ele>
        <time>2021-09-12T04:39:10.000Z</time>
      </trkpt>
      <trkpt lat="45.21924" lon="5.72675">
        <ele>657.79998779297</ele>
        <time>2021-09-12T04:39:11.000Z</time>
      </trkpt>
      <trkpt lat="45.21925" lon="5.72675">
        <ele>658</ele>
        <time>2021-09-12T04:39:12.000Z</time>
      </trkpt>
      <trkpt lat="45.21926" lon="5.72675">
        <ele>658.59997558594</ele>
        <time>2021-09-12T04:39:14.000Z</time>
      </trkpt>
      <trkpt lat="45.21926" lon="5.72675">
        <ele>659.20001220703</ele>
        <time>2021-09-12T04:39:15.000Z</time>
      </trkpt>
      <trkpt lat="45.21926" lon="5.72675">
        <ele>659.59997558594</ele>
        <time>2021-09-12T04:39:16.000Z</time>
      </trkpt>
      <trkpt lat="45.21927" lon="5.72677">
        <ele>660.20001220703</ele>
        <time>2021-09-12T04:39:18.000Z</time>
      </trkpt>
      <trkpt lat="45.2193" lon="5.72677">
        <ele>661.79998779297</ele>
        <time>2021-09-12T04:39:22.000Z</time>
      </trkpt>
      <trkpt lat="45.2193" lon="5.72677">
        <ele>662.20001220703</ele>
        <time>2021-09-12T04:39:23.000Z</time>
      </trkpt>
      <trkpt lat="45.21932" lon="5.72678">
        <ele>663</ele>
        <time>2021-09-12T04:39:25.000Z</time>
      </trkpt>
      <trkpt lat="45.21933" lon="5.72679">
        <ele>663.40002441406</ele>
        <time>2021-09-12T04:39:27.000Z</time>
      </trkpt>
      <trkpt lat="45.21934" lon="5.72681">
        <ele>663.79998779297</ele>
        <time>2021-09-12T04:39:29.000Z</time>
      </trkpt>
      <trkpt lat="45.21936" lon="5.72682">
        <ele>664</ele>
        <time>2021-09-12T04:39:30.000Z</time>
      </trkpt>
      <trkpt lat="45.21936" lon="5.72683">
        <ele>664.20001220703</ele>
        <time>2021-09-12T04:39:31.000Z</time>
      </trkpt>
      <trkpt lat="45.21937" lon="5.72686">
        <ele>664.59997558594</ele>
        <time>2021-09-12T04:39:32.000Z</time>
      </trkpt>
      <trkpt lat="45.21939" lon="5.72688">
        <ele>665.20001220703</ele>
        <time>2021-09-12T04:39:34.000Z</time>
      </trkpt>
      <trkpt lat="45.21942" lon="5.72691">
        <ele>665.40002441406</ele>
        <time>2021-09-12T04:39:36.000Z</time>
      </trkpt>
      <trkpt lat="45.21943" lon="5.72692">
        <ele>665.79998779297</ele>
        <time>2021-09-12T04:39:37.000Z</time>
      </trkpt>
      <trkpt lat="45.21946" lon="5.72694">
        <ele>666.40002441406</ele>
        <time>2021-09-12T04:39:39.000Z</time>
      </trkpt>
      <trkpt lat="45.21956" lon="5.72701">
        <ele>667</ele>
        <time>2021-09-12T04:39:45.000Z</time>
      </trkpt>
      <trkpt lat="45.21967" lon="5.72706">
        <ele>666.79998779297</ele>
        <time>2021-09-12T04:39:51.000Z</time>
      </trkpt>
      <trkpt lat="45.2198" lon="5.72708">
        <ele>665.79998779297</ele>
        <time>2021-09-12T04:39:57.000Z</time>
      </trkpt>
      <trkpt lat="45.21988" lon="5.72709">
        <ele>665.20001220703</ele>
        <time>2021-09-12T04:40:01.000Z</time>
      </trkpt>
      <trkpt lat="45.2199" lon="5.7271">
        <ele>665</ele>
        <time>2021-09-12T04:40:02.000Z</time>
      </trkpt>
      <trkpt lat="45.22" lon="5.72712">
        <ele>664.40002441406</ele>
        <time>2021-09-12T04:40:07.000Z</time>
      </trkpt>
      <trkpt lat="45.22002" lon="5.72712">
        <ele>664</ele>
        <time>2021-09-12T04:40:08.000Z</time>
      </trkpt>
      <trkpt lat="45.22009" lon="5.72716">
        <ele>662.79998779297</ele>
        <time>2021-09-12T04:40:12.000Z</time>
      </trkpt>
      <trkpt lat="45.22015" lon="5.7272">
        <ele>661.79998779297</ele>
        <time>2021-09-12T04:40:15.000Z</time>
      </trkpt>
      <trkpt lat="45.22018" lon="5.72719">
        <ele>660.59997558594</ele>
        <time>2021-09-12T04:40:18.000Z</time>
      </trkpt>
      <trkpt lat="45.22022" lon="5.72722">
        <ele>660</ele>
        <time>2021-09-12T04:40:20.000Z</time>
      </trkpt>
      <trkpt lat="45.22024" lon="5.72725">
        <ele>659.20001220703</ele>
        <time>2021-09-12T04:40:22.000Z</time>
      </trkpt>
      <trkpt lat="45.22027" lon="5.7273">
        <ele>658.20001220703</ele>
        <time>2021-09-12T04:40:25.000Z</time>
      </trkpt>
      <trkpt lat="45.22028" lon="5.7273">
        <ele>657.59997558594</ele>
        <time>2021-09-12T04:40:26.000Z</time>
      </trkpt>
      <trkpt lat="45.22032" lon="5.72732">
        <ele>657</ele>
        <time>2021-09-12T04:40:28.000Z</time>
      </trkpt>
      <trkpt lat="45.22037" lon="5.72734">
        <ele>656.40002441406</ele>
        <time>2021-09-12T04:40:31.000Z</time>
      </trkpt>
      <trkpt lat="45.22041" lon="5.72737">
        <ele>656.20001220703</ele>
        <time>2021-09-12T04:40:33.000Z</time>
      </trkpt>
      <trkpt lat="45.22043" lon="5.72739">
        <ele>656</ele>
        <time>2021-09-12T04:40:34.000Z</time>
      </trkpt>
      <trkpt lat="45.22046" lon="5.72742">
        <ele>656</ele>
        <time>2021-09-12T04:40:35.000Z</time>
      </trkpt>
      <trkpt lat="45.22055" lon="5.72747">
        <ele>655.20001220703</ele>
        <time>2021-09-12T04:40:39.000Z</time>
      </trkpt>
      <trkpt lat="45.22061" lon="5.72751">
        <ele>655.20001220703</ele>
        <time>2021-09-12T04:40:43.000Z</time>
      </trkpt>
      <trkpt lat="45.22063" lon="5.72753">
        <ele>655.20001220703</ele>
        <time>2021-09-12T04:40:44.000Z</time>
      </trkpt>
      <trkpt lat="45.22067" lon="5.72755">
        <ele>655.59997558594</ele>
        <time>2021-09-12T04:40:46.000Z</time>
      </trkpt>
      <trkpt lat="45.22068" lon="5.72754">
        <ele>655.79998779297</ele>
        <time>2021-09-12T04:40:47.000Z</time>
      </trkpt>
      <trkpt lat="45.22069" lon="5.72754">
        <ele>656</ele>
        <time>2021-09-12T04:40:48.000Z</time>
      </trkpt>
      <trkpt lat="45.2207" lon="5.72753">
        <ele>656</ele>
        <time>2021-09-12T04:40:49.000Z</time>
      </trkpt>
      <trkpt lat="45.22077" lon="5.72752">
        <ele>657.20001220703</ele>
        <time>2021-09-12T04:40:52.000Z</time>
      </trkpt>
      <trkpt lat="45.22079" lon="5.72752">
        <ele>657.59997558594</ele>
        <time>2021-09-12T04:40:53.000Z</time>
      </trkpt>
      <trkpt lat="45.22086" lon="5.72754">
        <ele>658.40002441406</ele>
        <time>2021-09-12T04:40:57.000Z</time>
      </trkpt>
      <trkpt lat="45.22089" lon="5.72757">
        <ele>658.59997558594</ele>
        <time>2021-09-12T04:40:59.000Z</time>
      </trkpt>
      <trkpt lat="45.22092" lon="5.72758">
        <ele>659</ele>
        <time>2021-09-12T04:41:00.000Z</time>
      </trkpt>
      <trkpt lat="45.22097" lon="5.72759">
        <ele>659.40002441406</ele>
        <time>2021-09-12T04:41:02.000Z</time>
      </trkpt>
      <trkpt lat="45.22098" lon="5.72759">
        <ele>659.79998779297</ele>
        <time>2021-09-12T04:41:03.000Z</time>
      </trkpt>
      <trkpt lat="45.221" lon="5.7276">
        <ele>660</ele>
        <time>2021-09-12T04:41:04.000Z</time>
      </trkpt>
      <trkpt lat="45.22102" lon="5.72761">
        <ele>660.40002441406</ele>
        <time>2021-09-12T04:41:05.000Z</time>
      </trkpt>
      <trkpt lat="45.22104" lon="5.72762">
        <ele>660.40002441406</ele>
        <time>2021-09-12T04:41:06.000Z</time>
      </trkpt>
      <trkpt lat="45.22105" lon="5.72762">
        <ele>660.79998779297</ele>
        <time>2021-09-12T04:41:07.000Z</time>
      </trkpt>
      <trkpt lat="45.22106" lon="5.72761">
        <ele>661.20001220703</ele>
        <time>2021-09-12T04:41:08.000Z</time>
      </trkpt>
      <trkpt lat="45.22107" lon="5.7276">
        <ele>661.59997558594</ele>
        <time>2021-09-12T04:41:09.000Z</time>
      </trkpt>
      <trkpt lat="45.22109" lon="5.72761">
        <ele>662</ele>
        <time>2021-09-12T04:41:10.000Z</time>
      </trkpt>
      <trkpt lat="45.22112" lon="5.72763">
        <ele>662.79998779297</ele>
        <time>2021-09-12T04:41:12.000Z</time>
      </trkpt>
      <trkpt lat="45.22113" lon="5.72764">
        <ele>663.20001220703</ele>
        <time>2021-09-12T04:41:13.000Z</time>
      </trkpt>
      <trkpt lat="45.22121" lon="5.72773">
        <ele>663.79998779297</ele>
        <time>2021-09-12T04:41:18.000Z</time>
      </trkpt>
      <trkpt lat="45.22124" lon="5.72775">
        <ele>663.79998779297</ele>
        <time>2021-09-12T04:41:20.000Z</time>
      </trkpt>
      <trkpt lat="45.22125" lon="5.72774">
        <ele>663.79998779297</ele>
        <time>2021-09-12T04:41:21.000Z</time>
      </trkpt>
      <trkpt lat="45.22126" lon="5.72775">
        <ele>663.59997558594</ele>
        <time>2021-09-12T04:41:22.000Z</time>
      </trkpt>
      <trkpt lat="45.22127" lon="5.72776">
        <ele>663.40002441406</ele>
        <time>2021-09-12T04:41:24.000Z</time>
      </trkpt>
      <trkpt lat="45.2213" lon="5.72774">
        <ele>663</ele>
        <time>2021-09-12T04:41:26.000Z</time>
      </trkpt>
      <trkpt lat="45.22135" lon="5.72774">
        <ele>661.79998779297</ele>
        <time>2021-09-12T04:41:30.000Z</time>
      </trkpt>
      <trkpt lat="45.22138" lon="5.72773">
        <ele>660.59997558594</ele>
        <time>2021-09-12T04:41:33.000Z</time>
      </trkpt>
      <trkpt lat="45.22138" lon="5.72773">
        <ele>659.79998779297</ele>
        <time>2021-09-12T04:41:35.000Z</time>
      </trkpt>
      <trkpt lat="45.22138" lon="5.72771">
        <ele>659</ele>
        <time>2021-09-12T04:41:37.000Z</time>
      </trkpt>
      <trkpt lat="45.22139" lon="5.72767">
        <ele>658.40002441406</ele>
        <time>2021-09-12T04:41:39.000Z</time>
      </trkpt>
      <trkpt lat="45.2214" lon="5.72766">
        <ele>658</ele>
        <time>2021-09-12T04:41:40.000Z</time>
      </trkpt>
      <trkpt lat="45.22143" lon="5.72765">
        <ele>657</ele>
        <time>2021-09-12T04:41:42.000Z</time>
      </trkpt>
      <trkpt lat="45.22143" lon="5.72765">
        <ele>656.40002441406</ele>
        <time>2021-09-12T04:41:43.000Z</time>
      </trkpt>
      <trkpt lat="45.22145" lon="5.72765">
        <ele>655.40002441406</ele>
        <time>2021-09-12T04:41:45.000Z</time>
      </trkpt>
      <trkpt lat="45.22147" lon="5.72766">
        <ele>654.79998779297</ele>
        <time>2021-09-12T04:41:47.000Z</time>
      </trkpt>
      <trkpt lat="45.22147" lon="5.72765">
        <ele>654.59997558594</ele>
        <time>2021-09-12T04:41:48.000Z</time>
      </trkpt>
      <trkpt lat="45.22147" lon="5.72763">
        <ele>654</ele>
        <time>2021-09-12T04:41:49.000Z</time>
      </trkpt>
      <trkpt lat="45.22148" lon="5.72761">
        <ele>653.20001220703</ele>
        <time>2021-09-12T04:41:51.000Z</time>
      </trkpt>
      <trkpt lat="45.22149" lon="5.7276">
        <ele>652.59997558594</ele>
        <time>2021-09-12T04:41:52.000Z</time>
      </trkpt>
      <trkpt lat="45.22151" lon="5.72759">
        <ele>652.20001220703</ele>
        <time>2021-09-12T04:41:53.000Z</time>
      </trkpt>
      <trkpt lat="45.22152" lon="5.72756">
        <ele>651.40002441406</ele>
        <time>2021-09-12T04:41:54.000Z</time>
      </trkpt>
      <trkpt lat="45.22153" lon="5.7275">
        <ele>650.20001220703</ele>
        <time>2021-09-12T04:41:56.000Z</time>
      </trkpt>
      <trkpt lat="45.22153" lon="5.72748">
        <ele>649.79998779297</ele>
        <time>2021-09-12T04:41:57.000Z</time>
      </trkpt>
      <trkpt lat="45.22154" lon="5.72749">
        <ele>649.40002441406</ele>
        <time>2021-09-12T04:41:58.000Z</time>
      </trkpt>
      <trkpt lat="45.22154" lon="5.72747">
        <ele>649.20001220703</ele>
        <time>2021-09-12T04:41:59.000Z</time>
      </trkpt>
      <trkpt lat="45.22155" lon="5.72736">
        <ele>648.20001220703</ele>
        <time>2021-09-12T04:42:02.000Z</time>
      </trkpt>
      <trkpt lat="45.22156" lon="5.72733">
        <ele>647.59997558594</ele>
        <time>2021-09-12T04:42:03.000Z</time>
      </trkpt>
      <trkpt lat="45.22163" lon="5.72726">
        <ele>647</ele>
        <time>2021-09-12T04:42:06.000Z</time>
      </trkpt>
      <trkpt lat="45.22171" lon="5.7272">
        <ele>647.59997558594</ele>
        <time>2021-09-12T04:42:11.000Z</time>
      </trkpt>
      <trkpt lat="45.22173" lon="5.72716">
        <ele>648</ele>
        <time>2021-09-12T04:42:13.000Z</time>
      </trkpt>
      <trkpt lat="45.22174" lon="5.72709">
        <ele>648.40002441406</ele>
        <time>2021-09-12T04:42:15.000Z</time>
      </trkpt>
      <trkpt lat="45.22175" lon="5.72707">
        <ele>648.79998779297</ele>
        <time>2021-09-12T04:42:16.000Z</time>
      </trkpt>
      <trkpt lat="45.22179" lon="5.72703">
        <ele>649.59997558594</ele>
        <time>2021-09-12T04:42:19.000Z</time>
      </trkpt>
      <trkpt lat="45.22181" lon="5.72702">
        <ele>649.79998779297</ele>
        <time>2021-09-12T04:42:20.000Z</time>
      </trkpt>
      <trkpt lat="45.22181" lon="5.72699">
        <ele>649.79998779297</ele>
        <time>2021-09-12T04:42:21.000Z</time>
      </trkpt>
      <trkpt lat="45.22184" lon="5.72699">
        <ele>650</ele>
        <time>2021-09-12T04:42:22.000Z</time>
      </trkpt>
      <trkpt lat="45.22189" lon="5.72698">
        <ele>650.20001220703</ele>
        <time>2021-09-12T04:42:24.000Z</time>
      </trkpt>
      <trkpt lat="45.22192" lon="5.72698">
        <ele>650.20001220703</ele>
        <time>2021-09-12T04:42:25.000Z</time>
      </trkpt>
      <trkpt lat="45.222" lon="5.72698">
        <ele>650.20001220703</ele>
        <time>2021-09-12T04:42:29.000Z</time>
      </trkpt>
      <trkpt lat="45.22202" lon="5.72697">
        <ele>650</ele>
        <time>2021-09-12T04:42:30.000Z</time>
      </trkpt>
      <trkpt lat="45.22204" lon="5.72697">
        <ele>650</ele>
        <time>2021-09-12T04:42:31.000Z</time>
      </trkpt>
      <trkpt lat="45.22212" lon="5.72701">
        <ele>650</ele>
        <time>2021-09-12T04:42:35.000Z</time>
      </trkpt>
      <trkpt lat="45.22228" lon="5.7271">
        <ele>649.59997558594</ele>
        <time>2021-09-12T04:42:42.000Z</time>
      </trkpt>
      <trkpt lat="45.22235" lon="5.72711">
        <ele>649.59997558594</ele>
        <time>2021-09-12T04:42:46.000Z</time>
      </trkpt>
      <trkpt lat="45.2224" lon="5.72709">
        <ele>649.79998779297</ele>
        <time>2021-09-12T04:42:48.000Z</time>
      </trkpt>
      <trkpt lat="45.22249" lon="5.72716">
        <ele>650.20001220703</ele>
        <time>2021-09-12T04:42:52.000Z</time>
      </trkpt>
      <trkpt lat="45.22253" lon="5.72721">
        <ele>650.40002441406</ele>
        <time>2021-09-12T04:42:55.000Z</time>
      </trkpt>
      <trkpt lat="45.22258" lon="5.72721">
        <ele>650.59997558594</ele>
        <time>2021-09-12T04:42:57.000Z</time>
      </trkpt>
      <trkpt lat="45.22262" lon="5.72722">
        <ele>650.59997558594</ele>
        <time>2021-09-12T04:42:59.000Z</time>
      </trkpt>
      <trkpt lat="45.22267" lon="5.72724">
        <ele>650.79998779297</ele>
        <time>2021-09-12T04:43:01.000Z</time>
      </trkpt>
      <trkpt lat="45.22269" lon="5.72725">
        <ele>651</ele>
        <time>2021-09-12T04:43:02.000Z</time>
      </trkpt>
      <trkpt lat="45.22277" lon="5.7273">
        <ele>651.40002441406</ele>
        <time>2021-09-12T04:43:05.000Z</time>
      </trkpt>
      <trkpt lat="45.22282" lon="5.72736">
        <ele>652</ele>
        <time>2021-09-12T04:43:07.000Z</time>
      </trkpt>
      <trkpt lat="45.22284" lon="5.72738">
        <ele>652.20001220703</ele>
        <time>2021-09-12T04:43:08.000Z</time>
      </trkpt>
      <trkpt lat="45.22292" lon="5.7274">
        <ele>652.59997558594</ele>
        <time>2021-09-12T04:43:13.000Z</time>
      </trkpt>
      <trkpt lat="45.22295" lon="5.72736">
        <ele>652</ele>
        <time>2021-09-12T04:43:16.000Z</time>
      </trkpt>
      <trkpt lat="45.22297" lon="5.72736">
        <ele>651.40002441406</ele>
        <time>2021-09-12T04:43:18.000Z</time>
      </trkpt>
      <trkpt lat="45.223" lon="5.72736">
        <ele>651</ele>
        <time>2021-09-12T04:43:19.000Z</time>
      </trkpt>
      <trkpt lat="45.22307" lon="5.72737">
        <ele>650</ele>
        <time>2021-09-12T04:43:22.000Z</time>
      </trkpt>
      <trkpt lat="45.2231" lon="5.72737">
        <ele>649.59997558594</ele>
        <time>2021-09-12T04:43:24.000Z</time>
      </trkpt>
      <trkpt lat="45.22315" lon="5.72739">
        <ele>648.79998779297</ele>
        <time>2021-09-12T04:43:28.000Z</time>
      </trkpt>
      <trkpt lat="45.22318" lon="5.72738">
        <ele>648.59997558594</ele>
        <time>2021-09-12T04:43:30.000Z</time>
      </trkpt>
      <trkpt lat="45.22323" lon="5.72736">
        <ele>647.79998779297</ele>
        <time>2021-09-12T04:43:33.000Z</time>
      </trkpt>
      <trkpt lat="45.22325" lon="5.72735">
        <ele>647.79998779297</ele>
        <time>2021-09-12T04:43:34.000Z</time>
      </trkpt>
      <trkpt lat="45.22339" lon="5.72733">
        <ele>647</ele>
        <time>2021-09-12T04:43:39.000Z</time>
      </trkpt>
      <trkpt lat="45.22342" lon="5.72734">
        <ele>647</ele>
        <time>2021-09-12T04:43:40.000Z</time>
      </trkpt>
      <trkpt lat="45.22345" lon="5.72734">
        <ele>646.79998779297</ele>
        <time>2021-09-12T04:43:42.000Z</time>
      </trkpt>
      <trkpt lat="45.2235" lon="5.72734">
        <ele>646.79998779297</ele>
        <time>2021-09-12T04:43:44.000Z</time>
      </trkpt>
      <trkpt lat="45.22353" lon="5.72735">
        <ele>646.79998779297</ele>
        <time>2021-09-12T04:43:45.000Z</time>
      </trkpt>
      <trkpt lat="45.22356" lon="5.72735">
        <ele>646.79998779297</ele>
        <time>2021-09-12T04:43:46.000Z</time>
      </trkpt>
      <trkpt lat="45.2236" lon="5.72736">
        <ele>646.79998779297</ele>
        <time>2021-09-12T04:43:48.000Z</time>
      </trkpt>
      <trkpt lat="45.22368" lon="5.72738">
        <ele>646.79998779297</ele>
        <time>2021-09-12T04:43:51.000Z</time>
      </trkpt>
      <trkpt lat="45.2238" lon="5.7274">
        <ele>647.59997558594</ele>
        <time>2021-09-12T04:43:56.000Z</time>
      </trkpt>
      <trkpt lat="45.22385" lon="5.7274">
        <ele>647.79998779297</ele>
        <time>2021-09-12T04:43:59.000Z</time>
      </trkpt>
      <trkpt lat="45.22387" lon="5.7274">
        <ele>647.79998779297</ele>
        <time>2021-09-12T04:44:00.000Z</time>
      </trkpt>
      <trkpt lat="45.22391" lon="5.72741">
        <ele>647.40002441406</ele>
        <time>2021-09-12T04:44:02.000Z</time>
      </trkpt>
      <trkpt lat="45.224" lon="5.72746">
        <ele>646.79998779297</ele>
        <time>2021-09-12T04:44:06.000Z</time>
      </trkpt>
      <trkpt lat="45.22405" lon="5.72741">
        <ele>645.40002441406</ele>
        <time>2021-09-12T04:44:10.000Z</time>
      </trkpt>
      <trkpt lat="45.22405" lon="5.72741">
        <ele>645.20001220703</ele>
        <time>2021-09-12T04:44:11.000Z</time>
      </trkpt>
      <trkpt lat="45.22406" lon="5.7274">
        <ele>644.59997558594</ele>
        <time>2021-09-12T04:44:12.000Z</time>
      </trkpt>
      <trkpt lat="45.22408" lon="5.72739">
        <ele>644.20001220703</ele>
        <time>2021-09-12T04:44:13.000Z</time>
      </trkpt>
      <trkpt lat="45.22409" lon="5.72738">
        <ele>643.79998779297</ele>
        <time>2021-09-12T04:44:14.000Z</time>
      </trkpt>
      <trkpt lat="45.22411" lon="5.72738">
        <ele>642.79998779297</ele>
        <time>2021-09-12T04:44:16.000Z</time>
      </trkpt>
      <trkpt lat="45.22415" lon="5.72738">
        <ele>641.59997558594</ele>
        <time>2021-09-12T04:44:19.000Z</time>
      </trkpt>
      <trkpt lat="45.22422" lon="5.72737">
        <ele>640.59997558594</ele>
        <time>2021-09-12T04:44:22.000Z</time>
      </trkpt>
      <trkpt lat="45.22429" lon="5.72737">
        <ele>639.40002441406</ele>
        <time>2021-09-12T04:44:25.000Z</time>
      </trkpt>
      <trkpt lat="45.22437" lon="5.7274">
        <ele>638.79998779297</ele>
        <time>2021-09-12T04:44:28.000Z</time>
      </trkpt>
      <trkpt lat="45.22452" lon="5.72744">
        <ele>638.40002441406</ele>
        <time>2021-09-12T04:44:33.000Z</time>
      </trkpt>
      <trkpt lat="45.2246" lon="5.72744">
        <ele>638.40002441406</ele>
        <time>2021-09-12T04:44:38.000Z</time>
      </trkpt>
      <trkpt lat="45.22471" lon="5.72753">
        <ele>638.79998779297</ele>
        <time>2021-09-12T04:44:44.000Z</time>
      </trkpt>
      <trkpt lat="45.22476" lon="5.72757">
        <ele>639.59997558594</ele>
        <time>2021-09-12T04:44:47.000Z</time>
      </trkpt>
      <trkpt lat="45.22479" lon="5.72758">
        <ele>640.20001220703</ele>
        <time>2021-09-12T04:44:49.000Z</time>
      </trkpt>
      <trkpt lat="45.2248" lon="5.72759">
        <ele>640.40002441406</ele>
        <time>2021-09-12T04:44:50.000Z</time>
      </trkpt>
      <trkpt lat="45.22483" lon="5.7276">
        <ele>640.59997558594</ele>
        <time>2021-09-12T04:44:52.000Z</time>
      </trkpt>
      <trkpt lat="45.22485" lon="5.72759">
        <ele>640.40002441406</ele>
        <time>2021-09-12T04:44:53.000Z</time>
      </trkpt>
      <trkpt lat="45.22486" lon="5.72756">
        <ele>640.40002441406</ele>
        <time>2021-09-12T04:44:54.000Z</time>
      </trkpt>
      <trkpt lat="45.22488" lon="5.72753">
        <ele>640.40002441406</ele>
        <time>2021-09-12T04:44:56.000Z</time>
      </trkpt>
      <trkpt lat="45.22491" lon="5.72749">
        <ele>640.40002441406</ele>
        <time>2021-09-12T04:44:58.000Z</time>
      </trkpt>
      <trkpt lat="45.22494" lon="5.72745">
        <ele>640.40002441406</ele>
        <time>2021-09-12T04:45:00.000Z</time>
      </trkpt>
      <trkpt lat="45.22495" lon="5.72741">
        <ele>640.40002441406</ele>
        <time>2021-09-12T04:45:01.000Z</time>
      </trkpt>
      <trkpt lat="45.22498" lon="5.72732">
        <ele>640.20001220703</ele>
        <time>2021-09-12T04:45:05.000Z</time>
      </trkpt>
      <trkpt lat="45.22501" lon="5.7273">
        <ele>640.20001220703</ele>
        <time>2021-09-12T04:45:07.000Z</time>
      </trkpt>
      <trkpt lat="45.22502" lon="5.7273">
        <ele>640.20001220703</ele>
        <time>2021-09-12T04:45:08.000Z</time>
      </trkpt>
      <trkpt lat="45.22503" lon="5.72729">
        <ele>639.59997558594</ele>
        <time>2021-09-12T04:45:10.000Z</time>
      </trkpt>
      <trkpt lat="45.22504" lon="5.72727">
        <ele>639.40002441406</ele>
        <time>2021-09-12T04:45:12.000Z</time>
      </trkpt>
      <trkpt lat="45.22506" lon="5.72727">
        <ele>639.20001220703</ele>
        <time>2021-09-12T04:45:14.000Z</time>
      </trkpt>
      <trkpt lat="45.22507" lon="5.72726">
        <ele>638.79998779297</ele>
        <time>2021-09-12T04:45:15.000Z</time>
      </trkpt>
      <trkpt lat="45.22508" lon="5.72725">
        <ele>638.40002441406</ele>
        <time>2021-09-12T04:45:16.000Z</time>
      </trkpt>
      <trkpt lat="45.22512" lon="5.72721">
        <ele>637.40002441406</ele>
        <time>2021-09-12T04:45:20.000Z</time>
      </trkpt>
      <trkpt lat="45.22513" lon="5.72721">
        <ele>637</ele>
        <time>2021-09-12T04:45:21.000Z</time>
      </trkpt>
      <trkpt lat="45.22515" lon="5.72721">
        <ele>636.79998779297</ele>
        <time>2021-09-12T04:45:22.000Z</time>
      </trkpt>
      <trkpt lat="45.22517" lon="5.72721">
        <ele>636.20001220703</ele>
        <time>2021-09-12T04:45:23.000Z</time>
      </trkpt>
      <trkpt lat="45.22521" lon="5.72721">
        <ele>635.59997558594</ele>
        <time>2021-09-12T04:45:25.000Z</time>
      </trkpt>
      <trkpt lat="45.22523" lon="5.72721">
        <ele>634.79998779297</ele>
        <time>2021-09-12T04:45:27.000Z</time>
      </trkpt>
      <trkpt lat="45.22531" lon="5.72723">
        <ele>633.79998779297</ele>
        <time>2021-09-12T04:45:30.000Z</time>
      </trkpt>
      <trkpt lat="45.22536" lon="5.72722">
        <ele>632.79998779297</ele>
        <time>2021-09-12T04:45:32.000Z</time>
      </trkpt>
      <trkpt lat="45.22538" lon="5.72723">
        <ele>632.40002441406</ele>
        <time>2021-09-12T04:45:33.000Z</time>
      </trkpt>
      <trkpt lat="45.2254" lon="5.72722">
        <ele>631.79998779297</ele>
        <time>2021-09-12T04:45:34.000Z</time>
      </trkpt>
      <trkpt lat="45.22543" lon="5.72721">
        <ele>631</ele>
        <time>2021-09-12T04:45:36.000Z</time>
      </trkpt>
      <trkpt lat="45.22544" lon="5.72722">
        <ele>630.59997558594</ele>
        <time>2021-09-12T04:45:37.000Z</time>
      </trkpt>
      <trkpt lat="45.22547" lon="5.72722">
        <ele>630.20001220703</ele>
        <time>2021-09-12T04:45:38.000Z</time>
      </trkpt>
      <trkpt lat="45.22548" lon="5.72722">
        <ele>629.40002441406</ele>
        <time>2021-09-12T04:45:39.000Z</time>
      </trkpt>
      <trkpt lat="45.22553" lon="5.7272">
        <ele>628.40002441406</ele>
        <time>2021-09-12T04:45:41.000Z</time>
      </trkpt>
      <trkpt lat="45.22554" lon="5.72718">
        <ele>628</ele>
        <time>2021-09-12T04:45:42.000Z</time>
      </trkpt>
      <trkpt lat="45.22556" lon="5.72717">
        <ele>627.59997558594</ele>
        <time>2021-09-12T04:45:43.000Z</time>
      </trkpt>
      <trkpt lat="45.2256" lon="5.72717">
        <ele>626.59997558594</ele>
        <time>2021-09-12T04:45:45.000Z</time>
      </trkpt>
      <trkpt lat="45.22561" lon="5.72716">
        <ele>626.20001220703</ele>
        <time>2021-09-12T04:45:46.000Z</time>
      </trkpt>
      <trkpt lat="45.22564" lon="5.72717">
        <ele>625.20001220703</ele>
        <time>2021-09-12T04:45:48.000Z</time>
      </trkpt>
      <trkpt lat="45.22569" lon="5.72717">
        <ele>624</ele>
        <time>2021-09-12T04:45:51.000Z</time>
      </trkpt>
      <trkpt lat="45.22575" lon="5.72715">
        <ele>622.40002441406</ele>
        <time>2021-09-12T04:45:54.000Z</time>
      </trkpt>
      <trkpt lat="45.22578" lon="5.72715">
        <ele>622</ele>
        <time>2021-09-12T04:45:55.000Z</time>
      </trkpt>
      <trkpt lat="45.22579" lon="5.72713">
        <ele>621.79998779297</ele>
        <time>2021-09-12T04:45:56.000Z</time>
      </trkpt>
      <trkpt lat="45.22581" lon="5.72713">
        <ele>621.40002441406</ele>
        <time>2021-09-12T04:45:57.000Z</time>
      </trkpt>
      <trkpt lat="45.22582" lon="5.72713">
        <ele>621.20001220703</ele>
        <time>2021-09-12T04:45:58.000Z</time>
      </trkpt>
      <trkpt lat="45.2259" lon="5.72716">
        <ele>620.40002441406</ele>
        <time>2021-09-12T04:46:02.000Z</time>
      </trkpt>
      <trkpt lat="45.22594" lon="5.72717">
        <ele>619.59997558594</ele>
        <time>2021-09-12T04:46:04.000Z</time>
      </trkpt>
      <trkpt lat="45.22596" lon="5.72717">
        <ele>618.79998779297</ele>
        <time>2021-09-12T04:46:06.000Z</time>
      </trkpt>
      <trkpt lat="45.22602" lon="5.72719">
        <ele>617.79998779297</ele>
        <time>2021-09-12T04:46:09.000Z</time>
      </trkpt>
      <trkpt lat="45.22605" lon="5.7272">
        <ele>617.20001220703</ele>
        <time>2021-09-12T04:46:11.000Z</time>
      </trkpt>
      <trkpt lat="45.22608" lon="5.72722">
        <ele>616.59997558594</ele>
        <time>2021-09-12T04:46:13.000Z</time>
      </trkpt>
      <trkpt lat="45.22611" lon="5.72723">
        <ele>616</ele>
        <time>2021-09-12T04:46:15.000Z</time>
      </trkpt>
      <trkpt lat="45.22612" lon="5.72723">
        <ele>615.59997558594</ele>
        <time>2021-09-12T04:46:16.000Z</time>
      </trkpt>
      <trkpt lat="45.22622" lon="5.72719">
        <ele>614.40002441406</ele>
        <time>2021-09-12T04:46:20.000Z</time>
      </trkpt>
      <trkpt lat="45.22624" lon="5.72719">
        <ele>614</ele>
        <time>2021-09-12T04:46:21.000Z</time>
      </trkpt>
      <trkpt lat="45.22629" lon="5.72723">
        <ele>613.40002441406</ele>
        <time>2021-09-12T04:46:23.000Z</time>
      </trkpt>
      <trkpt lat="45.22632" lon="5.72729">
        <ele>613.20001220703</ele>
        <time>2021-09-12T04:46:25.000Z</time>
      </trkpt>
      <trkpt lat="45.22637" lon="5.72732">
        <ele>613.40002441406</ele>
        <time>2021-09-12T04:46:29.000Z</time>
      </trkpt>
      <trkpt lat="45.22638" lon="5.72732">
        <ele>613.59997558594</ele>
        <time>2021-09-12T04:46:30.000Z</time>
      </trkpt>
      <trkpt lat="45.22639" lon="5.72732">
        <ele>613.59997558594</ele>
        <time>2021-09-12T04:46:31.000Z</time>
      </trkpt>
      <trkpt lat="45.22638" lon="5.72729">
        <ele>613.59997558594</ele>
        <time>2021-09-12T04:46:35.000Z</time>
      </trkpt>
      <trkpt lat="45.22635" lon="5.72727">
        <ele>613.40002441406</ele>
        <time>2021-09-12T04:46:37.000Z</time>
      </trkpt>
      <trkpt lat="45.22635" lon="5.72726">
        <ele>613.40002441406</ele>
        <time>2021-09-12T04:46:38.000Z</time>
      </trkpt>
      <trkpt lat="45.22631" lon="5.72724">
        <ele>613.40002441406</ele>
        <time>2021-09-12T04:46:41.000Z</time>
      </trkpt>
      <trkpt lat="45.22626" lon="5.72726">
        <ele>613.79998779297</ele>
        <time>2021-09-12T04:46:45.000Z</time>
      </trkpt>
      <trkpt lat="45.22625" lon="5.72726">
        <ele>614</ele>
        <time>2021-09-12T04:46:46.000Z</time>
      </trkpt>
      <trkpt lat="45.22625" lon="5.72728">
        <ele>614.59997558594</ele>
        <time>2021-09-12T04:46:48.000Z</time>
      </trkpt>
      <trkpt lat="45.22625" lon="5.72728">
        <ele>614.79998779297</ele>
        <time>2021-09-12T04:46:49.000Z</time>
      </trkpt>
      <trkpt lat="45.22625" lon="5.72728">
        <ele>615</ele>
        <time>2021-09-12T04:46:50.000Z</time>
      </trkpt>
      <trkpt lat="45.22623" lon="5.72728">
        <ele>615.59997558594</ele>
        <time>2021-09-12T04:46:52.000Z</time>
      </trkpt>
      <trkpt lat="45.22622" lon="5.72729">
        <ele>615.79998779297</ele>
        <time>2021-09-12T04:46:53.000Z</time>
      </trkpt>
      <trkpt lat="45.22619" lon="5.72729">
        <ele>616.20001220703</ele>
        <time>2021-09-12T04:46:55.000Z</time>
      </trkpt>
      <trkpt lat="45.22614" lon="5.72729">
        <ele>616.59997558594</ele>
        <time>2021-09-12T04:46:57.000Z</time>
      </trkpt>
      <trkpt lat="45.22613" lon="5.72727">
        <ele>616.79998779297</ele>
        <time>2021-09-12T04:46:58.000Z</time>
      </trkpt>
      <trkpt lat="45.22612" lon="5.72727">
        <ele>617</ele>
        <time>2021-09-12T04:46:59.000Z</time>
      </trkpt>
      <trkpt lat="45.22611" lon="5.72727">
        <ele>617.40002441406</ele>
        <time>2021-09-12T04:47:00.000Z</time>
      </trkpt>
      <trkpt lat="45.22607" lon="5.72728">
        <ele>617.59997558594</ele>
        <time>2021-09-12T04:47:02.000Z</time>
      </trkpt>
      <trkpt lat="45.22605" lon="5.72726">
        <ele>617.79998779297</ele>
        <time>2021-09-12T04:47:03.000Z</time>
      </trkpt>
      <trkpt lat="45.22602" lon="5.72725">
        <ele>618.20001220703</ele>
        <time>2021-09-12T04:47:05.000Z</time>
      </trkpt>
      <trkpt lat="45.22599" lon="5.72724">
        <ele>618.79998779297</ele>
        <time>2021-09-12T04:47:07.000Z</time>
      </trkpt>
      <trkpt lat="45.22598" lon="5.72724">
        <ele>619.20001220703</ele>
        <time>2021-09-12T04:47:08.000Z</time>
      </trkpt>
      <trkpt lat="45.22596" lon="5.72722">
        <ele>619.79998779297</ele>
        <time>2021-09-12T04:47:11.000Z</time>
      </trkpt>
      <trkpt lat="45.22594" lon="5.72721">
        <ele>620</ele>
        <time>2021-09-12T04:47:12.000Z</time>
      </trkpt>
      <trkpt lat="45.22592" lon="5.72719">
        <ele>620.40002441406</ele>
        <time>2021-09-12T04:47:14.000Z</time>
      </trkpt>
      <trkpt lat="45.2259" lon="5.72719">
        <ele>620.59997558594</ele>
        <time>2021-09-12T04:47:16.000Z</time>
      </trkpt>
      <trkpt lat="45.22588" lon="5.72717">
        <ele>621</ele>
        <time>2021-09-12T04:47:18.000Z</time>
      </trkpt>
      <trkpt lat="45.22587" lon="5.72716">
        <ele>621.20001220703</ele>
        <time>2021-09-12T04:47:19.000Z</time>
      </trkpt>
      <trkpt lat="45.22584" lon="5.72716">
        <ele>621.40002441406</ele>
        <time>2021-09-12T04:47:21.000Z</time>
      </trkpt>
      <trkpt lat="45.22582" lon="5.72718">
        <ele>622</ele>
        <time>2021-09-12T04:47:23.000Z</time>
      </trkpt>
      <trkpt lat="45.22582" lon="5.72718">
        <ele>622.40002441406</ele>
        <time>2021-09-12T04:47:24.000Z</time>
      </trkpt>
      <trkpt lat="45.22581" lon="5.72719">
        <ele>622.79998779297</ele>
        <time>2021-09-12T04:47:25.000Z</time>
      </trkpt>
      <trkpt lat="45.22579" lon="5.72718">
        <ele>623.59997558594</ele>
        <time>2021-09-12T04:47:27.000Z</time>
      </trkpt>
      <trkpt lat="45.22578" lon="5.72718">
        <ele>624</ele>
        <time>2021-09-12T04:47:28.000Z</time>
      </trkpt>
      <trkpt lat="45.22577" lon="5.7272">
        <ele>624.59997558594</ele>
        <time>2021-09-12T04:47:30.000Z</time>
      </trkpt>
      <trkpt lat="45.22573" lon="5.72721">
        <ele>625.59997558594</ele>
        <time>2021-09-12T04:47:33.000Z</time>
      </trkpt>
      <trkpt lat="45.22572" lon="5.72722">
        <ele>625.79998779297</ele>
        <time>2021-09-12T04:47:34.000Z</time>
      </trkpt>
      <trkpt lat="45.22571" lon="5.72723">
        <ele>626.40002441406</ele>
        <time>2021-09-12T04:47:37.000Z</time>
      </trkpt>
      <trkpt lat="45.2257" lon="5.72724">
        <ele>627</ele>
        <time>2021-09-12T04:47:38.000Z</time>
      </trkpt>
      <trkpt lat="45.22568" lon="5.72723">
        <ele>627.20001220703</ele>
        <time>2021-09-12T04:47:39.000Z</time>
      </trkpt>
      <trkpt lat="45.22567" lon="5.72724">
        <ele>627.79998779297</ele>
        <time>2021-09-12T04:47:41.000Z</time>
      </trkpt>
      <trkpt lat="45.22567" lon="5.72724">
        <ele>628</ele>
        <time>2021-09-12T04:47:42.000Z</time>
      </trkpt>
      <trkpt lat="45.22566" lon="5.72725">
        <ele>628.20001220703</ele>
        <time>2021-09-12T04:47:43.000Z</time>
      </trkpt>
      <trkpt lat="45.22563" lon="5.72727">
        <ele>629.20001220703</ele>
        <time>2021-09-12T04:47:46.000Z</time>
      </trkpt>
      <trkpt lat="45.22561" lon="5.72727">
        <ele>629.79998779297</ele>
        <time>2021-09-12T04:47:48.000Z</time>
      </trkpt>
      <trkpt lat="45.22559" lon="5.72727">
        <ele>630.20001220703</ele>
        <time>2021-09-12T04:47:50.000Z</time>
      </trkpt>
      <trkpt lat="45.22556" lon="5.7273">
        <ele>631.40002441406</ele>
        <time>2021-09-12T04:47:53.000Z</time>
      </trkpt>
      <trkpt lat="45.22555" lon="5.72733">
        <ele>631.79998779297</ele>
        <time>2021-09-12T04:47:55.000Z</time>
      </trkpt>
      <trkpt lat="45.22553" lon="5.72738">
        <ele>632.59997558594</ele>
        <time>2021-09-12T04:47:58.000Z</time>
      </trkpt>
      <trkpt lat="45.22549" lon="5.72738">
        <ele>633.59997558594</ele>
        <time>2021-09-12T04:48:01.000Z</time>
      </trkpt>
      <trkpt lat="45.22548" lon="5.72739">
        <ele>634</ele>
        <time>2021-09-12T04:48:02.000Z</time>
      </trkpt>
      <trkpt lat="45.22543" lon="5.72739">
        <ele>635.20001220703</ele>
        <time>2021-09-12T04:48:07.000Z</time>
      </trkpt>
      <trkpt lat="45.22541" lon="5.72738">
        <ele>635.40002441406</ele>
        <time>2021-09-12T04:48:08.000Z</time>
      </trkpt>
      <trkpt lat="45.22538" lon="5.72737">
        <ele>636</ele>
        <time>2021-09-12T04:48:11.000Z</time>
      </trkpt>
      <trkpt lat="45.22537" lon="5.72738">
        <ele>636.40002441406</ele>
        <time>2021-09-12T04:48:12.000Z</time>
      </trkpt>
      <trkpt lat="45.22536" lon="5.72739">
        <ele>637</ele>
        <time>2021-09-12T04:48:14.000Z</time>
      </trkpt>
      <trkpt lat="45.22535" lon="5.72739">
        <ele>637.20001220703</ele>
        <time>2021-09-12T04:48:15.000Z</time>
      </trkpt>
      <trkpt lat="45.22534" lon="5.72739">
        <ele>637.40002441406</ele>
        <time>2021-09-12T04:48:17.000Z</time>
      </trkpt>
      <trkpt lat="45.22532" lon="5.72739">
        <ele>638</ele>
        <time>2021-09-12T04:48:19.000Z</time>
      </trkpt>
      <trkpt lat="45.22532" lon="5.7274">
        <ele>638.20001220703</ele>
        <time>2021-09-12T04:48:20.000Z</time>
      </trkpt>
      <trkpt lat="45.22531" lon="5.7274">
        <ele>638.40002441406</ele>
        <time>2021-09-12T04:48:21.000Z</time>
      </trkpt>
      <trkpt lat="45.22531" lon="5.72745">
        <ele>639.20001220703</ele>
        <time>2021-09-12T04:48:24.000Z</time>
      </trkpt>
      <trkpt lat="45.22531" lon="5.72746">
        <ele>639.59997558594</ele>
        <time>2021-09-12T04:48:25.000Z</time>
      </trkpt>
      <trkpt lat="45.22529" lon="5.7275">
        <ele>640.40002441406</ele>
        <time>2021-09-12T04:48:28.000Z</time>
      </trkpt>
      <trkpt lat="45.22528" lon="5.72753">
        <ele>640.59997558594</ele>
        <time>2021-09-12T04:48:29.000Z</time>
      </trkpt>
      <trkpt lat="45.22526" lon="5.72754">
        <ele>641</ele>
        <time>2021-09-12T04:48:31.000Z</time>
      </trkpt>
      <trkpt lat="45.22525" lon="5.72756">
        <ele>641.59997558594</ele>
        <time>2021-09-12T04:48:33.000Z</time>
      </trkpt>
      <trkpt lat="45.22525" lon="5.72757">
        <ele>641.79998779297</ele>
        <time>2021-09-12T04:48:34.000Z</time>
      </trkpt>
      <trkpt lat="45.22522" lon="5.72762">
        <ele>643</ele>
        <time>2021-09-12T04:48:39.000Z</time>
      </trkpt>
      <trkpt lat="45.22522" lon="5.72763">
        <ele>643.40002441406</ele>
        <time>2021-09-12T04:48:40.000Z</time>
      </trkpt>
      <trkpt lat="45.22522" lon="5.72765">
        <ele>644</ele>
        <time>2021-09-12T04:48:42.000Z</time>
      </trkpt>
      <trkpt lat="45.22522" lon="5.72766">
        <ele>644.20001220703</ele>
        <time>2021-09-12T04:48:43.000Z</time>
      </trkpt>
      <trkpt lat="45.2252" lon="5.72769">
        <ele>645.20001220703</ele>
        <time>2021-09-12T04:48:47.000Z</time>
      </trkpt>
      <trkpt lat="45.22518" lon="5.72772">
        <ele>645.59997558594</ele>
        <time>2021-09-12T04:48:49.000Z</time>
      </trkpt>
      <trkpt lat="45.22519" lon="5.72776">
        <ele>646.20001220703</ele>
        <time>2021-09-12T04:48:51.000Z</time>
      </trkpt>
      <trkpt lat="45.22518" lon="5.72781">
        <ele>647</ele>
        <time>2021-09-12T04:48:54.000Z</time>
      </trkpt>
      <trkpt lat="45.22518" lon="5.72782">
        <ele>647.20001220703</ele>
        <time>2021-09-12T04:48:55.000Z</time>
      </trkpt>
      <trkpt lat="45.22513" lon="5.72789">
        <ele>648.40002441406</ele>
        <time>2021-09-12T04:49:00.000Z</time>
      </trkpt>
      <trkpt lat="45.22513" lon="5.72795">
        <ele>649.40002441406</ele>
        <time>2021-09-12T04:49:04.000Z</time>
      </trkpt>
      <trkpt lat="45.22514" lon="5.72799">
        <ele>650.59997558594</ele>
        <time>2021-09-12T04:49:08.000Z</time>
      </trkpt>
      <trkpt lat="45.22513" lon="5.72802">
        <ele>651.40002441406</ele>
        <time>2021-09-12T04:49:11.000Z</time>
      </trkpt>
      <trkpt lat="45.22513" lon="5.72804">
        <ele>651.59997558594</ele>
        <time>2021-09-12T04:49:12.000Z</time>
      </trkpt>
      <trkpt lat="45.22511" lon="5.72806">
        <ele>652.79998779297</ele>
        <time>2021-09-12T04:49:15.000Z</time>
      </trkpt>
      <trkpt lat="45.2251" lon="5.72809">
        <ele>653.40002441406</ele>
        <time>2021-09-12T04:49:17.000Z</time>
      </trkpt>
      <trkpt lat="45.2251" lon="5.72812">
        <ele>653.59997558594</ele>
        <time>2021-09-12T04:49:19.000Z</time>
      </trkpt>
      <trkpt lat="45.2251" lon="5.72814">
        <ele>654</ele>
        <time>2021-09-12T04:49:20.000Z</time>
      </trkpt>
      <trkpt lat="45.2251" lon="5.72821">
        <ele>655</ele>
        <time>2021-09-12T04:49:23.000Z</time>
      </trkpt>
      <trkpt lat="45.22511" lon="5.72822">
        <ele>655.20001220703</ele>
        <time>2021-09-12T04:49:24.000Z</time>
      </trkpt>
      <trkpt lat="45.2251" lon="5.72823">
        <ele>655.79998779297</ele>
        <time>2021-09-12T04:49:27.000Z</time>
      </trkpt>
      <trkpt lat="45.2251" lon="5.72824">
        <ele>656.40002441406</ele>
        <time>2021-09-12T04:49:28.000Z</time>
      </trkpt>
      <trkpt lat="45.2251" lon="5.72824">
        <ele>656.59997558594</ele>
        <time>2021-09-12T04:49:29.000Z</time>
      </trkpt>
      <trkpt lat="45.2251" lon="5.72825">
        <ele>657</ele>
        <time>2021-09-12T04:49:30.000Z</time>
      </trkpt>
      <trkpt lat="45.2251" lon="5.72826">
        <ele>657.20001220703</ele>
        <time>2021-09-12T04:49:31.000Z</time>
      </trkpt>
      <trkpt lat="45.22509" lon="5.72827">
        <ele>657.59997558594</ele>
        <time>2021-09-12T04:49:32.000Z</time>
      </trkpt>
      <trkpt lat="45.2251" lon="5.7283">
        <ele>658</ele>
        <time>2021-09-12T04:49:34.000Z</time>
      </trkpt>
      <trkpt lat="45.2251" lon="5.72832">
        <ele>658.20001220703</ele>
        <time>2021-09-12T04:49:35.000Z</time>
      </trkpt>
      <trkpt lat="45.22511" lon="5.72833">
        <ele>658.40002441406</ele>
        <time>2021-09-12T04:49:36.000Z</time>
      </trkpt>
      <trkpt lat="45.22512" lon="5.72834">
        <ele>658.79998779297</ele>
        <time>2021-09-12T04:49:37.000Z</time>
      </trkpt>
      <trkpt lat="45.22514" lon="5.72838">
        <ele>659.79998779297</ele>
        <time>2021-09-12T04:49:41.000Z</time>
      </trkpt>
      <trkpt lat="45.22514" lon="5.72839">
        <ele>660.20001220703</ele>
        <time>2021-09-12T04:49:42.000Z</time>
      </trkpt>
      <trkpt lat="45.22514" lon="5.72841">
        <ele>660.79998779297</ele>
        <time>2021-09-12T04:49:44.000Z</time>
      </trkpt>
      <trkpt lat="45.22514" lon="5.72843">
        <ele>661.20001220703</ele>
        <time>2021-09-12T04:49:45.000Z</time>
      </trkpt>
      <trkpt lat="45.22515" lon="5.72847">
        <ele>662</ele>
        <time>2021-09-12T04:49:48.000Z</time>
      </trkpt>
      <trkpt lat="45.22514" lon="5.72848">
        <ele>662.40002441406</ele>
        <time>2021-09-12T04:49:50.000Z</time>
      </trkpt>
      <trkpt lat="45.22513" lon="5.72855">
        <ele>663.79998779297</ele>
        <time>2021-09-12T04:49:54.000Z</time>
      </trkpt>
      <trkpt lat="45.22513" lon="5.72856">
        <ele>664</ele>
        <time>2021-09-12T04:49:55.000Z</time>
      </trkpt>
      <trkpt lat="45.22513" lon="5.72858">
        <ele>664</ele>
        <time>2021-09-12T04:49:56.000Z</time>
      </trkpt>
      <trkpt lat="45.22512" lon="5.72859">
        <ele>664.79998779297</ele>
        <time>2021-09-12T04:49:59.000Z</time>
      </trkpt>
      <trkpt lat="45.22513" lon="5.72861">
        <ele>665.79998779297</ele>
        <time>2021-09-12T04:50:02.000Z</time>
      </trkpt>
      <trkpt lat="45.22513" lon="5.72863">
        <ele>666</ele>
        <time>2021-09-12T04:50:03.000Z</time>
      </trkpt>
      <trkpt lat="45.22514" lon="5.72868">
        <ele>667</ele>
        <time>2021-09-12T04:50:07.000Z</time>
      </trkpt>
      <trkpt lat="45.22515" lon="5.7287">
        <ele>667.20001220703</ele>
        <time>2021-09-12T04:50:08.000Z</time>
      </trkpt>
      <trkpt lat="45.22515" lon="5.72871">
        <ele>668</ele>
        <time>2021-09-12T04:50:10.000Z</time>
      </trkpt>
      <trkpt lat="45.22516" lon="5.72873">
        <ele>668.79998779297</ele>
        <time>2021-09-12T04:50:13.000Z</time>
      </trkpt>
      <trkpt lat="45.22517" lon="5.72874">
        <ele>669</ele>
        <time>2021-09-12T04:50:14.000Z</time>
      </trkpt>
      <trkpt lat="45.2252" lon="5.72877">
        <ele>670.20001220703</ele>
        <time>2021-09-12T04:50:18.000Z</time>
      </trkpt>
      <trkpt lat="45.22521" lon="5.72878">
        <ele>670.40002441406</ele>
        <time>2021-09-12T04:50:19.000Z</time>
      </trkpt>
      <trkpt lat="45.22523" lon="5.72879">
        <ele>671.40002441406</ele>
        <time>2021-09-12T04:50:22.000Z</time>
      </trkpt>
      <trkpt lat="45.22528" lon="5.72884">
        <ele>672.20001220703</ele>
        <time>2021-09-12T04:50:26.000Z</time>
      </trkpt>
      <trkpt lat="45.22528" lon="5.72885">
        <ele>672.59997558594</ele>
        <time>2021-09-12T04:50:27.000Z</time>
      </trkpt>
      <trkpt lat="45.22532" lon="5.72887">
        <ele>673.40002441406</ele>
        <time>2021-09-12T04:50:31.000Z</time>
      </trkpt>
      <trkpt lat="45.22533" lon="5.72886">
        <ele>673.79998779297</ele>
        <time>2021-09-12T04:50:32.000Z</time>
      </trkpt>
      <trkpt lat="45.22535" lon="5.72886">
        <ele>674.40002441406</ele>
        <time>2021-09-12T04:50:34.000Z</time>
      </trkpt>
      <trkpt lat="45.22539" lon="5.72885">
        <ele>675.20001220703</ele>
        <time>2021-09-12T04:50:37.000Z</time>
      </trkpt>
      <trkpt lat="45.2254" lon="5.72885">
        <ele>675.59997558594</ele>
        <time>2021-09-12T04:50:38.000Z</time>
      </trkpt>
      <trkpt lat="45.22541" lon="5.72886">
        <ele>675.79998779297</ele>
        <time>2021-09-12T04:50:39.000Z</time>
      </trkpt>
      <trkpt lat="45.22542" lon="5.72886">
        <ele>676.20001220703</ele>
        <time>2021-09-12T04:50:40.000Z</time>
      </trkpt>
      <trkpt lat="45.22543" lon="5.72886">
        <ele>676.40002441406</ele>
        <time>2021-09-12T04:50:41.000Z</time>
      </trkpt>
      <trkpt lat="45.22546" lon="5.72887">
        <ele>677.40002441406</ele>
        <time>2021-09-12T04:50:45.000Z</time>
      </trkpt>
      <trkpt lat="45.22548" lon="5.72888">
        <ele>678</ele>
        <time>2021-09-12T04:50:47.000Z</time>
      </trkpt>
      <trkpt lat="45.2255" lon="5.72889">
        <ele>678.40002441406</ele>
        <time>2021-09-12T04:50:49.000Z</time>
      </trkpt>
      <trkpt lat="45.22551" lon="5.7289">
        <ele>678.40002441406</ele>
        <time>2021-09-12T04:50:50.000Z</time>
      </trkpt>
      <trkpt lat="45.22552" lon="5.72891">
        <ele>678.79998779297</ele>
        <time>2021-09-12T04:50:51.000Z</time>
      </trkpt>
      <trkpt lat="45.22553" lon="5.7289">
        <ele>679.20001220703</ele>
        <time>2021-09-12T04:50:52.000Z</time>
      </trkpt>
      <trkpt lat="45.22554" lon="5.72889">
        <ele>679.59997558594</ele>
        <time>2021-09-12T04:50:53.000Z</time>
      </trkpt>
      <trkpt lat="45.22559" lon="5.72886">
        <ele>680.79998779297</ele>
        <time>2021-09-12T04:50:58.000Z</time>
      </trkpt>
      <trkpt lat="45.22561" lon="5.72886">
        <ele>681.20001220703</ele>
        <time>2021-09-12T04:50:59.000Z</time>
      </trkpt>
      <trkpt lat="45.22562" lon="5.72886">
        <ele>681.59997558594</ele>
        <time>2021-09-12T04:51:00.000Z</time>
      </trkpt>
      <trkpt lat="45.22564" lon="5.72885">
        <ele>682.20001220703</ele>
        <time>2021-09-12T04:51:02.000Z</time>
      </trkpt>
      <trkpt lat="45.22567" lon="5.72883">
        <ele>683.40002441406</ele>
        <time>2021-09-12T04:51:06.000Z</time>
      </trkpt>
      <trkpt lat="45.22567" lon="5.72883">
        <ele>683.59997558594</ele>
        <time>2021-09-12T04:51:07.000Z</time>
      </trkpt>
      <trkpt lat="45.22569" lon="5.72882">
        <ele>684</ele>
        <time>2021-09-12T04:51:09.000Z</time>
      </trkpt>
      <trkpt lat="45.22569" lon="5.72881">
        <ele>684.40002441406</ele>
        <time>2021-09-12T04:51:10.000Z</time>
      </trkpt>
      <trkpt lat="45.22571" lon="5.72881">
        <ele>685.20001220703</ele>
        <time>2021-09-12T04:51:12.000Z</time>
      </trkpt>
      <trkpt lat="45.22573" lon="5.72882">
        <ele>685.59997558594</ele>
        <time>2021-09-12T04:51:13.000Z</time>
      </trkpt>
      <trkpt lat="45.22576" lon="5.72882">
        <ele>686.20001220703</ele>
        <time>2021-09-12T04:51:16.000Z</time>
      </trkpt>
      <trkpt lat="45.22578" lon="5.72883">
        <ele>686.59997558594</ele>
        <time>2021-09-12T04:51:18.000Z</time>
      </trkpt>
      <trkpt lat="45.22579" lon="5.72884">
        <ele>686.79998779297</ele>
        <time>2021-09-12T04:51:19.000Z</time>
      </trkpt>
      <trkpt lat="45.2258" lon="5.72885">
        <ele>687.59997558594</ele>
        <time>2021-09-12T04:51:21.000Z</time>
      </trkpt>
      <trkpt lat="45.2258" lon="5.72885">
        <ele>687.79998779297</ele>
        <time>2021-09-12T04:51:22.000Z</time>
      </trkpt>
      <trkpt lat="45.22583" lon="5.72887">
        <ele>688.40002441406</ele>
        <time>2021-09-12T04:51:24.000Z</time>
      </trkpt>
      <trkpt lat="45.22585" lon="5.72887">
        <ele>689.20001220703</ele>
        <time>2021-09-12T04:51:27.000Z</time>
      </trkpt>
      <trkpt lat="45.22591" lon="5.72891">
        <ele>690.40002441406</ele>
        <time>2021-09-12T04:51:31.000Z</time>
      </trkpt>
      <trkpt lat="45.22593" lon="5.72891">
        <ele>691.40002441406</ele>
        <time>2021-09-12T04:51:35.000Z</time>
      </trkpt>
      <trkpt lat="45.22596" lon="5.72894">
        <ele>692.40002441406</ele>
        <time>2021-09-12T04:51:38.000Z</time>
      </trkpt>
      <trkpt lat="45.22597" lon="5.72896">
        <ele>692.59997558594</ele>
        <time>2021-09-12T04:51:39.000Z</time>
      </trkpt>
      <trkpt lat="45.22598" lon="5.72898">
        <ele>693.20001220703</ele>
        <time>2021-09-12T04:51:41.000Z</time>
      </trkpt>
      <trkpt lat="45.226" lon="5.729">
        <ele>693.79998779297</ele>
        <time>2021-09-12T04:51:43.000Z</time>
      </trkpt>
      <trkpt lat="45.22604" lon="5.72905">
        <ele>695</ele>
        <time>2021-09-12T04:51:47.000Z</time>
      </trkpt>
      <trkpt lat="45.22606" lon="5.72907">
        <ele>696.20001220703</ele>
        <time>2021-09-12T04:51:51.000Z</time>
      </trkpt>
      <trkpt lat="45.22607" lon="5.72907">
        <ele>696.59997558594</ele>
        <time>2021-09-12T04:51:52.000Z</time>
      </trkpt>
      <trkpt lat="45.22607" lon="5.72907">
        <ele>697</ele>
        <time>2021-09-12T04:51:53.000Z</time>
      </trkpt>
      <trkpt lat="45.22609" lon="5.7291">
        <ele>697.40002441406</ele>
        <time>2021-09-12T04:51:55.000Z</time>
      </trkpt>
      <trkpt lat="45.22611" lon="5.72916">
        <ele>698.40002441406</ele>
        <time>2021-09-12T04:51:59.000Z</time>
      </trkpt>
      <trkpt lat="45.22611" lon="5.72919">
        <ele>699.40002441406</ele>
        <time>2021-09-12T04:52:02.000Z</time>
      </trkpt>
      <trkpt lat="45.22611" lon="5.72923">
        <ele>700.20001220703</ele>
        <time>2021-09-12T04:52:05.000Z</time>
      </trkpt>
      <trkpt lat="45.22612" lon="5.72925">
        <ele>700.59997558594</ele>
        <time>2021-09-12T04:52:06.000Z</time>
      </trkpt>
      <trkpt lat="45.22613" lon="5.72926">
        <ele>701</ele>
        <time>2021-09-12T04:52:07.000Z</time>
      </trkpt>
      <trkpt lat="45.22617" lon="5.72931">
        <ele>701.79998779297</ele>
        <time>2021-09-12T04:52:10.000Z</time>
      </trkpt>
      <trkpt lat="45.22621" lon="5.72934">
        <ele>702</ele>
        <time>2021-09-12T04:52:12.000Z</time>
      </trkpt>
      <trkpt lat="45.22622" lon="5.72937">
        <ele>702.20001220703</ele>
        <time>2021-09-12T04:52:14.000Z</time>
      </trkpt>
      <trkpt lat="45.22627" lon="5.72943">
        <ele>702.20001220703</ele>
        <time>2021-09-12T04:52:17.000Z</time>
      </trkpt>
      <trkpt lat="45.2263" lon="5.72949">
        <ele>702.20001220703</ele>
        <time>2021-09-12T04:52:20.000Z</time>
      </trkpt>
      <trkpt lat="45.22631" lon="5.72951">
        <ele>702.20001220703</ele>
        <time>2021-09-12T04:52:21.000Z</time>
      </trkpt>
      <trkpt lat="45.22638" lon="5.72957">
        <ele>701.79998779297</ele>
        <time>2021-09-12T04:52:26.000Z</time>
      </trkpt>
      <trkpt lat="45.22653" lon="5.72962">
        <ele>701.20001220703</ele>
        <time>2021-09-12T04:52:32.000Z</time>
      </trkpt>
      <trkpt lat="45.22657" lon="5.72962">
        <ele>701</ele>
        <time>2021-09-12T04:52:34.000Z</time>
      </trkpt>
      <trkpt lat="45.22663" lon="5.72966">
        <ele>700.79998779297</ele>
        <time>2021-09-12T04:52:37.000Z</time>
      </trkpt>
      <trkpt lat="45.22668" lon="5.72968">
        <ele>700.79998779297</ele>
        <time>2021-09-12T04:52:39.000Z</time>
      </trkpt>
      <trkpt lat="45.22677" lon="5.72969">
        <ele>700.40002441406</ele>
        <time>2021-09-12T04:52:43.000Z</time>
      </trkpt>
      <trkpt lat="45.22685" lon="5.72974">
        <ele>700.20001220703</ele>
        <time>2021-09-12T04:52:48.000Z</time>
      </trkpt>
      <trkpt lat="45.22694" lon="5.72978">
        <ele>699.40002441406</ele>
        <time>2021-09-12T04:52:53.000Z</time>
      </trkpt>
      <trkpt lat="45.22697" lon="5.7298">
        <ele>699</ele>
        <time>2021-09-12T04:52:55.000Z</time>
      </trkpt>
      <trkpt lat="45.227" lon="5.72983">
        <ele>698.40002441406</ele>
        <time>2021-09-12T04:52:58.000Z</time>
      </trkpt>
      <trkpt lat="45.22702" lon="5.72986">
        <ele>698</ele>
        <time>2021-09-12T04:53:00.000Z</time>
      </trkpt>
      <trkpt lat="45.2271" lon="5.72992">
        <ele>697.20001220703</ele>
        <time>2021-09-12T04:53:04.000Z</time>
      </trkpt>
      <trkpt lat="45.22717" lon="5.72998">
        <ele>696.20001220703</ele>
        <time>2021-09-12T04:53:07.000Z</time>
      </trkpt>
      <trkpt lat="45.2272" lon="5.72999">
        <ele>696</ele>
        <time>2021-09-12T04:53:08.000Z</time>
      </trkpt>
      <trkpt lat="45.22723" lon="5.73001">
        <ele>695.79998779297</ele>
        <time>2021-09-12T04:53:09.000Z</time>
      </trkpt>
      <trkpt lat="45.22728" lon="5.73004">
        <ele>695.20001220703</ele>
        <time>2021-09-12T04:53:12.000Z</time>
      </trkpt>
      <trkpt lat="45.2273" lon="5.73005">
        <ele>695</ele>
        <time>2021-09-12T04:53:13.000Z</time>
      </trkpt>
      <trkpt lat="45.22737" lon="5.73006">
        <ele>694</ele>
        <time>2021-09-12T04:53:16.000Z</time>
      </trkpt>
      <trkpt lat="45.22739" lon="5.73006">
        <ele>693.79998779297</ele>
        <time>2021-09-12T04:53:17.000Z</time>
      </trkpt>
      <trkpt lat="45.22749" lon="5.73009">
        <ele>693.20001220703</ele>
        <time>2021-09-12T04:53:21.000Z</time>
      </trkpt>
      <trkpt lat="45.22753" lon="5.73011">
        <ele>692.79998779297</ele>
        <time>2021-09-12T04:53:23.000Z</time>
      </trkpt>
      <trkpt lat="45.22757" lon="5.73013">
        <ele>692.40002441406</ele>
        <time>2021-09-12T04:53:25.000Z</time>
      </trkpt>
      <trkpt lat="45.22764" lon="5.73015">
        <ele>692.20001220703</ele>
        <time>2021-09-12T04:53:28.000Z</time>
      </trkpt>
      <trkpt lat="45.22766" lon="5.73015">
        <ele>692</ele>
        <time>2021-09-12T04:53:29.000Z</time>
      </trkpt>
      <trkpt lat="45.22771" lon="5.73017">
        <ele>691.79998779297</ele>
        <time>2021-09-12T04:53:31.000Z</time>
      </trkpt>
      <trkpt lat="45.22774" lon="5.73018">
        <ele>691.59997558594</ele>
        <time>2021-09-12T04:53:32.000Z</time>
      </trkpt>
      <trkpt lat="45.22786" lon="5.73023">
        <ele>690.79998779297</ele>
        <time>2021-09-12T04:53:38.000Z</time>
      </trkpt>
      <trkpt lat="45.22788" lon="5.73024">
        <ele>690.59997558594</ele>
        <time>2021-09-12T04:53:39.000Z</time>
      </trkpt>
      <trkpt lat="45.22799" lon="5.73032">
        <ele>689.40002441406</ele>
        <time>2021-09-12T04:53:44.000Z</time>
      </trkpt>
      <trkpt lat="45.22808" lon="5.7304">
        <ele>688.20001220703</ele>
        <time>2021-09-12T04:53:50.000Z</time>
      </trkpt>
      <trkpt lat="45.22816" lon="5.73047">
        <ele>687.40002441406</ele>
        <time>2021-09-12T04:53:55.000Z</time>
      </trkpt>
      <trkpt lat="45.22818" lon="5.73047">
        <ele>687.20001220703</ele>
        <time>2021-09-12T04:53:56.000Z</time>
      </trkpt>
      <trkpt lat="45.22825" lon="5.7305">
        <ele>686.79998779297</ele>
        <time>2021-09-12T04:53:59.000Z</time>
      </trkpt>
      <trkpt lat="45.22826" lon="5.73051">
        <ele>686.79998779297</ele>
        <time>2021-09-12T04:54:00.000Z</time>
      </trkpt>
      <trkpt lat="45.22831" lon="5.73054">
        <ele>686.79998779297</ele>
        <time>2021-09-12T04:54:02.000Z</time>
      </trkpt>
      <trkpt lat="45.22834" lon="5.73054">
        <ele>686.79998779297</ele>
        <time>2021-09-12T04:54:03.000Z</time>
      </trkpt>
      <trkpt lat="45.22841" lon="5.73058">
        <ele>686.79998779297</ele>
        <time>2021-09-12T04:54:06.000Z</time>
      </trkpt>
      <trkpt lat="45.22846" lon="5.73062">
        <ele>686.79998779297</ele>
        <time>2021-09-12T04:54:08.000Z</time>
      </trkpt>
      <trkpt lat="45.22854" lon="5.73072">
        <ele>686.79998779297</ele>
        <time>2021-09-12T04:54:13.000Z</time>
      </trkpt>
      <trkpt lat="45.22857" lon="5.73075">
        <ele>686.79998779297</ele>
        <time>2021-09-12T04:54:14.000Z</time>
      </trkpt>
      <trkpt lat="45.22865" lon="5.73081">
        <ele>686.59997558594</ele>
        <time>2021-09-12T04:54:17.000Z</time>
      </trkpt>
      <trkpt lat="45.22873" lon="5.73086">
        <ele>686.40002441406</ele>
        <time>2021-09-12T04:54:20.000Z</time>
      </trkpt>
      <trkpt lat="45.22874" lon="5.73087">
        <ele>686.40002441406</ele>
        <time>2021-09-12T04:54:21.000Z</time>
      </trkpt>
      <trkpt lat="45.22878" lon="5.73088">
        <ele>686</ele>
        <time>2021-09-12T04:54:23.000Z</time>
      </trkpt>
      <trkpt lat="45.22885" lon="5.7309">
        <ele>685.79998779297</ele>
        <time>2021-09-12T04:54:25.000Z</time>
      </trkpt>
      <trkpt lat="45.22892" lon="5.73094">
        <ele>685.20001220703</ele>
        <time>2021-09-12T04:54:28.000Z</time>
      </trkpt>
      <trkpt lat="45.22896" lon="5.73094">
        <ele>685</ele>
        <time>2021-09-12T04:54:30.000Z</time>
      </trkpt>
      <trkpt lat="45.22899" lon="5.73094">
        <ele>685</ele>
        <time>2021-09-12T04:54:31.000Z</time>
      </trkpt>
      <trkpt lat="45.22906" lon="5.73098">
        <ele>684.79998779297</ele>
        <time>2021-09-12T04:54:34.000Z</time>
      </trkpt>
      <trkpt lat="45.22908" lon="5.73099">
        <ele>684.59997558594</ele>
        <time>2021-09-12T04:54:35.000Z</time>
      </trkpt>
      <trkpt lat="45.22922" lon="5.73103">
        <ele>684.20001220703</ele>
        <time>2021-09-12T04:54:41.000Z</time>
      </trkpt>
      <trkpt lat="45.22933" lon="5.73105">
        <ele>684.20001220703</ele>
        <time>2021-09-12T04:54:47.000Z</time>
      </trkpt>
      <trkpt lat="45.22938" lon="5.73107">
        <ele>684.20001220703</ele>
        <time>2021-09-12T04:54:49.000Z</time>
      </trkpt>
      <trkpt lat="45.22942" lon="5.73105">
        <ele>684.20001220703</ele>
        <time>2021-09-12T04:54:51.000Z</time>
      </trkpt>
      <trkpt lat="45.22944" lon="5.73106">
        <ele>684.20001220703</ele>
        <time>2021-09-12T04:54:52.000Z</time>
      </trkpt>
      <trkpt lat="45.22946" lon="5.73106">
        <ele>683.79998779297</ele>
        <time>2021-09-12T04:54:53.000Z</time>
      </trkpt>
      <trkpt lat="45.22947" lon="5.73105">
        <ele>683.59997558594</ele>
        <time>2021-09-12T04:54:54.000Z</time>
      </trkpt>
      <trkpt lat="45.22948" lon="5.73104">
        <ele>683</ele>
        <time>2021-09-12T04:54:55.000Z</time>
      </trkpt>
      <trkpt lat="45.22949" lon="5.73104">
        <ele>682.79998779297</ele>
        <time>2021-09-12T04:54:56.000Z</time>
      </trkpt>
      <trkpt lat="45.22953" lon="5.73105">
        <ele>682</ele>
        <time>2021-09-12T04:54:59.000Z</time>
      </trkpt>
      <trkpt lat="45.22955" lon="5.73105">
        <ele>681.40002441406</ele>
        <time>2021-09-12T04:55:00.000Z</time>
      </trkpt>
      <trkpt lat="45.22957" lon="5.73104">
        <ele>680.79998779297</ele>
        <time>2021-09-12T04:55:01.000Z</time>
      </trkpt>
      <trkpt lat="45.22959" lon="5.73105">
        <ele>680.40002441406</ele>
        <time>2021-09-12T04:55:03.000Z</time>
      </trkpt>
      <trkpt lat="45.2296" lon="5.73105">
        <ele>680</ele>
        <time>2021-09-12T04:55:04.000Z</time>
      </trkpt>
      <trkpt lat="45.22961" lon="5.73106">
        <ele>679.40002441406</ele>
        <time>2021-09-12T04:55:06.000Z</time>
      </trkpt>
      <trkpt lat="45.22964" lon="5.73108">
        <ele>679</ele>
        <time>2021-09-12T04:55:08.000Z</time>
      </trkpt>
      <trkpt lat="45.22967" lon="5.73113">
        <ele>679.79998779297</ele>
        <time>2021-09-12T04:55:12.000Z</time>
      </trkpt>
      <trkpt lat="45.2297" lon="5.73115">
        <ele>680.59997558594</ele>
        <time>2021-09-12T04:55:14.000Z</time>
      </trkpt>
      <trkpt lat="45.22974" lon="5.73117">
        <ele>681.20001220703</ele>
        <time>2021-09-12T04:55:16.000Z</time>
      </trkpt>
      <trkpt lat="45.22978" lon="5.73119">
        <ele>681.79998779297</ele>
        <time>2021-09-12T04:55:18.000Z</time>
      </trkpt>
      <trkpt lat="45.22979" lon="5.73119">
        <ele>682.20001220703</ele>
        <time>2021-09-12T04:55:19.000Z</time>
      </trkpt>
      <trkpt lat="45.22982" lon="5.73121">
        <ele>682.79998779297</ele>
        <time>2021-09-12T04:55:21.000Z</time>
      </trkpt>
      <trkpt lat="45.22985" lon="5.73124">
        <ele>683.20001220703</ele>
        <time>2021-09-12T04:55:23.000Z</time>
      </trkpt>
      <trkpt lat="45.22988" lon="5.7313">
        <ele>684.40002441406</ele>
        <time>2021-09-12T04:55:26.000Z</time>
      </trkpt>
      <trkpt lat="45.22992" lon="5.73133">
        <ele>685.40002441406</ele>
        <time>2021-09-12T04:55:29.000Z</time>
      </trkpt>
      <trkpt lat="45.22995" lon="5.73134">
        <ele>685.59997558594</ele>
        <time>2021-09-12T04:55:31.000Z</time>
      </trkpt>
      <trkpt lat="45.22998" lon="5.73131">
        <ele>686.59997558594</ele>
        <time>2021-09-12T04:55:35.000Z</time>
      </trkpt>
      <trkpt lat="45.23001" lon="5.7313">
        <ele>687.40002441406</ele>
        <time>2021-09-12T04:55:37.000Z</time>
      </trkpt>
      <trkpt lat="45.23002" lon="5.7313">
        <ele>687.59997558594</ele>
        <time>2021-09-12T04:55:38.000Z</time>
      </trkpt>
      <trkpt lat="45.23003" lon="5.7313">
        <ele>687.79998779297</ele>
        <time>2021-09-12T04:55:39.000Z</time>
      </trkpt>
      <trkpt lat="45.23008" lon="5.73132">
        <ele>688.59997558594</ele>
        <time>2021-09-12T04:55:42.000Z</time>
      </trkpt>
      <trkpt lat="45.23014" lon="5.73136">
        <ele>689.79998779297</ele>
        <time>2021-09-12T04:55:46.000Z</time>
      </trkpt>
      <trkpt lat="45.23015" lon="5.73136">
        <ele>690.20001220703</ele>
        <time>2021-09-12T04:55:47.000Z</time>
      </trkpt>
      <trkpt lat="45.23016" lon="5.73135">
        <ele>690.40002441406</ele>
        <time>2021-09-12T04:55:48.000Z</time>
      </trkpt>
      <trkpt lat="45.2302" lon="5.73136">
        <ele>691.20001220703</ele>
        <time>2021-09-12T04:55:51.000Z</time>
      </trkpt>
      <trkpt lat="45.23023" lon="5.73136">
        <ele>691.40002441406</ele>
        <time>2021-09-12T04:55:53.000Z</time>
      </trkpt>
      <trkpt lat="45.23029" lon="5.73138">
        <ele>692.20001220703</ele>
        <time>2021-09-12T04:55:57.000Z</time>
      </trkpt>
      <trkpt lat="45.23034" lon="5.73141">
        <ele>693</ele>
        <time>2021-09-12T04:56:00.000Z</time>
      </trkpt>
      <trkpt lat="45.23035" lon="5.73141">
        <ele>693.40002441406</ele>
        <time>2021-09-12T04:56:01.000Z</time>
      </trkpt>
      <trkpt lat="45.23036" lon="5.7314">
        <ele>693.79998779297</ele>
        <time>2021-09-12T04:56:03.000Z</time>
      </trkpt>
      <trkpt lat="45.23038" lon="5.7314">
        <ele>694.59997558594</ele>
        <time>2021-09-12T04:56:05.000Z</time>
      </trkpt>
      <trkpt lat="45.23041" lon="5.73142">
        <ele>695.20001220703</ele>
        <time>2021-09-12T04:56:07.000Z</time>
      </trkpt>
      <trkpt lat="45.23043" lon="5.73144">
        <ele>695.79998779297</ele>
        <time>2021-09-12T04:56:09.000Z</time>
      </trkpt>
      <trkpt lat="45.23045" lon="5.73145">
        <ele>696.59997558594</ele>
        <time>2021-09-12T04:56:11.000Z</time>
      </trkpt>
      <trkpt lat="45.23046" lon="5.73145">
        <ele>697</ele>
        <time>2021-09-12T04:56:12.000Z</time>
      </trkpt>
      <trkpt lat="45.23049" lon="5.73146">
        <ele>697.40002441406</ele>
        <time>2021-09-12T04:56:14.000Z</time>
      </trkpt>
      <trkpt lat="45.23052" lon="5.73148">
        <ele>697.59997558594</ele>
        <time>2021-09-12T04:56:15.000Z</time>
      </trkpt>
      <trkpt lat="45.23053" lon="5.73148">
        <ele>698.20001220703</ele>
        <time>2021-09-12T04:56:16.000Z</time>
      </trkpt>
      <trkpt lat="45.23055" lon="5.73152">
        <ele>698.79998779297</ele>
        <time>2021-09-12T04:56:18.000Z</time>
      </trkpt>
      <trkpt lat="45.23057" lon="5.73153">
        <ele>699.20001220703</ele>
        <time>2021-09-12T04:56:19.000Z</time>
      </trkpt>
      <trkpt lat="45.23058" lon="5.73153">
        <ele>699.79998779297</ele>
        <time>2021-09-12T04:56:21.000Z</time>
      </trkpt>
      <trkpt lat="45.2306" lon="5.73155">
        <ele>700.40002441406</ele>
        <time>2021-09-12T04:56:23.000Z</time>
      </trkpt>
      <trkpt lat="45.23061" lon="5.73157">
        <ele>701</ele>
        <time>2021-09-12T04:56:25.000Z</time>
      </trkpt>
      <trkpt lat="45.23062" lon="5.73159">
        <ele>701.59997558594</ele>
        <time>2021-09-12T04:56:27.000Z</time>
      </trkpt>
      <trkpt lat="45.23063" lon="5.73159">
        <ele>702.20001220703</ele>
        <time>2021-09-12T04:56:28.000Z</time>
      </trkpt>
      <trkpt lat="45.23065" lon="5.7316">
        <ele>702.59997558594</ele>
        <time>2021-09-12T04:56:30.000Z</time>
      </trkpt>
      <trkpt lat="45.23066" lon="5.73161">
        <ele>702.79998779297</ele>
        <time>2021-09-12T04:56:31.000Z</time>
      </trkpt>
      <trkpt lat="45.23068" lon="5.73163">
        <ele>703</ele>
        <time>2021-09-12T04:56:32.000Z</time>
      </trkpt>
      <trkpt lat="45.23069" lon="5.73166">
        <ele>703.79998779297</ele>
        <time>2021-09-12T04:56:35.000Z</time>
      </trkpt>
      <trkpt lat="45.23072" lon="5.73171">
        <ele>705</ele>
        <time>2021-09-12T04:56:40.000Z</time>
      </trkpt>
      <trkpt lat="45.23073" lon="5.73172">
        <ele>705.20001220703</ele>
        <time>2021-09-12T04:56:41.000Z</time>
      </trkpt>
      <trkpt lat="45.23075" lon="5.73176">
        <ele>706</ele>
        <time>2021-09-12T04:56:43.000Z</time>
      </trkpt>
      <trkpt lat="45.23079" lon="5.7318">
        <ele>706.59997558594</ele>
        <time>2021-09-12T04:56:46.000Z</time>
      </trkpt>
      <trkpt lat="45.23081" lon="5.73183">
        <ele>707</ele>
        <time>2021-09-12T04:56:48.000Z</time>
      </trkpt>
      <trkpt lat="45.23083" lon="5.73185">
        <ele>707.40002441406</ele>
        <time>2021-09-12T04:56:50.000Z</time>
      </trkpt>
      <trkpt lat="45.23085" lon="5.73186">
        <ele>707.79998779297</ele>
        <time>2021-09-12T04:56:51.000Z</time>
      </trkpt>
      <trkpt lat="45.23091" lon="5.73187">
        <ele>708.20001220703</ele>
        <time>2021-09-12T04:56:54.000Z</time>
      </trkpt>
      <trkpt lat="45.23093" lon="5.73187">
        <ele>708.40002441406</ele>
        <time>2021-09-12T04:56:55.000Z</time>
      </trkpt>
      <trkpt lat="45.23094" lon="5.73186">
        <ele>708.59997558594</ele>
        <time>2021-09-12T04:56:56.000Z</time>
      </trkpt>
      <trkpt lat="45.231" lon="5.73186">
        <ele>708.79998779297</ele>
        <time>2021-09-12T04:57:00.000Z</time>
      </trkpt>
      <trkpt lat="45.23103" lon="5.73186">
        <ele>709</ele>
        <time>2021-09-12T04:57:02.000Z</time>
      </trkpt>
      <trkpt lat="45.23105" lon="5.73186">
        <ele>709.40002441406</ele>
        <time>2021-09-12T04:57:03.000Z</time>
      </trkpt>
      <trkpt lat="45.2311" lon="5.73186">
        <ele>709.59997558594</ele>
        <time>2021-09-12T04:57:05.000Z</time>
      </trkpt>
      <trkpt lat="45.23112" lon="5.73184">
        <ele>710.20001220703</ele>
        <time>2021-09-12T04:57:08.000Z</time>
      </trkpt>
      <trkpt lat="45.23114" lon="5.73184">
        <ele>710.40002441406</ele>
        <time>2021-09-12T04:57:10.000Z</time>
      </trkpt>
      <trkpt lat="45.23117" lon="5.73184">
        <ele>711</ele>
        <time>2021-09-12T04:57:12.000Z</time>
      </trkpt>
      <trkpt lat="45.2312" lon="5.73183">
        <ele>711.20001220703</ele>
        <time>2021-09-12T04:57:14.000Z</time>
      </trkpt>
      <trkpt lat="45.23121" lon="5.73183">
        <ele>711.59997558594</ele>
        <time>2021-09-12T04:57:15.000Z</time>
      </trkpt>
      <trkpt lat="45.23127" lon="5.73182">
        <ele>712.79998779297</ele>
        <time>2021-09-12T04:57:20.000Z</time>
      </trkpt>
      <trkpt lat="45.23128" lon="5.7318">
        <ele>713.20001220703</ele>
        <time>2021-09-12T04:57:21.000Z</time>
      </trkpt>
      <trkpt lat="45.23132" lon="5.73181">
        <ele>714.20001220703</ele>
        <time>2021-09-12T04:57:25.000Z</time>
      </trkpt>
      <trkpt lat="45.23138" lon="5.73183">
        <ele>715</ele>
        <time>2021-09-12T04:57:28.000Z</time>
      </trkpt>
      <trkpt lat="45.2314" lon="5.73183">
        <ele>715.40002441406</ele>
        <time>2021-09-12T04:57:30.000Z</time>
      </trkpt>
      <trkpt lat="45.23144" lon="5.73186">
        <ele>716</ele>
        <time>2021-09-12T04:57:34.000Z</time>
      </trkpt>
      <trkpt lat="45.23146" lon="5.73185">
        <ele>716.59997558594</ele>
        <time>2021-09-12T04:57:36.000Z</time>
      </trkpt>
      <trkpt lat="45.23153" lon="5.73186">
        <ele>717.59997558594</ele>
        <time>2021-09-12T04:57:41.000Z</time>
      </trkpt>
      <trkpt lat="45.23164" lon="5.73193">
        <ele>718.40002441406</ele>
        <time>2021-09-12T04:57:47.000Z</time>
      </trkpt>
      <trkpt lat="45.23168" lon="5.73195">
        <ele>718.59997558594</ele>
        <time>2021-09-12T04:57:49.000Z</time>
      </trkpt>
      <trkpt lat="45.23175" lon="5.73199">
        <ele>719.59997558594</ele>
        <time>2021-09-12T04:57:53.000Z</time>
      </trkpt>
      <trkpt lat="45.23177" lon="5.73199">
        <ele>719.59997558594</ele>
        <time>2021-09-12T04:57:54.000Z</time>
      </trkpt>
      <trkpt lat="45.2319" lon="5.73207">
        <ele>720.79998779297</ele>
        <time>2021-09-12T04:58:01.000Z</time>
      </trkpt>
      <trkpt lat="45.23197" lon="5.73214">
        <ele>721.79998779297</ele>
        <time>2021-09-12T04:58:06.000Z</time>
      </trkpt>
      <trkpt lat="45.23198" lon="5.73214">
        <ele>722</ele>
        <time>2021-09-12T04:58:07.000Z</time>
      </trkpt>
      <trkpt lat="45.23205" lon="5.73216">
        <ele>723</ele>
        <time>2021-09-12T04:58:12.000Z</time>
      </trkpt>
      <trkpt lat="45.23207" lon="5.73218">
        <ele>723.40002441406</ele>
        <time>2021-09-12T04:58:14.000Z</time>
      </trkpt>
      <trkpt lat="45.23211" lon="5.73222">
        <ele>724</ele>
        <time>2021-09-12T04:58:17.000Z</time>
      </trkpt>
      <trkpt lat="45.23218" lon="5.73226">
        <ele>725</ele>
        <time>2021-09-12T04:58:21.000Z</time>
      </trkpt>
      <trkpt lat="45.23219" lon="5.73227">
        <ele>725.20001220703</ele>
        <time>2021-09-12T04:58:22.000Z</time>
      </trkpt>
      <trkpt lat="45.23223" lon="5.73228">
        <ele>726.40002441406</ele>
        <time>2021-09-12T04:58:26.000Z</time>
      </trkpt>
      <trkpt lat="45.23226" lon="5.7323">
        <ele>727</ele>
        <time>2021-09-12T04:58:28.000Z</time>
      </trkpt>
      <trkpt lat="45.23227" lon="5.73231">
        <ele>727.40002441406</ele>
        <time>2021-09-12T04:58:29.000Z</time>
      </trkpt>
      <trkpt lat="45.23231" lon="5.73233">
        <ele>728.40002441406</ele>
        <time>2021-09-12T04:58:33.000Z</time>
      </trkpt>
      <trkpt lat="45.23234" lon="5.73234">
        <ele>729.40002441406</ele>
        <time>2021-09-12T04:58:37.000Z</time>
      </trkpt>
      <trkpt lat="45.23235" lon="5.73235">
        <ele>729.79998779297</ele>
        <time>2021-09-12T04:58:38.000Z</time>
      </trkpt>
      <trkpt lat="45.23237" lon="5.73236">
        <ele>730</ele>
        <time>2021-09-12T04:58:39.000Z</time>
      </trkpt>
      <trkpt lat="45.23239" lon="5.73235">
        <ele>730.79998779297</ele>
        <time>2021-09-12T04:58:42.000Z</time>
      </trkpt>
      <trkpt lat="45.23242" lon="5.73237">
        <ele>731.79998779297</ele>
        <time>2021-09-12T04:58:45.000Z</time>
      </trkpt>
      <trkpt lat="45.23242" lon="5.73238">
        <ele>732</ele>
        <time>2021-09-12T04:58:46.000Z</time>
      </trkpt>
      <trkpt lat="45.23244" lon="5.73241">
        <ele>733</ele>
        <time>2021-09-12T04:58:49.000Z</time>
      </trkpt>
      <trkpt lat="45.23246" lon="5.73242">
        <ele>733.20001220703</ele>
        <time>2021-09-12T04:58:50.000Z</time>
      </trkpt>
      <trkpt lat="45.23247" lon="5.73242">
        <ele>733.40002441406</ele>
        <time>2021-09-12T04:58:51.000Z</time>
      </trkpt>
      <trkpt lat="45.23249" lon="5.73244">
        <ele>734.40002441406</ele>
        <time>2021-09-12T04:58:54.000Z</time>
      </trkpt>
      <trkpt lat="45.2325" lon="5.73245">
        <ele>734.79998779297</ele>
        <time>2021-09-12T04:58:55.000Z</time>
      </trkpt>
      <trkpt lat="45.23254" lon="5.73249">
        <ele>735.59997558594</ele>
        <time>2021-09-12T04:58:58.000Z</time>
      </trkpt>
      <trkpt lat="45.23256" lon="5.73251">
        <ele>736.40002441406</ele>
        <time>2021-09-12T04:59:01.000Z</time>
      </trkpt>
      <trkpt lat="45.23257" lon="5.73252">
        <ele>736.59997558594</ele>
        <time>2021-09-12T04:59:02.000Z</time>
      </trkpt>
      <trkpt lat="45.2326" lon="5.73253">
        <ele>737.20001220703</ele>
        <time>2021-09-12T04:59:04.000Z</time>
      </trkpt>
      <trkpt lat="45.23262" lon="5.73255">
        <ele>737.79998779297</ele>
        <time>2021-09-12T04:59:06.000Z</time>
      </trkpt>
      <trkpt lat="45.23266" lon="5.73258">
        <ele>738.79998779297</ele>
        <time>2021-09-12T04:59:09.000Z</time>
      </trkpt>
      <trkpt lat="45.23268" lon="5.7326">
        <ele>739.20001220703</ele>
        <time>2021-09-12T04:59:10.000Z</time>
      </trkpt>
      <trkpt lat="45.23269" lon="5.73263">
        <ele>739.40002441406</ele>
        <time>2021-09-12T04:59:11.000Z</time>
      </trkpt>
      <trkpt lat="45.2327" lon="5.73268">
        <ele>740.40002441406</ele>
        <time>2021-09-12T04:59:14.000Z</time>
      </trkpt>
      <trkpt lat="45.2327" lon="5.73269">
        <ele>740.59997558594</ele>
        <time>2021-09-12T04:59:15.000Z</time>
      </trkpt>
      <trkpt lat="45.23269" lon="5.7327">
        <ele>741</ele>
        <time>2021-09-12T04:59:16.000Z</time>
      </trkpt>
      <trkpt lat="45.23268" lon="5.73272">
        <ele>741.20001220703</ele>
        <time>2021-09-12T04:59:17.000Z</time>
      </trkpt>
      <trkpt lat="45.23268" lon="5.73275">
        <ele>742</ele>
        <time>2021-09-12T04:59:19.000Z</time>
      </trkpt>
      <trkpt lat="45.23267" lon="5.73277">
        <ele>742.40002441406</ele>
        <time>2021-09-12T04:59:21.000Z</time>
      </trkpt>
      <trkpt lat="45.23266" lon="5.7328">
        <ele>743</ele>
        <time>2021-09-12T04:59:24.000Z</time>
      </trkpt>
      <trkpt lat="45.23266" lon="5.73281">
        <ele>743.40002441406</ele>
        <time>2021-09-12T04:59:25.000Z</time>
      </trkpt>
      <trkpt lat="45.23266" lon="5.73282">
        <ele>743.59997558594</ele>
        <time>2021-09-12T04:59:26.000Z</time>
      </trkpt>
      <trkpt lat="45.23266" lon="5.73284">
        <ele>744</ele>
        <time>2021-09-12T04:59:27.000Z</time>
      </trkpt>
      <trkpt lat="45.23265" lon="5.7329">
        <ele>745.40002441406</ele>
        <time>2021-09-12T04:59:32.000Z</time>
      </trkpt>
      <trkpt lat="45.23266" lon="5.73291">
        <ele>745.59997558594</ele>
        <time>2021-09-12T04:59:35.000Z</time>
      </trkpt>
      <trkpt lat="45.23267" lon="5.7329">
        <ele>745.59997558594</ele>
        <time>2021-09-12T04:59:36.000Z</time>
      </trkpt>
      <trkpt lat="45.23269" lon="5.73284">
        <ele>745.59997558594</ele>
        <time>2021-09-12T04:59:40.000Z</time>
      </trkpt>
      <trkpt lat="45.2327" lon="5.73283">
        <ele>745.59997558594</ele>
        <time>2021-09-12T04:59:41.000Z</time>
      </trkpt>
      <trkpt lat="45.23272" lon="5.73282">
        <ele>745.59997558594</ele>
        <time>2021-09-12T04:59:42.000Z</time>
      </trkpt>
      <trkpt lat="45.23275" lon="5.73279">
        <ele>745.59997558594</ele>
        <time>2021-09-12T04:59:44.000Z</time>
      </trkpt>
      <trkpt lat="45.23276" lon="5.73278">
        <ele>745.59997558594</ele>
        <time>2021-09-12T04:59:45.000Z</time>
      </trkpt>
      <trkpt lat="45.23277" lon="5.73276">
        <ele>745.40002441406</ele>
        <time>2021-09-12T04:59:46.000Z</time>
      </trkpt>
      <trkpt lat="45.23281" lon="5.7327">
        <ele>745.20001220703</ele>
        <time>2021-09-12T04:59:50.000Z</time>
      </trkpt>
      <trkpt lat="45.23289" lon="5.73268">
        <ele>743.79998779297</ele>
        <time>2021-09-12T04:59:54.000Z</time>
      </trkpt>
      <trkpt lat="45.23291" lon="5.73267">
        <ele>743.40002441406</ele>
        <time>2021-09-12T04:59:55.000Z</time>
      </trkpt>
      <trkpt lat="45.23294" lon="5.73267">
        <ele>742.79998779297</ele>
        <time>2021-09-12T04:59:56.000Z</time>
      </trkpt>
      <trkpt lat="45.23295" lon="5.73264">
        <ele>742.59997558594</ele>
        <time>2021-09-12T04:59:57.000Z</time>
      </trkpt>
      <trkpt lat="45.23302" lon="5.73263">
        <ele>741.59997558594</ele>
        <time>2021-09-12T05:00:00.000Z</time>
      </trkpt>
      <trkpt lat="45.23305" lon="5.73264">
        <ele>741.20001220703</ele>
        <time>2021-09-12T05:00:01.000Z</time>
      </trkpt>
      <trkpt lat="45.23311" lon="5.73262">
        <ele>740</ele>
        <time>2021-09-12T05:00:04.000Z</time>
      </trkpt>
      <trkpt lat="45.23314" lon="5.73263">
        <ele>739.59997558594</ele>
        <time>2021-09-12T05:00:05.000Z</time>
      </trkpt>
      <trkpt lat="45.23317" lon="5.73265">
        <ele>739.40002441406</ele>
        <time>2021-09-12T05:00:06.000Z</time>
      </trkpt>
      <trkpt lat="45.23321" lon="5.73266">
        <ele>738.79998779297</ele>
        <time>2021-09-12T05:00:08.000Z</time>
      </trkpt>
      <trkpt lat="45.23327" lon="5.73269">
        <ele>738.20001220703</ele>
        <time>2021-09-12T05:00:11.000Z</time>
      </trkpt>
      <trkpt lat="45.23331" lon="5.73273">
        <ele>737.79998779297</ele>
        <time>2021-09-12T05:00:14.000Z</time>
      </trkpt>
      <trkpt lat="45.23334" lon="5.73274">
        <ele>737.59997558594</ele>
        <time>2021-09-12T05:00:15.000Z</time>
      </trkpt>
      <trkpt lat="45.23346" lon="5.7328">
        <ele>737.40002441406</ele>
        <time>2021-09-12T05:00:19.000Z</time>
      </trkpt>
      <trkpt lat="45.23358" lon="5.73289">
        <ele>737</ele>
        <time>2021-09-12T05:00:24.000Z</time>
      </trkpt>
      <trkpt lat="45.23364" lon="5.73292">
        <ele>736.79998779297</ele>
        <time>2021-09-12T05:00:27.000Z</time>
      </trkpt>
      <trkpt lat="45.23366" lon="5.73293">
        <ele>736.59997558594</ele>
        <time>2021-09-12T05:00:28.000Z</time>
      </trkpt>
      <trkpt lat="45.23371" lon="5.73295">
        <ele>736.59997558594</ele>
        <time>2021-09-12T05:00:30.000Z</time>
      </trkpt>
      <trkpt lat="45.23372" lon="5.73298">
        <ele>737</ele>
        <time>2021-09-12T05:00:32.000Z</time>
      </trkpt>
      <trkpt lat="45.23372" lon="5.73299">
        <ele>737.20001220703</ele>
        <time>2021-09-12T05:00:33.000Z</time>
      </trkpt>
      <trkpt lat="45.23371" lon="5.733">
        <ele>737.40002441406</ele>
        <time>2021-09-12T05:00:35.000Z</time>
      </trkpt>
      <trkpt lat="45.23371" lon="5.73302">
        <ele>738</ele>
        <time>2021-09-12T05:00:36.000Z</time>
      </trkpt>
      <trkpt lat="45.23372" lon="5.73307">
        <ele>739</ele>
        <time>2021-09-12T05:00:40.000Z</time>
      </trkpt>
      <trkpt lat="45.23375" lon="5.73313">
        <ele>740.20001220703</ele>
        <time>2021-09-12T05:00:44.000Z</time>
      </trkpt>
      <trkpt lat="45.23375" lon="5.73314">
        <ele>740.59997558594</ele>
        <time>2021-09-12T05:00:45.000Z</time>
      </trkpt>
      <trkpt lat="45.23376" lon="5.73317">
        <ele>741.40002441406</ele>
        <time>2021-09-12T05:00:47.000Z</time>
      </trkpt>
      <trkpt lat="45.23377" lon="5.73319">
        <ele>741.59997558594</ele>
        <time>2021-09-12T05:00:48.000Z</time>
      </trkpt>
      <trkpt lat="45.23377" lon="5.7332">
        <ele>741.79998779297</ele>
        <time>2021-09-12T05:00:49.000Z</time>
      </trkpt>
      <trkpt lat="45.23377" lon="5.73322">
        <ele>742.20001220703</ele>
        <time>2021-09-12T05:00:51.000Z</time>
      </trkpt>
      <trkpt lat="45.23378" lon="5.73325">
        <ele>742.59997558594</ele>
        <time>2021-09-12T05:00:52.000Z</time>
      </trkpt>
      <trkpt lat="45.23377" lon="5.73326">
        <ele>743</ele>
        <time>2021-09-12T05:00:53.000Z</time>
      </trkpt>
      <trkpt lat="45.23376" lon="5.73329">
        <ele>743.59997558594</ele>
        <time>2021-09-12T05:00:55.000Z</time>
      </trkpt>
      <trkpt lat="45.23375" lon="5.73328">
        <ele>743.79998779297</ele>
        <time>2021-09-12T05:00:56.000Z</time>
      </trkpt>
      <trkpt lat="45.23376" lon="5.73331">
        <ele>744.59997558594</ele>
        <time>2021-09-12T05:00:58.000Z</time>
      </trkpt>
      <trkpt lat="45.23377" lon="5.73334">
        <ele>744.79998779297</ele>
        <time>2021-09-12T05:01:00.000Z</time>
      </trkpt>
      <trkpt lat="45.23378" lon="5.73337">
        <ele>745.40002441406</ele>
        <time>2021-09-12T05:01:02.000Z</time>
      </trkpt>
      <trkpt lat="45.23379" lon="5.73338">
        <ele>745.59997558594</ele>
        <time>2021-09-12T05:01:03.000Z</time>
      </trkpt>
      <trkpt lat="45.2338" lon="5.7334">
        <ele>746</ele>
        <time>2021-09-12T05:01:05.000Z</time>
      </trkpt>
      <trkpt lat="45.23381" lon="5.73344">
        <ele>746.59997558594</ele>
        <time>2021-09-12T05:01:08.000Z</time>
      </trkpt>
      <trkpt lat="45.23381" lon="5.73345">
        <ele>747</ele>
        <time>2021-09-12T05:01:09.000Z</time>
      </trkpt>
      <trkpt lat="45.23382" lon="5.73347">
        <ele>747.20001220703</ele>
        <time>2021-09-12T05:01:10.000Z</time>
      </trkpt>
      <trkpt lat="45.23384" lon="5.73352">
        <ele>748.40002441406</ele>
        <time>2021-09-12T05:01:14.000Z</time>
      </trkpt>
      <trkpt lat="45.23385" lon="5.73356">
        <ele>749.20001220703</ele>
        <time>2021-09-12T05:01:18.000Z</time>
      </trkpt>
      <trkpt lat="45.23386" lon="5.73357">
        <ele>749.40002441406</ele>
        <time>2021-09-12T05:01:19.000Z</time>
      </trkpt>
      <trkpt lat="45.23386" lon="5.73358">
        <ele>749.79998779297</ele>
        <time>2021-09-12T05:01:20.000Z</time>
      </trkpt>
      <trkpt lat="45.23389" lon="5.73362">
        <ele>750.59997558594</ele>
        <time>2021-09-12T05:01:23.000Z</time>
      </trkpt>
      <trkpt lat="45.2339" lon="5.73366">
        <ele>751.40002441406</ele>
        <time>2021-09-12T05:01:27.000Z</time>
      </trkpt>
      <trkpt lat="45.2339" lon="5.73367">
        <ele>751.59997558594</ele>
        <time>2021-09-12T05:01:28.000Z</time>
      </trkpt>
      <trkpt lat="45.23394" lon="5.73373">
        <ele>752.79998779297</ele>
        <time>2021-09-12T05:01:32.000Z</time>
      </trkpt>
      <trkpt lat="45.23396" lon="5.73376">
        <ele>753.40002441406</ele>
        <time>2021-09-12T05:01:34.000Z</time>
      </trkpt>
      <trkpt lat="45.23397" lon="5.73379">
        <ele>754.20001220703</ele>
        <time>2021-09-12T05:01:37.000Z</time>
      </trkpt>
      <trkpt lat="45.23398" lon="5.73382">
        <ele>755.20001220703</ele>
        <time>2021-09-12T05:01:40.000Z</time>
      </trkpt>
      <trkpt lat="45.23398" lon="5.73383">
        <ele>755.40002441406</ele>
        <time>2021-09-12T05:01:41.000Z</time>
      </trkpt>
      <trkpt lat="45.234" lon="5.73388">
        <ele>756</ele>
        <time>2021-09-12T05:01:44.000Z</time>
      </trkpt>
      <trkpt lat="45.234" lon="5.73388">
        <ele>756.79998779297</ele>
        <time>2021-09-12T05:01:46.000Z</time>
      </trkpt>
      <trkpt lat="45.234" lon="5.73389">
        <ele>757</ele>
        <time>2021-09-12T05:01:47.000Z</time>
      </trkpt>
      <trkpt lat="45.23404" lon="5.73392">
        <ele>757.79998779297</ele>
        <time>2021-09-12T05:01:49.000Z</time>
      </trkpt>
      <trkpt lat="45.23404" lon="5.73394">
        <ele>758</ele>
        <time>2021-09-12T05:01:51.000Z</time>
      </trkpt>
      <trkpt lat="45.23404" lon="5.73397">
        <ele>759</ele>
        <time>2021-09-12T05:01:54.000Z</time>
      </trkpt>
      <trkpt lat="45.23405" lon="5.73398">
        <ele>759.40002441406</ele>
        <time>2021-09-12T05:01:56.000Z</time>
      </trkpt>
      <trkpt lat="45.23405" lon="5.73399">
        <ele>759.79998779297</ele>
        <time>2021-09-12T05:01:57.000Z</time>
      </trkpt>
      <trkpt lat="45.23406" lon="5.73401">
        <ele>760</ele>
        <time>2021-09-12T05:01:59.000Z</time>
      </trkpt>
      <trkpt lat="45.23406" lon="5.73403">
        <ele>760.79998779297</ele>
        <time>2021-09-12T05:02:02.000Z</time>
      </trkpt>
      <trkpt lat="45.23407" lon="5.73404">
        <ele>761.20001220703</ele>
        <time>2021-09-12T05:02:03.000Z</time>
      </trkpt>
      <trkpt lat="45.23408" lon="5.73407">
        <ele>761.79998779297</ele>
        <time>2021-09-12T05:02:05.000Z</time>
      </trkpt>
      <trkpt lat="45.23409" lon="5.73408">
        <ele>762</ele>
        <time>2021-09-12T05:02:06.000Z</time>
      </trkpt>
      <trkpt lat="45.23409" lon="5.73412">
        <ele>762.40002441406</ele>
        <time>2021-09-12T05:02:09.000Z</time>
      </trkpt>
      <trkpt lat="45.2341" lon="5.73414">
        <ele>763.20001220703</ele>
        <time>2021-09-12T05:02:12.000Z</time>
      </trkpt>
      <trkpt lat="45.2341" lon="5.73415">
        <ele>763.59997558594</ele>
        <time>2021-09-12T05:02:13.000Z</time>
      </trkpt>
      <trkpt lat="45.2341" lon="5.73419">
        <ele>764.40002441406</ele>
        <time>2021-09-12T05:02:17.000Z</time>
      </trkpt>
      <trkpt lat="45.2341" lon="5.7342">
        <ele>764.79998779297</ele>
        <time>2021-09-12T05:02:18.000Z</time>
      </trkpt>
      <trkpt lat="45.23411" lon="5.73421">
        <ele>765</ele>
        <time>2021-09-12T05:02:19.000Z</time>
      </trkpt>
      <trkpt lat="45.23411" lon="5.73421">
        <ele>765.40002441406</ele>
        <time>2021-09-12T05:02:20.000Z</time>
      </trkpt>
      <trkpt lat="45.23412" lon="5.73423">
        <ele>765.79998779297</ele>
        <time>2021-09-12T05:02:22.000Z</time>
      </trkpt>
      <trkpt lat="45.23412" lon="5.73426">
        <ele>766.40002441406</ele>
        <time>2021-09-12T05:02:24.000Z</time>
      </trkpt>
      <trkpt lat="45.23413" lon="5.73427">
        <ele>766.59997558594</ele>
        <time>2021-09-12T05:02:25.000Z</time>
      </trkpt>
      <trkpt lat="45.23413" lon="5.73427">
        <ele>767</ele>
        <time>2021-09-12T05:02:26.000Z</time>
      </trkpt>
      <trkpt lat="45.23415" lon="5.7343">
        <ele>767.59997558594</ele>
        <time>2021-09-12T05:02:28.000Z</time>
      </trkpt>
      <trkpt lat="45.23415" lon="5.73432">
        <ele>768</ele>
        <time>2021-09-12T05:02:30.000Z</time>
      </trkpt>
      <trkpt lat="45.23416" lon="5.73434">
        <ele>768.40002441406</ele>
        <time>2021-09-12T05:02:32.000Z</time>
      </trkpt>
      <trkpt lat="45.23419" lon="5.73437">
        <ele>769.40002441406</ele>
        <time>2021-09-12T05:02:35.000Z</time>
      </trkpt>
      <trkpt lat="45.23419" lon="5.7344">
        <ele>770.20001220703</ele>
        <time>2021-09-12T05:02:38.000Z</time>
      </trkpt>
      <trkpt lat="45.23419" lon="5.73442">
        <ele>770.40002441406</ele>
        <time>2021-09-12T05:02:39.000Z</time>
      </trkpt>
      <trkpt lat="45.23421" lon="5.73446">
        <ele>771.40002441406</ele>
        <time>2021-09-12T05:02:43.000Z</time>
      </trkpt>
      <trkpt lat="45.23421" lon="5.73447">
        <ele>772</ele>
        <time>2021-09-12T05:02:45.000Z</time>
      </trkpt>
      <trkpt lat="45.23422" lon="5.73448">
        <ele>772.20001220703</ele>
        <time>2021-09-12T05:02:46.000Z</time>
      </trkpt>
      <trkpt lat="45.23422" lon="5.73449">
        <ele>772.59997558594</ele>
        <time>2021-09-12T05:02:47.000Z</time>
      </trkpt>
      <trkpt lat="45.23423" lon="5.73455">
        <ele>773.59997558594</ele>
        <time>2021-09-12T05:02:51.000Z</time>
      </trkpt>
      <trkpt lat="45.23423" lon="5.73456">
        <ele>773.59997558594</ele>
        <time>2021-09-12T05:02:52.000Z</time>
      </trkpt>
      <trkpt lat="45.23425" lon="5.7346">
        <ele>775</ele>
        <time>2021-09-12T05:02:56.000Z</time>
      </trkpt>
      <trkpt lat="45.23425" lon="5.73462">
        <ele>775.59997558594</ele>
        <time>2021-09-12T05:02:58.000Z</time>
      </trkpt>
      <trkpt lat="45.23425" lon="5.73462">
        <ele>775.79998779297</ele>
        <time>2021-09-12T05:02:59.000Z</time>
      </trkpt>
      <trkpt lat="45.23425" lon="5.73462">
        <ele>776</ele>
        <time>2021-09-12T05:03:00.000Z</time>
      </trkpt>
      <trkpt lat="45.23427" lon="5.73464">
        <ele>777</ele>
        <time>2021-09-12T05:03:04.000Z</time>
      </trkpt>
      <trkpt lat="45.23427" lon="5.73465">
        <ele>777.40002441406</ele>
        <time>2021-09-12T05:03:05.000Z</time>
      </trkpt>
      <trkpt lat="45.23428" lon="5.73466">
        <ele>777.79998779297</ele>
        <time>2021-09-12T05:03:06.000Z</time>
      </trkpt>
      <trkpt lat="45.2343" lon="5.7347">
        <ele>778.20001220703</ele>
        <time>2021-09-12T05:03:09.000Z</time>
      </trkpt>
      <trkpt lat="45.23431" lon="5.73472">
        <ele>778.79998779297</ele>
        <time>2021-09-12T05:03:11.000Z</time>
      </trkpt>
      <trkpt lat="45.23433" lon="5.73472">
        <ele>779.40002441406</ele>
        <time>2021-09-12T05:03:13.000Z</time>
      </trkpt>
      <trkpt lat="45.23434" lon="5.73473">
        <ele>779.79998779297</ele>
        <time>2021-09-12T05:03:14.000Z</time>
      </trkpt>
      <trkpt lat="45.23438" lon="5.73475">
        <ele>780.20001220703</ele>
        <time>2021-09-12T05:03:16.000Z</time>
      </trkpt>
      <trkpt lat="45.23439" lon="5.73477">
        <ele>780.59997558594</ele>
        <time>2021-09-12T05:03:18.000Z</time>
      </trkpt>
      <trkpt lat="45.2344" lon="5.73478">
        <ele>780.79998779297</ele>
        <time>2021-09-12T05:03:19.000Z</time>
      </trkpt>
      <trkpt lat="45.2344" lon="5.73481">
        <ele>781.79998779297</ele>
        <time>2021-09-12T05:03:22.000Z</time>
      </trkpt>
      <trkpt lat="45.23439" lon="5.73485">
        <ele>782.20001220703</ele>
        <time>2021-09-12T05:03:24.000Z</time>
      </trkpt>
      <trkpt lat="45.23439" lon="5.73488">
        <ele>783</ele>
        <time>2021-09-12T05:03:26.000Z</time>
      </trkpt>
      <trkpt lat="45.23439" lon="5.7349">
        <ele>783.20001220703</ele>
        <time>2021-09-12T05:03:27.000Z</time>
      </trkpt>
      <trkpt lat="45.23442" lon="5.73495">
        <ele>783.79998779297</ele>
        <time>2021-09-12T05:03:30.000Z</time>
      </trkpt>
      <trkpt lat="45.23442" lon="5.73496">
        <ele>784</ele>
        <time>2021-09-12T05:03:31.000Z</time>
      </trkpt>
      <trkpt lat="45.23443" lon="5.73499">
        <ele>784.79998779297</ele>
        <time>2021-09-12T05:03:34.000Z</time>
      </trkpt>
      <trkpt lat="45.23444" lon="5.735">
        <ele>785</ele>
        <time>2021-09-12T05:03:35.000Z</time>
      </trkpt>
      <trkpt lat="45.23447" lon="5.73502">
        <ele>785.59997558594</ele>
        <time>2021-09-12T05:03:37.000Z</time>
      </trkpt>
      <trkpt lat="45.23447" lon="5.73504">
        <ele>785.79998779297</ele>
        <time>2021-09-12T05:03:38.000Z</time>
      </trkpt>
      <trkpt lat="45.23448" lon="5.73506">
        <ele>786.20001220703</ele>
        <time>2021-09-12T05:03:40.000Z</time>
      </trkpt>
      <trkpt lat="45.23448" lon="5.73507">
        <ele>786.40002441406</ele>
        <time>2021-09-12T05:03:41.000Z</time>
      </trkpt>
      <trkpt lat="45.23448" lon="5.73507">
        <ele>786.79998779297</ele>
        <time>2021-09-12T05:03:42.000Z</time>
      </trkpt>
      <trkpt lat="45.23449" lon="5.73509">
        <ele>787.40002441406</ele>
        <time>2021-09-12T05:03:44.000Z</time>
      </trkpt>
      <trkpt lat="45.23451" lon="5.73511">
        <ele>788.40002441406</ele>
        <time>2021-09-12T05:03:47.000Z</time>
      </trkpt>
      <trkpt lat="45.23451" lon="5.73513">
        <ele>788.79998779297</ele>
        <time>2021-09-12T05:03:48.000Z</time>
      </trkpt>
      <trkpt lat="45.23453" lon="5.73515">
        <ele>789.40002441406</ele>
        <time>2021-09-12T05:03:50.000Z</time>
      </trkpt>
      <trkpt lat="45.23455" lon="5.73515">
        <ele>789.40002441406</ele>
        <time>2021-09-12T05:03:51.000Z</time>
      </trkpt>
      <trkpt lat="45.23457" lon="5.73517">
        <ele>789.59997558594</ele>
        <time>2021-09-12T05:03:53.000Z</time>
      </trkpt>
      <trkpt lat="45.23459" lon="5.7352">
        <ele>790.40002441406</ele>
        <time>2021-09-12T05:03:56.000Z</time>
      </trkpt>
      <trkpt lat="45.23462" lon="5.73524">
        <ele>791.40002441406</ele>
        <time>2021-09-12T05:03:59.000Z</time>
      </trkpt>
      <trkpt lat="45.23463" lon="5.73525">
        <ele>791.59997558594</ele>
        <time>2021-09-12T05:04:00.000Z</time>
      </trkpt>
      <trkpt lat="45.23464" lon="5.73527">
        <ele>792</ele>
        <time>2021-09-12T05:04:02.000Z</time>
      </trkpt>
      <trkpt lat="45.23464" lon="5.73529">
        <ele>792.59997558594</ele>
        <time>2021-09-12T05:04:04.000Z</time>
      </trkpt>
      <trkpt lat="45.23464" lon="5.7353">
        <ele>793</ele>
        <time>2021-09-12T05:04:05.000Z</time>
      </trkpt>
      <trkpt lat="45.23464" lon="5.73532">
        <ele>793.40002441406</ele>
        <time>2021-09-12T05:04:06.000Z</time>
      </trkpt>
      <trkpt lat="45.23465" lon="5.73535">
        <ele>793.59997558594</ele>
        <time>2021-09-12T05:04:08.000Z</time>
      </trkpt>
      <trkpt lat="45.23465" lon="5.73535">
        <ele>793.79998779297</ele>
        <time>2021-09-12T05:04:09.000Z</time>
      </trkpt>
      <trkpt lat="45.23465" lon="5.73536">
        <ele>794.20001220703</ele>
        <time>2021-09-12T05:04:10.000Z</time>
      </trkpt>
      <trkpt lat="45.23468" lon="5.73539">
        <ele>795</ele>
        <time>2021-09-12T05:04:13.000Z</time>
      </trkpt>
      <trkpt lat="45.23469" lon="5.73539">
        <ele>795.40002441406</ele>
        <time>2021-09-12T05:04:14.000Z</time>
      </trkpt>
      <trkpt lat="45.23469" lon="5.73539">
        <ele>796</ele>
        <time>2021-09-12T05:04:16.000Z</time>
      </trkpt>
      <trkpt lat="45.23469" lon="5.73539">
        <ele>796.20001220703</ele>
        <time>2021-09-12T05:04:17.000Z</time>
      </trkpt>
      <trkpt lat="45.23469" lon="5.73539">
        <ele>796.40002441406</ele>
        <time>2021-09-12T05:04:18.000Z</time>
      </trkpt>
      <trkpt lat="45.23468" lon="5.7354">
        <ele>797</ele>
        <time>2021-09-12T05:04:20.000Z</time>
      </trkpt>
      <trkpt lat="45.23469" lon="5.73542">
        <ele>797.20001220703</ele>
        <time>2021-09-12T05:04:21.000Z</time>
      </trkpt>
      <trkpt lat="45.2347" lon="5.73543">
        <ele>797.79998779297</ele>
        <time>2021-09-12T05:04:22.000Z</time>
      </trkpt>
      <trkpt lat="45.23473" lon="5.73547">
        <ele>798.20001220703</ele>
        <time>2021-09-12T05:04:24.000Z</time>
      </trkpt>
      <trkpt lat="45.23474" lon="5.73548">
        <ele>798.40002441406</ele>
        <time>2021-09-12T05:04:25.000Z</time>
      </trkpt>
      <trkpt lat="45.23477" lon="5.73552">
        <ele>799.59997558594</ele>
        <time>2021-09-12T05:04:29.000Z</time>
      </trkpt>
      <trkpt lat="45.23479" lon="5.73554">
        <ele>800.20001220703</ele>
        <time>2021-09-12T05:04:31.000Z</time>
      </trkpt>
      <trkpt lat="45.23479" lon="5.73554">
        <ele>800.40002441406</ele>
        <time>2021-09-12T05:04:32.000Z</time>
      </trkpt>
      <trkpt lat="45.2348" lon="5.73555">
        <ele>801</ele>
        <time>2021-09-12T05:04:34.000Z</time>
      </trkpt>
      <trkpt lat="45.2348" lon="5.73556">
        <ele>801.40002441406</ele>
        <time>2021-09-12T05:04:35.000Z</time>
      </trkpt>
      <trkpt lat="45.23482" lon="5.73557">
        <ele>802</ele>
        <time>2021-09-12T05:04:37.000Z</time>
      </trkpt>
      <trkpt lat="45.23484" lon="5.73559">
        <ele>803.20001220703</ele>
        <time>2021-09-12T05:04:40.000Z</time>
      </trkpt>
      <trkpt lat="45.23487" lon="5.73562">
        <ele>803.59997558594</ele>
        <time>2021-09-12T05:04:43.000Z</time>
      </trkpt>
      <trkpt lat="45.23488" lon="5.73563">
        <ele>804</ele>
        <time>2021-09-12T05:04:44.000Z</time>
      </trkpt>
      <trkpt lat="45.23488" lon="5.73564">
        <ele>804.40002441406</ele>
        <time>2021-09-12T05:04:45.000Z</time>
      </trkpt>
      <trkpt lat="45.23488" lon="5.73565">
        <ele>804.79998779297</ele>
        <time>2021-09-12T05:04:46.000Z</time>
      </trkpt>
      <trkpt lat="45.23488" lon="5.73567">
        <ele>805.59997558594</ele>
        <time>2021-09-12T05:04:48.000Z</time>
      </trkpt>
      <trkpt lat="45.23489" lon="5.73568">
        <ele>806</ele>
        <time>2021-09-12T05:04:50.000Z</time>
      </trkpt>
      <trkpt lat="45.2349" lon="5.73569">
        <ele>806.59997558594</ele>
        <time>2021-09-12T05:04:52.000Z</time>
      </trkpt>
      <trkpt lat="45.2349" lon="5.73571">
        <ele>807.20001220703</ele>
        <time>2021-09-12T05:04:54.000Z</time>
      </trkpt>
      <trkpt lat="45.2349" lon="5.73573">
        <ele>807.79998779297</ele>
        <time>2021-09-12T05:04:56.000Z</time>
      </trkpt>
      <trkpt lat="45.2349" lon="5.73575">
        <ele>808.40002441406</ele>
        <time>2021-09-12T05:04:58.000Z</time>
      </trkpt>
      <trkpt lat="45.2349" lon="5.73576">
        <ele>809</ele>
        <time>2021-09-12T05:04:59.000Z</time>
      </trkpt>
      <trkpt lat="45.2349" lon="5.73578">
        <ele>809.59997558594</ele>
        <time>2021-09-12T05:05:01.000Z</time>
      </trkpt>
      <trkpt lat="45.2349" lon="5.73579">
        <ele>810</ele>
        <time>2021-09-12T05:05:03.000Z</time>
      </trkpt>
      <trkpt lat="45.23491" lon="5.73579">
        <ele>810.20001220703</ele>
        <time>2021-09-12T05:05:04.000Z</time>
      </trkpt>
      <trkpt lat="45.23492" lon="5.73581">
        <ele>811.20001220703</ele>
        <time>2021-09-12T05:05:07.000Z</time>
      </trkpt>
      <trkpt lat="45.23493" lon="5.73584">
        <ele>812.20001220703</ele>
        <time>2021-09-12T05:05:10.000Z</time>
      </trkpt>
      <trkpt lat="45.23493" lon="5.73585">
        <ele>812.40002441406</ele>
        <time>2021-09-12T05:05:11.000Z</time>
      </trkpt>
      <trkpt lat="45.23494" lon="5.73586">
        <ele>812.79998779297</ele>
        <time>2021-09-12T05:05:13.000Z</time>
      </trkpt>
      <trkpt lat="45.23494" lon="5.73588">
        <ele>813.40002441406</ele>
        <time>2021-09-12T05:05:15.000Z</time>
      </trkpt>
      <trkpt lat="45.23494" lon="5.73589">
        <ele>813.59997558594</ele>
        <time>2021-09-12T05:05:16.000Z</time>
      </trkpt>
      <trkpt lat="45.23494" lon="5.7359">
        <ele>814</ele>
        <time>2021-09-12T05:05:17.000Z</time>
      </trkpt>
      <trkpt lat="45.23496" lon="5.73591">
        <ele>814.40002441406</ele>
        <time>2021-09-12T05:05:18.000Z</time>
      </trkpt>
      <trkpt lat="45.23497" lon="5.73593">
        <ele>815.20001220703</ele>
        <time>2021-09-12T05:05:21.000Z</time>
      </trkpt>
      <trkpt lat="45.23496" lon="5.73591">
        <ele>815.79998779297</ele>
        <time>2021-09-12T05:05:22.000Z</time>
      </trkpt>
      <trkpt lat="45.23497" lon="5.73588">
        <ele>816.79998779297</ele>
        <time>2021-09-12T05:05:26.000Z</time>
      </trkpt>
      <trkpt lat="45.23501" lon="5.7359">
        <ele>818</ele>
        <time>2021-09-12T05:05:31.000Z</time>
      </trkpt>
      <trkpt lat="45.23508" lon="5.73593">
        <ele>818.40002441406</ele>
        <time>2021-09-12T05:05:38.000Z</time>
      </trkpt>
      <trkpt lat="45.2351" lon="5.73596">
        <ele>818.40002441406</ele>
        <time>2021-09-12T05:05:40.000Z</time>
      </trkpt>
      <trkpt lat="45.23513" lon="5.73599">
        <ele>818.79998779297</ele>
        <time>2021-09-12T05:05:44.000Z</time>
      </trkpt>
      <trkpt lat="45.23514" lon="5.73601">
        <ele>819</ele>
        <time>2021-09-12T05:05:45.000Z</time>
      </trkpt>
      <trkpt lat="45.23518" lon="5.73604">
        <ele>819.79998779297</ele>
        <time>2021-09-12T05:05:48.000Z</time>
      </trkpt>
      <trkpt lat="45.23521" lon="5.73605">
        <ele>820.20001220703</ele>
        <time>2021-09-12T05:05:49.000Z</time>
      </trkpt>
      <trkpt lat="45.23522" lon="5.73606">
        <ele>820.40002441406</ele>
        <time>2021-09-12T05:05:50.000Z</time>
      </trkpt>
      <trkpt lat="45.23524" lon="5.73606">
        <ele>821.20001220703</ele>
        <time>2021-09-12T05:05:52.000Z</time>
      </trkpt>
      <trkpt lat="45.23528" lon="5.73607">
        <ele>822.20001220703</ele>
        <time>2021-09-12T05:05:56.000Z</time>
      </trkpt>
      <trkpt lat="45.23529" lon="5.73608">
        <ele>822.79998779297</ele>
        <time>2021-09-12T05:05:57.000Z</time>
      </trkpt>
      <trkpt lat="45.2353" lon="5.73609">
        <ele>823</ele>
        <time>2021-09-12T05:05:58.000Z</time>
      </trkpt>
      <trkpt lat="45.23531" lon="5.73609">
        <ele>823.40002441406</ele>
        <time>2021-09-12T05:05:59.000Z</time>
      </trkpt>
      <trkpt lat="45.23536" lon="5.73613">
        <ele>824.59997558594</ele>
        <time>2021-09-12T05:06:04.000Z</time>
      </trkpt>
      <trkpt lat="45.23537" lon="5.73615">
        <ele>825.40002441406</ele>
        <time>2021-09-12T05:06:07.000Z</time>
      </trkpt>
      <trkpt lat="45.23538" lon="5.73616">
        <ele>825.79998779297</ele>
        <time>2021-09-12T05:06:09.000Z</time>
      </trkpt>
      <trkpt lat="45.2354" lon="5.73618">
        <ele>826.40002441406</ele>
        <time>2021-09-12T05:06:11.000Z</time>
      </trkpt>
      <trkpt lat="45.2354" lon="5.73619">
        <ele>827</ele>
        <time>2021-09-12T05:06:12.000Z</time>
      </trkpt>
      <trkpt lat="45.23542" lon="5.7362">
        <ele>828</ele>
        <time>2021-09-12T05:06:16.000Z</time>
      </trkpt>
      <trkpt lat="45.23543" lon="5.73621">
        <ele>828.79998779297</ele>
        <time>2021-09-12T05:06:18.000Z</time>
      </trkpt>
      <trkpt lat="45.23543" lon="5.73621">
        <ele>829</ele>
        <time>2021-09-12T05:06:19.000Z</time>
      </trkpt>
      <trkpt lat="45.23544" lon="5.73622">
        <ele>829.59997558594</ele>
        <time>2021-09-12T05:06:21.000Z</time>
      </trkpt>
      <trkpt lat="45.23545" lon="5.73623">
        <ele>830.20001220703</ele>
        <time>2021-09-12T05:06:23.000Z</time>
      </trkpt>
      <trkpt lat="45.23549" lon="5.73627">
        <ele>831.20001220703</ele>
        <time>2021-09-12T05:06:26.000Z</time>
      </trkpt>
      <trkpt lat="45.2355" lon="5.73628">
        <ele>831.40002441406</ele>
        <time>2021-09-12T05:06:27.000Z</time>
      </trkpt>
      <trkpt lat="45.23552" lon="5.7363">
        <ele>832</ele>
        <time>2021-09-12T05:06:29.000Z</time>
      </trkpt>
      <trkpt lat="45.23555" lon="5.73632">
        <ele>832.79998779297</ele>
        <time>2021-09-12T05:06:31.000Z</time>
      </trkpt>
      <trkpt lat="45.23561" lon="5.73636">
        <ele>833.79998779297</ele>
        <time>2021-09-12T05:06:35.000Z</time>
      </trkpt>
      <trkpt lat="45.23562" lon="5.73636">
        <ele>834</ele>
        <time>2021-09-12T05:06:36.000Z</time>
      </trkpt>
      <trkpt lat="45.23563" lon="5.73635">
        <ele>834.59997558594</ele>
        <time>2021-09-12T05:06:38.000Z</time>
      </trkpt>
      <trkpt lat="45.23563" lon="5.73633">
        <ele>835</ele>
        <time>2021-09-12T05:06:39.000Z</time>
      </trkpt>
      <trkpt lat="45.23563" lon="5.73632">
        <ele>835.20001220703</ele>
        <time>2021-09-12T05:06:40.000Z</time>
      </trkpt>
      <trkpt lat="45.23564" lon="5.73633">
        <ele>835.40002441406</ele>
        <time>2021-09-12T05:06:41.000Z</time>
      </trkpt>
      <trkpt lat="45.23566" lon="5.73634">
        <ele>836</ele>
        <time>2021-09-12T05:06:43.000Z</time>
      </trkpt>
      <trkpt lat="45.23567" lon="5.73635">
        <ele>836.59997558594</ele>
        <time>2021-09-12T05:06:45.000Z</time>
      </trkpt>
      <trkpt lat="45.23568" lon="5.73636">
        <ele>837.20001220703</ele>
        <time>2021-09-12T05:06:46.000Z</time>
      </trkpt>
      <trkpt lat="45.2357" lon="5.73638">
        <ele>838.20001220703</ele>
        <time>2021-09-12T05:06:49.000Z</time>
      </trkpt>
      <trkpt lat="45.23573" lon="5.73639">
        <ele>838.79998779297</ele>
        <time>2021-09-12T05:06:52.000Z</time>
      </trkpt>
      <trkpt lat="45.23575" lon="5.7364">
        <ele>839.20001220703</ele>
        <time>2021-09-12T05:06:53.000Z</time>
      </trkpt>
      <trkpt lat="45.23578" lon="5.73642">
        <ele>840</ele>
        <time>2021-09-12T05:06:56.000Z</time>
      </trkpt>
      <trkpt lat="45.23578" lon="5.73643">
        <ele>840.40002441406</ele>
        <time>2021-09-12T05:06:57.000Z</time>
      </trkpt>
      <trkpt lat="45.2358" lon="5.73645">
        <ele>841</ele>
        <time>2021-09-12T05:06:59.000Z</time>
      </trkpt>
      <trkpt lat="45.23581" lon="5.73647">
        <ele>841.40002441406</ele>
        <time>2021-09-12T05:07:01.000Z</time>
      </trkpt>
      <trkpt lat="45.23581" lon="5.73649">
        <ele>842.59997558594</ele>
        <time>2021-09-12T05:07:04.000Z</time>
      </trkpt>
      <trkpt lat="45.23582" lon="5.7365">
        <ele>842.79998779297</ele>
        <time>2021-09-12T05:07:05.000Z</time>
      </trkpt>
      <trkpt lat="45.23583" lon="5.73652">
        <ele>843.20001220703</ele>
        <time>2021-09-12T05:07:06.000Z</time>
      </trkpt>
      <trkpt lat="45.23584" lon="5.73653">
        <ele>843.79998779297</ele>
        <time>2021-09-12T05:07:08.000Z</time>
      </trkpt>
      <trkpt lat="45.23585" lon="5.73655">
        <ele>844.79998779297</ele>
        <time>2021-09-12T05:07:11.000Z</time>
      </trkpt>
      <trkpt lat="45.23585" lon="5.73655">
        <ele>845.20001220703</ele>
        <time>2021-09-12T05:07:12.000Z</time>
      </trkpt>
      <trkpt lat="45.23584" lon="5.73657">
        <ele>845.79998779297</ele>
        <time>2021-09-12T05:07:14.000Z</time>
      </trkpt>
      <trkpt lat="45.23585" lon="5.73658">
        <ele>846.40002441406</ele>
        <time>2021-09-12T05:07:16.000Z</time>
      </trkpt>
      <trkpt lat="45.23588" lon="5.73662">
        <ele>847.79998779297</ele>
        <time>2021-09-12T05:07:21.000Z</time>
      </trkpt>
      <trkpt lat="45.23588" lon="5.73662">
        <ele>848.59997558594</ele>
        <time>2021-09-12T05:07:23.000Z</time>
      </trkpt>
      <trkpt lat="45.23589" lon="5.73662">
        <ele>849</ele>
        <time>2021-09-12T05:07:24.000Z</time>
      </trkpt>
      <trkpt lat="45.23592" lon="5.73664">
        <ele>850.20001220703</ele>
        <time>2021-09-12T05:07:28.000Z</time>
      </trkpt>
      <trkpt lat="45.23592" lon="5.73665">
        <ele>850.40002441406</ele>
        <time>2021-09-12T05:07:29.000Z</time>
      </trkpt>
      <trkpt lat="45.23592" lon="5.73665">
        <ele>850.59997558594</ele>
        <time>2021-09-12T05:07:31.000Z</time>
      </trkpt>
      <trkpt lat="45.23593" lon="5.73665">
        <ele>851.40002441406</ele>
        <time>2021-09-12T05:07:33.000Z</time>
      </trkpt>
      <trkpt lat="45.23593" lon="5.73665">
        <ele>851.79998779297</ele>
        <time>2021-09-12T05:07:34.000Z</time>
      </trkpt>
      <trkpt lat="45.23595" lon="5.73666">
        <ele>852.59997558594</ele>
        <time>2021-09-12T05:07:37.000Z</time>
      </trkpt>
      <trkpt lat="45.23598" lon="5.73668">
        <ele>853.59997558594</ele>
        <time>2021-09-12T05:07:41.000Z</time>
      </trkpt>
      <trkpt lat="45.23598" lon="5.73669">
        <ele>854.20001220703</ele>
        <time>2021-09-12T05:07:42.000Z</time>
      </trkpt>
      <trkpt lat="45.236" lon="5.73671">
        <ele>855.20001220703</ele>
        <time>2021-09-12T05:07:45.000Z</time>
      </trkpt>
      <trkpt lat="45.236" lon="5.73672">
        <ele>856</ele>
        <time>2021-09-12T05:07:47.000Z</time>
      </trkpt>
      <trkpt lat="45.23602" lon="5.73673">
        <ele>856.59997558594</ele>
        <time>2021-09-12T05:07:49.000Z</time>
      </trkpt>
      <trkpt lat="45.23604" lon="5.73674">
        <ele>857.79998779297</ele>
        <time>2021-09-12T05:07:52.000Z</time>
      </trkpt>
      <trkpt lat="45.23605" lon="5.73679">
        <ele>859</ele>
        <time>2021-09-12T05:07:56.000Z</time>
      </trkpt>
      <trkpt lat="45.23606" lon="5.7368">
        <ele>859.40002441406</ele>
        <time>2021-09-12T05:07:58.000Z</time>
      </trkpt>
      <trkpt lat="45.23606" lon="5.73682">
        <ele>860</ele>
        <time>2021-09-12T05:07:59.000Z</time>
      </trkpt>
      <trkpt lat="45.23607" lon="5.73683">
        <ele>860.40002441406</ele>
        <time>2021-09-12T05:08:00.000Z</time>
      </trkpt>
      <trkpt lat="45.23611" lon="5.73685">
        <ele>861.79998779297</ele>
        <time>2021-09-12T05:08:04.000Z</time>
      </trkpt>
      <trkpt lat="45.23615" lon="5.73692">
        <ele>863</ele>
        <time>2021-09-12T05:08:09.000Z</time>
      </trkpt>
      <trkpt lat="45.23615" lon="5.73692">
        <ele>863.59997558594</ele>
        <time>2021-09-12T05:08:11.000Z</time>
      </trkpt>
      <trkpt lat="45.23615" lon="5.73692">
        <ele>864.20001220703</ele>
        <time>2021-09-12T05:08:13.000Z</time>
      </trkpt>
      <trkpt lat="45.23617" lon="5.73694">
        <ele>865</ele>
        <time>2021-09-12T05:08:16.000Z</time>
      </trkpt>
      <trkpt lat="45.23618" lon="5.73695">
        <ele>865.40002441406</ele>
        <time>2021-09-12T05:08:17.000Z</time>
      </trkpt>
      <trkpt lat="45.2362" lon="5.73695">
        <ele>866.40002441406</ele>
        <time>2021-09-12T05:08:20.000Z</time>
      </trkpt>
      <trkpt lat="45.23621" lon="5.73695">
        <ele>866.79998779297</ele>
        <time>2021-09-12T05:08:22.000Z</time>
      </trkpt>
      <trkpt lat="45.23621" lon="5.73695">
        <ele>867.59997558594</ele>
        <time>2021-09-12T05:08:24.000Z</time>
      </trkpt>
      <trkpt lat="45.23623" lon="5.73695">
        <ele>868</ele>
        <time>2021-09-12T05:08:26.000Z</time>
      </trkpt>
      <trkpt lat="45.23624" lon="5.73696">
        <ele>868.79998779297</ele>
        <time>2021-09-12T05:08:28.000Z</time>
      </trkpt>
      <trkpt lat="45.23626" lon="5.73699">
        <ele>870</ele>
        <time>2021-09-12T05:08:32.000Z</time>
      </trkpt>
      <trkpt lat="45.23626" lon="5.73701">
        <ele>870.40002441406</ele>
        <time>2021-09-12T05:08:34.000Z</time>
      </trkpt>
      <trkpt lat="45.23629" lon="5.73703">
        <ele>871.20001220703</ele>
        <time>2021-09-12T05:08:37.000Z</time>
      </trkpt>
      <trkpt lat="45.23629" lon="5.73705">
        <ele>872</ele>
        <time>2021-09-12T05:08:39.000Z</time>
      </trkpt>
      <trkpt lat="45.2363" lon="5.73706">
        <ele>872.40002441406</ele>
        <time>2021-09-12T05:08:40.000Z</time>
      </trkpt>
      <trkpt lat="45.2363" lon="5.73709">
        <ele>873.20001220703</ele>
        <time>2021-09-12T05:08:43.000Z</time>
      </trkpt>
      <trkpt lat="45.23631" lon="5.7371">
        <ele>873.59997558594</ele>
        <time>2021-09-12T05:08:44.000Z</time>
      </trkpt>
      <trkpt lat="45.23632" lon="5.73712">
        <ele>874.59997558594</ele>
        <time>2021-09-12T05:08:47.000Z</time>
      </trkpt>
      <trkpt lat="45.23633" lon="5.73712">
        <ele>875</ele>
        <time>2021-09-12T05:08:48.000Z</time>
      </trkpt>
      <trkpt lat="45.23633" lon="5.73714">
        <ele>876</ele>
        <time>2021-09-12T05:08:52.000Z</time>
      </trkpt>
      <trkpt lat="45.23633" lon="5.73717">
        <ele>877.20001220703</ele>
        <time>2021-09-12T05:08:57.000Z</time>
      </trkpt>
      <trkpt lat="45.23635" lon="5.73721">
        <ele>878.40002441406</ele>
        <time>2021-09-12T05:09:01.000Z</time>
      </trkpt>
      <trkpt lat="45.23636" lon="5.73721">
        <ele>878.79998779297</ele>
        <time>2021-09-12T05:09:02.000Z</time>
      </trkpt>
      <trkpt lat="45.23637" lon="5.73723">
        <ele>879.20001220703</ele>
        <time>2021-09-12T05:09:04.000Z</time>
      </trkpt>
      <trkpt lat="45.23637" lon="5.73724">
        <ele>879.59997558594</ele>
        <time>2021-09-12T05:09:05.000Z</time>
      </trkpt>
      <trkpt lat="45.23638" lon="5.73725">
        <ele>880.20001220703</ele>
        <time>2021-09-12T05:09:06.000Z</time>
      </trkpt>
      <trkpt lat="45.23639" lon="5.73726">
        <ele>880.79998779297</ele>
        <time>2021-09-12T05:09:08.000Z</time>
      </trkpt>
      <trkpt lat="45.23641" lon="5.7373">
        <ele>881.59997558594</ele>
        <time>2021-09-12T05:09:12.000Z</time>
      </trkpt>
      <trkpt lat="45.23642" lon="5.73732">
        <ele>882</ele>
        <time>2021-09-12T05:09:13.000Z</time>
      </trkpt>
      <trkpt lat="45.23643" lon="5.73733">
        <ele>882.59997558594</ele>
        <time>2021-09-12T05:09:15.000Z</time>
      </trkpt>
      <trkpt lat="45.23643" lon="5.73734">
        <ele>883</ele>
        <time>2021-09-12T05:09:16.000Z</time>
      </trkpt>
      <trkpt lat="45.23645" lon="5.73737">
        <ele>883.59997558594</ele>
        <time>2021-09-12T05:09:18.000Z</time>
      </trkpt>
      <trkpt lat="45.23648" lon="5.7374">
        <ele>884.59997558594</ele>
        <time>2021-09-12T05:09:21.000Z</time>
      </trkpt>
      <trkpt lat="45.2365" lon="5.73742">
        <ele>885.20001220703</ele>
        <time>2021-09-12T05:09:23.000Z</time>
      </trkpt>
      <trkpt lat="45.2365" lon="5.73744">
        <ele>885.59997558594</ele>
        <time>2021-09-12T05:09:25.000Z</time>
      </trkpt>
      <trkpt lat="45.2365" lon="5.73745">
        <ele>886.20001220703</ele>
        <time>2021-09-12T05:09:27.000Z</time>
      </trkpt>
      <trkpt lat="45.23652" lon="5.73748">
        <ele>886.79998779297</ele>
        <time>2021-09-12T05:09:30.000Z</time>
      </trkpt>
      <trkpt lat="45.23654" lon="5.73755">
        <ele>887.79998779297</ele>
        <time>2021-09-12T05:09:33.000Z</time>
      </trkpt>
      <trkpt lat="45.23657" lon="5.73761">
        <ele>888.79998779297</ele>
        <time>2021-09-12T05:09:38.000Z</time>
      </trkpt>
      <trkpt lat="45.23659" lon="5.73762">
        <ele>889.40002441406</ele>
        <time>2021-09-12T05:09:39.000Z</time>
      </trkpt>
      <trkpt lat="45.23659" lon="5.73764">
        <ele>890</ele>
        <time>2021-09-12T05:09:42.000Z</time>
      </trkpt>
      <trkpt lat="45.23659" lon="5.73766">
        <ele>890.59997558594</ele>
        <time>2021-09-12T05:09:44.000Z</time>
      </trkpt>
      <trkpt lat="45.23659" lon="5.73769">
        <ele>891</ele>
        <time>2021-09-12T05:09:46.000Z</time>
      </trkpt>
      <trkpt lat="45.2366" lon="5.7377">
        <ele>891.40002441406</ele>
        <time>2021-09-12T05:09:47.000Z</time>
      </trkpt>
      <trkpt lat="45.23662" lon="5.73771">
        <ele>892</ele>
        <time>2021-09-12T05:09:48.000Z</time>
      </trkpt>
      <trkpt lat="45.23663" lon="5.73771">
        <ele>892.40002441406</ele>
        <time>2021-09-12T05:09:50.000Z</time>
      </trkpt>
      <trkpt lat="45.23664" lon="5.73772">
        <ele>892.59997558594</ele>
        <time>2021-09-12T05:09:51.000Z</time>
      </trkpt>
      <trkpt lat="45.23666" lon="5.73776">
        <ele>893.20001220703</ele>
        <time>2021-09-12T05:09:54.000Z</time>
      </trkpt>
      <trkpt lat="45.23666" lon="5.73778">
        <ele>893.79998779297</ele>
        <time>2021-09-12T05:09:56.000Z</time>
      </trkpt>
      <trkpt lat="45.23666" lon="5.73783">
        <ele>894.59997558594</ele>
        <time>2021-09-12T05:10:00.000Z</time>
      </trkpt>
      <trkpt lat="45.23666" lon="5.73785">
        <ele>895</ele>
        <time>2021-09-12T05:10:02.000Z</time>
      </trkpt>
      <trkpt lat="45.23667" lon="5.73788">
        <ele>895.20001220703</ele>
        <time>2021-09-12T05:10:04.000Z</time>
      </trkpt>
      <trkpt lat="45.23668" lon="5.73795">
        <ele>896</ele>
        <time>2021-09-12T05:10:07.000Z</time>
      </trkpt>
      <trkpt lat="45.23669" lon="5.73797">
        <ele>896.20001220703</ele>
        <time>2021-09-12T05:10:08.000Z</time>
      </trkpt>
      <trkpt lat="45.23669" lon="5.73797">
        <ele>896.20001220703</ele>
        <time>2021-09-12T05:10:09.000Z</time>
      </trkpt>
      <trkpt lat="45.23669" lon="5.73799">
        <ele>897</ele>
        <time>2021-09-12T05:10:12.000Z</time>
      </trkpt>
      <trkpt lat="45.2367" lon="5.738">
        <ele>897.40002441406</ele>
        <time>2021-09-12T05:10:13.000Z</time>
      </trkpt>
      <trkpt lat="45.23671" lon="5.73801">
        <ele>897.40002441406</ele>
        <time>2021-09-12T05:10:14.000Z</time>
      </trkpt>
      <trkpt lat="45.23675" lon="5.73807">
        <ele>898.20001220703</ele>
        <time>2021-09-12T05:10:17.000Z</time>
      </trkpt>
      <trkpt lat="45.23676" lon="5.7381">
        <ele>898.40002441406</ele>
        <time>2021-09-12T05:10:18.000Z</time>
      </trkpt>
      <trkpt lat="45.23679" lon="5.73816">
        <ele>899.20001220703</ele>
        <time>2021-09-12T05:10:21.000Z</time>
      </trkpt>
      <trkpt lat="45.2368" lon="5.73818">
        <ele>899.59997558594</ele>
        <time>2021-09-12T05:10:22.000Z</time>
      </trkpt>
      <trkpt lat="45.23686" lon="5.73826">
        <ele>900.59997558594</ele>
        <time>2021-09-12T05:10:26.000Z</time>
      </trkpt>
      <trkpt lat="45.23687" lon="5.73828">
        <ele>900.79998779297</ele>
        <time>2021-09-12T05:10:27.000Z</time>
      </trkpt>
      <trkpt lat="45.23688" lon="5.7383">
        <ele>901</ele>
        <time>2021-09-12T05:10:28.000Z</time>
      </trkpt>
      <trkpt lat="45.2369" lon="5.73834">
        <ele>901.59997558594</ele>
        <time>2021-09-12T05:10:30.000Z</time>
      </trkpt>
      <trkpt lat="45.2369" lon="5.73834">
        <ele>902</ele>
        <time>2021-09-12T05:10:31.000Z</time>
      </trkpt>
      <trkpt lat="45.23695" lon="5.7384">
        <ele>902.79998779297</ele>
        <time>2021-09-12T05:10:34.000Z</time>
      </trkpt>
      <trkpt lat="45.23697" lon="5.73843">
        <ele>903.59997558594</ele>
        <time>2021-09-12T05:10:36.000Z</time>
      </trkpt>
      <trkpt lat="45.23698" lon="5.73844">
        <ele>903.79998779297</ele>
        <time>2021-09-12T05:10:37.000Z</time>
      </trkpt>
      <trkpt lat="45.237" lon="5.73849">
        <ele>904.59997558594</ele>
        <time>2021-09-12T05:10:40.000Z</time>
      </trkpt>
      <trkpt lat="45.23699" lon="5.73851">
        <ele>905</ele>
        <time>2021-09-12T05:10:41.000Z</time>
      </trkpt>
      <trkpt lat="45.23701" lon="5.73855">
        <ele>905.40002441406</ele>
        <time>2021-09-12T05:10:43.000Z</time>
      </trkpt>
      <trkpt lat="45.23705" lon="5.73861">
        <ele>905.79998779297</ele>
        <time>2021-09-12T05:10:45.000Z</time>
      </trkpt>
      <trkpt lat="45.23706" lon="5.73863">
        <ele>906.20001220703</ele>
        <time>2021-09-12T05:10:46.000Z</time>
      </trkpt>
      <trkpt lat="45.2371" lon="5.73877">
        <ele>907</ele>
        <time>2021-09-12T05:10:53.000Z</time>
      </trkpt>
      <trkpt lat="45.2371" lon="5.73881">
        <ele>907</ele>
        <time>2021-09-12T05:10:55.000Z</time>
      </trkpt>
      <trkpt lat="45.23713" lon="5.7389">
        <ele>906.79998779297</ele>
        <time>2021-09-12T05:10:59.000Z</time>
      </trkpt>
      <trkpt lat="45.23714" lon="5.73893">
        <ele>906.79998779297</ele>
        <time>2021-09-12T05:11:01.000Z</time>
      </trkpt>
      <trkpt lat="45.23717" lon="5.739">
        <ele>906.79998779297</ele>
        <time>2021-09-12T05:11:04.000Z</time>
      </trkpt>
      <trkpt lat="45.23718" lon="5.73902">
        <ele>907</ele>
        <time>2021-09-12T05:11:05.000Z</time>
      </trkpt>
      <trkpt lat="45.23717" lon="5.73903">
        <ele>907.20001220703</ele>
        <time>2021-09-12T05:11:06.000Z</time>
      </trkpt>
      <trkpt lat="45.23717" lon="5.73905">
        <ele>907.20001220703</ele>
        <time>2021-09-12T05:11:07.000Z</time>
      </trkpt>
      <trkpt lat="45.23717" lon="5.73909">
        <ele>907.40002441406</ele>
        <time>2021-09-12T05:11:09.000Z</time>
      </trkpt>
      <trkpt lat="45.23719" lon="5.73912">
        <ele>907.59997558594</ele>
        <time>2021-09-12T05:11:11.000Z</time>
      </trkpt>
      <trkpt lat="45.23721" lon="5.73914">
        <ele>907.79998779297</ele>
        <time>2021-09-12T05:11:12.000Z</time>
      </trkpt>
      <trkpt lat="45.23725" lon="5.73918">
        <ele>907.79998779297</ele>
        <time>2021-09-12T05:11:14.000Z</time>
      </trkpt>
      <trkpt lat="45.23731" lon="5.73924">
        <ele>908.20001220703</ele>
        <time>2021-09-12T05:11:18.000Z</time>
      </trkpt>
      <trkpt lat="45.23741" lon="5.73936">
        <ele>909</ele>
        <time>2021-09-12T05:11:23.000Z</time>
      </trkpt>
      <trkpt lat="45.23743" lon="5.73938">
        <ele>909.20001220703</ele>
        <time>2021-09-12T05:11:24.000Z</time>
      </trkpt>
      <trkpt lat="45.2375" lon="5.73943">
        <ele>909.59997558594</ele>
        <time>2021-09-12T05:11:27.000Z</time>
      </trkpt>
      <trkpt lat="45.23753" lon="5.73947">
        <ele>909.59997558594</ele>
        <time>2021-09-12T05:11:29.000Z</time>
      </trkpt>
      <trkpt lat="45.23754" lon="5.73949">
        <ele>909.79998779297</ele>
        <time>2021-09-12T05:11:30.000Z</time>
      </trkpt>
      <trkpt lat="45.23756" lon="5.73956">
        <ele>910.20001220703</ele>
        <time>2021-09-12T05:11:33.000Z</time>
      </trkpt>
      <trkpt lat="45.23758" lon="5.73958">
        <ele>910.40002441406</ele>
        <time>2021-09-12T05:11:34.000Z</time>
      </trkpt>
      <trkpt lat="45.23761" lon="5.73963">
        <ele>911</ele>
        <time>2021-09-12T05:11:36.000Z</time>
      </trkpt>
      <trkpt lat="45.23762" lon="5.73964">
        <ele>911.20001220703</ele>
        <time>2021-09-12T05:11:37.000Z</time>
      </trkpt>
      <trkpt lat="45.23767" lon="5.7397">
        <ele>911.79998779297</ele>
        <time>2021-09-12T05:11:40.000Z</time>
      </trkpt>
      <trkpt lat="45.23769" lon="5.73973">
        <ele>912.20001220703</ele>
        <time>2021-09-12T05:11:42.000Z</time>
      </trkpt>
      <trkpt lat="45.2377" lon="5.73976">
        <ele>912.79998779297</ele>
        <time>2021-09-12T05:11:44.000Z</time>
      </trkpt>
      <trkpt lat="45.23774" lon="5.73984">
        <ele>913.20001220703</ele>
        <time>2021-09-12T05:11:46.000Z</time>
      </trkpt>
      <trkpt lat="45.23774" lon="5.73991">
        <ele>913.40002441406</ele>
        <time>2021-09-12T05:11:48.000Z</time>
      </trkpt>
      <trkpt lat="45.23778" lon="5.74003">
        <ele>914.40002441406</ele>
        <time>2021-09-12T05:11:53.000Z</time>
      </trkpt>
      <trkpt lat="45.23778" lon="5.74006">
        <ele>914.40002441406</ele>
        <time>2021-09-12T05:11:54.000Z</time>
      </trkpt>
      <trkpt lat="45.23779" lon="5.74008">
        <ele>914.59997558594</ele>
        <time>2021-09-12T05:11:55.000Z</time>
      </trkpt>
      <trkpt lat="45.23779" lon="5.74011">
        <ele>914.59997558594</ele>
        <time>2021-09-12T05:11:56.000Z</time>
      </trkpt>
      <trkpt lat="45.2378" lon="5.74015">
        <ele>915</ele>
        <time>2021-09-12T05:11:58.000Z</time>
      </trkpt>
      <trkpt lat="45.23781" lon="5.74018">
        <ele>915</ele>
        <time>2021-09-12T05:11:59.000Z</time>
      </trkpt>
      <trkpt lat="45.23782" lon="5.74026">
        <ele>915.40002441406</ele>
        <time>2021-09-12T05:12:01.000Z</time>
      </trkpt>
      <trkpt lat="45.23787" lon="5.74037">
        <ele>915.59997558594</ele>
        <time>2021-09-12T05:12:03.000Z</time>
      </trkpt>
      <trkpt lat="45.23795" lon="5.74045">
        <ele>916</ele>
        <time>2021-09-12T05:12:07.000Z</time>
      </trkpt>
      <trkpt lat="45.23803" lon="5.74057">
        <ele>914.79998779297</ele>
        <time>2021-09-12T05:12:14.000Z</time>
      </trkpt>
      <trkpt lat="45.23804" lon="5.74059">
        <ele>914.40002441406</ele>
        <time>2021-09-12T05:12:15.000Z</time>
      </trkpt>
      <trkpt lat="45.23805" lon="5.7406">
        <ele>914.20001220703</ele>
        <time>2021-09-12T05:12:16.000Z</time>
      </trkpt>
      <trkpt lat="45.23808" lon="5.74063">
        <ele>913.20001220703</ele>
        <time>2021-09-12T05:12:18.000Z</time>
      </trkpt>
      <trkpt lat="45.23808" lon="5.74063">
        <ele>912.79998779297</ele>
        <time>2021-09-12T05:12:19.000Z</time>
      </trkpt>
      <trkpt lat="45.23807" lon="5.74061">
        <ele>912</ele>
        <time>2021-09-12T05:12:21.000Z</time>
      </trkpt>
      <trkpt lat="45.23808" lon="5.74061">
        <ele>911.79998779297</ele>
        <time>2021-09-12T05:12:22.000Z</time>
      </trkpt>
      <trkpt lat="45.23814" lon="5.74063">
        <ele>910.79998779297</ele>
        <time>2021-09-12T05:12:25.000Z</time>
      </trkpt>
      <trkpt lat="45.23817" lon="5.74064">
        <ele>910.40002441406</ele>
        <time>2021-09-12T05:12:26.000Z</time>
      </trkpt>
      <trkpt lat="45.23819" lon="5.74065">
        <ele>909.79998779297</ele>
        <time>2021-09-12T05:12:28.000Z</time>
      </trkpt>
      <trkpt lat="45.23821" lon="5.74067">
        <ele>909.40002441406</ele>
        <time>2021-09-12T05:12:30.000Z</time>
      </trkpt>
      <trkpt lat="45.23822" lon="5.74068">
        <ele>909.20001220703</ele>
        <time>2021-09-12T05:12:31.000Z</time>
      </trkpt>
      <trkpt lat="45.23824" lon="5.7407">
        <ele>909.20001220703</ele>
        <time>2021-09-12T05:12:32.000Z</time>
      </trkpt>
      <trkpt lat="45.23824" lon="5.74074">
        <ele>908.79998779297</ele>
        <time>2021-09-12T05:12:34.000Z</time>
      </trkpt>
      <trkpt lat="45.23823" lon="5.74076">
        <ele>908.20001220703</ele>
        <time>2021-09-12T05:12:35.000Z</time>
      </trkpt>
      <trkpt lat="45.23823" lon="5.74077">
        <ele>907.59997558594</ele>
        <time>2021-09-12T05:12:36.000Z</time>
      </trkpt>
      <trkpt lat="45.23823" lon="5.74079">
        <ele>907.20001220703</ele>
        <time>2021-09-12T05:12:37.000Z</time>
      </trkpt>
      <trkpt lat="45.23824" lon="5.74084">
        <ele>906.40002441406</ele>
        <time>2021-09-12T05:12:39.000Z</time>
      </trkpt>
      <trkpt lat="45.23825" lon="5.74086">
        <ele>906</ele>
        <time>2021-09-12T05:12:40.000Z</time>
      </trkpt>
      <trkpt lat="45.23827" lon="5.74091">
        <ele>905</ele>
        <time>2021-09-12T05:12:42.000Z</time>
      </trkpt>
      <trkpt lat="45.23829" lon="5.74092">
        <ele>904.59997558594</ele>
        <time>2021-09-12T05:12:43.000Z</time>
      </trkpt>
      <trkpt lat="45.23831" lon="5.74094">
        <ele>903.79998779297</ele>
        <time>2021-09-12T05:12:45.000Z</time>
      </trkpt>
      <trkpt lat="45.23834" lon="5.74094">
        <ele>903.40002441406</ele>
        <time>2021-09-12T05:12:46.000Z</time>
      </trkpt>
      <trkpt lat="45.23837" lon="5.74095">
        <ele>903.20001220703</ele>
        <time>2021-09-12T05:12:47.000Z</time>
      </trkpt>
      <trkpt lat="45.23852" lon="5.74102">
        <ele>902.79998779297</ele>
        <time>2021-09-12T05:12:51.000Z</time>
      </trkpt>
      <trkpt lat="45.23853" lon="5.74104">
        <ele>902.79998779297</ele>
        <time>2021-09-12T05:12:52.000Z</time>
      </trkpt>
      <trkpt lat="45.23853" lon="5.74106">
        <ele>902.79998779297</ele>
        <time>2021-09-12T05:12:53.000Z</time>
      </trkpt>
      <trkpt lat="45.23853" lon="5.74109">
        <ele>902.79998779297</ele>
        <time>2021-09-12T05:12:55.000Z</time>
      </trkpt>
      <trkpt lat="45.23854" lon="5.74113">
        <ele>903.40002441406</ele>
        <time>2021-09-12T05:12:57.000Z</time>
      </trkpt>
      <trkpt lat="45.23855" lon="5.74117">
        <ele>903.79998779297</ele>
        <time>2021-09-12T05:12:59.000Z</time>
      </trkpt>
      <trkpt lat="45.23856" lon="5.74121">
        <ele>904.20001220703</ele>
        <time>2021-09-12T05:13:01.000Z</time>
      </trkpt>
      <trkpt lat="45.23857" lon="5.74123">
        <ele>904.79998779297</ele>
        <time>2021-09-12T05:13:03.000Z</time>
      </trkpt>
      <trkpt lat="45.23857" lon="5.74126">
        <ele>905</ele>
        <time>2021-09-12T05:13:04.000Z</time>
      </trkpt>
      <trkpt lat="45.23858" lon="5.74131">
        <ele>906.20001220703</ele>
        <time>2021-09-12T05:13:08.000Z</time>
      </trkpt>
      <trkpt lat="45.23858" lon="5.74131">
        <ele>906.20001220703</ele>
        <time>2021-09-12T05:13:09.000Z</time>
      </trkpt>
      <trkpt lat="45.23858" lon="5.74131">
        <ele>906.40002441406</ele>
        <time>2021-09-12T05:13:10.000Z</time>
      </trkpt>
      <trkpt lat="45.23858" lon="5.74131">
        <ele>906.59997558594</ele>
        <time>2021-09-12T05:13:12.000Z</time>
      </trkpt>
      <trkpt lat="45.2386" lon="5.74129">
        <ele>906.20001220703</ele>
        <time>2021-09-12T05:13:15.000Z</time>
      </trkpt>
      <trkpt lat="45.23864" lon="5.74127">
        <ele>905.20001220703</ele>
        <time>2021-09-12T05:13:19.000Z</time>
      </trkpt>
      <trkpt lat="45.23865" lon="5.74125">
        <ele>904.79998779297</ele>
        <time>2021-09-12T05:13:20.000Z</time>
      </trkpt>
      <trkpt lat="45.23866" lon="5.74123">
        <ele>903.79998779297</ele>
        <time>2021-09-12T05:13:23.000Z</time>
      </trkpt>
      <trkpt lat="45.23868" lon="5.74122">
        <ele>903.20001220703</ele>
        <time>2021-09-12T05:13:25.000Z</time>
      </trkpt>
      <trkpt lat="45.23873" lon="5.74121">
        <ele>902.59997558594</ele>
        <time>2021-09-12T05:13:27.000Z</time>
      </trkpt>
      <trkpt lat="45.23876" lon="5.74121">
        <ele>901.79998779297</ele>
        <time>2021-09-12T05:13:29.000Z</time>
      </trkpt>
      <trkpt lat="45.23878" lon="5.74119">
        <ele>901.20001220703</ele>
        <time>2021-09-12T05:13:31.000Z</time>
      </trkpt>
      <trkpt lat="45.2388" lon="5.74118">
        <ele>901</ele>
        <time>2021-09-12T05:13:32.000Z</time>
      </trkpt>
      <trkpt lat="45.23883" lon="5.74115">
        <ele>900.20001220703</ele>
        <time>2021-09-12T05:13:34.000Z</time>
      </trkpt>
      <trkpt lat="45.23886" lon="5.74112">
        <ele>899.79998779297</ele>
        <time>2021-09-12T05:13:36.000Z</time>
      </trkpt>
      <trkpt lat="45.23888" lon="5.74108">
        <ele>899</ele>
        <time>2021-09-12T05:13:38.000Z</time>
      </trkpt>
      <trkpt lat="45.23889" lon="5.74105">
        <ele>898.79998779297</ele>
        <time>2021-09-12T05:13:39.000Z</time>
      </trkpt>
      <trkpt lat="45.23895" lon="5.741">
        <ele>898</ele>
        <time>2021-09-12T05:13:42.000Z</time>
      </trkpt>
      <trkpt lat="45.23897" lon="5.74098">
        <ele>897.79998779297</ele>
        <time>2021-09-12T05:13:43.000Z</time>
      </trkpt>
      <trkpt lat="45.239" lon="5.74094">
        <ele>897.20001220703</ele>
        <time>2021-09-12T05:13:45.000Z</time>
      </trkpt>
      <trkpt lat="45.23903" lon="5.74092">
        <ele>896.59997558594</ele>
        <time>2021-09-12T05:13:47.000Z</time>
      </trkpt>
      <trkpt lat="45.23909" lon="5.74093">
        <ele>895.40002441406</ele>
        <time>2021-09-12T05:13:50.000Z</time>
      </trkpt>
      <trkpt lat="45.2391" lon="5.74092">
        <ele>894.40002441406</ele>
        <time>2021-09-12T05:13:52.000Z</time>
      </trkpt>
      <trkpt lat="45.23912" lon="5.74092">
        <ele>894.20001220703</ele>
        <time>2021-09-12T05:13:53.000Z</time>
      </trkpt>
      <trkpt lat="45.23917" lon="5.74092">
        <ele>893</ele>
        <time>2021-09-12T05:13:56.000Z</time>
      </trkpt>
      <trkpt lat="45.23918" lon="5.74092">
        <ele>892.20001220703</ele>
        <time>2021-09-12T05:13:58.000Z</time>
      </trkpt>
      <trkpt lat="45.2392" lon="5.74092">
        <ele>891.40002441406</ele>
        <time>2021-09-12T05:14:00.000Z</time>
      </trkpt>
      <trkpt lat="45.23923" lon="5.74094">
        <ele>890.20001220703</ele>
        <time>2021-09-12T05:14:03.000Z</time>
      </trkpt>
      <trkpt lat="45.23924" lon="5.74097">
        <ele>889</ele>
        <time>2021-09-12T05:14:05.000Z</time>
      </trkpt>
      <trkpt lat="45.23925" lon="5.741">
        <ele>887.79998779297</ele>
        <time>2021-09-12T05:14:08.000Z</time>
      </trkpt>
      <trkpt lat="45.23925" lon="5.74103">
        <ele>886.40002441406</ele>
        <time>2021-09-12T05:14:11.000Z</time>
      </trkpt>
      <trkpt lat="45.23928" lon="5.74107">
        <ele>885.79998779297</ele>
        <time>2021-09-12T05:14:14.000Z</time>
      </trkpt>
      <trkpt lat="45.23929" lon="5.74111">
        <ele>885.40002441406</ele>
        <time>2021-09-12T05:14:16.000Z</time>
      </trkpt>
      <trkpt lat="45.23929" lon="5.74113">
        <ele>885.20001220703</ele>
        <time>2021-09-12T05:14:18.000Z</time>
      </trkpt>
      <trkpt lat="45.23928" lon="5.74115">
        <ele>885.20001220703</ele>
        <time>2021-09-12T05:14:19.000Z</time>
      </trkpt>
      <trkpt lat="45.23926" lon="5.74117">
        <ele>885.59997558594</ele>
        <time>2021-09-12T05:14:21.000Z</time>
      </trkpt>
      <trkpt lat="45.23925" lon="5.74118">
        <ele>886.40002441406</ele>
        <time>2021-09-12T05:14:23.000Z</time>
      </trkpt>
      <trkpt lat="45.23926" lon="5.74119">
        <ele>886.59997558594</ele>
        <time>2021-09-12T05:14:24.000Z</time>
      </trkpt>
      <trkpt lat="45.23927" lon="5.74121">
        <ele>887</ele>
        <time>2021-09-12T05:14:25.000Z</time>
      </trkpt>
      <trkpt lat="45.23928" lon="5.74122">
        <ele>887.59997558594</ele>
        <time>2021-09-12T05:14:27.000Z</time>
      </trkpt>
      <trkpt lat="45.23928" lon="5.74123">
        <ele>887.79998779297</ele>
        <time>2021-09-12T05:14:28.000Z</time>
      </trkpt>
      <trkpt lat="45.2393" lon="5.74125">
        <ele>888.40002441406</ele>
        <time>2021-09-12T05:14:30.000Z</time>
      </trkpt>
      <trkpt lat="45.23931" lon="5.74128">
        <ele>889</ele>
        <time>2021-09-12T05:14:33.000Z</time>
      </trkpt>
      <trkpt lat="45.23932" lon="5.74129">
        <ele>889.59997558594</ele>
        <time>2021-09-12T05:14:34.000Z</time>
      </trkpt>
      <trkpt lat="45.23933" lon="5.74131">
        <ele>889.79998779297</ele>
        <time>2021-09-12T05:14:35.000Z</time>
      </trkpt>
      <trkpt lat="45.23933" lon="5.74131">
        <ele>890.20001220703</ele>
        <time>2021-09-12T05:14:36.000Z</time>
      </trkpt>
      <trkpt lat="45.23935" lon="5.74136">
        <ele>891.40002441406</ele>
        <time>2021-09-12T05:14:40.000Z</time>
      </trkpt>
      <trkpt lat="45.23937" lon="5.74137">
        <ele>892.59997558594</ele>
        <time>2021-09-12T05:14:43.000Z</time>
      </trkpt>
      <trkpt lat="45.23937" lon="5.74137">
        <ele>892.59997558594</ele>
        <time>2021-09-12T05:14:44.000Z</time>
      </trkpt>
      <trkpt lat="45.23938" lon="5.74138">
        <ele>893.40002441406</ele>
        <time>2021-09-12T05:14:46.000Z</time>
      </trkpt>
      <trkpt lat="45.2394" lon="5.7414">
        <ele>893.79998779297</ele>
        <time>2021-09-12T05:14:47.000Z</time>
      </trkpt>
      <trkpt lat="45.23944" lon="5.74146">
        <ele>895</ele>
        <time>2021-09-12T05:14:51.000Z</time>
      </trkpt>
      <trkpt lat="45.23944" lon="5.74147">
        <ele>895.40002441406</ele>
        <time>2021-09-12T05:14:52.000Z</time>
      </trkpt>
      <trkpt lat="45.23943" lon="5.74148">
        <ele>896</ele>
        <time>2021-09-12T05:14:54.000Z</time>
      </trkpt>
      <trkpt lat="45.23944" lon="5.74149">
        <ele>896.40002441406</ele>
        <time>2021-09-12T05:14:55.000Z</time>
      </trkpt>
      <trkpt lat="45.23945" lon="5.7415">
        <ele>896.59997558594</ele>
        <time>2021-09-12T05:14:56.000Z</time>
      </trkpt>
      <trkpt lat="45.23946" lon="5.74152">
        <ele>897.20001220703</ele>
        <time>2021-09-12T05:14:59.000Z</time>
      </trkpt>
      <trkpt lat="45.23946" lon="5.74154">
        <ele>898.40002441406</ele>
        <time>2021-09-12T05:15:02.000Z</time>
      </trkpt>
      <trkpt lat="45.23944" lon="5.74157">
        <ele>899.20001220703</ele>
        <time>2021-09-12T05:15:06.000Z</time>
      </trkpt>
      <trkpt lat="45.23942" lon="5.74157">
        <ele>899.59997558594</ele>
        <time>2021-09-12T05:15:07.000Z</time>
      </trkpt>
      <trkpt lat="45.23942" lon="5.74159">
        <ele>900</ele>
        <time>2021-09-12T05:15:08.000Z</time>
      </trkpt>
      <trkpt lat="45.23941" lon="5.74161">
        <ele>900.79998779297</ele>
        <time>2021-09-12T05:15:11.000Z</time>
      </trkpt>
      <trkpt lat="45.23938" lon="5.7416">
        <ele>901.20001220703</ele>
        <time>2021-09-12T05:15:13.000Z</time>
      </trkpt>
      <trkpt lat="45.23935" lon="5.7416">
        <ele>901.79998779297</ele>
        <time>2021-09-12T05:15:15.000Z</time>
      </trkpt>
      <trkpt lat="45.23934" lon="5.7416">
        <ele>902.20001220703</ele>
        <time>2021-09-12T05:15:16.000Z</time>
      </trkpt>
      <trkpt lat="45.23933" lon="5.74161">
        <ele>902.59997558594</ele>
        <time>2021-09-12T05:15:17.000Z</time>
      </trkpt>
      <trkpt lat="45.23932" lon="5.74161">
        <ele>903.20001220703</ele>
        <time>2021-09-12T05:15:19.000Z</time>
      </trkpt>
      <trkpt lat="45.2393" lon="5.74161">
        <ele>903.59997558594</ele>
        <time>2021-09-12T05:15:20.000Z</time>
      </trkpt>
      <trkpt lat="45.23929" lon="5.74161">
        <ele>903.79998779297</ele>
        <time>2021-09-12T05:15:21.000Z</time>
      </trkpt>
      <trkpt lat="45.23928" lon="5.74161">
        <ele>904.40002441406</ele>
        <time>2021-09-12T05:15:24.000Z</time>
      </trkpt>
      <trkpt lat="45.23928" lon="5.74161">
        <ele>904.79998779297</ele>
        <time>2021-09-12T05:15:25.000Z</time>
      </trkpt>
      <trkpt lat="45.23928" lon="5.74164">
        <ele>905.79998779297</ele>
        <time>2021-09-12T05:15:28.000Z</time>
      </trkpt>
      <trkpt lat="45.23929" lon="5.74166">
        <ele>906</ele>
        <time>2021-09-12T05:15:29.000Z</time>
      </trkpt>
      <trkpt lat="45.23929" lon="5.74168">
        <ele>906.20001220703</ele>
        <time>2021-09-12T05:15:30.000Z</time>
      </trkpt>
      <trkpt lat="45.23927" lon="5.74167">
        <ele>906.59997558594</ele>
        <time>2021-09-12T05:15:32.000Z</time>
      </trkpt>
      <trkpt lat="45.23926" lon="5.74167">
        <ele>907.20001220703</ele>
        <time>2021-09-12T05:15:34.000Z</time>
      </trkpt>
      <trkpt lat="45.23926" lon="5.74168">
        <ele>907.59997558594</ele>
        <time>2021-09-12T05:15:36.000Z</time>
      </trkpt>
      <trkpt lat="45.23927" lon="5.74171">
        <ele>908.20001220703</ele>
        <time>2021-09-12T05:15:38.000Z</time>
      </trkpt>
      <trkpt lat="45.23927" lon="5.74175">
        <ele>909</ele>
        <time>2021-09-12T05:15:41.000Z</time>
      </trkpt>
      <trkpt lat="45.23927" lon="5.74176">
        <ele>909.20001220703</ele>
        <time>2021-09-12T05:15:42.000Z</time>
      </trkpt>
      <trkpt lat="45.23926" lon="5.74177">
        <ele>909.40002441406</ele>
        <time>2021-09-12T05:15:43.000Z</time>
      </trkpt>
      <trkpt lat="45.23926" lon="5.74177">
        <ele>909.79998779297</ele>
        <time>2021-09-12T05:15:44.000Z</time>
      </trkpt>
      <trkpt lat="45.23927" lon="5.74179">
        <ele>910.59997558594</ele>
        <time>2021-09-12T05:15:46.000Z</time>
      </trkpt>
      <trkpt lat="45.23927" lon="5.74181">
        <ele>911.20001220703</ele>
        <time>2021-09-12T05:15:48.000Z</time>
      </trkpt>
      <trkpt lat="45.23927" lon="5.74182">
        <ele>911.20001220703</ele>
        <time>2021-09-12T05:15:49.000Z</time>
      </trkpt>
      <trkpt lat="45.23927" lon="5.74182">
        <ele>911.59997558594</ele>
        <time>2021-09-12T05:15:50.000Z</time>
      </trkpt>
      <trkpt lat="45.23928" lon="5.74186">
        <ele>912.79998779297</ele>
        <time>2021-09-12T05:15:54.000Z</time>
      </trkpt>
      <trkpt lat="45.23932" lon="5.74191">
        <ele>914.20001220703</ele>
        <time>2021-09-12T05:15:58.000Z</time>
      </trkpt>
      <trkpt lat="45.23932" lon="5.74192">
        <ele>914.79998779297</ele>
        <time>2021-09-12T05:15:59.000Z</time>
      </trkpt>
      <trkpt lat="45.23933" lon="5.74193">
        <ele>915.40002441406</ele>
        <time>2021-09-12T05:16:01.000Z</time>
      </trkpt>
      <trkpt lat="45.23933" lon="5.74193">
        <ele>915.59997558594</ele>
        <time>2021-09-12T05:16:02.000Z</time>
      </trkpt>
      <trkpt lat="45.23932" lon="5.74192">
        <ele>916</ele>
        <time>2021-09-12T05:16:04.000Z</time>
      </trkpt>
      <trkpt lat="45.23932" lon="5.74192">
        <ele>916.59997558594</ele>
        <time>2021-09-12T05:16:05.000Z</time>
      </trkpt>
      <trkpt lat="45.23932" lon="5.74193">
        <ele>917</ele>
        <time>2021-09-12T05:16:06.000Z</time>
      </trkpt>
      <trkpt lat="45.23932" lon="5.74195">
        <ele>917.40002441406</ele>
        <time>2021-09-12T05:16:07.000Z</time>
      </trkpt>
      <trkpt lat="45.23932" lon="5.74195">
        <ele>917.59997558594</ele>
        <time>2021-09-12T05:16:08.000Z</time>
      </trkpt>
      <trkpt lat="45.23932" lon="5.74196">
        <ele>917.79998779297</ele>
        <time>2021-09-12T05:16:09.000Z</time>
      </trkpt>
      <trkpt lat="45.23932" lon="5.74196">
        <ele>918</ele>
        <time>2021-09-12T05:16:10.000Z</time>
      </trkpt>
      <trkpt lat="45.23932" lon="5.74197">
        <ele>918</ele>
        <time>2021-09-12T05:16:11.000Z</time>
      </trkpt>
      <trkpt lat="45.23932" lon="5.74197">
        <ele>918.20001220703</ele>
        <time>2021-09-12T05:16:12.000Z</time>
      </trkpt>
      <trkpt lat="45.23932" lon="5.74197">
        <ele>918.40002441406</ele>
        <time>2021-09-12T05:16:13.000Z</time>
      </trkpt>
      <trkpt lat="45.23932" lon="5.74197">
        <ele>918.79998779297</ele>
        <time>2021-09-12T05:16:14.000Z</time>
      </trkpt>
      <trkpt lat="45.23933" lon="5.742">
        <ele>920</ele>
        <time>2021-09-12T05:16:18.000Z</time>
      </trkpt>
      <trkpt lat="45.23933" lon="5.74201">
        <ele>920.59997558594</ele>
        <time>2021-09-12T05:16:20.000Z</time>
      </trkpt>
      <trkpt lat="45.23933" lon="5.74202">
        <ele>921</ele>
        <time>2021-09-12T05:16:21.000Z</time>
      </trkpt>
      <trkpt lat="45.23934" lon="5.74203">
        <ele>921.20001220703</ele>
        <time>2021-09-12T05:16:22.000Z</time>
      </trkpt>
      <trkpt lat="45.23934" lon="5.74206">
        <ele>921.59997558594</ele>
        <time>2021-09-12T05:16:25.000Z</time>
      </trkpt>
      <trkpt lat="45.23932" lon="5.74204">
        <ele>922.20001220703</ele>
        <time>2021-09-12T05:16:28.000Z</time>
      </trkpt>
      <trkpt lat="45.23932" lon="5.74204">
        <ele>922.59997558594</ele>
        <time>2021-09-12T05:16:29.000Z</time>
      </trkpt>
      <trkpt lat="45.23934" lon="5.74205">
        <ele>923.59997558594</ele>
        <time>2021-09-12T05:16:32.000Z</time>
      </trkpt>
      <trkpt lat="45.23934" lon="5.74208">
        <ele>924.20001220703</ele>
        <time>2021-09-12T05:16:34.000Z</time>
      </trkpt>
      <trkpt lat="45.23936" lon="5.74211">
        <ele>924.59997558594</ele>
        <time>2021-09-12T05:16:36.000Z</time>
      </trkpt>
      <trkpt lat="45.23939" lon="5.74212">
        <ele>925.79998779297</ele>
        <time>2021-09-12T05:16:40.000Z</time>
      </trkpt>
      <trkpt lat="45.23945" lon="5.74215">
        <ele>926.79998779297</ele>
        <time>2021-09-12T05:16:46.000Z</time>
      </trkpt>
      <trkpt lat="45.23946" lon="5.74216">
        <ele>927.20001220703</ele>
        <time>2021-09-12T05:16:47.000Z</time>
      </trkpt>
      <trkpt lat="45.2395" lon="5.74217">
        <ele>928.20001220703</ele>
        <time>2021-09-12T05:16:51.000Z</time>
      </trkpt>
      <trkpt lat="45.23949" lon="5.74215">
        <ele>929.20001220703</ele>
        <time>2021-09-12T05:16:54.000Z</time>
      </trkpt>
      <trkpt lat="45.23951" lon="5.74218">
        <ele>929.79998779297</ele>
        <time>2021-09-12T05:16:56.000Z</time>
      </trkpt>
      <trkpt lat="45.23952" lon="5.74221">
        <ele>930.20001220703</ele>
        <time>2021-09-12T05:16:58.000Z</time>
      </trkpt>
      <trkpt lat="45.23955" lon="5.74224">
        <ele>931.20001220703</ele>
        <time>2021-09-12T05:17:01.000Z</time>
      </trkpt>
      <trkpt lat="45.23956" lon="5.74224">
        <ele>931.59997558594</ele>
        <time>2021-09-12T05:17:02.000Z</time>
      </trkpt>
      <trkpt lat="45.23956" lon="5.74224">
        <ele>932</ele>
        <time>2021-09-12T05:17:03.000Z</time>
      </trkpt>
      <trkpt lat="45.23957" lon="5.74224">
        <ele>932.20001220703</ele>
        <time>2021-09-12T05:17:04.000Z</time>
      </trkpt>
      <trkpt lat="45.23957" lon="5.74224">
        <ele>932.40002441406</ele>
        <time>2021-09-12T05:17:05.000Z</time>
      </trkpt>
      <trkpt lat="45.23959" lon="5.74225">
        <ele>932.59997558594</ele>
        <time>2021-09-12T05:17:06.000Z</time>
      </trkpt>
      <trkpt lat="45.23963" lon="5.74226">
        <ele>933.20001220703</ele>
        <time>2021-09-12T05:17:09.000Z</time>
      </trkpt>
      <trkpt lat="45.23964" lon="5.74227">
        <ele>933.40002441406</ele>
        <time>2021-09-12T05:17:10.000Z</time>
      </trkpt>
      <trkpt lat="45.23966" lon="5.74227">
        <ele>934.20001220703</ele>
        <time>2021-09-12T05:17:13.000Z</time>
      </trkpt>
      <trkpt lat="45.23967" lon="5.74227">
        <ele>934.59997558594</ele>
        <time>2021-09-12T05:17:15.000Z</time>
      </trkpt>
      <trkpt lat="45.2397" lon="5.74227">
        <ele>935.59997558594</ele>
        <time>2021-09-12T05:17:18.000Z</time>
      </trkpt>
      <trkpt lat="45.23971" lon="5.74227">
        <ele>936</ele>
        <time>2021-09-12T05:17:19.000Z</time>
      </trkpt>
      <trkpt lat="45.23977" lon="5.7423">
        <ele>936.40002441406</ele>
        <time>2021-09-12T05:17:22.000Z</time>
      </trkpt>
      <trkpt lat="45.23978" lon="5.74231">
        <ele>936.79998779297</ele>
        <time>2021-09-12T05:17:23.000Z</time>
      </trkpt>
      <trkpt lat="45.23982" lon="5.74231">
        <ele>937.40002441406</ele>
        <time>2021-09-12T05:17:26.000Z</time>
      </trkpt>
      <trkpt lat="45.23985" lon="5.74231">
        <ele>937.79998779297</ele>
        <time>2021-09-12T05:17:28.000Z</time>
      </trkpt>
      <trkpt lat="45.23987" lon="5.74228">
        <ele>938.40002441406</ele>
        <time>2021-09-12T05:17:31.000Z</time>
      </trkpt>
      <trkpt lat="45.23987" lon="5.74228">
        <ele>938.59997558594</ele>
        <time>2021-09-12T05:17:32.000Z</time>
      </trkpt>
      <trkpt lat="45.23988" lon="5.74227">
        <ele>938.79998779297</ele>
        <time>2021-09-12T05:17:33.000Z</time>
      </trkpt>
      <trkpt lat="45.2399" lon="5.74227">
        <ele>939</ele>
        <time>2021-09-12T05:17:34.000Z</time>
      </trkpt>
      <trkpt lat="45.2399" lon="5.74227">
        <ele>939.40002441406</ele>
        <time>2021-09-12T05:17:35.000Z</time>
      </trkpt>
      <trkpt lat="45.23995" lon="5.7423">
        <ele>940.20001220703</ele>
        <time>2021-09-12T05:17:39.000Z</time>
      </trkpt>
      <trkpt lat="45.23996" lon="5.7423">
        <ele>940.59997558594</ele>
        <time>2021-09-12T05:17:40.000Z</time>
      </trkpt>
      <trkpt lat="45.23998" lon="5.74231">
        <ele>941.40002441406</ele>
        <time>2021-09-12T05:17:43.000Z</time>
      </trkpt>
      <trkpt lat="45.24002" lon="5.74231">
        <ele>942</ele>
        <time>2021-09-12T05:17:46.000Z</time>
      </trkpt>
      <trkpt lat="45.24005" lon="5.74231">
        <ele>942.59997558594</ele>
        <time>2021-09-12T05:17:48.000Z</time>
      </trkpt>
      <trkpt lat="45.24008" lon="5.7423">
        <ele>943.20001220703</ele>
        <time>2021-09-12T05:17:50.000Z</time>
      </trkpt>
      <trkpt lat="45.2401" lon="5.74231">
        <ele>943.59997558594</ele>
        <time>2021-09-12T05:17:52.000Z</time>
      </trkpt>
      <trkpt lat="45.24011" lon="5.7423">
        <ele>944.40002441406</ele>
        <time>2021-09-12T05:17:55.000Z</time>
      </trkpt>
      <trkpt lat="45.24013" lon="5.7423">
        <ele>945</ele>
        <time>2021-09-12T05:17:57.000Z</time>
      </trkpt>
      <trkpt lat="45.24015" lon="5.74232">
        <ele>945.20001220703</ele>
        <time>2021-09-12T05:17:58.000Z</time>
      </trkpt>
      <trkpt lat="45.24019" lon="5.74235">
        <ele>945.79998779297</ele>
        <time>2021-09-12T05:18:01.000Z</time>
      </trkpt>
      <trkpt lat="45.24021" lon="5.74236">
        <ele>946.20001220703</ele>
        <time>2021-09-12T05:18:02.000Z</time>
      </trkpt>
      <trkpt lat="45.24026" lon="5.74239">
        <ele>947.20001220703</ele>
        <time>2021-09-12T05:18:05.000Z</time>
      </trkpt>
      <trkpt lat="45.24029" lon="5.74241">
        <ele>947.59997558594</ele>
        <time>2021-09-12T05:18:06.000Z</time>
      </trkpt>
      <trkpt lat="45.24032" lon="5.74243">
        <ele>948.20001220703</ele>
        <time>2021-09-12T05:18:10.000Z</time>
      </trkpt>
      <trkpt lat="45.24035" lon="5.74245">
        <ele>949.40002441406</ele>
        <time>2021-09-12T05:18:13.000Z</time>
      </trkpt>
      <trkpt lat="45.24036" lon="5.74244">
        <ele>950</ele>
        <time>2021-09-12T05:18:15.000Z</time>
      </trkpt>
      <trkpt lat="45.24037" lon="5.74244">
        <ele>950.20001220703</ele>
        <time>2021-09-12T05:18:16.000Z</time>
      </trkpt>
      <trkpt lat="45.24039" lon="5.74245">
        <ele>950.40002441406</ele>
        <time>2021-09-12T05:18:17.000Z</time>
      </trkpt>
      <trkpt lat="45.24037" lon="5.74242">
        <ele>950.79998779297</ele>
        <time>2021-09-12T05:18:19.000Z</time>
      </trkpt>
      <trkpt lat="45.24037" lon="5.7424">
        <ele>951</ele>
        <time>2021-09-12T05:18:20.000Z</time>
      </trkpt>
      <trkpt lat="45.24037" lon="5.7424">
        <ele>951.59997558594</ele>
        <time>2021-09-12T05:18:21.000Z</time>
      </trkpt>
      <trkpt lat="45.24038" lon="5.7424">
        <ele>952.59997558594</ele>
        <time>2021-09-12T05:18:24.000Z</time>
      </trkpt>
      <trkpt lat="45.24038" lon="5.74239">
        <ele>953.40002441406</ele>
        <time>2021-09-12T05:18:27.000Z</time>
      </trkpt>
      <trkpt lat="45.24039" lon="5.7424">
        <ele>953.79998779297</ele>
        <time>2021-09-12T05:18:28.000Z</time>
      </trkpt>
      <trkpt lat="45.2404" lon="5.74241">
        <ele>954.20001220703</ele>
        <time>2021-09-12T05:18:29.000Z</time>
      </trkpt>
      <trkpt lat="45.24041" lon="5.74242">
        <ele>954.79998779297</ele>
        <time>2021-09-12T05:18:31.000Z</time>
      </trkpt>
      <trkpt lat="45.24041" lon="5.74241">
        <ele>955.20001220703</ele>
        <time>2021-09-12T05:18:32.000Z</time>
      </trkpt>
      <trkpt lat="45.24042" lon="5.74241">
        <ele>955.59997558594</ele>
        <time>2021-09-12T05:18:34.000Z</time>
      </trkpt>
      <trkpt lat="45.24042" lon="5.7424">
        <ele>956</ele>
        <time>2021-09-12T05:18:35.000Z</time>
      </trkpt>
      <trkpt lat="45.24043" lon="5.7424">
        <ele>956.20001220703</ele>
        <time>2021-09-12T05:18:36.000Z</time>
      </trkpt>
      <trkpt lat="45.24047" lon="5.74243">
        <ele>957.20001220703</ele>
        <time>2021-09-12T05:18:39.000Z</time>
      </trkpt>
      <trkpt lat="45.24046" lon="5.74245">
        <ele>957.79998779297</ele>
        <time>2021-09-12T05:18:41.000Z</time>
      </trkpt>
      <trkpt lat="45.24048" lon="5.74245">
        <ele>958.40002441406</ele>
        <time>2021-09-12T05:18:44.000Z</time>
      </trkpt>
      <trkpt lat="45.24048" lon="5.74245">
        <ele>958.59997558594</ele>
        <time>2021-09-12T05:18:45.000Z</time>
      </trkpt>
      <trkpt lat="45.24048" lon="5.74244">
        <ele>959</ele>
        <time>2021-09-12T05:18:46.000Z</time>
      </trkpt>
      <trkpt lat="45.2405" lon="5.74245">
        <ele>959.59997558594</ele>
        <time>2021-09-12T05:18:48.000Z</time>
      </trkpt>
      <trkpt lat="45.24053" lon="5.74245">
        <ele>959.79998779297</ele>
        <time>2021-09-12T05:18:49.000Z</time>
      </trkpt>
      <trkpt lat="45.24054" lon="5.74242">
        <ele>961</ele>
        <time>2021-09-12T05:18:53.000Z</time>
      </trkpt>
      <trkpt lat="45.24055" lon="5.74241">
        <ele>961.40002441406</ele>
        <time>2021-09-12T05:18:54.000Z</time>
      </trkpt>
      <trkpt lat="45.24057" lon="5.74239">
        <ele>962.20001220703</ele>
        <time>2021-09-12T05:18:57.000Z</time>
      </trkpt>
      <trkpt lat="45.24058" lon="5.74238">
        <ele>962.59997558594</ele>
        <time>2021-09-12T05:18:58.000Z</time>
      </trkpt>
      <trkpt lat="45.2406" lon="5.74241">
        <ele>963.20001220703</ele>
        <time>2021-09-12T05:19:01.000Z</time>
      </trkpt>
      <trkpt lat="45.24061" lon="5.74243">
        <ele>964.40002441406</ele>
        <time>2021-09-12T05:19:04.000Z</time>
      </trkpt>
      <trkpt lat="45.24062" lon="5.74244">
        <ele>964.59997558594</ele>
        <time>2021-09-12T05:19:05.000Z</time>
      </trkpt>
      <trkpt lat="45.24062" lon="5.74243">
        <ele>965.20001220703</ele>
        <time>2021-09-12T05:19:07.000Z</time>
      </trkpt>
      <trkpt lat="45.24061" lon="5.74243">
        <ele>965.59997558594</ele>
        <time>2021-09-12T05:19:08.000Z</time>
      </trkpt>
      <trkpt lat="45.24062" lon="5.74244">
        <ele>965.79998779297</ele>
        <time>2021-09-12T05:19:09.000Z</time>
      </trkpt>
      <trkpt lat="45.24065" lon="5.74247">
        <ele>966.59997558594</ele>
        <time>2021-09-12T05:19:12.000Z</time>
      </trkpt>
      <trkpt lat="45.24067" lon="5.7425">
        <ele>967.20001220703</ele>
        <time>2021-09-12T05:19:14.000Z</time>
      </trkpt>
      <trkpt lat="45.24072" lon="5.74255">
        <ele>968</ele>
        <time>2021-09-12T05:19:16.000Z</time>
      </trkpt>
      <trkpt lat="45.24076" lon="5.74258">
        <ele>968.40002441406</ele>
        <time>2021-09-12T05:19:18.000Z</time>
      </trkpt>
      <trkpt lat="45.24079" lon="5.74262">
        <ele>969</ele>
        <time>2021-09-12T05:19:21.000Z</time>
      </trkpt>
      <trkpt lat="45.2408" lon="5.74264">
        <ele>969.79998779297</ele>
        <time>2021-09-12T05:19:23.000Z</time>
      </trkpt>
      <trkpt lat="45.24078" lon="5.74261">
        <ele>970</ele>
        <time>2021-09-12T05:19:24.000Z</time>
      </trkpt>
      <trkpt lat="45.24075" lon="5.74257">
        <ele>971</ele>
        <time>2021-09-12T05:19:27.000Z</time>
      </trkpt>
      <trkpt lat="45.24075" lon="5.74257">
        <ele>971.20001220703</ele>
        <time>2021-09-12T05:19:28.000Z</time>
      </trkpt>
      <trkpt lat="45.24075" lon="5.74257">
        <ele>971.40002441406</ele>
        <time>2021-09-12T05:19:30.000Z</time>
      </trkpt>
      <trkpt lat="45.24077" lon="5.74259">
        <ele>972.20001220703</ele>
        <time>2021-09-12T05:19:32.000Z</time>
      </trkpt>
      <trkpt lat="45.24082" lon="5.74262">
        <ele>973.40002441406</ele>
        <time>2021-09-12T05:19:37.000Z</time>
      </trkpt>
      <trkpt lat="45.24082" lon="5.74261">
        <ele>973.79998779297</ele>
        <time>2021-09-12T05:19:39.000Z</time>
      </trkpt>
      <trkpt lat="45.24082" lon="5.74261">
        <ele>974.40002441406</ele>
        <time>2021-09-12T05:19:41.000Z</time>
      </trkpt>
      <trkpt lat="45.24081" lon="5.74261">
        <ele>974.59997558594</ele>
        <time>2021-09-12T05:19:42.000Z</time>
      </trkpt>
      <trkpt lat="45.24083" lon="5.74258">
        <ele>975.59997558594</ele>
        <time>2021-09-12T05:19:45.000Z</time>
      </trkpt>
      <trkpt lat="45.24083" lon="5.74259">
        <ele>975.79998779297</ele>
        <time>2021-09-12T05:19:46.000Z</time>
      </trkpt>
      <trkpt lat="45.24088" lon="5.74261">
        <ele>976.79998779297</ele>
        <time>2021-09-12T05:19:50.000Z</time>
      </trkpt>
      <trkpt lat="45.24089" lon="5.74262">
        <ele>977</ele>
        <time>2021-09-12T05:19:51.000Z</time>
      </trkpt>
      <trkpt lat="45.2409" lon="5.74263">
        <ele>977.20001220703</ele>
        <time>2021-09-12T05:19:52.000Z</time>
      </trkpt>
      <trkpt lat="45.24093" lon="5.74264">
        <ele>978</ele>
        <time>2021-09-12T05:19:55.000Z</time>
      </trkpt>
      <trkpt lat="45.24095" lon="5.74264">
        <ele>978</ele>
        <time>2021-09-12T05:19:56.000Z</time>
      </trkpt>
      <trkpt lat="45.24097" lon="5.74261">
        <ele>978.79998779297</ele>
        <time>2021-09-12T05:19:59.000Z</time>
      </trkpt>
      <trkpt lat="45.24097" lon="5.7426">
        <ele>979</ele>
        <time>2021-09-12T05:20:00.000Z</time>
      </trkpt>
      <trkpt lat="45.24098" lon="5.74261">
        <ele>979.40002441406</ele>
        <time>2021-09-12T05:20:01.000Z</time>
      </trkpt>
      <trkpt lat="45.24102" lon="5.74261">
        <ele>980.20001220703</ele>
        <time>2021-09-12T05:20:05.000Z</time>
      </trkpt>
      <trkpt lat="45.24102" lon="5.74261">
        <ele>980.59997558594</ele>
        <time>2021-09-12T05:20:06.000Z</time>
      </trkpt>
      <trkpt lat="45.24106" lon="5.74265">
        <ele>981.79998779297</ele>
        <time>2021-09-12T05:20:10.000Z</time>
      </trkpt>
      <trkpt lat="45.24109" lon="5.74266">
        <ele>982.59997558594</ele>
        <time>2021-09-12T05:20:12.000Z</time>
      </trkpt>
      <trkpt lat="45.24109" lon="5.74266">
        <ele>983</ele>
        <time>2021-09-12T05:20:13.000Z</time>
      </trkpt>
      <trkpt lat="45.2411" lon="5.74264">
        <ele>983.59997558594</ele>
        <time>2021-09-12T05:20:15.000Z</time>
      </trkpt>
      <trkpt lat="45.24112" lon="5.74264">
        <ele>984</ele>
        <time>2021-09-12T05:20:17.000Z</time>
      </trkpt>
      <trkpt lat="45.24114" lon="5.74266">
        <ele>984.40002441406</ele>
        <time>2021-09-12T05:20:19.000Z</time>
      </trkpt>
      <trkpt lat="45.24114" lon="5.74266">
        <ele>985.20001220703</ele>
        <time>2021-09-12T05:20:21.000Z</time>
      </trkpt>
      <trkpt lat="45.24114" lon="5.74266">
        <ele>985.59997558594</ele>
        <time>2021-09-12T05:20:22.000Z</time>
      </trkpt>
      <trkpt lat="45.24115" lon="5.74266">
        <ele>985.79998779297</ele>
        <time>2021-09-12T05:20:23.000Z</time>
      </trkpt>
      <trkpt lat="45.24116" lon="5.74267">
        <ele>986.40002441406</ele>
        <time>2021-09-12T05:20:25.000Z</time>
      </trkpt>
      <trkpt lat="45.24118" lon="5.74268">
        <ele>986.79998779297</ele>
        <time>2021-09-12T05:20:27.000Z</time>
      </trkpt>
      <trkpt lat="45.24119" lon="5.7427">
        <ele>986.79998779297</ele>
        <time>2021-09-12T05:20:28.000Z</time>
      </trkpt>
      <trkpt lat="45.24119" lon="5.7427">
        <ele>987.59997558594</ele>
        <time>2021-09-12T05:20:31.000Z</time>
      </trkpt>
      <trkpt lat="45.2412" lon="5.7427">
        <ele>987.79998779297</ele>
        <time>2021-09-12T05:20:32.000Z</time>
      </trkpt>
      <trkpt lat="45.24121" lon="5.74271">
        <ele>988</ele>
        <time>2021-09-12T05:20:33.000Z</time>
      </trkpt>
      <trkpt lat="45.24121" lon="5.74271">
        <ele>988.79998779297</ele>
        <time>2021-09-12T05:20:35.000Z</time>
      </trkpt>
      <trkpt lat="45.24123" lon="5.74272">
        <ele>989.20001220703</ele>
        <time>2021-09-12T05:20:37.000Z</time>
      </trkpt>
      <trkpt lat="45.24125" lon="5.74274">
        <ele>989.79998779297</ele>
        <time>2021-09-12T05:20:40.000Z</time>
      </trkpt>
      <trkpt lat="45.24127" lon="5.74275">
        <ele>990.79998779297</ele>
        <time>2021-09-12T05:20:42.000Z</time>
      </trkpt>
      <trkpt lat="45.24127" lon="5.74275">
        <ele>991</ele>
        <time>2021-09-12T05:20:43.000Z</time>
      </trkpt>
      <trkpt lat="45.24127" lon="5.74275">
        <ele>991.20001220703</ele>
        <time>2021-09-12T05:20:44.000Z</time>
      </trkpt>
      <trkpt lat="45.24128" lon="5.74273">
        <ele>991.79998779297</ele>
        <time>2021-09-12T05:20:46.000Z</time>
      </trkpt>
      <trkpt lat="45.2413" lon="5.74275">
        <ele>992.20001220703</ele>
        <time>2021-09-12T05:20:48.000Z</time>
      </trkpt>
      <trkpt lat="45.24131" lon="5.74276">
        <ele>992.40002441406</ele>
        <time>2021-09-12T05:20:50.000Z</time>
      </trkpt>
      <trkpt lat="45.24133" lon="5.74276">
        <ele>993</ele>
        <time>2021-09-12T05:20:53.000Z</time>
      </trkpt>
      <trkpt lat="45.24134" lon="5.74276">
        <ele>993.40002441406</ele>
        <time>2021-09-12T05:20:54.000Z</time>
      </trkpt>
      <trkpt lat="45.24135" lon="5.74276">
        <ele>993.79998779297</ele>
        <time>2021-09-12T05:20:56.000Z</time>
      </trkpt>
      <trkpt lat="45.24134" lon="5.74273">
        <ele>994.40002441406</ele>
        <time>2021-09-12T05:20:59.000Z</time>
      </trkpt>
      <trkpt lat="45.24136" lon="5.74273">
        <ele>994.59997558594</ele>
        <time>2021-09-12T05:21:00.000Z</time>
      </trkpt>
      <trkpt lat="45.24138" lon="5.74273">
        <ele>995</ele>
        <time>2021-09-12T05:21:02.000Z</time>
      </trkpt>
      <trkpt lat="45.24139" lon="5.74273">
        <ele>995.40002441406</ele>
        <time>2021-09-12T05:21:03.000Z</time>
      </trkpt>
      <trkpt lat="45.24139" lon="5.74272">
        <ele>995.59997558594</ele>
        <time>2021-09-12T05:21:04.000Z</time>
      </trkpt>
      <trkpt lat="45.2414" lon="5.74272">
        <ele>995.79998779297</ele>
        <time>2021-09-12T05:21:05.000Z</time>
      </trkpt>
      <trkpt lat="45.24144" lon="5.74274">
        <ele>996.20001220703</ele>
        <time>2021-09-12T05:21:07.000Z</time>
      </trkpt>
      <trkpt lat="45.24147" lon="5.74275">
        <ele>996.79998779297</ele>
        <time>2021-09-12T05:21:09.000Z</time>
      </trkpt>
      <trkpt lat="45.24148" lon="5.74274">
        <ele>997</ele>
        <time>2021-09-12T05:21:11.000Z</time>
      </trkpt>
      <trkpt lat="45.24149" lon="5.74275">
        <ele>997.40002441406</ele>
        <time>2021-09-12T05:21:12.000Z</time>
      </trkpt>
      <trkpt lat="45.24153" lon="5.74278">
        <ele>998.20001220703</ele>
        <time>2021-09-12T05:21:14.000Z</time>
      </trkpt>
      <trkpt lat="45.24155" lon="5.7428">
        <ele>998.59997558594</ele>
        <time>2021-09-12T05:21:16.000Z</time>
      </trkpt>
      <trkpt lat="45.24156" lon="5.7428">
        <ele>998.79998779297</ele>
        <time>2021-09-12T05:21:17.000Z</time>
      </trkpt>
      <trkpt lat="45.2416" lon="5.74283">
        <ele>999.20001220703</ele>
        <time>2021-09-12T05:21:20.000Z</time>
      </trkpt>
      <trkpt lat="45.24161" lon="5.74284">
        <ele>999.40002441406</ele>
        <time>2021-09-12T05:21:21.000Z</time>
      </trkpt>
      <trkpt lat="45.24164" lon="5.74287">
        <ele>1000.5999755859</ele>
        <time>2021-09-12T05:21:25.000Z</time>
      </trkpt>
      <trkpt lat="45.24169" lon="5.74293">
        <ele>1001.799987793</ele>
        <time>2021-09-12T05:21:29.000Z</time>
      </trkpt>
      <trkpt lat="45.24171" lon="5.74294">
        <ele>1002</ele>
        <time>2021-09-12T05:21:30.000Z</time>
      </trkpt>
      <trkpt lat="45.24174" lon="5.74295">
        <ele>1002.799987793</ele>
        <time>2021-09-12T05:21:34.000Z</time>
      </trkpt>
      <trkpt lat="45.24175" lon="5.74295">
        <ele>1003</ele>
        <time>2021-09-12T05:21:35.000Z</time>
      </trkpt>
      <trkpt lat="45.24177" lon="5.74295">
        <ele>1003.200012207</ele>
        <time>2021-09-12T05:21:37.000Z</time>
      </trkpt>
      <trkpt lat="45.24179" lon="5.74298">
        <ele>1003.200012207</ele>
        <time>2021-09-12T05:21:39.000Z</time>
      </trkpt>
      <trkpt lat="45.2418" lon="5.74299">
        <ele>1003</ele>
        <time>2021-09-12T05:21:40.000Z</time>
      </trkpt>
      <trkpt lat="45.2418" lon="5.74297">
        <ele>1003</ele>
        <time>2021-09-12T05:21:43.000Z</time>
      </trkpt>
      <trkpt lat="45.24182" lon="5.743">
        <ele>1003.5999755859</ele>
        <time>2021-09-12T05:21:46.000Z</time>
      </trkpt>
      <trkpt lat="45.24183" lon="5.74303">
        <ele>1004</ele>
        <time>2021-09-12T05:21:47.000Z</time>
      </trkpt>
      <trkpt lat="45.24184" lon="5.74303">
        <ele>1004.5999755859</ele>
        <time>2021-09-12T05:21:51.000Z</time>
      </trkpt>
      <trkpt lat="45.24184" lon="5.74303">
        <ele>1004.5999755859</ele>
        <time>2021-09-12T05:21:54.000Z</time>
      </trkpt>
      <trkpt lat="45.24184" lon="5.74304">
        <ele>1004.5999755859</ele>
        <time>2021-09-12T05:21:56.000Z</time>
      </trkpt>
      <trkpt lat="45.24183" lon="5.74305">
        <ele>1004.5999755859</ele>
        <time>2021-09-12T05:21:58.000Z</time>
      </trkpt>
      <trkpt lat="45.24182" lon="5.74307">
        <ele>1004.5999755859</ele>
        <time>2021-09-12T05:22:01.000Z</time>
      </trkpt>
      <trkpt lat="45.24182" lon="5.74307">
        <ele>1004.5999755859</ele>
        <time>2021-09-12T05:22:02.000Z</time>
      </trkpt>
      <trkpt lat="45.24182" lon="5.74308">
        <ele>1004.5999755859</ele>
        <time>2021-09-12T05:22:03.000Z</time>
      </trkpt>
      <trkpt lat="45.24181" lon="5.74309">
        <ele>1004.799987793</ele>
        <time>2021-09-12T05:22:06.000Z</time>
      </trkpt>
      <trkpt lat="45.2418" lon="5.74308">
        <ele>1005</ele>
        <time>2021-09-12T05:22:07.000Z</time>
      </trkpt>
      <trkpt lat="45.2418" lon="5.74309">
        <ele>1005.4000244141</ele>
        <time>2021-09-12T05:22:09.000Z</time>
      </trkpt>
      <trkpt lat="45.24181" lon="5.7431">
        <ele>1005.4000244141</ele>
        <time>2021-09-12T05:22:10.000Z</time>
      </trkpt>
      <trkpt lat="45.24182" lon="5.74312">
        <ele>1005.5999755859</ele>
        <time>2021-09-12T05:22:11.000Z</time>
      </trkpt>
      <trkpt lat="45.24182" lon="5.74313">
        <ele>1005.5999755859</ele>
        <time>2021-09-12T05:22:12.000Z</time>
      </trkpt>
      <trkpt lat="45.24183" lon="5.74314">
        <ele>1006</ele>
        <time>2021-09-12T05:22:14.000Z</time>
      </trkpt>
      <trkpt lat="45.24184" lon="5.74314">
        <ele>1006.200012207</ele>
        <time>2021-09-12T05:22:15.000Z</time>
      </trkpt>
      <trkpt lat="45.24184" lon="5.74314">
        <ele>1006.4000244141</ele>
        <time>2021-09-12T05:22:16.000Z</time>
      </trkpt>
      <trkpt lat="45.24184" lon="5.74315">
        <ele>1007.200012207</ele>
        <time>2021-09-12T05:22:19.000Z</time>
      </trkpt>
      <trkpt lat="45.24187" lon="5.7432">
        <ele>1008.4000244141</ele>
        <time>2021-09-12T05:22:23.000Z</time>
      </trkpt>
      <trkpt lat="45.24186" lon="5.7432">
        <ele>1009.5999755859</ele>
        <time>2021-09-12T05:22:27.000Z</time>
      </trkpt>
      <trkpt lat="45.24185" lon="5.7432">
        <ele>1009.799987793</ele>
        <time>2021-09-12T05:22:28.000Z</time>
      </trkpt>
      <trkpt lat="45.24184" lon="5.7432">
        <ele>1010.200012207</ele>
        <time>2021-09-12T05:22:30.000Z</time>
      </trkpt>
      <trkpt lat="45.24183" lon="5.7432">
        <ele>1010.799987793</ele>
        <time>2021-09-12T05:22:33.000Z</time>
      </trkpt>
      <trkpt lat="45.24182" lon="5.74319">
        <ele>1010.799987793</ele>
        <time>2021-09-12T05:22:34.000Z</time>
      </trkpt>
      <trkpt lat="45.2418" lon="5.74319">
        <ele>1011</ele>
        <time>2021-09-12T05:22:37.000Z</time>
      </trkpt>
      <trkpt lat="45.24178" lon="5.74321">
        <ele>1012.200012207</ele>
        <time>2021-09-12T05:22:42.000Z</time>
      </trkpt>
      <trkpt lat="45.24178" lon="5.74323">
        <ele>1013</ele>
        <time>2021-09-12T05:22:44.000Z</time>
      </trkpt>
      <trkpt lat="45.24178" lon="5.74323">
        <ele>1013.200012207</ele>
        <time>2021-09-12T05:22:45.000Z</time>
      </trkpt>
      <trkpt lat="45.24176" lon="5.74323">
        <ele>1013.799987793</ele>
        <time>2021-09-12T05:22:47.000Z</time>
      </trkpt>
      <trkpt lat="45.24174" lon="5.74322">
        <ele>1014.4000244141</ele>
        <time>2021-09-12T05:22:50.000Z</time>
      </trkpt>
      <trkpt lat="45.24171" lon="5.74321">
        <ele>1014.799987793</ele>
        <time>2021-09-12T05:22:52.000Z</time>
      </trkpt>
      <trkpt lat="45.24169" lon="5.74324">
        <ele>1015.5999755859</ele>
        <time>2021-09-12T05:22:56.000Z</time>
      </trkpt>
      <trkpt lat="45.24168" lon="5.74324">
        <ele>1015.799987793</ele>
        <time>2021-09-12T05:22:57.000Z</time>
      </trkpt>
      <trkpt lat="45.24166" lon="5.74324">
        <ele>1016</ele>
        <time>2021-09-12T05:23:00.000Z</time>
      </trkpt>
      <trkpt lat="45.24165" lon="5.74325">
        <ele>1016.200012207</ele>
        <time>2021-09-12T05:23:02.000Z</time>
      </trkpt>
      <trkpt lat="45.24163" lon="5.74325">
        <ele>1016.200012207</ele>
        <time>2021-09-12T05:23:03.000Z</time>
      </trkpt>
      <trkpt lat="45.24161" lon="5.74325">
        <ele>1016.200012207</ele>
        <time>2021-09-12T05:23:05.000Z</time>
      </trkpt>
      <trkpt lat="45.2416" lon="5.74326">
        <ele>1016.4000244141</ele>
        <time>2021-09-12T05:23:06.000Z</time>
      </trkpt>
      <trkpt lat="45.24159" lon="5.74329">
        <ele>1016.799987793</ele>
        <time>2021-09-12T05:23:09.000Z</time>
      </trkpt>
      <trkpt lat="45.24157" lon="5.74332">
        <ele>1017.799987793</ele>
        <time>2021-09-12T05:23:14.000Z</time>
      </trkpt>
      <trkpt lat="45.24157" lon="5.74332">
        <ele>1018</ele>
        <time>2021-09-12T05:23:15.000Z</time>
      </trkpt>
      <trkpt lat="45.24156" lon="5.74332">
        <ele>1018</ele>
        <time>2021-09-12T05:23:16.000Z</time>
      </trkpt>
      <trkpt lat="45.24156" lon="5.74334">
        <ele>1018</ele>
        <time>2021-09-12T05:23:19.000Z</time>
      </trkpt>
      <trkpt lat="45.24155" lon="5.74334">
        <ele>1018</ele>
        <time>2021-09-12T05:23:21.000Z</time>
      </trkpt>
      <trkpt lat="45.24154" lon="5.74334">
        <ele>1018.200012207</ele>
        <time>2021-09-12T05:23:22.000Z</time>
      </trkpt>
      <trkpt lat="45.24153" lon="5.74334">
        <ele>1018.4000244141</ele>
        <time>2021-09-12T05:23:24.000Z</time>
      </trkpt>
      <trkpt lat="45.24153" lon="5.74335">
        <ele>1018.5999755859</ele>
        <time>2021-09-12T05:23:26.000Z</time>
      </trkpt>
      <trkpt lat="45.24153" lon="5.74337">
        <ele>1019</ele>
        <time>2021-09-12T05:23:28.000Z</time>
      </trkpt>
      <trkpt lat="45.2415" lon="5.74338">
        <ele>1019.200012207</ele>
        <time>2021-09-12T05:23:32.000Z</time>
      </trkpt>
      <trkpt lat="45.24144" lon="5.74339">
        <ele>1018.5999755859</ele>
        <time>2021-09-12T05:23:37.000Z</time>
      </trkpt>
      <trkpt lat="45.24141" lon="5.7434">
        <ele>1018.4000244141</ele>
        <time>2021-09-12T05:23:40.000Z</time>
      </trkpt>
      <trkpt lat="45.24139" lon="5.74341">
        <ele>1018.4000244141</ele>
        <time>2021-09-12T05:23:42.000Z</time>
      </trkpt>
      <trkpt lat="45.24137" lon="5.74342">
        <ele>1018.4000244141</ele>
        <time>2021-09-12T05:23:43.000Z</time>
      </trkpt>
      <trkpt lat="45.24135" lon="5.74343">
        <ele>1018.4000244141</ele>
        <time>2021-09-12T05:23:44.000Z</time>
      </trkpt>
      <trkpt lat="45.24132" lon="5.74342">
        <ele>1018.4000244141</ele>
        <time>2021-09-12T05:23:45.000Z</time>
      </trkpt>
      <trkpt lat="45.24124" lon="5.74341">
        <ele>1018.200012207</ele>
        <time>2021-09-12T05:23:47.000Z</time>
      </trkpt>
      <trkpt lat="45.24119" lon="5.74343">
        <ele>1018</ele>
        <time>2021-09-12T05:23:49.000Z</time>
      </trkpt>
      <trkpt lat="45.24118" lon="5.74345">
        <ele>1018</ele>
        <time>2021-09-12T05:23:50.000Z</time>
      </trkpt>
      <trkpt lat="45.24116" lon="5.74346">
        <ele>1017.799987793</ele>
        <time>2021-09-12T05:23:51.000Z</time>
      </trkpt>
      <trkpt lat="45.24113" lon="5.74347">
        <ele>1017.799987793</ele>
        <time>2021-09-12T05:23:52.000Z</time>
      </trkpt>
      <trkpt lat="45.2411" lon="5.74347">
        <ele>1017.799987793</ele>
        <time>2021-09-12T05:23:53.000Z</time>
      </trkpt>
      <trkpt lat="45.241" lon="5.7435">
        <ele>1018.200012207</ele>
        <time>2021-09-12T05:23:57.000Z</time>
      </trkpt>
      <trkpt lat="45.24096" lon="5.7435">
        <ele>1018.5999755859</ele>
        <time>2021-09-12T05:23:59.000Z</time>
      </trkpt>
      <trkpt lat="45.24094" lon="5.74351">
        <ele>1019</ele>
        <time>2021-09-12T05:24:00.000Z</time>
      </trkpt>
      <trkpt lat="45.24092" lon="5.74351">
        <ele>1019.200012207</ele>
        <time>2021-09-12T05:24:01.000Z</time>
      </trkpt>
      <trkpt lat="45.24083" lon="5.74357">
        <ele>1019</ele>
        <time>2021-09-12T05:24:06.000Z</time>
      </trkpt>
      <trkpt lat="45.24083" lon="5.74361">
        <ele>1018.799987793</ele>
        <time>2021-09-12T05:24:08.000Z</time>
      </trkpt>
      <trkpt lat="45.24085" lon="5.74365">
        <ele>1019</ele>
        <time>2021-09-12T05:24:10.000Z</time>
      </trkpt>
      <trkpt lat="45.24083" lon="5.74369">
        <ele>1019.200012207</ele>
        <time>2021-09-12T05:24:14.000Z</time>
      </trkpt>
      <trkpt lat="45.24082" lon="5.74372">
        <ele>1019.4000244141</ele>
        <time>2021-09-12T05:24:16.000Z</time>
      </trkpt>
      <trkpt lat="45.24082" lon="5.74378">
        <ele>1020</ele>
        <time>2021-09-12T05:24:18.000Z</time>
      </trkpt>
      <trkpt lat="45.24081" lon="5.7438">
        <ele>1020.200012207</ele>
        <time>2021-09-12T05:24:19.000Z</time>
      </trkpt>
      <trkpt lat="45.24079" lon="5.74387">
        <ele>1020.799987793</ele>
        <time>2021-09-12T05:24:23.000Z</time>
      </trkpt>
      <trkpt lat="45.24077" lon="5.74388">
        <ele>1021</ele>
        <time>2021-09-12T05:24:24.000Z</time>
      </trkpt>
      <trkpt lat="45.24077" lon="5.74391">
        <ele>1021.200012207</ele>
        <time>2021-09-12T05:24:25.000Z</time>
      </trkpt>
      <trkpt lat="45.24076" lon="5.74394">
        <ele>1021.4000244141</ele>
        <time>2021-09-12T05:24:27.000Z</time>
      </trkpt>
      <trkpt lat="45.24073" lon="5.74397">
        <ele>1022</ele>
        <time>2021-09-12T05:24:29.000Z</time>
      </trkpt>
      <trkpt lat="45.24073" lon="5.74398">
        <ele>1022.200012207</ele>
        <time>2021-09-12T05:24:30.000Z</time>
      </trkpt>
      <trkpt lat="45.24073" lon="5.744">
        <ele>1022.4000244141</ele>
        <time>2021-09-12T05:24:31.000Z</time>
      </trkpt>
      <trkpt lat="45.24072" lon="5.74403">
        <ele>1022.799987793</ele>
        <time>2021-09-12T05:24:33.000Z</time>
      </trkpt>
      <trkpt lat="45.24071" lon="5.74412">
        <ele>1023.200012207</ele>
        <time>2021-09-12T05:24:36.000Z</time>
      </trkpt>
      <trkpt lat="45.24069" lon="5.74417">
        <ele>1023.799987793</ele>
        <time>2021-09-12T05:24:39.000Z</time>
      </trkpt>
      <trkpt lat="45.24069" lon="5.7442">
        <ele>1024.1999511719</ele>
        <time>2021-09-12T05:24:40.000Z</time>
      </trkpt>
      <trkpt lat="45.2407" lon="5.74422">
        <ele>1024.4000244141</ele>
        <time>2021-09-12T05:24:41.000Z</time>
      </trkpt>
      <trkpt lat="45.2407" lon="5.74424">
        <ele>1024.5999755859</ele>
        <time>2021-09-12T05:24:42.000Z</time>
      </trkpt>
      <trkpt lat="45.24067" lon="5.74426">
        <ele>1025</ele>
        <time>2021-09-12T05:24:44.000Z</time>
      </trkpt>
      <trkpt lat="45.24066" lon="5.74428">
        <ele>1025.4000244141</ele>
        <time>2021-09-12T05:24:46.000Z</time>
      </trkpt>
      <trkpt lat="45.24067" lon="5.74429">
        <ele>1025.5999755859</ele>
        <time>2021-09-12T05:24:47.000Z</time>
      </trkpt>
      <trkpt lat="45.24068" lon="5.7443">
        <ele>1025.8000488281</ele>
        <time>2021-09-12T05:24:48.000Z</time>
      </trkpt>
      <trkpt lat="45.24071" lon="5.74433">
        <ele>1026.1999511719</ele>
        <time>2021-09-12T05:24:50.000Z</time>
      </trkpt>
      <trkpt lat="45.24079" lon="5.74438">
        <ele>1026.5999755859</ele>
        <time>2021-09-12T05:24:53.000Z</time>
      </trkpt>
      <trkpt lat="45.2408" lon="5.74438">
        <ele>1026.5999755859</ele>
        <time>2021-09-12T05:24:54.000Z</time>
      </trkpt>
      <trkpt lat="45.24082" lon="5.74438">
        <ele>1026.5999755859</ele>
        <time>2021-09-12T05:24:56.000Z</time>
      </trkpt>
      <trkpt lat="45.24086" lon="5.74437">
        <ele>1027.4000244141</ele>
        <time>2021-09-12T05:24:59.000Z</time>
      </trkpt>
      <trkpt lat="45.24088" lon="5.74436">
        <ele>1027.8000488281</ele>
        <time>2021-09-12T05:25:01.000Z</time>
      </trkpt>
      <trkpt lat="45.24089" lon="5.74434">
        <ele>1028.1999511719</ele>
        <time>2021-09-12T05:25:03.000Z</time>
      </trkpt>
      <trkpt lat="45.24091" lon="5.74432">
        <ele>1028.8000488281</ele>
        <time>2021-09-12T05:25:05.000Z</time>
      </trkpt>
      <trkpt lat="45.24092" lon="5.74431">
        <ele>1029</ele>
        <time>2021-09-12T05:25:06.000Z</time>
      </trkpt>
      <trkpt lat="45.24092" lon="5.7443">
        <ele>1029.1999511719</ele>
        <time>2021-09-12T05:25:07.000Z</time>
      </trkpt>
      <trkpt lat="45.24093" lon="5.74428">
        <ele>1029.8000488281</ele>
        <time>2021-09-12T05:25:09.000Z</time>
      </trkpt>
      <trkpt lat="45.24095" lon="5.74428">
        <ele>1030.1999511719</ele>
        <time>2021-09-12T05:25:10.000Z</time>
      </trkpt>
      <trkpt lat="45.24096" lon="5.74427">
        <ele>1030.4000244141</ele>
        <time>2021-09-12T05:25:11.000Z</time>
      </trkpt>
      <trkpt lat="45.24096" lon="5.74424">
        <ele>1031</ele>
        <time>2021-09-12T05:25:13.000Z</time>
      </trkpt>
      <trkpt lat="45.24097" lon="5.74423">
        <ele>1031.1999511719</ele>
        <time>2021-09-12T05:25:14.000Z</time>
      </trkpt>
      <trkpt lat="45.24097" lon="5.74422">
        <ele>1031.4000244141</ele>
        <time>2021-09-12T05:25:15.000Z</time>
      </trkpt>
      <trkpt lat="45.24097" lon="5.74417">
        <ele>1032.1999511719</ele>
        <time>2021-09-12T05:25:17.000Z</time>
      </trkpt>
      <trkpt lat="45.24098" lon="5.74416">
        <ele>1032.4000244141</ele>
        <time>2021-09-12T05:25:18.000Z</time>
      </trkpt>
      <trkpt lat="45.24099" lon="5.74412">
        <ele>1032.8000488281</ele>
        <time>2021-09-12T05:25:20.000Z</time>
      </trkpt>
      <trkpt lat="45.24102" lon="5.74412">
        <ele>1033.5999755859</ele>
        <time>2021-09-12T05:25:22.000Z</time>
      </trkpt>
      <trkpt lat="45.24102" lon="5.7441">
        <ele>1033.8000488281</ele>
        <time>2021-09-12T05:25:23.000Z</time>
      </trkpt>
      <trkpt lat="45.24104" lon="5.74408">
        <ele>1034.1999511719</ele>
        <time>2021-09-12T05:25:25.000Z</time>
      </trkpt>
      <trkpt lat="45.24106" lon="5.74407">
        <ele>1034.5999755859</ele>
        <time>2021-09-12T05:25:27.000Z</time>
      </trkpt>
      <trkpt lat="45.24107" lon="5.74407">
        <ele>1034.8000488281</ele>
        <time>2021-09-12T05:25:28.000Z</time>
      </trkpt>
      <trkpt lat="45.24111" lon="5.74404">
        <ele>1035.5999755859</ele>
        <time>2021-09-12T05:25:31.000Z</time>
      </trkpt>
      <trkpt lat="45.24114" lon="5.74403">
        <ele>1035.8000488281</ele>
        <time>2021-09-12T05:25:32.000Z</time>
      </trkpt>
      <trkpt lat="45.2412" lon="5.74401">
        <ele>1036.8000488281</ele>
        <time>2021-09-12T05:25:35.000Z</time>
      </trkpt>
      <trkpt lat="45.24127" lon="5.74396">
        <ele>1037.8000488281</ele>
        <time>2021-09-12T05:25:40.000Z</time>
      </trkpt>
      <trkpt lat="45.24129" lon="5.74396">
        <ele>1038</ele>
        <time>2021-09-12T05:25:41.000Z</time>
      </trkpt>
      <trkpt lat="45.24134" lon="5.74396">
        <ele>1038.8000488281</ele>
        <time>2021-09-12T05:25:44.000Z</time>
      </trkpt>
      <trkpt lat="45.24136" lon="5.74395">
        <ele>1039</ele>
        <time>2021-09-12T05:25:45.000Z</time>
      </trkpt>
      <trkpt lat="45.24139" lon="5.74394">
        <ele>1039.5999755859</ele>
        <time>2021-09-12T05:25:47.000Z</time>
      </trkpt>
      <trkpt lat="45.24141" lon="5.74393">
        <ele>1039.5999755859</ele>
        <time>2021-09-12T05:25:48.000Z</time>
      </trkpt>
      <trkpt lat="45.24148" lon="5.74394">
        <ele>1040</ele>
        <time>2021-09-12T05:25:51.000Z</time>
      </trkpt>
      <trkpt lat="45.24149" lon="5.74391">
        <ele>1040.1999511719</ele>
        <time>2021-09-12T05:25:53.000Z</time>
      </trkpt>
      <trkpt lat="45.24152" lon="5.74389">
        <ele>1040.5999755859</ele>
        <time>2021-09-12T05:25:55.000Z</time>
      </trkpt>
      <trkpt lat="45.24153" lon="5.74388">
        <ele>1041</ele>
        <time>2021-09-12T05:25:56.000Z</time>
      </trkpt>
      <trkpt lat="45.24156" lon="5.74386">
        <ele>1041.5999755859</ele>
        <time>2021-09-12T05:25:58.000Z</time>
      </trkpt>
      <trkpt lat="45.24158" lon="5.74386">
        <ele>1041.8000488281</ele>
        <time>2021-09-12T05:26:00.000Z</time>
      </trkpt>
      <trkpt lat="45.2416" lon="5.74385">
        <ele>1042</ele>
        <time>2021-09-12T05:26:01.000Z</time>
      </trkpt>
      <trkpt lat="45.24161" lon="5.74385">
        <ele>1042.4000244141</ele>
        <time>2021-09-12T05:26:02.000Z</time>
      </trkpt>
      <trkpt lat="45.24163" lon="5.74385">
        <ele>1042.8000488281</ele>
        <time>2021-09-12T05:26:04.000Z</time>
      </trkpt>
      <trkpt lat="45.24164" lon="5.74385">
        <ele>1043</ele>
        <time>2021-09-12T05:26:05.000Z</time>
      </trkpt>
      <trkpt lat="45.24166" lon="5.74395">
        <ele>1042.4000244141</ele>
        <time>2021-09-12T05:26:10.000Z</time>
      </trkpt>
      <trkpt lat="45.24162" lon="5.74401">
        <ele>1042.8000488281</ele>
        <time>2021-09-12T05:26:14.000Z</time>
      </trkpt>
      <trkpt lat="45.24162" lon="5.74405">
        <ele>1043</ele>
        <time>2021-09-12T05:26:16.000Z</time>
      </trkpt>
      <trkpt lat="45.24162" lon="5.74406">
        <ele>1043.1999511719</ele>
        <time>2021-09-12T05:26:17.000Z</time>
      </trkpt>
      <trkpt lat="45.24158" lon="5.74406">
        <ele>1043.4000244141</ele>
        <time>2021-09-12T05:26:19.000Z</time>
      </trkpt>
      <trkpt lat="45.24155" lon="5.74408">
        <ele>1044</ele>
        <time>2021-09-12T05:26:23.000Z</time>
      </trkpt>
      <trkpt lat="45.24155" lon="5.74409">
        <ele>1044.4000244141</ele>
        <time>2021-09-12T05:26:25.000Z</time>
      </trkpt>
      <trkpt lat="45.24154" lon="5.74409">
        <ele>1044.5999755859</ele>
        <time>2021-09-12T05:26:26.000Z</time>
      </trkpt>
      <trkpt lat="45.24154" lon="5.7441">
        <ele>1044.8000488281</ele>
        <time>2021-09-12T05:26:28.000Z</time>
      </trkpt>
      <trkpt lat="45.24152" lon="5.74411">
        <ele>1045</ele>
        <time>2021-09-12T05:26:30.000Z</time>
      </trkpt>
      <trkpt lat="45.24151" lon="5.74411">
        <ele>1045</ele>
        <time>2021-09-12T05:26:31.000Z</time>
      </trkpt>
      <trkpt lat="45.24149" lon="5.7441">
        <ele>1045.5999755859</ele>
        <time>2021-09-12T05:26:33.000Z</time>
      </trkpt>
      <trkpt lat="45.24147" lon="5.74408">
        <ele>1046.1999511719</ele>
        <time>2021-09-12T05:26:35.000Z</time>
      </trkpt>
      <trkpt lat="45.24147" lon="5.74408">
        <ele>1046.4000244141</ele>
        <time>2021-09-12T05:26:36.000Z</time>
      </trkpt>
      <trkpt lat="45.24144" lon="5.74407">
        <ele>1046.5999755859</ele>
        <time>2021-09-12T05:26:38.000Z</time>
      </trkpt>
      <trkpt lat="45.24144" lon="5.74407">
        <ele>1046.8000488281</ele>
        <time>2021-09-12T05:26:39.000Z</time>
      </trkpt>
      <trkpt lat="45.24141" lon="5.74406">
        <ele>1046.8000488281</ele>
        <time>2021-09-12T05:26:42.000Z</time>
      </trkpt>
      <trkpt lat="45.24137" lon="5.74409">
        <ele>1046.1999511719</ele>
        <time>2021-09-12T05:26:50.000Z</time>
      </trkpt>
      <trkpt lat="45.24135" lon="5.7441">
        <ele>1045.5999755859</ele>
        <time>2021-09-12T05:26:53.000Z</time>
      </trkpt>
      <trkpt lat="45.24133" lon="5.74409">
        <ele>1045.1999511719</ele>
        <time>2021-09-12T05:26:55.000Z</time>
      </trkpt>
      <trkpt lat="45.24131" lon="5.74408">
        <ele>1044.5999755859</ele>
        <time>2021-09-12T05:26:57.000Z</time>
      </trkpt>
      <trkpt lat="45.24129" lon="5.74404">
        <ele>1043.8000488281</ele>
        <time>2021-09-12T05:27:00.000Z</time>
      </trkpt>
      <trkpt lat="45.24129" lon="5.74404">
        <ele>1043.1999511719</ele>
        <time>2021-09-12T05:27:01.000Z</time>
      </trkpt>
      <trkpt lat="45.24128" lon="5.74403">
        <ele>1042.4000244141</ele>
        <time>2021-09-12T05:27:03.000Z</time>
      </trkpt>
      <trkpt lat="45.24128" lon="5.74403">
        <ele>1042</ele>
        <time>2021-09-12T05:27:04.000Z</time>
      </trkpt>
      <trkpt lat="45.24126" lon="5.74401">
        <ele>1041.8000488281</ele>
        <time>2021-09-12T05:27:05.000Z</time>
      </trkpt>
      <trkpt lat="45.24124" lon="5.744">
        <ele>1041.1999511719</ele>
        <time>2021-09-12T05:27:07.000Z</time>
      </trkpt>
      <trkpt lat="45.24123" lon="5.74399">
        <ele>1040.8000488281</ele>
        <time>2021-09-12T05:27:08.000Z</time>
      </trkpt>
      <trkpt lat="45.24123" lon="5.74398">
        <ele>1040.5999755859</ele>
        <time>2021-09-12T05:27:09.000Z</time>
      </trkpt>
      <trkpt lat="45.24122" lon="5.74396">
        <ele>1040.4000244141</ele>
        <time>2021-09-12T05:27:10.000Z</time>
      </trkpt>
      <trkpt lat="45.24124" lon="5.74392">
        <ele>1040</ele>
        <time>2021-09-12T05:27:13.000Z</time>
      </trkpt>
      <trkpt lat="45.24126" lon="5.74391">
        <ele>1039.5999755859</ele>
        <time>2021-09-12T05:27:14.000Z</time>
      </trkpt>
      <trkpt lat="45.24127" lon="5.7439">
        <ele>1039.1999511719</ele>
        <time>2021-09-12T05:27:16.000Z</time>
      </trkpt>
      <trkpt lat="45.24128" lon="5.7439">
        <ele>1039</ele>
        <time>2021-09-12T05:27:17.000Z</time>
      </trkpt>
      <trkpt lat="45.24128" lon="5.74391">
        <ele>1038.8000488281</ele>
        <time>2021-09-12T05:27:19.000Z</time>
      </trkpt>
      <trkpt lat="45.24126" lon="5.7439">
        <ele>1038.5999755859</ele>
        <time>2021-09-12T05:27:20.000Z</time>
      </trkpt>
      <trkpt lat="45.24122" lon="5.74389">
        <ele>1038</ele>
        <time>2021-09-12T05:27:22.000Z</time>
      </trkpt>
      <trkpt lat="45.2412" lon="5.74389">
        <ele>1037.5999755859</ele>
        <time>2021-09-12T05:27:23.000Z</time>
      </trkpt>
      <trkpt lat="45.24119" lon="5.7439">
        <ele>1037.4000244141</ele>
        <time>2021-09-12T05:27:24.000Z</time>
      </trkpt>
      <trkpt lat="45.24116" lon="5.74392">
        <ele>1036.5999755859</ele>
        <time>2021-09-12T05:27:26.000Z</time>
      </trkpt>
      <trkpt lat="45.24114" lon="5.74392">
        <ele>1036</ele>
        <time>2021-09-12T05:27:27.000Z</time>
      </trkpt>
      <trkpt lat="45.24112" lon="5.74395">
        <ele>1035</ele>
        <time>2021-09-12T05:27:29.000Z</time>
      </trkpt>
      <trkpt lat="45.24111" lon="5.74396">
        <ele>1034.8000488281</ele>
        <time>2021-09-12T05:27:30.000Z</time>
      </trkpt>
      <trkpt lat="45.2411" lon="5.74397">
        <ele>1034.4000244141</ele>
        <time>2021-09-12T05:27:31.000Z</time>
      </trkpt>
      <trkpt lat="45.24109" lon="5.744">
        <ele>1033.8000488281</ele>
        <time>2021-09-12T05:27:33.000Z</time>
      </trkpt>
      <trkpt lat="45.24109" lon="5.74402">
        <ele>1033.4000244141</ele>
        <time>2021-09-12T05:27:34.000Z</time>
      </trkpt>
      <trkpt lat="45.24107" lon="5.74407">
        <ele>1032.5999755859</ele>
        <time>2021-09-12T05:27:36.000Z</time>
      </trkpt>
      <trkpt lat="45.24105" lon="5.74412">
        <ele>1032.1999511719</ele>
        <time>2021-09-12T05:27:38.000Z</time>
      </trkpt>
      <trkpt lat="45.24103" lon="5.74416">
        <ele>1031.5999755859</ele>
        <time>2021-09-12T05:27:40.000Z</time>
      </trkpt>
      <trkpt lat="45.24102" lon="5.7442">
        <ele>1031</ele>
        <time>2021-09-12T05:27:42.000Z</time>
      </trkpt>
      <trkpt lat="45.24101" lon="5.74422">
        <ele>1030.8000488281</ele>
        <time>2021-09-12T05:27:43.000Z</time>
      </trkpt>
      <trkpt lat="45.241" lon="5.74425">
        <ele>1030</ele>
        <time>2021-09-12T05:27:46.000Z</time>
      </trkpt>
      <trkpt lat="45.241" lon="5.74426">
        <ele>1029.5999755859</ele>
        <time>2021-09-12T05:27:47.000Z</time>
      </trkpt>
      <trkpt lat="45.24099" lon="5.74428">
        <ele>1029.1999511719</ele>
        <time>2021-09-12T05:27:49.000Z</time>
      </trkpt>
      <trkpt lat="45.24098" lon="5.7443">
        <ele>1029</ele>
        <time>2021-09-12T05:27:50.000Z</time>
      </trkpt>
      <trkpt lat="45.24098" lon="5.74431">
        <ele>1028.5999755859</ele>
        <time>2021-09-12T05:27:51.000Z</time>
      </trkpt>
      <trkpt lat="45.24096" lon="5.74437">
        <ele>1027.8000488281</ele>
        <time>2021-09-12T05:27:53.000Z</time>
      </trkpt>
      <trkpt lat="45.24092" lon="5.74441">
        <ele>1027</ele>
        <time>2021-09-12T05:27:56.000Z</time>
      </trkpt>
      <trkpt lat="45.2409" lon="5.74443">
        <ele>1026.8000488281</ele>
        <time>2021-09-12T05:27:57.000Z</time>
      </trkpt>
      <trkpt lat="45.24088" lon="5.74445">
        <ele>1026.5999755859</ele>
        <time>2021-09-12T05:27:59.000Z</time>
      </trkpt>
      <trkpt lat="45.24087" lon="5.74446">
        <ele>1026.4000244141</ele>
        <time>2021-09-12T05:28:00.000Z</time>
      </trkpt>
      <trkpt lat="45.24088" lon="5.74449">
        <ele>1026.1999511719</ele>
        <time>2021-09-12T05:28:01.000Z</time>
      </trkpt>
      <trkpt lat="45.24088" lon="5.74454">
        <ele>1025.8000488281</ele>
        <time>2021-09-12T05:28:04.000Z</time>
      </trkpt>
      <trkpt lat="45.24087" lon="5.74454">
        <ele>1025.8000488281</ele>
        <time>2021-09-12T05:28:05.000Z</time>
      </trkpt>
      <trkpt lat="45.24085" lon="5.74454">
        <ele>1025.5999755859</ele>
        <time>2021-09-12T05:28:06.000Z</time>
      </trkpt>
      <trkpt lat="45.24083" lon="5.7445">
        <ele>1025.4000244141</ele>
        <time>2021-09-12T05:28:08.000Z</time>
      </trkpt>
      <trkpt lat="45.24081" lon="5.74447">
        <ele>1025.1999511719</ele>
        <time>2021-09-12T05:28:10.000Z</time>
      </trkpt>
      <trkpt lat="45.2408" lon="5.74438">
        <ele>1024.5999755859</ele>
        <time>2021-09-12T05:28:13.000Z</time>
      </trkpt>
      <trkpt lat="45.2408" lon="5.74435">
        <ele>1024.4000244141</ele>
        <time>2021-09-12T05:28:14.000Z</time>
      </trkpt>
      <trkpt lat="45.2408" lon="5.74429">
        <ele>1024.1999511719</ele>
        <time>2021-09-12T05:28:16.000Z</time>
      </trkpt>
      <trkpt lat="45.2408" lon="5.74427">
        <ele>1023.799987793</ele>
        <time>2021-09-12T05:28:17.000Z</time>
      </trkpt>
      <trkpt lat="45.2408" lon="5.74424">
        <ele>1023.4000244141</ele>
        <time>2021-09-12T05:28:18.000Z</time>
      </trkpt>
      <trkpt lat="45.2408" lon="5.74415">
        <ele>1022.200012207</ele>
        <time>2021-09-12T05:28:21.000Z</time>
      </trkpt>
      <trkpt lat="45.2408" lon="5.74412">
        <ele>1022</ele>
        <time>2021-09-12T05:28:22.000Z</time>
      </trkpt>
      <trkpt lat="45.24079" lon="5.7441">
        <ele>1021.799987793</ele>
        <time>2021-09-12T05:28:23.000Z</time>
      </trkpt>
      <trkpt lat="45.24079" lon="5.74401">
        <ele>1021</ele>
        <time>2021-09-12T05:28:26.000Z</time>
      </trkpt>
      <trkpt lat="45.24078" lon="5.74392">
        <ele>1020.5999755859</ele>
        <time>2021-09-12T05:28:29.000Z</time>
      </trkpt>
      <trkpt lat="45.24078" lon="5.7439">
        <ele>1020.4000244141</ele>
        <time>2021-09-12T05:28:30.000Z</time>
      </trkpt>
      <trkpt lat="45.24077" lon="5.74387">
        <ele>1020</ele>
        <time>2021-09-12T05:28:31.000Z</time>
      </trkpt>
      <trkpt lat="45.24073" lon="5.74379">
        <ele>1019.5999755859</ele>
        <time>2021-09-12T05:28:34.000Z</time>
      </trkpt>
      <trkpt lat="45.24069" lon="5.74375">
        <ele>1019</ele>
        <time>2021-09-12T05:28:36.000Z</time>
      </trkpt>
      <trkpt lat="45.24065" lon="5.74374">
        <ele>1018.4000244141</ele>
        <time>2021-09-12T05:28:38.000Z</time>
      </trkpt>
      <trkpt lat="45.24064" lon="5.74374">
        <ele>1018.200012207</ele>
        <time>2021-09-12T05:28:39.000Z</time>
      </trkpt>
      <trkpt lat="45.24064" lon="5.74382">
        <ele>1018</ele>
        <time>2021-09-12T05:28:42.000Z</time>
      </trkpt>
      <trkpt lat="45.24064" lon="5.74384">
        <ele>1017.799987793</ele>
        <time>2021-09-12T05:28:43.000Z</time>
      </trkpt>
      <trkpt lat="45.24063" lon="5.74386">
        <ele>1017.5999755859</ele>
        <time>2021-09-12T05:28:44.000Z</time>
      </trkpt>
      <trkpt lat="45.24062" lon="5.74392">
        <ele>1017</ele>
        <time>2021-09-12T05:28:46.000Z</time>
      </trkpt>
      <trkpt lat="45.24062" lon="5.74396">
        <ele>1016.799987793</ele>
        <time>2021-09-12T05:28:47.000Z</time>
      </trkpt>
      <trkpt lat="45.2406" lon="5.74406">
        <ele>1016</ele>
        <time>2021-09-12T05:28:50.000Z</time>
      </trkpt>
      <trkpt lat="45.24059" lon="5.74408">
        <ele>1015.799987793</ele>
        <time>2021-09-12T05:28:51.000Z</time>
      </trkpt>
      <trkpt lat="45.24057" lon="5.74412">
        <ele>1015.4000244141</ele>
        <time>2021-09-12T05:28:52.000Z</time>
      </trkpt>
      <trkpt lat="45.24054" lon="5.74418">
        <ele>1015</ele>
        <time>2021-09-12T05:28:54.000Z</time>
      </trkpt>
      <trkpt lat="45.24052" lon="5.7442">
        <ele>1014.799987793</ele>
        <time>2021-09-12T05:28:55.000Z</time>
      </trkpt>
      <trkpt lat="45.24049" lon="5.74421">
        <ele>1014.799987793</ele>
        <time>2021-09-12T05:28:56.000Z</time>
      </trkpt>
      <trkpt lat="45.24043" lon="5.74423">
        <ele>1014.5999755859</ele>
        <time>2021-09-12T05:28:58.000Z</time>
      </trkpt>
      <trkpt lat="45.24038" lon="5.7443">
        <ele>1014.200012207</ele>
        <time>2021-09-12T05:29:01.000Z</time>
      </trkpt>
      <trkpt lat="45.24034" lon="5.74434">
        <ele>1014.200012207</ele>
        <time>2021-09-12T05:29:03.000Z</time>
      </trkpt>
      <trkpt lat="45.24032" lon="5.74436">
        <ele>1014</ele>
        <time>2021-09-12T05:29:05.000Z</time>
      </trkpt>
      <trkpt lat="45.24029" lon="5.74439">
        <ele>1013.799987793</ele>
        <time>2021-09-12T05:29:07.000Z</time>
      </trkpt>
      <trkpt lat="45.24021" lon="5.74441">
        <ele>1013.4000244141</ele>
        <time>2021-09-12T05:29:10.000Z</time>
      </trkpt>
      <trkpt lat="45.24015" lon="5.74446">
        <ele>1013</ele>
        <time>2021-09-12T05:29:12.000Z</time>
      </trkpt>
      <trkpt lat="45.24012" lon="5.74449">
        <ele>1012.799987793</ele>
        <time>2021-09-12T05:29:14.000Z</time>
      </trkpt>
      <trkpt lat="45.24009" lon="5.74457">
        <ele>1012</ele>
        <time>2021-09-12T05:29:17.000Z</time>
      </trkpt>
      <trkpt lat="45.24007" lon="5.74459">
        <ele>1012</ele>
        <time>2021-09-12T05:29:18.000Z</time>
      </trkpt>
      <trkpt lat="45.24006" lon="5.74461">
        <ele>1012</ele>
        <time>2021-09-12T05:29:19.000Z</time>
      </trkpt>
      <trkpt lat="45.24002" lon="5.74464">
        <ele>1011.5999755859</ele>
        <time>2021-09-12T05:29:21.000Z</time>
      </trkpt>
      <trkpt lat="45.23997" lon="5.74464">
        <ele>1011.200012207</ele>
        <time>2021-09-12T05:29:23.000Z</time>
      </trkpt>
      <trkpt lat="45.23992" lon="5.74467">
        <ele>1010.799987793</ele>
        <time>2021-09-12T05:29:26.000Z</time>
      </trkpt>
      <trkpt lat="45.23991" lon="5.74468">
        <ele>1010.5999755859</ele>
        <time>2021-09-12T05:29:27.000Z</time>
      </trkpt>
      <trkpt lat="45.2399" lon="5.7447">
        <ele>1010.4000244141</ele>
        <time>2021-09-12T05:29:28.000Z</time>
      </trkpt>
      <trkpt lat="45.23989" lon="5.74479">
        <ele>1009.799987793</ele>
        <time>2021-09-12T05:29:31.000Z</time>
      </trkpt>
      <trkpt lat="45.2399" lon="5.74483">
        <ele>1009.5999755859</ele>
        <time>2021-09-12T05:29:32.000Z</time>
      </trkpt>
      <trkpt lat="45.23991" lon="5.74486">
        <ele>1009.4000244141</ele>
        <time>2021-09-12T05:29:33.000Z</time>
      </trkpt>
      <trkpt lat="45.2399" lon="5.74488">
        <ele>1009.200012207</ele>
        <time>2021-09-12T05:29:34.000Z</time>
      </trkpt>
      <trkpt lat="45.23986" lon="5.74491">
        <ele>1008.799987793</ele>
        <time>2021-09-12T05:29:36.000Z</time>
      </trkpt>
      <trkpt lat="45.23981" lon="5.74494">
        <ele>1008.4000244141</ele>
        <time>2021-09-12T05:29:38.000Z</time>
      </trkpt>
      <trkpt lat="45.23979" lon="5.74496">
        <ele>1008.4000244141</ele>
        <time>2021-09-12T05:29:39.000Z</time>
      </trkpt>
      <trkpt lat="45.23978" lon="5.74499">
        <ele>1008.200012207</ele>
        <time>2021-09-12T05:29:40.000Z</time>
      </trkpt>
      <trkpt lat="45.23977" lon="5.74503">
        <ele>1008</ele>
        <time>2021-09-12T05:29:41.000Z</time>
      </trkpt>
      <trkpt lat="45.2397" lon="5.74511">
        <ele>1007.4000244141</ele>
        <time>2021-09-12T05:29:44.000Z</time>
      </trkpt>
      <trkpt lat="45.23967" lon="5.74514">
        <ele>1007.4000244141</ele>
        <time>2021-09-12T05:29:45.000Z</time>
      </trkpt>
      <trkpt lat="45.23959" lon="5.74529">
        <ele>1006.200012207</ele>
        <time>2021-09-12T05:29:49.000Z</time>
      </trkpt>
      <trkpt lat="45.23958" lon="5.74531">
        <ele>1006</ele>
        <time>2021-09-12T05:29:50.000Z</time>
      </trkpt>
      <trkpt lat="45.23956" lon="5.74538">
        <ele>1005.4000244141</ele>
        <time>2021-09-12T05:29:52.000Z</time>
      </trkpt>
      <trkpt lat="45.23955" lon="5.7454">
        <ele>1005.200012207</ele>
        <time>2021-09-12T05:29:53.000Z</time>
      </trkpt>
      <trkpt lat="45.23954" lon="5.74541">
        <ele>1005</ele>
        <time>2021-09-12T05:29:54.000Z</time>
      </trkpt>
      <trkpt lat="45.23953" lon="5.74545">
        <ele>1004.4000244141</ele>
        <time>2021-09-12T05:29:57.000Z</time>
      </trkpt>
      <trkpt lat="45.23954" lon="5.74548">
        <ele>1004.200012207</ele>
        <time>2021-09-12T05:29:58.000Z</time>
      </trkpt>
      <trkpt lat="45.23957" lon="5.74551">
        <ele>1004</ele>
        <time>2021-09-12T05:29:59.000Z</time>
      </trkpt>
      <trkpt lat="45.2396" lon="5.7456">
        <ele>1002.799987793</ele>
        <time>2021-09-12T05:30:03.000Z</time>
      </trkpt>
      <trkpt lat="45.23961" lon="5.74563">
        <ele>1002.200012207</ele>
        <time>2021-09-12T05:30:06.000Z</time>
      </trkpt>
      <trkpt lat="45.23961" lon="5.74564">
        <ele>1002</ele>
        <time>2021-09-12T05:30:07.000Z</time>
      </trkpt>
      <trkpt lat="45.23963" lon="5.74567">
        <ele>1001.799987793</ele>
        <time>2021-09-12T05:30:09.000Z</time>
      </trkpt>
      <trkpt lat="45.23964" lon="5.74569">
        <ele>1001.5999755859</ele>
        <time>2021-09-12T05:30:10.000Z</time>
      </trkpt>
      <trkpt lat="45.23966" lon="5.74572">
        <ele>1001.4000244141</ele>
        <time>2021-09-12T05:30:11.000Z</time>
      </trkpt>
      <trkpt lat="45.23967" lon="5.74578">
        <ele>1001.200012207</ele>
        <time>2021-09-12T05:30:13.000Z</time>
      </trkpt>
      <trkpt lat="45.23969" lon="5.74584">
        <ele>1000.5999755859</ele>
        <time>2021-09-12T05:30:15.000Z</time>
      </trkpt>
      <trkpt lat="45.23969" lon="5.74587">
        <ele>1000.4000244141</ele>
        <time>2021-09-12T05:30:16.000Z</time>
      </trkpt>
      <trkpt lat="45.23969" lon="5.74601">
        <ele>999.59997558594</ele>
        <time>2021-09-12T05:30:19.000Z</time>
      </trkpt>
      <trkpt lat="45.23968" lon="5.74604">
        <ele>999.40002441406</ele>
        <time>2021-09-12T05:30:20.000Z</time>
      </trkpt>
      <trkpt lat="45.23967" lon="5.74608">
        <ele>999</ele>
        <time>2021-09-12T05:30:22.000Z</time>
      </trkpt>
      <trkpt lat="45.23961" lon="5.74609">
        <ele>998.40002441406</ele>
        <time>2021-09-12T05:30:25.000Z</time>
      </trkpt>
      <trkpt lat="45.23959" lon="5.74609">
        <ele>998.20001220703</ele>
        <time>2021-09-12T05:30:26.000Z</time>
      </trkpt>
      <trkpt lat="45.2395" lon="5.74604">
        <ele>997.40002441406</ele>
        <time>2021-09-12T05:30:33.000Z</time>
      </trkpt>
      <trkpt lat="45.23947" lon="5.74603">
        <ele>997.20001220703</ele>
        <time>2021-09-12T05:30:34.000Z</time>
      </trkpt>
      <trkpt lat="45.23935" lon="5.74602">
        <ele>996.59997558594</ele>
        <time>2021-09-12T05:30:38.000Z</time>
      </trkpt>
      <trkpt lat="45.23931" lon="5.74603">
        <ele>996</ele>
        <time>2021-09-12T05:30:40.000Z</time>
      </trkpt>
      <trkpt lat="45.23927" lon="5.74602">
        <ele>995.20001220703</ele>
        <time>2021-09-12T05:30:44.000Z</time>
      </trkpt>
      <trkpt lat="45.23926" lon="5.74602">
        <ele>995</ele>
        <time>2021-09-12T05:30:45.000Z</time>
      </trkpt>
      <trkpt lat="45.23917" lon="5.74599">
        <ele>994</ele>
        <time>2021-09-12T05:30:49.000Z</time>
      </trkpt>
      <trkpt lat="45.23913" lon="5.74599">
        <ele>993.40002441406</ele>
        <time>2021-09-12T05:30:51.000Z</time>
      </trkpt>
      <trkpt lat="45.23904" lon="5.74597">
        <ele>992.79998779297</ele>
        <time>2021-09-12T05:30:54.000Z</time>
      </trkpt>
      <trkpt lat="45.23898" lon="5.74594">
        <ele>991.79998779297</ele>
        <time>2021-09-12T05:30:57.000Z</time>
      </trkpt>
      <trkpt lat="45.23895" lon="5.74596">
        <ele>991.20001220703</ele>
        <time>2021-09-12T05:30:59.000Z</time>
      </trkpt>
      <trkpt lat="45.23891" lon="5.74596">
        <ele>990.79998779297</ele>
        <time>2021-09-12T05:31:01.000Z</time>
      </trkpt>
      <trkpt lat="45.23889" lon="5.74595">
        <ele>990.59997558594</ele>
        <time>2021-09-12T05:31:02.000Z</time>
      </trkpt>
      <trkpt lat="45.23881" lon="5.74594">
        <ele>989.59997558594</ele>
        <time>2021-09-12T05:31:06.000Z</time>
      </trkpt>
      <trkpt lat="45.23878" lon="5.74594">
        <ele>989.20001220703</ele>
        <time>2021-09-12T05:31:08.000Z</time>
      </trkpt>
      <trkpt lat="45.23874" lon="5.74595">
        <ele>988.59997558594</ele>
        <time>2021-09-12T05:31:10.000Z</time>
      </trkpt>
      <trkpt lat="45.23869" lon="5.74596">
        <ele>988</ele>
        <time>2021-09-12T05:31:12.000Z</time>
      </trkpt>
      <trkpt lat="45.23859" lon="5.74596">
        <ele>987.20001220703</ele>
        <time>2021-09-12T05:31:14.000Z</time>
      </trkpt>
      <trkpt lat="45.23848" lon="5.74597">
        <ele>986.20001220703</ele>
        <time>2021-09-12T05:31:17.000Z</time>
      </trkpt>
      <trkpt lat="45.23844" lon="5.74597">
        <ele>986</ele>
        <time>2021-09-12T05:31:18.000Z</time>
      </trkpt>
      <trkpt lat="45.23834" lon="5.74599">
        <ele>985</ele>
        <time>2021-09-12T05:31:21.000Z</time>
      </trkpt>
      <trkpt lat="45.23831" lon="5.74599">
        <ele>985</ele>
        <time>2021-09-12T05:31:22.000Z</time>
      </trkpt>
      <trkpt lat="45.23821" lon="5.74597">
        <ele>983.79998779297</ele>
        <time>2021-09-12T05:31:26.000Z</time>
      </trkpt>
      <trkpt lat="45.23819" lon="5.74596">
        <ele>983.59997558594</ele>
        <time>2021-09-12T05:31:27.000Z</time>
      </trkpt>
      <trkpt lat="45.23814" lon="5.74595">
        <ele>982.79998779297</ele>
        <time>2021-09-12T05:31:29.000Z</time>
      </trkpt>
      <trkpt lat="45.23814" lon="5.74594">
        <ele>982.59997558594</ele>
        <time>2021-09-12T05:31:30.000Z</time>
      </trkpt>
      <trkpt lat="45.23813" lon="5.74594">
        <ele>982.40002441406</ele>
        <time>2021-09-12T05:31:31.000Z</time>
      </trkpt>
      <trkpt lat="45.2381" lon="5.74592">
        <ele>982</ele>
        <time>2021-09-12T05:31:33.000Z</time>
      </trkpt>
      <trkpt lat="45.23805" lon="5.74589">
        <ele>981.59997558594</ele>
        <time>2021-09-12T05:31:35.000Z</time>
      </trkpt>
      <trkpt lat="45.23802" lon="5.74587">
        <ele>981</ele>
        <time>2021-09-12T05:31:37.000Z</time>
      </trkpt>
      <trkpt lat="45.23796" lon="5.74584">
        <ele>980.40002441406</ele>
        <time>2021-09-12T05:31:40.000Z</time>
      </trkpt>
      <trkpt lat="45.23787" lon="5.7458">
        <ele>980.20001220703</ele>
        <time>2021-09-12T05:31:43.000Z</time>
      </trkpt>
      <trkpt lat="45.23774" lon="5.74569">
        <ele>980.59997558594</ele>
        <time>2021-09-12T05:31:49.000Z</time>
      </trkpt>
      <trkpt lat="45.2377" lon="5.74565">
        <ele>980.59997558594</ele>
        <time>2021-09-12T05:31:51.000Z</time>
      </trkpt>
      <trkpt lat="45.23757" lon="5.74561">
        <ele>980.79998779297</ele>
        <time>2021-09-12T05:31:56.000Z</time>
      </trkpt>
      <trkpt lat="45.23755" lon="5.74561">
        <ele>980.79998779297</ele>
        <time>2021-09-12T05:31:57.000Z</time>
      </trkpt>
      <trkpt lat="45.23751" lon="5.74564">
        <ele>980.79998779297</ele>
        <time>2021-09-12T05:32:00.000Z</time>
      </trkpt>
      <trkpt lat="45.2375" lon="5.74567">
        <ele>981</ele>
        <time>2021-09-12T05:32:01.000Z</time>
      </trkpt>
      <trkpt lat="45.23748" lon="5.74571">
        <ele>981.20001220703</ele>
        <time>2021-09-12T05:32:03.000Z</time>
      </trkpt>
      <trkpt lat="45.23747" lon="5.74571">
        <ele>981.59997558594</ele>
        <time>2021-09-12T05:32:04.000Z</time>
      </trkpt>
      <trkpt lat="45.23742" lon="5.74574">
        <ele>981.79998779297</ele>
        <time>2021-09-12T05:32:06.000Z</time>
      </trkpt>
      <trkpt lat="45.2374" lon="5.74576">
        <ele>981.79998779297</ele>
        <time>2021-09-12T05:32:07.000Z</time>
      </trkpt>
      <trkpt lat="45.23734" lon="5.74583">
        <ele>982.20001220703</ele>
        <time>2021-09-12T05:32:11.000Z</time>
      </trkpt>
      <trkpt lat="45.23733" lon="5.74584">
        <ele>982.59997558594</ele>
        <time>2021-09-12T05:32:12.000Z</time>
      </trkpt>
      <trkpt lat="45.2373" lon="5.74585">
        <ele>982.79998779297</ele>
        <time>2021-09-12T05:32:13.000Z</time>
      </trkpt>
      <trkpt lat="45.23726" lon="5.74587">
        <ele>983</ele>
        <time>2021-09-12T05:32:15.000Z</time>
      </trkpt>
      <trkpt lat="45.23722" lon="5.74589">
        <ele>983.59997558594</ele>
        <time>2021-09-12T05:32:17.000Z</time>
      </trkpt>
      <trkpt lat="45.23721" lon="5.7459">
        <ele>984</ele>
        <time>2021-09-12T05:32:18.000Z</time>
      </trkpt>
      <trkpt lat="45.23719" lon="5.7459">
        <ele>984.20001220703</ele>
        <time>2021-09-12T05:32:19.000Z</time>
      </trkpt>
      <trkpt lat="45.23714" lon="5.74589">
        <ele>984.79998779297</ele>
        <time>2021-09-12T05:32:22.000Z</time>
      </trkpt>
      <trkpt lat="45.23714" lon="5.7459">
        <ele>985</ele>
        <time>2021-09-12T05:32:23.000Z</time>
      </trkpt>
      <trkpt lat="45.23708" lon="5.74589">
        <ele>985.20001220703</ele>
        <time>2021-09-12T05:32:25.000Z</time>
      </trkpt>
      <trkpt lat="45.23699" lon="5.74589">
        <ele>986</ele>
        <time>2021-09-12T05:32:29.000Z</time>
      </trkpt>
      <trkpt lat="45.23695" lon="5.74588">
        <ele>986.40002441406</ele>
        <time>2021-09-12T05:32:31.000Z</time>
      </trkpt>
      <trkpt lat="45.23689" lon="5.74588">
        <ele>986.59997558594</ele>
        <time>2021-09-12T05:32:33.000Z</time>
      </trkpt>
      <trkpt lat="45.23686" lon="5.74587">
        <ele>987</ele>
        <time>2021-09-12T05:32:35.000Z</time>
      </trkpt>
      <trkpt lat="45.23685" lon="5.74586">
        <ele>987.20001220703</ele>
        <time>2021-09-12T05:32:36.000Z</time>
      </trkpt>
      <trkpt lat="45.23682" lon="5.74586">
        <ele>987.59997558594</ele>
        <time>2021-09-12T05:32:38.000Z</time>
      </trkpt>
      <trkpt lat="45.23677" lon="5.74587">
        <ele>988</ele>
        <time>2021-09-12T05:32:41.000Z</time>
      </trkpt>
      <trkpt lat="45.23676" lon="5.74588">
        <ele>988.20001220703</ele>
        <time>2021-09-12T05:32:42.000Z</time>
      </trkpt>
      <trkpt lat="45.23668" lon="5.74593">
        <ele>988.79998779297</ele>
        <time>2021-09-12T05:32:46.000Z</time>
      </trkpt>
      <trkpt lat="45.23665" lon="5.74596">
        <ele>989.40002441406</ele>
        <time>2021-09-12T05:32:49.000Z</time>
      </trkpt>
      <trkpt lat="45.23663" lon="5.74598">
        <ele>989.79998779297</ele>
        <time>2021-09-12T05:32:51.000Z</time>
      </trkpt>
      <trkpt lat="45.23657" lon="5.74603">
        <ele>990.40002441406</ele>
        <time>2021-09-12T05:32:54.000Z</time>
      </trkpt>
      <trkpt lat="45.23655" lon="5.74605">
        <ele>990.40002441406</ele>
        <time>2021-09-12T05:32:55.000Z</time>
      </trkpt>
      <trkpt lat="45.23646" lon="5.74608">
        <ele>991</ele>
        <time>2021-09-12T05:32:59.000Z</time>
      </trkpt>
      <trkpt lat="45.23643" lon="5.7461">
        <ele>991.40002441406</ele>
        <time>2021-09-12T05:33:01.000Z</time>
      </trkpt>
      <trkpt lat="45.23638" lon="5.74613">
        <ele>991.79998779297</ele>
        <time>2021-09-12T05:33:03.000Z</time>
      </trkpt>
      <trkpt lat="45.23634" lon="5.74616">
        <ele>992.20001220703</ele>
        <time>2021-09-12T05:33:05.000Z</time>
      </trkpt>
      <trkpt lat="45.23629" lon="5.74616">
        <ele>992.40002441406</ele>
        <time>2021-09-12T05:33:07.000Z</time>
      </trkpt>
      <trkpt lat="45.23625" lon="5.74616">
        <ele>993</ele>
        <time>2021-09-12T05:33:09.000Z</time>
      </trkpt>
      <trkpt lat="45.23619" lon="5.74616">
        <ele>993.59997558594</ele>
        <time>2021-09-12T05:33:12.000Z</time>
      </trkpt>
      <trkpt lat="45.23615" lon="5.74612">
        <ele>993.79998779297</ele>
        <time>2021-09-12T05:33:14.000Z</time>
      </trkpt>
      <trkpt lat="45.23604" lon="5.74598">
        <ele>994.79998779297</ele>
        <time>2021-09-12T05:33:20.000Z</time>
      </trkpt>
      <trkpt lat="45.23599" lon="5.74588">
        <ele>996</ele>
        <time>2021-09-12T05:33:25.000Z</time>
      </trkpt>
      <trkpt lat="45.23597" lon="5.74582">
        <ele>996.40002441406</ele>
        <time>2021-09-12T05:33:28.000Z</time>
      </trkpt>
      <trkpt lat="45.23594" lon="5.74576">
        <ele>997</ele>
        <time>2021-09-12T05:33:31.000Z</time>
      </trkpt>
      <trkpt lat="45.23591" lon="5.74568">
        <ele>997.59997558594</ele>
        <time>2021-09-12T05:33:34.000Z</time>
      </trkpt>
      <trkpt lat="45.23587" lon="5.74558">
        <ele>998</ele>
        <time>2021-09-12T05:33:38.000Z</time>
      </trkpt>
      <trkpt lat="45.23578" lon="5.7455">
        <ele>999</ele>
        <time>2021-09-12T05:33:42.000Z</time>
      </trkpt>
      <trkpt lat="45.23576" lon="5.74548">
        <ele>999</ele>
        <time>2021-09-12T05:33:43.000Z</time>
      </trkpt>
      <trkpt lat="45.23573" lon="5.74539">
        <ele>999.59997558594</ele>
        <time>2021-09-12T05:33:48.000Z</time>
      </trkpt>
      <trkpt lat="45.23566" lon="5.74525">
        <ele>1000.200012207</ele>
        <time>2021-09-12T05:33:53.000Z</time>
      </trkpt>
      <trkpt lat="45.23563" lon="5.74521">
        <ele>1000.4000244141</ele>
        <time>2021-09-12T05:33:55.000Z</time>
      </trkpt>
      <trkpt lat="45.23555" lon="5.74516">
        <ele>1001.200012207</ele>
        <time>2021-09-12T05:34:00.000Z</time>
      </trkpt>
      <trkpt lat="45.23554" lon="5.74515">
        <ele>1001.4000244141</ele>
        <time>2021-09-12T05:34:01.000Z</time>
      </trkpt>
      <trkpt lat="45.23551" lon="5.74513">
        <ele>1002</ele>
        <time>2021-09-12T05:34:03.000Z</time>
      </trkpt>
      <trkpt lat="45.23549" lon="5.74513">
        <ele>1002.200012207</ele>
        <time>2021-09-12T05:34:04.000Z</time>
      </trkpt>
      <trkpt lat="45.23548" lon="5.74513">
        <ele>1002.4000244141</ele>
        <time>2021-09-12T05:34:05.000Z</time>
      </trkpt>
      <trkpt lat="45.23544" lon="5.74513">
        <ele>1002.799987793</ele>
        <time>2021-09-12T05:34:07.000Z</time>
      </trkpt>
      <trkpt lat="45.23542" lon="5.74514">
        <ele>1003</ele>
        <time>2021-09-12T05:34:08.000Z</time>
      </trkpt>
      <trkpt lat="45.23538" lon="5.74514">
        <ele>1003.5999755859</ele>
        <time>2021-09-12T05:34:10.000Z</time>
      </trkpt>
      <trkpt lat="45.23536" lon="5.74514">
        <ele>1004</ele>
        <time>2021-09-12T05:34:12.000Z</time>
      </trkpt>
      <trkpt lat="45.23528" lon="5.74511">
        <ele>1005</ele>
        <time>2021-09-12T05:34:16.000Z</time>
      </trkpt>
      <trkpt lat="45.23526" lon="5.74508">
        <ele>1005.4000244141</ele>
        <time>2021-09-12T05:34:18.000Z</time>
      </trkpt>
      <trkpt lat="45.23524" lon="5.74507">
        <ele>1005.5999755859</ele>
        <time>2021-09-12T05:34:19.000Z</time>
      </trkpt>
      <trkpt lat="45.23518" lon="5.74504">
        <ele>1006.200012207</ele>
        <time>2021-09-12T05:34:23.000Z</time>
      </trkpt>
      <trkpt lat="45.23518" lon="5.74504">
        <ele>1006.4000244141</ele>
        <time>2021-09-12T05:34:24.000Z</time>
      </trkpt>
      <trkpt lat="45.23518" lon="5.74506">
        <ele>1006.5999755859</ele>
        <time>2021-09-12T05:34:26.000Z</time>
      </trkpt>
      <trkpt lat="45.23519" lon="5.74511">
        <ele>1006.4000244141</ele>
        <time>2021-09-12T05:34:30.000Z</time>
      </trkpt>
      <trkpt lat="45.23519" lon="5.74518">
        <ele>1005.799987793</ele>
        <time>2021-09-12T05:34:33.000Z</time>
      </trkpt>
      <trkpt lat="45.23517" lon="5.74538">
        <ele>1005.4000244141</ele>
        <time>2021-09-12T05:34:40.000Z</time>
      </trkpt>
      <trkpt lat="45.23518" lon="5.74543">
        <ele>1005.4000244141</ele>
        <time>2021-09-12T05:34:42.000Z</time>
      </trkpt>
      <trkpt lat="45.23518" lon="5.74546">
        <ele>1005.200012207</ele>
        <time>2021-09-12T05:34:43.000Z</time>
      </trkpt>
      <trkpt lat="45.23517" lon="5.74549">
        <ele>1005.200012207</ele>
        <time>2021-09-12T05:34:44.000Z</time>
      </trkpt>
      <trkpt lat="45.23517" lon="5.74552">
        <ele>1004.799987793</ele>
        <time>2021-09-12T05:34:45.000Z</time>
      </trkpt>
      <trkpt lat="45.23515" lon="5.74563">
        <ele>1003.5999755859</ele>
        <time>2021-09-12T05:34:48.000Z</time>
      </trkpt>
      <trkpt lat="45.23514" lon="5.74577">
        <ele>1002.799987793</ele>
        <time>2021-09-12T05:34:53.000Z</time>
      </trkpt>
      <trkpt lat="45.23513" lon="5.7458">
        <ele>1002.5999755859</ele>
        <time>2021-09-12T05:34:54.000Z</time>
      </trkpt>
      <trkpt lat="45.2351" lon="5.74587">
        <ele>1002.4000244141</ele>
        <time>2021-09-12T05:34:57.000Z</time>
      </trkpt>
      <trkpt lat="45.23507" lon="5.74591">
        <ele>1002.4000244141</ele>
        <time>2021-09-12T05:34:59.000Z</time>
      </trkpt>
      <trkpt lat="45.23502" lon="5.74598">
        <ele>1001.799987793</ele>
        <time>2021-09-12T05:35:03.000Z</time>
      </trkpt>
      <trkpt lat="45.23501" lon="5.74599">
        <ele>1001.5999755859</ele>
        <time>2021-09-12T05:35:04.000Z</time>
      </trkpt>
      <trkpt lat="45.23501" lon="5.74601">
        <ele>1001.200012207</ele>
        <time>2021-09-12T05:35:05.000Z</time>
      </trkpt>
      <trkpt lat="45.23501" lon="5.74602">
        <ele>1001</ele>
        <time>2021-09-12T05:35:06.000Z</time>
      </trkpt>
      <trkpt lat="45.235" lon="5.74604">
        <ele>1000.5999755859</ele>
        <time>2021-09-12T05:35:07.000Z</time>
      </trkpt>
      <trkpt lat="45.235" lon="5.74606">
        <ele>1000.4000244141</ele>
        <time>2021-09-12T05:35:08.000Z</time>
      </trkpt>
      <trkpt lat="45.23499" lon="5.74608">
        <ele>1000</ele>
        <time>2021-09-12T05:35:09.000Z</time>
      </trkpt>
      <trkpt lat="45.23496" lon="5.7461">
        <ele>999</ele>
        <time>2021-09-12T05:35:11.000Z</time>
      </trkpt>
      <trkpt lat="45.23489" lon="5.74614">
        <ele>997.79998779297</ele>
        <time>2021-09-12T05:35:14.000Z</time>
      </trkpt>
      <trkpt lat="45.23484" lon="5.74615">
        <ele>997.40002441406</ele>
        <time>2021-09-12T05:35:16.000Z</time>
      </trkpt>
      <trkpt lat="45.23481" lon="5.74613">
        <ele>997</ele>
        <time>2021-09-12T05:35:17.000Z</time>
      </trkpt>
      <trkpt lat="45.2348" lon="5.74612">
        <ele>996.59997558594</ele>
        <time>2021-09-12T05:35:18.000Z</time>
      </trkpt>
      <trkpt lat="45.23473" lon="5.74605">
        <ele>996.20001220703</ele>
        <time>2021-09-12T05:35:23.000Z</time>
      </trkpt>
      <trkpt lat="45.2347" lon="5.74602">
        <ele>995.40002441406</ele>
        <time>2021-09-12T05:35:26.000Z</time>
      </trkpt>
      <trkpt lat="45.23468" lon="5.74601">
        <ele>994.59997558594</ele>
        <time>2021-09-12T05:35:28.000Z</time>
      </trkpt>
      <trkpt lat="45.23466" lon="5.746">
        <ele>994.40002441406</ele>
        <time>2021-09-12T05:35:29.000Z</time>
      </trkpt>
      <trkpt lat="45.23465" lon="5.74599">
        <ele>994.20001220703</ele>
        <time>2021-09-12T05:35:30.000Z</time>
      </trkpt>
      <trkpt lat="45.23463" lon="5.74597">
        <ele>993.20001220703</ele>
        <time>2021-09-12T05:35:32.000Z</time>
      </trkpt>
      <trkpt lat="45.23462" lon="5.74597">
        <ele>993</ele>
        <time>2021-09-12T05:35:33.000Z</time>
      </trkpt>
      <trkpt lat="45.23459" lon="5.74594">
        <ele>992.40002441406</ele>
        <time>2021-09-12T05:35:36.000Z</time>
      </trkpt>
      <trkpt lat="45.23458" lon="5.74594">
        <ele>992.20001220703</ele>
        <time>2021-09-12T05:35:37.000Z</time>
      </trkpt>
      <trkpt lat="45.23456" lon="5.74594">
        <ele>991.59997558594</ele>
        <time>2021-09-12T05:35:38.000Z</time>
      </trkpt>
      <trkpt lat="45.23455" lon="5.74593">
        <ele>991.20001220703</ele>
        <time>2021-09-12T05:35:39.000Z</time>
      </trkpt>
      <trkpt lat="45.23451" lon="5.7459">
        <ele>990.40002441406</ele>
        <time>2021-09-12T05:35:41.000Z</time>
      </trkpt>
      <trkpt lat="45.23447" lon="5.74587">
        <ele>989.20001220703</ele>
        <time>2021-09-12T05:35:44.000Z</time>
      </trkpt>
      <trkpt lat="45.23446" lon="5.74587">
        <ele>988.79998779297</ele>
        <time>2021-09-12T05:35:45.000Z</time>
      </trkpt>
      <trkpt lat="45.23444" lon="5.74587">
        <ele>988.59997558594</ele>
        <time>2021-09-12T05:35:47.000Z</time>
      </trkpt>
      <trkpt lat="45.23442" lon="5.74588">
        <ele>987.79998779297</ele>
        <time>2021-09-12T05:35:48.000Z</time>
      </trkpt>
      <trkpt lat="45.2344" lon="5.7459">
        <ele>986.79998779297</ele>
        <time>2021-09-12T05:35:51.000Z</time>
      </trkpt>
      <trkpt lat="45.23438" lon="5.7459">
        <ele>986.40002441406</ele>
        <time>2021-09-12T05:35:52.000Z</time>
      </trkpt>
      <trkpt lat="45.23437" lon="5.74591">
        <ele>986</ele>
        <time>2021-09-12T05:35:53.000Z</time>
      </trkpt>
      <trkpt lat="45.23433" lon="5.74593">
        <ele>985.59997558594</ele>
        <time>2021-09-12T05:35:54.000Z</time>
      </trkpt>
      <trkpt lat="45.23428" lon="5.74594">
        <ele>984.40002441406</ele>
        <time>2021-09-12T05:35:56.000Z</time>
      </trkpt>
      <trkpt lat="45.23427" lon="5.74595">
        <ele>984.20001220703</ele>
        <time>2021-09-12T05:35:57.000Z</time>
      </trkpt>
      <trkpt lat="45.23423" lon="5.74597">
        <ele>983.40002441406</ele>
        <time>2021-09-12T05:36:00.000Z</time>
      </trkpt>
      <trkpt lat="45.23419" lon="5.74594">
        <ele>983</ele>
        <time>2021-09-12T05:36:02.000Z</time>
      </trkpt>
      <trkpt lat="45.23413" lon="5.74589">
        <ele>982.79998779297</ele>
        <time>2021-09-12T05:36:05.000Z</time>
      </trkpt>
      <trkpt lat="45.23407" lon="5.74588">
        <ele>982.59997558594</ele>
        <time>2021-09-12T05:36:07.000Z</time>
      </trkpt>
      <trkpt lat="45.23405" lon="5.74588">
        <ele>982.59997558594</ele>
        <time>2021-09-12T05:36:08.000Z</time>
      </trkpt>
      <trkpt lat="45.23398" lon="5.74587">
        <ele>982.20001220703</ele>
        <time>2021-09-12T05:36:11.000Z</time>
      </trkpt>
      <trkpt lat="45.23389" lon="5.74585">
        <ele>981.20001220703</ele>
        <time>2021-09-12T05:36:15.000Z</time>
      </trkpt>
      <trkpt lat="45.23379" lon="5.74581">
        <ele>980</ele>
        <time>2021-09-12T05:36:19.000Z</time>
      </trkpt>
      <trkpt lat="45.23376" lon="5.74579">
        <ele>979.79998779297</ele>
        <time>2021-09-12T05:36:20.000Z</time>
      </trkpt>
      <trkpt lat="45.23366" lon="5.74575">
        <ele>979.20001220703</ele>
        <time>2021-09-12T05:36:24.000Z</time>
      </trkpt>
      <trkpt lat="45.23363" lon="5.74573">
        <ele>979</ele>
        <time>2021-09-12T05:36:25.000Z</time>
      </trkpt>
      <trkpt lat="45.23361" lon="5.7457">
        <ele>978.79998779297</ele>
        <time>2021-09-12T05:36:26.000Z</time>
      </trkpt>
      <trkpt lat="45.23357" lon="5.74566">
        <ele>978.40002441406</ele>
        <time>2021-09-12T05:36:28.000Z</time>
      </trkpt>
      <trkpt lat="45.2335" lon="5.74562">
        <ele>978</ele>
        <time>2021-09-12T05:36:31.000Z</time>
      </trkpt>
      <trkpt lat="45.23347" lon="5.7456">
        <ele>977.79998779297</ele>
        <time>2021-09-12T05:36:32.000Z</time>
      </trkpt>
      <trkpt lat="45.23335" lon="5.74552">
        <ele>976.59997558594</ele>
        <time>2021-09-12T05:36:37.000Z</time>
      </trkpt>
      <trkpt lat="45.23332" lon="5.74551">
        <ele>976.20001220703</ele>
        <time>2021-09-12T05:36:39.000Z</time>
      </trkpt>
      <trkpt lat="45.23324" lon="5.74551">
        <ele>975.59997558594</ele>
        <time>2021-09-12T05:36:42.000Z</time>
      </trkpt>
      <trkpt lat="45.23323" lon="5.7455">
        <ele>975.40002441406</ele>
        <time>2021-09-12T05:36:43.000Z</time>
      </trkpt>
      <trkpt lat="45.2332" lon="5.74548">
        <ele>974.59997558594</ele>
        <time>2021-09-12T05:36:45.000Z</time>
      </trkpt>
      <trkpt lat="45.23316" lon="5.74546">
        <ele>973.40002441406</ele>
        <time>2021-09-12T05:36:48.000Z</time>
      </trkpt>
      <trkpt lat="45.23315" lon="5.74545">
        <ele>973</ele>
        <time>2021-09-12T05:36:49.000Z</time>
      </trkpt>
      <trkpt lat="45.23314" lon="5.74545">
        <ele>972.20001220703</ele>
        <time>2021-09-12T05:36:51.000Z</time>
      </trkpt>
      <trkpt lat="45.23313" lon="5.74544">
        <ele>971.79998779297</ele>
        <time>2021-09-12T05:36:52.000Z</time>
      </trkpt>
      <trkpt lat="45.23312" lon="5.74543">
        <ele>971.20001220703</ele>
        <time>2021-09-12T05:36:54.000Z</time>
      </trkpt>
      <trkpt lat="45.23309" lon="5.74541">
        <ele>970.20001220703</ele>
        <time>2021-09-12T05:36:57.000Z</time>
      </trkpt>
      <trkpt lat="45.23307" lon="5.74539">
        <ele>969</ele>
        <time>2021-09-12T05:36:59.000Z</time>
      </trkpt>
      <trkpt lat="45.23306" lon="5.74538">
        <ele>968</ele>
        <time>2021-09-12T05:37:01.000Z</time>
      </trkpt>
      <trkpt lat="45.23304" lon="5.74538">
        <ele>967.20001220703</ele>
        <time>2021-09-12T05:37:03.000Z</time>
      </trkpt>
      <trkpt lat="45.23303" lon="5.74539">
        <ele>967</ele>
        <time>2021-09-12T05:37:04.000Z</time>
      </trkpt>
      <trkpt lat="45.23299" lon="5.74537">
        <ele>965.79998779297</ele>
        <time>2021-09-12T05:37:07.000Z</time>
      </trkpt>
      <trkpt lat="45.23294" lon="5.74536">
        <ele>964.40002441406</ele>
        <time>2021-09-12T05:37:10.000Z</time>
      </trkpt>
      <trkpt lat="45.23291" lon="5.74536">
        <ele>963.59997558594</ele>
        <time>2021-09-12T05:37:12.000Z</time>
      </trkpt>
      <trkpt lat="45.2329" lon="5.74535">
        <ele>963.40002441406</ele>
        <time>2021-09-12T05:37:13.000Z</time>
      </trkpt>
      <trkpt lat="45.23287" lon="5.74533">
        <ele>962.40002441406</ele>
        <time>2021-09-12T05:37:15.000Z</time>
      </trkpt>
      <trkpt lat="45.23284" lon="5.74531">
        <ele>962</ele>
        <time>2021-09-12T05:37:17.000Z</time>
      </trkpt>
      <trkpt lat="45.23281" lon="5.74529">
        <ele>961.20001220703</ele>
        <time>2021-09-12T05:37:19.000Z</time>
      </trkpt>
      <trkpt lat="45.2328" lon="5.74528">
        <ele>960.79998779297</ele>
        <time>2021-09-12T05:37:20.000Z</time>
      </trkpt>
      <trkpt lat="45.23278" lon="5.74527">
        <ele>960.40002441406</ele>
        <time>2021-09-12T05:37:21.000Z</time>
      </trkpt>
      <trkpt lat="45.23276" lon="5.74526">
        <ele>959.59997558594</ele>
        <time>2021-09-12T05:37:23.000Z</time>
      </trkpt>
      <trkpt lat="45.23271" lon="5.74523">
        <ele>958.59997558594</ele>
        <time>2021-09-12T05:37:27.000Z</time>
      </trkpt>
      <trkpt lat="45.23269" lon="5.74523">
        <ele>958</ele>
        <time>2021-09-12T05:37:28.000Z</time>
      </trkpt>
      <trkpt lat="45.23268" lon="5.7452">
        <ele>957</ele>
        <time>2021-09-12T05:37:30.000Z</time>
      </trkpt>
      <trkpt lat="45.23267" lon="5.7452">
        <ele>956.59997558594</ele>
        <time>2021-09-12T05:37:31.000Z</time>
      </trkpt>
      <trkpt lat="45.23264" lon="5.74517">
        <ele>955.79998779297</ele>
        <time>2021-09-12T05:37:34.000Z</time>
      </trkpt>
      <trkpt lat="45.23263" lon="5.74517">
        <ele>955.20001220703</ele>
        <time>2021-09-12T05:37:35.000Z</time>
      </trkpt>
      <trkpt lat="45.23261" lon="5.74516">
        <ele>954.40002441406</ele>
        <time>2021-09-12T05:37:37.000Z</time>
      </trkpt>
      <trkpt lat="45.23258" lon="5.74514">
        <ele>953.40002441406</ele>
        <time>2021-09-12T05:37:40.000Z</time>
      </trkpt>
      <trkpt lat="45.23253" lon="5.74513">
        <ele>952.20001220703</ele>
        <time>2021-09-12T05:37:43.000Z</time>
      </trkpt>
      <trkpt lat="45.23252" lon="5.74514">
        <ele>951.59997558594</ele>
        <time>2021-09-12T05:37:44.000Z</time>
      </trkpt>
      <trkpt lat="45.23251" lon="5.74514">
        <ele>951.40002441406</ele>
        <time>2021-09-12T05:37:45.000Z</time>
      </trkpt>
      <trkpt lat="45.2325" lon="5.74514">
        <ele>950.79998779297</ele>
        <time>2021-09-12T05:37:46.000Z</time>
      </trkpt>
      <trkpt lat="45.23247" lon="5.74514">
        <ele>950.20001220703</ele>
        <time>2021-09-12T05:37:48.000Z</time>
      </trkpt>
      <trkpt lat="45.23246" lon="5.74513">
        <ele>949.59997558594</ele>
        <time>2021-09-12T05:37:49.000Z</time>
      </trkpt>
      <trkpt lat="45.23244" lon="5.74512">
        <ele>949.20001220703</ele>
        <time>2021-09-12T05:37:50.000Z</time>
      </trkpt>
      <trkpt lat="45.23243" lon="5.74511">
        <ele>949</ele>
        <time>2021-09-12T05:37:51.000Z</time>
      </trkpt>
      <trkpt lat="45.23241" lon="5.74511">
        <ele>948.59997558594</ele>
        <time>2021-09-12T05:37:52.000Z</time>
      </trkpt>
      <trkpt lat="45.23236" lon="5.74511">
        <ele>947.40002441406</ele>
        <time>2021-09-12T05:37:55.000Z</time>
      </trkpt>
      <trkpt lat="45.23229" lon="5.74509">
        <ele>946.40002441406</ele>
        <time>2021-09-12T05:37:58.000Z</time>
      </trkpt>
      <trkpt lat="45.23227" lon="5.74508">
        <ele>946</ele>
        <time>2021-09-12T05:37:59.000Z</time>
      </trkpt>
      <trkpt lat="45.23223" lon="5.74506">
        <ele>945.20001220703</ele>
        <time>2021-09-12T05:38:01.000Z</time>
      </trkpt>
      <trkpt lat="45.23221" lon="5.74506">
        <ele>944.79998779297</ele>
        <time>2021-09-12T05:38:02.000Z</time>
      </trkpt>
      <trkpt lat="45.23216" lon="5.74506">
        <ele>944</ele>
        <time>2021-09-12T05:38:05.000Z</time>
      </trkpt>
      <trkpt lat="45.23214" lon="5.74506">
        <ele>943.59997558594</ele>
        <time>2021-09-12T05:38:06.000Z</time>
      </trkpt>
      <trkpt lat="45.23212" lon="5.74505">
        <ele>942.79998779297</ele>
        <time>2021-09-12T05:38:08.000Z</time>
      </trkpt>
      <trkpt lat="45.23212" lon="5.74504">
        <ele>942.40002441406</ele>
        <time>2021-09-12T05:38:09.000Z</time>
      </trkpt>
      <trkpt lat="45.23211" lon="5.74503">
        <ele>942</ele>
        <time>2021-09-12T05:38:10.000Z</time>
      </trkpt>
      <trkpt lat="45.23209" lon="5.74502">
        <ele>941.40002441406</ele>
        <time>2021-09-12T05:38:12.000Z</time>
      </trkpt>
      <trkpt lat="45.23203" lon="5.74496">
        <ele>940.20001220703</ele>
        <time>2021-09-12T05:38:16.000Z</time>
      </trkpt>
      <trkpt lat="45.23201" lon="5.74494">
        <ele>939.59997558594</ele>
        <time>2021-09-12T05:38:18.000Z</time>
      </trkpt>
      <trkpt lat="45.23198" lon="5.74492">
        <ele>939</ele>
        <time>2021-09-12T05:38:20.000Z</time>
      </trkpt>
      <trkpt lat="45.23196" lon="5.7449">
        <ele>938.20001220703</ele>
        <time>2021-09-12T05:38:22.000Z</time>
      </trkpt>
      <trkpt lat="45.23194" lon="5.74489">
        <ele>937.79998779297</ele>
        <time>2021-09-12T05:38:23.000Z</time>
      </trkpt>
      <trkpt lat="45.2319" lon="5.74487">
        <ele>937.20001220703</ele>
        <time>2021-09-12T05:38:25.000Z</time>
      </trkpt>
      <trkpt lat="45.23187" lon="5.74485">
        <ele>936.59997558594</ele>
        <time>2021-09-12T05:38:27.000Z</time>
      </trkpt>
      <trkpt lat="45.23184" lon="5.74482">
        <ele>936</ele>
        <time>2021-09-12T05:38:29.000Z</time>
      </trkpt>
      <trkpt lat="45.23183" lon="5.74481">
        <ele>935.59997558594</ele>
        <time>2021-09-12T05:38:30.000Z</time>
      </trkpt>
      <trkpt lat="45.23178" lon="5.74478">
        <ele>934.40002441406</ele>
        <time>2021-09-12T05:38:34.000Z</time>
      </trkpt>
      <trkpt lat="45.23175" lon="5.74476">
        <ele>933.40002441406</ele>
        <time>2021-09-12T05:38:36.000Z</time>
      </trkpt>
      <trkpt lat="45.23174" lon="5.74476">
        <ele>932.79998779297</ele>
        <time>2021-09-12T05:38:37.000Z</time>
      </trkpt>
      <trkpt lat="45.23169" lon="5.74475">
        <ele>931.79998779297</ele>
        <time>2021-09-12T05:38:40.000Z</time>
      </trkpt>
      <trkpt lat="45.23166" lon="5.74474">
        <ele>931</ele>
        <time>2021-09-12T05:38:42.000Z</time>
      </trkpt>
      <trkpt lat="45.23164" lon="5.74473">
        <ele>930.40002441406</ele>
        <time>2021-09-12T05:38:43.000Z</time>
      </trkpt>
      <trkpt lat="45.2316" lon="5.74473">
        <ele>929.40002441406</ele>
        <time>2021-09-12T05:38:45.000Z</time>
      </trkpt>
      <trkpt lat="45.23157" lon="5.74473">
        <ele>928.79998779297</ele>
        <time>2021-09-12T05:38:46.000Z</time>
      </trkpt>
      <trkpt lat="45.23153" lon="5.74473">
        <ele>928.20001220703</ele>
        <time>2021-09-12T05:38:48.000Z</time>
      </trkpt>
      <trkpt lat="45.23152" lon="5.74472">
        <ele>927.79998779297</ele>
        <time>2021-09-12T05:38:49.000Z</time>
      </trkpt>
      <trkpt lat="45.23151" lon="5.74471">
        <ele>927.40002441406</ele>
        <time>2021-09-12T05:38:50.000Z</time>
      </trkpt>
      <trkpt lat="45.23148" lon="5.74471">
        <ele>926.59997558594</ele>
        <time>2021-09-12T05:38:52.000Z</time>
      </trkpt>
      <trkpt lat="45.23147" lon="5.74471">
        <ele>926.20001220703</ele>
        <time>2021-09-12T05:38:53.000Z</time>
      </trkpt>
      <trkpt lat="45.23146" lon="5.7447">
        <ele>925.79998779297</ele>
        <time>2021-09-12T05:38:54.000Z</time>
      </trkpt>
      <trkpt lat="45.23145" lon="5.74469">
        <ele>925.40002441406</ele>
        <time>2021-09-12T05:38:55.000Z</time>
      </trkpt>
      <trkpt lat="45.23142" lon="5.74468">
        <ele>924.59997558594</ele>
        <time>2021-09-12T05:38:57.000Z</time>
      </trkpt>
      <trkpt lat="45.23141" lon="5.74469">
        <ele>924.20001220703</ele>
        <time>2021-09-12T05:38:58.000Z</time>
      </trkpt>
      <trkpt lat="45.23139" lon="5.74469">
        <ele>923.59997558594</ele>
        <time>2021-09-12T05:38:59.000Z</time>
      </trkpt>
      <trkpt lat="45.23135" lon="5.7447">
        <ele>922.40002441406</ele>
        <time>2021-09-12T05:39:02.000Z</time>
      </trkpt>
      <trkpt lat="45.2313" lon="5.7447">
        <ele>920.79998779297</ele>
        <time>2021-09-12T05:39:05.000Z</time>
      </trkpt>
      <trkpt lat="45.23129" lon="5.7447">
        <ele>920.40002441406</ele>
        <time>2021-09-12T05:39:06.000Z</time>
      </trkpt>
      <trkpt lat="45.23125" lon="5.74471">
        <ele>919.59997558594</ele>
        <time>2021-09-12T05:39:08.000Z</time>
      </trkpt>
      <trkpt lat="45.23121" lon="5.74472">
        <ele>918.59997558594</ele>
        <time>2021-09-12T05:39:10.000Z</time>
      </trkpt>
      <trkpt lat="45.2312" lon="5.74471">
        <ele>918</ele>
        <time>2021-09-12T05:39:11.000Z</time>
      </trkpt>
      <trkpt lat="45.23116" lon="5.74469">
        <ele>916.79998779297</ele>
        <time>2021-09-12T05:39:14.000Z</time>
      </trkpt>
      <trkpt lat="45.23108" lon="5.74468">
        <ele>916</ele>
        <time>2021-09-12T05:39:17.000Z</time>
      </trkpt>
      <trkpt lat="45.23106" lon="5.74468">
        <ele>915.40002441406</ele>
        <time>2021-09-12T05:39:18.000Z</time>
      </trkpt>
      <trkpt lat="45.23104" lon="5.74467">
        <ele>914.40002441406</ele>
        <time>2021-09-12T05:39:20.000Z</time>
      </trkpt>
      <trkpt lat="45.23103" lon="5.74466">
        <ele>914.20001220703</ele>
        <time>2021-09-12T05:39:21.000Z</time>
      </trkpt>
      <trkpt lat="45.23098" lon="5.74463">
        <ele>913</ele>
        <time>2021-09-12T05:39:24.000Z</time>
      </trkpt>
      <trkpt lat="45.23094" lon="5.74463">
        <ele>911.79998779297</ele>
        <time>2021-09-12T05:39:27.000Z</time>
      </trkpt>
      <trkpt lat="45.23091" lon="5.74463">
        <ele>910.59997558594</ele>
        <time>2021-09-12T05:39:29.000Z</time>
      </trkpt>
      <trkpt lat="45.23088" lon="5.74462">
        <ele>909.79998779297</ele>
        <time>2021-09-12T05:39:31.000Z</time>
      </trkpt>
      <trkpt lat="45.23086" lon="5.74461">
        <ele>909.59997558594</ele>
        <time>2021-09-12T05:39:32.000Z</time>
      </trkpt>
      <trkpt lat="45.2308" lon="5.74459">
        <ele>908</ele>
        <time>2021-09-12T05:39:35.000Z</time>
      </trkpt>
      <trkpt lat="45.23078" lon="5.74459">
        <ele>907.59997558594</ele>
        <time>2021-09-12T05:39:36.000Z</time>
      </trkpt>
      <trkpt lat="45.23077" lon="5.74458">
        <ele>907</ele>
        <time>2021-09-12T05:39:37.000Z</time>
      </trkpt>
      <trkpt lat="45.23075" lon="5.74458">
        <ele>906.59997558594</ele>
        <time>2021-09-12T05:39:38.000Z</time>
      </trkpt>
      <trkpt lat="45.23071" lon="5.74455">
        <ele>905.40002441406</ele>
        <time>2021-09-12T05:39:41.000Z</time>
      </trkpt>
      <trkpt lat="45.23068" lon="5.74454">
        <ele>904.79998779297</ele>
        <time>2021-09-12T05:39:43.000Z</time>
      </trkpt>
      <trkpt lat="45.23066" lon="5.74454">
        <ele>904.20001220703</ele>
        <time>2021-09-12T05:39:44.000Z</time>
      </trkpt>
      <trkpt lat="45.23061" lon="5.74452">
        <ele>903</ele>
        <time>2021-09-12T05:39:47.000Z</time>
      </trkpt>
      <trkpt lat="45.23056" lon="5.74447">
        <ele>902</ele>
        <time>2021-09-12T05:39:50.000Z</time>
      </trkpt>
      <trkpt lat="45.23054" lon="5.74447">
        <ele>901.59997558594</ele>
        <time>2021-09-12T05:39:51.000Z</time>
      </trkpt>
      <trkpt lat="45.23046" lon="5.74445">
        <ele>900.59997558594</ele>
        <time>2021-09-12T05:39:55.000Z</time>
      </trkpt>
      <trkpt lat="45.23045" lon="5.74444">
        <ele>900.20001220703</ele>
        <time>2021-09-12T05:39:56.000Z</time>
      </trkpt>
      <trkpt lat="45.23041" lon="5.74442">
        <ele>899.40002441406</ele>
        <time>2021-09-12T05:39:58.000Z</time>
      </trkpt>
      <trkpt lat="45.23035" lon="5.74439">
        <ele>898.20001220703</ele>
        <time>2021-09-12T05:40:01.000Z</time>
      </trkpt>
      <trkpt lat="45.23034" lon="5.74438">
        <ele>898</ele>
        <time>2021-09-12T05:40:02.000Z</time>
      </trkpt>
      <trkpt lat="45.23031" lon="5.74438">
        <ele>897.20001220703</ele>
        <time>2021-09-12T05:40:04.000Z</time>
      </trkpt>
      <trkpt lat="45.23022" lon="5.74437">
        <ele>895.59997558594</ele>
        <time>2021-09-12T05:40:07.000Z</time>
      </trkpt>
      <trkpt lat="45.23016" lon="5.74436">
        <ele>894.40002441406</ele>
        <time>2021-09-12T05:40:10.000Z</time>
      </trkpt>
      <trkpt lat="45.23009" lon="5.74433">
        <ele>893</ele>
        <time>2021-09-12T05:40:14.000Z</time>
      </trkpt>
      <trkpt lat="45.23007" lon="5.74432">
        <ele>892.59997558594</ele>
        <time>2021-09-12T05:40:15.000Z</time>
      </trkpt>
      <trkpt lat="45.23004" lon="5.74431">
        <ele>891.59997558594</ele>
        <time>2021-09-12T05:40:17.000Z</time>
      </trkpt>
      <trkpt lat="45.23001" lon="5.7443">
        <ele>890.59997558594</ele>
        <time>2021-09-12T05:40:19.000Z</time>
      </trkpt>
      <trkpt lat="45.22996" lon="5.74429">
        <ele>889.59997558594</ele>
        <time>2021-09-12T05:40:22.000Z</time>
      </trkpt>
      <trkpt lat="45.22994" lon="5.74429">
        <ele>888.79998779297</ele>
        <time>2021-09-12T05:40:23.000Z</time>
      </trkpt>
      <trkpt lat="45.22991" lon="5.74426">
        <ele>888</ele>
        <time>2021-09-12T05:40:25.000Z</time>
      </trkpt>
      <trkpt lat="45.2299" lon="5.74424">
        <ele>887.59997558594</ele>
        <time>2021-09-12T05:40:26.000Z</time>
      </trkpt>
      <trkpt lat="45.22985" lon="5.74421">
        <ele>886.20001220703</ele>
        <time>2021-09-12T05:40:30.000Z</time>
      </trkpt>
      <trkpt lat="45.22984" lon="5.7442">
        <ele>886</ele>
        <time>2021-09-12T05:40:31.000Z</time>
      </trkpt>
      <trkpt lat="45.22981" lon="5.74419">
        <ele>885</ele>
        <time>2021-09-12T05:40:33.000Z</time>
      </trkpt>
      <trkpt lat="45.22977" lon="5.74418">
        <ele>883.59997558594</ele>
        <time>2021-09-12T05:40:36.000Z</time>
      </trkpt>
      <trkpt lat="45.22975" lon="5.74418">
        <ele>882.79998779297</ele>
        <time>2021-09-12T05:40:38.000Z</time>
      </trkpt>
      <trkpt lat="45.22974" lon="5.74419">
        <ele>882.59997558594</ele>
        <time>2021-09-12T05:40:39.000Z</time>
      </trkpt>
      <trkpt lat="45.22971" lon="5.7442">
        <ele>881.79998779297</ele>
        <time>2021-09-12T05:40:41.000Z</time>
      </trkpt>
      <trkpt lat="45.2297" lon="5.74419">
        <ele>881.20001220703</ele>
        <time>2021-09-12T05:40:42.000Z</time>
      </trkpt>
      <trkpt lat="45.22964" lon="5.74422">
        <ele>879.59997558594</ele>
        <time>2021-09-12T05:40:46.000Z</time>
      </trkpt>
      <trkpt lat="45.22963" lon="5.74422">
        <ele>879.20001220703</ele>
        <time>2021-09-12T05:40:47.000Z</time>
      </trkpt>
      <trkpt lat="45.2296" lon="5.74423">
        <ele>878.40002441406</ele>
        <time>2021-09-12T05:40:49.000Z</time>
      </trkpt>
      <trkpt lat="45.22955" lon="5.74421">
        <ele>877</ele>
        <time>2021-09-12T05:40:52.000Z</time>
      </trkpt>
      <trkpt lat="45.22954" lon="5.74421">
        <ele>876.79998779297</ele>
        <time>2021-09-12T05:40:53.000Z</time>
      </trkpt>
      <trkpt lat="45.2295" lon="5.7442">
        <ele>875.79998779297</ele>
        <time>2021-09-12T05:40:56.000Z</time>
      </trkpt>
      <trkpt lat="45.22947" lon="5.74419">
        <ele>875</ele>
        <time>2021-09-12T05:40:59.000Z</time>
      </trkpt>
      <trkpt lat="45.22945" lon="5.74419">
        <ele>874.79998779297</ele>
        <time>2021-09-12T05:41:00.000Z</time>
      </trkpt>
      <trkpt lat="45.22944" lon="5.74418">
        <ele>874.40002441406</ele>
        <time>2021-09-12T05:41:01.000Z</time>
      </trkpt>
      <trkpt lat="45.22941" lon="5.74418">
        <ele>873.59997558594</ele>
        <time>2021-09-12T05:41:03.000Z</time>
      </trkpt>
      <trkpt lat="45.2294" lon="5.74419">
        <ele>873.20001220703</ele>
        <time>2021-09-12T05:41:04.000Z</time>
      </trkpt>
      <trkpt lat="45.2294" lon="5.74419">
        <ele>872.59997558594</ele>
        <time>2021-09-12T05:41:05.000Z</time>
      </trkpt>
      <trkpt lat="45.22939" lon="5.74421">
        <ele>872</ele>
        <time>2021-09-12T05:41:07.000Z</time>
      </trkpt>
      <trkpt lat="45.22936" lon="5.74422">
        <ele>870.59997558594</ele>
        <time>2021-09-12T05:41:10.000Z</time>
      </trkpt>
      <trkpt lat="45.22934" lon="5.74423">
        <ele>870</ele>
        <time>2021-09-12T05:41:12.000Z</time>
      </trkpt>
      <trkpt lat="45.22934" lon="5.74423">
        <ele>869.40002441406</ele>
        <time>2021-09-12T05:41:13.000Z</time>
      </trkpt>
      <trkpt lat="45.22933" lon="5.74423">
        <ele>868.40002441406</ele>
        <time>2021-09-12T05:41:15.000Z</time>
      </trkpt>
      <trkpt lat="45.22931" lon="5.74425">
        <ele>867.40002441406</ele>
        <time>2021-09-12T05:41:17.000Z</time>
      </trkpt>
      <trkpt lat="45.2293" lon="5.74425">
        <ele>867.20001220703</ele>
        <time>2021-09-12T05:41:18.000Z</time>
      </trkpt>
      <trkpt lat="45.22928" lon="5.74425">
        <ele>866</ele>
        <time>2021-09-12T05:41:21.000Z</time>
      </trkpt>
      <trkpt lat="45.22926" lon="5.74425">
        <ele>865</ele>
        <time>2021-09-12T05:41:23.000Z</time>
      </trkpt>
      <trkpt lat="45.22925" lon="5.74425">
        <ele>864.79998779297</ele>
        <time>2021-09-12T05:41:24.000Z</time>
      </trkpt>
      <trkpt lat="45.22924" lon="5.74425">
        <ele>863.59997558594</ele>
        <time>2021-09-12T05:41:26.000Z</time>
      </trkpt>
      <trkpt lat="45.22921" lon="5.74426">
        <ele>862.59997558594</ele>
        <time>2021-09-12T05:41:29.000Z</time>
      </trkpt>
      <trkpt lat="45.2292" lon="5.74426">
        <ele>861.79998779297</ele>
        <time>2021-09-12T05:41:30.000Z</time>
      </trkpt>
      <trkpt lat="45.22918" lon="5.74428">
        <ele>861.40002441406</ele>
        <time>2021-09-12T05:41:32.000Z</time>
      </trkpt>
      <trkpt lat="45.22917" lon="5.74428">
        <ele>860.59997558594</ele>
        <time>2021-09-12T05:41:33.000Z</time>
      </trkpt>
      <trkpt lat="45.22917" lon="5.74428">
        <ele>860.20001220703</ele>
        <time>2021-09-12T05:41:34.000Z</time>
      </trkpt>
      <trkpt lat="45.22915" lon="5.74428">
        <ele>859.79998779297</ele>
        <time>2021-09-12T05:41:35.000Z</time>
      </trkpt>
      <trkpt lat="45.22915" lon="5.74429">
        <ele>859.20001220703</ele>
        <time>2021-09-12T05:41:36.000Z</time>
      </trkpt>
      <trkpt lat="45.22912" lon="5.74432">
        <ele>858.20001220703</ele>
        <time>2021-09-12T05:41:39.000Z</time>
      </trkpt>
      <trkpt lat="45.22911" lon="5.74432">
        <ele>857.79998779297</ele>
        <time>2021-09-12T05:41:40.000Z</time>
      </trkpt>
      <trkpt lat="45.2291" lon="5.74433">
        <ele>857.20001220703</ele>
        <time>2021-09-12T05:41:41.000Z</time>
      </trkpt>
      <trkpt lat="45.22909" lon="5.74433">
        <ele>856.79998779297</ele>
        <time>2021-09-12T05:41:42.000Z</time>
      </trkpt>
      <trkpt lat="45.22909" lon="5.74431">
        <ele>855.59997558594</ele>
        <time>2021-09-12T05:41:45.000Z</time>
      </trkpt>
      <trkpt lat="45.2291" lon="5.74432">
        <ele>855.40002441406</ele>
        <time>2021-09-12T05:41:46.000Z</time>
      </trkpt>
      <trkpt lat="45.2291" lon="5.74433">
        <ele>854.79998779297</ele>
        <time>2021-09-12T05:41:47.000Z</time>
      </trkpt>
      <trkpt lat="45.2291" lon="5.74435">
        <ele>854.40002441406</ele>
        <time>2021-09-12T05:41:48.000Z</time>
      </trkpt>
      <trkpt lat="45.2291" lon="5.74438">
        <ele>853.79998779297</ele>
        <time>2021-09-12T05:41:50.000Z</time>
      </trkpt>
      <trkpt lat="45.22908" lon="5.74439">
        <ele>853</ele>
        <time>2021-09-12T05:41:51.000Z</time>
      </trkpt>
      <trkpt lat="45.22905" lon="5.7444">
        <ele>852.20001220703</ele>
        <time>2021-09-12T05:41:53.000Z</time>
      </trkpt>
      <trkpt lat="45.22903" lon="5.7444">
        <ele>851.79998779297</ele>
        <time>2021-09-12T05:41:54.000Z</time>
      </trkpt>
      <trkpt lat="45.22899" lon="5.74442">
        <ele>850.20001220703</ele>
        <time>2021-09-12T05:41:57.000Z</time>
      </trkpt>
      <trkpt lat="45.22895" lon="5.74445">
        <ele>849</ele>
        <time>2021-09-12T05:42:00.000Z</time>
      </trkpt>
      <trkpt lat="45.22891" lon="5.74443">
        <ele>847.79998779297</ele>
        <time>2021-09-12T05:42:03.000Z</time>
      </trkpt>
      <trkpt lat="45.22889" lon="5.74442">
        <ele>846.79998779297</ele>
        <time>2021-09-12T05:42:05.000Z</time>
      </trkpt>
      <trkpt lat="45.22888" lon="5.74442">
        <ele>846.40002441406</ele>
        <time>2021-09-12T05:42:06.000Z</time>
      </trkpt>
      <trkpt lat="45.22887" lon="5.74441">
        <ele>845.79998779297</ele>
        <time>2021-09-12T05:42:07.000Z</time>
      </trkpt>
      <trkpt lat="45.22886" lon="5.74441">
        <ele>845</ele>
        <time>2021-09-12T05:42:08.000Z</time>
      </trkpt>
      <trkpt lat="45.22883" lon="5.7444">
        <ele>844.20001220703</ele>
        <time>2021-09-12T05:42:10.000Z</time>
      </trkpt>
      <trkpt lat="45.22882" lon="5.74441">
        <ele>843.79998779297</ele>
        <time>2021-09-12T05:42:11.000Z</time>
      </trkpt>
      <trkpt lat="45.22882" lon="5.74444">
        <ele>843.40002441406</ele>
        <time>2021-09-12T05:42:13.000Z</time>
      </trkpt>
      <trkpt lat="45.22881" lon="5.74447">
        <ele>842.40002441406</ele>
        <time>2021-09-12T05:42:15.000Z</time>
      </trkpt>
      <trkpt lat="45.2288" lon="5.74448">
        <ele>842.20001220703</ele>
        <time>2021-09-12T05:42:16.000Z</time>
      </trkpt>
      <trkpt lat="45.22877" lon="5.74447">
        <ele>841.59997558594</ele>
        <time>2021-09-12T05:42:18.000Z</time>
      </trkpt>
      <trkpt lat="45.22877" lon="5.74447">
        <ele>841.20001220703</ele>
        <time>2021-09-12T05:42:19.000Z</time>
      </trkpt>
      <trkpt lat="45.22872" lon="5.74446">
        <ele>840</ele>
        <time>2021-09-12T05:42:23.000Z</time>
      </trkpt>
      <trkpt lat="45.22871" lon="5.74446">
        <ele>839.79998779297</ele>
        <time>2021-09-12T05:42:24.000Z</time>
      </trkpt>
      <trkpt lat="45.22869" lon="5.74445">
        <ele>839.40002441406</ele>
        <time>2021-09-12T05:42:25.000Z</time>
      </trkpt>
      <trkpt lat="45.22867" lon="5.74444">
        <ele>838.59997558594</ele>
        <time>2021-09-12T05:42:27.000Z</time>
      </trkpt>
      <trkpt lat="45.22864" lon="5.74443">
        <ele>837.59997558594</ele>
        <time>2021-09-12T05:42:30.000Z</time>
      </trkpt>
      <trkpt lat="45.2286" lon="5.74441">
        <ele>836.40002441406</ele>
        <time>2021-09-12T05:42:33.000Z</time>
      </trkpt>
      <trkpt lat="45.22858" lon="5.7444">
        <ele>835.40002441406</ele>
        <time>2021-09-12T05:42:36.000Z</time>
      </trkpt>
      <trkpt lat="45.22855" lon="5.74441">
        <ele>834.20001220703</ele>
        <time>2021-09-12T05:42:39.000Z</time>
      </trkpt>
      <trkpt lat="45.22852" lon="5.74442">
        <ele>833.20001220703</ele>
        <time>2021-09-12T05:42:42.000Z</time>
      </trkpt>
      <trkpt lat="45.22848" lon="5.74443">
        <ele>832.59997558594</ele>
        <time>2021-09-12T05:42:44.000Z</time>
      </trkpt>
      <trkpt lat="45.22846" lon="5.74443">
        <ele>832.20001220703</ele>
        <time>2021-09-12T05:42:45.000Z</time>
      </trkpt>
      <trkpt lat="45.22844" lon="5.74444">
        <ele>831.59997558594</ele>
        <time>2021-09-12T05:42:46.000Z</time>
      </trkpt>
      <trkpt lat="45.22842" lon="5.74446">
        <ele>830.40002441406</ele>
        <time>2021-09-12T05:42:49.000Z</time>
      </trkpt>
      <trkpt lat="45.22839" lon="5.74448">
        <ele>829.40002441406</ele>
        <time>2021-09-12T05:42:51.000Z</time>
      </trkpt>
      <trkpt lat="45.22838" lon="5.74448">
        <ele>829.20001220703</ele>
        <time>2021-09-12T05:42:52.000Z</time>
      </trkpt>
      <trkpt lat="45.22834" lon="5.74451">
        <ele>827.79998779297</ele>
        <time>2021-09-12T05:42:55.000Z</time>
      </trkpt>
      <trkpt lat="45.22833" lon="5.74453">
        <ele>827.40002441406</ele>
        <time>2021-09-12T05:42:56.000Z</time>
      </trkpt>
      <trkpt lat="45.22832" lon="5.74454">
        <ele>826.79998779297</ele>
        <time>2021-09-12T05:42:57.000Z</time>
      </trkpt>
      <trkpt lat="45.22831" lon="5.74456">
        <ele>826.40002441406</ele>
        <time>2021-09-12T05:42:58.000Z</time>
      </trkpt>
      <trkpt lat="45.22828" lon="5.74458">
        <ele>825.40002441406</ele>
        <time>2021-09-12T05:43:00.000Z</time>
      </trkpt>
      <trkpt lat="45.22827" lon="5.74458">
        <ele>825.20001220703</ele>
        <time>2021-09-12T05:43:01.000Z</time>
      </trkpt>
      <trkpt lat="45.22826" lon="5.74458">
        <ele>825</ele>
        <time>2021-09-12T05:43:02.000Z</time>
      </trkpt>
      <trkpt lat="45.22825" lon="5.74457">
        <ele>824.40002441406</ele>
        <time>2021-09-12T05:43:03.000Z</time>
      </trkpt>
      <trkpt lat="45.22824" lon="5.74457">
        <ele>823.79998779297</ele>
        <time>2021-09-12T05:43:04.000Z</time>
      </trkpt>
      <trkpt lat="45.22823" lon="5.74458">
        <ele>823.40002441406</ele>
        <time>2021-09-12T05:43:05.000Z</time>
      </trkpt>
      <trkpt lat="45.22822" lon="5.74458">
        <ele>823.20001220703</ele>
        <time>2021-09-12T05:43:06.000Z</time>
      </trkpt>
      <trkpt lat="45.2282" lon="5.74457">
        <ele>822.40002441406</ele>
        <time>2021-09-12T05:43:08.000Z</time>
      </trkpt>
      <trkpt lat="45.22819" lon="5.74456">
        <ele>822</ele>
        <time>2021-09-12T05:43:09.000Z</time>
      </trkpt>
      <trkpt lat="45.22816" lon="5.74456">
        <ele>821</ele>
        <time>2021-09-12T05:43:11.000Z</time>
      </trkpt>
      <trkpt lat="45.22813" lon="5.74458">
        <ele>819.79998779297</ele>
        <time>2021-09-12T05:43:13.000Z</time>
      </trkpt>
      <trkpt lat="45.2281" lon="5.74458">
        <ele>819</ele>
        <time>2021-09-12T05:43:15.000Z</time>
      </trkpt>
      <trkpt lat="45.22807" lon="5.7446">
        <ele>818.40002441406</ele>
        <time>2021-09-12T05:43:17.000Z</time>
      </trkpt>
      <trkpt lat="45.22805" lon="5.74461">
        <ele>817.79998779297</ele>
        <time>2021-09-12T05:43:18.000Z</time>
      </trkpt>
      <trkpt lat="45.22802" lon="5.74463">
        <ele>817</ele>
        <time>2021-09-12T05:43:20.000Z</time>
      </trkpt>
      <trkpt lat="45.22798" lon="5.74465">
        <ele>816.40002441406</ele>
        <time>2021-09-12T05:43:22.000Z</time>
      </trkpt>
      <trkpt lat="45.22795" lon="5.74469">
        <ele>815.40002441406</ele>
        <time>2021-09-12T05:43:24.000Z</time>
      </trkpt>
      <trkpt lat="45.22794" lon="5.7447">
        <ele>815</ele>
        <time>2021-09-12T05:43:25.000Z</time>
      </trkpt>
      <trkpt lat="45.2279" lon="5.74471">
        <ele>814.40002441406</ele>
        <time>2021-09-12T05:43:27.000Z</time>
      </trkpt>
      <trkpt lat="45.22786" lon="5.74471">
        <ele>813.79998779297</ele>
        <time>2021-09-12T05:43:29.000Z</time>
      </trkpt>
      <trkpt lat="45.22782" lon="5.74472">
        <ele>812.40002441406</ele>
        <time>2021-09-12T05:43:31.000Z</time>
      </trkpt>
      <trkpt lat="45.2278" lon="5.74474">
        <ele>811.40002441406</ele>
        <time>2021-09-12T05:43:33.000Z</time>
      </trkpt>
      <trkpt lat="45.22779" lon="5.74474">
        <ele>811</ele>
        <time>2021-09-12T05:43:34.000Z</time>
      </trkpt>
      <trkpt lat="45.22777" lon="5.74477">
        <ele>810.20001220703</ele>
        <time>2021-09-12T05:43:36.000Z</time>
      </trkpt>
      <trkpt lat="45.22775" lon="5.74479">
        <ele>809.40002441406</ele>
        <time>2021-09-12T05:43:38.000Z</time>
      </trkpt>
      <trkpt lat="45.22774" lon="5.7448">
        <ele>809</ele>
        <time>2021-09-12T05:43:39.000Z</time>
      </trkpt>
      <trkpt lat="45.22772" lon="5.74482">
        <ele>808</ele>
        <time>2021-09-12T05:43:41.000Z</time>
      </trkpt>
      <trkpt lat="45.22769" lon="5.74482">
        <ele>806.59997558594</ele>
        <time>2021-09-12T05:43:44.000Z</time>
      </trkpt>
      <trkpt lat="45.22764" lon="5.74485">
        <ele>805.59997558594</ele>
        <time>2021-09-12T05:43:47.000Z</time>
      </trkpt>
      <trkpt lat="45.22762" lon="5.74486">
        <ele>805.20001220703</ele>
        <time>2021-09-12T05:43:48.000Z</time>
      </trkpt>
      <trkpt lat="45.22758" lon="5.74487">
        <ele>804</ele>
        <time>2021-09-12T05:43:51.000Z</time>
      </trkpt>
      <trkpt lat="45.22755" lon="5.74488">
        <ele>802.79998779297</ele>
        <time>2021-09-12T05:43:53.000Z</time>
      </trkpt>
      <trkpt lat="45.22748" lon="5.7449">
        <ele>801.40002441406</ele>
        <time>2021-09-12T05:43:56.000Z</time>
      </trkpt>
      <trkpt lat="45.22743" lon="5.74491">
        <ele>800.20001220703</ele>
        <time>2021-09-12T05:43:59.000Z</time>
      </trkpt>
      <trkpt lat="45.22742" lon="5.74491">
        <ele>799.59997558594</ele>
        <time>2021-09-12T05:44:00.000Z</time>
      </trkpt>
      <trkpt lat="45.22741" lon="5.74493">
        <ele>799</ele>
        <time>2021-09-12T05:44:01.000Z</time>
      </trkpt>
      <trkpt lat="45.22738" lon="5.74493">
        <ele>798.20001220703</ele>
        <time>2021-09-12T05:44:03.000Z</time>
      </trkpt>
      <trkpt lat="45.22735" lon="5.74493">
        <ele>798</ele>
        <time>2021-09-12T05:44:04.000Z</time>
      </trkpt>
      <trkpt lat="45.22735" lon="5.74493">
        <ele>797</ele>
        <time>2021-09-12T05:44:06.000Z</time>
      </trkpt>
      <trkpt lat="45.22734" lon="5.74493">
        <ele>796.40002441406</ele>
        <time>2021-09-12T05:44:07.000Z</time>
      </trkpt>
      <trkpt lat="45.22731" lon="5.74492">
        <ele>795.59997558594</ele>
        <time>2021-09-12T05:44:09.000Z</time>
      </trkpt>
      <trkpt lat="45.22729" lon="5.74493">
        <ele>795.40002441406</ele>
        <time>2021-09-12T05:44:10.000Z</time>
      </trkpt>
      <trkpt lat="45.22727" lon="5.74494">
        <ele>794.40002441406</ele>
        <time>2021-09-12T05:44:12.000Z</time>
      </trkpt>
      <trkpt lat="45.22721" lon="5.74494">
        <ele>793.40002441406</ele>
        <time>2021-09-12T05:44:15.000Z</time>
      </trkpt>
      <trkpt lat="45.22715" lon="5.74495">
        <ele>791.79998779297</ele>
        <time>2021-09-12T05:44:19.000Z</time>
      </trkpt>
      <trkpt lat="45.22709" lon="5.74494">
        <ele>790.40002441406</ele>
        <time>2021-09-12T05:44:22.000Z</time>
      </trkpt>
      <trkpt lat="45.22707" lon="5.74494">
        <ele>790.20001220703</ele>
        <time>2021-09-12T05:44:23.000Z</time>
      </trkpt>
      <trkpt lat="45.22701" lon="5.74495">
        <ele>789</ele>
        <time>2021-09-12T05:44:26.000Z</time>
      </trkpt>
      <trkpt lat="45.22694" lon="5.74495">
        <ele>788</ele>
        <time>2021-09-12T05:44:29.000Z</time>
      </trkpt>
      <trkpt lat="45.22693" lon="5.74494">
        <ele>787.59997558594</ele>
        <time>2021-09-12T05:44:30.000Z</time>
      </trkpt>
      <trkpt lat="45.2269" lon="5.74491">
        <ele>786.79998779297</ele>
        <time>2021-09-12T05:44:32.000Z</time>
      </trkpt>
      <trkpt lat="45.22687" lon="5.74489">
        <ele>785.79998779297</ele>
        <time>2021-09-12T05:44:35.000Z</time>
      </trkpt>
      <trkpt lat="45.22684" lon="5.74487">
        <ele>784.59997558594</ele>
        <time>2021-09-12T05:44:37.000Z</time>
      </trkpt>
      <trkpt lat="45.2268" lon="5.74486">
        <ele>783.40002441406</ele>
        <time>2021-09-12T05:44:40.000Z</time>
      </trkpt>
      <trkpt lat="45.22679" lon="5.74485">
        <ele>782.79998779297</ele>
        <time>2021-09-12T05:44:42.000Z</time>
      </trkpt>
      <trkpt lat="45.22678" lon="5.74485">
        <ele>782.40002441406</ele>
        <time>2021-09-12T05:44:43.000Z</time>
      </trkpt>
      <trkpt lat="45.22676" lon="5.74486">
        <ele>781.59997558594</ele>
        <time>2021-09-12T05:44:45.000Z</time>
      </trkpt>
      <trkpt lat="45.22675" lon="5.74487">
        <ele>781.20001220703</ele>
        <time>2021-09-12T05:44:46.000Z</time>
      </trkpt>
      <trkpt lat="45.22673" lon="5.74487">
        <ele>780.59997558594</ele>
        <time>2021-09-12T05:44:48.000Z</time>
      </trkpt>
      <trkpt lat="45.2267" lon="5.74489">
        <ele>779.79998779297</ele>
        <time>2021-09-12T05:44:50.000Z</time>
      </trkpt>
      <trkpt lat="45.22669" lon="5.7449">
        <ele>779.40002441406</ele>
        <time>2021-09-12T05:44:51.000Z</time>
      </trkpt>
      <trkpt lat="45.22667" lon="5.7449">
        <ele>778.79998779297</ele>
        <time>2021-09-12T05:44:52.000Z</time>
      </trkpt>
      <trkpt lat="45.22665" lon="5.74492">
        <ele>778.20001220703</ele>
        <time>2021-09-12T05:44:54.000Z</time>
      </trkpt>
      <trkpt lat="45.22662" lon="5.74494">
        <ele>777.79998779297</ele>
        <time>2021-09-12T05:44:55.000Z</time>
      </trkpt>
      <trkpt lat="45.22661" lon="5.74495">
        <ele>777.40002441406</ele>
        <time>2021-09-12T05:44:56.000Z</time>
      </trkpt>
      <trkpt lat="45.2266" lon="5.74496">
        <ele>777.20001220703</ele>
        <time>2021-09-12T05:44:57.000Z</time>
      </trkpt>
      <trkpt lat="45.22659" lon="5.74497">
        <ele>776.59997558594</ele>
        <time>2021-09-12T05:44:58.000Z</time>
      </trkpt>
      <trkpt lat="45.22655" lon="5.74498">
        <ele>775.59997558594</ele>
        <time>2021-09-12T05:45:01.000Z</time>
      </trkpt>
      <trkpt lat="45.22653" lon="5.74499">
        <ele>775.40002441406</ele>
        <time>2021-09-12T05:45:02.000Z</time>
      </trkpt>
      <trkpt lat="45.22649" lon="5.74499">
        <ele>774.79998779297</ele>
        <time>2021-09-12T05:45:04.000Z</time>
      </trkpt>
      <trkpt lat="45.22648" lon="5.745">
        <ele>774.40002441406</ele>
        <time>2021-09-12T05:45:05.000Z</time>
      </trkpt>
      <trkpt lat="45.22643" lon="5.74501">
        <ele>773.79998779297</ele>
        <time>2021-09-12T05:45:08.000Z</time>
      </trkpt>
      <trkpt lat="45.22642" lon="5.74502">
        <ele>773.20001220703</ele>
        <time>2021-09-12T05:45:09.000Z</time>
      </trkpt>
      <trkpt lat="45.22636" lon="5.74501">
        <ele>772.20001220703</ele>
        <time>2021-09-12T05:45:12.000Z</time>
      </trkpt>
      <trkpt lat="45.22631" lon="5.74503">
        <ele>771</ele>
        <time>2021-09-12T05:45:15.000Z</time>
      </trkpt>
      <trkpt lat="45.22629" lon="5.74505">
        <ele>770</ele>
        <time>2021-09-12T05:45:17.000Z</time>
      </trkpt>
      <trkpt lat="45.22626" lon="5.74508">
        <ele>768.79998779297</ele>
        <time>2021-09-12T05:45:20.000Z</time>
      </trkpt>
      <trkpt lat="45.22624" lon="5.74509">
        <ele>768.40002441406</ele>
        <time>2021-09-12T05:45:21.000Z</time>
      </trkpt>
      <trkpt lat="45.22623" lon="5.74509">
        <ele>768</ele>
        <time>2021-09-12T05:45:22.000Z</time>
      </trkpt>
      <trkpt lat="45.22622" lon="5.74509">
        <ele>767.79998779297</ele>
        <time>2021-09-12T05:45:23.000Z</time>
      </trkpt>
      <trkpt lat="45.2262" lon="5.7451">
        <ele>767.20001220703</ele>
        <time>2021-09-12T05:45:24.000Z</time>
      </trkpt>
      <trkpt lat="45.22618" lon="5.74509">
        <ele>766.79998779297</ele>
        <time>2021-09-12T05:45:25.000Z</time>
      </trkpt>
      <trkpt lat="45.22616" lon="5.7451">
        <ele>766.59997558594</ele>
        <time>2021-09-12T05:45:26.000Z</time>
      </trkpt>
      <trkpt lat="45.22615" lon="5.7451">
        <ele>766</ele>
        <time>2021-09-12T05:45:27.000Z</time>
      </trkpt>
      <trkpt lat="45.22615" lon="5.74511">
        <ele>765.40002441406</ele>
        <time>2021-09-12T05:45:28.000Z</time>
      </trkpt>
      <trkpt lat="45.22615" lon="5.74511">
        <ele>765</ele>
        <time>2021-09-12T05:45:29.000Z</time>
      </trkpt>
      <trkpt lat="45.22614" lon="5.74512">
        <ele>764.59997558594</ele>
        <time>2021-09-12T05:45:30.000Z</time>
      </trkpt>
      <trkpt lat="45.22613" lon="5.74513">
        <ele>764.20001220703</ele>
        <time>2021-09-12T05:45:31.000Z</time>
      </trkpt>
      <trkpt lat="45.2261" lon="5.74516">
        <ele>763</ele>
        <time>2021-09-12T05:45:34.000Z</time>
      </trkpt>
      <trkpt lat="45.22609" lon="5.74516">
        <ele>762.59997558594</ele>
        <time>2021-09-12T05:45:35.000Z</time>
      </trkpt>
      <trkpt lat="45.22606" lon="5.74519">
        <ele>761.40002441406</ele>
        <time>2021-09-12T05:45:37.000Z</time>
      </trkpt>
      <trkpt lat="45.22602" lon="5.74522">
        <ele>760.20001220703</ele>
        <time>2021-09-12T05:45:40.000Z</time>
      </trkpt>
      <trkpt lat="45.22602" lon="5.74524">
        <ele>759.59997558594</ele>
        <time>2021-09-12T05:45:41.000Z</time>
      </trkpt>
      <trkpt lat="45.22602" lon="5.74525">
        <ele>759.20001220703</ele>
        <time>2021-09-12T05:45:43.000Z</time>
      </trkpt>
      <trkpt lat="45.22601" lon="5.74528">
        <ele>758.79998779297</ele>
        <time>2021-09-12T05:45:44.000Z</time>
      </trkpt>
      <trkpt lat="45.226" lon="5.74532">
        <ele>757.79998779297</ele>
        <time>2021-09-12T05:45:46.000Z</time>
      </trkpt>
      <trkpt lat="45.22599" lon="5.74535">
        <ele>756.79998779297</ele>
        <time>2021-09-12T05:45:48.000Z</time>
      </trkpt>
      <trkpt lat="45.22598" lon="5.74536">
        <ele>756.40002441406</ele>
        <time>2021-09-12T05:45:49.000Z</time>
      </trkpt>
      <trkpt lat="45.22598" lon="5.74539">
        <ele>755.40002441406</ele>
        <time>2021-09-12T05:45:51.000Z</time>
      </trkpt>
      <trkpt lat="45.22597" lon="5.74541">
        <ele>754.40002441406</ele>
        <time>2021-09-12T05:45:53.000Z</time>
      </trkpt>
      <trkpt lat="45.22598" lon="5.74542">
        <ele>754</ele>
        <time>2021-09-12T05:45:54.000Z</time>
      </trkpt>
      <trkpt lat="45.22598" lon="5.74548">
        <ele>752.79998779297</ele>
        <time>2021-09-12T05:45:57.000Z</time>
      </trkpt>
      <trkpt lat="45.22597" lon="5.74552">
        <ele>751.59997558594</ele>
        <time>2021-09-12T05:45:59.000Z</time>
      </trkpt>
      <trkpt lat="45.22598" lon="5.74554">
        <ele>751</ele>
        <time>2021-09-12T05:46:00.000Z</time>
      </trkpt>
      <trkpt lat="45.22597" lon="5.74557">
        <ele>750.59997558594</ele>
        <time>2021-09-12T05:46:01.000Z</time>
      </trkpt>
      <trkpt lat="45.22597" lon="5.74563">
        <ele>749.20001220703</ele>
        <time>2021-09-12T05:46:04.000Z</time>
      </trkpt>
      <trkpt lat="45.22597" lon="5.7457">
        <ele>748.20001220703</ele>
        <time>2021-09-12T05:46:08.000Z</time>
      </trkpt>
      <trkpt lat="45.22596" lon="5.74572">
        <ele>747.59997558594</ele>
        <time>2021-09-12T05:46:09.000Z</time>
      </trkpt>
      <trkpt lat="45.22595" lon="5.74574">
        <ele>747.20001220703</ele>
        <time>2021-09-12T05:46:10.000Z</time>
      </trkpt>
      <trkpt lat="45.22594" lon="5.74577">
        <ele>746</ele>
        <time>2021-09-12T05:46:12.000Z</time>
      </trkpt>
      <trkpt lat="45.22594" lon="5.7458">
        <ele>745.59997558594</ele>
        <time>2021-09-12T05:46:14.000Z</time>
      </trkpt>
      <trkpt lat="45.22593" lon="5.74585">
        <ele>744.59997558594</ele>
        <time>2021-09-12T05:46:16.000Z</time>
      </trkpt>
      <trkpt lat="45.22592" lon="5.74586">
        <ele>744</ele>
        <time>2021-09-12T05:46:17.000Z</time>
      </trkpt>
      <trkpt lat="45.22591" lon="5.74588">
        <ele>743.40002441406</ele>
        <time>2021-09-12T05:46:18.000Z</time>
      </trkpt>
      <trkpt lat="45.22589" lon="5.74596">
        <ele>742</ele>
        <time>2021-09-12T05:46:21.000Z</time>
      </trkpt>
      <trkpt lat="45.22586" lon="5.74601">
        <ele>740.79998779297</ele>
        <time>2021-09-12T05:46:24.000Z</time>
      </trkpt>
      <trkpt lat="45.22585" lon="5.74604">
        <ele>740.20001220703</ele>
        <time>2021-09-12T05:46:26.000Z</time>
      </trkpt>
      <trkpt lat="45.22585" lon="5.74605">
        <ele>739.59997558594</ele>
        <time>2021-09-12T05:46:27.000Z</time>
      </trkpt>
      <trkpt lat="45.22583" lon="5.74608">
        <ele>738.59997558594</ele>
        <time>2021-09-12T05:46:29.000Z</time>
      </trkpt>
      <trkpt lat="45.22583" lon="5.74609">
        <ele>738.20001220703</ele>
        <time>2021-09-12T05:46:30.000Z</time>
      </trkpt>
      <trkpt lat="45.22582" lon="5.74611">
        <ele>737</ele>
        <time>2021-09-12T05:46:32.000Z</time>
      </trkpt>
      <trkpt lat="45.22581" lon="5.74613">
        <ele>736.59997558594</ele>
        <time>2021-09-12T05:46:33.000Z</time>
      </trkpt>
      <trkpt lat="45.22577" lon="5.74619">
        <ele>735.59997558594</ele>
        <time>2021-09-12T05:46:36.000Z</time>
      </trkpt>
      <trkpt lat="45.22575" lon="5.74623">
        <ele>734.59997558594</ele>
        <time>2021-09-12T05:46:38.000Z</time>
      </trkpt>
      <trkpt lat="45.22574" lon="5.74624">
        <ele>734.20001220703</ele>
        <time>2021-09-12T05:46:39.000Z</time>
      </trkpt>
      <trkpt lat="45.22569" lon="5.74627">
        <ele>733.59997558594</ele>
        <time>2021-09-12T05:46:41.000Z</time>
      </trkpt>
      <trkpt lat="45.22564" lon="5.74624">
        <ele>733.40002441406</ele>
        <time>2021-09-12T05:46:44.000Z</time>
      </trkpt>
      <trkpt lat="45.22563" lon="5.74623">
        <ele>733.59997558594</ele>
        <time>2021-09-12T05:46:45.000Z</time>
      </trkpt>
      <trkpt lat="45.22561" lon="5.74619">
        <ele>734.40002441406</ele>
        <time>2021-09-12T05:46:49.000Z</time>
      </trkpt>
      <trkpt lat="45.2256" lon="5.74618">
        <ele>734.59997558594</ele>
        <time>2021-09-12T05:46:50.000Z</time>
      </trkpt>
      <trkpt lat="45.2256" lon="5.74617">
        <ele>735.40002441406</ele>
        <time>2021-09-12T05:46:53.000Z</time>
      </trkpt>
      <trkpt lat="45.22559" lon="5.74617">
        <ele>735.79998779297</ele>
        <time>2021-09-12T05:46:54.000Z</time>
      </trkpt>
      <trkpt lat="45.22558" lon="5.74616">
        <ele>736.20001220703</ele>
        <time>2021-09-12T05:46:55.000Z</time>
      </trkpt>
      <trkpt lat="45.22557" lon="5.74615">
        <ele>736.79998779297</ele>
        <time>2021-09-12T05:46:57.000Z</time>
      </trkpt>
      <trkpt lat="45.22555" lon="5.74611">
        <ele>737.79998779297</ele>
        <time>2021-09-12T05:47:01.000Z</time>
      </trkpt>
      <trkpt lat="45.22554" lon="5.74609">
        <ele>738.20001220703</ele>
        <time>2021-09-12T05:47:02.000Z</time>
      </trkpt>
      <trkpt lat="45.22554" lon="5.74606">
        <ele>738.59997558594</ele>
        <time>2021-09-12T05:47:04.000Z</time>
      </trkpt>
      <trkpt lat="45.22553" lon="5.74606">
        <ele>738.79998779297</ele>
        <time>2021-09-12T05:47:05.000Z</time>
      </trkpt>
      <trkpt lat="45.22553" lon="5.74606">
        <ele>739.20001220703</ele>
        <time>2021-09-12T05:47:06.000Z</time>
      </trkpt>
      <trkpt lat="45.22551" lon="5.74604">
        <ele>739.79998779297</ele>
        <time>2021-09-12T05:47:08.000Z</time>
      </trkpt>
      <trkpt lat="45.2255" lon="5.74603">
        <ele>740</ele>
        <time>2021-09-12T05:47:09.000Z</time>
      </trkpt>
      <trkpt lat="45.22549" lon="5.746">
        <ele>740.40002441406</ele>
        <time>2021-09-12T05:47:11.000Z</time>
      </trkpt>
      <trkpt lat="45.22548" lon="5.74598">
        <ele>741</ele>
        <time>2021-09-12T05:47:13.000Z</time>
      </trkpt>
      <trkpt lat="45.22548" lon="5.74597">
        <ele>741.20001220703</ele>
        <time>2021-09-12T05:47:14.000Z</time>
      </trkpt>
      <trkpt lat="45.22545" lon="5.74595">
        <ele>742.20001220703</ele>
        <time>2021-09-12T05:47:18.000Z</time>
      </trkpt>
      <trkpt lat="45.22542" lon="5.74593">
        <ele>742.59997558594</ele>
        <time>2021-09-12T05:47:21.000Z</time>
      </trkpt>
      <trkpt lat="45.22542" lon="5.74592">
        <ele>743.20001220703</ele>
        <time>2021-09-12T05:47:23.000Z</time>
      </trkpt>
      <trkpt lat="45.22539" lon="5.7459">
        <ele>744.40002441406</ele>
        <time>2021-09-12T05:47:27.000Z</time>
      </trkpt>
      <trkpt lat="45.22538" lon="5.74589">
        <ele>744.79998779297</ele>
        <time>2021-09-12T05:47:29.000Z</time>
      </trkpt>
      <trkpt lat="45.22536" lon="5.74586">
        <ele>745.59997558594</ele>
        <time>2021-09-12T05:47:32.000Z</time>
      </trkpt>
      <trkpt lat="45.22535" lon="5.74585">
        <ele>746</ele>
        <time>2021-09-12T05:47:33.000Z</time>
      </trkpt>
      <trkpt lat="45.22534" lon="5.74583">
        <ele>746.20001220703</ele>
        <time>2021-09-12T05:47:35.000Z</time>
      </trkpt>
      <trkpt lat="45.22533" lon="5.74582">
        <ele>746.40002441406</ele>
        <time>2021-09-12T05:47:36.000Z</time>
      </trkpt>
      <trkpt lat="45.22531" lon="5.74581">
        <ele>746.79998779297</ele>
        <time>2021-09-12T05:47:38.000Z</time>
      </trkpt>
      <trkpt lat="45.22528" lon="5.74578">
        <ele>747.79998779297</ele>
        <time>2021-09-12T05:47:42.000Z</time>
      </trkpt>
      <trkpt lat="45.22527" lon="5.74577">
        <ele>748</ele>
        <time>2021-09-12T05:47:43.000Z</time>
      </trkpt>
      <trkpt lat="45.22523" lon="5.74573">
        <ele>748.79998779297</ele>
        <time>2021-09-12T05:47:48.000Z</time>
      </trkpt>
      <trkpt lat="45.22522" lon="5.74571">
        <ele>749.20001220703</ele>
        <time>2021-09-12T05:47:50.000Z</time>
      </trkpt>
      <trkpt lat="45.22521" lon="5.74569">
        <ele>749.59997558594</ele>
        <time>2021-09-12T05:47:52.000Z</time>
      </trkpt>
      <trkpt lat="45.22518" lon="5.74566">
        <ele>750</ele>
        <time>2021-09-12T05:47:55.000Z</time>
      </trkpt>
      <trkpt lat="45.22514" lon="5.74562">
        <ele>750.79998779297</ele>
        <time>2021-09-12T05:47:59.000Z</time>
      </trkpt>
      <trkpt lat="45.22514" lon="5.74561">
        <ele>751</ele>
        <time>2021-09-12T05:48:00.000Z</time>
      </trkpt>
      <trkpt lat="45.22515" lon="5.74561">
        <ele>751</ele>
        <time>2021-09-12T05:48:01.000Z</time>
      </trkpt>
      <trkpt lat="45.22515" lon="5.74561">
        <ele>751.20001220703</ele>
        <time>2021-09-12T05:48:02.000Z</time>
      </trkpt>
      <trkpt lat="45.22514" lon="5.74559">
        <ele>751.20001220703</ele>
        <time>2021-09-12T05:48:03.000Z</time>
      </trkpt>
      <trkpt lat="45.22513" lon="5.74557">
        <ele>751.59997558594</ele>
        <time>2021-09-12T05:48:05.000Z</time>
      </trkpt>
      <trkpt lat="45.22511" lon="5.74556">
        <ele>752</ele>
        <time>2021-09-12T05:48:07.000Z</time>
      </trkpt>
      <trkpt lat="45.2251" lon="5.74554">
        <ele>752.20001220703</ele>
        <time>2021-09-12T05:48:08.000Z</time>
      </trkpt>
      <trkpt lat="45.22504" lon="5.74546">
        <ele>753.20001220703</ele>
        <time>2021-09-12T05:48:14.000Z</time>
      </trkpt>
      <trkpt lat="45.22503" lon="5.74544">
        <ele>753.59997558594</ele>
        <time>2021-09-12T05:48:15.000Z</time>
      </trkpt>
      <trkpt lat="45.225" lon="5.7454">
        <ele>754.20001220703</ele>
        <time>2021-09-12T05:48:19.000Z</time>
      </trkpt>
      <trkpt lat="45.22498" lon="5.74538">
        <ele>754.59997558594</ele>
        <time>2021-09-12T05:48:21.000Z</time>
      </trkpt>
      <trkpt lat="45.22495" lon="5.74534">
        <ele>755.40002441406</ele>
        <time>2021-09-12T05:48:24.000Z</time>
      </trkpt>
      <trkpt lat="45.22488" lon="5.74529">
        <ele>756.59997558594</ele>
        <time>2021-09-12T05:48:30.000Z</time>
      </trkpt>
      <trkpt lat="45.22482" lon="5.74526">
        <ele>757.59997558594</ele>
        <time>2021-09-12T05:48:35.000Z</time>
      </trkpt>
      <trkpt lat="45.22479" lon="5.74526">
        <ele>758.20001220703</ele>
        <time>2021-09-12T05:48:37.000Z</time>
      </trkpt>
      <trkpt lat="45.22477" lon="5.74526">
        <ele>758.79998779297</ele>
        <time>2021-09-12T05:48:40.000Z</time>
      </trkpt>
      <trkpt lat="45.22473" lon="5.74523">
        <ele>759.79998779297</ele>
        <time>2021-09-12T05:48:44.000Z</time>
      </trkpt>
      <trkpt lat="45.22472" lon="5.74523">
        <ele>760</ele>
        <time>2021-09-12T05:48:45.000Z</time>
      </trkpt>
      <trkpt lat="45.22472" lon="5.74522">
        <ele>760.59997558594</ele>
        <time>2021-09-12T05:48:47.000Z</time>
      </trkpt>
      <trkpt lat="45.22471" lon="5.74521">
        <ele>761</ele>
        <time>2021-09-12T05:48:48.000Z</time>
      </trkpt>
      <trkpt lat="45.2247" lon="5.74521">
        <ele>761.20001220703</ele>
        <time>2021-09-12T05:48:49.000Z</time>
      </trkpt>
      <trkpt lat="45.22469" lon="5.7452">
        <ele>761.40002441406</ele>
        <time>2021-09-12T05:48:50.000Z</time>
      </trkpt>
      <trkpt lat="45.22467" lon="5.74518">
        <ele>762.20001220703</ele>
        <time>2021-09-12T05:48:53.000Z</time>
      </trkpt>
      <trkpt lat="45.22465" lon="5.74513">
        <ele>763.40002441406</ele>
        <time>2021-09-12T05:48:57.000Z</time>
      </trkpt>
      <trkpt lat="45.22461" lon="5.74508">
        <ele>764.20001220703</ele>
        <time>2021-09-12T05:49:01.000Z</time>
      </trkpt>
      <trkpt lat="45.22461" lon="5.74507">
        <ele>764.59997558594</ele>
        <time>2021-09-12T05:49:02.000Z</time>
      </trkpt>
      <trkpt lat="45.2246" lon="5.74502">
        <ele>765.40002441406</ele>
        <time>2021-09-12T05:49:05.000Z</time>
      </trkpt>
      <trkpt lat="45.22459" lon="5.745">
        <ele>765.59997558594</ele>
        <time>2021-09-12T05:49:06.000Z</time>
      </trkpt>
      <trkpt lat="45.22458" lon="5.74495">
        <ele>766.59997558594</ele>
        <time>2021-09-12T05:49:11.000Z</time>
      </trkpt>
      <trkpt lat="45.22456" lon="5.74492">
        <ele>767.40002441406</ele>
        <time>2021-09-12T05:49:14.000Z</time>
      </trkpt>
      <trkpt lat="45.22456" lon="5.74491">
        <ele>767.59997558594</ele>
        <time>2021-09-12T05:49:15.000Z</time>
      </trkpt>
      <trkpt lat="45.22454" lon="5.74483">
        <ele>768.79998779297</ele>
        <time>2021-09-12T05:49:21.000Z</time>
      </trkpt>
      <trkpt lat="45.22454" lon="5.74482">
        <ele>769.20001220703</ele>
        <time>2021-09-12T05:49:22.000Z</time>
      </trkpt>
      <trkpt lat="45.22453" lon="5.74478">
        <ele>770</ele>
        <time>2021-09-12T05:49:25.000Z</time>
      </trkpt>
      <trkpt lat="45.22452" lon="5.74469">
        <ele>771</ele>
        <time>2021-09-12T05:49:30.000Z</time>
      </trkpt>
      <trkpt lat="45.2245" lon="5.74464">
        <ele>772</ele>
        <time>2021-09-12T05:49:35.000Z</time>
      </trkpt>
      <trkpt lat="45.22449" lon="5.74463">
        <ele>772.20001220703</ele>
        <time>2021-09-12T05:49:36.000Z</time>
      </trkpt>
      <trkpt lat="45.22449" lon="5.74461">
        <ele>772.40002441406</ele>
        <time>2021-09-12T05:49:37.000Z</time>
      </trkpt>
      <trkpt lat="45.22447" lon="5.74458">
        <ele>773.40002441406</ele>
        <time>2021-09-12T05:49:40.000Z</time>
      </trkpt>
      <trkpt lat="45.22445" lon="5.74454">
        <ele>774.20001220703</ele>
        <time>2021-09-12T05:49:43.000Z</time>
      </trkpt>
      <trkpt lat="45.22443" lon="5.74452">
        <ele>774.40002441406</ele>
        <time>2021-09-12T05:49:44.000Z</time>
      </trkpt>
      <trkpt lat="45.22441" lon="5.74448">
        <ele>775.20001220703</ele>
        <time>2021-09-12T05:49:47.000Z</time>
      </trkpt>
      <trkpt lat="45.22439" lon="5.74445">
        <ele>775.59997558594</ele>
        <time>2021-09-12T05:49:49.000Z</time>
      </trkpt>
      <trkpt lat="45.22436" lon="5.74441">
        <ele>776.79998779297</ele>
        <time>2021-09-12T05:49:53.000Z</time>
      </trkpt>
      <trkpt lat="45.22431" lon="5.74435">
        <ele>777.79998779297</ele>
        <time>2021-09-12T05:49:58.000Z</time>
      </trkpt>
      <trkpt lat="45.2243" lon="5.74434">
        <ele>778</ele>
        <time>2021-09-12T05:49:59.000Z</time>
      </trkpt>
      <trkpt lat="45.22427" lon="5.74427">
        <ele>779</ele>
        <time>2021-09-12T05:50:04.000Z</time>
      </trkpt>
      <trkpt lat="45.22426" lon="5.74424">
        <ele>779.59997558594</ele>
        <time>2021-09-12T05:50:07.000Z</time>
      </trkpt>
      <trkpt lat="45.22424" lon="5.74422">
        <ele>780</ele>
        <time>2021-09-12T05:50:09.000Z</time>
      </trkpt>
      <trkpt lat="45.2242" lon="5.74414">
        <ele>781</ele>
        <time>2021-09-12T05:50:14.000Z</time>
      </trkpt>
      <trkpt lat="45.22419" lon="5.74411">
        <ele>781.20001220703</ele>
        <time>2021-09-12T05:50:16.000Z</time>
      </trkpt>
      <trkpt lat="45.22418" lon="5.74403">
        <ele>782.20001220703</ele>
        <time>2021-09-12T05:50:20.000Z</time>
      </trkpt>
      <trkpt lat="45.22417" lon="5.74399">
        <ele>782.59997558594</ele>
        <time>2021-09-12T05:50:22.000Z</time>
      </trkpt>
      <trkpt lat="45.22414" lon="5.74393">
        <ele>783.59997558594</ele>
        <time>2021-09-12T05:50:26.000Z</time>
      </trkpt>
      <trkpt lat="45.22412" lon="5.74389">
        <ele>784.40002441406</ele>
        <time>2021-09-12T05:50:29.000Z</time>
      </trkpt>
      <trkpt lat="45.22411" lon="5.74388">
        <ele>784.40002441406</ele>
        <time>2021-09-12T05:50:30.000Z</time>
      </trkpt>
      <trkpt lat="45.2241" lon="5.74387">
        <ele>784.79998779297</ele>
        <time>2021-09-12T05:50:31.000Z</time>
      </trkpt>
      <trkpt lat="45.22409" lon="5.74385">
        <ele>785.40002441406</ele>
        <time>2021-09-12T05:50:33.000Z</time>
      </trkpt>
      <trkpt lat="45.22408" lon="5.74383">
        <ele>786</ele>
        <time>2021-09-12T05:50:35.000Z</time>
      </trkpt>
      <trkpt lat="45.22408" lon="5.74381">
        <ele>786</ele>
        <time>2021-09-12T05:50:36.000Z</time>
      </trkpt>
      <trkpt lat="45.22406" lon="5.74376">
        <ele>786.40002441406</ele>
        <time>2021-09-12T05:50:39.000Z</time>
      </trkpt>
      <trkpt lat="45.22405" lon="5.74374">
        <ele>787</ele>
        <time>2021-09-12T05:50:41.000Z</time>
      </trkpt>
      <trkpt lat="45.22404" lon="5.74371">
        <ele>787.79998779297</ele>
        <time>2021-09-12T05:50:43.000Z</time>
      </trkpt>
      <trkpt lat="45.22402" lon="5.74368">
        <ele>788</ele>
        <time>2021-09-12T05:50:45.000Z</time>
      </trkpt>
      <trkpt lat="45.224" lon="5.74363">
        <ele>788.79998779297</ele>
        <time>2021-09-12T05:50:48.000Z</time>
      </trkpt>
      <trkpt lat="45.224" lon="5.74362">
        <ele>789.20001220703</ele>
        <time>2021-09-12T05:50:49.000Z</time>
      </trkpt>
      <trkpt lat="45.22397" lon="5.74356">
        <ele>789.79998779297</ele>
        <time>2021-09-12T05:50:53.000Z</time>
      </trkpt>
      <trkpt lat="45.22396" lon="5.74354">
        <ele>790.20001220703</ele>
        <time>2021-09-12T05:50:54.000Z</time>
      </trkpt>
      <trkpt lat="45.22394" lon="5.74348">
        <ele>791.40002441406</ele>
        <time>2021-09-12T05:50:58.000Z</time>
      </trkpt>
      <trkpt lat="45.22393" lon="5.74343">
        <ele>792.20001220703</ele>
        <time>2021-09-12T05:51:01.000Z</time>
      </trkpt>
      <trkpt lat="45.22393" lon="5.74342">
        <ele>792.40002441406</ele>
        <time>2021-09-12T05:51:02.000Z</time>
      </trkpt>
      <trkpt lat="45.22392" lon="5.74341">
        <ele>792.59997558594</ele>
        <time>2021-09-12T05:51:03.000Z</time>
      </trkpt>
      <trkpt lat="45.22391" lon="5.74338">
        <ele>793.20001220703</ele>
        <time>2021-09-12T05:51:05.000Z</time>
      </trkpt>
      <trkpt lat="45.2239" lon="5.74337">
        <ele>793.59997558594</ele>
        <time>2021-09-12T05:51:06.000Z</time>
      </trkpt>
      <trkpt lat="45.2239" lon="5.74336">
        <ele>794</ele>
        <time>2021-09-12T05:51:07.000Z</time>
      </trkpt>
      <trkpt lat="45.22389" lon="5.74334">
        <ele>794.59997558594</ele>
        <time>2021-09-12T05:51:09.000Z</time>
      </trkpt>
      <trkpt lat="45.22388" lon="5.74334">
        <ele>794.79998779297</ele>
        <time>2021-09-12T05:51:10.000Z</time>
      </trkpt>
      <trkpt lat="45.22387" lon="5.7433">
        <ele>795.40002441406</ele>
        <time>2021-09-12T05:51:13.000Z</time>
      </trkpt>
      <trkpt lat="45.22386" lon="5.74328">
        <ele>796</ele>
        <time>2021-09-12T05:51:15.000Z</time>
      </trkpt>
      <trkpt lat="45.22384" lon="5.74322">
        <ele>797</ele>
        <time>2021-09-12T05:51:19.000Z</time>
      </trkpt>
      <trkpt lat="45.22383" lon="5.7432">
        <ele>797.20001220703</ele>
        <time>2021-09-12T05:51:20.000Z</time>
      </trkpt>
      <trkpt lat="45.22382" lon="5.74316">
        <ele>798.40002441406</ele>
        <time>2021-09-12T05:51:24.000Z</time>
      </trkpt>
      <trkpt lat="45.22381" lon="5.74312">
        <ele>799.20001220703</ele>
        <time>2021-09-12T05:51:27.000Z</time>
      </trkpt>
      <trkpt lat="45.22379" lon="5.74309">
        <ele>799.59997558594</ele>
        <time>2021-09-12T05:51:29.000Z</time>
      </trkpt>
      <trkpt lat="45.22377" lon="5.74303">
        <ele>800.79998779297</ele>
        <time>2021-09-12T05:51:34.000Z</time>
      </trkpt>
      <trkpt lat="45.22376" lon="5.74298">
        <ele>801.59997558594</ele>
        <time>2021-09-12T05:51:37.000Z</time>
      </trkpt>
      <trkpt lat="45.22376" lon="5.74298">
        <ele>801.79998779297</ele>
        <time>2021-09-12T05:51:38.000Z</time>
      </trkpt>
      <trkpt lat="45.22375" lon="5.74297">
        <ele>802</ele>
        <time>2021-09-12T05:51:39.000Z</time>
      </trkpt>
      <trkpt lat="45.22373" lon="5.74291">
        <ele>803</ele>
        <time>2021-09-12T05:51:43.000Z</time>
      </trkpt>
      <trkpt lat="45.22372" lon="5.74288">
        <ele>803.79998779297</ele>
        <time>2021-09-12T05:51:45.000Z</time>
      </trkpt>
      <trkpt lat="45.22371" lon="5.74284">
        <ele>804.20001220703</ele>
        <time>2021-09-12T05:51:47.000Z</time>
      </trkpt>
      <trkpt lat="45.22367" lon="5.74276">
        <ele>805.59997558594</ele>
        <time>2021-09-12T05:51:52.000Z</time>
      </trkpt>
      <trkpt lat="45.22366" lon="5.74271">
        <ele>806.20001220703</ele>
        <time>2021-09-12T05:51:55.000Z</time>
      </trkpt>
      <trkpt lat="45.22365" lon="5.74268">
        <ele>806.59997558594</ele>
        <time>2021-09-12T05:51:57.000Z</time>
      </trkpt>
      <trkpt lat="45.22362" lon="5.74262">
        <ele>807.59997558594</ele>
        <time>2021-09-12T05:52:01.000Z</time>
      </trkpt>
      <trkpt lat="45.22358" lon="5.74254">
        <ele>808.59997558594</ele>
        <time>2021-09-12T05:52:06.000Z</time>
      </trkpt>
      <trkpt lat="45.22357" lon="5.74253">
        <ele>808.79998779297</ele>
        <time>2021-09-12T05:52:07.000Z</time>
      </trkpt>
      <trkpt lat="45.22354" lon="5.74244">
        <ele>810</ele>
        <time>2021-09-12T05:52:14.000Z</time>
      </trkpt>
      <trkpt lat="45.22353" lon="5.74242">
        <ele>810.40002441406</ele>
        <time>2021-09-12T05:52:15.000Z</time>
      </trkpt>
      <trkpt lat="45.22351" lon="5.74239">
        <ele>811</ele>
        <time>2021-09-12T05:52:18.000Z</time>
      </trkpt>
      <trkpt lat="45.2235" lon="5.74237">
        <ele>811.20001220703</ele>
        <time>2021-09-12T05:52:19.000Z</time>
      </trkpt>
      <trkpt lat="45.22347" lon="5.74231">
        <ele>812.40002441406</ele>
        <time>2021-09-12T05:52:22.000Z</time>
      </trkpt>
      <trkpt lat="45.22345" lon="5.7423">
        <ele>812.79998779297</ele>
        <time>2021-09-12T05:52:24.000Z</time>
      </trkpt>
      <trkpt lat="45.22342" lon="5.74229">
        <ele>813.59997558594</ele>
        <time>2021-09-12T05:52:27.000Z</time>
      </trkpt>
      <trkpt lat="45.22341" lon="5.74228">
        <ele>814</ele>
        <time>2021-09-12T05:52:28.000Z</time>
      </trkpt>
      <trkpt lat="45.22337" lon="5.74223">
        <ele>814.79998779297</ele>
        <time>2021-09-12T05:52:31.000Z</time>
      </trkpt>
      <trkpt lat="45.22336" lon="5.74223">
        <ele>815</ele>
        <time>2021-09-12T05:52:32.000Z</time>
      </trkpt>
      <trkpt lat="45.22335" lon="5.74224">
        <ele>815</ele>
        <time>2021-09-12T05:52:33.000Z</time>
      </trkpt>
      <trkpt lat="45.22334" lon="5.74224">
        <ele>815.59997558594</ele>
        <time>2021-09-12T05:52:35.000Z</time>
      </trkpt>
      <trkpt lat="45.22333" lon="5.74224">
        <ele>816</ele>
        <time>2021-09-12T05:52:36.000Z</time>
      </trkpt>
      <trkpt lat="45.22332" lon="5.74223">
        <ele>816.59997558594</ele>
        <time>2021-09-12T05:52:37.000Z</time>
      </trkpt>
      <trkpt lat="45.2233" lon="5.74221">
        <ele>817</ele>
        <time>2021-09-12T05:52:39.000Z</time>
      </trkpt>
      <trkpt lat="45.2233" lon="5.74221">
        <ele>817.20001220703</ele>
        <time>2021-09-12T05:52:40.000Z</time>
      </trkpt>
      <trkpt lat="45.22327" lon="5.74217">
        <ele>818.40002441406</ele>
        <time>2021-09-12T05:52:44.000Z</time>
      </trkpt>
      <trkpt lat="45.22326" lon="5.74215">
        <ele>819</ele>
        <time>2021-09-12T05:52:46.000Z</time>
      </trkpt>
      <trkpt lat="45.22324" lon="5.74213">
        <ele>819.40002441406</ele>
        <time>2021-09-12T05:52:48.000Z</time>
      </trkpt>
      <trkpt lat="45.22321" lon="5.74212">
        <ele>819.79998779297</ele>
        <time>2021-09-12T05:52:50.000Z</time>
      </trkpt>
      <trkpt lat="45.22318" lon="5.74211">
        <ele>820.79998779297</ele>
        <time>2021-09-12T05:52:53.000Z</time>
      </trkpt>
      <trkpt lat="45.22316" lon="5.7421">
        <ele>821</ele>
        <time>2021-09-12T05:52:54.000Z</time>
      </trkpt>
      <trkpt lat="45.22314" lon="5.74207">
        <ele>821.40002441406</ele>
        <time>2021-09-12T05:52:56.000Z</time>
      </trkpt>
      <trkpt lat="45.22311" lon="5.74201">
        <ele>822</ele>
        <time>2021-09-12T05:52:59.000Z</time>
      </trkpt>
      <trkpt lat="45.22309" lon="5.74198">
        <ele>822.20001220703</ele>
        <time>2021-09-12T05:53:01.000Z</time>
      </trkpt>
      <trkpt lat="45.22308" lon="5.74197">
        <ele>822.40002441406</ele>
        <time>2021-09-12T05:53:02.000Z</time>
      </trkpt>
      <trkpt lat="45.22303" lon="5.74194">
        <ele>822.79998779297</ele>
        <time>2021-09-12T05:53:06.000Z</time>
      </trkpt>
      <trkpt lat="45.22302" lon="5.74193">
        <ele>823</ele>
        <time>2021-09-12T05:53:07.000Z</time>
      </trkpt>
      <trkpt lat="45.22298" lon="5.74188">
        <ele>823.40002441406</ele>
        <time>2021-09-12T05:53:11.000Z</time>
      </trkpt>
      <trkpt lat="45.22292" lon="5.74177">
        <ele>824</ele>
        <time>2021-09-12T05:53:16.000Z</time>
      </trkpt>
      <trkpt lat="45.22288" lon="5.74171">
        <ele>824.59997558594</ele>
        <time>2021-09-12T05:53:19.000Z</time>
      </trkpt>
      <trkpt lat="45.22285" lon="5.74163">
        <ele>825.20001220703</ele>
        <time>2021-09-12T05:53:23.000Z</time>
      </trkpt>
      <trkpt lat="45.22283" lon="5.74155">
        <ele>825.59997558594</ele>
        <time>2021-09-12T05:53:26.000Z</time>
      </trkpt>
      <trkpt lat="45.2228" lon="5.74149">
        <ele>826.20001220703</ele>
        <time>2021-09-12T05:53:30.000Z</time>
      </trkpt>
      <trkpt lat="45.2228" lon="5.74147">
        <ele>826.40002441406</ele>
        <time>2021-09-12T05:53:31.000Z</time>
      </trkpt>
      <trkpt lat="45.22279" lon="5.74146">
        <ele>826.59997558594</ele>
        <time>2021-09-12T05:53:32.000Z</time>
      </trkpt>
      <trkpt lat="45.22277" lon="5.74139">
        <ele>827.40002441406</ele>
        <time>2021-09-12T05:53:35.000Z</time>
      </trkpt>
      <trkpt lat="45.22275" lon="5.74137">
        <ele>827.59997558594</ele>
        <time>2021-09-12T05:53:37.000Z</time>
      </trkpt>
      <trkpt lat="45.22271" lon="5.7413">
        <ele>828.40002441406</ele>
        <time>2021-09-12T05:53:41.000Z</time>
      </trkpt>
      <trkpt lat="45.22269" lon="5.74127">
        <ele>829</ele>
        <time>2021-09-12T05:53:43.000Z</time>
      </trkpt>
      <trkpt lat="45.22267" lon="5.74125">
        <ele>829.59997558594</ele>
        <time>2021-09-12T05:53:45.000Z</time>
      </trkpt>
      <trkpt lat="45.22267" lon="5.74123">
        <ele>829.59997558594</ele>
        <time>2021-09-12T05:53:46.000Z</time>
      </trkpt>
      <trkpt lat="45.22265" lon="5.74121">
        <ele>830.40002441406</ele>
        <time>2021-09-12T05:53:48.000Z</time>
      </trkpt>
      <trkpt lat="45.22262" lon="5.7412">
        <ele>830.59997558594</ele>
        <time>2021-09-12T05:53:50.000Z</time>
      </trkpt>
      <trkpt lat="45.2226" lon="5.74118">
        <ele>831.59997558594</ele>
        <time>2021-09-12T05:53:52.000Z</time>
      </trkpt>
      <trkpt lat="45.22259" lon="5.74118">
        <ele>831.79998779297</ele>
        <time>2021-09-12T05:53:53.000Z</time>
      </trkpt>
      <trkpt lat="45.22259" lon="5.74117">
        <ele>832.20001220703</ele>
        <time>2021-09-12T05:53:54.000Z</time>
      </trkpt>
      <trkpt lat="45.22255" lon="5.74115">
        <ele>833</ele>
        <time>2021-09-12T05:53:57.000Z</time>
      </trkpt>
      <trkpt lat="45.22254" lon="5.74116">
        <ele>833.40002441406</ele>
        <time>2021-09-12T05:53:58.000Z</time>
      </trkpt>
      <trkpt lat="45.22253" lon="5.74115">
        <ele>833.59997558594</ele>
        <time>2021-09-12T05:53:59.000Z</time>
      </trkpt>
      <trkpt lat="45.22251" lon="5.74111">
        <ele>834.20001220703</ele>
        <time>2021-09-12T05:54:01.000Z</time>
      </trkpt>
      <trkpt lat="45.22248" lon="5.74106">
        <ele>835</ele>
        <time>2021-09-12T05:54:04.000Z</time>
      </trkpt>
      <trkpt lat="45.22247" lon="5.74105">
        <ele>835.20001220703</ele>
        <time>2021-09-12T05:54:05.000Z</time>
      </trkpt>
      <trkpt lat="45.22246" lon="5.74104">
        <ele>835.59997558594</ele>
        <time>2021-09-12T05:54:06.000Z</time>
      </trkpt>
      <trkpt lat="45.22244" lon="5.74104">
        <ele>836.20001220703</ele>
        <time>2021-09-12T05:54:08.000Z</time>
      </trkpt>
      <trkpt lat="45.22242" lon="5.74104">
        <ele>836.79998779297</ele>
        <time>2021-09-12T05:54:10.000Z</time>
      </trkpt>
      <trkpt lat="45.2224" lon="5.74104">
        <ele>837.20001220703</ele>
        <time>2021-09-12T05:54:11.000Z</time>
      </trkpt>
      <trkpt lat="45.22238" lon="5.74102">
        <ele>837.79998779297</ele>
        <time>2021-09-12T05:54:13.000Z</time>
      </trkpt>
      <trkpt lat="45.22236" lon="5.74097">
        <ele>838.20001220703</ele>
        <time>2021-09-12T05:54:15.000Z</time>
      </trkpt>
      <trkpt lat="45.22236" lon="5.74095">
        <ele>838.40002441406</ele>
        <time>2021-09-12T05:54:16.000Z</time>
      </trkpt>
      <trkpt lat="45.22231" lon="5.74088">
        <ele>839.40002441406</ele>
        <time>2021-09-12T05:54:21.000Z</time>
      </trkpt>
      <trkpt lat="45.2223" lon="5.74087">
        <ele>839.59997558594</ele>
        <time>2021-09-12T05:54:22.000Z</time>
      </trkpt>
      <trkpt lat="45.22229" lon="5.74086">
        <ele>839.79998779297</ele>
        <time>2021-09-12T05:54:23.000Z</time>
      </trkpt>
      <trkpt lat="45.22223" lon="5.74077">
        <ele>840.59997558594</ele>
        <time>2021-09-12T05:54:28.000Z</time>
      </trkpt>
      <trkpt lat="45.22217" lon="5.74065">
        <ele>841.79998779297</ele>
        <time>2021-09-12T05:54:35.000Z</time>
      </trkpt>
      <trkpt lat="45.22213" lon="5.74062">
        <ele>842.59997558594</ele>
        <time>2021-09-12T05:54:38.000Z</time>
      </trkpt>
      <trkpt lat="45.22211" lon="5.74062">
        <ele>842.79998779297</ele>
        <time>2021-09-12T05:54:40.000Z</time>
      </trkpt>
      <trkpt lat="45.22204" lon="5.74052">
        <ele>844</ele>
        <time>2021-09-12T05:54:46.000Z</time>
      </trkpt>
      <trkpt lat="45.22203" lon="5.7405">
        <ele>844.20001220703</ele>
        <time>2021-09-12T05:54:47.000Z</time>
      </trkpt>
      <trkpt lat="45.22198" lon="5.74045">
        <ele>845</ele>
        <time>2021-09-12T05:54:50.000Z</time>
      </trkpt>
      <trkpt lat="45.22194" lon="5.74038">
        <ele>845.59997558594</ele>
        <time>2021-09-12T05:54:53.000Z</time>
      </trkpt>
      <trkpt lat="45.22193" lon="5.74035">
        <ele>846</ele>
        <time>2021-09-12T05:54:55.000Z</time>
      </trkpt>
      <trkpt lat="45.22192" lon="5.74033">
        <ele>846.40002441406</ele>
        <time>2021-09-12T05:54:56.000Z</time>
      </trkpt>
      <trkpt lat="45.2219" lon="5.74029">
        <ele>847.40002441406</ele>
        <time>2021-09-12T05:54:59.000Z</time>
      </trkpt>
      <trkpt lat="45.22188" lon="5.74023">
        <ele>848.59997558594</ele>
        <time>2021-09-12T05:55:03.000Z</time>
      </trkpt>
      <trkpt lat="45.22187" lon="5.74018">
        <ele>849.59997558594</ele>
        <time>2021-09-12T05:55:07.000Z</time>
      </trkpt>
      <trkpt lat="45.22186" lon="5.74017">
        <ele>849.79998779297</ele>
        <time>2021-09-12T05:55:08.000Z</time>
      </trkpt>
      <trkpt lat="45.22184" lon="5.74013">
        <ele>851</ele>
        <time>2021-09-12T05:55:11.000Z</time>
      </trkpt>
      <trkpt lat="45.22182" lon="5.7401">
        <ele>851.79998779297</ele>
        <time>2021-09-12T05:55:14.000Z</time>
      </trkpt>
      <trkpt lat="45.22181" lon="5.74008">
        <ele>852</ele>
        <time>2021-09-12T05:55:15.000Z</time>
      </trkpt>
      <trkpt lat="45.22179" lon="5.74005">
        <ele>852.59997558594</ele>
        <time>2021-09-12T05:55:18.000Z</time>
      </trkpt>
      <trkpt lat="45.22177" lon="5.74003">
        <ele>853.20001220703</ele>
        <time>2021-09-12T05:55:20.000Z</time>
      </trkpt>
      <trkpt lat="45.22175" lon="5.74001">
        <ele>853.59997558594</ele>
        <time>2021-09-12T05:55:22.000Z</time>
      </trkpt>
      <trkpt lat="45.22174" lon="5.73999">
        <ele>853.79998779297</ele>
        <time>2021-09-12T05:55:23.000Z</time>
      </trkpt>
      <trkpt lat="45.22171" lon="5.73996">
        <ele>854.20001220703</ele>
        <time>2021-09-12T05:55:26.000Z</time>
      </trkpt>
      <trkpt lat="45.22169" lon="5.73995">
        <ele>854.79998779297</ele>
        <time>2021-09-12T05:55:29.000Z</time>
      </trkpt>
      <trkpt lat="45.22168" lon="5.73993">
        <ele>855</ele>
        <time>2021-09-12T05:55:30.000Z</time>
      </trkpt>
      <trkpt lat="45.22167" lon="5.73991">
        <ele>855.40002441406</ele>
        <time>2021-09-12T05:55:32.000Z</time>
      </trkpt>
      <trkpt lat="45.22162" lon="5.73987">
        <ele>856.40002441406</ele>
        <time>2021-09-12T05:55:36.000Z</time>
      </trkpt>
      <trkpt lat="45.22161" lon="5.73986">
        <ele>856.40002441406</ele>
        <time>2021-09-12T05:55:37.000Z</time>
      </trkpt>
      <trkpt lat="45.22156" lon="5.73976">
        <ele>857.40002441406</ele>
        <time>2021-09-12T05:55:42.000Z</time>
      </trkpt>
      <trkpt lat="45.22155" lon="5.73974">
        <ele>857.59997558594</ele>
        <time>2021-09-12T05:55:43.000Z</time>
      </trkpt>
      <trkpt lat="45.22153" lon="5.73971">
        <ele>858</ele>
        <time>2021-09-12T05:55:45.000Z</time>
      </trkpt>
      <trkpt lat="45.22149" lon="5.73964">
        <ele>858.40002441406</ele>
        <time>2021-09-12T05:55:48.000Z</time>
      </trkpt>
      <trkpt lat="45.22148" lon="5.73965">
        <ele>858.40002441406</ele>
        <time>2021-09-12T05:55:49.000Z</time>
      </trkpt>
      <trkpt lat="45.22147" lon="5.73965">
        <ele>858.59997558594</ele>
        <time>2021-09-12T05:55:50.000Z</time>
      </trkpt>
      <trkpt lat="45.22143" lon="5.73963">
        <ele>859.40002441406</ele>
        <time>2021-09-12T05:55:54.000Z</time>
      </trkpt>
      <trkpt lat="45.22142" lon="5.73962">
        <ele>859.79998779297</ele>
        <time>2021-09-12T05:55:55.000Z</time>
      </trkpt>
      <trkpt lat="45.22141" lon="5.73961">
        <ele>860</ele>
        <time>2021-09-12T05:55:56.000Z</time>
      </trkpt>
      <trkpt lat="45.22138" lon="5.73955">
        <ele>860.79998779297</ele>
        <time>2021-09-12T05:55:59.000Z</time>
      </trkpt>
      <trkpt lat="45.22138" lon="5.73954">
        <ele>861.20001220703</ele>
        <time>2021-09-12T05:56:00.000Z</time>
      </trkpt>
      <trkpt lat="45.22136" lon="5.7395">
        <ele>862</ele>
        <time>2021-09-12T05:56:02.000Z</time>
      </trkpt>
      <trkpt lat="45.22134" lon="5.73946">
        <ele>863</ele>
        <time>2021-09-12T05:56:06.000Z</time>
      </trkpt>
      <trkpt lat="45.2213" lon="5.73943">
        <ele>864</ele>
        <time>2021-09-12T05:56:10.000Z</time>
      </trkpt>
      <trkpt lat="45.22129" lon="5.73942">
        <ele>864.59997558594</ele>
        <time>2021-09-12T05:56:11.000Z</time>
      </trkpt>
      <trkpt lat="45.22126" lon="5.73938">
        <ele>865.59997558594</ele>
        <time>2021-09-12T05:56:15.000Z</time>
      </trkpt>
      <trkpt lat="45.22126" lon="5.73938">
        <ele>866</ele>
        <time>2021-09-12T05:56:16.000Z</time>
      </trkpt>
      <trkpt lat="45.22125" lon="5.73937">
        <ele>866.40002441406</ele>
        <time>2021-09-12T05:56:17.000Z</time>
      </trkpt>
      <trkpt lat="45.22123" lon="5.73934">
        <ele>866.59997558594</ele>
        <time>2021-09-12T05:56:19.000Z</time>
      </trkpt>
      <trkpt lat="45.22121" lon="5.73933">
        <ele>866.79998779297</ele>
        <time>2021-09-12T05:56:20.000Z</time>
      </trkpt>
      <trkpt lat="45.22119" lon="5.7393">
        <ele>867.40002441406</ele>
        <time>2021-09-12T05:56:22.000Z</time>
      </trkpt>
      <trkpt lat="45.22114" lon="5.73925">
        <ele>868</ele>
        <time>2021-09-12T05:56:26.000Z</time>
      </trkpt>
      <trkpt lat="45.2211" lon="5.73923">
        <ele>868.40002441406</ele>
        <time>2021-09-12T05:56:28.000Z</time>
      </trkpt>
      <trkpt lat="45.22109" lon="5.73921">
        <ele>868.40002441406</ele>
        <time>2021-09-12T05:56:29.000Z</time>
      </trkpt>
      <trkpt lat="45.22106" lon="5.73915">
        <ele>869</ele>
        <time>2021-09-12T05:56:33.000Z</time>
      </trkpt>
      <trkpt lat="45.22103" lon="5.73912">
        <ele>869.20001220703</ele>
        <time>2021-09-12T05:56:35.000Z</time>
      </trkpt>
      <trkpt lat="45.221" lon="5.73909">
        <ele>869.79998779297</ele>
        <time>2021-09-12T05:56:38.000Z</time>
      </trkpt>
      <trkpt lat="45.22098" lon="5.73905">
        <ele>870.20001220703</ele>
        <time>2021-09-12T05:56:40.000Z</time>
      </trkpt>
      <trkpt lat="45.22096" lon="5.739">
        <ele>870.59997558594</ele>
        <time>2021-09-12T05:56:42.000Z</time>
      </trkpt>
      <trkpt lat="45.22095" lon="5.73899">
        <ele>870.59997558594</ele>
        <time>2021-09-12T05:56:43.000Z</time>
      </trkpt>
      <trkpt lat="45.22094" lon="5.73898">
        <ele>871</ele>
        <time>2021-09-12T05:56:45.000Z</time>
      </trkpt>
      <trkpt lat="45.22093" lon="5.73897">
        <ele>871.40002441406</ele>
        <time>2021-09-12T05:56:46.000Z</time>
      </trkpt>
      <trkpt lat="45.22092" lon="5.73896">
        <ele>871.79998779297</ele>
        <time>2021-09-12T05:56:47.000Z</time>
      </trkpt>
      <trkpt lat="45.2209" lon="5.73896">
        <ele>872.20001220703</ele>
        <time>2021-09-12T05:56:49.000Z</time>
      </trkpt>
      <trkpt lat="45.22088" lon="5.73895">
        <ele>872.40002441406</ele>
        <time>2021-09-12T05:56:51.000Z</time>
      </trkpt>
      <trkpt lat="45.22087" lon="5.73893">
        <ele>872.79998779297</ele>
        <time>2021-09-12T05:56:52.000Z</time>
      </trkpt>
      <trkpt lat="45.22086" lon="5.73891">
        <ele>873.20001220703</ele>
        <time>2021-09-12T05:56:53.000Z</time>
      </trkpt>
      <trkpt lat="45.22087" lon="5.73885">
        <ele>874</ele>
        <time>2021-09-12T05:56:55.000Z</time>
      </trkpt>
      <trkpt lat="45.2209" lon="5.73886">
        <ele>874.20001220703</ele>
        <time>2021-09-12T05:56:57.000Z</time>
      </trkpt>
      <trkpt lat="45.22092" lon="5.73885">
        <ele>874.40002441406</ele>
        <time>2021-09-12T05:57:00.000Z</time>
      </trkpt>
      <trkpt lat="45.22093" lon="5.73885">
        <ele>874.59997558594</ele>
        <time>2021-09-12T05:57:02.000Z</time>
      </trkpt>
      <trkpt lat="45.22094" lon="5.73886">
        <ele>875.20001220703</ele>
        <time>2021-09-12T05:57:04.000Z</time>
      </trkpt>
      <trkpt lat="45.22097" lon="5.73885">
        <ele>875.59997558594</ele>
        <time>2021-09-12T05:57:06.000Z</time>
      </trkpt>
      <trkpt lat="45.22101" lon="5.73886">
        <ele>875.79998779297</ele>
        <time>2021-09-12T05:57:08.000Z</time>
      </trkpt>
      <trkpt lat="45.22105" lon="5.73887">
        <ele>876.20001220703</ele>
        <time>2021-09-12T05:57:11.000Z</time>
      </trkpt>
      <trkpt lat="45.22108" lon="5.73887">
        <ele>876.59997558594</ele>
        <time>2021-09-12T05:57:14.000Z</time>
      </trkpt>
      <trkpt lat="45.22113" lon="5.73886">
        <ele>877.40002441406</ele>
        <time>2021-09-12T05:57:17.000Z</time>
      </trkpt>
      <trkpt lat="45.22118" lon="5.73886">
        <ele>877.79998779297</ele>
        <time>2021-09-12T05:57:20.000Z</time>
      </trkpt>
      <trkpt lat="45.22124" lon="5.73886">
        <ele>878.59997558594</ele>
        <time>2021-09-12T05:57:23.000Z</time>
      </trkpt>
      <trkpt lat="45.22137" lon="5.73887">
        <ele>879.59997558594</ele>
        <time>2021-09-12T05:57:29.000Z</time>
      </trkpt>
      <trkpt lat="45.22139" lon="5.73886">
        <ele>879.79998779297</ele>
        <time>2021-09-12T05:57:30.000Z</time>
      </trkpt>
      <trkpt lat="45.22149" lon="5.73891">
        <ele>880.40002441406</ele>
        <time>2021-09-12T05:57:34.000Z</time>
      </trkpt>
      <trkpt lat="45.2215" lon="5.73891">
        <ele>880.59997558594</ele>
        <time>2021-09-12T05:57:35.000Z</time>
      </trkpt>
      <trkpt lat="45.2215" lon="5.73891">
        <ele>880.79998779297</ele>
        <time>2021-09-12T05:57:36.000Z</time>
      </trkpt>
      <trkpt lat="45.22152" lon="5.73892">
        <ele>881</ele>
        <time>2021-09-12T05:57:38.000Z</time>
      </trkpt>
      <trkpt lat="45.22155" lon="5.73892">
        <ele>881.59997558594</ele>
        <time>2021-09-12T05:57:40.000Z</time>
      </trkpt>
      <trkpt lat="45.22157" lon="5.73892">
        <ele>882</ele>
        <time>2021-09-12T05:57:42.000Z</time>
      </trkpt>
      <trkpt lat="45.22161" lon="5.73895">
        <ele>882.79998779297</ele>
        <time>2021-09-12T05:57:46.000Z</time>
      </trkpt>
      <trkpt lat="45.22162" lon="5.73895">
        <ele>882.79998779297</ele>
        <time>2021-09-12T05:57:47.000Z</time>
      </trkpt>
      <trkpt lat="45.22163" lon="5.73896">
        <ele>883.20001220703</ele>
        <time>2021-09-12T05:57:48.000Z</time>
      </trkpt>
      <trkpt lat="45.22172" lon="5.73902">
        <ele>884.20001220703</ele>
        <time>2021-09-12T05:57:53.000Z</time>
      </trkpt>
      <trkpt lat="45.22175" lon="5.73905">
        <ele>884.40002441406</ele>
        <time>2021-09-12T05:57:54.000Z</time>
      </trkpt>
      <trkpt lat="45.22184" lon="5.73912">
        <ele>885.20001220703</ele>
        <time>2021-09-12T05:57:59.000Z</time>
      </trkpt>
      <trkpt lat="45.22184" lon="5.73913">
        <ele>885.40002441406</ele>
        <time>2021-09-12T05:58:00.000Z</time>
      </trkpt>
      <trkpt lat="45.22186" lon="5.73915">
        <ele>885.59997558594</ele>
        <time>2021-09-12T05:58:02.000Z</time>
      </trkpt>
      <trkpt lat="45.22189" lon="5.73917">
        <ele>886</ele>
        <time>2021-09-12T05:58:04.000Z</time>
      </trkpt>
      <trkpt lat="45.22192" lon="5.73918">
        <ele>886.40002441406</ele>
        <time>2021-09-12T05:58:06.000Z</time>
      </trkpt>
      <trkpt lat="45.22194" lon="5.73919">
        <ele>886.59997558594</ele>
        <time>2021-09-12T05:58:07.000Z</time>
      </trkpt>
      <trkpt lat="45.22195" lon="5.73921">
        <ele>886.79998779297</ele>
        <time>2021-09-12T05:58:08.000Z</time>
      </trkpt>
      <trkpt lat="45.22198" lon="5.73925">
        <ele>887.40002441406</ele>
        <time>2021-09-12T05:58:10.000Z</time>
      </trkpt>
      <trkpt lat="45.22206" lon="5.73936">
        <ele>888.40002441406</ele>
        <time>2021-09-12T05:58:15.000Z</time>
      </trkpt>
      <trkpt lat="45.22208" lon="5.73938">
        <ele>888.59997558594</ele>
        <time>2021-09-12T05:58:16.000Z</time>
      </trkpt>
      <trkpt lat="45.22216" lon="5.73951">
        <ele>889.79998779297</ele>
        <time>2021-09-12T05:58:22.000Z</time>
      </trkpt>
      <trkpt lat="45.22218" lon="5.73953">
        <ele>890</ele>
        <time>2021-09-12T05:58:23.000Z</time>
      </trkpt>
      <trkpt lat="45.22225" lon="5.73959">
        <ele>890.40002441406</ele>
        <time>2021-09-12T05:58:27.000Z</time>
      </trkpt>
      <trkpt lat="45.22227" lon="5.7396">
        <ele>891</ele>
        <time>2021-09-12T05:58:29.000Z</time>
      </trkpt>
      <trkpt lat="45.22236" lon="5.73967">
        <ele>891.40002441406</ele>
        <time>2021-09-12T05:58:33.000Z</time>
      </trkpt>
      <trkpt lat="45.22247" lon="5.73972">
        <ele>892</ele>
        <time>2021-09-12T05:58:39.000Z</time>
      </trkpt>
      <trkpt lat="45.2225" lon="5.73973">
        <ele>892.40002441406</ele>
        <time>2021-09-12T05:58:41.000Z</time>
      </trkpt>
      <trkpt lat="45.22254" lon="5.73973">
        <ele>892.79998779297</ele>
        <time>2021-09-12T05:58:43.000Z</time>
      </trkpt>
      <trkpt lat="45.22257" lon="5.73973">
        <ele>893.20001220703</ele>
        <time>2021-09-12T05:58:45.000Z</time>
      </trkpt>
      <trkpt lat="45.22261" lon="5.73975">
        <ele>893.40002441406</ele>
        <time>2021-09-12T05:58:47.000Z</time>
      </trkpt>
      <trkpt lat="45.22265" lon="5.73976">
        <ele>893.59997558594</ele>
        <time>2021-09-12T05:58:48.000Z</time>
      </trkpt>
      <trkpt lat="45.2227" lon="5.7398">
        <ele>894.20001220703</ele>
        <time>2021-09-12T05:58:50.000Z</time>
      </trkpt>
      <trkpt lat="45.22272" lon="5.73982">
        <ele>894.40002441406</ele>
        <time>2021-09-12T05:58:51.000Z</time>
      </trkpt>
      <trkpt lat="45.22277" lon="5.73987">
        <ele>894.59997558594</ele>
        <time>2021-09-12T05:58:53.000Z</time>
      </trkpt>
      <trkpt lat="45.22281" lon="5.73992">
        <ele>895</ele>
        <time>2021-09-12T05:58:55.000Z</time>
      </trkpt>
      <trkpt lat="45.22285" lon="5.73992">
        <ele>895.40002441406</ele>
        <time>2021-09-12T05:58:57.000Z</time>
      </trkpt>
      <trkpt lat="45.22288" lon="5.73993">
        <ele>895.79998779297</ele>
        <time>2021-09-12T05:58:59.000Z</time>
      </trkpt>
      <trkpt lat="45.22295" lon="5.73995">
        <ele>896.59997558594</ele>
        <time>2021-09-12T05:59:02.000Z</time>
      </trkpt>
      <trkpt lat="45.22305" lon="5.74">
        <ele>897.40002441406</ele>
        <time>2021-09-12T05:59:07.000Z</time>
      </trkpt>
      <trkpt lat="45.22308" lon="5.74001">
        <ele>897.59997558594</ele>
        <time>2021-09-12T05:59:08.000Z</time>
      </trkpt>
      <trkpt lat="45.22315" lon="5.74005">
        <ele>898.40002441406</ele>
        <time>2021-09-12T05:59:12.000Z</time>
      </trkpt>
      <trkpt lat="45.22317" lon="5.74005">
        <ele>898.59997558594</ele>
        <time>2021-09-12T05:59:13.000Z</time>
      </trkpt>
      <trkpt lat="45.22319" lon="5.74006">
        <ele>898.79998779297</ele>
        <time>2021-09-12T05:59:14.000Z</time>
      </trkpt>
      <trkpt lat="45.22323" lon="5.74007">
        <ele>899</ele>
        <time>2021-09-12T05:59:16.000Z</time>
      </trkpt>
      <trkpt lat="45.2233" lon="5.7401">
        <ele>899.59997558594</ele>
        <time>2021-09-12T05:59:20.000Z</time>
      </trkpt>
      <trkpt lat="45.22331" lon="5.74011">
        <ele>899.79998779297</ele>
        <time>2021-09-12T05:59:21.000Z</time>
      </trkpt>
      <trkpt lat="45.22333" lon="5.74012">
        <ele>900.40002441406</ele>
        <time>2021-09-12T05:59:23.000Z</time>
      </trkpt>
      <trkpt lat="45.22338" lon="5.74013">
        <ele>900.59997558594</ele>
        <time>2021-09-12T05:59:25.000Z</time>
      </trkpt>
      <trkpt lat="45.2234" lon="5.74014">
        <ele>900.79998779297</ele>
        <time>2021-09-12T05:59:26.000Z</time>
      </trkpt>
      <trkpt lat="45.22342" lon="5.74016">
        <ele>901</ele>
        <time>2021-09-12T05:59:27.000Z</time>
      </trkpt>
      <trkpt lat="45.22345" lon="5.74017">
        <ele>901.20001220703</ele>
        <time>2021-09-12T05:59:29.000Z</time>
      </trkpt>
      <trkpt lat="45.22346" lon="5.74019">
        <ele>901.40002441406</ele>
        <time>2021-09-12T05:59:30.000Z</time>
      </trkpt>
      <trkpt lat="45.2235" lon="5.74021">
        <ele>902</ele>
        <time>2021-09-12T05:59:32.000Z</time>
      </trkpt>
      <trkpt lat="45.2236" lon="5.74028">
        <ele>902.79998779297</ele>
        <time>2021-09-12T05:59:37.000Z</time>
      </trkpt>
      <trkpt lat="45.22371" lon="5.7404">
        <ele>902.59997558594</ele>
        <time>2021-09-12T05:59:42.000Z</time>
      </trkpt>
      <trkpt lat="45.22372" lon="5.74041">
        <ele>902.59997558594</ele>
        <time>2021-09-12T05:59:43.000Z</time>
      </trkpt>
      <trkpt lat="45.22376" lon="5.74044">
        <ele>902.40002441406</ele>
        <time>2021-09-12T05:59:45.000Z</time>
      </trkpt>
      <trkpt lat="45.22378" lon="5.74045">
        <ele>902.40002441406</ele>
        <time>2021-09-12T05:59:47.000Z</time>
      </trkpt>
      <trkpt lat="45.22385" lon="5.74047">
        <ele>902.40002441406</ele>
        <time>2021-09-12T05:59:50.000Z</time>
      </trkpt>
      <trkpt lat="45.22398" lon="5.74053">
        <ele>902.59997558594</ele>
        <time>2021-09-12T05:59:55.000Z</time>
      </trkpt>
      <trkpt lat="45.22408" lon="5.74062">
        <ele>903.20001220703</ele>
        <time>2021-09-12T05:59:59.000Z</time>
      </trkpt>
      <trkpt lat="45.22416" lon="5.74068">
        <ele>903.59997558594</ele>
        <time>2021-09-12T06:00:02.000Z</time>
      </trkpt>
      <trkpt lat="45.22421" lon="5.74072">
        <ele>904.20001220703</ele>
        <time>2021-09-12T06:00:05.000Z</time>
      </trkpt>
      <trkpt lat="45.22434" lon="5.7408">
        <ele>905.40002441406</ele>
        <time>2021-09-12T06:00:11.000Z</time>
      </trkpt>
      <trkpt lat="45.22445" lon="5.74087">
        <ele>906.59997558594</ele>
        <time>2021-09-12T06:00:17.000Z</time>
      </trkpt>
      <trkpt lat="45.22447" lon="5.74087">
        <ele>907.20001220703</ele>
        <time>2021-09-12T06:00:19.000Z</time>
      </trkpt>
      <trkpt lat="45.22452" lon="5.74089">
        <ele>907.79998779297</ele>
        <time>2021-09-12T06:00:22.000Z</time>
      </trkpt>
      <trkpt lat="45.22458" lon="5.74093">
        <ele>908.79998779297</ele>
        <time>2021-09-12T06:00:26.000Z</time>
      </trkpt>
      <trkpt lat="45.2246" lon="5.74094">
        <ele>908.79998779297</ele>
        <time>2021-09-12T06:00:27.000Z</time>
      </trkpt>
      <trkpt lat="45.22467" lon="5.74096">
        <ele>909.79998779297</ele>
        <time>2021-09-12T06:00:31.000Z</time>
      </trkpt>
      <trkpt lat="45.22469" lon="5.74096">
        <ele>910</ele>
        <time>2021-09-12T06:00:32.000Z</time>
      </trkpt>
      <trkpt lat="45.22474" lon="5.74096">
        <ele>910.59997558594</ele>
        <time>2021-09-12T06:00:35.000Z</time>
      </trkpt>
      <trkpt lat="45.22476" lon="5.74097">
        <ele>911</ele>
        <time>2021-09-12T06:00:36.000Z</time>
      </trkpt>
      <trkpt lat="45.22479" lon="5.74098">
        <ele>911</ele>
        <time>2021-09-12T06:00:37.000Z</time>
      </trkpt>
      <trkpt lat="45.22488" lon="5.741">
        <ele>912.20001220703</ele>
        <time>2021-09-12T06:00:42.000Z</time>
      </trkpt>
      <trkpt lat="45.22501" lon="5.74105">
        <ele>913.40002441406</ele>
        <time>2021-09-12T06:00:48.000Z</time>
      </trkpt>
      <trkpt lat="45.2251" lon="5.74107">
        <ele>914.20001220703</ele>
        <time>2021-09-12T06:00:53.000Z</time>
      </trkpt>
      <trkpt lat="45.22511" lon="5.74108">
        <ele>914.40002441406</ele>
        <time>2021-09-12T06:00:54.000Z</time>
      </trkpt>
      <trkpt lat="45.22521" lon="5.74105">
        <ele>915.20001220703</ele>
        <time>2021-09-12T06:00:59.000Z</time>
      </trkpt>
      <trkpt lat="45.22523" lon="5.74104">
        <ele>915.40002441406</ele>
        <time>2021-09-12T06:01:00.000Z</time>
      </trkpt>
      <trkpt lat="45.22536" lon="5.74106">
        <ele>916.59997558594</ele>
        <time>2021-09-12T06:01:06.000Z</time>
      </trkpt>
      <trkpt lat="45.22546" lon="5.74107">
        <ele>917.59997558594</ele>
        <time>2021-09-12T06:01:11.000Z</time>
      </trkpt>
      <trkpt lat="45.2255" lon="5.74107">
        <ele>918</ele>
        <time>2021-09-12T06:01:13.000Z</time>
      </trkpt>
      <trkpt lat="45.22559" lon="5.74106">
        <ele>918.79998779297</ele>
        <time>2021-09-12T06:01:18.000Z</time>
      </trkpt>
      <trkpt lat="45.22562" lon="5.74104">
        <ele>919.20001220703</ele>
        <time>2021-09-12T06:01:20.000Z</time>
      </trkpt>
      <trkpt lat="45.22569" lon="5.74099">
        <ele>920</ele>
        <time>2021-09-12T06:01:24.000Z</time>
      </trkpt>
      <trkpt lat="45.2257" lon="5.74098">
        <ele>920.20001220703</ele>
        <time>2021-09-12T06:01:25.000Z</time>
      </trkpt>
      <trkpt lat="45.22579" lon="5.74093">
        <ele>921</ele>
        <time>2021-09-12T06:01:30.000Z</time>
      </trkpt>
      <trkpt lat="45.2258" lon="5.74093">
        <ele>921.20001220703</ele>
        <time>2021-09-12T06:01:31.000Z</time>
      </trkpt>
      <trkpt lat="45.22585" lon="5.74091">
        <ele>922.20001220703</ele>
        <time>2021-09-12T06:01:35.000Z</time>
      </trkpt>
      <trkpt lat="45.22589" lon="5.74091">
        <ele>922.40002441406</ele>
        <time>2021-09-12T06:01:37.000Z</time>
      </trkpt>
      <trkpt lat="45.22597" lon="5.74092">
        <ele>923.20001220703</ele>
        <time>2021-09-12T06:01:40.000Z</time>
      </trkpt>
      <trkpt lat="45.22599" lon="5.74093">
        <ele>923.59997558594</ele>
        <time>2021-09-12T06:01:41.000Z</time>
      </trkpt>
      <trkpt lat="45.2261" lon="5.74093">
        <ele>924.40002441406</ele>
        <time>2021-09-12T06:01:46.000Z</time>
      </trkpt>
      <trkpt lat="45.22615" lon="5.74094">
        <ele>925</ele>
        <time>2021-09-12T06:01:48.000Z</time>
      </trkpt>
      <trkpt lat="45.22622" lon="5.74097">
        <ele>925.59997558594</ele>
        <time>2021-09-12T06:01:51.000Z</time>
      </trkpt>
      <trkpt lat="45.2263" lon="5.741">
        <ele>926.20001220703</ele>
        <time>2021-09-12T06:01:55.000Z</time>
      </trkpt>
      <trkpt lat="45.22634" lon="5.74101">
        <ele>926.59997558594</ele>
        <time>2021-09-12T06:01:57.000Z</time>
      </trkpt>
      <trkpt lat="45.22644" lon="5.74104">
        <ele>927.59997558594</ele>
        <time>2021-09-12T06:02:02.000Z</time>
      </trkpt>
      <trkpt lat="45.22646" lon="5.74104">
        <ele>927.59997558594</ele>
        <time>2021-09-12T06:02:03.000Z</time>
      </trkpt>
      <trkpt lat="45.22651" lon="5.74102">
        <ele>928.40002441406</ele>
        <time>2021-09-12T06:02:06.000Z</time>
      </trkpt>
      <trkpt lat="45.22655" lon="5.74103">
        <ele>928.79998779297</ele>
        <time>2021-09-12T06:02:08.000Z</time>
      </trkpt>
      <trkpt lat="45.22664" lon="5.74103">
        <ele>929.40002441406</ele>
        <time>2021-09-12T06:02:13.000Z</time>
      </trkpt>
      <trkpt lat="45.22668" lon="5.74104">
        <ele>930</ele>
        <time>2021-09-12T06:02:15.000Z</time>
      </trkpt>
      <trkpt lat="45.22677" lon="5.74105">
        <ele>930.79998779297</ele>
        <time>2021-09-12T06:02:20.000Z</time>
      </trkpt>
      <trkpt lat="45.22679" lon="5.74106">
        <ele>931</ele>
        <time>2021-09-12T06:02:21.000Z</time>
      </trkpt>
      <trkpt lat="45.22687" lon="5.74107">
        <ele>932</ele>
        <time>2021-09-12T06:02:26.000Z</time>
      </trkpt>
      <trkpt lat="45.22689" lon="5.74107">
        <ele>932.20001220703</ele>
        <time>2021-09-12T06:02:27.000Z</time>
      </trkpt>
      <trkpt lat="45.22693" lon="5.74107">
        <ele>932.79998779297</ele>
        <time>2021-09-12T06:02:29.000Z</time>
      </trkpt>
      <trkpt lat="45.22696" lon="5.74108">
        <ele>933.20001220703</ele>
        <time>2021-09-12T06:02:31.000Z</time>
      </trkpt>
      <trkpt lat="45.22701" lon="5.74107">
        <ele>933.59997558594</ele>
        <time>2021-09-12T06:02:34.000Z</time>
      </trkpt>
      <trkpt lat="45.22707" lon="5.74107">
        <ele>934.40002441406</ele>
        <time>2021-09-12T06:02:37.000Z</time>
      </trkpt>
      <trkpt lat="45.22713" lon="5.74108">
        <ele>934.79998779297</ele>
        <time>2021-09-12T06:02:40.000Z</time>
      </trkpt>
      <trkpt lat="45.22718" lon="5.74109">
        <ele>935.20001220703</ele>
        <time>2021-09-12T06:02:42.000Z</time>
      </trkpt>
      <trkpt lat="45.2272" lon="5.74109">
        <ele>935.59997558594</ele>
        <time>2021-09-12T06:02:43.000Z</time>
      </trkpt>
      <trkpt lat="45.22728" lon="5.7411">
        <ele>936.40002441406</ele>
        <time>2021-09-12T06:02:47.000Z</time>
      </trkpt>
      <trkpt lat="45.22734" lon="5.74113">
        <ele>936.79998779297</ele>
        <time>2021-09-12T06:02:50.000Z</time>
      </trkpt>
      <trkpt lat="45.22738" lon="5.74114">
        <ele>937.40002441406</ele>
        <time>2021-09-12T06:02:53.000Z</time>
      </trkpt>
      <trkpt lat="45.22741" lon="5.74115">
        <ele>938</ele>
        <time>2021-09-12T06:02:55.000Z</time>
      </trkpt>
      <trkpt lat="45.22746" lon="5.74118">
        <ele>938.40002441406</ele>
        <time>2021-09-12T06:02:58.000Z</time>
      </trkpt>
      <trkpt lat="45.22748" lon="5.7412">
        <ele>938.79998779297</ele>
        <time>2021-09-12T06:03:00.000Z</time>
      </trkpt>
      <trkpt lat="45.22749" lon="5.74121">
        <ele>939</ele>
        <time>2021-09-12T06:03:01.000Z</time>
      </trkpt>
      <trkpt lat="45.22753" lon="5.74124">
        <ele>939.79998779297</ele>
        <time>2021-09-12T06:03:04.000Z</time>
      </trkpt>
      <trkpt lat="45.22757" lon="5.74126">
        <ele>940.20001220703</ele>
        <time>2021-09-12T06:03:07.000Z</time>
      </trkpt>
      <trkpt lat="45.22758" lon="5.74126">
        <ele>940.40002441406</ele>
        <time>2021-09-12T06:03:08.000Z</time>
      </trkpt>
      <trkpt lat="45.22763" lon="5.74128">
        <ele>941.20001220703</ele>
        <time>2021-09-12T06:03:11.000Z</time>
      </trkpt>
      <trkpt lat="45.22771" lon="5.74129">
        <ele>942</ele>
        <time>2021-09-12T06:03:16.000Z</time>
      </trkpt>
      <trkpt lat="45.22774" lon="5.7413">
        <ele>942.40002441406</ele>
        <time>2021-09-12T06:03:18.000Z</time>
      </trkpt>
      <trkpt lat="45.22781" lon="5.74133">
        <ele>943</ele>
        <time>2021-09-12T06:03:22.000Z</time>
      </trkpt>
      <trkpt lat="45.22787" lon="5.74137">
        <ele>943.40002441406</ele>
        <time>2021-09-12T06:03:25.000Z</time>
      </trkpt>
      <trkpt lat="45.22788" lon="5.74138">
        <ele>944</ele>
        <time>2021-09-12T06:03:27.000Z</time>
      </trkpt>
      <trkpt lat="45.2279" lon="5.74138">
        <ele>944.20001220703</ele>
        <time>2021-09-12T06:03:28.000Z</time>
      </trkpt>
      <trkpt lat="45.22794" lon="5.74139">
        <ele>944.59997558594</ele>
        <time>2021-09-12T06:03:30.000Z</time>
      </trkpt>
      <trkpt lat="45.22795" lon="5.74139">
        <ele>944.59997558594</ele>
        <time>2021-09-12T06:03:31.000Z</time>
      </trkpt>
      <trkpt lat="45.22798" lon="5.7414">
        <ele>944.79998779297</ele>
        <time>2021-09-12T06:03:32.000Z</time>
      </trkpt>
      <trkpt lat="45.22804" lon="5.74142">
        <ele>945.59997558594</ele>
        <time>2021-09-12T06:03:36.000Z</time>
      </trkpt>
      <trkpt lat="45.2281" lon="5.74143">
        <ele>946</ele>
        <time>2021-09-12T06:03:39.000Z</time>
      </trkpt>
      <trkpt lat="45.22817" lon="5.74143">
        <ele>947</ele>
        <time>2021-09-12T06:03:43.000Z</time>
      </trkpt>
      <trkpt lat="45.2282" lon="5.74145">
        <ele>947.40002441406</ele>
        <time>2021-09-12T06:03:45.000Z</time>
      </trkpt>
      <trkpt lat="45.22823" lon="5.74147">
        <ele>947.40002441406</ele>
        <time>2021-09-12T06:03:46.000Z</time>
      </trkpt>
      <trkpt lat="45.22827" lon="5.74147">
        <ele>947.59997558594</ele>
        <time>2021-09-12T06:03:48.000Z</time>
      </trkpt>
      <trkpt lat="45.22832" lon="5.74148">
        <ele>948.20001220703</ele>
        <time>2021-09-12T06:03:50.000Z</time>
      </trkpt>
      <trkpt lat="45.22837" lon="5.74151">
        <ele>948.59997558594</ele>
        <time>2021-09-12T06:03:52.000Z</time>
      </trkpt>
      <trkpt lat="45.22839" lon="5.74151">
        <ele>948.79998779297</ele>
        <time>2021-09-12T06:03:53.000Z</time>
      </trkpt>
      <trkpt lat="45.2284" lon="5.74151">
        <ele>949</ele>
        <time>2021-09-12T06:03:54.000Z</time>
      </trkpt>
      <trkpt lat="45.22841" lon="5.74151">
        <ele>949.20001220703</ele>
        <time>2021-09-12T06:03:55.000Z</time>
      </trkpt>
      <trkpt lat="45.22845" lon="5.74152">
        <ele>949.59997558594</ele>
        <time>2021-09-12T06:03:57.000Z</time>
      </trkpt>
      <trkpt lat="45.22849" lon="5.74152">
        <ele>950.20001220703</ele>
        <time>2021-09-12T06:03:59.000Z</time>
      </trkpt>
      <trkpt lat="45.22851" lon="5.74153">
        <ele>950.40002441406</ele>
        <time>2021-09-12T06:04:00.000Z</time>
      </trkpt>
      <trkpt lat="45.22855" lon="5.74156">
        <ele>950.79998779297</ele>
        <time>2021-09-12T06:04:03.000Z</time>
      </trkpt>
      <trkpt lat="45.22857" lon="5.74158">
        <ele>951</ele>
        <time>2021-09-12T06:04:04.000Z</time>
      </trkpt>
      <trkpt lat="45.22858" lon="5.74158">
        <ele>951.40002441406</ele>
        <time>2021-09-12T06:04:05.000Z</time>
      </trkpt>
      <trkpt lat="45.22862" lon="5.74161">
        <ele>951.79998779297</ele>
        <time>2021-09-12T06:04:07.000Z</time>
      </trkpt>
      <trkpt lat="45.22864" lon="5.74161">
        <ele>952.20001220703</ele>
        <time>2021-09-12T06:04:09.000Z</time>
      </trkpt>
      <trkpt lat="45.22866" lon="5.74163">
        <ele>952.20001220703</ele>
        <time>2021-09-12T06:04:10.000Z</time>
      </trkpt>
      <trkpt lat="45.2287" lon="5.74165">
        <ele>952.40002441406</ele>
        <time>2021-09-12T06:04:11.000Z</time>
      </trkpt>
      <trkpt lat="45.22875" lon="5.74168">
        <ele>953</ele>
        <time>2021-09-12T06:04:13.000Z</time>
      </trkpt>
      <trkpt lat="45.22877" lon="5.74169">
        <ele>953.40002441406</ele>
        <time>2021-09-12T06:04:14.000Z</time>
      </trkpt>
      <trkpt lat="45.22878" lon="5.74171">
        <ele>953.59997558594</ele>
        <time>2021-09-12T06:04:15.000Z</time>
      </trkpt>
      <trkpt lat="45.22881" lon="5.74173">
        <ele>954</ele>
        <time>2021-09-12T06:04:17.000Z</time>
      </trkpt>
      <trkpt lat="45.22885" lon="5.74176">
        <ele>954.79998779297</ele>
        <time>2021-09-12T06:04:20.000Z</time>
      </trkpt>
      <trkpt lat="45.22888" lon="5.74177">
        <ele>955.20001220703</ele>
        <time>2021-09-12T06:04:23.000Z</time>
      </trkpt>
      <trkpt lat="45.22895" lon="5.7418">
        <ele>955.79998779297</ele>
        <time>2021-09-12T06:04:27.000Z</time>
      </trkpt>
      <trkpt lat="45.22899" lon="5.74181">
        <ele>956.20001220703</ele>
        <time>2021-09-12T06:04:29.000Z</time>
      </trkpt>
      <trkpt lat="45.22905" lon="5.74182">
        <ele>957</ele>
        <time>2021-09-12T06:04:33.000Z</time>
      </trkpt>
      <trkpt lat="45.22915" lon="5.74188">
        <ele>958</ele>
        <time>2021-09-12T06:04:39.000Z</time>
      </trkpt>
      <trkpt lat="45.22918" lon="5.74189">
        <ele>958.59997558594</ele>
        <time>2021-09-12T06:04:41.000Z</time>
      </trkpt>
      <trkpt lat="45.22919" lon="5.7419">
        <ele>958.79998779297</ele>
        <time>2021-09-12T06:04:42.000Z</time>
      </trkpt>
      <trkpt lat="45.22924" lon="5.74191">
        <ele>959.20001220703</ele>
        <time>2021-09-12T06:04:45.000Z</time>
      </trkpt>
      <trkpt lat="45.22932" lon="5.74192">
        <ele>960.40002441406</ele>
        <time>2021-09-12T06:04:50.000Z</time>
      </trkpt>
      <trkpt lat="45.22934" lon="5.74192">
        <ele>960.79998779297</ele>
        <time>2021-09-12T06:04:51.000Z</time>
      </trkpt>
      <trkpt lat="45.22947" lon="5.74204">
        <ele>961.59997558594</ele>
        <time>2021-09-12T06:04:56.000Z</time>
      </trkpt>
      <trkpt lat="45.22948" lon="5.74204">
        <ele>961.79998779297</ele>
        <time>2021-09-12T06:04:57.000Z</time>
      </trkpt>
      <trkpt lat="45.2295" lon="5.74204">
        <ele>962.20001220703</ele>
        <time>2021-09-12T06:04:58.000Z</time>
      </trkpt>
      <trkpt lat="45.22952" lon="5.74204">
        <ele>962.40002441406</ele>
        <time>2021-09-12T06:04:59.000Z</time>
      </trkpt>
      <trkpt lat="45.22954" lon="5.74206">
        <ele>962.59997558594</ele>
        <time>2021-09-12T06:05:00.000Z</time>
      </trkpt>
      <trkpt lat="45.22956" lon="5.74207">
        <ele>962.79998779297</ele>
        <time>2021-09-12T06:05:01.000Z</time>
      </trkpt>
      <trkpt lat="45.2296" lon="5.74208">
        <ele>963</ele>
        <time>2021-09-12T06:05:03.000Z</time>
      </trkpt>
      <trkpt lat="45.22964" lon="5.74209">
        <ele>963.59997558594</ele>
        <time>2021-09-12T06:05:05.000Z</time>
      </trkpt>
      <trkpt lat="45.22967" lon="5.74209">
        <ele>963.79998779297</ele>
        <time>2021-09-12T06:05:06.000Z</time>
      </trkpt>
      <trkpt lat="45.22974" lon="5.74212">
        <ele>964.20001220703</ele>
        <time>2021-09-12T06:05:09.000Z</time>
      </trkpt>
      <trkpt lat="45.22977" lon="5.74213">
        <ele>964.59997558594</ele>
        <time>2021-09-12T06:05:11.000Z</time>
      </trkpt>
      <trkpt lat="45.22979" lon="5.74215">
        <ele>965</ele>
        <time>2021-09-12T06:05:13.000Z</time>
      </trkpt>
      <trkpt lat="45.22982" lon="5.74217">
        <ele>965.59997558594</ele>
        <time>2021-09-12T06:05:15.000Z</time>
      </trkpt>
      <trkpt lat="45.22984" lon="5.74219">
        <ele>966</ele>
        <time>2021-09-12T06:05:17.000Z</time>
      </trkpt>
      <trkpt lat="45.22994" lon="5.7422">
        <ele>967</ele>
        <time>2021-09-12T06:05:23.000Z</time>
      </trkpt>
      <trkpt lat="45.22996" lon="5.7422">
        <ele>967.20001220703</ele>
        <time>2021-09-12T06:05:24.000Z</time>
      </trkpt>
      <trkpt lat="45.23" lon="5.74222">
        <ele>967.79998779297</ele>
        <time>2021-09-12T06:05:27.000Z</time>
      </trkpt>
      <trkpt lat="45.23003" lon="5.74222">
        <ele>968.20001220703</ele>
        <time>2021-09-12T06:05:29.000Z</time>
      </trkpt>
      <trkpt lat="45.23009" lon="5.74224">
        <ele>968.79998779297</ele>
        <time>2021-09-12T06:05:32.000Z</time>
      </trkpt>
      <trkpt lat="45.23012" lon="5.74226">
        <ele>969</ele>
        <time>2021-09-12T06:05:34.000Z</time>
      </trkpt>
      <trkpt lat="45.23014" lon="5.74226">
        <ele>969.20001220703</ele>
        <time>2021-09-12T06:05:35.000Z</time>
      </trkpt>
      <trkpt lat="45.23016" lon="5.74226">
        <ele>969.59997558594</ele>
        <time>2021-09-12T06:05:36.000Z</time>
      </trkpt>
      <trkpt lat="45.23019" lon="5.74227">
        <ele>970</ele>
        <time>2021-09-12T06:05:38.000Z</time>
      </trkpt>
      <trkpt lat="45.23024" lon="5.74227">
        <ele>970.79998779297</ele>
        <time>2021-09-12T06:05:42.000Z</time>
      </trkpt>
      <trkpt lat="45.23028" lon="5.74228">
        <ele>971.40002441406</ele>
        <time>2021-09-12T06:05:45.000Z</time>
      </trkpt>
      <trkpt lat="45.23029" lon="5.74229">
        <ele>971.59997558594</ele>
        <time>2021-09-12T06:05:46.000Z</time>
      </trkpt>
      <trkpt lat="45.2303" lon="5.74229">
        <ele>971.79998779297</ele>
        <time>2021-09-12T06:05:47.000Z</time>
      </trkpt>
      <trkpt lat="45.23037" lon="5.74233">
        <ele>972.59997558594</ele>
        <time>2021-09-12T06:05:51.000Z</time>
      </trkpt>
      <trkpt lat="45.23039" lon="5.74234">
        <ele>972.79998779297</ele>
        <time>2021-09-12T06:05:52.000Z</time>
      </trkpt>
      <trkpt lat="45.2305" lon="5.74236">
        <ele>973.79998779297</ele>
        <time>2021-09-12T06:05:58.000Z</time>
      </trkpt>
      <trkpt lat="45.23059" lon="5.7424">
        <ele>974.59997558594</ele>
        <time>2021-09-12T06:06:02.000Z</time>
      </trkpt>
      <trkpt lat="45.2306" lon="5.74241">
        <ele>975</ele>
        <time>2021-09-12T06:06:03.000Z</time>
      </trkpt>
      <trkpt lat="45.23062" lon="5.74242">
        <ele>975.20001220703</ele>
        <time>2021-09-12T06:06:04.000Z</time>
      </trkpt>
      <trkpt lat="45.23065" lon="5.74243">
        <ele>975.40002441406</ele>
        <time>2021-09-12T06:06:06.000Z</time>
      </trkpt>
      <trkpt lat="45.23072" lon="5.74244">
        <ele>976.20001220703</ele>
        <time>2021-09-12T06:06:09.000Z</time>
      </trkpt>
      <trkpt lat="45.23074" lon="5.74244">
        <ele>976.40002441406</ele>
        <time>2021-09-12T06:06:10.000Z</time>
      </trkpt>
      <trkpt lat="45.23085" lon="5.7425">
        <ele>977.40002441406</ele>
        <time>2021-09-12T06:06:14.000Z</time>
      </trkpt>
      <trkpt lat="45.23088" lon="5.74251">
        <ele>977.59997558594</ele>
        <time>2021-09-12T06:06:16.000Z</time>
      </trkpt>
      <trkpt lat="45.23093" lon="5.74253">
        <ele>978</ele>
        <time>2021-09-12T06:06:18.000Z</time>
      </trkpt>
      <trkpt lat="45.23097" lon="5.74255">
        <ele>978.59997558594</ele>
        <time>2021-09-12T06:06:20.000Z</time>
      </trkpt>
      <trkpt lat="45.23104" lon="5.74256">
        <ele>979.20001220703</ele>
        <time>2021-09-12T06:06:23.000Z</time>
      </trkpt>
      <trkpt lat="45.23106" lon="5.74257">
        <ele>979.40002441406</ele>
        <time>2021-09-12T06:06:24.000Z</time>
      </trkpt>
      <trkpt lat="45.23109" lon="5.74257">
        <ele>979.79998779297</ele>
        <time>2021-09-12T06:06:26.000Z</time>
      </trkpt>
      <trkpt lat="45.23111" lon="5.74257">
        <ele>980.40002441406</ele>
        <time>2021-09-12T06:06:28.000Z</time>
      </trkpt>
      <trkpt lat="45.23112" lon="5.74258">
        <ele>980.59997558594</ele>
        <time>2021-09-12T06:06:29.000Z</time>
      </trkpt>
      <trkpt lat="45.23115" lon="5.74258">
        <ele>981</ele>
        <time>2021-09-12T06:06:31.000Z</time>
      </trkpt>
      <trkpt lat="45.23124" lon="5.74262">
        <ele>982</ele>
        <time>2021-09-12T06:06:35.000Z</time>
      </trkpt>
      <trkpt lat="45.23126" lon="5.74263">
        <ele>982</ele>
        <time>2021-09-12T06:06:36.000Z</time>
      </trkpt>
      <trkpt lat="45.23139" lon="5.74268">
        <ele>983.20001220703</ele>
        <time>2021-09-12T06:06:42.000Z</time>
      </trkpt>
      <trkpt lat="45.23142" lon="5.74269">
        <ele>983.40002441406</ele>
        <time>2021-09-12T06:06:43.000Z</time>
      </trkpt>
      <trkpt lat="45.23147" lon="5.7427">
        <ele>984.20001220703</ele>
        <time>2021-09-12T06:06:45.000Z</time>
      </trkpt>
      <trkpt lat="45.23152" lon="5.74274">
        <ele>984.40002441406</ele>
        <time>2021-09-12T06:06:47.000Z</time>
      </trkpt>
      <trkpt lat="45.23158" lon="5.74281">
        <ele>985</ele>
        <time>2021-09-12T06:06:50.000Z</time>
      </trkpt>
      <trkpt lat="45.23161" lon="5.74282">
        <ele>985.40002441406</ele>
        <time>2021-09-12T06:06:51.000Z</time>
      </trkpt>
      <trkpt lat="45.23172" lon="5.74284">
        <ele>986.20001220703</ele>
        <time>2021-09-12T06:06:57.000Z</time>
      </trkpt>
      <trkpt lat="45.23174" lon="5.74285">
        <ele>986.40002441406</ele>
        <time>2021-09-12T06:06:58.000Z</time>
      </trkpt>
      <trkpt lat="45.23186" lon="5.74291">
        <ele>987.59997558594</ele>
        <time>2021-09-12T06:07:04.000Z</time>
      </trkpt>
      <trkpt lat="45.23196" lon="5.74293">
        <ele>988.59997558594</ele>
        <time>2021-09-12T06:07:09.000Z</time>
      </trkpt>
      <trkpt lat="45.232" lon="5.74295">
        <ele>989.40002441406</ele>
        <time>2021-09-12T06:07:12.000Z</time>
      </trkpt>
      <trkpt lat="45.23203" lon="5.74295">
        <ele>989.79998779297</ele>
        <time>2021-09-12T06:07:14.000Z</time>
      </trkpt>
      <trkpt lat="45.23211" lon="5.74296">
        <ele>990.79998779297</ele>
        <time>2021-09-12T06:07:18.000Z</time>
      </trkpt>
      <trkpt lat="45.23212" lon="5.74296">
        <ele>990.79998779297</ele>
        <time>2021-09-12T06:07:19.000Z</time>
      </trkpt>
      <trkpt lat="45.23221" lon="5.74296">
        <ele>991.79998779297</ele>
        <time>2021-09-12T06:07:24.000Z</time>
      </trkpt>
      <trkpt lat="45.23227" lon="5.74299">
        <ele>992.20001220703</ele>
        <time>2021-09-12T06:07:26.000Z</time>
      </trkpt>
      <trkpt lat="45.23233" lon="5.74302">
        <ele>992.79998779297</ele>
        <time>2021-09-12T06:07:29.000Z</time>
      </trkpt>
      <trkpt lat="45.23243" lon="5.74309">
        <ele>994</ele>
        <time>2021-09-12T06:07:34.000Z</time>
      </trkpt>
      <trkpt lat="45.23247" lon="5.74311">
        <ele>994.40002441406</ele>
        <time>2021-09-12T06:07:36.000Z</time>
      </trkpt>
      <trkpt lat="45.23254" lon="5.74317">
        <ele>995.20001220703</ele>
        <time>2021-09-12T06:07:39.000Z</time>
      </trkpt>
      <trkpt lat="45.23264" lon="5.74326">
        <ele>996.20001220703</ele>
        <time>2021-09-12T06:07:44.000Z</time>
      </trkpt>
      <trkpt lat="45.23265" lon="5.74327">
        <ele>996.40002441406</ele>
        <time>2021-09-12T06:07:45.000Z</time>
      </trkpt>
      <trkpt lat="45.23274" lon="5.74335">
        <ele>997.40002441406</ele>
        <time>2021-09-12T06:07:51.000Z</time>
      </trkpt>
      <trkpt lat="45.23279" lon="5.74341">
        <ele>998.40002441406</ele>
        <time>2021-09-12T06:07:55.000Z</time>
      </trkpt>
      <trkpt lat="45.23279" lon="5.74342">
        <ele>998.40002441406</ele>
        <time>2021-09-12T06:07:56.000Z</time>
      </trkpt>
      <trkpt lat="45.23289" lon="5.74349">
        <ele>999.59997558594</ele>
        <time>2021-09-12T06:08:02.000Z</time>
      </trkpt>
      <trkpt lat="45.23298" lon="5.74357">
        <ele>1000.799987793</ele>
        <time>2021-09-12T06:08:07.000Z</time>
      </trkpt>
      <trkpt lat="45.23302" lon="5.7436">
        <ele>1001.200012207</ele>
        <time>2021-09-12T06:08:09.000Z</time>
      </trkpt>
      <trkpt lat="45.23307" lon="5.74364">
        <ele>1001.799987793</ele>
        <time>2021-09-12T06:08:12.000Z</time>
      </trkpt>
      <trkpt lat="45.23317" lon="5.7437">
        <ele>1002.799987793</ele>
        <time>2021-09-12T06:08:17.000Z</time>
      </trkpt>
      <trkpt lat="45.23319" lon="5.74372">
        <ele>1003</ele>
        <time>2021-09-12T06:08:18.000Z</time>
      </trkpt>
      <trkpt lat="45.23327" lon="5.74376">
        <ele>1004</ele>
        <time>2021-09-12T06:08:22.000Z</time>
      </trkpt>
      <trkpt lat="45.23335" lon="5.74378">
        <ele>1004.4000244141</ele>
        <time>2021-09-12T06:08:26.000Z</time>
      </trkpt>
      <trkpt lat="45.23338" lon="5.74377">
        <ele>1005</ele>
        <time>2021-09-12T06:08:28.000Z</time>
      </trkpt>
      <trkpt lat="45.23345" lon="5.74374">
        <ele>1005.5999755859</ele>
        <time>2021-09-12T06:08:31.000Z</time>
      </trkpt>
      <trkpt lat="45.2335" lon="5.74374">
        <ele>1006</ele>
        <time>2021-09-12T06:08:34.000Z</time>
      </trkpt>
      <trkpt lat="45.23361" lon="5.74372">
        <ele>1007</ele>
        <time>2021-09-12T06:08:40.000Z</time>
      </trkpt>
      <trkpt lat="45.23364" lon="5.74372">
        <ele>1007.200012207</ele>
        <time>2021-09-12T06:08:41.000Z</time>
      </trkpt>
      <trkpt lat="45.2337" lon="5.74371">
        <ele>1008</ele>
        <time>2021-09-12T06:08:44.000Z</time>
      </trkpt>
      <trkpt lat="45.23374" lon="5.74371">
        <ele>1008.200012207</ele>
        <time>2021-09-12T06:08:46.000Z</time>
      </trkpt>
      <trkpt lat="45.23384" lon="5.74369">
        <ele>1009.200012207</ele>
        <time>2021-09-12T06:08:51.000Z</time>
      </trkpt>
      <trkpt lat="45.23385" lon="5.74368">
        <ele>1009.4000244141</ele>
        <time>2021-09-12T06:08:52.000Z</time>
      </trkpt>
      <trkpt lat="45.23385" lon="5.74366">
        <ele>1009.799987793</ele>
        <time>2021-09-12T06:08:54.000Z</time>
      </trkpt>
      <trkpt lat="45.23384" lon="5.74365">
        <ele>1010</ele>
        <time>2021-09-12T06:08:55.000Z</time>
      </trkpt>
      <trkpt lat="45.23383" lon="5.74364">
        <ele>1010.200012207</ele>
        <time>2021-09-12T06:08:56.000Z</time>
      </trkpt>
      <trkpt lat="45.2338" lon="5.74359">
        <ele>1010.4000244141</ele>
        <time>2021-09-12T06:08:59.000Z</time>
      </trkpt>
      <trkpt lat="45.23379" lon="5.74357">
        <ele>1010.4000244141</ele>
        <time>2021-09-12T06:09:00.000Z</time>
      </trkpt>
      <trkpt lat="45.23372" lon="5.74343">
        <ele>1011.5999755859</ele>
        <time>2021-09-12T06:09:07.000Z</time>
      </trkpt>
      <trkpt lat="45.2337" lon="5.74336">
        <ele>1012.5999755859</ele>
        <time>2021-09-12T06:09:10.000Z</time>
      </trkpt>
      <trkpt lat="45.2337" lon="5.74334">
        <ele>1013</ele>
        <time>2021-09-12T06:09:11.000Z</time>
      </trkpt>
      <trkpt lat="45.2337" lon="5.74328">
        <ele>1013.200012207</ele>
        <time>2021-09-12T06:09:13.000Z</time>
      </trkpt>
      <trkpt lat="45.23371" lon="5.74321">
        <ele>1013.4000244141</ele>
        <time>2021-09-12T06:09:15.000Z</time>
      </trkpt>
      <trkpt lat="45.23371" lon="5.74318">
        <ele>1013.4000244141</ele>
        <time>2021-09-12T06:09:16.000Z</time>
      </trkpt>
      <trkpt lat="45.23371" lon="5.74313">
        <ele>1013.799987793</ele>
        <time>2021-09-12T06:09:18.000Z</time>
      </trkpt>
      <trkpt lat="45.23371" lon="5.74312">
        <ele>1014.200012207</ele>
        <time>2021-09-12T06:09:19.000Z</time>
      </trkpt>
      <trkpt lat="45.23373" lon="5.74307">
        <ele>1014.5999755859</ele>
        <time>2021-09-12T06:09:21.000Z</time>
      </trkpt>
      <trkpt lat="45.23374" lon="5.74305">
        <ele>1014.5999755859</ele>
        <time>2021-09-12T06:09:22.000Z</time>
      </trkpt>
      <trkpt lat="45.23376" lon="5.74297">
        <ele>1015.200012207</ele>
        <time>2021-09-12T06:09:25.000Z</time>
      </trkpt>
      <trkpt lat="45.23377" lon="5.74295">
        <ele>1015.4000244141</ele>
        <time>2021-09-12T06:09:26.000Z</time>
      </trkpt>
      <trkpt lat="45.2338" lon="5.74292">
        <ele>1016.200012207</ele>
        <time>2021-09-12T06:09:28.000Z</time>
      </trkpt>
      <trkpt lat="45.23381" lon="5.74288">
        <ele>1016.5999755859</ele>
        <time>2021-09-12T06:09:30.000Z</time>
      </trkpt>
      <trkpt lat="45.23382" lon="5.74282">
        <ele>1017.5999755859</ele>
        <time>2021-09-12T06:09:32.000Z</time>
      </trkpt>
      <trkpt lat="45.23383" lon="5.74275">
        <ele>1018.5999755859</ele>
        <time>2021-09-12T06:09:35.000Z</time>
      </trkpt>
      <trkpt lat="45.23383" lon="5.74271">
        <ele>1019.799987793</ele>
        <time>2021-09-12T06:09:38.000Z</time>
      </trkpt>
      <trkpt lat="45.23385" lon="5.74266">
        <ele>1020.799987793</ele>
        <time>2021-09-12T06:09:41.000Z</time>
      </trkpt>
      <trkpt lat="45.23386" lon="5.74263">
        <ele>1021.200012207</ele>
        <time>2021-09-12T06:09:43.000Z</time>
      </trkpt>
      <trkpt lat="45.23383" lon="5.7426">
        <ele>1021.200012207</ele>
        <time>2021-09-12T06:09:45.000Z</time>
      </trkpt>
      <trkpt lat="45.23377" lon="5.74252">
        <ele>1021.5999755859</ele>
        <time>2021-09-12T06:09:50.000Z</time>
      </trkpt>
      <trkpt lat="45.23376" lon="5.7425">
        <ele>1021.5999755859</ele>
        <time>2021-09-12T06:09:51.000Z</time>
      </trkpt>
      <trkpt lat="45.23375" lon="5.74248">
        <ele>1021.799987793</ele>
        <time>2021-09-12T06:09:52.000Z</time>
      </trkpt>
      <trkpt lat="45.23362" lon="5.74237">
        <ele>1022.200012207</ele>
        <time>2021-09-12T06:09:59.000Z</time>
      </trkpt>
      <trkpt lat="45.23347" lon="5.74227">
        <ele>1022.5999755859</ele>
        <time>2021-09-12T06:10:06.000Z</time>
      </trkpt>
      <trkpt lat="45.23338" lon="5.74221">
        <ele>1022.5999755859</ele>
        <time>2021-09-12T06:10:10.000Z</time>
      </trkpt>
      <trkpt lat="45.23334" lon="5.74219">
        <ele>1022.5999755859</ele>
        <time>2021-09-12T06:10:12.000Z</time>
      </trkpt>
      <trkpt lat="45.23326" lon="5.74214">
        <ele>1022.799987793</ele>
        <time>2021-09-12T06:10:15.000Z</time>
      </trkpt>
      <trkpt lat="45.23322" lon="5.74211">
        <ele>1022.799987793</ele>
        <time>2021-09-12T06:10:17.000Z</time>
      </trkpt>
      <trkpt lat="45.23316" lon="5.74207">
        <ele>1022.799987793</ele>
        <time>2021-09-12T06:10:20.000Z</time>
      </trkpt>
      <trkpt lat="45.23312" lon="5.74205">
        <ele>1023</ele>
        <time>2021-09-12T06:10:22.000Z</time>
      </trkpt>
      <trkpt lat="45.23302" lon="5.74199">
        <ele>1023.200012207</ele>
        <time>2021-09-12T06:10:27.000Z</time>
      </trkpt>
      <trkpt lat="45.23289" lon="5.74188">
        <ele>1024.1999511719</ele>
        <time>2021-09-12T06:10:33.000Z</time>
      </trkpt>
      <trkpt lat="45.23287" lon="5.74185">
        <ele>1024.4000244141</ele>
        <time>2021-09-12T06:10:34.000Z</time>
      </trkpt>
      <trkpt lat="45.23277" lon="5.74174">
        <ele>1025.1999511719</ele>
        <time>2021-09-12T06:10:39.000Z</time>
      </trkpt>
      <trkpt lat="45.23272" lon="5.74167">
        <ele>1025.4000244141</ele>
        <time>2021-09-12T06:10:42.000Z</time>
      </trkpt>
      <trkpt lat="45.23257" lon="5.74154">
        <ele>1025</ele>
        <time>2021-09-12T06:10:49.000Z</time>
      </trkpt>
      <trkpt lat="45.23246" lon="5.74146">
        <ele>1024.1999511719</ele>
        <time>2021-09-12T06:10:54.000Z</time>
      </trkpt>
      <trkpt lat="45.23239" lon="5.74141">
        <ele>1024</ele>
        <time>2021-09-12T06:10:56.000Z</time>
      </trkpt>
      <trkpt lat="45.23233" lon="5.74135">
        <ele>1024</ele>
        <time>2021-09-12T06:10:58.000Z</time>
      </trkpt>
      <trkpt lat="45.23227" lon="5.74128">
        <ele>1024.4000244141</ele>
        <time>2021-09-12T06:11:01.000Z</time>
      </trkpt>
      <trkpt lat="45.23224" lon="5.74122">
        <ele>1024.8000488281</ele>
        <time>2021-09-12T06:11:03.000Z</time>
      </trkpt>
      <trkpt lat="45.23222" lon="5.74115">
        <ele>1025.4000244141</ele>
        <time>2021-09-12T06:11:05.000Z</time>
      </trkpt>
      <trkpt lat="45.23222" lon="5.74109">
        <ele>1025.5999755859</ele>
        <time>2021-09-12T06:11:07.000Z</time>
      </trkpt>
      <trkpt lat="45.23222" lon="5.74106">
        <ele>1025.5999755859</ele>
        <time>2021-09-12T06:11:08.000Z</time>
      </trkpt>
      <trkpt lat="45.23223" lon="5.74101">
        <ele>1025.4000244141</ele>
        <time>2021-09-12T06:11:10.000Z</time>
      </trkpt>
      <trkpt lat="45.23223" lon="5.74089">
        <ele>1025.1999511719</ele>
        <time>2021-09-12T06:11:14.000Z</time>
      </trkpt>
      <trkpt lat="45.23224" lon="5.74068">
        <ele>1024.4000244141</ele>
        <time>2021-09-12T06:11:21.000Z</time>
      </trkpt>
      <trkpt lat="45.23224" lon="5.74064">
        <ele>1023.799987793</ele>
        <time>2021-09-12T06:11:23.000Z</time>
      </trkpt>
      <trkpt lat="45.23225" lon="5.74058">
        <ele>1023.4000244141</ele>
        <time>2021-09-12T06:11:25.000Z</time>
      </trkpt>
      <trkpt lat="45.23225" lon="5.74055">
        <ele>1023</ele>
        <time>2021-09-12T06:11:26.000Z</time>
      </trkpt>
      <trkpt lat="45.23224" lon="5.74051">
        <ele>1022.799987793</ele>
        <time>2021-09-12T06:11:27.000Z</time>
      </trkpt>
      <trkpt lat="45.23221" lon="5.74046">
        <ele>1022.200012207</ele>
        <time>2021-09-12T06:11:29.000Z</time>
      </trkpt>
      <trkpt lat="45.23216" lon="5.74039">
        <ele>1021.799987793</ele>
        <time>2021-09-12T06:11:32.000Z</time>
      </trkpt>
      <trkpt lat="45.23204" lon="5.7402">
        <ele>1021.799987793</ele>
        <time>2021-09-12T06:11:38.000Z</time>
      </trkpt>
      <trkpt lat="45.23192" lon="5.74009">
        <ele>1022.5999755859</ele>
        <time>2021-09-12T06:11:44.000Z</time>
      </trkpt>
      <trkpt lat="45.23186" lon="5.74005">
        <ele>1023.200012207</ele>
        <time>2021-09-12T06:11:47.000Z</time>
      </trkpt>
      <trkpt lat="45.23184" lon="5.74004">
        <ele>1023.5999755859</ele>
        <time>2021-09-12T06:11:48.000Z</time>
      </trkpt>
      <trkpt lat="45.23181" lon="5.74002">
        <ele>1024.1999511719</ele>
        <time>2021-09-12T06:11:50.000Z</time>
      </trkpt>
      <trkpt lat="45.23174" lon="5.73997">
        <ele>1024.8000488281</ele>
        <time>2021-09-12T06:11:54.000Z</time>
      </trkpt>
      <trkpt lat="45.23172" lon="5.73996">
        <ele>1025</ele>
        <time>2021-09-12T06:11:55.000Z</time>
      </trkpt>
      <trkpt lat="45.23167" lon="5.73995">
        <ele>1025.5999755859</ele>
        <time>2021-09-12T06:11:58.000Z</time>
      </trkpt>
      <trkpt lat="45.23164" lon="5.73994">
        <ele>1025.8000488281</ele>
        <time>2021-09-12T06:11:59.000Z</time>
      </trkpt>
      <trkpt lat="45.23158" lon="5.73993">
        <ele>1026.4000244141</ele>
        <time>2021-09-12T06:12:02.000Z</time>
      </trkpt>
      <trkpt lat="45.23141" lon="5.73986">
        <ele>1026.4000244141</ele>
        <time>2021-09-12T06:12:09.000Z</time>
      </trkpt>
      <trkpt lat="45.23129" lon="5.7398">
        <ele>1025.8000488281</ele>
        <time>2021-09-12T06:12:14.000Z</time>
      </trkpt>
      <trkpt lat="45.23121" lon="5.7398">
        <ele>1025.5999755859</ele>
        <time>2021-09-12T06:12:17.000Z</time>
      </trkpt>
      <trkpt lat="45.23105" lon="5.73983">
        <ele>1025</ele>
        <time>2021-09-12T06:12:24.000Z</time>
      </trkpt>
      <trkpt lat="45.231" lon="5.73983">
        <ele>1024.8000488281</ele>
        <time>2021-09-12T06:12:26.000Z</time>
      </trkpt>
      <trkpt lat="45.23091" lon="5.73978">
        <ele>1024.5999755859</ele>
        <time>2021-09-12T06:12:30.000Z</time>
      </trkpt>
      <trkpt lat="45.2308" lon="5.73973">
        <ele>1023.5999755859</ele>
        <time>2021-09-12T06:12:34.000Z</time>
      </trkpt>
      <trkpt lat="45.23071" lon="5.73971">
        <ele>1022.4000244141</ele>
        <time>2021-09-12T06:12:37.000Z</time>
      </trkpt>
      <trkpt lat="45.23069" lon="5.73971">
        <ele>1022.200012207</ele>
        <time>2021-09-12T06:12:38.000Z</time>
      </trkpt>
      <trkpt lat="45.23063" lon="5.73973">
        <ele>1021.200012207</ele>
        <time>2021-09-12T06:12:41.000Z</time>
      </trkpt>
      <trkpt lat="45.23054" lon="5.73977">
        <ele>1020</ele>
        <time>2021-09-12T06:12:44.000Z</time>
      </trkpt>
      <trkpt lat="45.23042" lon="5.73981">
        <ele>1019</ele>
        <time>2021-09-12T06:12:48.000Z</time>
      </trkpt>
      <trkpt lat="45.23037" lon="5.73983">
        <ele>1018.799987793</ele>
        <time>2021-09-12T06:12:50.000Z</time>
      </trkpt>
      <trkpt lat="45.2303" lon="5.73983">
        <ele>1018.4000244141</ele>
        <time>2021-09-12T06:12:53.000Z</time>
      </trkpt>
      <trkpt lat="45.23013" lon="5.73977">
        <ele>1018</ele>
        <time>2021-09-12T06:13:00.000Z</time>
      </trkpt>
      <trkpt lat="45.2301" lon="5.73977">
        <ele>1018</ele>
        <time>2021-09-12T06:13:01.000Z</time>
      </trkpt>
      <trkpt lat="45.22993" lon="5.73974">
        <ele>1017.799987793</ele>
        <time>2021-09-12T06:13:07.000Z</time>
      </trkpt>
      <trkpt lat="45.2299" lon="5.73973">
        <ele>1017.799987793</ele>
        <time>2021-09-12T06:13:08.000Z</time>
      </trkpt>
      <trkpt lat="45.22987" lon="5.73971">
        <ele>1017.5999755859</ele>
        <time>2021-09-12T06:13:09.000Z</time>
      </trkpt>
      <trkpt lat="45.22977" lon="5.73967">
        <ele>1017.4000244141</ele>
        <time>2021-09-12T06:13:13.000Z</time>
      </trkpt>
      <trkpt lat="45.22967" lon="5.73961">
        <ele>1016.799987793</ele>
        <time>2021-09-12T06:13:17.000Z</time>
      </trkpt>
      <trkpt lat="45.22965" lon="5.73959">
        <ele>1016.799987793</ele>
        <time>2021-09-12T06:13:18.000Z</time>
      </trkpt>
      <trkpt lat="45.2296" lon="5.73954">
        <ele>1016.5999755859</ele>
        <time>2021-09-12T06:13:20.000Z</time>
      </trkpt>
      <trkpt lat="45.22956" lon="5.73948">
        <ele>1016.5999755859</ele>
        <time>2021-09-12T06:13:22.000Z</time>
      </trkpt>
      <trkpt lat="45.22946" lon="5.73923">
        <ele>1016.200012207</ele>
        <time>2021-09-12T06:13:29.000Z</time>
      </trkpt>
      <trkpt lat="45.22945" lon="5.73919">
        <ele>1016.4000244141</ele>
        <time>2021-09-12T06:13:30.000Z</time>
      </trkpt>
      <trkpt lat="45.22943" lon="5.73898">
        <ele>1016.799987793</ele>
        <time>2021-09-12T06:13:36.000Z</time>
      </trkpt>
      <trkpt lat="45.22943" lon="5.73889">
        <ele>1018</ele>
        <time>2021-09-12T06:13:40.000Z</time>
      </trkpt>
      <trkpt lat="45.22943" lon="5.73885">
        <ele>1018.4000244141</ele>
        <time>2021-09-12T06:13:42.000Z</time>
      </trkpt>
      <trkpt lat="45.22943" lon="5.73882">
        <ele>1019.200012207</ele>
        <time>2021-09-12T06:13:44.000Z</time>
      </trkpt>
      <trkpt lat="45.22943" lon="5.73875">
        <ele>1020.4000244141</ele>
        <time>2021-09-12T06:13:47.000Z</time>
      </trkpt>
      <trkpt lat="45.22944" lon="5.73873">
        <ele>1020.799987793</ele>
        <time>2021-09-12T06:13:48.000Z</time>
      </trkpt>
      <trkpt lat="45.22943" lon="5.73871">
        <ele>1021.4000244141</ele>
        <time>2021-09-12T06:13:49.000Z</time>
      </trkpt>
      <trkpt lat="45.22942" lon="5.73869">
        <ele>1021.799987793</ele>
        <time>2021-09-12T06:13:50.000Z</time>
      </trkpt>
      <trkpt lat="45.2294" lon="5.73868">
        <ele>1022.4000244141</ele>
        <time>2021-09-12T06:13:52.000Z</time>
      </trkpt>
      <trkpt lat="45.22936" lon="5.73869">
        <ele>1023</ele>
        <time>2021-09-12T06:13:55.000Z</time>
      </trkpt>
      <trkpt lat="45.22932" lon="5.73868">
        <ele>1023.200012207</ele>
        <time>2021-09-12T06:13:58.000Z</time>
      </trkpt>
      <trkpt lat="45.22923" lon="5.73868">
        <ele>1024</ele>
        <time>2021-09-12T06:14:03.000Z</time>
      </trkpt>
      <trkpt lat="45.22917" lon="5.73867">
        <ele>1024.4000244141</ele>
        <time>2021-09-12T06:14:06.000Z</time>
      </trkpt>
      <trkpt lat="45.22906" lon="5.7387">
        <ele>1024.8000488281</ele>
        <time>2021-09-12T06:14:12.000Z</time>
      </trkpt>
      <trkpt lat="45.229" lon="5.73871">
        <ele>1025</ele>
        <time>2021-09-12T06:14:15.000Z</time>
      </trkpt>
      <trkpt lat="45.22899" lon="5.73871">
        <ele>1025.4000244141</ele>
        <time>2021-09-12T06:14:16.000Z</time>
      </trkpt>
      <trkpt lat="45.22895" lon="5.73874">
        <ele>1025.5999755859</ele>
        <time>2021-09-12T06:14:18.000Z</time>
      </trkpt>
      <trkpt lat="45.22893" lon="5.73875">
        <ele>1025.5999755859</ele>
        <time>2021-09-12T06:14:19.000Z</time>
      </trkpt>
      <trkpt lat="45.22886" lon="5.7388">
        <ele>1025.4000244141</ele>
        <time>2021-09-12T06:14:22.000Z</time>
      </trkpt>
      <trkpt lat="45.2288" lon="5.73883">
        <ele>1025.4000244141</ele>
        <time>2021-09-12T06:14:24.000Z</time>
      </trkpt>
      <trkpt lat="45.22877" lon="5.73885">
        <ele>1025.4000244141</ele>
        <time>2021-09-12T06:14:25.000Z</time>
      </trkpt>
      <trkpt lat="45.22865" lon="5.73887">
        <ele>1025.5999755859</ele>
        <time>2021-09-12T06:14:29.000Z</time>
      </trkpt>
      <trkpt lat="45.2286" lon="5.73885">
        <ele>1026</ele>
        <time>2021-09-12T06:14:31.000Z</time>
      </trkpt>
      <trkpt lat="45.22851" lon="5.73884">
        <ele>1027.1999511719</ele>
        <time>2021-09-12T06:14:35.000Z</time>
      </trkpt>
      <trkpt lat="45.22836" lon="5.73883">
        <ele>1027.1999511719</ele>
        <time>2021-09-12T06:14:41.000Z</time>
      </trkpt>
      <trkpt lat="45.2283" lon="5.73878">
        <ele>1027.8000488281</ele>
        <time>2021-09-12T06:14:45.000Z</time>
      </trkpt>
      <trkpt lat="45.22827" lon="5.73877">
        <ele>1028.4000244141</ele>
        <time>2021-09-12T06:14:47.000Z</time>
      </trkpt>
      <trkpt lat="45.22816" lon="5.73874">
        <ele>1029.4000244141</ele>
        <time>2021-09-12T06:14:52.000Z</time>
      </trkpt>
      <trkpt lat="45.2281" lon="5.73869">
        <ele>1030.1999511719</ele>
        <time>2021-09-12T06:14:56.000Z</time>
      </trkpt>
      <trkpt lat="45.22809" lon="5.73868">
        <ele>1030.8000488281</ele>
        <time>2021-09-12T06:14:57.000Z</time>
      </trkpt>
      <trkpt lat="45.22799" lon="5.73861">
        <ele>1031.8000488281</ele>
        <time>2021-09-12T06:15:02.000Z</time>
      </trkpt>
      <trkpt lat="45.22795" lon="5.7386">
        <ele>1032.1999511719</ele>
        <time>2021-09-12T06:15:04.000Z</time>
      </trkpt>
      <trkpt lat="45.22783" lon="5.73857">
        <ele>1033</ele>
        <time>2021-09-12T06:15:09.000Z</time>
      </trkpt>
      <trkpt lat="45.2278" lon="5.73857">
        <ele>1033.1999511719</ele>
        <time>2021-09-12T06:15:10.000Z</time>
      </trkpt>
      <trkpt lat="45.22771" lon="5.73848">
        <ele>1033.1999511719</ele>
        <time>2021-09-12T06:15:15.000Z</time>
      </trkpt>
      <trkpt lat="45.22757" lon="5.73837">
        <ele>1032.8000488281</ele>
        <time>2021-09-12T06:15:22.000Z</time>
      </trkpt>
      <trkpt lat="45.22755" lon="5.73836">
        <ele>1032.8000488281</ele>
        <time>2021-09-12T06:15:23.000Z</time>
      </trkpt>
      <trkpt lat="45.22741" lon="5.73828">
        <ele>1033</ele>
        <time>2021-09-12T06:15:30.000Z</time>
      </trkpt>
      <trkpt lat="45.22722" lon="5.7382">
        <ele>1033.8000488281</ele>
        <time>2021-09-12T06:15:37.000Z</time>
      </trkpt>
      <trkpt lat="45.22716" lon="5.7382">
        <ele>1034</ele>
        <time>2021-09-12T06:15:39.000Z</time>
      </trkpt>
      <trkpt lat="45.22706" lon="5.73817">
        <ele>1033.8000488281</ele>
        <time>2021-09-12T06:15:45.000Z</time>
      </trkpt>
      <trkpt lat="45.2269" lon="5.73806">
        <ele>1032.5999755859</ele>
        <time>2021-09-12T06:15:52.000Z</time>
      </trkpt>
      <trkpt lat="45.2268" lon="5.73798">
        <ele>1031.8000488281</ele>
        <time>2021-09-12T06:15:57.000Z</time>
      </trkpt>
      <trkpt lat="45.22675" lon="5.73794">
        <ele>1031.1999511719</ele>
        <time>2021-09-12T06:16:00.000Z</time>
      </trkpt>
      <trkpt lat="45.22673" lon="5.73794">
        <ele>1030.8000488281</ele>
        <time>2021-09-12T06:16:01.000Z</time>
      </trkpt>
      <trkpt lat="45.22669" lon="5.73792">
        <ele>1030.1999511719</ele>
        <time>2021-09-12T06:16:03.000Z</time>
      </trkpt>
      <trkpt lat="45.22663" lon="5.7379">
        <ele>1029.4000244141</ele>
        <time>2021-09-12T06:16:05.000Z</time>
      </trkpt>
      <trkpt lat="45.22655" lon="5.73786">
        <ele>1028.4000244141</ele>
        <time>2021-09-12T06:16:08.000Z</time>
      </trkpt>
      <trkpt lat="45.22651" lon="5.73781">
        <ele>1027.8000488281</ele>
        <time>2021-09-12T06:16:10.000Z</time>
      </trkpt>
      <trkpt lat="45.2265" lon="5.73778">
        <ele>1027.8000488281</ele>
        <time>2021-09-12T06:16:11.000Z</time>
      </trkpt>
      <trkpt lat="45.22648" lon="5.73775">
        <ele>1027.8000488281</ele>
        <time>2021-09-12T06:16:13.000Z</time>
      </trkpt>
      <trkpt lat="45.22646" lon="5.73773">
        <ele>1027.8000488281</ele>
        <time>2021-09-12T06:16:14.000Z</time>
      </trkpt>
      <trkpt lat="45.22635" lon="5.73762">
        <ele>1027.8000488281</ele>
        <time>2021-09-12T06:16:20.000Z</time>
      </trkpt>
      <trkpt lat="45.22621" lon="5.73752">
        <ele>1027.5999755859</ele>
        <time>2021-09-12T06:16:27.000Z</time>
      </trkpt>
      <trkpt lat="45.22616" lon="5.7375">
        <ele>1027.1999511719</ele>
        <time>2021-09-12T06:16:29.000Z</time>
      </trkpt>
      <trkpt lat="45.22609" lon="5.73743">
        <ele>1026</ele>
        <time>2021-09-12T06:16:33.000Z</time>
      </trkpt>
      <trkpt lat="45.22608" lon="5.73741">
        <ele>1025.8000488281</ele>
        <time>2021-09-12T06:16:34.000Z</time>
      </trkpt>
      <trkpt lat="45.22606" lon="5.7374">
        <ele>1025</ele>
        <time>2021-09-12T06:16:35.000Z</time>
      </trkpt>
      <trkpt lat="45.22602" lon="5.73737">
        <ele>1024</ele>
        <time>2021-09-12T06:16:37.000Z</time>
      </trkpt>
      <trkpt lat="45.22597" lon="5.73732">
        <ele>1022.5999755859</ele>
        <time>2021-09-12T06:16:40.000Z</time>
      </trkpt>
      <trkpt lat="45.22593" lon="5.7373">
        <ele>1022.200012207</ele>
        <time>2021-09-12T06:16:42.000Z</time>
      </trkpt>
      <trkpt lat="45.22591" lon="5.7373">
        <ele>1022</ele>
        <time>2021-09-12T06:16:43.000Z</time>
      </trkpt>
      <trkpt lat="45.22588" lon="5.7373">
        <ele>1021.5999755859</ele>
        <time>2021-09-12T06:16:44.000Z</time>
      </trkpt>
      <trkpt lat="45.22583" lon="5.7373">
        <ele>1021</ele>
        <time>2021-09-12T06:16:46.000Z</time>
      </trkpt>
      <trkpt lat="45.2258" lon="5.73729">
        <ele>1020.5999755859</ele>
        <time>2021-09-12T06:16:47.000Z</time>
      </trkpt>
      <trkpt lat="45.22565" lon="5.73715">
        <ele>1019.799987793</ele>
        <time>2021-09-12T06:16:53.000Z</time>
      </trkpt>
      <trkpt lat="45.22563" lon="5.73713">
        <ele>1019.4000244141</ele>
        <time>2021-09-12T06:16:54.000Z</time>
      </trkpt>
      <trkpt lat="45.2256" lon="5.73711">
        <ele>1018.5999755859</ele>
        <time>2021-09-12T06:16:56.000Z</time>
      </trkpt>
      <trkpt lat="45.22558" lon="5.7371">
        <ele>1018</ele>
        <time>2021-09-12T06:16:57.000Z</time>
      </trkpt>
      <trkpt lat="45.22556" lon="5.7371">
        <ele>1017.5999755859</ele>
        <time>2021-09-12T06:16:58.000Z</time>
      </trkpt>
      <trkpt lat="45.22552" lon="5.73709">
        <ele>1016.5999755859</ele>
        <time>2021-09-12T06:17:00.000Z</time>
      </trkpt>
      <trkpt lat="45.22544" lon="5.73707">
        <ele>1015.5999755859</ele>
        <time>2021-09-12T06:17:04.000Z</time>
      </trkpt>
      <trkpt lat="45.22541" lon="5.73706">
        <ele>1014</ele>
        <time>2021-09-12T06:17:06.000Z</time>
      </trkpt>
      <trkpt lat="45.22537" lon="5.73705">
        <ele>1012.5999755859</ele>
        <time>2021-09-12T06:17:09.000Z</time>
      </trkpt>
      <trkpt lat="45.22532" lon="5.73702">
        <ele>1011.5999755859</ele>
        <time>2021-09-12T06:17:12.000Z</time>
      </trkpt>
      <trkpt lat="45.2253" lon="5.73702">
        <ele>1011.200012207</ele>
        <time>2021-09-12T06:17:13.000Z</time>
      </trkpt>
      <trkpt lat="45.22528" lon="5.737">
        <ele>1010.799987793</ele>
        <time>2021-09-12T06:17:14.000Z</time>
      </trkpt>
      <trkpt lat="45.22525" lon="5.73699">
        <ele>1010.200012207</ele>
        <time>2021-09-12T06:17:15.000Z</time>
      </trkpt>
      <trkpt lat="45.2252" lon="5.73697">
        <ele>1009</ele>
        <time>2021-09-12T06:17:19.000Z</time>
      </trkpt>
      <trkpt lat="45.22518" lon="5.73696">
        <ele>1008</ele>
        <time>2021-09-12T06:17:21.000Z</time>
      </trkpt>
      <trkpt lat="45.22517" lon="5.73696">
        <ele>1007.5999755859</ele>
        <time>2021-09-12T06:17:22.000Z</time>
      </trkpt>
      <trkpt lat="45.22515" lon="5.73698">
        <ele>1006.799987793</ele>
        <time>2021-09-12T06:17:24.000Z</time>
      </trkpt>
      <trkpt lat="45.2251" lon="5.73702">
        <ele>1005.5999755859</ele>
        <time>2021-09-12T06:17:27.000Z</time>
      </trkpt>
      <trkpt lat="45.22506" lon="5.73703">
        <ele>1004.799987793</ele>
        <time>2021-09-12T06:17:29.000Z</time>
      </trkpt>
      <trkpt lat="45.22505" lon="5.73704">
        <ele>1004.5999755859</ele>
        <time>2021-09-12T06:17:30.000Z</time>
      </trkpt>
      <trkpt lat="45.22504" lon="5.73705">
        <ele>1004.200012207</ele>
        <time>2021-09-12T06:17:31.000Z</time>
      </trkpt>
      <trkpt lat="45.22504" lon="5.73706">
        <ele>1004</ele>
        <time>2021-09-12T06:17:32.000Z</time>
      </trkpt>
      <trkpt lat="45.22503" lon="5.73707">
        <ele>1003.4000244141</ele>
        <time>2021-09-12T06:17:33.000Z</time>
      </trkpt>
      <trkpt lat="45.225" lon="5.73709">
        <ele>1003</ele>
        <time>2021-09-12T06:17:34.000Z</time>
      </trkpt>
      <trkpt lat="45.22493" lon="5.7371">
        <ele>1002</ele>
        <time>2021-09-12T06:17:36.000Z</time>
      </trkpt>
      <trkpt lat="45.2249" lon="5.73711">
        <ele>1001.799987793</ele>
        <time>2021-09-12T06:17:37.000Z</time>
      </trkpt>
      <trkpt lat="45.22489" lon="5.73711">
        <ele>1001</ele>
        <time>2021-09-12T06:17:38.000Z</time>
      </trkpt>
      <trkpt lat="45.22488" lon="5.7371">
        <ele>1000.5999755859</ele>
        <time>2021-09-12T06:17:39.000Z</time>
      </trkpt>
      <trkpt lat="45.22484" lon="5.73711">
        <ele>999.40002441406</ele>
        <time>2021-09-12T06:17:41.000Z</time>
      </trkpt>
      <trkpt lat="45.22478" lon="5.73709">
        <ele>998</ele>
        <time>2021-09-12T06:17:44.000Z</time>
      </trkpt>
      <trkpt lat="45.2247" lon="5.7371">
        <ele>997</ele>
        <time>2021-09-12T06:17:47.000Z</time>
      </trkpt>
      <trkpt lat="45.22464" lon="5.7371">
        <ele>996.59997558594</ele>
        <time>2021-09-12T06:17:50.000Z</time>
      </trkpt>
      <trkpt lat="45.22462" lon="5.7371">
        <ele>996.59997558594</ele>
        <time>2021-09-12T06:17:51.000Z</time>
      </trkpt>
      <trkpt lat="45.22459" lon="5.7371">
        <ele>996.59997558594</ele>
        <time>2021-09-12T06:17:53.000Z</time>
      </trkpt>
      <trkpt lat="45.22458" lon="5.73709">
        <ele>996.59997558594</ele>
        <time>2021-09-12T06:17:54.000Z</time>
      </trkpt>
      <trkpt lat="45.22449" lon="5.73706">
        <ele>995.79998779297</ele>
        <time>2021-09-12T06:17:59.000Z</time>
      </trkpt>
      <trkpt lat="45.22446" lon="5.73706">
        <ele>995.40002441406</ele>
        <time>2021-09-12T06:18:01.000Z</time>
      </trkpt>
      <trkpt lat="45.22441" lon="5.73707">
        <ele>994.59997558594</ele>
        <time>2021-09-12T06:18:04.000Z</time>
      </trkpt>
      <trkpt lat="45.22439" lon="5.73707">
        <ele>994</ele>
        <time>2021-09-12T06:18:06.000Z</time>
      </trkpt>
      <trkpt lat="45.22439" lon="5.73708">
        <ele>993.40002441406</ele>
        <time>2021-09-12T06:18:07.000Z</time>
      </trkpt>
      <trkpt lat="45.22435" lon="5.73709">
        <ele>993</ele>
        <time>2021-09-12T06:18:09.000Z</time>
      </trkpt>
      <trkpt lat="45.2243" lon="5.73708">
        <ele>992.20001220703</ele>
        <time>2021-09-12T06:18:11.000Z</time>
      </trkpt>
      <trkpt lat="45.22427" lon="5.73708">
        <ele>991.79998779297</ele>
        <time>2021-09-12T06:18:12.000Z</time>
      </trkpt>
      <trkpt lat="45.22426" lon="5.73708">
        <ele>991.20001220703</ele>
        <time>2021-09-12T06:18:13.000Z</time>
      </trkpt>
      <trkpt lat="45.22424" lon="5.73707">
        <ele>990.79998779297</ele>
        <time>2021-09-12T06:18:14.000Z</time>
      </trkpt>
      <trkpt lat="45.22423" lon="5.73707">
        <ele>990.40002441406</ele>
        <time>2021-09-12T06:18:15.000Z</time>
      </trkpt>
      <trkpt lat="45.2242" lon="5.73705">
        <ele>989.59997558594</ele>
        <time>2021-09-12T06:18:17.000Z</time>
      </trkpt>
      <trkpt lat="45.22417" lon="5.73705">
        <ele>988.79998779297</ele>
        <time>2021-09-12T06:18:19.000Z</time>
      </trkpt>
      <trkpt lat="45.22416" lon="5.73706">
        <ele>988.40002441406</ele>
        <time>2021-09-12T06:18:20.000Z</time>
      </trkpt>
      <trkpt lat="45.2241" lon="5.73705">
        <ele>987.20001220703</ele>
        <time>2021-09-12T06:18:23.000Z</time>
      </trkpt>
      <trkpt lat="45.22405" lon="5.73704">
        <ele>986.40002441406</ele>
        <time>2021-09-12T06:18:25.000Z</time>
      </trkpt>
      <trkpt lat="45.22403" lon="5.73704">
        <ele>985.79998779297</ele>
        <time>2021-09-12T06:18:26.000Z</time>
      </trkpt>
      <trkpt lat="45.22398" lon="5.73701">
        <ele>984.59997558594</ele>
        <time>2021-09-12T06:18:29.000Z</time>
      </trkpt>
      <trkpt lat="45.22394" lon="5.737">
        <ele>984.20001220703</ele>
        <time>2021-09-12T06:18:31.000Z</time>
      </trkpt>
      <trkpt lat="45.22389" lon="5.73697">
        <ele>983.59997558594</ele>
        <time>2021-09-12T06:18:34.000Z</time>
      </trkpt>
      <trkpt lat="45.22389" lon="5.73692">
        <ele>983.40002441406</ele>
        <time>2021-09-12T06:18:36.000Z</time>
      </trkpt>
      <trkpt lat="45.2239" lon="5.73681">
        <ele>982.40002441406</ele>
        <time>2021-09-12T06:18:40.000Z</time>
      </trkpt>
      <trkpt lat="45.22389" lon="5.73679">
        <ele>982.20001220703</ele>
        <time>2021-09-12T06:18:41.000Z</time>
      </trkpt>
      <trkpt lat="45.22389" lon="5.73674">
        <ele>981.59997558594</ele>
        <time>2021-09-12T06:18:43.000Z</time>
      </trkpt>
      <trkpt lat="45.22388" lon="5.73672">
        <ele>981.20001220703</ele>
        <time>2021-09-12T06:18:44.000Z</time>
      </trkpt>
      <trkpt lat="45.22387" lon="5.73667">
        <ele>980.20001220703</ele>
        <time>2021-09-12T06:18:47.000Z</time>
      </trkpt>
      <trkpt lat="45.22386" lon="5.7366">
        <ele>978.79998779297</ele>
        <time>2021-09-12T06:18:50.000Z</time>
      </trkpt>
      <trkpt lat="45.22385" lon="5.73653">
        <ele>978</ele>
        <time>2021-09-12T06:18:53.000Z</time>
      </trkpt>
      <trkpt lat="45.22385" lon="5.7365">
        <ele>977.59997558594</ele>
        <time>2021-09-12T06:18:54.000Z</time>
      </trkpt>
      <trkpt lat="45.22384" lon="5.73643">
        <ele>976.59997558594</ele>
        <time>2021-09-12T06:18:56.000Z</time>
      </trkpt>
      <trkpt lat="45.22383" lon="5.7364">
        <ele>976.20001220703</ele>
        <time>2021-09-12T06:18:57.000Z</time>
      </trkpt>
      <trkpt lat="45.22381" lon="5.73633">
        <ele>975.20001220703</ele>
        <time>2021-09-12T06:19:00.000Z</time>
      </trkpt>
      <trkpt lat="45.2238" lon="5.73633">
        <ele>974.79998779297</ele>
        <time>2021-09-12T06:19:01.000Z</time>
      </trkpt>
      <trkpt lat="45.2238" lon="5.73632">
        <ele>974.59997558594</ele>
        <time>2021-09-12T06:19:02.000Z</time>
      </trkpt>
      <trkpt lat="45.2238" lon="5.7363">
        <ele>974.20001220703</ele>
        <time>2021-09-12T06:19:03.000Z</time>
      </trkpt>
      <trkpt lat="45.2238" lon="5.73626">
        <ele>973.79998779297</ele>
        <time>2021-09-12T06:19:05.000Z</time>
      </trkpt>
      <trkpt lat="45.2238" lon="5.73622">
        <ele>972.59997558594</ele>
        <time>2021-09-12T06:19:07.000Z</time>
      </trkpt>
      <trkpt lat="45.22381" lon="5.73616">
        <ele>971.20001220703</ele>
        <time>2021-09-12T06:19:10.000Z</time>
      </trkpt>
      <trkpt lat="45.2238" lon="5.73608">
        <ele>969.79998779297</ele>
        <time>2021-09-12T06:19:13.000Z</time>
      </trkpt>
      <trkpt lat="45.2238" lon="5.73607">
        <ele>969</ele>
        <time>2021-09-12T06:19:14.000Z</time>
      </trkpt>
      <trkpt lat="45.2238" lon="5.73604">
        <ele>968.59997558594</ele>
        <time>2021-09-12T06:19:15.000Z</time>
      </trkpt>
      <trkpt lat="45.22381" lon="5.73601">
        <ele>967.59997558594</ele>
        <time>2021-09-12T06:19:17.000Z</time>
      </trkpt>
      <trkpt lat="45.22381" lon="5.736">
        <ele>967.40002441406</ele>
        <time>2021-09-12T06:19:18.000Z</time>
      </trkpt>
      <trkpt lat="45.22381" lon="5.73597">
        <ele>966.20001220703</ele>
        <time>2021-09-12T06:19:20.000Z</time>
      </trkpt>
      <trkpt lat="45.22382" lon="5.73594">
        <ele>965</ele>
        <time>2021-09-12T06:19:22.000Z</time>
      </trkpt>
      <trkpt lat="45.22382" lon="5.73593">
        <ele>964.40002441406</ele>
        <time>2021-09-12T06:19:23.000Z</time>
      </trkpt>
      <trkpt lat="45.22382" lon="5.73591">
        <ele>964</ele>
        <time>2021-09-12T06:19:24.000Z</time>
      </trkpt>
      <trkpt lat="45.22382" lon="5.7359">
        <ele>963.79998779297</ele>
        <time>2021-09-12T06:19:25.000Z</time>
      </trkpt>
      <trkpt lat="45.22381" lon="5.73586">
        <ele>962.40002441406</ele>
        <time>2021-09-12T06:19:28.000Z</time>
      </trkpt>
      <trkpt lat="45.22382" lon="5.73585">
        <ele>962</ele>
        <time>2021-09-12T06:19:29.000Z</time>
      </trkpt>
      <trkpt lat="45.22382" lon="5.73581">
        <ele>960.79998779297</ele>
        <time>2021-09-12T06:19:31.000Z</time>
      </trkpt>
      <trkpt lat="45.22381" lon="5.73579">
        <ele>960.20001220703</ele>
        <time>2021-09-12T06:19:32.000Z</time>
      </trkpt>
      <trkpt lat="45.22381" lon="5.73576">
        <ele>959.59997558594</ele>
        <time>2021-09-12T06:19:33.000Z</time>
      </trkpt>
      <trkpt lat="45.2238" lon="5.73573">
        <ele>959</ele>
        <time>2021-09-12T06:19:34.000Z</time>
      </trkpt>
      <trkpt lat="45.22379" lon="5.73568">
        <ele>958.20001220703</ele>
        <time>2021-09-12T06:19:36.000Z</time>
      </trkpt>
      <trkpt lat="45.22379" lon="5.73563">
        <ele>957.20001220703</ele>
        <time>2021-09-12T06:19:38.000Z</time>
      </trkpt>
      <trkpt lat="45.22379" lon="5.73561">
        <ele>956.59997558594</ele>
        <time>2021-09-12T06:19:39.000Z</time>
      </trkpt>
      <trkpt lat="45.22379" lon="5.73557">
        <ele>956.20001220703</ele>
        <time>2021-09-12T06:19:40.000Z</time>
      </trkpt>
      <trkpt lat="45.2238" lon="5.73551">
        <ele>955.20001220703</ele>
        <time>2021-09-12T06:19:42.000Z</time>
      </trkpt>
      <trkpt lat="45.22383" lon="5.73546">
        <ele>953.59997558594</ele>
        <time>2021-09-12T06:19:44.000Z</time>
      </trkpt>
      <trkpt lat="45.22385" lon="5.73544">
        <ele>953.20001220703</ele>
        <time>2021-09-12T06:19:45.000Z</time>
      </trkpt>
      <trkpt lat="45.22389" lon="5.73538">
        <ele>952</ele>
        <time>2021-09-12T06:19:48.000Z</time>
      </trkpt>
      <trkpt lat="45.22391" lon="5.73533">
        <ele>950.40002441406</ele>
        <time>2021-09-12T06:19:50.000Z</time>
      </trkpt>
      <trkpt lat="45.22392" lon="5.7353">
        <ele>949.59997558594</ele>
        <time>2021-09-12T06:19:51.000Z</time>
      </trkpt>
      <trkpt lat="45.22393" lon="5.73527">
        <ele>948.79998779297</ele>
        <time>2021-09-12T06:19:52.000Z</time>
      </trkpt>
      <trkpt lat="45.22396" lon="5.73522">
        <ele>948</ele>
        <time>2021-09-12T06:19:54.000Z</time>
      </trkpt>
      <trkpt lat="45.22398" lon="5.73521">
        <ele>947.40002441406</ele>
        <time>2021-09-12T06:19:55.000Z</time>
      </trkpt>
      <trkpt lat="45.22402" lon="5.73517">
        <ele>946.40002441406</ele>
        <time>2021-09-12T06:19:58.000Z</time>
      </trkpt>
      <trkpt lat="45.22405" lon="5.73516">
        <ele>944.79998779297</ele>
        <time>2021-09-12T06:20:00.000Z</time>
      </trkpt>
      <trkpt lat="45.22408" lon="5.73515">
        <ele>943.79998779297</ele>
        <time>2021-09-12T06:20:02.000Z</time>
      </trkpt>
      <trkpt lat="45.22409" lon="5.73514">
        <ele>943.40002441406</ele>
        <time>2021-09-12T06:20:03.000Z</time>
      </trkpt>
      <trkpt lat="45.22414" lon="5.7351">
        <ele>942.40002441406</ele>
        <time>2021-09-12T06:20:06.000Z</time>
      </trkpt>
      <trkpt lat="45.22415" lon="5.7351">
        <ele>942</ele>
        <time>2021-09-12T06:20:07.000Z</time>
      </trkpt>
      <trkpt lat="45.22417" lon="5.73509">
        <ele>941.40002441406</ele>
        <time>2021-09-12T06:20:09.000Z</time>
      </trkpt>
      <trkpt lat="45.22418" lon="5.73508">
        <ele>940.79998779297</ele>
        <time>2021-09-12T06:20:10.000Z</time>
      </trkpt>
      <trkpt lat="45.22419" lon="5.73505">
        <ele>940</ele>
        <time>2021-09-12T06:20:12.000Z</time>
      </trkpt>
      <trkpt lat="45.22421" lon="5.73501">
        <ele>939.20001220703</ele>
        <time>2021-09-12T06:20:14.000Z</time>
      </trkpt>
      <trkpt lat="45.22422" lon="5.73499">
        <ele>938.79998779297</ele>
        <time>2021-09-12T06:20:15.000Z</time>
      </trkpt>
      <trkpt lat="45.22425" lon="5.73496">
        <ele>937.59997558594</ele>
        <time>2021-09-12T06:20:17.000Z</time>
      </trkpt>
      <trkpt lat="45.22428" lon="5.73495">
        <ele>937</ele>
        <time>2021-09-12T06:20:18.000Z</time>
      </trkpt>
      <trkpt lat="45.22433" lon="5.7349">
        <ele>936.40002441406</ele>
        <time>2021-09-12T06:20:20.000Z</time>
      </trkpt>
      <trkpt lat="45.22441" lon="5.73484">
        <ele>934.79998779297</ele>
        <time>2021-09-12T06:20:23.000Z</time>
      </trkpt>
      <trkpt lat="45.22449" lon="5.73477">
        <ele>933.40002441406</ele>
        <time>2021-09-12T06:20:27.000Z</time>
      </trkpt>
      <trkpt lat="45.2245" lon="5.73474">
        <ele>933.20001220703</ele>
        <time>2021-09-12T06:20:28.000Z</time>
      </trkpt>
      <trkpt lat="45.22452" lon="5.73468">
        <ele>932.40002441406</ele>
        <time>2021-09-12T06:20:30.000Z</time>
      </trkpt>
      <trkpt lat="45.22454" lon="5.73464">
        <ele>931.40002441406</ele>
        <time>2021-09-12T06:20:33.000Z</time>
      </trkpt>
      <trkpt lat="45.22455" lon="5.73463">
        <ele>930.79998779297</ele>
        <time>2021-09-12T06:20:34.000Z</time>
      </trkpt>
      <trkpt lat="45.22457" lon="5.73458">
        <ele>929.79998779297</ele>
        <time>2021-09-12T06:20:36.000Z</time>
      </trkpt>
      <trkpt lat="45.22457" lon="5.73456">
        <ele>929.59997558594</ele>
        <time>2021-09-12T06:20:37.000Z</time>
      </trkpt>
      <trkpt lat="45.22458" lon="5.73449">
        <ele>928.59997558594</ele>
        <time>2021-09-12T06:20:40.000Z</time>
      </trkpt>
      <trkpt lat="45.22459" lon="5.73447">
        <ele>928</ele>
        <time>2021-09-12T06:20:41.000Z</time>
      </trkpt>
      <trkpt lat="45.22461" lon="5.73445">
        <ele>927.40002441406</ele>
        <time>2021-09-12T06:20:42.000Z</time>
      </trkpt>
      <trkpt lat="45.22463" lon="5.73444">
        <ele>926.79998779297</ele>
        <time>2021-09-12T06:20:43.000Z</time>
      </trkpt>
      <trkpt lat="45.22467" lon="5.7344">
        <ele>925.59997558594</ele>
        <time>2021-09-12T06:20:46.000Z</time>
      </trkpt>
      <trkpt lat="45.22468" lon="5.73438">
        <ele>925.20001220703</ele>
        <time>2021-09-12T06:20:47.000Z</time>
      </trkpt>
      <trkpt lat="45.2247" lon="5.73436">
        <ele>923.79998779297</ele>
        <time>2021-09-12T06:20:49.000Z</time>
      </trkpt>
      <trkpt lat="45.22472" lon="5.73433">
        <ele>922.20001220703</ele>
        <time>2021-09-12T06:20:52.000Z</time>
      </trkpt>
      <trkpt lat="45.22472" lon="5.73431">
        <ele>922</ele>
        <time>2021-09-12T06:20:53.000Z</time>
      </trkpt>
      <trkpt lat="45.22468" lon="5.73433">
        <ele>921.40002441406</ele>
        <time>2021-09-12T06:20:57.000Z</time>
      </trkpt>
      <trkpt lat="45.22464" lon="5.73435">
        <ele>921.59997558594</ele>
        <time>2021-09-12T06:21:00.000Z</time>
      </trkpt>
      <trkpt lat="45.22458" lon="5.73434">
        <ele>922.59997558594</ele>
        <time>2021-09-12T06:21:05.000Z</time>
      </trkpt>
      <trkpt lat="45.22455" lon="5.73436">
        <ele>923.40002441406</ele>
        <time>2021-09-12T06:21:08.000Z</time>
      </trkpt>
      <trkpt lat="45.22452" lon="5.73439">
        <ele>924</ele>
        <time>2021-09-12T06:21:11.000Z</time>
      </trkpt>
      <trkpt lat="45.22449" lon="5.73441">
        <ele>924.40002441406</ele>
        <time>2021-09-12T06:21:13.000Z</time>
      </trkpt>
      <trkpt lat="45.22448" lon="5.73441">
        <ele>924.59997558594</ele>
        <time>2021-09-12T06:21:14.000Z</time>
      </trkpt>
      <trkpt lat="45.22442" lon="5.73442">
        <ele>925.20001220703</ele>
        <time>2021-09-12T06:21:17.000Z</time>
      </trkpt>
      <trkpt lat="45.22439" lon="5.73442">
        <ele>925.59997558594</ele>
        <time>2021-09-12T06:21:19.000Z</time>
      </trkpt>
      <trkpt lat="45.2243" lon="5.73442">
        <ele>926.20001220703</ele>
        <time>2021-09-12T06:21:25.000Z</time>
      </trkpt>
      <trkpt lat="45.22424" lon="5.7344">
        <ele>926.59997558594</ele>
        <time>2021-09-12T06:21:28.000Z</time>
      </trkpt>
      <trkpt lat="45.22413" lon="5.73441">
        <ele>927.40002441406</ele>
        <time>2021-09-12T06:21:33.000Z</time>
      </trkpt>
      <trkpt lat="45.22405" lon="5.7344">
        <ele>927.79998779297</ele>
        <time>2021-09-12T06:21:38.000Z</time>
      </trkpt>
      <trkpt lat="45.22402" lon="5.73441">
        <ele>928</ele>
        <time>2021-09-12T06:21:40.000Z</time>
      </trkpt>
      <trkpt lat="45.22399" lon="5.7344">
        <ele>928.20001220703</ele>
        <time>2021-09-12T06:21:42.000Z</time>
      </trkpt>
      <trkpt lat="45.22391" lon="5.73437">
        <ele>928.79998779297</ele>
        <time>2021-09-12T06:21:47.000Z</time>
      </trkpt>
      <trkpt lat="45.2238" lon="5.73432">
        <ele>929.59997558594</ele>
        <time>2021-09-12T06:21:55.000Z</time>
      </trkpt>
      <trkpt lat="45.22377" lon="5.73431">
        <ele>930</ele>
        <time>2021-09-12T06:21:57.000Z</time>
      </trkpt>
      <trkpt lat="45.22374" lon="5.73429">
        <ele>930.20001220703</ele>
        <time>2021-09-12T06:21:59.000Z</time>
      </trkpt>
      <trkpt lat="45.22367" lon="5.73429">
        <ele>931</ele>
        <time>2021-09-12T06:22:04.000Z</time>
      </trkpt>
      <trkpt lat="45.22359" lon="5.73425">
        <ele>932</ele>
        <time>2021-09-12T06:22:10.000Z</time>
      </trkpt>
      <trkpt lat="45.22357" lon="5.73425">
        <ele>932.59997558594</ele>
        <time>2021-09-12T06:22:12.000Z</time>
      </trkpt>
      <trkpt lat="45.22353" lon="5.73423">
        <ele>933.40002441406</ele>
        <time>2021-09-12T06:22:15.000Z</time>
      </trkpt>
      <trkpt lat="45.22352" lon="5.73423">
        <ele>933.40002441406</ele>
        <time>2021-09-12T06:22:16.000Z</time>
      </trkpt>
      <trkpt lat="45.22348" lon="5.73422">
        <ele>934.40002441406</ele>
        <time>2021-09-12T06:22:19.000Z</time>
      </trkpt>
      <trkpt lat="45.22346" lon="5.73422">
        <ele>934.79998779297</ele>
        <time>2021-09-12T06:22:21.000Z</time>
      </trkpt>
      <trkpt lat="45.22346" lon="5.73422">
        <ele>935</ele>
        <time>2021-09-12T06:22:22.000Z</time>
      </trkpt>
      <trkpt lat="45.22342" lon="5.73422">
        <ele>935.40002441406</ele>
        <time>2021-09-12T06:22:24.000Z</time>
      </trkpt>
      <trkpt lat="45.22336" lon="5.7342">
        <ele>936.20001220703</ele>
        <time>2021-09-12T06:22:27.000Z</time>
      </trkpt>
      <trkpt lat="45.22334" lon="5.7342">
        <ele>936.59997558594</ele>
        <time>2021-09-12T06:22:29.000Z</time>
      </trkpt>
      <trkpt lat="45.2233" lon="5.73418">
        <ele>937.79998779297</ele>
        <time>2021-09-12T06:22:33.000Z</time>
      </trkpt>
      <trkpt lat="45.22328" lon="5.73417">
        <ele>938</ele>
        <time>2021-09-12T06:22:35.000Z</time>
      </trkpt>
      <trkpt lat="45.22326" lon="5.73417">
        <ele>939</ele>
        <time>2021-09-12T06:22:38.000Z</time>
      </trkpt>
      <trkpt lat="45.22324" lon="5.73416">
        <ele>939.79998779297</ele>
        <time>2021-09-12T06:22:41.000Z</time>
      </trkpt>
      <trkpt lat="45.22323" lon="5.73416">
        <ele>940</ele>
        <time>2021-09-12T06:22:42.000Z</time>
      </trkpt>
      <trkpt lat="45.22318" lon="5.73418">
        <ele>941.20001220703</ele>
        <time>2021-09-12T06:22:47.000Z</time>
      </trkpt>
      <trkpt lat="45.22316" lon="5.73418">
        <ele>941.59997558594</ele>
        <time>2021-09-12T06:22:49.000Z</time>
      </trkpt>
      <trkpt lat="45.22313" lon="5.73417">
        <ele>942.40002441406</ele>
        <time>2021-09-12T06:22:53.000Z</time>
      </trkpt>
      <trkpt lat="45.22308" lon="5.73417">
        <ele>943.40002441406</ele>
        <time>2021-09-12T06:22:57.000Z</time>
      </trkpt>
      <trkpt lat="45.22304" lon="5.73416">
        <ele>944.40002441406</ele>
        <time>2021-09-12T06:23:02.000Z</time>
      </trkpt>
      <trkpt lat="45.22299" lon="5.73416">
        <ele>945.20001220703</ele>
        <time>2021-09-12T06:23:06.000Z</time>
      </trkpt>
      <trkpt lat="45.22299" lon="5.73416">
        <ele>945.40002441406</ele>
        <time>2021-09-12T06:23:07.000Z</time>
      </trkpt>
      <trkpt lat="45.22297" lon="5.73417">
        <ele>945.59997558594</ele>
        <time>2021-09-12T06:23:08.000Z</time>
      </trkpt>
      <trkpt lat="45.22295" lon="5.73417">
        <ele>946.59997558594</ele>
        <time>2021-09-12T06:23:11.000Z</time>
      </trkpt>
      <trkpt lat="45.22293" lon="5.73417">
        <ele>947</ele>
        <time>2021-09-12T06:23:13.000Z</time>
      </trkpt>
      <trkpt lat="45.22292" lon="5.73416">
        <ele>947.40002441406</ele>
        <time>2021-09-12T06:23:15.000Z</time>
      </trkpt>
      <trkpt lat="45.22291" lon="5.73416">
        <ele>947.59997558594</ele>
        <time>2021-09-12T06:23:16.000Z</time>
      </trkpt>
      <trkpt lat="45.22288" lon="5.73415">
        <ele>948.59997558594</ele>
        <time>2021-09-12T06:23:19.000Z</time>
      </trkpt>
      <trkpt lat="45.22286" lon="5.73414">
        <ele>948.79998779297</ele>
        <time>2021-09-12T06:23:21.000Z</time>
      </trkpt>
      <trkpt lat="45.22281" lon="5.73412">
        <ele>950</ele>
        <time>2021-09-12T06:23:25.000Z</time>
      </trkpt>
      <trkpt lat="45.22275" lon="5.73409">
        <ele>950.59997558594</ele>
        <time>2021-09-12T06:23:29.000Z</time>
      </trkpt>
      <trkpt lat="45.22274" lon="5.73409">
        <ele>950.79998779297</ele>
        <time>2021-09-12T06:23:30.000Z</time>
      </trkpt>
      <trkpt lat="45.22274" lon="5.73408">
        <ele>951</ele>
        <time>2021-09-12T06:23:31.000Z</time>
      </trkpt>
      <trkpt lat="45.2227" lon="5.73406">
        <ele>952</ele>
        <time>2021-09-12T06:23:35.000Z</time>
      </trkpt>
      <trkpt lat="45.22267" lon="5.73407">
        <ele>952.20001220703</ele>
        <time>2021-09-12T06:23:37.000Z</time>
      </trkpt>
      <trkpt lat="45.22264" lon="5.73407">
        <ele>953.20001220703</ele>
        <time>2021-09-12T06:23:41.000Z</time>
      </trkpt>
      <trkpt lat="45.22262" lon="5.73407">
        <ele>953.40002441406</ele>
        <time>2021-09-12T06:23:42.000Z</time>
      </trkpt>
      <trkpt lat="45.22261" lon="5.73407">
        <ele>953.59997558594</ele>
        <time>2021-09-12T06:23:43.000Z</time>
      </trkpt>
      <trkpt lat="45.22258" lon="5.73407">
        <ele>954.40002441406</ele>
        <time>2021-09-12T06:23:46.000Z</time>
      </trkpt>
      <trkpt lat="45.22256" lon="5.73407">
        <ele>955</ele>
        <time>2021-09-12T06:23:48.000Z</time>
      </trkpt>
      <trkpt lat="45.22254" lon="5.73408">
        <ele>955.59997558594</ele>
        <time>2021-09-12T06:23:51.000Z</time>
      </trkpt>
      <trkpt lat="45.22254" lon="5.73408">
        <ele>956.40002441406</ele>
        <time>2021-09-12T06:23:54.000Z</time>
      </trkpt>
      <trkpt lat="45.22253" lon="5.73409">
        <ele>956.79998779297</ele>
        <time>2021-09-12T06:23:55.000Z</time>
      </trkpt>
      <trkpt lat="45.22252" lon="5.73409">
        <ele>957.20001220703</ele>
        <time>2021-09-12T06:23:57.000Z</time>
      </trkpt>
      <trkpt lat="45.2225" lon="5.73412">
        <ele>958</ele>
        <time>2021-09-12T06:24:01.000Z</time>
      </trkpt>
      <trkpt lat="45.22247" lon="5.73414">
        <ele>959</ele>
        <time>2021-09-12T06:24:04.000Z</time>
      </trkpt>
      <trkpt lat="45.22246" lon="5.73414">
        <ele>959.40002441406</ele>
        <time>2021-09-12T06:24:06.000Z</time>
      </trkpt>
      <trkpt lat="45.22245" lon="5.73414">
        <ele>960</ele>
        <time>2021-09-12T06:24:08.000Z</time>
      </trkpt>
      <trkpt lat="45.22244" lon="5.73413">
        <ele>960.40002441406</ele>
        <time>2021-09-12T06:24:09.000Z</time>
      </trkpt>
      <trkpt lat="45.22243" lon="5.73412">
        <ele>960.79998779297</ele>
        <time>2021-09-12T06:24:10.000Z</time>
      </trkpt>
      <trkpt lat="45.22242" lon="5.73412">
        <ele>961.20001220703</ele>
        <time>2021-09-12T06:24:11.000Z</time>
      </trkpt>
      <trkpt lat="45.22242" lon="5.73411">
        <ele>961.40002441406</ele>
        <time>2021-09-12T06:24:12.000Z</time>
      </trkpt>
      <trkpt lat="45.2224" lon="5.7341">
        <ele>961.79998779297</ele>
        <time>2021-09-12T06:24:14.000Z</time>
      </trkpt>
      <trkpt lat="45.22239" lon="5.7341">
        <ele>962.40002441406</ele>
        <time>2021-09-12T06:24:16.000Z</time>
      </trkpt>
      <trkpt lat="45.22238" lon="5.73409">
        <ele>963.20001220703</ele>
        <time>2021-09-12T06:24:19.000Z</time>
      </trkpt>
      <trkpt lat="45.22237" lon="5.73409">
        <ele>963.59997558594</ele>
        <time>2021-09-12T06:24:20.000Z</time>
      </trkpt>
      <trkpt lat="45.22236" lon="5.73408">
        <ele>964.20001220703</ele>
        <time>2021-09-12T06:24:22.000Z</time>
      </trkpt>
      <trkpt lat="45.22234" lon="5.73407">
        <ele>964.79998779297</ele>
        <time>2021-09-12T06:24:24.000Z</time>
      </trkpt>
      <trkpt lat="45.22233" lon="5.73407">
        <ele>965</ele>
        <time>2021-09-12T06:24:25.000Z</time>
      </trkpt>
      <trkpt lat="45.22231" lon="5.73406">
        <ele>965.79998779297</ele>
        <time>2021-09-12T06:24:28.000Z</time>
      </trkpt>
      <trkpt lat="45.22231" lon="5.73405">
        <ele>966</ele>
        <time>2021-09-12T06:24:29.000Z</time>
      </trkpt>
      <trkpt lat="45.22229" lon="5.73404">
        <ele>966.40002441406</ele>
        <time>2021-09-12T06:24:31.000Z</time>
      </trkpt>
      <trkpt lat="45.22228" lon="5.73404">
        <ele>966.40002441406</ele>
        <time>2021-09-12T06:24:32.000Z</time>
      </trkpt>
      <trkpt lat="45.22227" lon="5.73403">
        <ele>966.79998779297</ele>
        <time>2021-09-12T06:24:34.000Z</time>
      </trkpt>
      <trkpt lat="45.22226" lon="5.73403">
        <ele>967</ele>
        <time>2021-09-12T06:24:35.000Z</time>
      </trkpt>
      <trkpt lat="45.22224" lon="5.73403">
        <ele>967.79998779297</ele>
        <time>2021-09-12T06:24:38.000Z</time>
      </trkpt>
      <trkpt lat="45.22222" lon="5.73402">
        <ele>968</ele>
        <time>2021-09-12T06:24:39.000Z</time>
      </trkpt>
      <trkpt lat="45.2222" lon="5.73402">
        <ele>968.20001220703</ele>
        <time>2021-09-12T06:24:41.000Z</time>
      </trkpt>
      <trkpt lat="45.22219" lon="5.73401">
        <ele>968.59997558594</ele>
        <time>2021-09-12T06:24:43.000Z</time>
      </trkpt>
      <trkpt lat="45.22219" lon="5.73401">
        <ele>969.20001220703</ele>
        <time>2021-09-12T06:24:45.000Z</time>
      </trkpt>
      <trkpt lat="45.22218" lon="5.734">
        <ele>969.59997558594</ele>
        <time>2021-09-12T06:24:46.000Z</time>
      </trkpt>
      <trkpt lat="45.22215" lon="5.73401">
        <ele>970.40002441406</ele>
        <time>2021-09-12T06:24:49.000Z</time>
      </trkpt>
      <trkpt lat="45.22212" lon="5.73399">
        <ele>971.59997558594</ele>
        <time>2021-09-12T06:24:54.000Z</time>
      </trkpt>
      <trkpt lat="45.2221" lon="5.73399">
        <ele>972.40002441406</ele>
        <time>2021-09-12T06:24:57.000Z</time>
      </trkpt>
      <trkpt lat="45.2221" lon="5.73399">
        <ele>972.79998779297</ele>
        <time>2021-09-12T06:24:58.000Z</time>
      </trkpt>
      <trkpt lat="45.22205" lon="5.73399">
        <ele>973.59997558594</ele>
        <time>2021-09-12T06:25:03.000Z</time>
      </trkpt>
      <trkpt lat="45.22205" lon="5.73398">
        <ele>974.20001220703</ele>
        <time>2021-09-12T06:25:04.000Z</time>
      </trkpt>
      <trkpt lat="45.22202" lon="5.73399">
        <ele>975.20001220703</ele>
        <time>2021-09-12T06:25:08.000Z</time>
      </trkpt>
      <trkpt lat="45.22201" lon="5.73399">
        <ele>975.59997558594</ele>
        <time>2021-09-12T06:25:10.000Z</time>
      </trkpt>
      <trkpt lat="45.22201" lon="5.73399">
        <ele>976.40002441406</ele>
        <time>2021-09-12T06:25:13.000Z</time>
      </trkpt>
      <trkpt lat="45.22199" lon="5.734">
        <ele>976.79998779297</ele>
        <time>2021-09-12T06:25:15.000Z</time>
      </trkpt>
      <trkpt lat="45.22199" lon="5.73399">
        <ele>977.20001220703</ele>
        <time>2021-09-12T06:25:17.000Z</time>
      </trkpt>
      <trkpt lat="45.22198" lon="5.73399">
        <ele>977.59997558594</ele>
        <time>2021-09-12T06:25:18.000Z</time>
      </trkpt>
      <trkpt lat="45.22195" lon="5.734">
        <ele>978.59997558594</ele>
        <time>2021-09-12T06:25:22.000Z</time>
      </trkpt>
      <trkpt lat="45.22191" lon="5.73398">
        <ele>979.59997558594</ele>
        <time>2021-09-12T06:25:27.000Z</time>
      </trkpt>
      <trkpt lat="45.22189" lon="5.73398">
        <ele>980.79998779297</ele>
        <time>2021-09-12T06:25:30.000Z</time>
      </trkpt>
      <trkpt lat="45.22186" lon="5.73398">
        <ele>981.79998779297</ele>
        <time>2021-09-12T06:25:34.000Z</time>
      </trkpt>
      <trkpt lat="45.22183" lon="5.73399">
        <ele>982.20001220703</ele>
        <time>2021-09-12T06:25:36.000Z</time>
      </trkpt>
      <trkpt lat="45.22181" lon="5.73401">
        <ele>982.79998779297</ele>
        <time>2021-09-12T06:25:40.000Z</time>
      </trkpt>
      <trkpt lat="45.22178" lon="5.73402">
        <ele>983.59997558594</ele>
        <time>2021-09-12T06:25:42.000Z</time>
      </trkpt>
      <trkpt lat="45.22178" lon="5.73402">
        <ele>984</ele>
        <time>2021-09-12T06:25:43.000Z</time>
      </trkpt>
      <trkpt lat="45.22177" lon="5.73402">
        <ele>985</ele>
        <time>2021-09-12T06:25:47.000Z</time>
      </trkpt>
      <trkpt lat="45.22175" lon="5.73403">
        <ele>985.59997558594</ele>
        <time>2021-09-12T06:25:50.000Z</time>
      </trkpt>
      <trkpt lat="45.22174" lon="5.73403">
        <ele>986.40002441406</ele>
        <time>2021-09-12T06:25:53.000Z</time>
      </trkpt>
      <trkpt lat="45.22173" lon="5.73403">
        <ele>987.59997558594</ele>
        <time>2021-09-12T06:25:57.000Z</time>
      </trkpt>
      <trkpt lat="45.22173" lon="5.73404">
        <ele>988</ele>
        <time>2021-09-12T06:25:58.000Z</time>
      </trkpt>
      <trkpt lat="45.22172" lon="5.73404">
        <ele>988.40002441406</ele>
        <time>2021-09-12T06:25:59.000Z</time>
      </trkpt>
      <trkpt lat="45.2217" lon="5.73405">
        <ele>989</ele>
        <time>2021-09-12T06:26:01.000Z</time>
      </trkpt>
      <trkpt lat="45.22169" lon="5.73406">
        <ele>989.40002441406</ele>
        <time>2021-09-12T06:26:03.000Z</time>
      </trkpt>
      <trkpt lat="45.22168" lon="5.73405">
        <ele>989.59997558594</ele>
        <time>2021-09-12T06:26:04.000Z</time>
      </trkpt>
      <trkpt lat="45.22166" lon="5.73405">
        <ele>990</ele>
        <time>2021-09-12T06:26:07.000Z</time>
      </trkpt>
      <trkpt lat="45.22165" lon="5.73406">
        <ele>990.40002441406</ele>
        <time>2021-09-12T06:26:09.000Z</time>
      </trkpt>
      <trkpt lat="45.22165" lon="5.73406">
        <ele>991</ele>
        <time>2021-09-12T06:26:10.000Z</time>
      </trkpt>
      <trkpt lat="45.22165" lon="5.73406">
        <ele>991.20001220703</ele>
        <time>2021-09-12T06:26:11.000Z</time>
      </trkpt>
      <trkpt lat="45.22158" lon="5.73406">
        <ele>992.40002441406</ele>
        <time>2021-09-12T06:26:18.000Z</time>
      </trkpt>
      <trkpt lat="45.22153" lon="5.73405">
        <ele>993.59997558594</ele>
        <time>2021-09-12T06:26:23.000Z</time>
      </trkpt>
      <trkpt lat="45.2215" lon="5.73405">
        <ele>994</ele>
        <time>2021-09-12T06:26:25.000Z</time>
      </trkpt>
      <trkpt lat="45.22147" lon="5.73404">
        <ele>994.79998779297</ele>
        <time>2021-09-12T06:26:28.000Z</time>
      </trkpt>
      <trkpt lat="45.22144" lon="5.73405">
        <ele>995.40002441406</ele>
        <time>2021-09-12T06:26:31.000Z</time>
      </trkpt>
      <trkpt lat="45.22144" lon="5.73405">
        <ele>995.79998779297</ele>
        <time>2021-09-12T06:26:32.000Z</time>
      </trkpt>
      <trkpt lat="45.22143" lon="5.73404">
        <ele>996</ele>
        <time>2021-09-12T06:26:33.000Z</time>
      </trkpt>
      <trkpt lat="45.22142" lon="5.73402">
        <ele>996.59997558594</ele>
        <time>2021-09-12T06:26:36.000Z</time>
      </trkpt>
      <trkpt lat="45.2214" lon="5.73401">
        <ele>997.20001220703</ele>
        <time>2021-09-12T06:26:39.000Z</time>
      </trkpt>
      <trkpt lat="45.22137" lon="5.734">
        <ele>998.20001220703</ele>
        <time>2021-09-12T06:26:42.000Z</time>
      </trkpt>
      <trkpt lat="45.22132" lon="5.73398">
        <ele>999</ele>
        <time>2021-09-12T06:26:46.000Z</time>
      </trkpt>
      <trkpt lat="45.22131" lon="5.73399">
        <ele>999.40002441406</ele>
        <time>2021-09-12T06:26:48.000Z</time>
      </trkpt>
      <trkpt lat="45.22128" lon="5.73399">
        <ele>1000.5999755859</ele>
        <time>2021-09-12T06:26:52.000Z</time>
      </trkpt>
      <trkpt lat="45.22122" lon="5.73399">
        <ele>1001.5999755859</ele>
        <time>2021-09-12T06:26:57.000Z</time>
      </trkpt>
      <trkpt lat="45.22119" lon="5.73398">
        <ele>1002.5999755859</ele>
        <time>2021-09-12T06:27:01.000Z</time>
      </trkpt>
      <trkpt lat="45.22114" lon="5.73396">
        <ele>1003.799987793</ele>
        <time>2021-09-12T06:27:07.000Z</time>
      </trkpt>
      <trkpt lat="45.22112" lon="5.73396">
        <ele>1004.200012207</ele>
        <time>2021-09-12T06:27:09.000Z</time>
      </trkpt>
      <trkpt lat="45.2211" lon="5.73395">
        <ele>1004.799987793</ele>
        <time>2021-09-12T06:27:11.000Z</time>
      </trkpt>
      <trkpt lat="45.22107" lon="5.73396">
        <ele>1005.4000244141</ele>
        <time>2021-09-12T06:27:15.000Z</time>
      </trkpt>
      <trkpt lat="45.22105" lon="5.73397">
        <ele>1005.799987793</ele>
        <time>2021-09-12T06:27:17.000Z</time>
      </trkpt>
      <trkpt lat="45.22102" lon="5.73397">
        <ele>1007.200012207</ele>
        <time>2021-09-12T06:27:21.000Z</time>
      </trkpt>
      <trkpt lat="45.221" lon="5.73396">
        <ele>1007.799987793</ele>
        <time>2021-09-12T06:27:23.000Z</time>
      </trkpt>
      <trkpt lat="45.22097" lon="5.73394">
        <ele>1008.4000244141</ele>
        <time>2021-09-12T06:27:26.000Z</time>
      </trkpt>
      <trkpt lat="45.22095" lon="5.7339">
        <ele>1009.5999755859</ele>
        <time>2021-09-12T06:27:30.000Z</time>
      </trkpt>
      <trkpt lat="45.22093" lon="5.73385">
        <ele>1010.5999755859</ele>
        <time>2021-09-12T06:27:33.000Z</time>
      </trkpt>
      <trkpt lat="45.22092" lon="5.73384">
        <ele>1010.799987793</ele>
        <time>2021-09-12T06:27:34.000Z</time>
      </trkpt>
      <trkpt lat="45.2209" lon="5.7338">
        <ele>1011.4000244141</ele>
        <time>2021-09-12T06:27:38.000Z</time>
      </trkpt>
      <trkpt lat="45.22089" lon="5.7338">
        <ele>1011.799987793</ele>
        <time>2021-09-12T06:27:39.000Z</time>
      </trkpt>
      <trkpt lat="45.22088" lon="5.73381">
        <ele>1012.200012207</ele>
        <time>2021-09-12T06:27:40.000Z</time>
      </trkpt>
      <trkpt lat="45.22086" lon="5.73382">
        <ele>1013.200012207</ele>
        <time>2021-09-12T06:27:43.000Z</time>
      </trkpt>
      <trkpt lat="45.22086" lon="5.73383">
        <ele>1013.4000244141</ele>
        <time>2021-09-12T06:27:44.000Z</time>
      </trkpt>
      <trkpt lat="45.22086" lon="5.73383">
        <ele>1013.4000244141</ele>
        <time>2021-09-12T06:27:45.000Z</time>
      </trkpt>
      <trkpt lat="45.22085" lon="5.73393">
        <ele>1014</ele>
        <time>2021-09-12T06:27:50.000Z</time>
      </trkpt>
      <trkpt lat="45.22085" lon="5.73395">
        <ele>1014</ele>
        <time>2021-09-12T06:27:51.000Z</time>
      </trkpt>
      <trkpt lat="45.22085" lon="5.73396">
        <ele>1014.200012207</ele>
        <time>2021-09-12T06:27:52.000Z</time>
      </trkpt>
      <trkpt lat="45.22087" lon="5.73405">
        <ele>1015.4000244141</ele>
        <time>2021-09-12T06:27:59.000Z</time>
      </trkpt>
      <trkpt lat="45.22086" lon="5.73413">
        <ele>1016.5999755859</ele>
        <time>2021-09-12T06:28:05.000Z</time>
      </trkpt>
      <trkpt lat="45.22085" lon="5.73416">
        <ele>1017.200012207</ele>
        <time>2021-09-12T06:28:07.000Z</time>
      </trkpt>
      <trkpt lat="45.22086" lon="5.7342">
        <ele>1017.799987793</ele>
        <time>2021-09-12T06:28:10.000Z</time>
      </trkpt>
      <trkpt lat="45.22087" lon="5.73423">
        <ele>1018.799987793</ele>
        <time>2021-09-12T06:28:14.000Z</time>
      </trkpt>
      <trkpt lat="45.22088" lon="5.73424">
        <ele>1019</ele>
        <time>2021-09-12T06:28:15.000Z</time>
      </trkpt>
      <trkpt lat="45.22089" lon="5.73426">
        <ele>1019.799987793</ele>
        <time>2021-09-12T06:28:18.000Z</time>
      </trkpt>
      <trkpt lat="45.2209" lon="5.73427">
        <ele>1020</ele>
        <time>2021-09-12T06:28:19.000Z</time>
      </trkpt>
      <trkpt lat="45.22092" lon="5.7343">
        <ele>1020.5999755859</ele>
        <time>2021-09-12T06:28:22.000Z</time>
      </trkpt>
      <trkpt lat="45.22093" lon="5.73431">
        <ele>1021</ele>
        <time>2021-09-12T06:28:23.000Z</time>
      </trkpt>
      <trkpt lat="45.22093" lon="5.73432">
        <ele>1021.200012207</ele>
        <time>2021-09-12T06:28:24.000Z</time>
      </trkpt>
      <trkpt lat="45.22095" lon="5.73436">
        <ele>1022.200012207</ele>
        <time>2021-09-12T06:28:27.000Z</time>
      </trkpt>
      <trkpt lat="45.22095" lon="5.73437">
        <ele>1022.4000244141</ele>
        <time>2021-09-12T06:28:28.000Z</time>
      </trkpt>
      <trkpt lat="45.22096" lon="5.73438">
        <ele>1022.5999755859</ele>
        <time>2021-09-12T06:28:29.000Z</time>
      </trkpt>
      <trkpt lat="45.22097" lon="5.7344">
        <ele>1023.799987793</ele>
        <time>2021-09-12T06:28:32.000Z</time>
      </trkpt>
      <trkpt lat="45.22097" lon="5.73441">
        <ele>1024.8000488281</ele>
        <time>2021-09-12T06:28:34.000Z</time>
      </trkpt>
      <trkpt lat="45.22097" lon="5.73442">
        <ele>1025</ele>
        <time>2021-09-12T06:28:35.000Z</time>
      </trkpt>
      <trkpt lat="45.22097" lon="5.73443">
        <ele>1025.4000244141</ele>
        <time>2021-09-12T06:28:36.000Z</time>
      </trkpt>
      <trkpt lat="45.22097" lon="5.73445">
        <ele>1025.8000488281</ele>
        <time>2021-09-12T06:28:38.000Z</time>
      </trkpt>
      <trkpt lat="45.22097" lon="5.73446">
        <ele>1026.5999755859</ele>
        <time>2021-09-12T06:28:39.000Z</time>
      </trkpt>
      <trkpt lat="45.22098" lon="5.73449">
        <ele>1027.4000244141</ele>
        <time>2021-09-12T06:28:42.000Z</time>
      </trkpt>
      <trkpt lat="45.22097" lon="5.7345">
        <ele>1027.5999755859</ele>
        <time>2021-09-12T06:28:43.000Z</time>
      </trkpt>
      <trkpt lat="45.22094" lon="5.73452">
        <ele>1027.8000488281</ele>
        <time>2021-09-12T06:28:45.000Z</time>
      </trkpt>
      <trkpt lat="45.22091" lon="5.73452">
        <ele>1028.1999511719</ele>
        <time>2021-09-12T06:28:47.000Z</time>
      </trkpt>
      <trkpt lat="45.22089" lon="5.73452">
        <ele>1028.5999755859</ele>
        <time>2021-09-12T06:28:49.000Z</time>
      </trkpt>
      <trkpt lat="45.22088" lon="5.73453">
        <ele>1029</ele>
        <time>2021-09-12T06:28:50.000Z</time>
      </trkpt>
      <trkpt lat="45.22085" lon="5.73453">
        <ele>1029.1999511719</ele>
        <time>2021-09-12T06:28:52.000Z</time>
      </trkpt>
      <trkpt lat="45.22084" lon="5.73455">
        <ele>1029.4000244141</ele>
        <time>2021-09-12T06:28:54.000Z</time>
      </trkpt>
      <trkpt lat="45.22083" lon="5.73456">
        <ele>1029.8000488281</ele>
        <time>2021-09-12T06:28:55.000Z</time>
      </trkpt>
      <trkpt lat="45.22082" lon="5.73457">
        <ele>1030.1999511719</ele>
        <time>2021-09-12T06:28:56.000Z</time>
      </trkpt>
      <trkpt lat="45.22081" lon="5.73458">
        <ele>1031</ele>
        <time>2021-09-12T06:28:58.000Z</time>
      </trkpt>
      <trkpt lat="45.2208" lon="5.73458">
        <ele>1031.1999511719</ele>
        <time>2021-09-12T06:28:59.000Z</time>
      </trkpt>
      <trkpt lat="45.22081" lon="5.73459">
        <ele>1031.8000488281</ele>
        <time>2021-09-12T06:29:02.000Z</time>
      </trkpt>
      <trkpt lat="45.22081" lon="5.73459">
        <ele>1032</ele>
        <time>2021-09-12T06:29:03.000Z</time>
      </trkpt>
      <trkpt lat="45.2208" lon="5.73462">
        <ele>1033</ele>
        <time>2021-09-12T06:29:07.000Z</time>
      </trkpt>
      <trkpt lat="45.2208" lon="5.73463">
        <ele>1033.4000244141</ele>
        <time>2021-09-12T06:29:08.000Z</time>
      </trkpt>
      <trkpt lat="45.22078" lon="5.73464">
        <ele>1033.8000488281</ele>
        <time>2021-09-12T06:29:10.000Z</time>
      </trkpt>
      <trkpt lat="45.22075" lon="5.73466">
        <ele>1034.1999511719</ele>
        <time>2021-09-12T06:29:12.000Z</time>
      </trkpt>
      <trkpt lat="45.22075" lon="5.73467">
        <ele>1034.1999511719</ele>
        <time>2021-09-12T06:29:13.000Z</time>
      </trkpt>
      <trkpt lat="45.22075" lon="5.73471">
        <ele>1035.4000244141</ele>
        <time>2021-09-12T06:29:16.000Z</time>
      </trkpt>
      <trkpt lat="45.22075" lon="5.73476">
        <ele>1036.1999511719</ele>
        <time>2021-09-12T06:29:19.000Z</time>
      </trkpt>
      <trkpt lat="45.22075" lon="5.73478">
        <ele>1036.5999755859</ele>
        <time>2021-09-12T06:29:20.000Z</time>
      </trkpt>
      <trkpt lat="45.22075" lon="5.73481">
        <ele>1037</ele>
        <time>2021-09-12T06:29:22.000Z</time>
      </trkpt>
      <trkpt lat="45.22071" lon="5.73485">
        <ele>1037.5999755859</ele>
        <time>2021-09-12T06:29:25.000Z</time>
      </trkpt>
      <trkpt lat="45.2207" lon="5.73485">
        <ele>1037.5999755859</ele>
        <time>2021-09-12T06:29:26.000Z</time>
      </trkpt>
      <trkpt lat="45.22064" lon="5.73486">
        <ele>1038.5999755859</ele>
        <time>2021-09-12T06:29:30.000Z</time>
      </trkpt>
      <trkpt lat="45.22063" lon="5.73485">
        <ele>1038.8000488281</ele>
        <time>2021-09-12T06:29:31.000Z</time>
      </trkpt>
      <trkpt lat="45.22054" lon="5.7348">
        <ele>1039.8000488281</ele>
        <time>2021-09-12T06:29:37.000Z</time>
      </trkpt>
      <trkpt lat="45.22053" lon="5.73479">
        <ele>1040</ele>
        <time>2021-09-12T06:29:38.000Z</time>
      </trkpt>
      <trkpt lat="45.2205" lon="5.73474">
        <ele>1040.5999755859</ele>
        <time>2021-09-12T06:29:41.000Z</time>
      </trkpt>
      <trkpt lat="45.22049" lon="5.73473">
        <ele>1040.8000488281</ele>
        <time>2021-09-12T06:29:42.000Z</time>
      </trkpt>
      <trkpt lat="45.22047" lon="5.73472">
        <ele>1041</ele>
        <time>2021-09-12T06:29:43.000Z</time>
      </trkpt>
      <trkpt lat="45.22042" lon="5.73467">
        <ele>1042</ele>
        <time>2021-09-12T06:29:47.000Z</time>
      </trkpt>
      <trkpt lat="45.2204" lon="5.73466">
        <ele>1042.4000244141</ele>
        <time>2021-09-12T06:29:49.000Z</time>
      </trkpt>
      <trkpt lat="45.22036" lon="5.73465">
        <ele>1043.1999511719</ele>
        <time>2021-09-12T06:29:52.000Z</time>
      </trkpt>
      <trkpt lat="45.22034" lon="5.73463">
        <ele>1043.8000488281</ele>
        <time>2021-09-12T06:29:54.000Z</time>
      </trkpt>
      <trkpt lat="45.22032" lon="5.73462">
        <ele>1044.5999755859</ele>
        <time>2021-09-12T06:29:56.000Z</time>
      </trkpt>
      <trkpt lat="45.22028" lon="5.73456">
        <ele>1045.5999755859</ele>
        <time>2021-09-12T06:30:01.000Z</time>
      </trkpt>
      <trkpt lat="45.22026" lon="5.73454">
        <ele>1046</ele>
        <time>2021-09-12T06:30:03.000Z</time>
      </trkpt>
      <trkpt lat="45.22019" lon="5.73448">
        <ele>1047</ele>
        <time>2021-09-12T06:30:07.000Z</time>
      </trkpt>
      <trkpt lat="45.22016" lon="5.73446">
        <ele>1047.1999511719</ele>
        <time>2021-09-12T06:30:09.000Z</time>
      </trkpt>
      <trkpt lat="45.22009" lon="5.73442">
        <ele>1048</ele>
        <time>2021-09-12T06:30:14.000Z</time>
      </trkpt>
      <trkpt lat="45.22006" lon="5.73442">
        <ele>1048.1999511719</ele>
        <time>2021-09-12T06:30:16.000Z</time>
      </trkpt>
      <trkpt lat="45.21998" lon="5.73442">
        <ele>1047.8000488281</ele>
        <time>2021-09-12T06:30:21.000Z</time>
      </trkpt>
      <trkpt lat="45.21996" lon="5.73442">
        <ele>1047.5999755859</ele>
        <time>2021-09-12T06:30:22.000Z</time>
      </trkpt>
      <trkpt lat="45.2199" lon="5.73439">
        <ele>1047</ele>
        <time>2021-09-12T06:30:26.000Z</time>
      </trkpt>
      <trkpt lat="45.21985" lon="5.73437">
        <ele>1046.1999511719</ele>
        <time>2021-09-12T06:30:29.000Z</time>
      </trkpt>
      <trkpt lat="45.21983" lon="5.73436">
        <ele>1045.8000488281</ele>
        <time>2021-09-12T06:30:30.000Z</time>
      </trkpt>
      <trkpt lat="45.21976" lon="5.73432">
        <ele>1044.5999755859</ele>
        <time>2021-09-12T06:30:34.000Z</time>
      </trkpt>
      <trkpt lat="45.21971" lon="5.7343">
        <ele>1044.4000244141</ele>
        <time>2021-09-12T06:30:36.000Z</time>
      </trkpt>
      <trkpt lat="45.21967" lon="5.7343">
        <ele>1043.8000488281</ele>
        <time>2021-09-12T06:30:39.000Z</time>
      </trkpt>
      <trkpt lat="45.21965" lon="5.73431">
        <ele>1043.5999755859</ele>
        <time>2021-09-12T06:30:40.000Z</time>
      </trkpt>
      <trkpt lat="45.21963" lon="5.73432">
        <ele>1043.5999755859</ele>
        <time>2021-09-12T06:30:41.000Z</time>
      </trkpt>
      <trkpt lat="45.21952" lon="5.73432">
        <ele>1042.8000488281</ele>
        <time>2021-09-12T06:30:47.000Z</time>
      </trkpt>
      <trkpt lat="45.21951" lon="5.73431">
        <ele>1042.8000488281</ele>
        <time>2021-09-12T06:30:48.000Z</time>
      </trkpt>
      <trkpt lat="45.21949" lon="5.7343">
        <ele>1042.5999755859</ele>
        <time>2021-09-12T06:30:49.000Z</time>
      </trkpt>
      <trkpt lat="45.21945" lon="5.73426">
        <ele>1041.8000488281</ele>
        <time>2021-09-12T06:30:53.000Z</time>
      </trkpt>
      <trkpt lat="45.21944" lon="5.73424">
        <ele>1041.5999755859</ele>
        <time>2021-09-12T06:30:54.000Z</time>
      </trkpt>
      <trkpt lat="45.21938" lon="5.73417">
        <ele>1040.4000244141</ele>
        <time>2021-09-12T06:31:00.000Z</time>
      </trkpt>
      <trkpt lat="45.21938" lon="5.73415">
        <ele>1040.4000244141</ele>
        <time>2021-09-12T06:31:01.000Z</time>
      </trkpt>
      <trkpt lat="45.21927" lon="5.734">
        <ele>1039.8000488281</ele>
        <time>2021-09-12T06:31:06.000Z</time>
      </trkpt>
      <trkpt lat="45.21925" lon="5.73398">
        <ele>1039.8000488281</ele>
        <time>2021-09-12T06:31:07.000Z</time>
      </trkpt>
      <trkpt lat="45.21918" lon="5.73395">
        <ele>1040.1999511719</ele>
        <time>2021-09-12T06:31:11.000Z</time>
      </trkpt>
      <trkpt lat="45.21908" lon="5.73389">
        <ele>1041</ele>
        <time>2021-09-12T06:31:17.000Z</time>
      </trkpt>
      <trkpt lat="45.21899" lon="5.73386">
        <ele>1040.8000488281</ele>
        <time>2021-09-12T06:31:22.000Z</time>
      </trkpt>
      <trkpt lat="45.21898" lon="5.73385">
        <ele>1040.8000488281</ele>
        <time>2021-09-12T06:31:23.000Z</time>
      </trkpt>
      <trkpt lat="45.21895" lon="5.73382">
        <ele>1040.4000244141</ele>
        <time>2021-09-12T06:31:26.000Z</time>
      </trkpt>
      <trkpt lat="45.21893" lon="5.7338">
        <ele>1040.1999511719</ele>
        <time>2021-09-12T06:31:28.000Z</time>
      </trkpt>
      <trkpt lat="45.2189" lon="5.73377">
        <ele>1039.8000488281</ele>
        <time>2021-09-12T06:31:31.000Z</time>
      </trkpt>
      <trkpt lat="45.21887" lon="5.73373">
        <ele>1039.4000244141</ele>
        <time>2021-09-12T06:31:34.000Z</time>
      </trkpt>
      <trkpt lat="45.21886" lon="5.73371">
        <ele>1039.1999511719</ele>
        <time>2021-09-12T06:31:35.000Z</time>
      </trkpt>
      <trkpt lat="45.21882" lon="5.7337">
        <ele>1039.4000244141</ele>
        <time>2021-09-12T06:31:38.000Z</time>
      </trkpt>
      <trkpt lat="45.21878" lon="5.73367">
        <ele>1040.5999755859</ele>
        <time>2021-09-12T06:31:41.000Z</time>
      </trkpt>
      <trkpt lat="45.21877" lon="5.73366">
        <ele>1040.8000488281</ele>
        <time>2021-09-12T06:31:42.000Z</time>
      </trkpt>
      <trkpt lat="45.21871" lon="5.73361">
        <ele>1041.8000488281</ele>
        <time>2021-09-12T06:31:46.000Z</time>
      </trkpt>
      <trkpt lat="45.21866" lon="5.73358">
        <ele>1043.1999511719</ele>
        <time>2021-09-12T06:31:50.000Z</time>
      </trkpt>
      <trkpt lat="45.2186" lon="5.73356">
        <ele>1044</ele>
        <time>2021-09-12T06:31:54.000Z</time>
      </trkpt>
      <trkpt lat="45.21859" lon="5.73354">
        <ele>1044.4000244141</ele>
        <time>2021-09-12T06:31:55.000Z</time>
      </trkpt>
      <trkpt lat="45.21857" lon="5.73351">
        <ele>1045.1999511719</ele>
        <time>2021-09-12T06:31:57.000Z</time>
      </trkpt>
      <trkpt lat="45.21855" lon="5.7335">
        <ele>1046</ele>
        <time>2021-09-12T06:31:59.000Z</time>
      </trkpt>
      <trkpt lat="45.21852" lon="5.73348">
        <ele>1046.8000488281</ele>
        <time>2021-09-12T06:32:02.000Z</time>
      </trkpt>
      <trkpt lat="45.21851" lon="5.73346">
        <ele>1047</ele>
        <time>2021-09-12T06:32:04.000Z</time>
      </trkpt>
      <trkpt lat="45.21851" lon="5.73345">
        <ele>1047</ele>
        <time>2021-09-12T06:32:07.000Z</time>
      </trkpt>
      <trkpt lat="45.21851" lon="5.73345">
        <ele>1047</ele>
        <time>2021-09-12T06:32:08.000Z</time>
      </trkpt>
      <trkpt lat="45.21851" lon="5.73345">
        <ele>1046.8000488281</ele>
        <time>2021-09-12T06:32:10.000Z</time>
      </trkpt>
      <trkpt lat="45.21851" lon="5.73345">
        <ele>1046.8000488281</ele>
        <time>2021-09-12T06:32:19.000Z</time>
      </trkpt>
      <trkpt lat="45.21851" lon="5.73345">
        <ele>1046.8000488281</ele>
        <time>2021-09-12T06:32:25.000Z</time>
      </trkpt>
      <trkpt lat="45.21851" lon="5.73344">
        <ele>1046.8000488281</ele>
        <time>2021-09-12T06:32:31.000Z</time>
      </trkpt>
      <trkpt lat="45.21849" lon="5.73351">
        <ele>1046.8000488281</ele>
        <time>2021-09-12T06:32:37.000Z</time>
      </trkpt>
      <trkpt lat="45.21847" lon="5.7336">
        <ele>1046.8000488281</ele>
        <time>2021-09-12T06:32:44.000Z</time>
      </trkpt>
      <trkpt lat="45.21847" lon="5.73359">
        <ele>1046.5999755859</ele>
        <time>2021-09-12T06:32:51.000Z</time>
      </trkpt>
      <trkpt lat="45.21847" lon="5.73359">
        <ele>1046.5999755859</ele>
        <time>2021-09-12T06:32:53.000Z</time>
      </trkpt>
      <trkpt lat="45.21847" lon="5.73359">
        <ele>1046.4000244141</ele>
        <time>2021-09-12T06:33:00.000Z</time>
      </trkpt>
      <trkpt lat="45.21847" lon="5.73359">
        <ele>1046.4000244141</ele>
        <time>2021-09-12T06:33:02.000Z</time>
      </trkpt>
      <trkpt lat="45.21847" lon="5.73359">
        <ele>1046.4000244141</ele>
        <time>2021-09-12T06:33:04.000Z</time>
      </trkpt>
      <trkpt lat="45.21847" lon="5.73359">
        <ele>1046.4000244141</ele>
        <time>2021-09-12T06:33:07.000Z</time>
      </trkpt>
      <trkpt lat="45.21847" lon="5.73359">
        <ele>1046.1999511719</ele>
        <time>2021-09-12T06:33:17.000Z</time>
      </trkpt>
      <trkpt lat="45.21847" lon="5.73359">
        <ele>1046.1999511719</ele>
        <time>2021-09-12T06:33:19.000Z</time>
      </trkpt>
      <trkpt lat="45.21846" lon="5.7336">
        <ele>1046</ele>
        <time>2021-09-12T06:33:28.000Z</time>
      </trkpt>
      <trkpt lat="45.21846" lon="5.73361">
        <ele>1045.4000244141</ele>
        <time>2021-09-12T06:33:35.000Z</time>
      </trkpt>
      <trkpt lat="45.21846" lon="5.73359">
        <ele>1045.8000488281</ele>
        <time>2021-09-12T06:33:44.000Z</time>
      </trkpt>
      <trkpt lat="45.21846" lon="5.73358">
        <ele>1045.5999755859</ele>
        <time>2021-09-12T06:33:45.000Z</time>
      </trkpt>
      <trkpt lat="45.21846" lon="5.73358">
        <ele>1045.4000244141</ele>
        <time>2021-09-12T06:33:46.000Z</time>
      </trkpt>
      <trkpt lat="45.21846" lon="5.73356">
        <ele>1045.1999511719</ele>
        <time>2021-09-12T06:33:48.000Z</time>
      </trkpt>
      <trkpt lat="45.21846" lon="5.73352">
        <ele>1045.1999511719</ele>
        <time>2021-09-12T06:33:52.000Z</time>
      </trkpt>
      <trkpt lat="45.21846" lon="5.73347">
        <ele>1045.4000244141</ele>
        <time>2021-09-12T06:33:58.000Z</time>
      </trkpt>
      <trkpt lat="45.21846" lon="5.73347">
        <ele>1045.5999755859</ele>
        <time>2021-09-12T06:34:03.000Z</time>
      </trkpt>
      <trkpt lat="45.21846" lon="5.73347">
        <ele>1045.5999755859</ele>
        <time>2021-09-12T06:34:04.000Z</time>
      </trkpt>
      <trkpt lat="45.21843" lon="5.73341">
        <ele>1045.1999511719</ele>
        <time>2021-09-12T06:34:09.000Z</time>
      </trkpt>
      <trkpt lat="45.21834" lon="5.7333">
        <ele>1044.8000488281</ele>
        <time>2021-09-12T06:34:17.000Z</time>
      </trkpt>
      <trkpt lat="45.21831" lon="5.73326">
        <ele>1044.4000244141</ele>
        <time>2021-09-12T06:34:20.000Z</time>
      </trkpt>
      <trkpt lat="45.21829" lon="5.73322">
        <ele>1043.8000488281</ele>
        <time>2021-09-12T06:34:24.000Z</time>
      </trkpt>
      <trkpt lat="45.21825" lon="5.73318">
        <ele>1042.8000488281</ele>
        <time>2021-09-12T06:34:29.000Z</time>
      </trkpt>
      <trkpt lat="45.21825" lon="5.73317">
        <ele>1042.5999755859</ele>
        <time>2021-09-12T06:34:30.000Z</time>
      </trkpt>
      <trkpt lat="45.21825" lon="5.73316">
        <ele>1042.4000244141</ele>
        <time>2021-09-12T06:34:31.000Z</time>
      </trkpt>
      <trkpt lat="45.21824" lon="5.73315">
        <ele>1042.1999511719</ele>
        <time>2021-09-12T06:34:32.000Z</time>
      </trkpt>
      <trkpt lat="45.2182" lon="5.73312">
        <ele>1041.5999755859</ele>
        <time>2021-09-12T06:34:35.000Z</time>
      </trkpt>
      <trkpt lat="45.21815" lon="5.73309">
        <ele>1040.8000488281</ele>
        <time>2021-09-12T06:34:38.000Z</time>
      </trkpt>
      <trkpt lat="45.21813" lon="5.73308">
        <ele>1040.5999755859</ele>
        <time>2021-09-12T06:34:39.000Z</time>
      </trkpt>
      <trkpt lat="45.21808" lon="5.73299">
        <ele>1039.4000244141</ele>
        <time>2021-09-12T06:34:43.000Z</time>
      </trkpt>
      <trkpt lat="45.21806" lon="5.73297">
        <ele>1039</ele>
        <time>2021-09-12T06:34:44.000Z</time>
      </trkpt>
      <trkpt lat="45.21799" lon="5.73288">
        <ele>1038.1999511719</ele>
        <time>2021-09-12T06:34:48.000Z</time>
      </trkpt>
      <trkpt lat="45.21796" lon="5.73286">
        <ele>1037.5999755859</ele>
        <time>2021-09-12T06:34:50.000Z</time>
      </trkpt>
      <trkpt lat="45.21795" lon="5.73285">
        <ele>1037.4000244141</ele>
        <time>2021-09-12T06:34:51.000Z</time>
      </trkpt>
      <trkpt lat="45.21793" lon="5.73284">
        <ele>1037.1999511719</ele>
        <time>2021-09-12T06:34:52.000Z</time>
      </trkpt>
      <trkpt lat="45.2179" lon="5.7328">
        <ele>1036</ele>
        <time>2021-09-12T06:34:55.000Z</time>
      </trkpt>
      <trkpt lat="45.21788" lon="5.73278">
        <ele>1035.5999755859</ele>
        <time>2021-09-12T06:34:56.000Z</time>
      </trkpt>
      <trkpt lat="45.21786" lon="5.73275">
        <ele>1034.8000488281</ele>
        <time>2021-09-12T06:34:59.000Z</time>
      </trkpt>
      <trkpt lat="45.21782" lon="5.73272">
        <ele>1033.8000488281</ele>
        <time>2021-09-12T06:35:02.000Z</time>
      </trkpt>
      <trkpt lat="45.21781" lon="5.73272">
        <ele>1033.5999755859</ele>
        <time>2021-09-12T06:35:03.000Z</time>
      </trkpt>
      <trkpt lat="45.2178" lon="5.73271">
        <ele>1033.1999511719</ele>
        <time>2021-09-12T06:35:05.000Z</time>
      </trkpt>
      <trkpt lat="45.21782" lon="5.73266">
        <ele>1032.8000488281</ele>
        <time>2021-09-12T06:35:09.000Z</time>
      </trkpt>
      <trkpt lat="45.21785" lon="5.73264">
        <ele>1032.5999755859</ele>
        <time>2021-09-12T06:35:11.000Z</time>
      </trkpt>
      <trkpt lat="45.21784" lon="5.73262">
        <ele>1032.4000244141</ele>
        <time>2021-09-12T06:35:12.000Z</time>
      </trkpt>
      <trkpt lat="45.21783" lon="5.73259">
        <ele>1032.1999511719</ele>
        <time>2021-09-12T06:35:14.000Z</time>
      </trkpt>
      <trkpt lat="45.21781" lon="5.73256">
        <ele>1032</ele>
        <time>2021-09-12T06:35:16.000Z</time>
      </trkpt>
      <trkpt lat="45.21779" lon="5.73253">
        <ele>1031.5999755859</ele>
        <time>2021-09-12T06:35:18.000Z</time>
      </trkpt>
      <trkpt lat="45.21777" lon="5.73248">
        <ele>1030.1999511719</ele>
        <time>2021-09-12T06:35:21.000Z</time>
      </trkpt>
      <trkpt lat="45.21777" lon="5.73246">
        <ele>1029.8000488281</ele>
        <time>2021-09-12T06:35:22.000Z</time>
      </trkpt>
      <trkpt lat="45.21776" lon="5.73243">
        <ele>1029.1999511719</ele>
        <time>2021-09-12T06:35:24.000Z</time>
      </trkpt>
      <trkpt lat="45.21775" lon="5.73242">
        <ele>1029</ele>
        <time>2021-09-12T06:35:25.000Z</time>
      </trkpt>
      <trkpt lat="45.21773" lon="5.7324">
        <ele>1028.5999755859</ele>
        <time>2021-09-12T06:35:26.000Z</time>
      </trkpt>
      <trkpt lat="45.21772" lon="5.73238">
        <ele>1028.4000244141</ele>
        <time>2021-09-12T06:35:27.000Z</time>
      </trkpt>
      <trkpt lat="45.21771" lon="5.73237">
        <ele>1028</ele>
        <time>2021-09-12T06:35:28.000Z</time>
      </trkpt>
      <trkpt lat="45.21768" lon="5.73234">
        <ele>1028</ele>
        <time>2021-09-12T06:35:31.000Z</time>
      </trkpt>
      <trkpt lat="45.21767" lon="5.73233">
        <ele>1028.1999511719</ele>
        <time>2021-09-12T06:35:32.000Z</time>
      </trkpt>
      <trkpt lat="45.21766" lon="5.73231">
        <ele>1028.1999511719</ele>
        <time>2021-09-12T06:35:33.000Z</time>
      </trkpt>
      <trkpt lat="45.21766" lon="5.7323">
        <ele>1028.1999511719</ele>
        <time>2021-09-12T06:35:34.000Z</time>
      </trkpt>
      <trkpt lat="45.21763" lon="5.73227">
        <ele>1028</ele>
        <time>2021-09-12T06:35:37.000Z</time>
      </trkpt>
      <trkpt lat="45.21762" lon="5.73226">
        <ele>1027.8000488281</ele>
        <time>2021-09-12T06:35:38.000Z</time>
      </trkpt>
      <trkpt lat="45.2176" lon="5.73225">
        <ele>1027.8000488281</ele>
        <time>2021-09-12T06:35:40.000Z</time>
      </trkpt>
      <trkpt lat="45.2176" lon="5.73222">
        <ele>1027.4000244141</ele>
        <time>2021-09-12T06:35:42.000Z</time>
      </trkpt>
      <trkpt lat="45.2176" lon="5.73221">
        <ele>1027.1999511719</ele>
        <time>2021-09-12T06:35:43.000Z</time>
      </trkpt>
      <trkpt lat="45.2176" lon="5.73219">
        <ele>1027</ele>
        <time>2021-09-12T06:35:44.000Z</time>
      </trkpt>
      <trkpt lat="45.21759" lon="5.73218">
        <ele>1026.8000488281</ele>
        <time>2021-09-12T06:35:45.000Z</time>
      </trkpt>
      <trkpt lat="45.21758" lon="5.73216">
        <ele>1026.4000244141</ele>
        <time>2021-09-12T06:35:47.000Z</time>
      </trkpt>
      <trkpt lat="45.21758" lon="5.73213">
        <ele>1025.5999755859</ele>
        <time>2021-09-12T06:35:49.000Z</time>
      </trkpt>
      <trkpt lat="45.21758" lon="5.73212">
        <ele>1025.4000244141</ele>
        <time>2021-09-12T06:35:50.000Z</time>
      </trkpt>
      <trkpt lat="45.21754" lon="5.73207">
        <ele>1024.5999755859</ele>
        <time>2021-09-12T06:35:53.000Z</time>
      </trkpt>
      <trkpt lat="45.21751" lon="5.73204">
        <ele>1024.4000244141</ele>
        <time>2021-09-12T06:35:55.000Z</time>
      </trkpt>
      <trkpt lat="45.21749" lon="5.73204">
        <ele>1024.4000244141</ele>
        <time>2021-09-12T06:35:56.000Z</time>
      </trkpt>
      <trkpt lat="45.21748" lon="5.73203">
        <ele>1024.4000244141</ele>
        <time>2021-09-12T06:35:57.000Z</time>
      </trkpt>
      <trkpt lat="45.21741" lon="5.73206">
        <ele>1025</ele>
        <time>2021-09-12T06:36:02.000Z</time>
      </trkpt>
      <trkpt lat="45.21736" lon="5.73208">
        <ele>1025.1999511719</ele>
        <time>2021-09-12T06:36:05.000Z</time>
      </trkpt>
      <trkpt lat="45.21733" lon="5.73213">
        <ele>1024.8000488281</ele>
        <time>2021-09-12T06:36:09.000Z</time>
      </trkpt>
      <trkpt lat="45.2173" lon="5.73215">
        <ele>1024.1999511719</ele>
        <time>2021-09-12T06:36:12.000Z</time>
      </trkpt>
      <trkpt lat="45.21728" lon="5.73218">
        <ele>1023.5999755859</ele>
        <time>2021-09-12T06:36:15.000Z</time>
      </trkpt>
      <trkpt lat="45.21728" lon="5.73219">
        <ele>1023.4000244141</ele>
        <time>2021-09-12T06:36:16.000Z</time>
      </trkpt>
      <trkpt lat="45.21727" lon="5.73219">
        <ele>1023</ele>
        <time>2021-09-12T06:36:17.000Z</time>
      </trkpt>
      <trkpt lat="45.21724" lon="5.73219">
        <ele>1022.200012207</ele>
        <time>2021-09-12T06:36:20.000Z</time>
      </trkpt>
      <trkpt lat="45.21723" lon="5.73219">
        <ele>1021.5999755859</ele>
        <time>2021-09-12T06:36:21.000Z</time>
      </trkpt>
      <trkpt lat="45.21721" lon="5.73218">
        <ele>1020.799987793</ele>
        <time>2021-09-12T06:36:23.000Z</time>
      </trkpt>
      <trkpt lat="45.21713" lon="5.73212">
        <ele>1019.5999755859</ele>
        <time>2021-09-12T06:36:27.000Z</time>
      </trkpt>
      <trkpt lat="45.2171" lon="5.73209">
        <ele>1019.200012207</ele>
        <time>2021-09-12T06:36:29.000Z</time>
      </trkpt>
      <trkpt lat="45.21707" lon="5.73202">
        <ele>1018.799987793</ele>
        <time>2021-09-12T06:36:32.000Z</time>
      </trkpt>
      <trkpt lat="45.21705" lon="5.73198">
        <ele>1018.5999755859</ele>
        <time>2021-09-12T06:36:34.000Z</time>
      </trkpt>
      <trkpt lat="45.21698" lon="5.73188">
        <ele>1018</ele>
        <time>2021-09-12T06:36:39.000Z</time>
      </trkpt>
      <trkpt lat="45.21694" lon="5.7318">
        <ele>1017.4000244141</ele>
        <time>2021-09-12T06:36:43.000Z</time>
      </trkpt>
      <trkpt lat="45.2169" lon="5.73173">
        <ele>1016.4000244141</ele>
        <time>2021-09-12T06:36:47.000Z</time>
      </trkpt>
      <trkpt lat="45.21689" lon="5.73172">
        <ele>1016.200012207</ele>
        <time>2021-09-12T06:36:48.000Z</time>
      </trkpt>
      <trkpt lat="45.21687" lon="5.7317">
        <ele>1015.200012207</ele>
        <time>2021-09-12T06:36:50.000Z</time>
      </trkpt>
      <trkpt lat="45.21687" lon="5.73169">
        <ele>1014.799987793</ele>
        <time>2021-09-12T06:36:51.000Z</time>
      </trkpt>
      <trkpt lat="45.21685" lon="5.73167">
        <ele>1014.200012207</ele>
        <time>2021-09-12T06:36:53.000Z</time>
      </trkpt>
      <trkpt lat="45.21684" lon="5.73165">
        <ele>1013.799987793</ele>
        <time>2021-09-12T06:36:54.000Z</time>
      </trkpt>
      <trkpt lat="45.21684" lon="5.73164">
        <ele>1013.5999755859</ele>
        <time>2021-09-12T06:36:55.000Z</time>
      </trkpt>
      <trkpt lat="45.21682" lon="5.73163">
        <ele>1012.799987793</ele>
        <time>2021-09-12T06:36:57.000Z</time>
      </trkpt>
      <trkpt lat="45.2168" lon="5.73159">
        <ele>1011.799987793</ele>
        <time>2021-09-12T06:37:00.000Z</time>
      </trkpt>
      <trkpt lat="45.21679" lon="5.73155">
        <ele>1010.5999755859</ele>
        <time>2021-09-12T06:37:03.000Z</time>
      </trkpt>
      <trkpt lat="45.21676" lon="5.73149">
        <ele>1009.5999755859</ele>
        <time>2021-09-12T06:37:07.000Z</time>
      </trkpt>
      <trkpt lat="45.21675" lon="5.73148">
        <ele>1009.200012207</ele>
        <time>2021-09-12T06:37:08.000Z</time>
      </trkpt>
      <trkpt lat="45.21674" lon="5.73145">
        <ele>1008.200012207</ele>
        <time>2021-09-12T06:37:10.000Z</time>
      </trkpt>
      <trkpt lat="45.21673" lon="5.7314">
        <ele>1007.200012207</ele>
        <time>2021-09-12T06:37:13.000Z</time>
      </trkpt>
      <trkpt lat="45.21673" lon="5.73139">
        <ele>1006.799987793</ele>
        <time>2021-09-12T06:37:14.000Z</time>
      </trkpt>
      <trkpt lat="45.21672" lon="5.73139">
        <ele>1006.4000244141</ele>
        <time>2021-09-12T06:37:15.000Z</time>
      </trkpt>
      <trkpt lat="45.21671" lon="5.73139">
        <ele>1006.200012207</ele>
        <time>2021-09-12T06:37:16.000Z</time>
      </trkpt>
      <trkpt lat="45.21668" lon="5.73139">
        <ele>1005</ele>
        <time>2021-09-12T06:37:19.000Z</time>
      </trkpt>
      <trkpt lat="45.21666" lon="5.73138">
        <ele>1004.4000244141</ele>
        <time>2021-09-12T06:37:21.000Z</time>
      </trkpt>
      <trkpt lat="45.21664" lon="5.73135">
        <ele>1003.799987793</ele>
        <time>2021-09-12T06:37:23.000Z</time>
      </trkpt>
      <trkpt lat="45.21661" lon="5.73135">
        <ele>1002.5999755859</ele>
        <time>2021-09-12T06:37:27.000Z</time>
      </trkpt>
      <trkpt lat="45.2166" lon="5.73136">
        <ele>1002.200012207</ele>
        <time>2021-09-12T06:37:28.000Z</time>
      </trkpt>
      <trkpt lat="45.21658" lon="5.73137">
        <ele>1002</ele>
        <time>2021-09-12T06:37:29.000Z</time>
      </trkpt>
      <trkpt lat="45.21656" lon="5.73136">
        <ele>1001.5999755859</ele>
        <time>2021-09-12T06:37:30.000Z</time>
      </trkpt>
      <trkpt lat="45.21651" lon="5.73135">
        <ele>1000</ele>
        <time>2021-09-12T06:37:33.000Z</time>
      </trkpt>
      <trkpt lat="45.21648" lon="5.73136">
        <ele>999</ele>
        <time>2021-09-12T06:37:35.000Z</time>
      </trkpt>
      <trkpt lat="45.21648" lon="5.73136">
        <ele>998.79998779297</ele>
        <time>2021-09-12T06:37:36.000Z</time>
      </trkpt>
      <trkpt lat="45.21647" lon="5.73136">
        <ele>998.40002441406</ele>
        <time>2021-09-12T06:37:37.000Z</time>
      </trkpt>
      <trkpt lat="45.21641" lon="5.73138">
        <ele>997.79998779297</ele>
        <time>2021-09-12T06:37:44.000Z</time>
      </trkpt>
      <trkpt lat="45.2164" lon="5.73138">
        <ele>997.59997558594</ele>
        <time>2021-09-12T06:37:45.000Z</time>
      </trkpt>
      <trkpt lat="45.21636" lon="5.73139">
        <ele>996.40002441406</ele>
        <time>2021-09-12T06:37:49.000Z</time>
      </trkpt>
      <trkpt lat="45.21635" lon="5.7314">
        <ele>996</ele>
        <time>2021-09-12T06:37:50.000Z</time>
      </trkpt>
      <trkpt lat="45.21631" lon="5.73141">
        <ele>995.20001220703</ele>
        <time>2021-09-12T06:37:52.000Z</time>
      </trkpt>
      <trkpt lat="45.21626" lon="5.7314">
        <ele>993.79998779297</ele>
        <time>2021-09-12T06:37:55.000Z</time>
      </trkpt>
      <trkpt lat="45.21624" lon="5.73139">
        <ele>993</ele>
        <time>2021-09-12T06:37:56.000Z</time>
      </trkpt>
      <trkpt lat="45.21623" lon="5.73136">
        <ele>992.59997558594</ele>
        <time>2021-09-12T06:37:57.000Z</time>
      </trkpt>
      <trkpt lat="45.21617" lon="5.73131">
        <ele>991.79998779297</ele>
        <time>2021-09-12T06:38:00.000Z</time>
      </trkpt>
      <trkpt lat="45.21615" lon="5.7313">
        <ele>991.40002441406</ele>
        <time>2021-09-12T06:38:01.000Z</time>
      </trkpt>
      <trkpt lat="45.21607" lon="5.73126">
        <ele>989.79998779297</ele>
        <time>2021-09-12T06:38:05.000Z</time>
      </trkpt>
      <trkpt lat="45.21603" lon="5.73125">
        <ele>988.79998779297</ele>
        <time>2021-09-12T06:38:07.000Z</time>
      </trkpt>
      <trkpt lat="45.216" lon="5.73124">
        <ele>988.40002441406</ele>
        <time>2021-09-12T06:38:08.000Z</time>
      </trkpt>
      <trkpt lat="45.21594" lon="5.73118">
        <ele>987</ele>
        <time>2021-09-12T06:38:11.000Z</time>
      </trkpt>
      <trkpt lat="45.21591" lon="5.73117">
        <ele>986.20001220703</ele>
        <time>2021-09-12T06:38:13.000Z</time>
      </trkpt>
      <trkpt lat="45.21589" lon="5.73118">
        <ele>986</ele>
        <time>2021-09-12T06:38:14.000Z</time>
      </trkpt>
      <trkpt lat="45.21585" lon="5.73123">
        <ele>984.59997558594</ele>
        <time>2021-09-12T06:38:18.000Z</time>
      </trkpt>
      <trkpt lat="45.21582" lon="5.73124">
        <ele>983.79998779297</ele>
        <time>2021-09-12T06:38:20.000Z</time>
      </trkpt>
      <trkpt lat="45.21582" lon="5.73126">
        <ele>983.20001220703</ele>
        <time>2021-09-12T06:38:21.000Z</time>
      </trkpt>
      <trkpt lat="45.21582" lon="5.73129">
        <ele>982.59997558594</ele>
        <time>2021-09-12T06:38:23.000Z</time>
      </trkpt>
      <trkpt lat="45.21583" lon="5.73131">
        <ele>981.79998779297</ele>
        <time>2021-09-12T06:38:25.000Z</time>
      </trkpt>
      <trkpt lat="45.21583" lon="5.73136">
        <ele>980.79998779297</ele>
        <time>2021-09-12T06:38:27.000Z</time>
      </trkpt>
      <trkpt lat="45.21583" lon="5.73137">
        <ele>980.20001220703</ele>
        <time>2021-09-12T06:38:28.000Z</time>
      </trkpt>
      <trkpt lat="45.21581" lon="5.73139">
        <ele>979.59997558594</ele>
        <time>2021-09-12T06:38:29.000Z</time>
      </trkpt>
      <trkpt lat="45.21578" lon="5.73141">
        <ele>978.40002441406</ele>
        <time>2021-09-12T06:38:32.000Z</time>
      </trkpt>
      <trkpt lat="45.21577" lon="5.73142">
        <ele>978</ele>
        <time>2021-09-12T06:38:33.000Z</time>
      </trkpt>
      <trkpt lat="45.21576" lon="5.73144">
        <ele>976.79998779297</ele>
        <time>2021-09-12T06:38:35.000Z</time>
      </trkpt>
      <trkpt lat="45.21575" lon="5.73149">
        <ele>975.59997558594</ele>
        <time>2021-09-12T06:38:38.000Z</time>
      </trkpt>
      <trkpt lat="45.21575" lon="5.73152">
        <ele>974.79998779297</ele>
        <time>2021-09-12T06:38:40.000Z</time>
      </trkpt>
      <trkpt lat="45.21575" lon="5.73153">
        <ele>974.40002441406</ele>
        <time>2021-09-12T06:38:41.000Z</time>
      </trkpt>
      <trkpt lat="45.21575" lon="5.73156">
        <ele>973.59997558594</ele>
        <time>2021-09-12T06:38:43.000Z</time>
      </trkpt>
      <trkpt lat="45.21575" lon="5.73158">
        <ele>973</ele>
        <time>2021-09-12T06:38:44.000Z</time>
      </trkpt>
      <trkpt lat="45.21574" lon="5.73159">
        <ele>971.59997558594</ele>
        <time>2021-09-12T06:38:46.000Z</time>
      </trkpt>
      <trkpt lat="45.21572" lon="5.73159">
        <ele>970.79998779297</ele>
        <time>2021-09-12T06:38:48.000Z</time>
      </trkpt>
      <trkpt lat="45.21571" lon="5.7316">
        <ele>970.40002441406</ele>
        <time>2021-09-12T06:38:49.000Z</time>
      </trkpt>
      <trkpt lat="45.2157" lon="5.73165">
        <ele>969.20001220703</ele>
        <time>2021-09-12T06:38:52.000Z</time>
      </trkpt>
      <trkpt lat="45.2157" lon="5.73168">
        <ele>968.40002441406</ele>
        <time>2021-09-12T06:38:54.000Z</time>
      </trkpt>
      <trkpt lat="45.21571" lon="5.73169">
        <ele>968</ele>
        <time>2021-09-12T06:38:55.000Z</time>
      </trkpt>
      <trkpt lat="45.21571" lon="5.73172">
        <ele>967</ele>
        <time>2021-09-12T06:38:57.000Z</time>
      </trkpt>
      <trkpt lat="45.21571" lon="5.73173">
        <ele>966.59997558594</ele>
        <time>2021-09-12T06:38:58.000Z</time>
      </trkpt>
      <trkpt lat="45.21569" lon="5.73178">
        <ele>965.79998779297</ele>
        <time>2021-09-12T06:39:01.000Z</time>
      </trkpt>
      <trkpt lat="45.2157" lon="5.7318">
        <ele>965.40002441406</ele>
        <time>2021-09-12T06:39:02.000Z</time>
      </trkpt>
      <trkpt lat="45.21572" lon="5.73183">
        <ele>964.20001220703</ele>
        <time>2021-09-12T06:39:04.000Z</time>
      </trkpt>
      <trkpt lat="45.21576" lon="5.73187">
        <ele>963.20001220703</ele>
        <time>2021-09-12T06:39:06.000Z</time>
      </trkpt>
      <trkpt lat="45.21583" lon="5.73196">
        <ele>961.79998779297</ele>
        <time>2021-09-12T06:39:10.000Z</time>
      </trkpt>
      <trkpt lat="45.21588" lon="5.73204">
        <ele>960.79998779297</ele>
        <time>2021-09-12T06:39:13.000Z</time>
      </trkpt>
      <trkpt lat="45.21593" lon="5.73213">
        <ele>959.59997558594</ele>
        <time>2021-09-12T06:39:16.000Z</time>
      </trkpt>
      <trkpt lat="45.21599" lon="5.73223">
        <ele>958.40002441406</ele>
        <time>2021-09-12T06:39:20.000Z</time>
      </trkpt>
      <trkpt lat="45.21603" lon="5.73228">
        <ele>957.20001220703</ele>
        <time>2021-09-12T06:39:22.000Z</time>
      </trkpt>
      <trkpt lat="45.21605" lon="5.73233">
        <ele>956</ele>
        <time>2021-09-12T06:39:25.000Z</time>
      </trkpt>
      <trkpt lat="45.21606" lon="5.73234">
        <ele>955.40002441406</ele>
        <time>2021-09-12T06:39:26.000Z</time>
      </trkpt>
      <trkpt lat="45.21608" lon="5.73236">
        <ele>954.79998779297</ele>
        <time>2021-09-12T06:39:28.000Z</time>
      </trkpt>
      <trkpt lat="45.21614" lon="5.7324">
        <ele>953.40002441406</ele>
        <time>2021-09-12T06:39:32.000Z</time>
      </trkpt>
      <trkpt lat="45.21615" lon="5.73241">
        <ele>953</ele>
        <time>2021-09-12T06:39:33.000Z</time>
      </trkpt>
      <trkpt lat="45.21617" lon="5.73246">
        <ele>952</ele>
        <time>2021-09-12T06:39:35.000Z</time>
      </trkpt>
      <trkpt lat="45.21621" lon="5.73252">
        <ele>950.79998779297</ele>
        <time>2021-09-12T06:39:38.000Z</time>
      </trkpt>
      <trkpt lat="45.21623" lon="5.73256">
        <ele>950.20001220703</ele>
        <time>2021-09-12T06:39:40.000Z</time>
      </trkpt>
      <trkpt lat="45.21625" lon="5.73261">
        <ele>949.40002441406</ele>
        <time>2021-09-12T06:39:42.000Z</time>
      </trkpt>
      <trkpt lat="45.21629" lon="5.73267">
        <ele>948.20001220703</ele>
        <time>2021-09-12T06:39:45.000Z</time>
      </trkpt>
      <trkpt lat="45.21631" lon="5.73273">
        <ele>947.59997558594</ele>
        <time>2021-09-12T06:39:47.000Z</time>
      </trkpt>
      <trkpt lat="45.21632" lon="5.73276">
        <ele>947</ele>
        <time>2021-09-12T06:39:48.000Z</time>
      </trkpt>
      <trkpt lat="45.21637" lon="5.73287">
        <ele>946</ele>
        <time>2021-09-12T06:39:52.000Z</time>
      </trkpt>
      <trkpt lat="45.2164" lon="5.73295">
        <ele>944.79998779297</ele>
        <time>2021-09-12T06:39:55.000Z</time>
      </trkpt>
      <trkpt lat="45.21641" lon="5.733">
        <ele>944</ele>
        <time>2021-09-12T06:39:57.000Z</time>
      </trkpt>
      <trkpt lat="45.21642" lon="5.73303">
        <ele>943.79998779297</ele>
        <time>2021-09-12T06:39:58.000Z</time>
      </trkpt>
      <trkpt lat="45.21645" lon="5.73313">
        <ele>942.59997558594</ele>
        <time>2021-09-12T06:40:02.000Z</time>
      </trkpt>
      <trkpt lat="45.21645" lon="5.73315">
        <ele>942.20001220703</ele>
        <time>2021-09-12T06:40:03.000Z</time>
      </trkpt>
      <trkpt lat="45.21646" lon="5.7332">
        <ele>941.40002441406</ele>
        <time>2021-09-12T06:40:05.000Z</time>
      </trkpt>
      <trkpt lat="45.21647" lon="5.73325">
        <ele>940</ele>
        <time>2021-09-12T06:40:08.000Z</time>
      </trkpt>
      <trkpt lat="45.21648" lon="5.73328">
        <ele>939.59997558594</ele>
        <time>2021-09-12T06:40:10.000Z</time>
      </trkpt>
      <trkpt lat="45.21649" lon="5.73331">
        <ele>938.79998779297</ele>
        <time>2021-09-12T06:40:12.000Z</time>
      </trkpt>
      <trkpt lat="45.2165" lon="5.73334">
        <ele>937.40002441406</ele>
        <time>2021-09-12T06:40:14.000Z</time>
      </trkpt>
      <trkpt lat="45.21653" lon="5.7334">
        <ele>936.40002441406</ele>
        <time>2021-09-12T06:40:17.000Z</time>
      </trkpt>
      <trkpt lat="45.21656" lon="5.73347">
        <ele>935.20001220703</ele>
        <time>2021-09-12T06:40:20.000Z</time>
      </trkpt>
      <trkpt lat="45.21658" lon="5.73353">
        <ele>933.79998779297</ele>
        <time>2021-09-12T06:40:23.000Z</time>
      </trkpt>
      <trkpt lat="45.21659" lon="5.73356">
        <ele>932.79998779297</ele>
        <time>2021-09-12T06:40:25.000Z</time>
      </trkpt>
      <trkpt lat="45.2166" lon="5.73364">
        <ele>931.20001220703</ele>
        <time>2021-09-12T06:40:28.000Z</time>
      </trkpt>
      <trkpt lat="45.21661" lon="5.73366">
        <ele>930.59997558594</ele>
        <time>2021-09-12T06:40:29.000Z</time>
      </trkpt>
      <trkpt lat="45.21662" lon="5.73369">
        <ele>929.59997558594</ele>
        <time>2021-09-12T06:40:31.000Z</time>
      </trkpt>
      <trkpt lat="45.21663" lon="5.73371">
        <ele>929.20001220703</ele>
        <time>2021-09-12T06:40:32.000Z</time>
      </trkpt>
      <trkpt lat="45.21663" lon="5.73373">
        <ele>928.40002441406</ele>
        <time>2021-09-12T06:40:34.000Z</time>
      </trkpt>
      <trkpt lat="45.21665" lon="5.73376">
        <ele>927.20001220703</ele>
        <time>2021-09-12T06:40:36.000Z</time>
      </trkpt>
      <trkpt lat="45.21664" lon="5.73378">
        <ele>926.59997558594</ele>
        <time>2021-09-12T06:40:37.000Z</time>
      </trkpt>
      <trkpt lat="45.21665" lon="5.73383">
        <ele>926</ele>
        <time>2021-09-12T06:40:39.000Z</time>
      </trkpt>
      <trkpt lat="45.21665" lon="5.73385">
        <ele>925.59997558594</ele>
        <time>2021-09-12T06:40:40.000Z</time>
      </trkpt>
      <trkpt lat="45.21667" lon="5.73392">
        <ele>925</ele>
        <time>2021-09-12T06:40:42.000Z</time>
      </trkpt>
      <trkpt lat="45.21668" lon="5.73395">
        <ele>924.59997558594</ele>
        <time>2021-09-12T06:40:43.000Z</time>
      </trkpt>
      <trkpt lat="45.2167" lon="5.73401">
        <ele>923.79998779297</ele>
        <time>2021-09-12T06:40:45.000Z</time>
      </trkpt>
      <trkpt lat="45.21672" lon="5.7341">
        <ele>922.20001220703</ele>
        <time>2021-09-12T06:40:48.000Z</time>
      </trkpt>
      <trkpt lat="45.21673" lon="5.73419">
        <ele>921.59997558594</ele>
        <time>2021-09-12T06:40:50.000Z</time>
      </trkpt>
      <trkpt lat="45.21673" lon="5.73424">
        <ele>921.20001220703</ele>
        <time>2021-09-12T06:40:51.000Z</time>
      </trkpt>
      <trkpt lat="45.21674" lon="5.73434">
        <ele>920</ele>
        <time>2021-09-12T06:40:54.000Z</time>
      </trkpt>
      <trkpt lat="45.21673" lon="5.73438">
        <ele>919.79998779297</ele>
        <time>2021-09-12T06:40:55.000Z</time>
      </trkpt>
      <trkpt lat="45.21674" lon="5.73448">
        <ele>918.20001220703</ele>
        <time>2021-09-12T06:40:58.000Z</time>
      </trkpt>
      <trkpt lat="45.21674" lon="5.73455">
        <ele>917.20001220703</ele>
        <time>2021-09-12T06:41:00.000Z</time>
      </trkpt>
      <trkpt lat="45.21675" lon="5.73463">
        <ele>916.79998779297</ele>
        <time>2021-09-12T06:41:02.000Z</time>
      </trkpt>
      <trkpt lat="45.21676" lon="5.73469">
        <ele>916.20001220703</ele>
        <time>2021-09-12T06:41:04.000Z</time>
      </trkpt>
      <trkpt lat="45.21677" lon="5.73475">
        <ele>914.79998779297</ele>
        <time>2021-09-12T06:41:07.000Z</time>
      </trkpt>
      <trkpt lat="45.21677" lon="5.73476">
        <ele>914.59997558594</ele>
        <time>2021-09-12T06:41:08.000Z</time>
      </trkpt>
      <trkpt lat="45.21677" lon="5.73481">
        <ele>913.59997558594</ele>
        <time>2021-09-12T06:41:11.000Z</time>
      </trkpt>
      <trkpt lat="45.21677" lon="5.73487">
        <ele>912.59997558594</ele>
        <time>2021-09-12T06:41:15.000Z</time>
      </trkpt>
      <trkpt lat="45.21677" lon="5.73489">
        <ele>912.40002441406</ele>
        <time>2021-09-12T06:41:16.000Z</time>
      </trkpt>
      <trkpt lat="45.21678" lon="5.73493">
        <ele>911.40002441406</ele>
        <time>2021-09-12T06:41:20.000Z</time>
      </trkpt>
      <trkpt lat="45.2168" lon="5.73495">
        <ele>910.40002441406</ele>
        <time>2021-09-12T06:41:22.000Z</time>
      </trkpt>
      <trkpt lat="45.21681" lon="5.73496">
        <ele>910.40002441406</ele>
        <time>2021-09-12T06:41:23.000Z</time>
      </trkpt>
      <trkpt lat="45.21683" lon="5.73498">
        <ele>909.79998779297</ele>
        <time>2021-09-12T06:41:25.000Z</time>
      </trkpt>
      <trkpt lat="45.21686" lon="5.735">
        <ele>909.20001220703</ele>
        <time>2021-09-12T06:41:28.000Z</time>
      </trkpt>
      <trkpt lat="45.21686" lon="5.73501">
        <ele>908.79998779297</ele>
        <time>2021-09-12T06:41:29.000Z</time>
      </trkpt>
      <trkpt lat="45.2169" lon="5.73502">
        <ele>908</ele>
        <time>2021-09-12T06:41:32.000Z</time>
      </trkpt>
      <trkpt lat="45.21692" lon="5.73503">
        <ele>907.40002441406</ele>
        <time>2021-09-12T06:41:34.000Z</time>
      </trkpt>
      <trkpt lat="45.21693" lon="5.73503">
        <ele>907</ele>
        <time>2021-09-12T06:41:35.000Z</time>
      </trkpt>
      <trkpt lat="45.21694" lon="5.73505">
        <ele>906.40002441406</ele>
        <time>2021-09-12T06:41:36.000Z</time>
      </trkpt>
      <trkpt lat="45.21696" lon="5.73509">
        <ele>905.79998779297</ele>
        <time>2021-09-12T06:41:38.000Z</time>
      </trkpt>
      <trkpt lat="45.21699" lon="5.73513">
        <ele>905</ele>
        <time>2021-09-12T06:41:40.000Z</time>
      </trkpt>
      <trkpt lat="45.217" lon="5.73514">
        <ele>904.59997558594</ele>
        <time>2021-09-12T06:41:41.000Z</time>
      </trkpt>
      <trkpt lat="45.21703" lon="5.73518">
        <ele>904</ele>
        <time>2021-09-12T06:41:43.000Z</time>
      </trkpt>
      <trkpt lat="45.21706" lon="5.73518">
        <ele>903.59997558594</ele>
        <time>2021-09-12T06:41:44.000Z</time>
      </trkpt>
      <trkpt lat="45.21712" lon="5.73521">
        <ele>902.40002441406</ele>
        <time>2021-09-12T06:41:47.000Z</time>
      </trkpt>
      <trkpt lat="45.21714" lon="5.73523">
        <ele>902.20001220703</ele>
        <time>2021-09-12T06:41:49.000Z</time>
      </trkpt>
      <trkpt lat="45.21713" lon="5.73524">
        <ele>901.59997558594</ele>
        <time>2021-09-12T06:41:50.000Z</time>
      </trkpt>
      <trkpt lat="45.21712" lon="5.73524">
        <ele>901</ele>
        <time>2021-09-12T06:41:51.000Z</time>
      </trkpt>
      <trkpt lat="45.21709" lon="5.73525">
        <ele>900.40002441406</ele>
        <time>2021-09-12T06:41:53.000Z</time>
      </trkpt>
      <trkpt lat="45.21707" lon="5.73525">
        <ele>899.79998779297</ele>
        <time>2021-09-12T06:41:54.000Z</time>
      </trkpt>
      <trkpt lat="45.217" lon="5.73527">
        <ele>898.59997558594</ele>
        <time>2021-09-12T06:41:57.000Z</time>
      </trkpt>
      <trkpt lat="45.21698" lon="5.73527">
        <ele>898</ele>
        <time>2021-09-12T06:41:58.000Z</time>
      </trkpt>
      <trkpt lat="45.21695" lon="5.73528">
        <ele>897.20001220703</ele>
        <time>2021-09-12T06:42:00.000Z</time>
      </trkpt>
      <trkpt lat="45.21692" lon="5.7353">
        <ele>896.40002441406</ele>
        <time>2021-09-12T06:42:02.000Z</time>
      </trkpt>
      <trkpt lat="45.2169" lon="5.7353">
        <ele>896.20001220703</ele>
        <time>2021-09-12T06:42:03.000Z</time>
      </trkpt>
      <trkpt lat="45.21685" lon="5.7353">
        <ele>895.59997558594</ele>
        <time>2021-09-12T06:42:06.000Z</time>
      </trkpt>
      <trkpt lat="45.21682" lon="5.7353">
        <ele>895</ele>
        <time>2021-09-12T06:42:08.000Z</time>
      </trkpt>
      <trkpt lat="45.21678" lon="5.73532">
        <ele>894</ele>
        <time>2021-09-12T06:42:11.000Z</time>
      </trkpt>
      <trkpt lat="45.21676" lon="5.73533">
        <ele>893.59997558594</ele>
        <time>2021-09-12T06:42:12.000Z</time>
      </trkpt>
      <trkpt lat="45.21675" lon="5.73534">
        <ele>893.40002441406</ele>
        <time>2021-09-12T06:42:13.000Z</time>
      </trkpt>
      <trkpt lat="45.21672" lon="5.73534">
        <ele>892.59997558594</ele>
        <time>2021-09-12T06:42:15.000Z</time>
      </trkpt>
      <trkpt lat="45.21669" lon="5.73535">
        <ele>892</ele>
        <time>2021-09-12T06:42:17.000Z</time>
      </trkpt>
      <trkpt lat="45.21668" lon="5.73535">
        <ele>891.40002441406</ele>
        <time>2021-09-12T06:42:18.000Z</time>
      </trkpt>
      <trkpt lat="45.21668" lon="5.73535">
        <ele>890.79998779297</ele>
        <time>2021-09-12T06:42:20.000Z</time>
      </trkpt>
      <trkpt lat="45.2167" lon="5.73535">
        <ele>890</ele>
        <time>2021-09-12T06:42:22.000Z</time>
      </trkpt>
      <trkpt lat="45.2167" lon="5.73535">
        <ele>889.79998779297</ele>
        <time>2021-09-12T06:42:23.000Z</time>
      </trkpt>
      <trkpt lat="45.21672" lon="5.73537">
        <ele>889</ele>
        <time>2021-09-12T06:42:25.000Z</time>
      </trkpt>
      <trkpt lat="45.21674" lon="5.73539">
        <ele>888.59997558594</ele>
        <time>2021-09-12T06:42:26.000Z</time>
      </trkpt>
      <trkpt lat="45.21676" lon="5.73541">
        <ele>887.79998779297</ele>
        <time>2021-09-12T06:42:28.000Z</time>
      </trkpt>
      <trkpt lat="45.21681" lon="5.73542">
        <ele>886.59997558594</ele>
        <time>2021-09-12T06:42:31.000Z</time>
      </trkpt>
      <trkpt lat="45.21684" lon="5.73544">
        <ele>886</ele>
        <time>2021-09-12T06:42:33.000Z</time>
      </trkpt>
      <trkpt lat="45.21689" lon="5.73546">
        <ele>885.40002441406</ele>
        <time>2021-09-12T06:42:35.000Z</time>
      </trkpt>
      <trkpt lat="45.21691" lon="5.73547">
        <ele>884.79998779297</ele>
        <time>2021-09-12T06:42:36.000Z</time>
      </trkpt>
      <trkpt lat="45.21694" lon="5.73551">
        <ele>884.40002441406</ele>
        <time>2021-09-12T06:42:38.000Z</time>
      </trkpt>
      <trkpt lat="45.21696" lon="5.73555">
        <ele>883.59997558594</ele>
        <time>2021-09-12T06:42:40.000Z</time>
      </trkpt>
      <trkpt lat="45.21698" lon="5.73561">
        <ele>883</ele>
        <time>2021-09-12T06:42:42.000Z</time>
      </trkpt>
      <trkpt lat="45.21699" lon="5.73564">
        <ele>882</ele>
        <time>2021-09-12T06:42:44.000Z</time>
      </trkpt>
      <trkpt lat="45.21701" lon="5.73564">
        <ele>881.79998779297</ele>
        <time>2021-09-12T06:42:45.000Z</time>
      </trkpt>
      <trkpt lat="45.217" lon="5.73564">
        <ele>881.40002441406</ele>
        <time>2021-09-12T06:42:47.000Z</time>
      </trkpt>
      <trkpt lat="45.21698" lon="5.73563">
        <ele>880.59997558594</ele>
        <time>2021-09-12T06:42:49.000Z</time>
      </trkpt>
      <trkpt lat="45.21695" lon="5.73563">
        <ele>879.20001220703</ele>
        <time>2021-09-12T06:42:51.000Z</time>
      </trkpt>
      <trkpt lat="45.21692" lon="5.73563">
        <ele>878.40002441406</ele>
        <time>2021-09-12T06:42:53.000Z</time>
      </trkpt>
      <trkpt lat="45.21691" lon="5.73563">
        <ele>878</ele>
        <time>2021-09-12T06:42:54.000Z</time>
      </trkpt>
      <trkpt lat="45.21688" lon="5.73561">
        <ele>877.20001220703</ele>
        <time>2021-09-12T06:42:56.000Z</time>
      </trkpt>
      <trkpt lat="45.21686" lon="5.7356">
        <ele>876.79998779297</ele>
        <time>2021-09-12T06:42:57.000Z</time>
      </trkpt>
      <trkpt lat="45.21677" lon="5.73559">
        <ele>875.79998779297</ele>
        <time>2021-09-12T06:43:01.000Z</time>
      </trkpt>
      <trkpt lat="45.21675" lon="5.7356">
        <ele>875.40002441406</ele>
        <time>2021-09-12T06:43:02.000Z</time>
      </trkpt>
      <trkpt lat="45.21668" lon="5.73562">
        <ele>874</ele>
        <time>2021-09-12T06:43:06.000Z</time>
      </trkpt>
      <trkpt lat="45.21665" lon="5.73562">
        <ele>873.20001220703</ele>
        <time>2021-09-12T06:43:08.000Z</time>
      </trkpt>
      <trkpt lat="45.21663" lon="5.73563">
        <ele>872.79998779297</ele>
        <time>2021-09-12T06:43:09.000Z</time>
      </trkpt>
      <trkpt lat="45.21659" lon="5.73565">
        <ele>871.59997558594</ele>
        <time>2021-09-12T06:43:12.000Z</time>
      </trkpt>
      <trkpt lat="45.21658" lon="5.73565">
        <ele>871.40002441406</ele>
        <time>2021-09-12T06:43:13.000Z</time>
      </trkpt>
      <trkpt lat="45.21657" lon="5.73565">
        <ele>871</ele>
        <time>2021-09-12T06:43:14.000Z</time>
      </trkpt>
      <trkpt lat="45.21653" lon="5.73567">
        <ele>870.59997558594</ele>
        <time>2021-09-12T06:43:16.000Z</time>
      </trkpt>
      <trkpt lat="45.21649" lon="5.73566">
        <ele>869.20001220703</ele>
        <time>2021-09-12T06:43:20.000Z</time>
      </trkpt>
      <trkpt lat="45.21646" lon="5.73564">
        <ele>868.79998779297</ele>
        <time>2021-09-12T06:43:22.000Z</time>
      </trkpt>
      <trkpt lat="45.21645" lon="5.73563">
        <ele>868.40002441406</ele>
        <time>2021-09-12T06:43:24.000Z</time>
      </trkpt>
      <trkpt lat="45.21643" lon="5.73563">
        <ele>868.20001220703</ele>
        <time>2021-09-12T06:43:25.000Z</time>
      </trkpt>
      <trkpt lat="45.21641" lon="5.73562">
        <ele>867.79998779297</ele>
        <time>2021-09-12T06:43:26.000Z</time>
      </trkpt>
      <trkpt lat="45.2164" lon="5.7356">
        <ele>867.59997558594</ele>
        <time>2021-09-12T06:43:27.000Z</time>
      </trkpt>
      <trkpt lat="45.21637" lon="5.73555">
        <ele>867</ele>
        <time>2021-09-12T06:43:30.000Z</time>
      </trkpt>
      <trkpt lat="45.2163" lon="5.73549">
        <ele>865.79998779297</ele>
        <time>2021-09-12T06:43:34.000Z</time>
      </trkpt>
      <trkpt lat="45.21629" lon="5.73547">
        <ele>865.20001220703</ele>
        <time>2021-09-12T06:43:35.000Z</time>
      </trkpt>
      <trkpt lat="45.21627" lon="5.73544">
        <ele>864.59997558594</ele>
        <time>2021-09-12T06:43:36.000Z</time>
      </trkpt>
      <trkpt lat="45.21623" lon="5.73538">
        <ele>863.40002441406</ele>
        <time>2021-09-12T06:43:39.000Z</time>
      </trkpt>
      <trkpt lat="45.21619" lon="5.73535">
        <ele>862.59997558594</ele>
        <time>2021-09-12T06:43:42.000Z</time>
      </trkpt>
      <trkpt lat="45.21619" lon="5.73535">
        <ele>862</ele>
        <time>2021-09-12T06:43:43.000Z</time>
      </trkpt>
      <trkpt lat="45.21618" lon="5.73537">
        <ele>861.20001220703</ele>
        <time>2021-09-12T06:43:45.000Z</time>
      </trkpt>
      <trkpt lat="45.21618" lon="5.73538">
        <ele>861</ele>
        <time>2021-09-12T06:43:46.000Z</time>
      </trkpt>
      <trkpt lat="45.21619" lon="5.7354">
        <ele>861</ele>
        <time>2021-09-12T06:43:47.000Z</time>
      </trkpt>
      <trkpt lat="45.2162" lon="5.7355">
        <ele>859.59997558594</ele>
        <time>2021-09-12T06:43:51.000Z</time>
      </trkpt>
      <trkpt lat="45.21621" lon="5.73558">
        <ele>859</ele>
        <time>2021-09-12T06:43:54.000Z</time>
      </trkpt>
      <trkpt lat="45.21622" lon="5.73561">
        <ele>858.59997558594</ele>
        <time>2021-09-12T06:43:55.000Z</time>
      </trkpt>
      <trkpt lat="45.21623" lon="5.73565">
        <ele>857.40002441406</ele>
        <time>2021-09-12T06:43:57.000Z</time>
      </trkpt>
      <trkpt lat="45.21626" lon="5.73569">
        <ele>856.79998779297</ele>
        <time>2021-09-12T06:43:59.000Z</time>
      </trkpt>
      <trkpt lat="45.21627" lon="5.73571">
        <ele>856.40002441406</ele>
        <time>2021-09-12T06:44:00.000Z</time>
      </trkpt>
      <trkpt lat="45.21627" lon="5.73574">
        <ele>855.59997558594</ele>
        <time>2021-09-12T06:44:02.000Z</time>
      </trkpt>
      <trkpt lat="45.21627" lon="5.73576">
        <ele>855</ele>
        <time>2021-09-12T06:44:03.000Z</time>
      </trkpt>
      <trkpt lat="45.21626" lon="5.73577">
        <ele>854.59997558594</ele>
        <time>2021-09-12T06:44:04.000Z</time>
      </trkpt>
      <trkpt lat="45.21625" lon="5.73577">
        <ele>854.40002441406</ele>
        <time>2021-09-12T06:44:05.000Z</time>
      </trkpt>
      <trkpt lat="45.21624" lon="5.73576">
        <ele>853.59997558594</ele>
        <time>2021-09-12T06:44:06.000Z</time>
      </trkpt>
      <trkpt lat="45.21622" lon="5.73574">
        <ele>852.59997558594</ele>
        <time>2021-09-12T06:44:07.000Z</time>
      </trkpt>
      <trkpt lat="45.21621" lon="5.73572">
        <ele>852.20001220703</ele>
        <time>2021-09-12T06:44:08.000Z</time>
      </trkpt>
      <trkpt lat="45.21616" lon="5.73568">
        <ele>851</ele>
        <time>2021-09-12T06:44:11.000Z</time>
      </trkpt>
      <trkpt lat="45.21611" lon="5.73563">
        <ele>850.20001220703</ele>
        <time>2021-09-12T06:44:14.000Z</time>
      </trkpt>
      <trkpt lat="45.21609" lon="5.73562">
        <ele>849.40002441406</ele>
        <time>2021-09-12T06:44:15.000Z</time>
      </trkpt>
      <trkpt lat="45.21605" lon="5.73558">
        <ele>848.40002441406</ele>
        <time>2021-09-12T06:44:17.000Z</time>
      </trkpt>
      <trkpt lat="45.216" lon="5.73551">
        <ele>847.20001220703</ele>
        <time>2021-09-12T06:44:20.000Z</time>
      </trkpt>
      <trkpt lat="45.21597" lon="5.73548">
        <ele>846.40002441406</ele>
        <time>2021-09-12T06:44:22.000Z</time>
      </trkpt>
      <trkpt lat="45.21596" lon="5.73545">
        <ele>845.79998779297</ele>
        <time>2021-09-12T06:44:23.000Z</time>
      </trkpt>
      <trkpt lat="45.21593" lon="5.7354">
        <ele>845.20001220703</ele>
        <time>2021-09-12T06:44:25.000Z</time>
      </trkpt>
      <trkpt lat="45.21593" lon="5.73537">
        <ele>845</ele>
        <time>2021-09-12T06:44:26.000Z</time>
      </trkpt>
      <trkpt lat="45.21592" lon="5.73535">
        <ele>844.40002441406</ele>
        <time>2021-09-12T06:44:27.000Z</time>
      </trkpt>
      <trkpt lat="45.2159" lon="5.73533">
        <ele>844</ele>
        <time>2021-09-12T06:44:28.000Z</time>
      </trkpt>
      <trkpt lat="45.21589" lon="5.7353">
        <ele>843.20001220703</ele>
        <time>2021-09-12T06:44:29.000Z</time>
      </trkpt>
      <trkpt lat="45.21585" lon="5.73523">
        <ele>842.20001220703</ele>
        <time>2021-09-12T06:44:32.000Z</time>
      </trkpt>
      <trkpt lat="45.21583" lon="5.73517">
        <ele>841.40002441406</ele>
        <time>2021-09-12T06:44:34.000Z</time>
      </trkpt>
      <trkpt lat="45.21582" lon="5.73515">
        <ele>840.79998779297</ele>
        <time>2021-09-12T06:44:35.000Z</time>
      </trkpt>
      <trkpt lat="45.21578" lon="5.73507">
        <ele>839.59997558594</ele>
        <time>2021-09-12T06:44:38.000Z</time>
      </trkpt>
      <trkpt lat="45.21577" lon="5.73502">
        <ele>838.59997558594</ele>
        <time>2021-09-12T06:44:40.000Z</time>
      </trkpt>
      <trkpt lat="45.21576" lon="5.73499">
        <ele>838.20001220703</ele>
        <time>2021-09-12T06:44:41.000Z</time>
      </trkpt>
      <trkpt lat="45.21571" lon="5.73489">
        <ele>837.20001220703</ele>
        <time>2021-09-12T06:44:45.000Z</time>
      </trkpt>
      <trkpt lat="45.21568" lon="5.73485">
        <ele>836</ele>
        <time>2021-09-12T06:44:47.000Z</time>
      </trkpt>
      <trkpt lat="45.21564" lon="5.73481">
        <ele>835</ele>
        <time>2021-09-12T06:44:49.000Z</time>
      </trkpt>
      <trkpt lat="45.21559" lon="5.7348">
        <ele>834.40002441406</ele>
        <time>2021-09-12T06:44:52.000Z</time>
      </trkpt>
      <trkpt lat="45.21555" lon="5.73481">
        <ele>834.20001220703</ele>
        <time>2021-09-12T06:44:54.000Z</time>
      </trkpt>
      <trkpt lat="45.21553" lon="5.73481">
        <ele>834</ele>
        <time>2021-09-12T06:44:55.000Z</time>
      </trkpt>
      <trkpt lat="45.21548" lon="5.73481">
        <ele>832.59997558594</ele>
        <time>2021-09-12T06:44:58.000Z</time>
      </trkpt>
      <trkpt lat="45.21545" lon="5.73481">
        <ele>831.59997558594</ele>
        <time>2021-09-12T06:45:00.000Z</time>
      </trkpt>
      <trkpt lat="45.21543" lon="5.7348">
        <ele>831.20001220703</ele>
        <time>2021-09-12T06:45:01.000Z</time>
      </trkpt>
      <trkpt lat="45.21541" lon="5.73478">
        <ele>830.40002441406</ele>
        <time>2021-09-12T06:45:03.000Z</time>
      </trkpt>
      <trkpt lat="45.2154" lon="5.73476">
        <ele>830</ele>
        <time>2021-09-12T06:45:04.000Z</time>
      </trkpt>
      <trkpt lat="45.21539" lon="5.73476">
        <ele>829.40002441406</ele>
        <time>2021-09-12T06:45:06.000Z</time>
      </trkpt>
      <trkpt lat="45.21539" lon="5.73476">
        <ele>829.20001220703</ele>
        <time>2021-09-12T06:45:07.000Z</time>
      </trkpt>
      <trkpt lat="45.21542" lon="5.73478">
        <ele>828.59997558594</ele>
        <time>2021-09-12T06:45:09.000Z</time>
      </trkpt>
      <trkpt lat="45.21545" lon="5.7348">
        <ele>828</ele>
        <time>2021-09-12T06:45:11.000Z</time>
      </trkpt>
      <trkpt lat="45.2155" lon="5.73484">
        <ele>826.59997558594</ele>
        <time>2021-09-12T06:45:14.000Z</time>
      </trkpt>
      <trkpt lat="45.21551" lon="5.73487">
        <ele>826.40002441406</ele>
        <time>2021-09-12T06:45:15.000Z</time>
      </trkpt>
      <trkpt lat="45.21552" lon="5.7349">
        <ele>825.79998779297</ele>
        <time>2021-09-12T06:45:17.000Z</time>
      </trkpt>
      <trkpt lat="45.21553" lon="5.73492">
        <ele>825.40002441406</ele>
        <time>2021-09-12T06:45:18.000Z</time>
      </trkpt>
      <trkpt lat="45.21554" lon="5.73501">
        <ele>824</ele>
        <time>2021-09-12T06:45:23.000Z</time>
      </trkpt>
      <trkpt lat="45.21555" lon="5.73503">
        <ele>823.79998779297</ele>
        <time>2021-09-12T06:45:24.000Z</time>
      </trkpt>
      <trkpt lat="45.21556" lon="5.73508">
        <ele>823</ele>
        <time>2021-09-12T06:45:26.000Z</time>
      </trkpt>
      <trkpt lat="45.21557" lon="5.73515">
        <ele>822.40002441406</ele>
        <time>2021-09-12T06:45:28.000Z</time>
      </trkpt>
      <trkpt lat="45.21556" lon="5.73525">
        <ele>821.40002441406</ele>
        <time>2021-09-12T06:45:31.000Z</time>
      </trkpt>
      <trkpt lat="45.21556" lon="5.73532">
        <ele>820.20001220703</ele>
        <time>2021-09-12T06:45:34.000Z</time>
      </trkpt>
      <trkpt lat="45.21557" lon="5.73534">
        <ele>820</ele>
        <time>2021-09-12T06:45:35.000Z</time>
      </trkpt>
      <trkpt lat="45.21557" lon="5.7354">
        <ele>819.20001220703</ele>
        <time>2021-09-12T06:45:37.000Z</time>
      </trkpt>
      <trkpt lat="45.21559" lon="5.73549">
        <ele>817.59997558594</ele>
        <time>2021-09-12T06:45:40.000Z</time>
      </trkpt>
      <trkpt lat="45.2156" lon="5.73555">
        <ele>816.79998779297</ele>
        <time>2021-09-12T06:45:42.000Z</time>
      </trkpt>
      <trkpt lat="45.2156" lon="5.73558">
        <ele>816.59997558594</ele>
        <time>2021-09-12T06:45:43.000Z</time>
      </trkpt>
      <trkpt lat="45.21562" lon="5.73568">
        <ele>815.59997558594</ele>
        <time>2021-09-12T06:45:47.000Z</time>
      </trkpt>
      <trkpt lat="45.21562" lon="5.73571">
        <ele>814.79998779297</ele>
        <time>2021-09-12T06:45:48.000Z</time>
      </trkpt>
      <trkpt lat="45.21562" lon="5.73574">
        <ele>814.20001220703</ele>
        <time>2021-09-12T06:45:49.000Z</time>
      </trkpt>
      <trkpt lat="45.21564" lon="5.73578">
        <ele>813.20001220703</ele>
        <time>2021-09-12T06:45:51.000Z</time>
      </trkpt>
      <trkpt lat="45.21563" lon="5.7358">
        <ele>812.79998779297</ele>
        <time>2021-09-12T06:45:52.000Z</time>
      </trkpt>
      <trkpt lat="45.21563" lon="5.73579">
        <ele>812.40002441406</ele>
        <time>2021-09-12T06:45:53.000Z</time>
      </trkpt>
      <trkpt lat="45.21562" lon="5.73578">
        <ele>812</ele>
        <time>2021-09-12T06:45:54.000Z</time>
      </trkpt>
      <trkpt lat="45.21558" lon="5.7357">
        <ele>810.79998779297</ele>
        <time>2021-09-12T06:45:57.000Z</time>
      </trkpt>
      <trkpt lat="45.21556" lon="5.7357">
        <ele>810.59997558594</ele>
        <time>2021-09-12T06:45:58.000Z</time>
      </trkpt>
      <trkpt lat="45.2155" lon="5.73568">
        <ele>809.40002441406</ele>
        <time>2021-09-12T06:46:01.000Z</time>
      </trkpt>
      <trkpt lat="45.21547" lon="5.73567">
        <ele>808</ele>
        <time>2021-09-12T06:46:03.000Z</time>
      </trkpt>
      <trkpt lat="45.21545" lon="5.73566">
        <ele>807.79998779297</ele>
        <time>2021-09-12T06:46:04.000Z</time>
      </trkpt>
      <trkpt lat="45.21543" lon="5.73561">
        <ele>807</ele>
        <time>2021-09-12T06:46:06.000Z</time>
      </trkpt>
      <trkpt lat="45.21541" lon="5.73558">
        <ele>805.79998779297</ele>
        <time>2021-09-12T06:46:08.000Z</time>
      </trkpt>
      <trkpt lat="45.21538" lon="5.73552">
        <ele>804.79998779297</ele>
        <time>2021-09-12T06:46:11.000Z</time>
      </trkpt>
      <trkpt lat="45.21537" lon="5.7355">
        <ele>804.59997558594</ele>
        <time>2021-09-12T06:46:12.000Z</time>
      </trkpt>
      <trkpt lat="45.21536" lon="5.73548">
        <ele>803.79998779297</ele>
        <time>2021-09-12T06:46:14.000Z</time>
      </trkpt>
      <trkpt lat="45.21535" lon="5.73548">
        <ele>803.20001220703</ele>
        <time>2021-09-12T06:46:15.000Z</time>
      </trkpt>
      <trkpt lat="45.21535" lon="5.73549">
        <ele>802.79998779297</ele>
        <time>2021-09-12T06:46:16.000Z</time>
      </trkpt>
      <trkpt lat="45.21535" lon="5.73552">
        <ele>802.20001220703</ele>
        <time>2021-09-12T06:46:18.000Z</time>
      </trkpt>
      <trkpt lat="45.21536" lon="5.73559">
        <ele>801.20001220703</ele>
        <time>2021-09-12T06:46:21.000Z</time>
      </trkpt>
      <trkpt lat="45.21537" lon="5.7356">
        <ele>801</ele>
        <time>2021-09-12T06:46:22.000Z</time>
      </trkpt>
      <trkpt lat="45.21538" lon="5.7357">
        <ele>799.40002441406</ele>
        <time>2021-09-12T06:46:26.000Z</time>
      </trkpt>
      <trkpt lat="45.2154" lon="5.73576">
        <ele>798.20001220703</ele>
        <time>2021-09-12T06:46:29.000Z</time>
      </trkpt>
      <trkpt lat="45.21542" lon="5.73582">
        <ele>797</ele>
        <time>2021-09-12T06:46:32.000Z</time>
      </trkpt>
      <trkpt lat="45.21544" lon="5.73591">
        <ele>795.79998779297</ele>
        <time>2021-09-12T06:46:36.000Z</time>
      </trkpt>
      <trkpt lat="45.21545" lon="5.73597">
        <ele>795</ele>
        <time>2021-09-12T06:46:38.000Z</time>
      </trkpt>
      <trkpt lat="45.21545" lon="5.73599">
        <ele>794.59997558594</ele>
        <time>2021-09-12T06:46:39.000Z</time>
      </trkpt>
      <trkpt lat="45.21545" lon="5.73601">
        <ele>793.79998779297</ele>
        <time>2021-09-12T06:46:41.000Z</time>
      </trkpt>
      <trkpt lat="45.21544" lon="5.736">
        <ele>793.40002441406</ele>
        <time>2021-09-12T06:46:42.000Z</time>
      </trkpt>
      <trkpt lat="45.21543" lon="5.73599">
        <ele>792.59997558594</ele>
        <time>2021-09-12T06:46:43.000Z</time>
      </trkpt>
      <trkpt lat="45.21542" lon="5.73597">
        <ele>792.40002441406</ele>
        <time>2021-09-12T06:46:44.000Z</time>
      </trkpt>
      <trkpt lat="45.21538" lon="5.73592">
        <ele>791</ele>
        <time>2021-09-12T06:46:47.000Z</time>
      </trkpt>
      <trkpt lat="45.21536" lon="5.73592">
        <ele>790.59997558594</ele>
        <time>2021-09-12T06:46:48.000Z</time>
      </trkpt>
      <trkpt lat="45.21536" lon="5.73592">
        <ele>790.40002441406</ele>
        <time>2021-09-12T06:46:49.000Z</time>
      </trkpt>
      <trkpt lat="45.21535" lon="5.73594">
        <ele>789.79998779297</ele>
        <time>2021-09-12T06:46:51.000Z</time>
      </trkpt>
      <trkpt lat="45.21536" lon="5.73596">
        <ele>789.59997558594</ele>
        <time>2021-09-12T06:46:52.000Z</time>
      </trkpt>
      <trkpt lat="45.21537" lon="5.73603">
        <ele>788.79998779297</ele>
        <time>2021-09-12T06:46:55.000Z</time>
      </trkpt>
      <trkpt lat="45.21538" lon="5.73608">
        <ele>787.79998779297</ele>
        <time>2021-09-12T06:46:57.000Z</time>
      </trkpt>
      <trkpt lat="45.21538" lon="5.73614">
        <ele>786.40002441406</ele>
        <time>2021-09-12T06:47:01.000Z</time>
      </trkpt>
      <trkpt lat="45.21537" lon="5.73615">
        <ele>785.59997558594</ele>
        <time>2021-09-12T06:47:03.000Z</time>
      </trkpt>
      <trkpt lat="45.21536" lon="5.73614">
        <ele>785.20001220703</ele>
        <time>2021-09-12T06:47:04.000Z</time>
      </trkpt>
      <trkpt lat="45.2153" lon="5.73605">
        <ele>784</ele>
        <time>2021-09-12T06:47:09.000Z</time>
      </trkpt>
      <trkpt lat="45.21524" lon="5.73602">
        <ele>782.59997558594</ele>
        <time>2021-09-12T06:47:12.000Z</time>
      </trkpt>
      <trkpt lat="45.21522" lon="5.73599">
        <ele>782.20001220703</ele>
        <time>2021-09-12T06:47:14.000Z</time>
      </trkpt>
      <trkpt lat="45.21519" lon="5.73596">
        <ele>781.40002441406</ele>
        <time>2021-09-12T06:47:16.000Z</time>
      </trkpt>
      <trkpt lat="45.21516" lon="5.73589">
        <ele>780.20001220703</ele>
        <time>2021-09-12T06:47:19.000Z</time>
      </trkpt>
      <trkpt lat="45.21515" lon="5.73585">
        <ele>779.59997558594</ele>
        <time>2021-09-12T06:47:21.000Z</time>
      </trkpt>
      <trkpt lat="45.21515" lon="5.73582">
        <ele>779</ele>
        <time>2021-09-12T06:47:23.000Z</time>
      </trkpt>
      <trkpt lat="45.21514" lon="5.73581">
        <ele>778</ele>
        <time>2021-09-12T06:47:26.000Z</time>
      </trkpt>
      <trkpt lat="45.21514" lon="5.73582">
        <ele>777.79998779297</ele>
        <time>2021-09-12T06:47:27.000Z</time>
      </trkpt>
      <trkpt lat="45.21513" lon="5.73588">
        <ele>776.79998779297</ele>
        <time>2021-09-12T06:47:30.000Z</time>
      </trkpt>
      <trkpt lat="45.21513" lon="5.73596">
        <ele>775.20001220703</ele>
        <time>2021-09-12T06:47:34.000Z</time>
      </trkpt>
      <trkpt lat="45.21513" lon="5.73598">
        <ele>774.79998779297</ele>
        <time>2021-09-12T06:47:35.000Z</time>
      </trkpt>
      <trkpt lat="45.21512" lon="5.73599">
        <ele>774.40002441406</ele>
        <time>2021-09-12T06:47:36.000Z</time>
      </trkpt>
      <trkpt lat="45.21511" lon="5.73598">
        <ele>774.20001220703</ele>
        <time>2021-09-12T06:47:37.000Z</time>
      </trkpt>
      <trkpt lat="45.21509" lon="5.73597">
        <ele>774</ele>
        <time>2021-09-12T06:47:38.000Z</time>
      </trkpt>
      <trkpt lat="45.21506" lon="5.73592">
        <ele>773</ele>
        <time>2021-09-12T06:47:41.000Z</time>
      </trkpt>
      <trkpt lat="45.21506" lon="5.73587">
        <ele>772</ele>
        <time>2021-09-12T06:47:44.000Z</time>
      </trkpt>
      <trkpt lat="45.21507" lon="5.7358">
        <ele>770.79998779297</ele>
        <time>2021-09-12T06:47:47.000Z</time>
      </trkpt>
      <trkpt lat="45.21504" lon="5.73571">
        <ele>769.59997558594</ele>
        <time>2021-09-12T06:47:50.000Z</time>
      </trkpt>
      <trkpt lat="45.21502" lon="5.73563">
        <ele>768.79998779297</ele>
        <time>2021-09-12T06:47:53.000Z</time>
      </trkpt>
      <trkpt lat="45.21501" lon="5.73561">
        <ele>768.59997558594</ele>
        <time>2021-09-12T06:47:54.000Z</time>
      </trkpt>
      <trkpt lat="45.21498" lon="5.73558">
        <ele>767.40002441406</ele>
        <time>2021-09-12T06:47:56.000Z</time>
      </trkpt>
      <trkpt lat="45.21496" lon="5.73556">
        <ele>767</ele>
        <time>2021-09-12T06:47:57.000Z</time>
      </trkpt>
      <trkpt lat="45.2149" lon="5.73552">
        <ele>765.79998779297</ele>
        <time>2021-09-12T06:48:00.000Z</time>
      </trkpt>
      <trkpt lat="45.21483" lon="5.73548">
        <ele>764.59997558594</ele>
        <time>2021-09-12T06:48:04.000Z</time>
      </trkpt>
      <trkpt lat="45.21482" lon="5.73547">
        <ele>764.20001220703</ele>
        <time>2021-09-12T06:48:05.000Z</time>
      </trkpt>
      <trkpt lat="45.2148" lon="5.73544">
        <ele>763.40002441406</ele>
        <time>2021-09-12T06:48:08.000Z</time>
      </trkpt>
      <trkpt lat="45.21478" lon="5.73541">
        <ele>763</ele>
        <time>2021-09-12T06:48:10.000Z</time>
      </trkpt>
      <trkpt lat="45.21477" lon="5.7354">
        <ele>762.79998779297</ele>
        <time>2021-09-12T06:48:11.000Z</time>
      </trkpt>
      <trkpt lat="45.21476" lon="5.7354">
        <ele>762.40002441406</ele>
        <time>2021-09-12T06:48:12.000Z</time>
      </trkpt>
      <trkpt lat="45.21473" lon="5.73534">
        <ele>761.59997558594</ele>
        <time>2021-09-12T06:48:15.000Z</time>
      </trkpt>
      <trkpt lat="45.21471" lon="5.7353">
        <ele>761.20001220703</ele>
        <time>2021-09-12T06:48:16.000Z</time>
      </trkpt>
      <trkpt lat="45.21468" lon="5.73524">
        <ele>760.20001220703</ele>
        <time>2021-09-12T06:48:19.000Z</time>
      </trkpt>
      <trkpt lat="45.21467" lon="5.73522">
        <ele>760</ele>
        <time>2021-09-12T06:48:20.000Z</time>
      </trkpt>
      <trkpt lat="45.21466" lon="5.73517">
        <ele>759.20001220703</ele>
        <time>2021-09-12T06:48:23.000Z</time>
      </trkpt>
      <trkpt lat="45.21465" lon="5.73506">
        <ele>758.20001220703</ele>
        <time>2021-09-12T06:48:27.000Z</time>
      </trkpt>
      <trkpt lat="45.21463" lon="5.73495">
        <ele>756.79998779297</ele>
        <time>2021-09-12T06:48:30.000Z</time>
      </trkpt>
      <trkpt lat="45.21462" lon="5.73492">
        <ele>756.20001220703</ele>
        <time>2021-09-12T06:48:31.000Z</time>
      </trkpt>
      <trkpt lat="45.2146" lon="5.73491">
        <ele>755.59997558594</ele>
        <time>2021-09-12T06:48:32.000Z</time>
      </trkpt>
      <trkpt lat="45.21456" lon="5.73486">
        <ele>754</ele>
        <time>2021-09-12T06:48:35.000Z</time>
      </trkpt>
      <trkpt lat="45.21451" lon="5.73484">
        <ele>753</ele>
        <time>2021-09-12T06:48:38.000Z</time>
      </trkpt>
      <trkpt lat="45.21451" lon="5.73483">
        <ele>752.59997558594</ele>
        <time>2021-09-12T06:48:39.000Z</time>
      </trkpt>
      <trkpt lat="45.21449" lon="5.73482">
        <ele>752.40002441406</ele>
        <time>2021-09-12T06:48:40.000Z</time>
      </trkpt>
      <trkpt lat="45.21446" lon="5.73477">
        <ele>751.59997558594</ele>
        <time>2021-09-12T06:48:43.000Z</time>
      </trkpt>
      <trkpt lat="45.21445" lon="5.73475">
        <ele>751.20001220703</ele>
        <time>2021-09-12T06:48:44.000Z</time>
      </trkpt>
      <trkpt lat="45.21443" lon="5.7347">
        <ele>750.40002441406</ele>
        <time>2021-09-12T06:48:46.000Z</time>
      </trkpt>
      <trkpt lat="45.21439" lon="5.73463">
        <ele>749</ele>
        <time>2021-09-12T06:48:49.000Z</time>
      </trkpt>
      <trkpt lat="45.21438" lon="5.73461">
        <ele>748.40002441406</ele>
        <time>2021-09-12T06:48:50.000Z</time>
      </trkpt>
      <trkpt lat="45.21437" lon="5.73456">
        <ele>747.79998779297</ele>
        <time>2021-09-12T06:48:52.000Z</time>
      </trkpt>
      <trkpt lat="45.21434" lon="5.7345">
        <ele>747.40002441406</ele>
        <time>2021-09-12T06:48:55.000Z</time>
      </trkpt>
      <trkpt lat="45.21433" lon="5.73449">
        <ele>747</ele>
        <time>2021-09-12T06:48:56.000Z</time>
      </trkpt>
      <trkpt lat="45.21431" lon="5.73448">
        <ele>746.79998779297</ele>
        <time>2021-09-12T06:48:57.000Z</time>
      </trkpt>
      <trkpt lat="45.21429" lon="5.73444">
        <ele>745.40002441406</ele>
        <time>2021-09-12T06:48:59.000Z</time>
      </trkpt>
      <trkpt lat="45.21428" lon="5.73442">
        <ele>744.79998779297</ele>
        <time>2021-09-12T06:49:00.000Z</time>
      </trkpt>
      <trkpt lat="45.21426" lon="5.73438">
        <ele>744.20001220703</ele>
        <time>2021-09-12T06:49:02.000Z</time>
      </trkpt>
      <trkpt lat="45.21424" lon="5.73431">
        <ele>743</ele>
        <time>2021-09-12T06:49:05.000Z</time>
      </trkpt>
      <trkpt lat="45.21422" lon="5.73428">
        <ele>742.59997558594</ele>
        <time>2021-09-12T06:49:07.000Z</time>
      </trkpt>
      <trkpt lat="45.2142" lon="5.73423">
        <ele>742</ele>
        <time>2021-09-12T06:49:09.000Z</time>
      </trkpt>
      <trkpt lat="45.21416" lon="5.73415">
        <ele>741</ele>
        <time>2021-09-12T06:49:12.000Z</time>
      </trkpt>
      <trkpt lat="45.21414" lon="5.73411">
        <ele>740.59997558594</ele>
        <time>2021-09-12T06:49:13.000Z</time>
      </trkpt>
      <trkpt lat="45.21411" lon="5.73406">
        <ele>739.59997558594</ele>
        <time>2021-09-12T06:49:15.000Z</time>
      </trkpt>
      <trkpt lat="45.21409" lon="5.73399">
        <ele>738.59997558594</ele>
        <time>2021-09-12T06:49:17.000Z</time>
      </trkpt>
      <trkpt lat="45.21408" lon="5.73392">
        <ele>737.59997558594</ele>
        <time>2021-09-12T06:49:19.000Z</time>
      </trkpt>
      <trkpt lat="45.21407" lon="5.7339">
        <ele>737.40002441406</ele>
        <time>2021-09-12T06:49:20.000Z</time>
      </trkpt>
      <trkpt lat="45.21406" lon="5.73384">
        <ele>737</ele>
        <time>2021-09-12T06:49:22.000Z</time>
      </trkpt>
      <trkpt lat="45.21404" lon="5.7338">
        <ele>736.20001220703</ele>
        <time>2021-09-12T06:49:24.000Z</time>
      </trkpt>
      <trkpt lat="45.21399" lon="5.73377">
        <ele>734.79998779297</ele>
        <time>2021-09-12T06:49:27.000Z</time>
      </trkpt>
      <trkpt lat="45.21395" lon="5.73374">
        <ele>734</ele>
        <time>2021-09-12T06:49:29.000Z</time>
      </trkpt>
      <trkpt lat="45.21394" lon="5.73371">
        <ele>733.59997558594</ele>
        <time>2021-09-12T06:49:30.000Z</time>
      </trkpt>
      <trkpt lat="45.21392" lon="5.73363">
        <ele>732.79998779297</ele>
        <time>2021-09-12T06:49:33.000Z</time>
      </trkpt>
      <trkpt lat="45.21389" lon="5.7336">
        <ele>732.40002441406</ele>
        <time>2021-09-12T06:49:35.000Z</time>
      </trkpt>
      <trkpt lat="45.21384" lon="5.73358">
        <ele>731.79998779297</ele>
        <time>2021-09-12T06:49:37.000Z</time>
      </trkpt>
      <trkpt lat="45.21382" lon="5.73356">
        <ele>731.20001220703</ele>
        <time>2021-09-12T06:49:38.000Z</time>
      </trkpt>
      <trkpt lat="45.2138" lon="5.73354">
        <ele>730.59997558594</ele>
        <time>2021-09-12T06:49:39.000Z</time>
      </trkpt>
      <trkpt lat="45.21379" lon="5.73351">
        <ele>729.79998779297</ele>
        <time>2021-09-12T06:49:40.000Z</time>
      </trkpt>
      <trkpt lat="45.21376" lon="5.73341">
        <ele>729</ele>
        <time>2021-09-12T06:49:43.000Z</time>
      </trkpt>
      <trkpt lat="45.21374" lon="5.73339">
        <ele>728.79998779297</ele>
        <time>2021-09-12T06:49:44.000Z</time>
      </trkpt>
      <trkpt lat="45.21373" lon="5.73338">
        <ele>728.79998779297</ele>
        <time>2021-09-12T06:49:45.000Z</time>
      </trkpt>
      <trkpt lat="45.21372" lon="5.73338">
        <ele>728.40002441406</ele>
        <time>2021-09-12T06:49:46.000Z</time>
      </trkpt>
      <trkpt lat="45.21371" lon="5.73336">
        <ele>728.20001220703</ele>
        <time>2021-09-12T06:49:47.000Z</time>
      </trkpt>
      <trkpt lat="45.2137" lon="5.73334">
        <ele>727.59997558594</ele>
        <time>2021-09-12T06:49:49.000Z</time>
      </trkpt>
      <trkpt lat="45.21367" lon="5.73328">
        <ele>726.20001220703</ele>
        <time>2021-09-12T06:49:52.000Z</time>
      </trkpt>
      <trkpt lat="45.21363" lon="5.73324">
        <ele>725.40002441406</ele>
        <time>2021-09-12T06:49:54.000Z</time>
      </trkpt>
      <trkpt lat="45.21362" lon="5.73322">
        <ele>725</ele>
        <time>2021-09-12T06:49:55.000Z</time>
      </trkpt>
      <trkpt lat="45.21356" lon="5.73313">
        <ele>723.79998779297</ele>
        <time>2021-09-12T06:49:59.000Z</time>
      </trkpt>
      <trkpt lat="45.21353" lon="5.73312">
        <ele>723</ele>
        <time>2021-09-12T06:50:01.000Z</time>
      </trkpt>
      <trkpt lat="45.21351" lon="5.73312">
        <ele>723</ele>
        <time>2021-09-12T06:50:02.000Z</time>
      </trkpt>
      <trkpt lat="45.21349" lon="5.73312">
        <ele>722.40002441406</ele>
        <time>2021-09-12T06:50:03.000Z</time>
      </trkpt>
      <trkpt lat="45.21347" lon="5.73312">
        <ele>721.79998779297</ele>
        <time>2021-09-12T06:50:04.000Z</time>
      </trkpt>
      <trkpt lat="45.21345" lon="5.73312">
        <ele>721.20001220703</ele>
        <time>2021-09-12T06:50:05.000Z</time>
      </trkpt>
      <trkpt lat="45.21343" lon="5.73311">
        <ele>721</ele>
        <time>2021-09-12T06:50:06.000Z</time>
      </trkpt>
      <trkpt lat="45.21339" lon="5.73308">
        <ele>719.79998779297</ele>
        <time>2021-09-12T06:50:09.000Z</time>
      </trkpt>
      <trkpt lat="45.21337" lon="5.73303">
        <ele>719.40002441406</ele>
        <time>2021-09-12T06:50:11.000Z</time>
      </trkpt>
      <trkpt lat="45.21335" lon="5.73297">
        <ele>719.20001220703</ele>
        <time>2021-09-12T06:50:14.000Z</time>
      </trkpt>
      <trkpt lat="45.21331" lon="5.73296">
        <ele>719</ele>
        <time>2021-09-12T06:50:18.000Z</time>
      </trkpt>
      <trkpt lat="45.2133" lon="5.73296">
        <ele>718.59997558594</ele>
        <time>2021-09-12T06:50:19.000Z</time>
      </trkpt>
      <trkpt lat="45.21326" lon="5.73297">
        <ele>718.40002441406</ele>
        <time>2021-09-12T06:50:21.000Z</time>
      </trkpt>
      <trkpt lat="45.21322" lon="5.73297">
        <ele>717.40002441406</ele>
        <time>2021-09-12T06:50:23.000Z</time>
      </trkpt>
      <trkpt lat="45.2132" lon="5.73297">
        <ele>716.79998779297</ele>
        <time>2021-09-12T06:50:24.000Z</time>
      </trkpt>
      <trkpt lat="45.21318" lon="5.73297">
        <ele>716.40002441406</ele>
        <time>2021-09-12T06:50:25.000Z</time>
      </trkpt>
      <trkpt lat="45.21315" lon="5.73299">
        <ele>715.20001220703</ele>
        <time>2021-09-12T06:50:28.000Z</time>
      </trkpt>
      <trkpt lat="45.21314" lon="5.73301">
        <ele>714.59997558594</ele>
        <time>2021-09-12T06:50:31.000Z</time>
      </trkpt>
      <trkpt lat="45.21311" lon="5.73302">
        <ele>713.79998779297</ele>
        <time>2021-09-12T06:50:33.000Z</time>
      </trkpt>
      <trkpt lat="45.21309" lon="5.73302">
        <ele>713.20001220703</ele>
        <time>2021-09-12T06:50:34.000Z</time>
      </trkpt>
      <trkpt lat="45.21307" lon="5.73299">
        <ele>712.59997558594</ele>
        <time>2021-09-12T06:50:35.000Z</time>
      </trkpt>
      <trkpt lat="45.21305" lon="5.73293">
        <ele>711.40002441406</ele>
        <time>2021-09-12T06:50:38.000Z</time>
      </trkpt>
      <trkpt lat="45.21304" lon="5.73287">
        <ele>710.59997558594</ele>
        <time>2021-09-12T06:50:40.000Z</time>
      </trkpt>
      <trkpt lat="45.21303" lon="5.73285">
        <ele>710.20001220703</ele>
        <time>2021-09-12T06:50:41.000Z</time>
      </trkpt>
      <trkpt lat="45.213" lon="5.73285">
        <ele>709.59997558594</ele>
        <time>2021-09-12T06:50:43.000Z</time>
      </trkpt>
      <trkpt lat="45.21297" lon="5.73285">
        <ele>709</ele>
        <time>2021-09-12T06:50:45.000Z</time>
      </trkpt>
      <trkpt lat="45.21292" lon="5.73281">
        <ele>708</ele>
        <time>2021-09-12T06:50:47.000Z</time>
      </trkpt>
      <trkpt lat="45.2129" lon="5.7328">
        <ele>707.79998779297</ele>
        <time>2021-09-12T06:50:48.000Z</time>
      </trkpt>
      <trkpt lat="45.21286" lon="5.73277">
        <ele>707</ele>
        <time>2021-09-12T06:50:50.000Z</time>
      </trkpt>
      <trkpt lat="45.21278" lon="5.73275">
        <ele>705.79998779297</ele>
        <time>2021-09-12T06:50:53.000Z</time>
      </trkpt>
      <trkpt lat="45.21276" lon="5.73274">
        <ele>705.40002441406</ele>
        <time>2021-09-12T06:50:54.000Z</time>
      </trkpt>
      <trkpt lat="45.21274" lon="5.73274">
        <ele>705.20001220703</ele>
        <time>2021-09-12T06:50:55.000Z</time>
      </trkpt>
      <trkpt lat="45.21269" lon="5.73275">
        <ele>704.79998779297</ele>
        <time>2021-09-12T06:50:57.000Z</time>
      </trkpt>
      <trkpt lat="45.21266" lon="5.73273">
        <ele>704.40002441406</ele>
        <time>2021-09-12T06:50:58.000Z</time>
      </trkpt>
      <trkpt lat="45.21264" lon="5.7327">
        <ele>703.59997558594</ele>
        <time>2021-09-12T06:50:59.000Z</time>
      </trkpt>
      <trkpt lat="45.21262" lon="5.73265">
        <ele>703</ele>
        <time>2021-09-12T06:51:00.000Z</time>
      </trkpt>
      <trkpt lat="45.21261" lon="5.73262">
        <ele>702.59997558594</ele>
        <time>2021-09-12T06:51:01.000Z</time>
      </trkpt>
      <trkpt lat="45.2126" lon="5.7326">
        <ele>702.40002441406</ele>
        <time>2021-09-12T06:51:02.000Z</time>
      </trkpt>
      <trkpt lat="45.21258" lon="5.73257">
        <ele>702.20001220703</ele>
        <time>2021-09-12T06:51:03.000Z</time>
      </trkpt>
      <trkpt lat="45.21253" lon="5.73248">
        <ele>701.20001220703</ele>
        <time>2021-09-12T06:51:06.000Z</time>
      </trkpt>
      <trkpt lat="45.21252" lon="5.73245">
        <ele>700.79998779297</ele>
        <time>2021-09-12T06:51:07.000Z</time>
      </trkpt>
      <trkpt lat="45.21249" lon="5.73242">
        <ele>699.79998779297</ele>
        <time>2021-09-12T06:51:09.000Z</time>
      </trkpt>
      <trkpt lat="45.21247" lon="5.7324">
        <ele>698.59997558594</ele>
        <time>2021-09-12T06:51:11.000Z</time>
      </trkpt>
      <trkpt lat="45.21243" lon="5.73238">
        <ele>697.20001220703</ele>
        <time>2021-09-12T06:51:14.000Z</time>
      </trkpt>
      <trkpt lat="45.21241" lon="5.73237">
        <ele>696.40002441406</ele>
        <time>2021-09-12T06:51:16.000Z</time>
      </trkpt>
      <trkpt lat="45.21239" lon="5.73236">
        <ele>696</ele>
        <time>2021-09-12T06:51:17.000Z</time>
      </trkpt>
      <trkpt lat="45.21231" lon="5.73231">
        <ele>694.79998779297</ele>
        <time>2021-09-12T06:51:21.000Z</time>
      </trkpt>
      <trkpt lat="45.21226" lon="5.73225">
        <ele>693.59997558594</ele>
        <time>2021-09-12T06:51:24.000Z</time>
      </trkpt>
      <trkpt lat="45.21221" lon="5.73217">
        <ele>692.59997558594</ele>
        <time>2021-09-12T06:51:27.000Z</time>
      </trkpt>
      <trkpt lat="45.21217" lon="5.73211">
        <ele>691.20001220703</ele>
        <time>2021-09-12T06:51:30.000Z</time>
      </trkpt>
      <trkpt lat="45.21211" lon="5.73206">
        <ele>690</ele>
        <time>2021-09-12T06:51:33.000Z</time>
      </trkpt>
      <trkpt lat="45.21207" lon="5.73202">
        <ele>689</ele>
        <time>2021-09-12T06:51:35.000Z</time>
      </trkpt>
      <trkpt lat="45.21206" lon="5.732">
        <ele>688.40002441406</ele>
        <time>2021-09-12T06:51:36.000Z</time>
      </trkpt>
      <trkpt lat="45.21204" lon="5.73194">
        <ele>687.40002441406</ele>
        <time>2021-09-12T06:51:38.000Z</time>
      </trkpt>
      <trkpt lat="45.21202" lon="5.73192">
        <ele>687</ele>
        <time>2021-09-12T06:51:39.000Z</time>
      </trkpt>
      <trkpt lat="45.21199" lon="5.73187">
        <ele>686.40002441406</ele>
        <time>2021-09-12T06:51:41.000Z</time>
      </trkpt>
      <trkpt lat="45.21195" lon="5.7318">
        <ele>685.20001220703</ele>
        <time>2021-09-12T06:51:44.000Z</time>
      </trkpt>
      <trkpt lat="45.21191" lon="5.73175">
        <ele>684</ele>
        <time>2021-09-12T06:51:46.000Z</time>
      </trkpt>
      <trkpt lat="45.21188" lon="5.73171">
        <ele>683</ele>
        <time>2021-09-12T06:51:48.000Z</time>
      </trkpt>
      <trkpt lat="45.21187" lon="5.73169">
        <ele>682.79998779297</ele>
        <time>2021-09-12T06:51:49.000Z</time>
      </trkpt>
      <trkpt lat="45.21184" lon="5.73166">
        <ele>681.79998779297</ele>
        <time>2021-09-12T06:51:51.000Z</time>
      </trkpt>
      <trkpt lat="45.21176" lon="5.73159">
        <ele>680.59997558594</ele>
        <time>2021-09-12T06:51:55.000Z</time>
      </trkpt>
      <trkpt lat="45.2117" lon="5.73155">
        <ele>679.20001220703</ele>
        <time>2021-09-12T06:51:58.000Z</time>
      </trkpt>
      <trkpt lat="45.21167" lon="5.7315">
        <ele>678.40002441406</ele>
        <time>2021-09-12T06:52:00.000Z</time>
      </trkpt>
      <trkpt lat="45.21165" lon="5.73147">
        <ele>678.20001220703</ele>
        <time>2021-09-12T06:52:01.000Z</time>
      </trkpt>
      <trkpt lat="45.2116" lon="5.73144">
        <ele>677</ele>
        <time>2021-09-12T06:52:04.000Z</time>
      </trkpt>
      <trkpt lat="45.21158" lon="5.73143">
        <ele>676.59997558594</ele>
        <time>2021-09-12T06:52:05.000Z</time>
      </trkpt>
      <trkpt lat="45.21156" lon="5.73138">
        <ele>675.79998779297</ele>
        <time>2021-09-12T06:52:07.000Z</time>
      </trkpt>
      <trkpt lat="45.21154" lon="5.73132">
        <ele>675</ele>
        <time>2021-09-12T06:52:09.000Z</time>
      </trkpt>
      <trkpt lat="45.21153" lon="5.7313">
        <ele>674.59997558594</ele>
        <time>2021-09-12T06:52:10.000Z</time>
      </trkpt>
      <trkpt lat="45.21148" lon="5.73126">
        <ele>673.40002441406</ele>
        <time>2021-09-12T06:52:13.000Z</time>
      </trkpt>
      <trkpt lat="45.21146" lon="5.73127">
        <ele>673.20001220703</ele>
        <time>2021-09-12T06:52:14.000Z</time>
      </trkpt>
      <trkpt lat="45.21143" lon="5.73128">
        <ele>672.20001220703</ele>
        <time>2021-09-12T06:52:16.000Z</time>
      </trkpt>
      <trkpt lat="45.21139" lon="5.73129">
        <ele>671.20001220703</ele>
        <time>2021-09-12T06:52:18.000Z</time>
      </trkpt>
      <trkpt lat="45.2113" lon="5.73134">
        <ele>669.59997558594</ele>
        <time>2021-09-12T06:52:22.000Z</time>
      </trkpt>
      <trkpt lat="45.21125" lon="5.73138">
        <ele>668.20001220703</ele>
        <time>2021-09-12T06:52:25.000Z</time>
      </trkpt>
      <trkpt lat="45.21119" lon="5.73143">
        <ele>667</ele>
        <time>2021-09-12T06:52:29.000Z</time>
      </trkpt>
      <trkpt lat="45.21118" lon="5.73141">
        <ele>665.79998779297</ele>
        <time>2021-09-12T06:52:31.000Z</time>
      </trkpt>
      <trkpt lat="45.21118" lon="5.7314">
        <ele>664.79998779297</ele>
        <time>2021-09-12T06:52:33.000Z</time>
      </trkpt>
      <trkpt lat="45.2112" lon="5.73139">
        <ele>664.20001220703</ele>
        <time>2021-09-12T06:52:34.000Z</time>
      </trkpt>
      <trkpt lat="45.21122" lon="5.7314">
        <ele>663.40002441406</ele>
        <time>2021-09-12T06:52:36.000Z</time>
      </trkpt>
      <trkpt lat="45.21124" lon="5.7314">
        <ele>663.20001220703</ele>
        <time>2021-09-12T06:52:37.000Z</time>
      </trkpt>
      <trkpt lat="45.21126" lon="5.7314">
        <ele>663</ele>
        <time>2021-09-12T06:52:38.000Z</time>
      </trkpt>
      <trkpt lat="45.2113" lon="5.7314">
        <ele>661.79998779297</ele>
        <time>2021-09-12T06:52:40.000Z</time>
      </trkpt>
      <trkpt lat="45.21133" lon="5.7314">
        <ele>661</ele>
        <time>2021-09-12T06:52:42.000Z</time>
      </trkpt>
      <trkpt lat="45.21136" lon="5.73142">
        <ele>660</ele>
        <time>2021-09-12T06:52:44.000Z</time>
      </trkpt>
      <trkpt lat="45.21137" lon="5.73143">
        <ele>659.59997558594</ele>
        <time>2021-09-12T06:52:45.000Z</time>
      </trkpt>
      <trkpt lat="45.21135" lon="5.73146">
        <ele>658.79998779297</ele>
        <time>2021-09-12T06:52:47.000Z</time>
      </trkpt>
      <trkpt lat="45.2113" lon="5.73148">
        <ele>657.59997558594</ele>
        <time>2021-09-12T06:52:50.000Z</time>
      </trkpt>
      <trkpt lat="45.21124" lon="5.7315">
        <ele>656.59997558594</ele>
        <time>2021-09-12T06:52:53.000Z</time>
      </trkpt>
      <trkpt lat="45.21122" lon="5.73151">
        <ele>656.20001220703</ele>
        <time>2021-09-12T06:52:54.000Z</time>
      </trkpt>
      <trkpt lat="45.21118" lon="5.73154">
        <ele>655.20001220703</ele>
        <time>2021-09-12T06:52:57.000Z</time>
      </trkpt>
      <trkpt lat="45.21117" lon="5.73156">
        <ele>654.79998779297</ele>
        <time>2021-09-12T06:52:58.000Z</time>
      </trkpt>
      <trkpt lat="45.21116" lon="5.73157">
        <ele>654.59997558594</ele>
        <time>2021-09-12T06:52:59.000Z</time>
      </trkpt>
      <trkpt lat="45.21114" lon="5.73158">
        <ele>654.20001220703</ele>
        <time>2021-09-12T06:53:00.000Z</time>
      </trkpt>
      <trkpt lat="45.21112" lon="5.73157">
        <ele>653.59997558594</ele>
        <time>2021-09-12T06:53:01.000Z</time>
      </trkpt>
      <trkpt lat="45.21109" lon="5.73156">
        <ele>653</ele>
        <time>2021-09-12T06:53:02.000Z</time>
      </trkpt>
      <trkpt lat="45.21105" lon="5.73152">
        <ele>652.40002441406</ele>
        <time>2021-09-12T06:53:04.000Z</time>
      </trkpt>
      <trkpt lat="45.21103" lon="5.7315">
        <ele>651.79998779297</ele>
        <time>2021-09-12T06:53:05.000Z</time>
      </trkpt>
      <trkpt lat="45.21098" lon="5.73145">
        <ele>651</ele>
        <time>2021-09-12T06:53:07.000Z</time>
      </trkpt>
      <trkpt lat="45.21096" lon="5.73141">
        <ele>650.59997558594</ele>
        <time>2021-09-12T06:53:08.000Z</time>
      </trkpt>
      <trkpt lat="45.21093" lon="5.73137">
        <ele>649.59997558594</ele>
        <time>2021-09-12T06:53:10.000Z</time>
      </trkpt>
      <trkpt lat="45.21086" lon="5.73133">
        <ele>648.59997558594</ele>
        <time>2021-09-12T06:53:13.000Z</time>
      </trkpt>
      <trkpt lat="45.21084" lon="5.7313">
        <ele>648.40002441406</ele>
        <time>2021-09-12T06:53:14.000Z</time>
      </trkpt>
      <trkpt lat="45.21083" lon="5.73128">
        <ele>647.79998779297</ele>
        <time>2021-09-12T06:53:15.000Z</time>
      </trkpt>
      <trkpt lat="45.21082" lon="5.73126">
        <ele>647.59997558594</ele>
        <time>2021-09-12T06:53:16.000Z</time>
      </trkpt>
      <trkpt lat="45.2108" lon="5.73123">
        <ele>647.20001220703</ele>
        <time>2021-09-12T06:53:18.000Z</time>
      </trkpt>
      <trkpt lat="45.21074" lon="5.73125">
        <ele>646.40002441406</ele>
        <time>2021-09-12T06:53:22.000Z</time>
      </trkpt>
      <trkpt lat="45.21072" lon="5.73126">
        <ele>645.79998779297</ele>
        <time>2021-09-12T06:53:23.000Z</time>
      </trkpt>
      <trkpt lat="45.21068" lon="5.73127">
        <ele>645.20001220703</ele>
        <time>2021-09-12T06:53:25.000Z</time>
      </trkpt>
      <trkpt lat="45.21061" lon="5.73126">
        <ele>644</ele>
        <time>2021-09-12T06:53:28.000Z</time>
      </trkpt>
      <trkpt lat="45.21053" lon="5.73125">
        <ele>642.59997558594</ele>
        <time>2021-09-12T06:53:31.000Z</time>
      </trkpt>
      <trkpt lat="45.21046" lon="5.73124">
        <ele>641.40002441406</ele>
        <time>2021-09-12T06:53:35.000Z</time>
      </trkpt>
      <trkpt lat="45.21042" lon="5.73123">
        <ele>640.59997558594</ele>
        <time>2021-09-12T06:53:37.000Z</time>
      </trkpt>
      <trkpt lat="45.2104" lon="5.73122">
        <ele>640.40002441406</ele>
        <time>2021-09-12T06:53:38.000Z</time>
      </trkpt>
      <trkpt lat="45.21039" lon="5.73122">
        <ele>640</ele>
        <time>2021-09-12T06:53:39.000Z</time>
      </trkpt>
      <trkpt lat="45.21035" lon="5.73121">
        <ele>639.40002441406</ele>
        <time>2021-09-12T06:53:41.000Z</time>
      </trkpt>
      <trkpt lat="45.21033" lon="5.7312">
        <ele>638.79998779297</ele>
        <time>2021-09-12T06:53:42.000Z</time>
      </trkpt>
      <trkpt lat="45.21031" lon="5.73119">
        <ele>638.59997558594</ele>
        <time>2021-09-12T06:53:43.000Z</time>
      </trkpt>
      <trkpt lat="45.21029" lon="5.73116">
        <ele>638.20001220703</ele>
        <time>2021-09-12T06:53:45.000Z</time>
      </trkpt>
      <trkpt lat="45.21027" lon="5.73115">
        <ele>638.20001220703</ele>
        <time>2021-09-12T06:53:46.000Z</time>
      </trkpt>
      <trkpt lat="45.21026" lon="5.73113">
        <ele>637.79998779297</ele>
        <time>2021-09-12T06:53:48.000Z</time>
      </trkpt>
      <trkpt lat="45.21025" lon="5.7311">
        <ele>637.59997558594</ele>
        <time>2021-09-12T06:53:50.000Z</time>
      </trkpt>
      <trkpt lat="45.21025" lon="5.7311">
        <ele>637.40002441406</ele>
        <time>2021-09-12T06:53:51.000Z</time>
      </trkpt>
      <trkpt lat="45.21023" lon="5.73114">
        <ele>637.20001220703</ele>
        <time>2021-09-12T06:53:53.000Z</time>
      </trkpt>
      <trkpt lat="45.21022" lon="5.73116">
        <ele>637</ele>
        <time>2021-09-12T06:53:54.000Z</time>
      </trkpt>
      <trkpt lat="45.2102" lon="5.73118">
        <ele>636.40002441406</ele>
        <time>2021-09-12T06:53:55.000Z</time>
      </trkpt>
      <trkpt lat="45.21017" lon="5.73121">
        <ele>635.40002441406</ele>
        <time>2021-09-12T06:53:57.000Z</time>
      </trkpt>
      <trkpt lat="45.21017" lon="5.73122">
        <ele>635.20001220703</ele>
        <time>2021-09-12T06:53:58.000Z</time>
      </trkpt>
      <trkpt lat="45.21017" lon="5.73124">
        <ele>635</ele>
        <time>2021-09-12T06:53:59.000Z</time>
      </trkpt>
      <trkpt lat="45.21017" lon="5.73125">
        <ele>634.59997558594</ele>
        <time>2021-09-12T06:54:00.000Z</time>
      </trkpt>
      <trkpt lat="45.21013" lon="5.73129">
        <ele>634</ele>
        <time>2021-09-12T06:54:02.000Z</time>
      </trkpt>
      <trkpt lat="45.21011" lon="5.7313">
        <ele>633.59997558594</ele>
        <time>2021-09-12T06:54:03.000Z</time>
      </trkpt>
      <trkpt lat="45.21008" lon="5.73132">
        <ele>632.59997558594</ele>
        <time>2021-09-12T06:54:05.000Z</time>
      </trkpt>
      <trkpt lat="45.21001" lon="5.73138">
        <ele>631.59997558594</ele>
        <time>2021-09-12T06:54:09.000Z</time>
      </trkpt>
      <trkpt lat="45.20996" lon="5.73141">
        <ele>630</ele>
        <time>2021-09-12T06:54:12.000Z</time>
      </trkpt>
      <trkpt lat="45.20994" lon="5.73143">
        <ele>628.79998779297</ele>
        <time>2021-09-12T06:54:15.000Z</time>
      </trkpt>
      <trkpt lat="45.20993" lon="5.73143">
        <ele>628.40002441406</ele>
        <time>2021-09-12T06:54:19.000Z</time>
      </trkpt>
      <trkpt lat="45.20992" lon="5.73144">
        <ele>628.40002441406</ele>
        <time>2021-09-12T06:54:22.000Z</time>
      </trkpt>
      <trkpt lat="45.20992" lon="5.73144">
        <ele>628.20001220703</ele>
        <time>2021-09-12T06:54:27.000Z</time>
      </trkpt>
      <trkpt lat="45.20993" lon="5.73141">
        <ele>628.20001220703</ele>
        <time>2021-09-12T06:54:30.000Z</time>
      </trkpt>
      <trkpt lat="45.20993" lon="5.73141">
        <ele>628.20001220703</ele>
        <time>2021-09-12T06:54:32.000Z</time>
      </trkpt>
      <trkpt lat="45.20993" lon="5.73141">
        <ele>628.20001220703</ele>
        <time>2021-09-12T06:54:33.000Z</time>
      </trkpt>
      <trkpt lat="45.20993" lon="5.73141">
        <ele>628.20001220703</ele>
        <time>2021-09-12T06:54:37.000Z</time>
      </trkpt>
      <trkpt lat="45.20993" lon="5.73141">
        <ele>628.40002441406</ele>
        <time>2021-09-12T06:54:41.000Z</time>
      </trkpt>
      <trkpt lat="45.20993" lon="5.7314">
        <ele>628.40002441406</ele>
        <time>2021-09-12T06:54:42.000Z</time>
      </trkpt>
      <trkpt lat="45.20997" lon="5.73138">
        <ele>628.40002441406</ele>
        <time>2021-09-12T06:54:44.000Z</time>
      </trkpt>
      <trkpt lat="45.20998" lon="5.73138">
        <ele>628</ele>
        <time>2021-09-12T06:54:45.000Z</time>
      </trkpt>
      <trkpt lat="45.21001" lon="5.73137">
        <ele>627.59997558594</ele>
        <time>2021-09-12T06:54:46.000Z</time>
      </trkpt>
      <trkpt lat="45.21009" lon="5.73134">
        <ele>626.20001220703</ele>
        <time>2021-09-12T06:54:50.000Z</time>
      </trkpt>
      <trkpt lat="45.2101" lon="5.73134">
        <ele>626</ele>
        <time>2021-09-12T06:54:51.000Z</time>
      </trkpt>
      <trkpt lat="45.21011" lon="5.73134">
        <ele>625.40002441406</ele>
        <time>2021-09-12T06:54:52.000Z</time>
      </trkpt>
      <trkpt lat="45.21012" lon="5.73133">
        <ele>625</ele>
        <time>2021-09-12T06:54:53.000Z</time>
      </trkpt>
      <trkpt lat="45.21014" lon="5.73131">
        <ele>624.59997558594</ele>
        <time>2021-09-12T06:54:55.000Z</time>
      </trkpt>
      <trkpt lat="45.21016" lon="5.73131">
        <ele>624.40002441406</ele>
        <time>2021-09-12T06:54:56.000Z</time>
      </trkpt>
      <trkpt lat="45.21018" lon="5.73131">
        <ele>624</ele>
        <time>2021-09-12T06:54:57.000Z</time>
      </trkpt>
      <trkpt lat="45.21022" lon="5.73132">
        <ele>623</ele>
        <time>2021-09-12T06:55:01.000Z</time>
      </trkpt>
      <trkpt lat="45.21023" lon="5.73133">
        <ele>622.79998779297</ele>
        <time>2021-09-12T06:55:03.000Z</time>
      </trkpt>
      <trkpt lat="45.21026" lon="5.73132">
        <ele>622.40002441406</ele>
        <time>2021-09-12T06:55:05.000Z</time>
      </trkpt>
      <trkpt lat="45.21027" lon="5.73132">
        <ele>622.20001220703</ele>
        <time>2021-09-12T06:55:06.000Z</time>
      </trkpt>
      <trkpt lat="45.21028" lon="5.73134">
        <ele>621.59997558594</ele>
        <time>2021-09-12T06:55:07.000Z</time>
      </trkpt>
      <trkpt lat="45.21028" lon="5.73138">
        <ele>620.59997558594</ele>
        <time>2021-09-12T06:55:09.000Z</time>
      </trkpt>
      <trkpt lat="45.21029" lon="5.73143">
        <ele>619.59997558594</ele>
        <time>2021-09-12T06:55:11.000Z</time>
      </trkpt>
      <trkpt lat="45.21029" lon="5.73145">
        <ele>619.40002441406</ele>
        <time>2021-09-12T06:55:12.000Z</time>
      </trkpt>
      <trkpt lat="45.2103" lon="5.73146">
        <ele>619</ele>
        <time>2021-09-12T06:55:13.000Z</time>
      </trkpt>
      <trkpt lat="45.21033" lon="5.7315">
        <ele>618.40002441406</ele>
        <time>2021-09-12T06:55:15.000Z</time>
      </trkpt>
      <trkpt lat="45.21035" lon="5.73151">
        <ele>618.20001220703</ele>
        <time>2021-09-12T06:55:16.000Z</time>
      </trkpt>
      <trkpt lat="45.21042" lon="5.73156">
        <ele>617</ele>
        <time>2021-09-12T06:55:19.000Z</time>
      </trkpt>
      <trkpt lat="45.21046" lon="5.73157">
        <ele>616.20001220703</ele>
        <time>2021-09-12T06:55:21.000Z</time>
      </trkpt>
      <trkpt lat="45.21048" lon="5.73157">
        <ele>615.59997558594</ele>
        <time>2021-09-12T06:55:22.000Z</time>
      </trkpt>
      <trkpt lat="45.21053" lon="5.73159">
        <ele>614.79998779297</ele>
        <time>2021-09-12T06:55:25.000Z</time>
      </trkpt>
      <trkpt lat="45.21055" lon="5.73161">
        <ele>614.40002441406</ele>
        <time>2021-09-12T06:55:26.000Z</time>
      </trkpt>
      <trkpt lat="45.21058" lon="5.73166">
        <ele>614</ele>
        <time>2021-09-12T06:55:28.000Z</time>
      </trkpt>
      <trkpt lat="45.21059" lon="5.73168">
        <ele>613.59997558594</ele>
        <time>2021-09-12T06:55:29.000Z</time>
      </trkpt>
      <trkpt lat="45.2106" lon="5.73169">
        <ele>613</ele>
        <time>2021-09-12T06:55:30.000Z</time>
      </trkpt>
      <trkpt lat="45.21062" lon="5.73173">
        <ele>611.79998779297</ele>
        <time>2021-09-12T06:55:33.000Z</time>
      </trkpt>
      <trkpt lat="45.21062" lon="5.73175">
        <ele>611.59997558594</ele>
        <time>2021-09-12T06:55:34.000Z</time>
      </trkpt>
      <trkpt lat="45.21064" lon="5.73184">
        <ele>610.79998779297</ele>
        <time>2021-09-12T06:55:37.000Z</time>
      </trkpt>
      <trkpt lat="45.21065" lon="5.73186">
        <ele>610.20001220703</ele>
        <time>2021-09-12T06:55:38.000Z</time>
      </trkpt>
      <trkpt lat="45.21068" lon="5.73191">
        <ele>609.40002441406</ele>
        <time>2021-09-12T06:55:40.000Z</time>
      </trkpt>
      <trkpt lat="45.21073" lon="5.73199">
        <ele>608.40002441406</ele>
        <time>2021-09-12T06:55:43.000Z</time>
      </trkpt>
      <trkpt lat="45.21076" lon="5.73208">
        <ele>607.20001220703</ele>
        <time>2021-09-12T06:55:46.000Z</time>
      </trkpt>
      <trkpt lat="45.21077" lon="5.73209">
        <ele>607</ele>
        <time>2021-09-12T06:55:47.000Z</time>
      </trkpt>
      <trkpt lat="45.21076" lon="5.7321">
        <ele>606.59997558594</ele>
        <time>2021-09-12T06:55:48.000Z</time>
      </trkpt>
      <trkpt lat="45.21076" lon="5.73209">
        <ele>606</ele>
        <time>2021-09-12T06:55:49.000Z</time>
      </trkpt>
      <trkpt lat="45.21072" lon="5.73207">
        <ele>605</ele>
        <time>2021-09-12T06:55:51.000Z</time>
      </trkpt>
      <trkpt lat="45.21071" lon="5.73205">
        <ele>604.59997558594</ele>
        <time>2021-09-12T06:55:52.000Z</time>
      </trkpt>
      <trkpt lat="45.21068" lon="5.73203">
        <ele>604.20001220703</ele>
        <time>2021-09-12T06:55:54.000Z</time>
      </trkpt>
      <trkpt lat="45.21066" lon="5.73199">
        <ele>603.40002441406</ele>
        <time>2021-09-12T06:55:56.000Z</time>
      </trkpt>
      <trkpt lat="45.21065" lon="5.73196">
        <ele>603</ele>
        <time>2021-09-12T06:55:57.000Z</time>
      </trkpt>
      <trkpt lat="45.21062" lon="5.73193">
        <ele>602</ele>
        <time>2021-09-12T06:55:59.000Z</time>
      </trkpt>
      <trkpt lat="45.21057" lon="5.73188">
        <ele>601</ele>
        <time>2021-09-12T06:56:02.000Z</time>
      </trkpt>
      <trkpt lat="45.21056" lon="5.73188">
        <ele>600.59997558594</ele>
        <time>2021-09-12T06:56:03.000Z</time>
      </trkpt>
      <trkpt lat="45.21053" lon="5.73188">
        <ele>599.79998779297</ele>
        <time>2021-09-12T06:56:06.000Z</time>
      </trkpt>
      <trkpt lat="45.21047" lon="5.73191">
        <ele>598.20001220703</ele>
        <time>2021-09-12T06:56:10.000Z</time>
      </trkpt>
      <trkpt lat="45.21044" lon="5.7319">
        <ele>597.79998779297</ele>
        <time>2021-09-12T06:56:11.000Z</time>
      </trkpt>
      <trkpt lat="45.2104" lon="5.73189">
        <ele>597.59997558594</ele>
        <time>2021-09-12T06:56:12.000Z</time>
      </trkpt>
      <trkpt lat="45.21038" lon="5.73188">
        <ele>597.20001220703</ele>
        <time>2021-09-12T06:56:13.000Z</time>
      </trkpt>
      <trkpt lat="45.21036" lon="5.73187">
        <ele>596.59997558594</ele>
        <time>2021-09-12T06:56:14.000Z</time>
      </trkpt>
      <trkpt lat="45.21029" lon="5.73182">
        <ele>595.59997558594</ele>
        <time>2021-09-12T06:56:17.000Z</time>
      </trkpt>
      <trkpt lat="45.21027" lon="5.7318">
        <ele>595.40002441406</ele>
        <time>2021-09-12T06:56:18.000Z</time>
      </trkpt>
      <trkpt lat="45.21025" lon="5.73177">
        <ele>594.59997558594</ele>
        <time>2021-09-12T06:56:20.000Z</time>
      </trkpt>
      <trkpt lat="45.21023" lon="5.73177">
        <ele>594</ele>
        <time>2021-09-12T06:56:22.000Z</time>
      </trkpt>
      <trkpt lat="45.21021" lon="5.73179">
        <ele>593.40002441406</ele>
        <time>2021-09-12T06:56:23.000Z</time>
      </trkpt>
      <trkpt lat="45.21015" lon="5.73186">
        <ele>592.40002441406</ele>
        <time>2021-09-12T06:56:28.000Z</time>
      </trkpt>
      <trkpt lat="45.21013" lon="5.73193">
        <ele>591.20001220703</ele>
        <time>2021-09-12T06:56:31.000Z</time>
      </trkpt>
      <trkpt lat="45.2101" lon="5.73196">
        <ele>590.59997558594</ele>
        <time>2021-09-12T06:56:32.000Z</time>
      </trkpt>
      <trkpt lat="45.21008" lon="5.73197">
        <ele>590.20001220703</ele>
        <time>2021-09-12T06:56:33.000Z</time>
      </trkpt>
      <trkpt lat="45.21006" lon="5.73199">
        <ele>589.79998779297</ele>
        <time>2021-09-12T06:56:34.000Z</time>
      </trkpt>
      <trkpt lat="45.21004" lon="5.73202">
        <ele>589.59997558594</ele>
        <time>2021-09-12T06:56:35.000Z</time>
      </trkpt>
      <trkpt lat="45.21003" lon="5.73206">
        <ele>589</ele>
        <time>2021-09-12T06:56:36.000Z</time>
      </trkpt>
      <trkpt lat="45.21002" lon="5.73209">
        <ele>588.59997558594</ele>
        <time>2021-09-12T06:56:37.000Z</time>
      </trkpt>
      <trkpt lat="45.21001" lon="5.73212">
        <ele>588.20001220703</ele>
        <time>2021-09-12T06:56:38.000Z</time>
      </trkpt>
      <trkpt lat="45.20997" lon="5.73217">
        <ele>587.59997558594</ele>
        <time>2021-09-12T06:56:40.000Z</time>
      </trkpt>
      <trkpt lat="45.20989" lon="5.73222">
        <ele>586.59997558594</ele>
        <time>2021-09-12T06:56:43.000Z</time>
      </trkpt>
      <trkpt lat="45.20986" lon="5.73221">
        <ele>585.79998779297</ele>
        <time>2021-09-12T06:56:44.000Z</time>
      </trkpt>
      <trkpt lat="45.20984" lon="5.7322">
        <ele>585.40002441406</ele>
        <time>2021-09-12T06:56:45.000Z</time>
      </trkpt>
      <trkpt lat="45.20982" lon="5.73218">
        <ele>584.40002441406</ele>
        <time>2021-09-12T06:56:47.000Z</time>
      </trkpt>
      <trkpt lat="45.20982" lon="5.73218">
        <ele>584</ele>
        <time>2021-09-12T06:56:48.000Z</time>
      </trkpt>
      <trkpt lat="45.20983" lon="5.73218">
        <ele>583.79998779297</ele>
        <time>2021-09-12T06:56:49.000Z</time>
      </trkpt>
      <trkpt lat="45.20986" lon="5.73218">
        <ele>583.20001220703</ele>
        <time>2021-09-12T06:56:51.000Z</time>
      </trkpt>
      <trkpt lat="45.20988" lon="5.73217">
        <ele>582.79998779297</ele>
        <time>2021-09-12T06:56:52.000Z</time>
      </trkpt>
      <trkpt lat="45.2099" lon="5.73218">
        <ele>582.20001220703</ele>
        <time>2021-09-12T06:56:54.000Z</time>
      </trkpt>
      <trkpt lat="45.2099" lon="5.73219">
        <ele>581.79998779297</ele>
        <time>2021-09-12T06:56:55.000Z</time>
      </trkpt>
      <trkpt lat="45.20989" lon="5.73219">
        <ele>581.40002441406</ele>
        <time>2021-09-12T06:56:56.000Z</time>
      </trkpt>
      <trkpt lat="45.20985" lon="5.73219">
        <ele>580.59997558594</ele>
        <time>2021-09-12T06:56:58.000Z</time>
      </trkpt>
      <trkpt lat="45.20976" lon="5.73223">
        <ele>579.20001220703</ele>
        <time>2021-09-12T06:57:02.000Z</time>
      </trkpt>
      <trkpt lat="45.20967" lon="5.73222">
        <ele>578</ele>
        <time>2021-09-12T06:57:06.000Z</time>
      </trkpt>
      <trkpt lat="45.20965" lon="5.73222">
        <ele>577.79998779297</ele>
        <time>2021-09-12T06:57:07.000Z</time>
      </trkpt>
      <trkpt lat="45.20963" lon="5.73223">
        <ele>577.20001220703</ele>
        <time>2021-09-12T06:57:08.000Z</time>
      </trkpt>
      <trkpt lat="45.20961" lon="5.73223">
        <ele>577</ele>
        <time>2021-09-12T06:57:09.000Z</time>
      </trkpt>
      <trkpt lat="45.20957" lon="5.73225">
        <ele>575.79998779297</ele>
        <time>2021-09-12T06:57:11.000Z</time>
      </trkpt>
      <trkpt lat="45.2095" lon="5.73229">
        <ele>574.40002441406</ele>
        <time>2021-09-12T06:57:15.000Z</time>
      </trkpt>
      <trkpt lat="45.20944" lon="5.73228">
        <ele>573.20001220703</ele>
        <time>2021-09-12T06:57:18.000Z</time>
      </trkpt>
      <trkpt lat="45.20941" lon="5.73228">
        <ele>572.40002441406</ele>
        <time>2021-09-12T06:57:20.000Z</time>
      </trkpt>
      <trkpt lat="45.20939" lon="5.73228">
        <ele>572</ele>
        <time>2021-09-12T06:57:21.000Z</time>
      </trkpt>
      <trkpt lat="45.20938" lon="5.73228">
        <ele>571.40002441406</ele>
        <time>2021-09-12T06:57:23.000Z</time>
      </trkpt>
      <trkpt lat="45.20938" lon="5.73228">
        <ele>570.79998779297</ele>
        <time>2021-09-12T06:57:24.000Z</time>
      </trkpt>
      <trkpt lat="45.20938" lon="5.73228">
        <ele>570.40002441406</ele>
        <time>2021-09-12T06:57:25.000Z</time>
      </trkpt>
      <trkpt lat="45.2094" lon="5.73233">
        <ele>569.40002441406</ele>
        <time>2021-09-12T06:57:28.000Z</time>
      </trkpt>
      <trkpt lat="45.20946" lon="5.73236">
        <ele>568.20001220703</ele>
        <time>2021-09-12T06:57:32.000Z</time>
      </trkpt>
      <trkpt lat="45.20951" lon="5.73237">
        <ele>567</ele>
        <time>2021-09-12T06:57:35.000Z</time>
      </trkpt>
      <trkpt lat="45.20957" lon="5.73238">
        <ele>565.79998779297</ele>
        <time>2021-09-12T06:57:38.000Z</time>
      </trkpt>
      <trkpt lat="45.2096" lon="5.73238">
        <ele>565.40002441406</ele>
        <time>2021-09-12T06:57:40.000Z</time>
      </trkpt>
      <trkpt lat="45.20963" lon="5.73241">
        <ele>564.20001220703</ele>
        <time>2021-09-12T06:57:43.000Z</time>
      </trkpt>
      <trkpt lat="45.20965" lon="5.73241">
        <ele>563.79998779297</ele>
        <time>2021-09-12T06:57:44.000Z</time>
      </trkpt>
      <trkpt lat="45.20969" lon="5.73243">
        <ele>563.40002441406</ele>
        <time>2021-09-12T06:57:46.000Z</time>
      </trkpt>
      <trkpt lat="45.2097" lon="5.73243">
        <ele>563</ele>
        <time>2021-09-12T06:57:47.000Z</time>
      </trkpt>
      <trkpt lat="45.20977" lon="5.73246">
        <ele>562</ele>
        <time>2021-09-12T06:57:50.000Z</time>
      </trkpt>
      <trkpt lat="45.20981" lon="5.73247">
        <ele>561.20001220703</ele>
        <time>2021-09-12T06:57:52.000Z</time>
      </trkpt>
      <trkpt lat="45.20982" lon="5.73248">
        <ele>560.40002441406</ele>
        <time>2021-09-12T06:57:54.000Z</time>
      </trkpt>
      <trkpt lat="45.20981" lon="5.73249">
        <ele>560.20001220703</ele>
        <time>2021-09-12T06:57:55.000Z</time>
      </trkpt>
      <trkpt lat="45.20976" lon="5.73255">
        <ele>558.79998779297</ele>
        <time>2021-09-12T06:57:59.000Z</time>
      </trkpt>
      <trkpt lat="45.20972" lon="5.73256">
        <ele>558</ele>
        <time>2021-09-12T06:58:01.000Z</time>
      </trkpt>
      <trkpt lat="45.2097" lon="5.73256">
        <ele>557.59997558594</ele>
        <time>2021-09-12T06:58:02.000Z</time>
      </trkpt>
      <trkpt lat="45.20965" lon="5.73257">
        <ele>556.59997558594</ele>
        <time>2021-09-12T06:58:05.000Z</time>
      </trkpt>
      <trkpt lat="45.20963" lon="5.73257">
        <ele>556.40002441406</ele>
        <time>2021-09-12T06:58:06.000Z</time>
      </trkpt>
      <trkpt lat="45.2096" lon="5.73257">
        <ele>555.59997558594</ele>
        <time>2021-09-12T06:58:08.000Z</time>
      </trkpt>
      <trkpt lat="45.20959" lon="5.73258">
        <ele>555.40002441406</ele>
        <time>2021-09-12T06:58:09.000Z</time>
      </trkpt>
      <trkpt lat="45.20957" lon="5.73259">
        <ele>555.20001220703</ele>
        <time>2021-09-12T06:58:10.000Z</time>
      </trkpt>
      <trkpt lat="45.20955" lon="5.7326">
        <ele>554.40002441406</ele>
        <time>2021-09-12T06:58:12.000Z</time>
      </trkpt>
      <trkpt lat="45.20953" lon="5.73261">
        <ele>554</ele>
        <time>2021-09-12T06:58:13.000Z</time>
      </trkpt>
      <trkpt lat="45.20948" lon="5.73264">
        <ele>552.79998779297</ele>
        <time>2021-09-12T06:58:16.000Z</time>
      </trkpt>
      <trkpt lat="45.20946" lon="5.73263">
        <ele>552.40002441406</ele>
        <time>2021-09-12T06:58:17.000Z</time>
      </trkpt>
      <trkpt lat="45.20943" lon="5.73262">
        <ele>551.40002441406</ele>
        <time>2021-09-12T06:58:19.000Z</time>
      </trkpt>
      <trkpt lat="45.20935" lon="5.7326">
        <ele>550.20001220703</ele>
        <time>2021-09-12T06:58:22.000Z</time>
      </trkpt>
      <trkpt lat="45.20933" lon="5.7326">
        <ele>549.79998779297</ele>
        <time>2021-09-12T06:58:23.000Z</time>
      </trkpt>
      <trkpt lat="45.20929" lon="5.7326">
        <ele>549</ele>
        <time>2021-09-12T06:58:25.000Z</time>
      </trkpt>
      <trkpt lat="45.20925" lon="5.7326">
        <ele>548</ele>
        <time>2021-09-12T06:58:27.000Z</time>
      </trkpt>
      <trkpt lat="45.20923" lon="5.73259">
        <ele>547.59997558594</ele>
        <time>2021-09-12T06:58:28.000Z</time>
      </trkpt>
      <trkpt lat="45.20921" lon="5.73258">
        <ele>547.20001220703</ele>
        <time>2021-09-12T06:58:29.000Z</time>
      </trkpt>
      <trkpt lat="45.2092" lon="5.73258">
        <ele>547</ele>
        <time>2021-09-12T06:58:30.000Z</time>
      </trkpt>
      <trkpt lat="45.20915" lon="5.73258">
        <ele>545.40002441406</ele>
        <time>2021-09-12T06:58:34.000Z</time>
      </trkpt>
      <trkpt lat="45.20916" lon="5.73258">
        <ele>545</ele>
        <time>2021-09-12T06:58:35.000Z</time>
      </trkpt>
      <trkpt lat="45.20918" lon="5.73259">
        <ele>544.40002441406</ele>
        <time>2021-09-12T06:58:37.000Z</time>
      </trkpt>
      <trkpt lat="45.20924" lon="5.73264">
        <ele>543.40002441406</ele>
        <time>2021-09-12T06:58:41.000Z</time>
      </trkpt>
      <trkpt lat="45.20927" lon="5.73267">
        <ele>542.59997558594</ele>
        <time>2021-09-12T06:58:43.000Z</time>
      </trkpt>
      <trkpt lat="45.20929" lon="5.73268">
        <ele>542.20001220703</ele>
        <time>2021-09-12T06:58:44.000Z</time>
      </trkpt>
      <trkpt lat="45.20932" lon="5.73271">
        <ele>541.40002441406</ele>
        <time>2021-09-12T06:58:46.000Z</time>
      </trkpt>
      <trkpt lat="45.20936" lon="5.73274">
        <ele>540.59997558594</ele>
        <time>2021-09-12T06:58:48.000Z</time>
      </trkpt>
      <trkpt lat="45.2094" lon="5.73281">
        <ele>539.20001220703</ele>
        <time>2021-09-12T06:58:51.000Z</time>
      </trkpt>
      <trkpt lat="45.20946" lon="5.73287">
        <ele>538</ele>
        <time>2021-09-12T06:58:55.000Z</time>
      </trkpt>
      <trkpt lat="45.20948" lon="5.73287">
        <ele>537.79998779297</ele>
        <time>2021-09-12T06:58:56.000Z</time>
      </trkpt>
      <trkpt lat="45.20953" lon="5.73287">
        <ele>536.79998779297</ele>
        <time>2021-09-12T06:58:59.000Z</time>
      </trkpt>
      <trkpt lat="45.20957" lon="5.73287">
        <ele>535.59997558594</ele>
        <time>2021-09-12T06:59:01.000Z</time>
      </trkpt>
      <trkpt lat="45.20959" lon="5.73286">
        <ele>535.40002441406</ele>
        <time>2021-09-12T06:59:02.000Z</time>
      </trkpt>
      <trkpt lat="45.20961" lon="5.73287">
        <ele>535</ele>
        <time>2021-09-12T06:59:03.000Z</time>
      </trkpt>
      <trkpt lat="45.20962" lon="5.73288">
        <ele>534.59997558594</ele>
        <time>2021-09-12T06:59:04.000Z</time>
      </trkpt>
      <trkpt lat="45.20966" lon="5.7329">
        <ele>533.59997558594</ele>
        <time>2021-09-12T06:59:07.000Z</time>
      </trkpt>
      <trkpt lat="45.20971" lon="5.73294">
        <ele>532.59997558594</ele>
        <time>2021-09-12T06:59:10.000Z</time>
      </trkpt>
      <trkpt lat="45.20975" lon="5.73296">
        <ele>532</ele>
        <time>2021-09-12T06:59:12.000Z</time>
      </trkpt>
      <trkpt lat="45.20976" lon="5.73296">
        <ele>531.59997558594</ele>
        <time>2021-09-12T06:59:13.000Z</time>
      </trkpt>
      <trkpt lat="45.20979" lon="5.73299">
        <ele>530.79998779297</ele>
        <time>2021-09-12T06:59:15.000Z</time>
      </trkpt>
      <trkpt lat="45.20981" lon="5.733">
        <ele>530.20001220703</ele>
        <time>2021-09-12T06:59:17.000Z</time>
      </trkpt>
      <trkpt lat="45.20982" lon="5.733">
        <ele>530</ele>
        <time>2021-09-12T06:59:18.000Z</time>
      </trkpt>
      <trkpt lat="45.2098" lon="5.73304">
        <ele>529</ele>
        <time>2021-09-12T06:59:21.000Z</time>
      </trkpt>
      <trkpt lat="45.20978" lon="5.73305">
        <ele>528.20001220703</ele>
        <time>2021-09-12T06:59:23.000Z</time>
      </trkpt>
      <trkpt lat="45.20977" lon="5.73305">
        <ele>528</ele>
        <time>2021-09-12T06:59:24.000Z</time>
      </trkpt>
      <trkpt lat="45.20974" lon="5.73305">
        <ele>526.79998779297</ele>
        <time>2021-09-12T06:59:27.000Z</time>
      </trkpt>
      <trkpt lat="45.20966" lon="5.73305">
        <ele>525.59997558594</ele>
        <time>2021-09-12T06:59:31.000Z</time>
      </trkpt>
      <trkpt lat="45.20962" lon="5.73306">
        <ele>524.79998779297</ele>
        <time>2021-09-12T06:59:33.000Z</time>
      </trkpt>
      <trkpt lat="45.2096" lon="5.73307">
        <ele>524.59997558594</ele>
        <time>2021-09-12T06:59:34.000Z</time>
      </trkpt>
      <trkpt lat="45.20958" lon="5.73308">
        <ele>524.20001220703</ele>
        <time>2021-09-12T06:59:35.000Z</time>
      </trkpt>
      <trkpt lat="45.20953" lon="5.73311">
        <ele>523.20001220703</ele>
        <time>2021-09-12T06:59:38.000Z</time>
      </trkpt>
      <trkpt lat="45.20951" lon="5.73312">
        <ele>522.79998779297</ele>
        <time>2021-09-12T06:59:39.000Z</time>
      </trkpt>
      <trkpt lat="45.20946" lon="5.73314">
        <ele>521.59997558594</ele>
        <time>2021-09-12T06:59:42.000Z</time>
      </trkpt>
      <trkpt lat="45.2094" lon="5.73312">
        <ele>520.59997558594</ele>
        <time>2021-09-12T06:59:45.000Z</time>
      </trkpt>
      <trkpt lat="45.20935" lon="5.73309">
        <ele>519.40002441406</ele>
        <time>2021-09-12T06:59:47.000Z</time>
      </trkpt>
      <trkpt lat="45.20931" lon="5.7331">
        <ele>519</ele>
        <time>2021-09-12T06:59:48.000Z</time>
      </trkpt>
      <trkpt lat="45.20929" lon="5.73308">
        <ele>518.59997558594</ele>
        <time>2021-09-12T06:59:49.000Z</time>
      </trkpt>
      <trkpt lat="45.20928" lon="5.73307">
        <ele>518</ele>
        <time>2021-09-12T06:59:50.000Z</time>
      </trkpt>
      <trkpt lat="45.20922" lon="5.73303">
        <ele>517</ele>
        <time>2021-09-12T06:59:53.000Z</time>
      </trkpt>
      <trkpt lat="45.2092" lon="5.73303">
        <ele>516.59997558594</ele>
        <time>2021-09-12T06:59:54.000Z</time>
      </trkpt>
      <trkpt lat="45.20912" lon="5.73305">
        <ele>515.59997558594</ele>
        <time>2021-09-12T06:59:58.000Z</time>
      </trkpt>
      <trkpt lat="45.20905" lon="5.73308">
        <ele>514.40002441406</ele>
        <time>2021-09-12T07:00:01.000Z</time>
      </trkpt>
      <trkpt lat="45.20898" lon="5.7331">
        <ele>513</ele>
        <time>2021-09-12T07:00:04.000Z</time>
      </trkpt>
      <trkpt lat="45.20892" lon="5.73314">
        <ele>511.79998779297</ele>
        <time>2021-09-12T07:00:07.000Z</time>
      </trkpt>
      <trkpt lat="45.20889" lon="5.73316">
        <ele>511.39999389648</ele>
        <time>2021-09-12T07:00:09.000Z</time>
      </trkpt>
      <trkpt lat="45.20887" lon="5.73316">
        <ele>510.79998779297</ele>
        <time>2021-09-12T07:00:10.000Z</time>
      </trkpt>
      <trkpt lat="45.20885" lon="5.73316">
        <ele>510.20001220703</ele>
        <time>2021-09-12T07:00:11.000Z</time>
      </trkpt>
      <trkpt lat="45.20883" lon="5.73317">
        <ele>510</ele>
        <time>2021-09-12T07:00:12.000Z</time>
      </trkpt>
      <trkpt lat="45.20879" lon="5.73317">
        <ele>509.60000610352</ele>
        <time>2021-09-12T07:00:14.000Z</time>
      </trkpt>
      <trkpt lat="45.20873" lon="5.73315">
        <ele>508.79998779297</ele>
        <time>2021-09-12T07:00:17.000Z</time>
      </trkpt>
      <trkpt lat="45.20871" lon="5.73315">
        <ele>508.60000610352</ele>
        <time>2021-09-12T07:00:18.000Z</time>
      </trkpt>
      <trkpt lat="45.20868" lon="5.73315">
        <ele>507.79998779297</ele>
        <time>2021-09-12T07:00:20.000Z</time>
      </trkpt>
      <trkpt lat="45.20867" lon="5.73314">
        <ele>507</ele>
        <time>2021-09-12T07:00:21.000Z</time>
      </trkpt>
      <trkpt lat="45.20866" lon="5.73313">
        <ele>506.79998779297</ele>
        <time>2021-09-12T07:00:22.000Z</time>
      </trkpt>
      <trkpt lat="45.20863" lon="5.73311">
        <ele>505.79998779297</ele>
        <time>2021-09-12T07:00:24.000Z</time>
      </trkpt>
      <trkpt lat="45.20862" lon="5.73313">
        <ele>505.39999389648</ele>
        <time>2021-09-12T07:00:26.000Z</time>
      </trkpt>
      <trkpt lat="45.20862" lon="5.73317">
        <ele>504.39999389648</ele>
        <time>2021-09-12T07:00:28.000Z</time>
      </trkpt>
      <trkpt lat="45.20863" lon="5.73322">
        <ele>503.20001220703</ele>
        <time>2021-09-12T07:00:32.000Z</time>
      </trkpt>
      <trkpt lat="45.20864" lon="5.73327">
        <ele>501.60000610352</ele>
        <time>2021-09-12T07:00:36.000Z</time>
      </trkpt>
      <trkpt lat="45.20864" lon="5.73328">
        <ele>500.39999389648</ele>
        <time>2021-09-12T07:00:39.000Z</time>
      </trkpt>
      <trkpt lat="45.20866" lon="5.73328">
        <ele>499.20001220703</ele>
        <time>2021-09-12T07:00:42.000Z</time>
      </trkpt>
      <trkpt lat="45.20867" lon="5.73328">
        <ele>498</ele>
        <time>2021-09-12T07:00:44.000Z</time>
      </trkpt>
      <trkpt lat="45.20868" lon="5.73328">
        <ele>496.79998779297</ele>
        <time>2021-09-12T07:00:46.000Z</time>
      </trkpt>
      <trkpt lat="45.2087" lon="5.7333">
        <ele>495.79998779297</ele>
        <time>2021-09-12T07:00:49.000Z</time>
      </trkpt>
      <trkpt lat="45.20873" lon="5.73329">
        <ele>494.39999389648</ele>
        <time>2021-09-12T07:00:52.000Z</time>
      </trkpt>
      <trkpt lat="45.20874" lon="5.73328">
        <ele>494</ele>
        <time>2021-09-12T07:00:53.000Z</time>
      </trkpt>
      <trkpt lat="45.20875" lon="5.73329">
        <ele>493.39999389648</ele>
        <time>2021-09-12T07:00:54.000Z</time>
      </trkpt>
      <trkpt lat="45.20879" lon="5.73331">
        <ele>492.39999389648</ele>
        <time>2021-09-12T07:00:57.000Z</time>
      </trkpt>
      <trkpt lat="45.20879" lon="5.73332">
        <ele>491.60000610352</ele>
        <time>2021-09-12T07:00:58.000Z</time>
      </trkpt>
      <trkpt lat="45.2088" lon="5.73332">
        <ele>491</ele>
        <time>2021-09-12T07:00:59.000Z</time>
      </trkpt>
      <trkpt lat="45.20886" lon="5.73336">
        <ele>490</ele>
        <time>2021-09-12T07:01:03.000Z</time>
      </trkpt>
      <trkpt lat="45.20887" lon="5.73336">
        <ele>489.60000610352</ele>
        <time>2021-09-12T07:01:04.000Z</time>
      </trkpt>
      <trkpt lat="45.20888" lon="5.73337">
        <ele>489</ele>
        <time>2021-09-12T07:01:05.000Z</time>
      </trkpt>
      <trkpt lat="45.20889" lon="5.73338">
        <ele>488.60000610352</ele>
        <time>2021-09-12T07:01:06.000Z</time>
      </trkpt>
      <trkpt lat="45.20893" lon="5.73341">
        <ele>487.39999389648</ele>
        <time>2021-09-12T07:01:09.000Z</time>
      </trkpt>
      <trkpt lat="45.20895" lon="5.73343">
        <ele>486.20001220703</ele>
        <time>2021-09-12T07:01:11.000Z</time>
      </trkpt>
      <trkpt lat="45.20897" lon="5.73344">
        <ele>485</ele>
        <time>2021-09-12T07:01:13.000Z</time>
      </trkpt>
      <trkpt lat="45.209" lon="5.73343">
        <ele>483.79998779297</ele>
        <time>2021-09-12T07:01:16.000Z</time>
      </trkpt>
      <trkpt lat="45.20903" lon="5.73346">
        <ele>482.79998779297</ele>
        <time>2021-09-12T07:01:18.000Z</time>
      </trkpt>
      <trkpt lat="45.20905" lon="5.73348">
        <ele>482.20001220703</ele>
        <time>2021-09-12T07:01:19.000Z</time>
      </trkpt>
      <trkpt lat="45.20909" lon="5.73352">
        <ele>481.60000610352</ele>
        <time>2021-09-12T07:01:21.000Z</time>
      </trkpt>
      <trkpt lat="45.20909" lon="5.73352">
        <ele>481</ele>
        <time>2021-09-12T07:01:22.000Z</time>
      </trkpt>
      <trkpt lat="45.2091" lon="5.73354">
        <ele>480.39999389648</ele>
        <time>2021-09-12T07:01:23.000Z</time>
      </trkpt>
      <trkpt lat="45.20911" lon="5.73355">
        <ele>479.79998779297</ele>
        <time>2021-09-12T07:01:24.000Z</time>
      </trkpt>
      <trkpt lat="45.20912" lon="5.73357">
        <ele>479.39999389648</ele>
        <time>2021-09-12T07:01:25.000Z</time>
      </trkpt>
      <trkpt lat="45.20912" lon="5.73358">
        <ele>479</ele>
        <time>2021-09-12T07:01:26.000Z</time>
      </trkpt>
      <trkpt lat="45.20913" lon="5.73359">
        <ele>478.39999389648</ele>
        <time>2021-09-12T07:01:27.000Z</time>
      </trkpt>
      <trkpt lat="45.20916" lon="5.7336">
        <ele>477.60000610352</ele>
        <time>2021-09-12T07:01:29.000Z</time>
      </trkpt>
      <trkpt lat="45.20918" lon="5.73361">
        <ele>477.20001220703</ele>
        <time>2021-09-12T07:01:30.000Z</time>
      </trkpt>
      <trkpt lat="45.20921" lon="5.73367">
        <ele>475.79998779297</ele>
        <time>2021-09-12T07:01:33.000Z</time>
      </trkpt>
      <trkpt lat="45.20924" lon="5.7337">
        <ele>474.39999389648</ele>
        <time>2021-09-12T07:01:35.000Z</time>
      </trkpt>
      <trkpt lat="45.20925" lon="5.73374">
        <ele>473.79998779297</ele>
        <time>2021-09-12T07:01:37.000Z</time>
      </trkpt>
      <trkpt lat="45.20927" lon="5.73376">
        <ele>473.20001220703</ele>
        <time>2021-09-12T07:01:39.000Z</time>
      </trkpt>
      <trkpt lat="45.20931" lon="5.73377">
        <ele>471.60000610352</ele>
        <time>2021-09-12T07:01:41.000Z</time>
      </trkpt>
      <trkpt lat="45.20936" lon="5.73379">
        <ele>471</ele>
        <time>2021-09-12T07:01:43.000Z</time>
      </trkpt>
      <trkpt lat="45.20946" lon="5.73384">
        <ele>471.20001220703</ele>
        <time>2021-09-12T07:01:48.000Z</time>
      </trkpt>
      <trkpt lat="45.20949" lon="5.73386">
        <ele>471.39999389648</ele>
        <time>2021-09-12T07:01:50.000Z</time>
      </trkpt>
      <trkpt lat="45.20952" lon="5.73392">
        <ele>470.60000610352</ele>
        <time>2021-09-12T07:01:54.000Z</time>
      </trkpt>
      <trkpt lat="45.20953" lon="5.73393">
        <ele>470</ele>
        <time>2021-09-12T07:01:55.000Z</time>
      </trkpt>
      <trkpt lat="45.20953" lon="5.73393">
        <ele>469.60000610352</ele>
        <time>2021-09-12T07:01:56.000Z</time>
      </trkpt>
      <trkpt lat="45.20955" lon="5.73396">
        <ele>468.79998779297</ele>
        <time>2021-09-12T07:01:58.000Z</time>
      </trkpt>
      <trkpt lat="45.20956" lon="5.73398">
        <ele>468</ele>
        <time>2021-09-12T07:02:00.000Z</time>
      </trkpt>
      <trkpt lat="45.20956" lon="5.73399">
        <ele>467.60000610352</ele>
        <time>2021-09-12T07:02:01.000Z</time>
      </trkpt>
      <trkpt lat="45.20958" lon="5.73401">
        <ele>466.39999389648</ele>
        <time>2021-09-12T07:02:04.000Z</time>
      </trkpt>
      <trkpt lat="45.20959" lon="5.73403">
        <ele>466.20001220703</ele>
        <time>2021-09-12T07:02:05.000Z</time>
      </trkpt>
      <trkpt lat="45.20959" lon="5.73404">
        <ele>465.60000610352</ele>
        <time>2021-09-12T07:02:06.000Z</time>
      </trkpt>
      <trkpt lat="45.2096" lon="5.73405">
        <ele>465.20001220703</ele>
        <time>2021-09-12T07:02:07.000Z</time>
      </trkpt>
      <trkpt lat="45.20961" lon="5.73407">
        <ele>463.79998779297</ele>
        <time>2021-09-12T07:02:10.000Z</time>
      </trkpt>
      <trkpt lat="45.20961" lon="5.73408">
        <ele>463.20001220703</ele>
        <time>2021-09-12T07:02:11.000Z</time>
      </trkpt>
      <trkpt lat="45.20962" lon="5.7341">
        <ele>463</ele>
        <time>2021-09-12T07:02:12.000Z</time>
      </trkpt>
      <trkpt lat="45.20963" lon="5.73411">
        <ele>462.60000610352</ele>
        <time>2021-09-12T07:02:13.000Z</time>
      </trkpt>
      <trkpt lat="45.20965" lon="5.73415">
        <ele>461.39999389648</ele>
        <time>2021-09-12T07:02:16.000Z</time>
      </trkpt>
      <trkpt lat="45.20965" lon="5.73417">
        <ele>461</ele>
        <time>2021-09-12T07:02:17.000Z</time>
      </trkpt>
      <trkpt lat="45.20965" lon="5.73419">
        <ele>460.39999389648</ele>
        <time>2021-09-12T07:02:18.000Z</time>
      </trkpt>
      <trkpt lat="45.20966" lon="5.73423">
        <ele>459.20001220703</ele>
        <time>2021-09-12T07:02:21.000Z</time>
      </trkpt>
      <trkpt lat="45.20968" lon="5.73424">
        <ele>458</ele>
        <time>2021-09-12T07:02:23.000Z</time>
      </trkpt>
      <trkpt lat="45.20971" lon="5.73426">
        <ele>457.39999389648</ele>
        <time>2021-09-12T07:02:25.000Z</time>
      </trkpt>
      <trkpt lat="45.20972" lon="5.73428">
        <ele>456.60000610352</ele>
        <time>2021-09-12T07:02:26.000Z</time>
      </trkpt>
      <trkpt lat="45.20973" lon="5.73429">
        <ele>456.20001220703</ele>
        <time>2021-09-12T07:02:27.000Z</time>
      </trkpt>
      <trkpt lat="45.20974" lon="5.7343">
        <ele>455.60000610352</ele>
        <time>2021-09-12T07:02:28.000Z</time>
      </trkpt>
      <trkpt lat="45.20975" lon="5.7343">
        <ele>455.20001220703</ele>
        <time>2021-09-12T07:02:29.000Z</time>
      </trkpt>
      <trkpt lat="45.20978" lon="5.73432">
        <ele>454.60000610352</ele>
        <time>2021-09-12T07:02:31.000Z</time>
      </trkpt>
      <trkpt lat="45.20981" lon="5.73435">
        <ele>453.20001220703</ele>
        <time>2021-09-12T07:02:34.000Z</time>
      </trkpt>
      <trkpt lat="45.20982" lon="5.73436">
        <ele>452.79998779297</ele>
        <time>2021-09-12T07:02:35.000Z</time>
      </trkpt>
      <trkpt lat="45.20984" lon="5.73437">
        <ele>452.60000610352</ele>
        <time>2021-09-12T07:02:36.000Z</time>
      </trkpt>
      <trkpt lat="45.20985" lon="5.73438">
        <ele>451.79998779297</ele>
        <time>2021-09-12T07:02:37.000Z</time>
      </trkpt>
      <trkpt lat="45.20989" lon="5.73439">
        <ele>450.79998779297</ele>
        <time>2021-09-12T07:02:39.000Z</time>
      </trkpt>
      <trkpt lat="45.20991" lon="5.73441">
        <ele>450.39999389648</ele>
        <time>2021-09-12T07:02:40.000Z</time>
      </trkpt>
      <trkpt lat="45.20993" lon="5.73442">
        <ele>449.79998779297</ele>
        <time>2021-09-12T07:02:41.000Z</time>
      </trkpt>
      <trkpt lat="45.20994" lon="5.73441">
        <ele>449.20001220703</ele>
        <time>2021-09-12T07:02:42.000Z</time>
      </trkpt>
      <trkpt lat="45.20996" lon="5.73442">
        <ele>448.39999389648</ele>
        <time>2021-09-12T07:02:44.000Z</time>
      </trkpt>
      <trkpt lat="45.20996" lon="5.73444">
        <ele>448</ele>
        <time>2021-09-12T07:02:45.000Z</time>
      </trkpt>
      <trkpt lat="45.20997" lon="5.73445">
        <ele>447.60000610352</ele>
        <time>2021-09-12T07:02:46.000Z</time>
      </trkpt>
      <trkpt lat="45.20997" lon="5.73447">
        <ele>447</ele>
        <time>2021-09-12T07:02:47.000Z</time>
      </trkpt>
      <trkpt lat="45.21001" lon="5.73451">
        <ele>446.20001220703</ele>
        <time>2021-09-12T07:02:51.000Z</time>
      </trkpt>
      <trkpt lat="45.21002" lon="5.73452">
        <ele>445.60000610352</ele>
        <time>2021-09-12T07:02:52.000Z</time>
      </trkpt>
      <trkpt lat="45.21005" lon="5.73452">
        <ele>444.20001220703</ele>
        <time>2021-09-12T07:02:55.000Z</time>
      </trkpt>
      <trkpt lat="45.21007" lon="5.73453">
        <ele>443.39999389648</ele>
        <time>2021-09-12T07:02:57.000Z</time>
      </trkpt>
      <trkpt lat="45.21008" lon="5.73454">
        <ele>443</ele>
        <time>2021-09-12T07:02:58.000Z</time>
      </trkpt>
      <trkpt lat="45.21009" lon="5.73456">
        <ele>442.79998779297</ele>
        <time>2021-09-12T07:02:59.000Z</time>
      </trkpt>
      <trkpt lat="45.21009" lon="5.73457">
        <ele>441.79998779297</ele>
        <time>2021-09-12T07:03:01.000Z</time>
      </trkpt>
      <trkpt lat="45.21009" lon="5.73458">
        <ele>441</ele>
        <time>2021-09-12T07:03:03.000Z</time>
      </trkpt>
      <trkpt lat="45.21009" lon="5.73458">
        <ele>440.60000610352</ele>
        <time>2021-09-12T07:03:04.000Z</time>
      </trkpt>
      <trkpt lat="45.2101" lon="5.73462">
        <ele>439.20001220703</ele>
        <time>2021-09-12T07:03:07.000Z</time>
      </trkpt>
      <trkpt lat="45.21011" lon="5.73463">
        <ele>439</ele>
        <time>2021-09-12T07:03:08.000Z</time>
      </trkpt>
      <trkpt lat="45.21012" lon="5.73465">
        <ele>438.39999389648</ele>
        <time>2021-09-12T07:03:10.000Z</time>
      </trkpt>
      <trkpt lat="45.21012" lon="5.73466">
        <ele>438.20001220703</ele>
        <time>2021-09-12T07:03:11.000Z</time>
      </trkpt>
      <trkpt lat="45.21012" lon="5.73468">
        <ele>436.79998779297</ele>
        <time>2021-09-12T07:03:13.000Z</time>
      </trkpt>
      <trkpt lat="45.21015" lon="5.73472">
        <ele>435.60000610352</ele>
        <time>2021-09-12T07:03:16.000Z</time>
      </trkpt>
      <trkpt lat="45.21017" lon="5.7348">
        <ele>434.20001220703</ele>
        <time>2021-09-12T07:03:20.000Z</time>
      </trkpt>
      <trkpt lat="45.21017" lon="5.73481">
        <ele>433.20001220703</ele>
        <time>2021-09-12T07:03:22.000Z</time>
      </trkpt>
      <trkpt lat="45.21017" lon="5.73482">
        <ele>432.60000610352</ele>
        <time>2021-09-12T07:03:23.000Z</time>
      </trkpt>
      <trkpt lat="45.21017" lon="5.73483">
        <ele>432</ele>
        <time>2021-09-12T07:03:25.000Z</time>
      </trkpt>
      <trkpt lat="45.21017" lon="5.73487">
        <ele>430.79998779297</ele>
        <time>2021-09-12T07:03:28.000Z</time>
      </trkpt>
      <trkpt lat="45.21017" lon="5.73488">
        <ele>430.39999389648</ele>
        <time>2021-09-12T07:03:29.000Z</time>
      </trkpt>
      <trkpt lat="45.21017" lon="5.73491">
        <ele>429.60000610352</ele>
        <time>2021-09-12T07:03:31.000Z</time>
      </trkpt>
      <trkpt lat="45.21017" lon="5.73494">
        <ele>428.60000610352</ele>
        <time>2021-09-12T07:03:33.000Z</time>
      </trkpt>
      <trkpt lat="45.21018" lon="5.73495">
        <ele>428</ele>
        <time>2021-09-12T07:03:35.000Z</time>
      </trkpt>
      <trkpt lat="45.21019" lon="5.73496">
        <ele>427.60000610352</ele>
        <time>2021-09-12T07:03:36.000Z</time>
      </trkpt>
      <trkpt lat="45.21018" lon="5.73497">
        <ele>427.20001220703</ele>
        <time>2021-09-12T07:03:37.000Z</time>
      </trkpt>
      <trkpt lat="45.21018" lon="5.73499">
        <ele>426.60000610352</ele>
        <time>2021-09-12T07:03:38.000Z</time>
      </trkpt>
      <trkpt lat="45.21018" lon="5.73501">
        <ele>426.20001220703</ele>
        <time>2021-09-12T07:03:39.000Z</time>
      </trkpt>
      <trkpt lat="45.21017" lon="5.73504">
        <ele>425.39999389648</ele>
        <time>2021-09-12T07:03:41.000Z</time>
      </trkpt>
      <trkpt lat="45.21018" lon="5.73508">
        <ele>423.60000610352</ele>
        <time>2021-09-12T07:03:45.000Z</time>
      </trkpt>
      <trkpt lat="45.21018" lon="5.73512">
        <ele>422.79998779297</ele>
        <time>2021-09-12T07:03:47.000Z</time>
      </trkpt>
      <trkpt lat="45.21018" lon="5.73514">
        <ele>422.39999389648</ele>
        <time>2021-09-12T07:03:48.000Z</time>
      </trkpt>
      <trkpt lat="45.2102" lon="5.73518">
        <ele>421.20001220703</ele>
        <time>2021-09-12T07:03:51.000Z</time>
      </trkpt>
      <trkpt lat="45.21019" lon="5.73521">
        <ele>420</ele>
        <time>2021-09-12T07:03:53.000Z</time>
      </trkpt>
      <trkpt lat="45.21015" lon="5.73525">
        <ele>418.39999389648</ele>
        <time>2021-09-12T07:03:57.000Z</time>
      </trkpt>
      <trkpt lat="45.21013" lon="5.73528">
        <ele>417.60000610352</ele>
        <time>2021-09-12T07:03:59.000Z</time>
      </trkpt>
      <trkpt lat="45.21013" lon="5.73529">
        <ele>417.39999389648</ele>
        <time>2021-09-12T07:04:00.000Z</time>
      </trkpt>
      <trkpt lat="45.21012" lon="5.73533">
        <ele>416.20001220703</ele>
        <time>2021-09-12T07:04:02.000Z</time>
      </trkpt>
      <trkpt lat="45.21009" lon="5.73537">
        <ele>414.79998779297</ele>
        <time>2021-09-12T07:04:05.000Z</time>
      </trkpt>
      <trkpt lat="45.21007" lon="5.73541">
        <ele>413.39999389648</ele>
        <time>2021-09-12T07:04:09.000Z</time>
      </trkpt>
      <trkpt lat="45.21008" lon="5.73545">
        <ele>412.20001220703</ele>
        <time>2021-09-12T07:04:12.000Z</time>
      </trkpt>
      <trkpt lat="45.21006" lon="5.73552">
        <ele>411</ele>
        <time>2021-09-12T07:04:15.000Z</time>
      </trkpt>
      <trkpt lat="45.21005" lon="5.73555">
        <ele>409.79998779297</ele>
        <time>2021-09-12T07:04:18.000Z</time>
      </trkpt>
      <trkpt lat="45.21005" lon="5.73557">
        <ele>409.39999389648</ele>
        <time>2021-09-12T07:04:19.000Z</time>
      </trkpt>
      <trkpt lat="45.21006" lon="5.73559">
        <ele>408.60000610352</ele>
        <time>2021-09-12T07:04:21.000Z</time>
      </trkpt>
      <trkpt lat="45.21004" lon="5.73563">
        <ele>407.39999389648</ele>
        <time>2021-09-12T07:04:24.000Z</time>
      </trkpt>
      <trkpt lat="45.21002" lon="5.73567">
        <ele>406</ele>
        <time>2021-09-12T07:04:27.000Z</time>
      </trkpt>
      <trkpt lat="45.21002" lon="5.7357">
        <ele>404.60000610352</ele>
        <time>2021-09-12T07:04:30.000Z</time>
      </trkpt>
      <trkpt lat="45.21001" lon="5.73573">
        <ele>403.39999389648</ele>
        <time>2021-09-12T07:04:34.000Z</time>
      </trkpt>
      <trkpt lat="45.20999" lon="5.73575">
        <ele>402.79998779297</ele>
        <time>2021-09-12T07:04:36.000Z</time>
      </trkpt>
      <trkpt lat="45.21" lon="5.73577">
        <ele>402.20001220703</ele>
        <time>2021-09-12T07:04:37.000Z</time>
      </trkpt>
      <trkpt lat="45.20999" lon="5.73579">
        <ele>401.60000610352</ele>
        <time>2021-09-12T07:04:38.000Z</time>
      </trkpt>
      <trkpt lat="45.20998" lon="5.73583">
        <ele>400.79998779297</ele>
        <time>2021-09-12T07:04:40.000Z</time>
      </trkpt>
      <trkpt lat="45.20997" lon="5.73586">
        <ele>399.79998779297</ele>
        <time>2021-09-12T07:04:42.000Z</time>
      </trkpt>
      <trkpt lat="45.20998" lon="5.73587">
        <ele>399.39999389648</ele>
        <time>2021-09-12T07:04:43.000Z</time>
      </trkpt>
      <trkpt lat="45.20998" lon="5.73588">
        <ele>399</ele>
        <time>2021-09-12T07:04:44.000Z</time>
      </trkpt>
      <trkpt lat="45.20997" lon="5.73591">
        <ele>398.20001220703</ele>
        <time>2021-09-12T07:04:46.000Z</time>
      </trkpt>
      <trkpt lat="45.20996" lon="5.73595">
        <ele>397.39999389648</ele>
        <time>2021-09-12T07:04:48.000Z</time>
      </trkpt>
      <trkpt lat="45.20996" lon="5.73596">
        <ele>397</ele>
        <time>2021-09-12T07:04:49.000Z</time>
      </trkpt>
      <trkpt lat="45.20995" lon="5.73598">
        <ele>396.39999389648</ele>
        <time>2021-09-12T07:04:50.000Z</time>
      </trkpt>
      <trkpt lat="45.20995" lon="5.73599">
        <ele>396</ele>
        <time>2021-09-12T07:04:51.000Z</time>
      </trkpt>
      <trkpt lat="45.20996" lon="5.736">
        <ele>395.60000610352</ele>
        <time>2021-09-12T07:04:52.000Z</time>
      </trkpt>
      <trkpt lat="45.20996" lon="5.73603">
        <ele>394.79998779297</ele>
        <time>2021-09-12T07:04:54.000Z</time>
      </trkpt>
      <trkpt lat="45.20994" lon="5.73605">
        <ele>393.39999389648</ele>
        <time>2021-09-12T07:04:56.000Z</time>
      </trkpt>
      <trkpt lat="45.20993" lon="5.73608">
        <ele>392.20001220703</ele>
        <time>2021-09-12T07:04:58.000Z</time>
      </trkpt>
      <trkpt lat="45.20993" lon="5.73615">
        <ele>391.39999389648</ele>
        <time>2021-09-12T07:05:00.000Z</time>
      </trkpt>
      <trkpt lat="45.20993" lon="5.73618">
        <ele>391</ele>
        <time>2021-09-12T07:05:01.000Z</time>
      </trkpt>
      <trkpt lat="45.20993" lon="5.73621">
        <ele>389.79998779297</ele>
        <time>2021-09-12T07:05:03.000Z</time>
      </trkpt>
      <trkpt lat="45.20992" lon="5.73627">
        <ele>388.79998779297</ele>
        <time>2021-09-12T07:05:05.000Z</time>
      </trkpt>
      <trkpt lat="45.20991" lon="5.73632">
        <ele>388.20001220703</ele>
        <time>2021-09-12T07:05:07.000Z</time>
      </trkpt>
      <trkpt lat="45.20992" lon="5.73633">
        <ele>387.60000610352</ele>
        <time>2021-09-12T07:05:08.000Z</time>
      </trkpt>
      <trkpt lat="45.20992" lon="5.73635">
        <ele>387</ele>
        <time>2021-09-12T07:05:10.000Z</time>
      </trkpt>
      <trkpt lat="45.20991" lon="5.73639">
        <ele>386</ele>
        <time>2021-09-12T07:05:12.000Z</time>
      </trkpt>
      <trkpt lat="45.20989" lon="5.73644">
        <ele>384.60000610352</ele>
        <time>2021-09-12T07:05:15.000Z</time>
      </trkpt>
      <trkpt lat="45.20988" lon="5.73649">
        <ele>383.39999389648</ele>
        <time>2021-09-12T07:05:18.000Z</time>
      </trkpt>
      <trkpt lat="45.20986" lon="5.73654">
        <ele>382.39999389648</ele>
        <time>2021-09-12T07:05:21.000Z</time>
      </trkpt>
      <trkpt lat="45.20986" lon="5.73656">
        <ele>381.79998779297</ele>
        <time>2021-09-12T07:05:22.000Z</time>
      </trkpt>
      <trkpt lat="45.20984" lon="5.73662">
        <ele>380.20001220703</ele>
        <time>2021-09-12T07:05:25.000Z</time>
      </trkpt>
      <trkpt lat="45.20981" lon="5.73668">
        <ele>378.60000610352</ele>
        <time>2021-09-12T07:05:28.000Z</time>
      </trkpt>
      <trkpt lat="45.20978" lon="5.73671">
        <ele>377.20001220703</ele>
        <time>2021-09-12T07:05:30.000Z</time>
      </trkpt>
      <trkpt lat="45.20975" lon="5.73674">
        <ele>376.60000610352</ele>
        <time>2021-09-12T07:05:31.000Z</time>
      </trkpt>
      <trkpt lat="45.20972" lon="5.73679">
        <ele>376</ele>
        <time>2021-09-12T07:05:33.000Z</time>
      </trkpt>
      <trkpt lat="45.20969" lon="5.73684">
        <ele>374.39999389648</ele>
        <time>2021-09-12T07:05:36.000Z</time>
      </trkpt>
      <trkpt lat="45.20968" lon="5.73687">
        <ele>373.79998779297</ele>
        <time>2021-09-12T07:05:38.000Z</time>
      </trkpt>
      <trkpt lat="45.20967" lon="5.73688">
        <ele>373.20001220703</ele>
        <time>2021-09-12T07:05:39.000Z</time>
      </trkpt>
      <trkpt lat="45.20966" lon="5.7369">
        <ele>372.20001220703</ele>
        <time>2021-09-12T07:05:42.000Z</time>
      </trkpt>
      <trkpt lat="45.20965" lon="5.73691">
        <ele>371.20001220703</ele>
        <time>2021-09-12T07:05:44.000Z</time>
      </trkpt>
      <trkpt lat="45.20964" lon="5.73692">
        <ele>370.60000610352</ele>
        <time>2021-09-12T07:05:45.000Z</time>
      </trkpt>
      <trkpt lat="45.20962" lon="5.73694">
        <ele>369.79998779297</ele>
        <time>2021-09-12T07:05:47.000Z</time>
      </trkpt>
      <trkpt lat="45.2096" lon="5.73695">
        <ele>369.39999389648</ele>
        <time>2021-09-12T07:05:48.000Z</time>
      </trkpt>
      <trkpt lat="45.20959" lon="5.73696">
        <ele>368.79998779297</ele>
        <time>2021-09-12T07:05:49.000Z</time>
      </trkpt>
      <trkpt lat="45.20957" lon="5.73698">
        <ele>368</ele>
        <time>2021-09-12T07:05:50.000Z</time>
      </trkpt>
      <trkpt lat="45.20955" lon="5.73698">
        <ele>367.39999389648</ele>
        <time>2021-09-12T07:05:51.000Z</time>
      </trkpt>
      <trkpt lat="45.20954" lon="5.73699">
        <ele>366.79998779297</ele>
        <time>2021-09-12T07:05:52.000Z</time>
      </trkpt>
      <trkpt lat="45.2095" lon="5.73703">
        <ele>366</ele>
        <time>2021-09-12T07:05:54.000Z</time>
      </trkpt>
      <trkpt lat="45.20945" lon="5.73705">
        <ele>365.20001220703</ele>
        <time>2021-09-12T07:05:57.000Z</time>
      </trkpt>
      <trkpt lat="45.20944" lon="5.73707">
        <ele>364.79998779297</ele>
        <time>2021-09-12T07:05:58.000Z</time>
      </trkpt>
      <trkpt lat="45.2094" lon="5.73708">
        <ele>363.60000610352</ele>
        <time>2021-09-12T07:06:00.000Z</time>
      </trkpt>
      <trkpt lat="45.20938" lon="5.73708">
        <ele>363</ele>
        <time>2021-09-12T07:06:01.000Z</time>
      </trkpt>
      <trkpt lat="45.20936" lon="5.73709">
        <ele>362.39999389648</ele>
        <time>2021-09-12T07:06:02.000Z</time>
      </trkpt>
      <trkpt lat="45.20934" lon="5.7371">
        <ele>362</ele>
        <time>2021-09-12T07:06:03.000Z</time>
      </trkpt>
      <trkpt lat="45.20933" lon="5.7371">
        <ele>361.79998779297</ele>
        <time>2021-09-12T07:06:04.000Z</time>
      </trkpt>
      <trkpt lat="45.20931" lon="5.73709">
        <ele>361.39999389648</ele>
        <time>2021-09-12T07:06:05.000Z</time>
      </trkpt>
      <trkpt lat="45.20927" lon="5.7371">
        <ele>359.79998779297</ele>
        <time>2021-09-12T07:06:08.000Z</time>
      </trkpt>
      <trkpt lat="45.20926" lon="5.7371">
        <ele>359.20001220703</ele>
        <time>2021-09-12T07:06:09.000Z</time>
      </trkpt>
      <trkpt lat="45.20922" lon="5.73712">
        <ele>358.39999389648</ele>
        <time>2021-09-12T07:06:11.000Z</time>
      </trkpt>
      <trkpt lat="45.20919" lon="5.73712">
        <ele>357.20001220703</ele>
        <time>2021-09-12T07:06:13.000Z</time>
      </trkpt>
      <trkpt lat="45.20917" lon="5.73712">
        <ele>356.20001220703</ele>
        <time>2021-09-12T07:06:15.000Z</time>
      </trkpt>
      <trkpt lat="45.20913" lon="5.73713">
        <ele>354.79998779297</ele>
        <time>2021-09-12T07:06:18.000Z</time>
      </trkpt>
      <trkpt lat="45.2091" lon="5.73713">
        <ele>353.79998779297</ele>
        <time>2021-09-12T07:06:20.000Z</time>
      </trkpt>
      <trkpt lat="45.20908" lon="5.73714">
        <ele>353.20001220703</ele>
        <time>2021-09-12T07:06:21.000Z</time>
      </trkpt>
      <trkpt lat="45.20907" lon="5.73715">
        <ele>352.60000610352</ele>
        <time>2021-09-12T07:06:22.000Z</time>
      </trkpt>
      <trkpt lat="45.20904" lon="5.73717">
        <ele>351.39999389648</ele>
        <time>2021-09-12T07:06:24.000Z</time>
      </trkpt>
      <trkpt lat="45.20899" lon="5.73719">
        <ele>350.39999389648</ele>
        <time>2021-09-12T07:06:27.000Z</time>
      </trkpt>
      <trkpt lat="45.20897" lon="5.7372">
        <ele>349</ele>
        <time>2021-09-12T07:06:29.000Z</time>
      </trkpt>
      <trkpt lat="45.20893" lon="5.73722">
        <ele>347.60000610352</ele>
        <time>2021-09-12T07:06:32.000Z</time>
      </trkpt>
      <trkpt lat="45.2089" lon="5.73725">
        <ele>346.39999389648</ele>
        <time>2021-09-12T07:06:35.000Z</time>
      </trkpt>
      <trkpt lat="45.20888" lon="5.73728">
        <ele>345.39999389648</ele>
        <time>2021-09-12T07:06:37.000Z</time>
      </trkpt>
      <trkpt lat="45.20886" lon="5.73729">
        <ele>344.20001220703</ele>
        <time>2021-09-12T07:06:39.000Z</time>
      </trkpt>
      <trkpt lat="45.20884" lon="5.7373">
        <ele>343.60000610352</ele>
        <time>2021-09-12T07:06:40.000Z</time>
      </trkpt>
      <trkpt lat="45.20883" lon="5.73731">
        <ele>343.20001220703</ele>
        <time>2021-09-12T07:06:41.000Z</time>
      </trkpt>
      <trkpt lat="45.20882" lon="5.73732">
        <ele>342.79998779297</ele>
        <time>2021-09-12T07:06:42.000Z</time>
      </trkpt>
      <trkpt lat="45.20877" lon="5.73734">
        <ele>342</ele>
        <time>2021-09-12T07:06:45.000Z</time>
      </trkpt>
      <trkpt lat="45.20875" lon="5.73734">
        <ele>341.60000610352</ele>
        <time>2021-09-12T07:06:46.000Z</time>
      </trkpt>
      <trkpt lat="45.20871" lon="5.73732">
        <ele>340.60000610352</ele>
        <time>2021-09-12T07:06:48.000Z</time>
      </trkpt>
      <trkpt lat="45.20864" lon="5.7373">
        <ele>339.60000610352</ele>
        <time>2021-09-12T07:06:51.000Z</time>
      </trkpt>
      <trkpt lat="45.2086" lon="5.73728">
        <ele>338.20001220703</ele>
        <time>2021-09-12T07:06:53.000Z</time>
      </trkpt>
      <trkpt lat="45.20855" lon="5.73723">
        <ele>336.79998779297</ele>
        <time>2021-09-12T07:06:56.000Z</time>
      </trkpt>
      <trkpt lat="45.20854" lon="5.73723">
        <ele>336.20001220703</ele>
        <time>2021-09-12T07:06:57.000Z</time>
      </trkpt>
      <trkpt lat="45.20851" lon="5.73724">
        <ele>335.60000610352</ele>
        <time>2021-09-12T07:06:58.000Z</time>
      </trkpt>
      <trkpt lat="45.20847" lon="5.7373">
        <ele>334.60000610352</ele>
        <time>2021-09-12T07:07:01.000Z</time>
      </trkpt>
      <trkpt lat="45.20847" lon="5.73731">
        <ele>334.39999389648</ele>
        <time>2021-09-12T07:07:02.000Z</time>
      </trkpt>
      <trkpt lat="45.20847" lon="5.73732">
        <ele>334.20001220703</ele>
        <time>2021-09-12T07:07:03.000Z</time>
      </trkpt>
      <trkpt lat="45.20846" lon="5.73735">
        <ele>333.79998779297</ele>
        <time>2021-09-12T07:07:05.000Z</time>
      </trkpt>
      <trkpt lat="45.20846" lon="5.73736">
        <ele>333.60000610352</ele>
        <time>2021-09-12T07:07:06.000Z</time>
      </trkpt>
      <trkpt lat="45.20844" lon="5.73735">
        <ele>332</ele>
        <time>2021-09-12T07:07:08.000Z</time>
      </trkpt>
      <trkpt lat="45.2084" lon="5.73732">
        <ele>331</ele>
        <time>2021-09-12T07:07:10.000Z</time>
      </trkpt>
      <trkpt lat="45.20839" lon="5.73732">
        <ele>330.60000610352</ele>
        <time>2021-09-12T07:07:11.000Z</time>
      </trkpt>
      <trkpt lat="45.20838" lon="5.73732">
        <ele>330.39999389648</ele>
        <time>2021-09-12T07:07:12.000Z</time>
      </trkpt>
      <trkpt lat="45.20837" lon="5.73734">
        <ele>329.79998779297</ele>
        <time>2021-09-12T07:07:13.000Z</time>
      </trkpt>
      <trkpt lat="45.20837" lon="5.73736">
        <ele>329.60000610352</ele>
        <time>2021-09-12T07:07:14.000Z</time>
      </trkpt>
      <trkpt lat="45.20836" lon="5.7374">
        <ele>328.60000610352</ele>
        <time>2021-09-12T07:07:16.000Z</time>
      </trkpt>
      <trkpt lat="45.20835" lon="5.73741">
        <ele>328.20001220703</ele>
        <time>2021-09-12T07:07:17.000Z</time>
      </trkpt>
      <trkpt lat="45.20833" lon="5.73741">
        <ele>327.60000610352</ele>
        <time>2021-09-12T07:07:18.000Z</time>
      </trkpt>
      <trkpt lat="45.20831" lon="5.73741">
        <ele>327</ele>
        <time>2021-09-12T07:07:19.000Z</time>
      </trkpt>
      <trkpt lat="45.20828" lon="5.7374">
        <ele>326</ele>
        <time>2021-09-12T07:07:21.000Z</time>
      </trkpt>
      <trkpt lat="45.20824" lon="5.73739">
        <ele>324.79998779297</ele>
        <time>2021-09-12T07:07:23.000Z</time>
      </trkpt>
      <trkpt lat="45.20821" lon="5.73739">
        <ele>324.20001220703</ele>
        <time>2021-09-12T07:07:24.000Z</time>
      </trkpt>
      <trkpt lat="45.20817" lon="5.73738">
        <ele>323.39999389648</ele>
        <time>2021-09-12T07:07:26.000Z</time>
      </trkpt>
      <trkpt lat="45.20813" lon="5.7373">
        <ele>322.60000610352</ele>
        <time>2021-09-12T07:07:29.000Z</time>
      </trkpt>
      <trkpt lat="45.20813" lon="5.73727">
        <ele>322.39999389648</ele>
        <time>2021-09-12T07:07:30.000Z</time>
      </trkpt>
      <trkpt lat="45.2081" lon="5.73721">
        <ele>321.20001220703</ele>
        <time>2021-09-12T07:07:33.000Z</time>
      </trkpt>
      <trkpt lat="45.20809" lon="5.73721">
        <ele>320.79998779297</ele>
        <time>2021-09-12T07:07:34.000Z</time>
      </trkpt>
      <trkpt lat="45.20806" lon="5.73723">
        <ele>320</ele>
        <time>2021-09-12T07:07:36.000Z</time>
      </trkpt>
      <trkpt lat="45.20802" lon="5.73725">
        <ele>318.60000610352</ele>
        <time>2021-09-12T07:07:39.000Z</time>
      </trkpt>
      <trkpt lat="45.20801" lon="5.73725">
        <ele>318.20001220703</ele>
        <time>2021-09-12T07:07:40.000Z</time>
      </trkpt>
      <trkpt lat="45.20797" lon="5.73726">
        <ele>316.79998779297</ele>
        <time>2021-09-12T07:07:43.000Z</time>
      </trkpt>
      <trkpt lat="45.20792" lon="5.73729">
        <ele>315.60000610352</ele>
        <time>2021-09-12T07:07:46.000Z</time>
      </trkpt>
      <trkpt lat="45.20792" lon="5.7373">
        <ele>315.20001220703</ele>
        <time>2021-09-12T07:07:47.000Z</time>
      </trkpt>
      <trkpt lat="45.2079" lon="5.7373">
        <ele>314.60000610352</ele>
        <time>2021-09-12T07:07:48.000Z</time>
      </trkpt>
      <trkpt lat="45.20787" lon="5.73732">
        <ele>313.39999389648</ele>
        <time>2021-09-12T07:07:51.000Z</time>
      </trkpt>
      <trkpt lat="45.20786" lon="5.73732">
        <ele>313</ele>
        <time>2021-09-12T07:07:52.000Z</time>
      </trkpt>
      <trkpt lat="45.20785" lon="5.73732">
        <ele>312.60000610352</ele>
        <time>2021-09-12T07:07:53.000Z</time>
      </trkpt>
      <trkpt lat="45.20784" lon="5.73732">
        <ele>312.20001220703</ele>
        <time>2021-09-12T07:07:54.000Z</time>
      </trkpt>
      <trkpt lat="45.2078" lon="5.73734">
        <ele>311.39999389648</ele>
        <time>2021-09-12T07:07:57.000Z</time>
      </trkpt>
      <trkpt lat="45.20779" lon="5.73734">
        <ele>311</ele>
        <time>2021-09-12T07:07:58.000Z</time>
      </trkpt>
      <trkpt lat="45.20776" lon="5.73737">
        <ele>310.39999389648</ele>
        <time>2021-09-12T07:08:01.000Z</time>
      </trkpt>
      <trkpt lat="45.20774" lon="5.73738">
        <ele>310</ele>
        <time>2021-09-12T07:08:02.000Z</time>
      </trkpt>
      <trkpt lat="45.20773" lon="5.73739">
        <ele>309.39999389648</ele>
        <time>2021-09-12T07:08:03.000Z</time>
      </trkpt>
      <trkpt lat="45.20773" lon="5.73739">
        <ele>308.79998779297</ele>
        <time>2021-09-12T07:08:04.000Z</time>
      </trkpt>
      <trkpt lat="45.2077" lon="5.73741">
        <ele>307.79998779297</ele>
        <time>2021-09-12T07:08:06.000Z</time>
      </trkpt>
      <trkpt lat="45.20768" lon="5.73743">
        <ele>307.20001220703</ele>
        <time>2021-09-12T07:08:07.000Z</time>
      </trkpt>
      <trkpt lat="45.20762" lon="5.73747">
        <ele>306</ele>
        <time>2021-09-12T07:08:10.000Z</time>
      </trkpt>
      <trkpt lat="45.2076" lon="5.73748">
        <ele>305.60000610352</ele>
        <time>2021-09-12T07:08:11.000Z</time>
      </trkpt>
      <trkpt lat="45.20757" lon="5.73749">
        <ele>304.20001220703</ele>
        <time>2021-09-12T07:08:13.000Z</time>
      </trkpt>
      <trkpt lat="45.20754" lon="5.73751">
        <ele>303</ele>
        <time>2021-09-12T07:08:15.000Z</time>
      </trkpt>
      <trkpt lat="45.20752" lon="5.73753">
        <ele>301.79998779297</ele>
        <time>2021-09-12T07:08:17.000Z</time>
      </trkpt>
      <trkpt lat="45.20748" lon="5.7376">
        <ele>300.39999389648</ele>
        <time>2021-09-12T07:08:20.000Z</time>
      </trkpt>
      <trkpt lat="45.20745" lon="5.73764">
        <ele>299</ele>
        <time>2021-09-12T07:08:22.000Z</time>
      </trkpt>
      <trkpt lat="45.20744" lon="5.73765">
        <ele>298.39999389648</ele>
        <time>2021-09-12T07:08:23.000Z</time>
      </trkpt>
      <trkpt lat="45.20742" lon="5.73767">
        <ele>297.79998779297</ele>
        <time>2021-09-12T07:08:24.000Z</time>
      </trkpt>
      <trkpt lat="45.20739" lon="5.73771">
        <ele>296.79998779297</ele>
        <time>2021-09-12T07:08:26.000Z</time>
      </trkpt>
      <trkpt lat="45.20735" lon="5.73774">
        <ele>295.39999389648</ele>
        <time>2021-09-12T07:08:29.000Z</time>
      </trkpt>
      <trkpt lat="45.20733" lon="5.73775">
        <ele>295</ele>
        <time>2021-09-12T07:08:30.000Z</time>
      </trkpt>
      <trkpt lat="45.20731" lon="5.73777">
        <ele>294</ele>
        <time>2021-09-12T07:08:31.000Z</time>
      </trkpt>
      <trkpt lat="45.20728" lon="5.73779">
        <ele>293</ele>
        <time>2021-09-12T07:08:33.000Z</time>
      </trkpt>
      <trkpt lat="45.20723" lon="5.73785">
        <ele>291.60000610352</ele>
        <time>2021-09-12T07:08:37.000Z</time>
      </trkpt>
      <trkpt lat="45.20722" lon="5.73787">
        <ele>290.60000610352</ele>
        <time>2021-09-12T07:08:38.000Z</time>
      </trkpt>
      <trkpt lat="45.20721" lon="5.73788">
        <ele>290.20001220703</ele>
        <time>2021-09-12T07:08:39.000Z</time>
      </trkpt>
      <trkpt lat="45.20719" lon="5.73791">
        <ele>288.79998779297</ele>
        <time>2021-09-12T07:08:41.000Z</time>
      </trkpt>
      <trkpt lat="45.20714" lon="5.73796">
        <ele>287.79998779297</ele>
        <time>2021-09-12T07:08:44.000Z</time>
      </trkpt>
      <trkpt lat="45.20711" lon="5.73799">
        <ele>286.79998779297</ele>
        <time>2021-09-12T07:08:46.000Z</time>
      </trkpt>
      <trkpt lat="45.20708" lon="5.738">
        <ele>286.39999389648</ele>
        <time>2021-09-12T07:08:47.000Z</time>
      </trkpt>
      <trkpt lat="45.20703" lon="5.73804">
        <ele>285.20001220703</ele>
        <time>2021-09-12T07:08:49.000Z</time>
      </trkpt>
      <trkpt lat="45.20696" lon="5.7381">
        <ele>284.20001220703</ele>
        <time>2021-09-12T07:08:52.000Z</time>
      </trkpt>
      <trkpt lat="45.20693" lon="5.73813">
        <ele>283</ele>
        <time>2021-09-12T07:08:54.000Z</time>
      </trkpt>
      <trkpt lat="45.20689" lon="5.73817">
        <ele>282</ele>
        <time>2021-09-12T07:08:56.000Z</time>
      </trkpt>
      <trkpt lat="45.20684" lon="5.7382">
        <ele>280.60000610352</ele>
        <time>2021-09-12T07:08:58.000Z</time>
      </trkpt>
      <trkpt lat="45.20681" lon="5.73822">
        <ele>279.79998779297</ele>
        <time>2021-09-12T07:09:00.000Z</time>
      </trkpt>
      <trkpt lat="45.20678" lon="5.73823">
        <ele>279</ele>
        <time>2021-09-12T07:09:02.000Z</time>
      </trkpt>
      <trkpt lat="45.20671" lon="5.73826">
        <ele>277.79998779297</ele>
        <time>2021-09-12T07:09:05.000Z</time>
      </trkpt>
      <trkpt lat="45.20667" lon="5.73827">
        <ele>277.20001220703</ele>
        <time>2021-09-12T07:09:07.000Z</time>
      </trkpt>
      <trkpt lat="45.20665" lon="5.73829">
        <ele>276.60000610352</ele>
        <time>2021-09-12T07:09:08.000Z</time>
      </trkpt>
      <trkpt lat="45.20659" lon="5.73833">
        <ele>275.39999389648</ele>
        <time>2021-09-12T07:09:11.000Z</time>
      </trkpt>
      <trkpt lat="45.20654" lon="5.73835">
        <ele>274</ele>
        <time>2021-09-12T07:09:13.000Z</time>
      </trkpt>
      <trkpt lat="45.2065" lon="5.73838">
        <ele>272.79998779297</ele>
        <time>2021-09-12T07:09:15.000Z</time>
      </trkpt>
      <trkpt lat="45.20645" lon="5.73841">
        <ele>271.79998779297</ele>
        <time>2021-09-12T07:09:17.000Z</time>
      </trkpt>
      <trkpt lat="45.20641" lon="5.73843">
        <ele>270.79998779297</ele>
        <time>2021-09-12T07:09:19.000Z</time>
      </trkpt>
      <trkpt lat="45.20638" lon="5.73844">
        <ele>270.39999389648</ele>
        <time>2021-09-12T07:09:20.000Z</time>
      </trkpt>
      <trkpt lat="45.20634" lon="5.73846">
        <ele>269</ele>
        <time>2021-09-12T07:09:22.000Z</time>
      </trkpt>
      <trkpt lat="45.20627" lon="5.7385">
        <ele>267.79998779297</ele>
        <time>2021-09-12T07:09:25.000Z</time>
      </trkpt>
      <trkpt lat="45.20622" lon="5.73852">
        <ele>266.60000610352</ele>
        <time>2021-09-12T07:09:27.000Z</time>
      </trkpt>
      <trkpt lat="45.20615" lon="5.73854">
        <ele>265.20001220703</ele>
        <time>2021-09-12T07:09:30.000Z</time>
      </trkpt>
      <trkpt lat="45.2061" lon="5.73857">
        <ele>264</ele>
        <time>2021-09-12T07:09:32.000Z</time>
      </trkpt>
      <trkpt lat="45.20606" lon="5.73859">
        <ele>263</ele>
        <time>2021-09-12T07:09:34.000Z</time>
      </trkpt>
      <trkpt lat="45.20604" lon="5.7386">
        <ele>262.60000610352</ele>
        <time>2021-09-12T07:09:35.000Z</time>
      </trkpt>
      <trkpt lat="45.20601" lon="5.73861">
        <ele>261.60000610352</ele>
        <time>2021-09-12T07:09:37.000Z</time>
      </trkpt>
      <trkpt lat="45.20595" lon="5.73862">
        <ele>260.60000610352</ele>
        <time>2021-09-12T07:09:40.000Z</time>
      </trkpt>
      <trkpt lat="45.20591" lon="5.73864">
        <ele>259.20001220703</ele>
        <time>2021-09-12T07:09:42.000Z</time>
      </trkpt>
      <trkpt lat="45.20587" lon="5.73866">
        <ele>258.20001220703</ele>
        <time>2021-09-12T07:09:44.000Z</time>
      </trkpt>
      <trkpt lat="45.20579" lon="5.7387">
        <ele>256.60000610352</ele>
        <time>2021-09-12T07:09:47.000Z</time>
      </trkpt>
      <trkpt lat="45.20575" lon="5.73872">
        <ele>255.39999389648</ele>
        <time>2021-09-12T07:09:49.000Z</time>
      </trkpt>
      <trkpt lat="45.20566" lon="5.73876">
        <ele>254</ele>
        <time>2021-09-12T07:09:53.000Z</time>
      </trkpt>
      <trkpt lat="45.20559" lon="5.73876">
        <ele>252.60000610352</ele>
        <time>2021-09-12T07:09:56.000Z</time>
      </trkpt>
      <trkpt lat="45.20557" lon="5.73875">
        <ele>252.19999694824</ele>
        <time>2021-09-12T07:09:57.000Z</time>
      </trkpt>
      <trkpt lat="45.20552" lon="5.73872">
        <ele>251.19999694824</ele>
        <time>2021-09-12T07:09:59.000Z</time>
      </trkpt>
      <trkpt lat="45.2055" lon="5.7387">
        <ele>250.39999389648</ele>
        <time>2021-09-12T07:10:00.000Z</time>
      </trkpt>
      <trkpt lat="45.20548" lon="5.73867">
        <ele>250</ele>
        <time>2021-09-12T07:10:01.000Z</time>
      </trkpt>
      <trkpt lat="45.20546" lon="5.73865">
        <ele>249.60000610352</ele>
        <time>2021-09-12T07:10:02.000Z</time>
      </trkpt>
      <trkpt lat="45.20543" lon="5.7386">
        <ele>248.80000305176</ele>
        <time>2021-09-12T07:10:04.000Z</time>
      </trkpt>
      <trkpt lat="45.20541" lon="5.73856">
        <ele>248.19999694824</ele>
        <time>2021-09-12T07:10:05.000Z</time>
      </trkpt>
      <trkpt lat="45.20538" lon="5.73851">
        <ele>247.60000610352</ele>
        <time>2021-09-12T07:10:07.000Z</time>
      </trkpt>
      <trkpt lat="45.20535" lon="5.73846">
        <ele>246.19999694824</ele>
        <time>2021-09-12T07:10:10.000Z</time>
      </trkpt>
      <trkpt lat="45.20532" lon="5.73848">
        <ele>245.39999389648</ele>
        <time>2021-09-12T07:10:12.000Z</time>
      </trkpt>
      <trkpt lat="45.20525" lon="5.73851">
        <ele>244.80000305176</ele>
        <time>2021-09-12T07:10:15.000Z</time>
      </trkpt>
      <trkpt lat="45.2052" lon="5.7385">
        <ele>244.39999389648</ele>
        <time>2021-09-12T07:10:17.000Z</time>
      </trkpt>
      <trkpt lat="45.20518" lon="5.73847">
        <ele>244</ele>
        <time>2021-09-12T07:10:18.000Z</time>
      </trkpt>
      <trkpt lat="45.20518" lon="5.73838">
        <ele>243.80000305176</ele>
        <time>2021-09-12T07:10:20.000Z</time>
      </trkpt>
      <trkpt lat="45.20515" lon="5.73836">
        <ele>243.60000610352</ele>
        <time>2021-09-12T07:10:21.000Z</time>
      </trkpt>
      <trkpt lat="45.20509" lon="5.73834">
        <ele>243</ele>
        <time>2021-09-12T07:10:23.000Z</time>
      </trkpt>
      <trkpt lat="45.20503" lon="5.73831">
        <ele>242.60000610352</ele>
        <time>2021-09-12T07:10:25.000Z</time>
      </trkpt>
      <trkpt lat="45.205" lon="5.73827">
        <ele>242.19999694824</ele>
        <time>2021-09-12T07:10:27.000Z</time>
      </trkpt>
      <trkpt lat="45.20497" lon="5.73821">
        <ele>241.60000610352</ele>
        <time>2021-09-12T07:10:29.000Z</time>
      </trkpt>
      <trkpt lat="45.20495" lon="5.73819">
        <ele>241.19999694824</ele>
        <time>2021-09-12T07:10:30.000Z</time>
      </trkpt>
      <trkpt lat="45.20489" lon="5.73808">
        <ele>240.39999389648</ele>
        <time>2021-09-12T07:10:34.000Z</time>
      </trkpt>
      <trkpt lat="45.20482" lon="5.73804">
        <ele>239.80000305176</ele>
        <time>2021-09-12T07:10:37.000Z</time>
      </trkpt>
      <trkpt lat="45.20476" lon="5.738">
        <ele>239.39999389648</ele>
        <time>2021-09-12T07:10:40.000Z</time>
      </trkpt>
      <trkpt lat="45.2047" lon="5.73796">
        <ele>239</ele>
        <time>2021-09-12T07:10:43.000Z</time>
      </trkpt>
      <trkpt lat="45.20467" lon="5.73793">
        <ele>238.60000610352</ele>
        <time>2021-09-12T07:10:45.000Z</time>
      </trkpt>
      <trkpt lat="45.20459" lon="5.73787">
        <ele>238.39999389648</ele>
        <time>2021-09-12T07:10:50.000Z</time>
      </trkpt>
      <trkpt lat="45.20455" lon="5.73784">
        <ele>238.39999389648</ele>
        <time>2021-09-12T07:10:51.000Z</time>
      </trkpt>
      <trkpt lat="45.20443" lon="5.73774">
        <ele>238</ele>
        <time>2021-09-12T07:10:57.000Z</time>
      </trkpt>
      <trkpt lat="45.20436" lon="5.73766">
        <ele>237.80000305176</ele>
        <time>2021-09-12T07:11:02.000Z</time>
      </trkpt>
      <trkpt lat="45.20433" lon="5.73763">
        <ele>237.60000610352</ele>
        <time>2021-09-12T07:11:05.000Z</time>
      </trkpt>
      <trkpt lat="45.20426" lon="5.73756">
        <ele>237.39999389648</ele>
        <time>2021-09-12T07:11:12.000Z</time>
      </trkpt>
      <trkpt lat="45.20425" lon="5.73755">
        <ele>237.19999694824</ele>
        <time>2021-09-12T07:11:13.000Z</time>
      </trkpt>
      <trkpt lat="45.20413" lon="5.73739">
        <ele>236.80000305176</ele>
        <time>2021-09-12T07:11:22.000Z</time>
      </trkpt>
      <trkpt lat="45.20406" lon="5.73729">
        <ele>236.19999694824</ele>
        <time>2021-09-12T07:11:26.000Z</time>
      </trkpt>
      <trkpt lat="45.20396" lon="5.73718">
        <ele>235.60000610352</ele>
        <time>2021-09-12T07:11:31.000Z</time>
      </trkpt>
      <trkpt lat="45.20392" lon="5.73712">
        <ele>235.39999389648</ele>
        <time>2021-09-12T07:11:33.000Z</time>
      </trkpt>
      <trkpt lat="45.20385" lon="5.73703">
        <ele>235.19999694824</ele>
        <time>2021-09-12T07:11:36.000Z</time>
      </trkpt>
      <trkpt lat="45.20383" lon="5.737">
        <ele>235.19999694824</ele>
        <time>2021-09-12T07:11:37.000Z</time>
      </trkpt>
      <trkpt lat="45.20369" lon="5.73686">
        <ele>235.39999389648</ele>
        <time>2021-09-12T07:11:43.000Z</time>
      </trkpt>
      <trkpt lat="45.20354" lon="5.73665">
        <ele>235</ele>
        <time>2021-09-12T07:11:50.000Z</time>
      </trkpt>
      <trkpt lat="45.20352" lon="5.73661">
        <ele>235</ele>
        <time>2021-09-12T07:11:51.000Z</time>
      </trkpt>
      <trkpt lat="45.20342" lon="5.73645">
        <ele>234.80000305176</ele>
        <time>2021-09-12T07:11:56.000Z</time>
      </trkpt>
      <trkpt lat="45.2034" lon="5.73641">
        <ele>234.80000305176</ele>
        <time>2021-09-12T07:11:57.000Z</time>
      </trkpt>
      <trkpt lat="45.20335" lon="5.73628">
        <ele>234.39999389648</ele>
        <time>2021-09-12T07:12:01.000Z</time>
      </trkpt>
      <trkpt lat="45.20333" lon="5.73621">
        <ele>234.39999389648</ele>
        <time>2021-09-12T07:12:03.000Z</time>
      </trkpt>
      <trkpt lat="45.20331" lon="5.73616">
        <ele>234.19999694824</ele>
        <time>2021-09-12T07:12:05.000Z</time>
      </trkpt>
      <trkpt lat="45.20327" lon="5.73604">
        <ele>234</ele>
        <time>2021-09-12T07:12:08.000Z</time>
      </trkpt>
      <trkpt lat="45.2032" lon="5.73597">
        <ele>233.80000305176</ele>
        <time>2021-09-12T07:12:11.000Z</time>
      </trkpt>
      <trkpt lat="45.20315" lon="5.73588">
        <ele>233.39999389648</ele>
        <time>2021-09-12T07:12:14.000Z</time>
      </trkpt>
      <trkpt lat="45.20312" lon="5.73582">
        <ele>233</ele>
        <time>2021-09-12T07:12:16.000Z</time>
      </trkpt>
      <trkpt lat="45.20309" lon="5.73573">
        <ele>232.19999694824</ele>
        <time>2021-09-12T07:12:19.000Z</time>
      </trkpt>
      <trkpt lat="45.20307" lon="5.7357">
        <ele>232</ele>
        <time>2021-09-12T07:12:20.000Z</time>
      </trkpt>
      <trkpt lat="45.20306" lon="5.73566">
        <ele>232</ele>
        <time>2021-09-12T07:12:21.000Z</time>
      </trkpt>
      <trkpt lat="45.20301" lon="5.7356">
        <ele>231.60000610352</ele>
        <time>2021-09-12T07:12:23.000Z</time>
      </trkpt>
      <trkpt lat="45.20294" lon="5.73554">
        <ele>231</ele>
        <time>2021-09-12T07:12:26.000Z</time>
      </trkpt>
      <trkpt lat="45.20291" lon="5.73554">
        <ele>230.80000305176</ele>
        <time>2021-09-12T07:12:27.000Z</time>
      </trkpt>
      <trkpt lat="45.20286" lon="5.73557">
        <ele>230.60000610352</ele>
        <time>2021-09-12T07:12:28.000Z</time>
      </trkpt>
      <trkpt lat="45.20272" lon="5.73566">
        <ele>229.39999389648</ele>
        <time>2021-09-12T07:12:33.000Z</time>
      </trkpt>
      <trkpt lat="45.20269" lon="5.73568">
        <ele>229</ele>
        <time>2021-09-12T07:12:34.000Z</time>
      </trkpt>
      <trkpt lat="45.20264" lon="5.73571">
        <ele>228</ele>
        <time>2021-09-12T07:12:36.000Z</time>
      </trkpt>
      <trkpt lat="45.20254" lon="5.73579">
        <ele>226.80000305176</ele>
        <time>2021-09-12T07:12:40.000Z</time>
      </trkpt>
      <trkpt lat="45.20251" lon="5.73581">
        <ele>226.19999694824</ele>
        <time>2021-09-12T07:12:41.000Z</time>
      </trkpt>
      <trkpt lat="45.20245" lon="5.73586">
        <ele>225.80000305176</ele>
        <time>2021-09-12T07:12:43.000Z</time>
      </trkpt>
      <trkpt lat="45.2024" lon="5.73599">
        <ele>225</ele>
        <time>2021-09-12T07:12:47.000Z</time>
      </trkpt>
      <trkpt lat="45.2024" lon="5.73607">
        <ele>225</ele>
        <time>2021-09-12T07:12:49.000Z</time>
      </trkpt>
      <trkpt lat="45.20242" lon="5.73614">
        <ele>224.39999389648</ele>
        <time>2021-09-12T07:12:51.000Z</time>
      </trkpt>
      <trkpt lat="45.20251" lon="5.73634">
        <ele>224.39999389648</ele>
        <time>2021-09-12T07:12:57.000Z</time>
      </trkpt>
      <trkpt lat="45.20255" lon="5.7366">
        <ele>225</ele>
        <time>2021-09-12T07:13:03.000Z</time>
      </trkpt>
      <trkpt lat="45.20255" lon="5.73664">
        <ele>224.80000305176</ele>
        <time>2021-09-12T07:13:04.000Z</time>
      </trkpt>
      <trkpt lat="45.20259" lon="5.7369">
        <ele>224.80000305176</ele>
        <time>2021-09-12T07:13:11.000Z</time>
      </trkpt>
      <trkpt lat="45.20263" lon="5.73716">
        <ele>225.19999694824</ele>
        <time>2021-09-12T07:13:17.000Z</time>
      </trkpt>
      <trkpt lat="45.20263" lon="5.73724">
        <ele>225</ele>
        <time>2021-09-12T07:13:19.000Z</time>
      </trkpt>
      <trkpt lat="45.20265" lon="5.73752">
        <ele>225</ele>
        <time>2021-09-12T07:13:26.000Z</time>
      </trkpt>
      <trkpt lat="45.20265" lon="5.73756">
        <ele>225</ele>
        <time>2021-09-12T07:13:27.000Z</time>
      </trkpt>
      <trkpt lat="45.20264" lon="5.73782">
        <ele>225</ele>
        <time>2021-09-12T07:13:33.000Z</time>
      </trkpt>
      <trkpt lat="45.20264" lon="5.73809">
        <ele>225.39999389648</ele>
        <time>2021-09-12T07:13:39.000Z</time>
      </trkpt>
      <trkpt lat="45.20262" lon="5.73826">
        <ele>225.19999694824</ele>
        <time>2021-09-12T07:13:43.000Z</time>
      </trkpt>
      <trkpt lat="45.20261" lon="5.7383">
        <ele>225.39999389648</ele>
        <time>2021-09-12T07:13:44.000Z</time>
      </trkpt>
      <trkpt lat="45.20257" lon="5.73847">
        <ele>225.19999694824</ele>
        <time>2021-09-12T07:13:48.000Z</time>
      </trkpt>
      <trkpt lat="45.20257" lon="5.73855">
        <ele>225.19999694824</ele>
        <time>2021-09-12T07:13:50.000Z</time>
      </trkpt>
      <trkpt lat="45.20253" lon="5.73873">
        <ele>225.19999694824</ele>
        <time>2021-09-12T07:13:55.000Z</time>
      </trkpt>
      <trkpt lat="45.2025" lon="5.73886">
        <ele>225.19999694824</ele>
        <time>2021-09-12T07:13:58.000Z</time>
      </trkpt>
      <trkpt lat="45.20246" lon="5.73902">
        <ele>225.39999389648</ele>
        <time>2021-09-12T07:14:02.000Z</time>
      </trkpt>
      <trkpt lat="45.20242" lon="5.73917">
        <ele>225.19999694824</ele>
        <time>2021-09-12T07:14:06.000Z</time>
      </trkpt>
      <trkpt lat="45.20236" lon="5.73945">
        <ele>225.39999389648</ele>
        <time>2021-09-12T07:14:13.000Z</time>
      </trkpt>
      <trkpt lat="45.20228" lon="5.73971">
        <ele>225.19999694824</ele>
        <time>2021-09-12T07:14:21.000Z</time>
      </trkpt>
      <trkpt lat="45.20221" lon="5.73993">
        <ele>225.19999694824</ele>
        <time>2021-09-12T07:14:27.000Z</time>
      </trkpt>
      <trkpt lat="45.20211" lon="5.74018">
        <ele>225</ele>
        <time>2021-09-12T07:14:34.000Z</time>
      </trkpt>
      <trkpt lat="45.20199" lon="5.74037">
        <ele>225.19999694824</ele>
        <time>2021-09-12T07:14:40.000Z</time>
      </trkpt>
      <trkpt lat="45.20196" lon="5.74043">
        <ele>225</ele>
        <time>2021-09-12T07:14:42.000Z</time>
      </trkpt>
      <trkpt lat="45.20184" lon="5.74063">
        <ele>225</ele>
        <time>2021-09-12T07:14:48.000Z</time>
      </trkpt>
      <trkpt lat="45.20176" lon="5.74077">
        <ele>225.19999694824</ele>
        <time>2021-09-12T07:14:52.000Z</time>
      </trkpt>
      <trkpt lat="45.20167" lon="5.74092">
        <ele>225.60000610352</ele>
        <time>2021-09-12T07:14:56.000Z</time>
      </trkpt>
      <trkpt lat="45.20161" lon="5.74104">
        <ele>225.80000305176</ele>
        <time>2021-09-12T07:15:00.000Z</time>
      </trkpt>
      <trkpt lat="45.20159" lon="5.74109">
        <ele>226</ele>
        <time>2021-09-12T07:15:02.000Z</time>
      </trkpt>
      <trkpt lat="45.20155" lon="5.74114">
        <ele>226</ele>
        <time>2021-09-12T07:15:04.000Z</time>
      </trkpt>
      <trkpt lat="45.20153" lon="5.74116">
        <ele>226.19999694824</ele>
        <time>2021-09-12T07:15:05.000Z</time>
      </trkpt>
      <trkpt lat="45.20149" lon="5.74123">
        <ele>226.60000610352</ele>
        <time>2021-09-12T07:15:07.000Z</time>
      </trkpt>
      <trkpt lat="45.20145" lon="5.74129">
        <ele>227</ele>
        <time>2021-09-12T07:15:09.000Z</time>
      </trkpt>
      <trkpt lat="45.20143" lon="5.74133">
        <ele>227.19999694824</ele>
        <time>2021-09-12T07:15:10.000Z</time>
      </trkpt>
      <trkpt lat="45.20142" lon="5.74136">
        <ele>227.19999694824</ele>
        <time>2021-09-12T07:15:11.000Z</time>
      </trkpt>
      <trkpt lat="45.20133" lon="5.74151">
        <ele>227.80000305176</ele>
        <time>2021-09-12T07:15:16.000Z</time>
      </trkpt>
      <trkpt lat="45.20129" lon="5.74157">
        <ele>228.39999389648</ele>
        <time>2021-09-12T07:15:18.000Z</time>
      </trkpt>
      <trkpt lat="45.20127" lon="5.7416">
        <ele>229</ele>
        <time>2021-09-12T07:15:19.000Z</time>
      </trkpt>
      <trkpt lat="45.2012" lon="5.74169">
        <ele>229.39999389648</ele>
        <time>2021-09-12T07:15:24.000Z</time>
      </trkpt>
      <trkpt lat="45.20118" lon="5.7417">
        <ele>229.19999694824</ele>
        <time>2021-09-12T07:15:27.000Z</time>
      </trkpt>
      <trkpt lat="45.20114" lon="5.74174">
        <ele>229.19999694824</ele>
        <time>2021-09-12T07:15:29.000Z</time>
      </trkpt>
      <trkpt lat="45.20111" lon="5.74179">
        <ele>229.39999389648</ele>
        <time>2021-09-12T07:15:31.000Z</time>
      </trkpt>
      <trkpt lat="45.20105" lon="5.74185">
        <ele>229.19999694824</ele>
        <time>2021-09-12T07:15:33.000Z</time>
      </trkpt>
      <trkpt lat="45.20101" lon="5.74186">
        <ele>229.19999694824</ele>
        <time>2021-09-12T07:15:34.000Z</time>
      </trkpt>
      <trkpt lat="45.20097" lon="5.74187">
        <ele>229</ele>
        <time>2021-09-12T07:15:35.000Z</time>
      </trkpt>
      <trkpt lat="45.20079" lon="5.74179">
        <ele>229</ele>
        <time>2021-09-12T07:15:41.000Z</time>
      </trkpt>
      <trkpt lat="45.20077" lon="5.74177">
        <ele>229.19999694824</ele>
        <time>2021-09-12T07:15:42.000Z</time>
      </trkpt>
      <trkpt lat="45.20061" lon="5.74157">
        <ele>229.39999389648</ele>
        <time>2021-09-12T07:15:48.000Z</time>
      </trkpt>
      <trkpt lat="45.20059" lon="5.74154">
        <ele>229.60000610352</ele>
        <time>2021-09-12T07:15:49.000Z</time>
      </trkpt>
      <trkpt lat="45.20049" lon="5.74141">
        <ele>229.60000610352</ele>
        <time>2021-09-12T07:15:54.000Z</time>
      </trkpt>
      <trkpt lat="45.20034" lon="5.74121">
        <ele>229.19999694824</ele>
        <time>2021-09-12T07:16:01.000Z</time>
      </trkpt>
      <trkpt lat="45.20023" lon="5.74109">
        <ele>229.19999694824</ele>
        <time>2021-09-12T07:16:06.000Z</time>
      </trkpt>
      <trkpt lat="45.20007" lon="5.74094">
        <ele>228.80000305176</ele>
        <time>2021-09-12T07:16:13.000Z</time>
      </trkpt>
      <trkpt lat="45.20005" lon="5.74094">
        <ele>228.80000305176</ele>
        <time>2021-09-12T07:16:14.000Z</time>
      </trkpt>
      <trkpt lat="45.20001" lon="5.74101">
        <ele>228.60000610352</ele>
        <time>2021-09-12T07:16:17.000Z</time>
      </trkpt>
      <trkpt lat="45.19997" lon="5.74111">
        <ele>228</ele>
        <time>2021-09-12T07:16:20.000Z</time>
      </trkpt>
      <trkpt lat="45.19991" lon="5.74121">
        <ele>227.39999389648</ele>
        <time>2021-09-12T07:16:23.000Z</time>
      </trkpt>
      <trkpt lat="45.19986" lon="5.74127">
        <ele>226.80000305176</ele>
        <time>2021-09-12T07:16:25.000Z</time>
      </trkpt>
      <trkpt lat="45.1998" lon="5.74139">
        <ele>225.80000305176</ele>
        <time>2021-09-12T07:16:29.000Z</time>
      </trkpt>
      <trkpt lat="45.19976" lon="5.74145">
        <ele>225.60000610352</ele>
        <time>2021-09-12T07:16:31.000Z</time>
      </trkpt>
      <trkpt lat="45.1996" lon="5.7416">
        <ele>225.19999694824</ele>
        <time>2021-09-12T07:16:37.000Z</time>
      </trkpt>
      <trkpt lat="45.19957" lon="5.74162">
        <ele>225.39999389648</ele>
        <time>2021-09-12T07:16:38.000Z</time>
      </trkpt>
      <trkpt lat="45.1994" lon="5.74174">
        <ele>225.19999694824</ele>
        <time>2021-09-12T07:16:44.000Z</time>
      </trkpt>
      <trkpt lat="45.19937" lon="5.74178">
        <ele>225.39999389648</ele>
        <time>2021-09-12T07:16:45.000Z</time>
      </trkpt>
      <trkpt lat="45.1993" lon="5.74184">
        <ele>225.39999389648</ele>
        <time>2021-09-12T07:16:47.000Z</time>
      </trkpt>
      <trkpt lat="45.19918" lon="5.7419">
        <ele>225.19999694824</ele>
        <time>2021-09-12T07:16:51.000Z</time>
      </trkpt>
      <trkpt lat="45.19899" lon="5.74202">
        <ele>225</ele>
        <time>2021-09-12T07:16:57.000Z</time>
      </trkpt>
      <trkpt lat="45.1989" lon="5.74207">
        <ele>224.80000305176</ele>
        <time>2021-09-12T07:17:00.000Z</time>
      </trkpt>
      <trkpt lat="45.1987" lon="5.74215">
        <ele>225</ele>
        <time>2021-09-12T07:17:06.000Z</time>
      </trkpt>
      <trkpt lat="45.1986" lon="5.74219">
        <ele>225.19999694824</ele>
        <time>2021-09-12T07:17:09.000Z</time>
      </trkpt>
      <trkpt lat="45.19847" lon="5.74227">
        <ele>225</ele>
        <time>2021-09-12T07:17:13.000Z</time>
      </trkpt>
      <trkpt lat="45.19836" lon="5.74233">
        <ele>225</ele>
        <time>2021-09-12T07:17:16.000Z</time>
      </trkpt>
      <trkpt lat="45.19833" lon="5.74235">
        <ele>224.80000305176</ele>
        <time>2021-09-12T07:17:17.000Z</time>
      </trkpt>
      <trkpt lat="45.19829" lon="5.74236">
        <ele>224.80000305176</ele>
        <time>2021-09-12T07:17:18.000Z</time>
      </trkpt>
      <trkpt lat="45.19809" lon="5.74242">
        <ele>224.80000305176</ele>
        <time>2021-09-12T07:17:23.000Z</time>
      </trkpt>
      <trkpt lat="45.19788" lon="5.74248">
        <ele>225</ele>
        <time>2021-09-12T07:17:29.000Z</time>
      </trkpt>
      <trkpt lat="45.19768" lon="5.74248">
        <ele>224.80000305176</ele>
        <time>2021-09-12T07:17:35.000Z</time>
      </trkpt>
      <trkpt lat="45.19764" lon="5.74249">
        <ele>224.80000305176</ele>
        <time>2021-09-12T07:17:36.000Z</time>
      </trkpt>
      <trkpt lat="45.19754" lon="5.74252">
        <ele>225</ele>
        <time>2021-09-12T07:17:39.000Z</time>
      </trkpt>
      <trkpt lat="45.1974" lon="5.74251">
        <ele>225</ele>
        <time>2021-09-12T07:17:43.000Z</time>
      </trkpt>
      <trkpt lat="45.19729" lon="5.74249">
        <ele>224.60000610352</ele>
        <time>2021-09-12T07:17:47.000Z</time>
      </trkpt>
      <trkpt lat="45.19728" lon="5.74247">
        <ele>224.60000610352</ele>
        <time>2021-09-12T07:17:48.000Z</time>
      </trkpt>
      <trkpt lat="45.19724" lon="5.74238">
        <ele>224</ele>
        <time>2021-09-12T07:17:51.000Z</time>
      </trkpt>
      <trkpt lat="45.19723" lon="5.74234">
        <ele>223.60000610352</ele>
        <time>2021-09-12T07:17:52.000Z</time>
      </trkpt>
      <trkpt lat="45.19723" lon="5.74229">
        <ele>223.60000610352</ele>
        <time>2021-09-12T07:17:53.000Z</time>
      </trkpt>
      <trkpt lat="45.19725" lon="5.74219">
        <ele>223.60000610352</ele>
        <time>2021-09-12T07:17:55.000Z</time>
      </trkpt>
      <trkpt lat="45.19722" lon="5.74198">
        <ele>223.39999389648</ele>
        <time>2021-09-12T07:18:00.000Z</time>
      </trkpt>
      <trkpt lat="45.19721" lon="5.74193">
        <ele>223.60000610352</ele>
        <time>2021-09-12T07:18:01.000Z</time>
      </trkpt>
      <trkpt lat="45.19716" lon="5.74169">
        <ele>223.19999694824</ele>
        <time>2021-09-12T07:18:06.000Z</time>
      </trkpt>
      <trkpt lat="45.19709" lon="5.74142">
        <ele>223</ele>
        <time>2021-09-12T07:18:12.000Z</time>
      </trkpt>
      <trkpt lat="45.19708" lon="5.74127">
        <ele>223</ele>
        <time>2021-09-12T07:18:16.000Z</time>
      </trkpt>
      <trkpt lat="45.19707" lon="5.74124">
        <ele>223.19999694824</ele>
        <time>2021-09-12T07:18:17.000Z</time>
      </trkpt>
      <trkpt lat="45.197" lon="5.74101">
        <ele>223.19999694824</ele>
        <time>2021-09-12T07:18:23.000Z</time>
      </trkpt>
      <trkpt lat="45.19699" lon="5.74096">
        <ele>223.19999694824</ele>
        <time>2021-09-12T07:18:24.000Z</time>
      </trkpt>
      <trkpt lat="45.19695" lon="5.74077">
        <ele>223.19999694824</ele>
        <time>2021-09-12T07:18:29.000Z</time>
      </trkpt>
      <trkpt lat="45.19693" lon="5.74064">
        <ele>223.39999389648</ele>
        <time>2021-09-12T07:18:32.000Z</time>
      </trkpt>
      <trkpt lat="45.19688" lon="5.74054">
        <ele>223.39999389648</ele>
        <time>2021-09-12T07:18:35.000Z</time>
      </trkpt>
      <trkpt lat="45.19688" lon="5.7405">
        <ele>223.19999694824</ele>
        <time>2021-09-12T07:18:36.000Z</time>
      </trkpt>
      <trkpt lat="45.19686" lon="5.74035">
        <ele>223.19999694824</ele>
        <time>2021-09-12T07:18:40.000Z</time>
      </trkpt>
      <trkpt lat="45.19685" lon="5.74022">
        <ele>223</ele>
        <time>2021-09-12T07:18:43.000Z</time>
      </trkpt>
      <trkpt lat="45.19683" lon="5.74015">
        <ele>222.60000610352</ele>
        <time>2021-09-12T07:18:45.000Z</time>
      </trkpt>
      <trkpt lat="45.19681" lon="5.74013">
        <ele>222.60000610352</ele>
        <time>2021-09-12T07:18:46.000Z</time>
      </trkpt>
      <trkpt lat="45.19675" lon="5.74009">
        <ele>222.39999389648</ele>
        <time>2021-09-12T07:18:49.000Z</time>
      </trkpt>
      <trkpt lat="45.19661" lon="5.74004">
        <ele>222.80000305176</ele>
        <time>2021-09-12T07:18:56.000Z</time>
      </trkpt>
      <trkpt lat="45.19642" lon="5.74003">
        <ele>223</ele>
        <time>2021-09-12T07:19:02.000Z</time>
      </trkpt>
      <trkpt lat="45.19639" lon="5.74003">
        <ele>223</ele>
        <time>2021-09-12T07:19:03.000Z</time>
      </trkpt>
      <trkpt lat="45.19619" lon="5.74003">
        <ele>222.80000305176</ele>
        <time>2021-09-12T07:19:09.000Z</time>
      </trkpt>
      <trkpt lat="45.19615" lon="5.74">
        <ele>222.60000610352</ele>
        <time>2021-09-12T07:19:11.000Z</time>
      </trkpt>
      <trkpt lat="45.19615" lon="5.73986">
        <ele>222.39999389648</ele>
        <time>2021-09-12T07:19:14.000Z</time>
      </trkpt>
      <trkpt lat="45.19617" lon="5.73976">
        <ele>222.19999694824</ele>
        <time>2021-09-12T07:19:17.000Z</time>
      </trkpt>
      <trkpt lat="45.1962" lon="5.73973">
        <ele>222.39999389648</ele>
        <time>2021-09-12T07:19:19.000Z</time>
      </trkpt>
      <trkpt lat="45.19631" lon="5.73971">
        <ele>222.60000610352</ele>
        <time>2021-09-12T07:19:24.000Z</time>
      </trkpt>
      <trkpt lat="45.19637" lon="5.73971">
        <ele>222.60000610352</ele>
        <time>2021-09-12T07:19:28.000Z</time>
      </trkpt>
      <trkpt lat="45.19638" lon="5.73968">
        <ele>222.60000610352</ele>
        <time>2021-09-12T07:19:32.000Z</time>
      </trkpt>
      <trkpt lat="45.1964" lon="5.73969">
        <ele>222.60000610352</ele>
        <time>2021-09-12T07:19:38.000Z</time>
      </trkpt>
      <trkpt lat="45.19639" lon="5.73969">
        <ele>222.39999389648</ele>
        <time>2021-09-12T07:19:43.000Z</time>
      </trkpt>
      <trkpt lat="45.1964" lon="5.73972">
        <ele>222.39999389648</ele>
        <time>2021-09-12T07:19:44.000Z</time>
      </trkpt>
      <trkpt lat="45.1964" lon="5.73974">
        <ele>222.39999389648</ele>
        <time>2021-09-12T07:19:46.000Z</time>
      </trkpt>
      <trkpt lat="45.19639" lon="5.73974">
        <ele>222.60000610352</ele>
        <time>2021-09-12T07:19:47.000Z</time>
      </trkpt>
      <trkpt lat="45.19639" lon="5.73972">
        <ele>224</ele>
        <time>2021-09-12T07:19:50.000Z</time>
      </trkpt>
      <trkpt lat="45.19639" lon="5.73972">
        <ele>224.60000610352</ele>
        <time>2021-09-12T07:19:52.000Z</time>
      </trkpt>
      <trkpt lat="45.19638" lon="5.73975">
        <ele>225</ele>
        <time>2021-09-12T07:19:54.000Z</time>
      </trkpt>
      <trkpt lat="45.19637" lon="5.73978">
        <ele>225.19999694824</ele>
        <time>2021-09-12T07:19:56.000Z</time>
      </trkpt>
      <trkpt lat="45.19639" lon="5.73977">
        <ele>225.80000305176</ele>
        <time>2021-09-12T07:19:59.000Z</time>
      </trkpt>
      <trkpt lat="45.19639" lon="5.73977">
        <ele>226</ele>
        <time>2021-09-12T07:20:00.000Z</time>
      </trkpt>
      <trkpt lat="45.19641" lon="5.73978">
        <ele>227.19999694824</ele>
        <time>2021-09-12T07:20:03.000Z</time>
      </trkpt>
      <trkpt lat="45.1964" lon="5.7398">
        <ele>227.60000610352</ele>
        <time>2021-09-12T07:20:05.000Z</time>
      </trkpt>
      <trkpt lat="45.19638" lon="5.73982">
        <ele>228</ele>
        <time>2021-09-12T07:20:09.000Z</time>
      </trkpt>
      <trkpt lat="45.19638" lon="5.73982">
        <ele>228.39999389648</ele>
        <time>2021-09-12T07:20:10.000Z</time>
      </trkpt>
      <trkpt lat="45.19638" lon="5.73982">
        <ele>229.19999694824</ele>
        <time>2021-09-12T07:20:12.000Z</time>
      </trkpt>
      <trkpt lat="45.19638" lon="5.73982">
        <ele>229.60000610352</ele>
        <time>2021-09-12T07:20:13.000Z</time>
      </trkpt>
      <trkpt lat="45.19638" lon="5.73982">
        <ele>229.80000305176</ele>
        <time>2021-09-12T07:20:14.000Z</time>
      </trkpt>
      <trkpt lat="45.19638" lon="5.73982">
        <ele>230</ele>
        <time>2021-09-12T07:20:15.000Z</time>
      </trkpt>
      <trkpt lat="45.19638" lon="5.73982">
        <ele>230.39999389648</ele>
        <time>2021-09-12T07:20:19.000Z</time>
      </trkpt>
      <trkpt lat="45.19638" lon="5.73982">
        <ele>230.39999389648</ele>
        <time>2021-09-12T07:20:22.000Z</time>
      </trkpt>
      <trkpt lat="45.19638" lon="5.73981">
        <ele>230.39999389648</ele>
        <time>2021-09-12T07:20:24.000Z</time>
      </trkpt>
      <trkpt lat="45.19639" lon="5.7398">
        <ele>230.19999694824</ele>
        <time>2021-09-12T07:20:26.000Z</time>
      </trkpt>
      <trkpt lat="45.1964" lon="5.73979">
        <ele>230.19999694824</ele>
        <time>2021-09-12T07:20:28.000Z</time>
      </trkpt>
    </trkseg>
  </trk>
</gpx>